<?xml version="1.0" encoding="UTF-8" standalone="no" ?>
<gpx xmlns="http://www.topografix.com/GPX/1/1" xmlns:xsi="http://www.w3.org/2001/XMLSchema-instance" xsi:schemaLocation="http://www.topografix.com/GPX/1/1 http://www.topografix.com/GPX/1/1/gpx.xsd" version="1.1" creator="VisuGPX - https://www.visugpx.com">
  <metadata>
    <name>balade dans l\'esterel</name>
    <desc><![CDATA[randonnée tranquille au pied du mont vinaigre]]></desc>
  </metadata>
  <trk>
    <name><![CDATA[182 Avenue des Mimosas]]></name>
    <desc><![CDATA[]]></desc>
    <trkseg>
      <trkpt lat="43.44249" lon="6.77855">
        <ele>286.2</ele>
        <time>2012-12-09T08:13:06.000Z</time>
      </trkpt>
      <trkpt lat="43.44171" lon="6.77772">
        <ele>76.5</ele>
        <time>2012-12-09T08:13:07.000Z</time>
      </trkpt>
      <trkpt lat="43.44176" lon="6.778">
        <ele>80.8</ele>
        <time>2012-12-09T08:13:08.000Z</time>
      </trkpt>
      <trkpt lat="43.44177" lon="6.77805">
        <ele>83.2</ele>
        <time>2012-12-09T08:13:09.000Z</time>
      </trkpt>
      <trkpt lat="43.44177" lon="6.77807">
        <ele>81.9</ele>
        <time>2012-12-09T08:13:11.000Z</time>
      </trkpt>
      <trkpt lat="43.44179" lon="6.77811">
        <ele>80.7</ele>
        <time>2012-12-09T08:13:39.000Z</time>
      </trkpt>
      <trkpt lat="43.44179" lon="6.77814">
        <ele>79.3</ele>
        <time>2012-12-09T08:13:40.000Z</time>
      </trkpt>
      <trkpt lat="43.44177" lon="6.77809">
        <ele>81</ele>
        <time>2012-12-09T08:14:34.000Z</time>
      </trkpt>
      <trkpt lat="43.44176" lon="6.77809">
        <ele>80.8</ele>
        <time>2012-12-09T08:14:35.000Z</time>
      </trkpt>
      <trkpt lat="43.44172" lon="6.77809">
        <ele>80.6</ele>
        <time>2012-12-09T08:14:38.000Z</time>
      </trkpt>
      <trkpt lat="43.44171" lon="6.77809">
        <ele>80.6</ele>
        <time>2012-12-09T08:14:39.000Z</time>
      </trkpt>
      <trkpt lat="43.44174" lon="6.77805">
        <ele>80.9</ele>
        <time>2012-12-09T08:15:02.000Z</time>
      </trkpt>
      <trkpt lat="43.44175" lon="6.77804">
        <ele>81</ele>
        <time>2012-12-09T08:15:03.000Z</time>
      </trkpt>
      <trkpt lat="43.44179" lon="6.77804">
        <ele>81.6</ele>
        <time>2012-12-09T08:15:08.000Z</time>
      </trkpt>
      <trkpt lat="43.44181" lon="6.77805">
        <ele>81.8</ele>
        <time>2012-12-09T08:15:09.000Z</time>
      </trkpt>
      <trkpt lat="43.44183" lon="6.7781">
        <ele>82.2</ele>
        <time>2012-12-09T08:15:14.000Z</time>
      </trkpt>
      <trkpt lat="43.44183" lon="6.77811">
        <ele>82.2</ele>
        <time>2012-12-09T08:15:15.000Z</time>
      </trkpt>
      <trkpt lat="43.44182" lon="6.77811">
        <ele>82.2</ele>
        <time>2012-12-09T08:15:42.000Z</time>
      </trkpt>
      <trkpt lat="43.44172" lon="6.77804">
        <ele>68.9</ele>
        <time>2012-12-09T08:15:47.000Z</time>
      </trkpt>
      <trkpt lat="43.44182" lon="6.77813">
        <ele>80.7</ele>
        <time>2012-12-09T08:15:48.000Z</time>
      </trkpt>
      <trkpt lat="43.4418" lon="6.77809">
        <ele>80.2</ele>
        <time>2012-12-09T08:16:28.000Z</time>
      </trkpt>
      <trkpt lat="43.4418" lon="6.77807">
        <ele>80.5</ele>
        <time>2012-12-09T08:16:29.000Z</time>
      </trkpt>
      <trkpt lat="43.44183" lon="6.77804">
        <ele>80.4</ele>
        <time>2012-12-09T08:16:31.000Z</time>
      </trkpt>
      <trkpt lat="43.44184" lon="6.77802">
        <ele>80.3</ele>
        <time>2012-12-09T08:16:32.000Z</time>
      </trkpt>
      <trkpt lat="43.44186" lon="6.778">
        <ele>80.3</ele>
        <time>2012-12-09T08:16:33.000Z</time>
      </trkpt>
      <trkpt lat="43.44189" lon="6.77798">
        <ele>80.3</ele>
        <time>2012-12-09T08:16:34.000Z</time>
      </trkpt>
      <trkpt lat="43.44191" lon="6.77795">
        <ele>80.3</ele>
        <time>2012-12-09T08:16:35.000Z</time>
      </trkpt>
      <trkpt lat="43.44193" lon="6.77792">
        <ele>80.4</ele>
        <time>2012-12-09T08:16:36.000Z</time>
      </trkpt>
      <trkpt lat="43.44196" lon="6.7779">
        <ele>80.5</ele>
        <time>2012-12-09T08:16:37.000Z</time>
      </trkpt>
      <trkpt lat="43.44199" lon="6.77788">
        <ele>80.5</ele>
        <time>2012-12-09T08:16:38.000Z</time>
      </trkpt>
      <trkpt lat="43.44202" lon="6.77785">
        <ele>80.5</ele>
        <time>2012-12-09T08:16:39.000Z</time>
      </trkpt>
      <trkpt lat="43.44205" lon="6.77783">
        <ele>80.5</ele>
        <time>2012-12-09T08:16:40.000Z</time>
      </trkpt>
      <trkpt lat="43.44209" lon="6.7778">
        <ele>80.5</ele>
        <time>2012-12-09T08:16:41.000Z</time>
      </trkpt>
      <trkpt lat="43.44231" lon="6.77757">
        <ele>78.1</ele>
        <time>2012-12-09T08:16:47.000Z</time>
      </trkpt>
      <trkpt lat="43.44237" lon="6.77759">
        <ele>78.4</ele>
        <time>2012-12-09T08:16:48.000Z</time>
      </trkpt>
      <trkpt lat="43.44241" lon="6.77756">
        <ele>77.3</ele>
        <time>2012-12-09T08:16:49.000Z</time>
      </trkpt>
      <trkpt lat="43.44244" lon="6.77751">
        <ele>76.5</ele>
        <time>2012-12-09T08:16:50.000Z</time>
      </trkpt>
      <trkpt lat="43.44244" lon="6.77744">
        <ele>77.9</ele>
        <time>2012-12-09T08:16:51.000Z</time>
      </trkpt>
      <trkpt lat="43.44248" lon="6.77739">
        <ele>76.7</ele>
        <time>2012-12-09T08:16:52.000Z</time>
      </trkpt>
      <trkpt lat="43.44253" lon="6.77734">
        <ele>75.3</ele>
        <time>2012-12-09T08:16:53.000Z</time>
      </trkpt>
      <trkpt lat="43.44258" lon="6.77729">
        <ele>75.4</ele>
        <time>2012-12-09T08:16:54.000Z</time>
      </trkpt>
      <trkpt lat="43.44263" lon="6.77724">
        <ele>75.1</ele>
        <time>2012-12-09T08:16:55.000Z</time>
      </trkpt>
      <trkpt lat="43.44268" lon="6.77718">
        <ele>75.1</ele>
        <time>2012-12-09T08:16:56.000Z</time>
      </trkpt>
      <trkpt lat="43.44272" lon="6.77712">
        <ele>75.7</ele>
        <time>2012-12-09T08:16:57.000Z</time>
      </trkpt>
      <trkpt lat="43.44277" lon="6.77707">
        <ele>76</ele>
        <time>2012-12-09T08:16:58.000Z</time>
      </trkpt>
      <trkpt lat="43.44282" lon="6.77701">
        <ele>76</ele>
        <time>2012-12-09T08:16:59.000Z</time>
      </trkpt>
      <trkpt lat="43.44287" lon="6.77695">
        <ele>76.1</ele>
        <time>2012-12-09T08:17:00.000Z</time>
      </trkpt>
      <trkpt lat="43.44292" lon="6.77689">
        <ele>76.1</ele>
        <time>2012-12-09T08:17:01.000Z</time>
      </trkpt>
      <trkpt lat="43.44297" lon="6.77683">
        <ele>76.1</ele>
        <time>2012-12-09T08:17:02.000Z</time>
      </trkpt>
      <trkpt lat="43.44301" lon="6.77678">
        <ele>76.3</ele>
        <time>2012-12-09T08:17:03.000Z</time>
      </trkpt>
      <trkpt lat="43.44306" lon="6.77673">
        <ele>76.5</ele>
        <time>2012-12-09T08:17:04.000Z</time>
      </trkpt>
      <trkpt lat="43.44312" lon="6.77669">
        <ele>77.2</ele>
        <time>2012-12-09T08:17:05.000Z</time>
      </trkpt>
      <trkpt lat="43.44316" lon="6.77664">
        <ele>76.8</ele>
        <time>2012-12-09T08:17:06.000Z</time>
      </trkpt>
      <trkpt lat="43.44321" lon="6.77659">
        <ele>76.8</ele>
        <time>2012-12-09T08:17:07.000Z</time>
      </trkpt>
      <trkpt lat="43.44325" lon="6.77655">
        <ele>77</ele>
        <time>2012-12-09T08:17:08.000Z</time>
      </trkpt>
      <trkpt lat="43.4433" lon="6.7765">
        <ele>77.2</ele>
        <time>2012-12-09T08:17:09.000Z</time>
      </trkpt>
      <trkpt lat="43.44334" lon="6.77646">
        <ele>76.8</ele>
        <time>2012-12-09T08:17:10.000Z</time>
      </trkpt>
      <trkpt lat="43.44338" lon="6.77642">
        <ele>76.9</ele>
        <time>2012-12-09T08:17:11.000Z</time>
      </trkpt>
      <trkpt lat="43.44341" lon="6.77638">
        <ele>77.4</ele>
        <time>2012-12-09T08:17:12.000Z</time>
      </trkpt>
      <trkpt lat="43.44345" lon="6.77634">
        <ele>77.8</ele>
        <time>2012-12-09T08:17:13.000Z</time>
      </trkpt>
      <trkpt lat="43.44349" lon="6.7763">
        <ele>77.9</ele>
        <time>2012-12-09T08:17:14.000Z</time>
      </trkpt>
      <trkpt lat="43.44353" lon="6.77626">
        <ele>77.8</ele>
        <time>2012-12-09T08:17:15.000Z</time>
      </trkpt>
      <trkpt lat="43.44356" lon="6.77622">
        <ele>77.7</ele>
        <time>2012-12-09T08:17:16.000Z</time>
      </trkpt>
      <trkpt lat="43.4436" lon="6.77618">
        <ele>77.5</ele>
        <time>2012-12-09T08:17:17.000Z</time>
      </trkpt>
      <trkpt lat="43.44364" lon="6.77615">
        <ele>77.3</ele>
        <time>2012-12-09T08:17:18.000Z</time>
      </trkpt>
      <trkpt lat="43.44368" lon="6.77612">
        <ele>77.2</ele>
        <time>2012-12-09T08:17:19.000Z</time>
      </trkpt>
      <trkpt lat="43.44371" lon="6.77609">
        <ele>76.9</ele>
        <time>2012-12-09T08:17:20.000Z</time>
      </trkpt>
      <trkpt lat="43.44375" lon="6.77606">
        <ele>76.5</ele>
        <time>2012-12-09T08:17:21.000Z</time>
      </trkpt>
      <trkpt lat="43.44378" lon="6.77603">
        <ele>76.2</ele>
        <time>2012-12-09T08:17:22.000Z</time>
      </trkpt>
      <trkpt lat="43.44382" lon="6.776">
        <ele>76</ele>
        <time>2012-12-09T08:17:23.000Z</time>
      </trkpt>
      <trkpt lat="43.44386" lon="6.77597">
        <ele>76</ele>
        <time>2012-12-09T08:17:24.000Z</time>
      </trkpt>
      <trkpt lat="43.4439" lon="6.77593">
        <ele>76.1</ele>
        <time>2012-12-09T08:17:25.000Z</time>
      </trkpt>
      <trkpt lat="43.44394" lon="6.77589">
        <ele>75.9</ele>
        <time>2012-12-09T08:17:26.000Z</time>
      </trkpt>
      <trkpt lat="43.44399" lon="6.77585">
        <ele>75.7</ele>
        <time>2012-12-09T08:17:27.000Z</time>
      </trkpt>
      <trkpt lat="43.44403" lon="6.77581">
        <ele>75.4</ele>
        <time>2012-12-09T08:17:28.000Z</time>
      </trkpt>
      <trkpt lat="43.44407" lon="6.77576">
        <ele>75.3</ele>
        <time>2012-12-09T08:17:29.000Z</time>
      </trkpt>
      <trkpt lat="43.4441" lon="6.77571">
        <ele>75.4</ele>
        <time>2012-12-09T08:17:30.000Z</time>
      </trkpt>
      <trkpt lat="43.44414" lon="6.77566">
        <ele>75.2</ele>
        <time>2012-12-09T08:17:31.000Z</time>
      </trkpt>
      <trkpt lat="43.44417" lon="6.7756">
        <ele>74.9</ele>
        <time>2012-12-09T08:17:32.000Z</time>
      </trkpt>
      <trkpt lat="43.4442" lon="6.77554">
        <ele>74.8</ele>
        <time>2012-12-09T08:17:33.000Z</time>
      </trkpt>
      <trkpt lat="43.44423" lon="6.77548">
        <ele>74.7</ele>
        <time>2012-12-09T08:17:34.000Z</time>
      </trkpt>
      <trkpt lat="43.44425" lon="6.77541">
        <ele>74.7</ele>
        <time>2012-12-09T08:17:35.000Z</time>
      </trkpt>
      <trkpt lat="43.44427" lon="6.77534">
        <ele>74.6</ele>
        <time>2012-12-09T08:17:36.000Z</time>
      </trkpt>
      <trkpt lat="43.44429" lon="6.77526">
        <ele>74.6</ele>
        <time>2012-12-09T08:17:37.000Z</time>
      </trkpt>
      <trkpt lat="43.44429" lon="6.77519">
        <ele>74.4</ele>
        <time>2012-12-09T08:17:38.000Z</time>
      </trkpt>
      <trkpt lat="43.44429" lon="6.77512">
        <ele>74.2</ele>
        <time>2012-12-09T08:17:39.000Z</time>
      </trkpt>
      <trkpt lat="43.44427" lon="6.77505">
        <ele>74.1</ele>
        <time>2012-12-09T08:17:40.000Z</time>
      </trkpt>
      <trkpt lat="43.44425" lon="6.77498">
        <ele>74.1</ele>
        <time>2012-12-09T08:17:41.000Z</time>
      </trkpt>
      <trkpt lat="43.44423" lon="6.77491">
        <ele>73.9</ele>
        <time>2012-12-09T08:17:42.000Z</time>
      </trkpt>
      <trkpt lat="43.44419" lon="6.77458">
        <ele>36.3</ele>
        <time>2012-12-09T08:17:47.000Z</time>
      </trkpt>
      <trkpt lat="43.44415" lon="6.77449">
        <ele>42.2</ele>
        <time>2012-12-09T08:17:48.000Z</time>
      </trkpt>
      <trkpt lat="43.44413" lon="6.77443">
        <ele>48.9</ele>
        <time>2012-12-09T08:17:49.000Z</time>
      </trkpt>
      <trkpt lat="43.44412" lon="6.77443">
        <ele>62.2</ele>
        <time>2012-12-09T08:17:50.000Z</time>
      </trkpt>
      <trkpt lat="43.44407" lon="6.77442">
        <ele>72.4</ele>
        <time>2012-12-09T08:17:51.000Z</time>
      </trkpt>
      <trkpt lat="43.44405" lon="6.77437">
        <ele>75.9</ele>
        <time>2012-12-09T08:17:52.000Z</time>
      </trkpt>
      <trkpt lat="43.44406" lon="6.77429">
        <ele>72.6</ele>
        <time>2012-12-09T08:17:53.000Z</time>
      </trkpt>
      <trkpt lat="43.44406" lon="6.77422">
        <ele>71.3</ele>
        <time>2012-12-09T08:17:54.000Z</time>
      </trkpt>
      <trkpt lat="43.44408" lon="6.77414">
        <ele>68.9</ele>
        <time>2012-12-09T08:17:55.000Z</time>
      </trkpt>
      <trkpt lat="43.4441" lon="6.77408">
        <ele>67.2</ele>
        <time>2012-12-09T08:17:56.000Z</time>
      </trkpt>
      <trkpt lat="43.44412" lon="6.77403">
        <ele>69.9</ele>
        <time>2012-12-09T08:17:57.000Z</time>
      </trkpt>
      <trkpt lat="43.44413" lon="6.77398">
        <ele>71.7</ele>
        <time>2012-12-09T08:17:58.000Z</time>
      </trkpt>
      <trkpt lat="43.44416" lon="6.77393">
        <ele>71.9</ele>
        <time>2012-12-09T08:17:59.000Z</time>
      </trkpt>
      <trkpt lat="43.44419" lon="6.77389">
        <ele>69.8</ele>
        <time>2012-12-09T08:18:00.000Z</time>
      </trkpt>
      <trkpt lat="43.44422" lon="6.77386">
        <ele>68.3</ele>
        <time>2012-12-09T08:18:01.000Z</time>
      </trkpt>
      <trkpt lat="43.44425" lon="6.77383">
        <ele>66.8</ele>
        <time>2012-12-09T08:18:02.000Z</time>
      </trkpt>
      <trkpt lat="43.44428" lon="6.7738">
        <ele>65.6</ele>
        <time>2012-12-09T08:18:03.000Z</time>
      </trkpt>
      <trkpt lat="43.44433" lon="6.77381">
        <ele>63.4</ele>
        <time>2012-12-09T08:18:04.000Z</time>
      </trkpt>
      <trkpt lat="43.44438" lon="6.77382">
        <ele>62.2</ele>
        <time>2012-12-09T08:18:05.000Z</time>
      </trkpt>
      <trkpt lat="43.44444" lon="6.77383">
        <ele>60.6</ele>
        <time>2012-12-09T08:18:06.000Z</time>
      </trkpt>
      <trkpt lat="43.44452" lon="6.77385">
        <ele>59.7</ele>
        <time>2012-12-09T08:18:07.000Z</time>
      </trkpt>
      <trkpt lat="43.44458" lon="6.77386">
        <ele>59.6</ele>
        <time>2012-12-09T08:18:08.000Z</time>
      </trkpt>
      <trkpt lat="43.44464" lon="6.77385">
        <ele>58.4</ele>
        <time>2012-12-09T08:18:09.000Z</time>
      </trkpt>
      <trkpt lat="43.44469" lon="6.77383">
        <ele>56.6</ele>
        <time>2012-12-09T08:18:10.000Z</time>
      </trkpt>
      <trkpt lat="43.44475" lon="6.77381">
        <ele>58</ele>
        <time>2012-12-09T08:18:11.000Z</time>
      </trkpt>
      <trkpt lat="43.44481" lon="6.77377">
        <ele>58.7</ele>
        <time>2012-12-09T08:18:12.000Z</time>
      </trkpt>
      <trkpt lat="43.44486" lon="6.77375">
        <ele>59.6</ele>
        <time>2012-12-09T08:18:13.000Z</time>
      </trkpt>
      <trkpt lat="43.44491" lon="6.77372">
        <ele>59.4</ele>
        <time>2012-12-09T08:18:14.000Z</time>
      </trkpt>
      <trkpt lat="43.44495" lon="6.77368">
        <ele>59.1</ele>
        <time>2012-12-09T08:18:15.000Z</time>
      </trkpt>
      <trkpt lat="43.44498" lon="6.77363">
        <ele>60</ele>
        <time>2012-12-09T08:18:16.000Z</time>
      </trkpt>
      <trkpt lat="43.44501" lon="6.77358">
        <ele>60.8</ele>
        <time>2012-12-09T08:18:17.000Z</time>
      </trkpt>
      <trkpt lat="43.44504" lon="6.77353">
        <ele>61.3</ele>
        <time>2012-12-09T08:18:18.000Z</time>
      </trkpt>
      <trkpt lat="43.44506" lon="6.77348">
        <ele>61.3</ele>
        <time>2012-12-09T08:18:19.000Z</time>
      </trkpt>
      <trkpt lat="43.44508" lon="6.77343">
        <ele>61.5</ele>
        <time>2012-12-09T08:18:20.000Z</time>
      </trkpt>
      <trkpt lat="43.4451" lon="6.77337">
        <ele>61.6</ele>
        <time>2012-12-09T08:18:21.000Z</time>
      </trkpt>
      <trkpt lat="43.4451" lon="6.7733">
        <ele>61.9</ele>
        <time>2012-12-09T08:18:22.000Z</time>
      </trkpt>
      <trkpt lat="43.4451" lon="6.77324">
        <ele>62.1</ele>
        <time>2012-12-09T08:18:23.000Z</time>
      </trkpt>
      <trkpt lat="43.44512" lon="6.77317">
        <ele>62</ele>
        <time>2012-12-09T08:18:24.000Z</time>
      </trkpt>
      <trkpt lat="43.44513" lon="6.77311">
        <ele>62.1</ele>
        <time>2012-12-09T08:18:25.000Z</time>
      </trkpt>
      <trkpt lat="43.44514" lon="6.77304">
        <ele>62.1</ele>
        <time>2012-12-09T08:18:26.000Z</time>
      </trkpt>
      <trkpt lat="43.44517" lon="6.77298">
        <ele>62.4</ele>
        <time>2012-12-09T08:18:27.000Z</time>
      </trkpt>
      <trkpt lat="43.44519" lon="6.77293">
        <ele>64</ele>
        <time>2012-12-09T08:18:28.000Z</time>
      </trkpt>
      <trkpt lat="43.44522" lon="6.77288">
        <ele>65.2</ele>
        <time>2012-12-09T08:18:29.000Z</time>
      </trkpt>
      <trkpt lat="43.44525" lon="6.77284">
        <ele>66</ele>
        <time>2012-12-09T08:18:30.000Z</time>
      </trkpt>
      <trkpt lat="43.44528" lon="6.77281">
        <ele>66.4</ele>
        <time>2012-12-09T08:18:31.000Z</time>
      </trkpt>
      <trkpt lat="43.44532" lon="6.77278">
        <ele>66.6</ele>
        <time>2012-12-09T08:18:32.000Z</time>
      </trkpt>
      <trkpt lat="43.44535" lon="6.77275">
        <ele>66.7</ele>
        <time>2012-12-09T08:18:33.000Z</time>
      </trkpt>
      <trkpt lat="43.44538" lon="6.77273">
        <ele>66.5</ele>
        <time>2012-12-09T08:18:34.000Z</time>
      </trkpt>
      <trkpt lat="43.44541" lon="6.77271">
        <ele>67</ele>
        <time>2012-12-09T08:18:35.000Z</time>
      </trkpt>
      <trkpt lat="43.44545" lon="6.77271">
        <ele>67.1</ele>
        <time>2012-12-09T08:18:36.000Z</time>
      </trkpt>
      <trkpt lat="43.44548" lon="6.77272">
        <ele>66.9</ele>
        <time>2012-12-09T08:18:37.000Z</time>
      </trkpt>
      <trkpt lat="43.44552" lon="6.77275">
        <ele>66.8</ele>
        <time>2012-12-09T08:18:38.000Z</time>
      </trkpt>
      <trkpt lat="43.44557" lon="6.77281">
        <ele>67.3</ele>
        <time>2012-12-09T08:18:39.000Z</time>
      </trkpt>
      <trkpt lat="43.44561" lon="6.77287">
        <ele>67.7</ele>
        <time>2012-12-09T08:18:40.000Z</time>
      </trkpt>
      <trkpt lat="43.44566" lon="6.77294">
        <ele>68.4</ele>
        <time>2012-12-09T08:18:41.000Z</time>
      </trkpt>
      <trkpt lat="43.44571" lon="6.773">
        <ele>68.7</ele>
        <time>2012-12-09T08:18:42.000Z</time>
      </trkpt>
      <trkpt lat="43.44604" lon="6.77325">
        <ele>84.6</ele>
        <time>2012-12-09T08:18:47.000Z</time>
      </trkpt>
      <trkpt lat="43.4461" lon="6.77319">
        <ele>86.2</ele>
        <time>2012-12-09T08:18:48.000Z</time>
      </trkpt>
      <trkpt lat="43.44611" lon="6.77314">
        <ele>82.2</ele>
        <time>2012-12-09T08:18:49.000Z</time>
      </trkpt>
      <trkpt lat="43.44613" lon="6.77305">
        <ele>82.1</ele>
        <time>2012-12-09T08:18:50.000Z</time>
      </trkpt>
      <trkpt lat="43.44615" lon="6.77297">
        <ele>80.9</ele>
        <time>2012-12-09T08:18:52.000Z</time>
      </trkpt>
      <trkpt lat="43.44618" lon="6.77292">
        <ele>80.9</ele>
        <time>2012-12-09T08:18:53.000Z</time>
      </trkpt>
      <trkpt lat="43.44621" lon="6.77286">
        <ele>81.1</ele>
        <time>2012-12-09T08:18:54.000Z</time>
      </trkpt>
      <trkpt lat="43.44623" lon="6.77278">
        <ele>81.7</ele>
        <time>2012-12-09T08:18:55.000Z</time>
      </trkpt>
      <trkpt lat="43.44625" lon="6.77271">
        <ele>81.6</ele>
        <time>2012-12-09T08:18:56.000Z</time>
      </trkpt>
      <trkpt lat="43.44628" lon="6.77264">
        <ele>80.7</ele>
        <time>2012-12-09T08:18:57.000Z</time>
      </trkpt>
      <trkpt lat="43.4463" lon="6.77257">
        <ele>80</ele>
        <time>2012-12-09T08:18:58.000Z</time>
      </trkpt>
      <trkpt lat="43.44632" lon="6.7725">
        <ele>79.7</ele>
        <time>2012-12-09T08:18:59.000Z</time>
      </trkpt>
      <trkpt lat="43.44634" lon="6.77243">
        <ele>79.8</ele>
        <time>2012-12-09T08:19:00.000Z</time>
      </trkpt>
      <trkpt lat="43.44636" lon="6.77236">
        <ele>79.9</ele>
        <time>2012-12-09T08:19:01.000Z</time>
      </trkpt>
      <trkpt lat="43.44639" lon="6.7723">
        <ele>80.6</ele>
        <time>2012-12-09T08:19:02.000Z</time>
      </trkpt>
      <trkpt lat="43.44642" lon="6.77223">
        <ele>80.9</ele>
        <time>2012-12-09T08:19:03.000Z</time>
      </trkpt>
      <trkpt lat="43.44646" lon="6.77217">
        <ele>80.2</ele>
        <time>2012-12-09T08:19:04.000Z</time>
      </trkpt>
      <trkpt lat="43.4465" lon="6.77211">
        <ele>79.8</ele>
        <time>2012-12-09T08:19:05.000Z</time>
      </trkpt>
      <trkpt lat="43.44654" lon="6.77204">
        <ele>78.7</ele>
        <time>2012-12-09T08:19:06.000Z</time>
      </trkpt>
      <trkpt lat="43.44657" lon="6.77197">
        <ele>78.9</ele>
        <time>2012-12-09T08:19:07.000Z</time>
      </trkpt>
      <trkpt lat="43.44661" lon="6.7719">
        <ele>78.5</ele>
        <time>2012-12-09T08:19:08.000Z</time>
      </trkpt>
      <trkpt lat="43.44665" lon="6.77183">
        <ele>78</ele>
        <time>2012-12-09T08:19:09.000Z</time>
      </trkpt>
      <trkpt lat="43.44669" lon="6.77175">
        <ele>77.1</ele>
        <time>2012-12-09T08:19:10.000Z</time>
      </trkpt>
      <trkpt lat="43.44673" lon="6.77168">
        <ele>75.9</ele>
        <time>2012-12-09T08:19:11.000Z</time>
      </trkpt>
      <trkpt lat="43.44677" lon="6.7716">
        <ele>75.3</ele>
        <time>2012-12-09T08:19:12.000Z</time>
      </trkpt>
      <trkpt lat="43.4468" lon="6.77152">
        <ele>75</ele>
        <time>2012-12-09T08:19:13.000Z</time>
      </trkpt>
      <trkpt lat="43.44683" lon="6.77144">
        <ele>74.9</ele>
        <time>2012-12-09T08:19:14.000Z</time>
      </trkpt>
      <trkpt lat="43.44686" lon="6.77136">
        <ele>74.9</ele>
        <time>2012-12-09T08:19:15.000Z</time>
      </trkpt>
      <trkpt lat="43.44688" lon="6.77128">
        <ele>75.1</ele>
        <time>2012-12-09T08:19:16.000Z</time>
      </trkpt>
      <trkpt lat="43.4469" lon="6.7712">
        <ele>75.4</ele>
        <time>2012-12-09T08:19:17.000Z</time>
      </trkpt>
      <trkpt lat="43.44691" lon="6.77112">
        <ele>75.4</ele>
        <time>2012-12-09T08:19:18.000Z</time>
      </trkpt>
      <trkpt lat="43.44693" lon="6.77105">
        <ele>75.1</ele>
        <time>2012-12-09T08:19:19.000Z</time>
      </trkpt>
      <trkpt lat="43.44693" lon="6.77098">
        <ele>74.7</ele>
        <time>2012-12-09T08:19:20.000Z</time>
      </trkpt>
      <trkpt lat="43.44695" lon="6.77091">
        <ele>74.4</ele>
        <time>2012-12-09T08:19:21.000Z</time>
      </trkpt>
      <trkpt lat="43.44695" lon="6.77086">
        <ele>74.3</ele>
        <time>2012-12-09T08:19:22.000Z</time>
      </trkpt>
      <trkpt lat="43.44696" lon="6.77081">
        <ele>74.1</ele>
        <time>2012-12-09T08:19:23.000Z</time>
      </trkpt>
      <trkpt lat="43.44695" lon="6.77076">
        <ele>73.9</ele>
        <time>2012-12-09T08:19:24.000Z</time>
      </trkpt>
      <trkpt lat="43.44694" lon="6.77071">
        <ele>74.1</ele>
        <time>2012-12-09T08:19:25.000Z</time>
      </trkpt>
      <trkpt lat="43.44694" lon="6.77068">
        <ele>73.9</ele>
        <time>2012-12-09T08:19:26.000Z</time>
      </trkpt>
      <trkpt lat="43.44693" lon="6.77065">
        <ele>73.5</ele>
        <time>2012-12-09T08:19:27.000Z</time>
      </trkpt>
      <trkpt lat="43.44692" lon="6.77061">
        <ele>73.5</ele>
        <time>2012-12-09T08:19:28.000Z</time>
      </trkpt>
      <trkpt lat="43.44692" lon="6.77059">
        <ele>73.6</ele>
        <time>2012-12-09T08:19:29.000Z</time>
      </trkpt>
      <trkpt lat="43.44692" lon="6.77054">
        <ele>74</ele>
        <time>2012-12-09T08:19:31.000Z</time>
      </trkpt>
      <trkpt lat="43.44692" lon="6.7705">
        <ele>74</ele>
        <time>2012-12-09T08:19:32.000Z</time>
      </trkpt>
      <trkpt lat="43.44693" lon="6.77046">
        <ele>73.9</ele>
        <time>2012-12-09T08:19:33.000Z</time>
      </trkpt>
      <trkpt lat="43.44694" lon="6.77042">
        <ele>73.8</ele>
        <time>2012-12-09T08:19:34.000Z</time>
      </trkpt>
      <trkpt lat="43.44695" lon="6.77038">
        <ele>73.8</ele>
        <time>2012-12-09T08:19:35.000Z</time>
      </trkpt>
      <trkpt lat="43.44695" lon="6.77033">
        <ele>73.6</ele>
        <time>2012-12-09T08:19:36.000Z</time>
      </trkpt>
      <trkpt lat="43.44695" lon="6.77028">
        <ele>73.6</ele>
        <time>2012-12-09T08:19:37.000Z</time>
      </trkpt>
      <trkpt lat="43.44695" lon="6.77023">
        <ele>73.6</ele>
        <time>2012-12-09T08:19:38.000Z</time>
      </trkpt>
      <trkpt lat="43.44696" lon="6.77018">
        <ele>73.7</ele>
        <time>2012-12-09T08:19:39.000Z</time>
      </trkpt>
      <trkpt lat="43.44697" lon="6.77014">
        <ele>73.7</ele>
        <time>2012-12-09T08:19:40.000Z</time>
      </trkpt>
      <trkpt lat="43.44698" lon="6.7701">
        <ele>73.7</ele>
        <time>2012-12-09T08:19:41.000Z</time>
      </trkpt>
      <trkpt lat="43.44699" lon="6.77005">
        <ele>73.8</ele>
        <time>2012-12-09T08:19:42.000Z</time>
      </trkpt>
      <trkpt lat="43.44711" lon="6.76983">
        <ele>50</ele>
        <time>2012-12-09T08:19:47.000Z</time>
      </trkpt>
      <trkpt lat="43.44708" lon="6.7699">
        <ele>72.5</ele>
        <time>2012-12-09T08:19:48.000Z</time>
      </trkpt>
      <trkpt lat="43.44716" lon="6.76995">
        <ele>73.3</ele>
        <time>2012-12-09T08:19:49.000Z</time>
      </trkpt>
      <trkpt lat="43.44712" lon="6.76993">
        <ele>81</ele>
        <time>2012-12-09T08:20:26.000Z</time>
      </trkpt>
      <trkpt lat="43.44711" lon="6.76993">
        <ele>80.9</ele>
        <time>2012-12-09T08:20:27.000Z</time>
      </trkpt>
      <trkpt lat="43.44714" lon="6.7699">
        <ele>82.3</ele>
        <time>2012-12-09T08:21:42.000Z</time>
      </trkpt>
      <trkpt lat="43.44724" lon="6.7698">
        <ele>81.8</ele>
        <time>2012-12-09T08:21:46.000Z</time>
      </trkpt>
      <trkpt lat="43.44727" lon="6.76983">
        <ele>82.3</ele>
        <time>2012-12-09T08:21:47.000Z</time>
      </trkpt>
      <trkpt lat="43.4473" lon="6.76984">
        <ele>83.8</ele>
        <time>2012-12-09T08:21:48.000Z</time>
      </trkpt>
      <trkpt lat="43.44732" lon="6.76984">
        <ele>83.4</ele>
        <time>2012-12-09T08:21:49.000Z</time>
      </trkpt>
      <trkpt lat="43.44735" lon="6.76986">
        <ele>82.3</ele>
        <time>2012-12-09T08:21:50.000Z</time>
      </trkpt>
      <trkpt lat="43.44738" lon="6.76986">
        <ele>81.1</ele>
        <time>2012-12-09T08:21:51.000Z</time>
      </trkpt>
      <trkpt lat="43.4474" lon="6.76986">
        <ele>80.6</ele>
        <time>2012-12-09T08:21:52.000Z</time>
      </trkpt>
      <trkpt lat="43.44742" lon="6.76986">
        <ele>79.2</ele>
        <time>2012-12-09T08:21:53.000Z</time>
      </trkpt>
      <trkpt lat="43.44744" lon="6.76984">
        <ele>78.9</ele>
        <time>2012-12-09T08:21:54.000Z</time>
      </trkpt>
      <trkpt lat="43.44748" lon="6.76981">
        <ele>79</ele>
        <time>2012-12-09T08:21:56.000Z</time>
      </trkpt>
      <trkpt lat="43.4475" lon="6.7698">
        <ele>79.4</ele>
        <time>2012-12-09T08:21:57.000Z</time>
      </trkpt>
      <trkpt lat="43.44753" lon="6.7698">
        <ele>80.3</ele>
        <time>2012-12-09T08:21:59.000Z</time>
      </trkpt>
      <trkpt lat="43.44755" lon="6.76978">
        <ele>82.5</ele>
        <time>2012-12-09T08:22:00.000Z</time>
      </trkpt>
      <trkpt lat="43.44757" lon="6.7698">
        <ele>81.6</ele>
        <time>2012-12-09T08:22:01.000Z</time>
      </trkpt>
      <trkpt lat="43.44759" lon="6.7698">
        <ele>81.9</ele>
        <time>2012-12-09T08:22:02.000Z</time>
      </trkpt>
      <trkpt lat="43.44761" lon="6.76981">
        <ele>82.6</ele>
        <time>2012-12-09T08:22:03.000Z</time>
      </trkpt>
      <trkpt lat="43.44764" lon="6.76981">
        <ele>82.7</ele>
        <time>2012-12-09T08:22:04.000Z</time>
      </trkpt>
      <trkpt lat="43.44767" lon="6.7698">
        <ele>82</ele>
        <time>2012-12-09T08:22:05.000Z</time>
      </trkpt>
      <trkpt lat="43.4477" lon="6.7698">
        <ele>81.7</ele>
        <time>2012-12-09T08:22:06.000Z</time>
      </trkpt>
      <trkpt lat="43.44774" lon="6.76979">
        <ele>80.9</ele>
        <time>2012-12-09T08:22:07.000Z</time>
      </trkpt>
      <trkpt lat="43.44777" lon="6.76979">
        <ele>80.6</ele>
        <time>2012-12-09T08:22:08.000Z</time>
      </trkpt>
      <trkpt lat="43.44782" lon="6.76978">
        <ele>79.9</ele>
        <time>2012-12-09T08:22:09.000Z</time>
      </trkpt>
      <trkpt lat="43.44786" lon="6.76978">
        <ele>79.5</ele>
        <time>2012-12-09T08:22:10.000Z</time>
      </trkpt>
      <trkpt lat="43.44791" lon="6.76978">
        <ele>79.2</ele>
        <time>2012-12-09T08:22:11.000Z</time>
      </trkpt>
      <trkpt lat="43.44796" lon="6.76977">
        <ele>78.6</ele>
        <time>2012-12-09T08:22:12.000Z</time>
      </trkpt>
      <trkpt lat="43.44801" lon="6.76977">
        <ele>78.1</ele>
        <time>2012-12-09T08:22:13.000Z</time>
      </trkpt>
      <trkpt lat="43.44805" lon="6.76977">
        <ele>78.1</ele>
        <time>2012-12-09T08:22:14.000Z</time>
      </trkpt>
      <trkpt lat="43.44809" lon="6.76977">
        <ele>77.9</ele>
        <time>2012-12-09T08:22:15.000Z</time>
      </trkpt>
      <trkpt lat="43.44814" lon="6.76977">
        <ele>77.7</ele>
        <time>2012-12-09T08:22:16.000Z</time>
      </trkpt>
      <trkpt lat="43.44819" lon="6.76977">
        <ele>77.7</ele>
        <time>2012-12-09T08:22:17.000Z</time>
      </trkpt>
      <trkpt lat="43.44824" lon="6.76977">
        <ele>78</ele>
        <time>2012-12-09T08:22:18.000Z</time>
      </trkpt>
      <trkpt lat="43.44829" lon="6.76977">
        <ele>78.6</ele>
        <time>2012-12-09T08:22:19.000Z</time>
      </trkpt>
      <trkpt lat="43.44833" lon="6.76978">
        <ele>78.8</ele>
        <time>2012-12-09T08:22:20.000Z</time>
      </trkpt>
      <trkpt lat="43.44836" lon="6.76979">
        <ele>79</ele>
        <time>2012-12-09T08:22:21.000Z</time>
      </trkpt>
      <trkpt lat="43.4484" lon="6.7698">
        <ele>78.9</ele>
        <time>2012-12-09T08:22:22.000Z</time>
      </trkpt>
      <trkpt lat="43.44843" lon="6.7698">
        <ele>79</ele>
        <time>2012-12-09T08:22:23.000Z</time>
      </trkpt>
      <trkpt lat="43.44846" lon="6.76981">
        <ele>79.1</ele>
        <time>2012-12-09T08:22:24.000Z</time>
      </trkpt>
      <trkpt lat="43.44848" lon="6.76981">
        <ele>78.8</ele>
        <time>2012-12-09T08:22:25.000Z</time>
      </trkpt>
      <trkpt lat="43.4485" lon="6.76982">
        <ele>78.7</ele>
        <time>2012-12-09T08:22:26.000Z</time>
      </trkpt>
      <trkpt lat="43.44854" lon="6.76984">
        <ele>78.5</ele>
        <time>2012-12-09T08:22:28.000Z</time>
      </trkpt>
      <trkpt lat="43.44857" lon="6.76985">
        <ele>78.7</ele>
        <time>2012-12-09T08:22:29.000Z</time>
      </trkpt>
      <trkpt lat="43.44859" lon="6.76989">
        <ele>78.6</ele>
        <time>2012-12-09T08:22:31.000Z</time>
      </trkpt>
      <trkpt lat="43.44861" lon="6.76992">
        <ele>78.5</ele>
        <time>2012-12-09T08:22:32.000Z</time>
      </trkpt>
      <trkpt lat="43.44863" lon="6.76994">
        <ele>78.3</ele>
        <time>2012-12-09T08:22:33.000Z</time>
      </trkpt>
      <trkpt lat="43.44866" lon="6.76996">
        <ele>78.2</ele>
        <time>2012-12-09T08:22:34.000Z</time>
      </trkpt>
      <trkpt lat="43.44869" lon="6.76997">
        <ele>77.8</ele>
        <time>2012-12-09T08:22:35.000Z</time>
      </trkpt>
      <trkpt lat="43.44872" lon="6.76999">
        <ele>77.8</ele>
        <time>2012-12-09T08:22:36.000Z</time>
      </trkpt>
      <trkpt lat="43.44874" lon="6.77001">
        <ele>78</ele>
        <time>2012-12-09T08:22:37.000Z</time>
      </trkpt>
      <trkpt lat="43.44876" lon="6.77003">
        <ele>78.1</ele>
        <time>2012-12-09T08:22:38.000Z</time>
      </trkpt>
      <trkpt lat="43.44878" lon="6.77006">
        <ele>78</ele>
        <time>2012-12-09T08:22:39.000Z</time>
      </trkpt>
      <trkpt lat="43.44881" lon="6.77009">
        <ele>77.7</ele>
        <time>2012-12-09T08:22:40.000Z</time>
      </trkpt>
      <trkpt lat="43.44883" lon="6.77011">
        <ele>77.8</ele>
        <time>2012-12-09T08:22:41.000Z</time>
      </trkpt>
      <trkpt lat="43.44886" lon="6.77013">
        <ele>77.9</ele>
        <time>2012-12-09T08:22:42.000Z</time>
      </trkpt>
      <trkpt lat="43.44904" lon="6.77021">
        <ele>49.2</ele>
        <time>2012-12-09T08:22:47.000Z</time>
      </trkpt>
      <trkpt lat="43.4491" lon="6.77025">
        <ele>63.4</ele>
        <time>2012-12-09T08:22:48.000Z</time>
      </trkpt>
      <trkpt lat="43.44913" lon="6.77027">
        <ele>66.9</ele>
        <time>2012-12-09T08:22:49.000Z</time>
      </trkpt>
      <trkpt lat="43.44916" lon="6.77029">
        <ele>66.9</ele>
        <time>2012-12-09T08:22:50.000Z</time>
      </trkpt>
      <trkpt lat="43.44921" lon="6.77035">
        <ele>75</ele>
        <time>2012-12-09T08:22:51.000Z</time>
      </trkpt>
      <trkpt lat="43.44925" lon="6.77038">
        <ele>76</ele>
        <time>2012-12-09T08:22:52.000Z</time>
      </trkpt>
      <trkpt lat="43.44927" lon="6.77038">
        <ele>76.4</ele>
        <time>2012-12-09T08:22:53.000Z</time>
      </trkpt>
      <trkpt lat="43.4493" lon="6.77039">
        <ele>77</ele>
        <time>2012-12-09T08:22:54.000Z</time>
      </trkpt>
      <trkpt lat="43.44934" lon="6.77041">
        <ele>78.2</ele>
        <time>2012-12-09T08:22:55.000Z</time>
      </trkpt>
      <trkpt lat="43.44938" lon="6.77044">
        <ele>78.8</ele>
        <time>2012-12-09T08:22:56.000Z</time>
      </trkpt>
      <trkpt lat="43.44942" lon="6.77047">
        <ele>80.6</ele>
        <time>2012-12-09T08:22:57.000Z</time>
      </trkpt>
      <trkpt lat="43.44946" lon="6.7705">
        <ele>81.7</ele>
        <time>2012-12-09T08:22:58.000Z</time>
      </trkpt>
      <trkpt lat="43.44949" lon="6.77054">
        <ele>81.4</ele>
        <time>2012-12-09T08:22:59.000Z</time>
      </trkpt>
      <trkpt lat="43.44953" lon="6.77059">
        <ele>81.8</ele>
        <time>2012-12-09T08:23:00.000Z</time>
      </trkpt>
      <trkpt lat="43.44957" lon="6.77064">
        <ele>81.5</ele>
        <time>2012-12-09T08:23:01.000Z</time>
      </trkpt>
      <trkpt lat="43.44961" lon="6.77068">
        <ele>81.9</ele>
        <time>2012-12-09T08:23:02.000Z</time>
      </trkpt>
      <trkpt lat="43.44965" lon="6.77071">
        <ele>82</ele>
        <time>2012-12-09T08:23:03.000Z</time>
      </trkpt>
      <trkpt lat="43.4497" lon="6.77074">
        <ele>82.5</ele>
        <time>2012-12-09T08:23:04.000Z</time>
      </trkpt>
      <trkpt lat="43.44974" lon="6.77076">
        <ele>84</ele>
        <time>2012-12-09T08:23:05.000Z</time>
      </trkpt>
      <trkpt lat="43.44978" lon="6.77078">
        <ele>84.4</ele>
        <time>2012-12-09T08:23:06.000Z</time>
      </trkpt>
      <trkpt lat="43.44981" lon="6.77079">
        <ele>84.8</ele>
        <time>2012-12-09T08:23:07.000Z</time>
      </trkpt>
      <trkpt lat="43.44984" lon="6.77081">
        <ele>84.4</ele>
        <time>2012-12-09T08:23:08.000Z</time>
      </trkpt>
      <trkpt lat="43.44987" lon="6.77082">
        <ele>84.3</ele>
        <time>2012-12-09T08:23:09.000Z</time>
      </trkpt>
      <trkpt lat="43.44989" lon="6.77084">
        <ele>82.9</ele>
        <time>2012-12-09T08:23:10.000Z</time>
      </trkpt>
      <trkpt lat="43.44992" lon="6.77086">
        <ele>82.3</ele>
        <time>2012-12-09T08:23:11.000Z</time>
      </trkpt>
      <trkpt lat="43.44994" lon="6.77089">
        <ele>81.2</ele>
        <time>2012-12-09T08:23:12.000Z</time>
      </trkpt>
      <trkpt lat="43.44996" lon="6.77092">
        <ele>81.4</ele>
        <time>2012-12-09T08:23:13.000Z</time>
      </trkpt>
      <trkpt lat="43.44997" lon="6.77096">
        <ele>81.6</ele>
        <time>2012-12-09T08:23:14.000Z</time>
      </trkpt>
      <trkpt lat="43.44997" lon="6.771">
        <ele>81.7</ele>
        <time>2012-12-09T08:23:15.000Z</time>
      </trkpt>
      <trkpt lat="43.44997" lon="6.77104">
        <ele>81.9</ele>
        <time>2012-12-09T08:23:16.000Z</time>
      </trkpt>
      <trkpt lat="43.44997" lon="6.77109">
        <ele>80.8</ele>
        <time>2012-12-09T08:23:17.000Z</time>
      </trkpt>
      <trkpt lat="43.44998" lon="6.77113">
        <ele>80.7</ele>
        <time>2012-12-09T08:23:18.000Z</time>
      </trkpt>
      <trkpt lat="43.44998" lon="6.77117">
        <ele>80.7</ele>
        <time>2012-12-09T08:23:19.000Z</time>
      </trkpt>
      <trkpt lat="43.44998" lon="6.77121">
        <ele>80.6</ele>
        <time>2012-12-09T08:23:20.000Z</time>
      </trkpt>
      <trkpt lat="43.44998" lon="6.77125">
        <ele>81.5</ele>
        <time>2012-12-09T08:23:21.000Z</time>
      </trkpt>
      <trkpt lat="43.44998" lon="6.77129">
        <ele>82.9</ele>
        <time>2012-12-09T08:23:22.000Z</time>
      </trkpt>
      <trkpt lat="43.44998" lon="6.77133">
        <ele>83.4</ele>
        <time>2012-12-09T08:23:23.000Z</time>
      </trkpt>
      <trkpt lat="43.44997" lon="6.77137">
        <ele>83.3</ele>
        <time>2012-12-09T08:23:24.000Z</time>
      </trkpt>
      <trkpt lat="43.44997" lon="6.7714">
        <ele>83.5</ele>
        <time>2012-12-09T08:23:25.000Z</time>
      </trkpt>
      <trkpt lat="43.44999" lon="6.77146">
        <ele>84.3</ele>
        <time>2012-12-09T08:23:27.000Z</time>
      </trkpt>
      <trkpt lat="43.44999" lon="6.77148">
        <ele>84.6</ele>
        <time>2012-12-09T08:23:28.000Z</time>
      </trkpt>
      <trkpt lat="43.44999" lon="6.77153">
        <ele>85.5</ele>
        <time>2012-12-09T08:23:30.000Z</time>
      </trkpt>
      <trkpt lat="43.45" lon="6.77155">
        <ele>85.9</ele>
        <time>2012-12-09T08:23:31.000Z</time>
      </trkpt>
      <trkpt lat="43.45002" lon="6.77159">
        <ele>86.4</ele>
        <time>2012-12-09T08:23:33.000Z</time>
      </trkpt>
      <trkpt lat="43.45003" lon="6.7716">
        <ele>86.4</ele>
        <time>2012-12-09T08:23:34.000Z</time>
      </trkpt>
      <trkpt lat="43.45007" lon="6.77161">
        <ele>86.4</ele>
        <time>2012-12-09T08:23:36.000Z</time>
      </trkpt>
      <trkpt lat="43.45008" lon="6.77161">
        <ele>86.5</ele>
        <time>2012-12-09T08:23:37.000Z</time>
      </trkpt>
      <trkpt lat="43.45011" lon="6.77162">
        <ele>86.9</ele>
        <time>2012-12-09T08:23:39.000Z</time>
      </trkpt>
      <trkpt lat="43.45012" lon="6.77163">
        <ele>87</ele>
        <time>2012-12-09T08:23:40.000Z</time>
      </trkpt>
      <trkpt lat="43.45016" lon="6.77164">
        <ele>87.2</ele>
        <time>2012-12-09T08:23:42.000Z</time>
      </trkpt>
      <trkpt lat="43.45034" lon="6.77173">
        <ele>92</ele>
        <time>2012-12-09T08:23:47.000Z</time>
      </trkpt>
      <trkpt lat="43.45039" lon="6.77179">
        <ele>88.5</ele>
        <time>2012-12-09T08:23:48.000Z</time>
      </trkpt>
      <trkpt lat="43.45041" lon="6.7718">
        <ele>88</ele>
        <time>2012-12-09T08:23:49.000Z</time>
      </trkpt>
      <trkpt lat="43.45045" lon="6.77179">
        <ele>84.1</ele>
        <time>2012-12-09T08:23:51.000Z</time>
      </trkpt>
      <trkpt lat="43.45048" lon="6.7718">
        <ele>83.3</ele>
        <time>2012-12-09T08:23:52.000Z</time>
      </trkpt>
      <trkpt lat="43.4505" lon="6.77179">
        <ele>82.5</ele>
        <time>2012-12-09T08:23:53.000Z</time>
      </trkpt>
      <trkpt lat="43.45054" lon="6.77177">
        <ele>82.4</ele>
        <time>2012-12-09T08:23:55.000Z</time>
      </trkpt>
      <trkpt lat="43.45055" lon="6.77176">
        <ele>83.9</ele>
        <time>2012-12-09T08:23:56.000Z</time>
      </trkpt>
      <trkpt lat="43.4506" lon="6.77175">
        <ele>84.3</ele>
        <time>2012-12-09T08:23:59.000Z</time>
      </trkpt>
      <trkpt lat="43.45062" lon="6.77175">
        <ele>84.2</ele>
        <time>2012-12-09T08:24:00.000Z</time>
      </trkpt>
      <trkpt lat="43.45066" lon="6.77176">
        <ele>85.1</ele>
        <time>2012-12-09T08:24:02.000Z</time>
      </trkpt>
      <trkpt lat="43.45068" lon="6.77176">
        <ele>85</ele>
        <time>2012-12-09T08:24:03.000Z</time>
      </trkpt>
      <trkpt lat="43.45072" lon="6.77177">
        <ele>83.3</ele>
        <time>2012-12-09T08:24:05.000Z</time>
      </trkpt>
      <trkpt lat="43.45074" lon="6.77176">
        <ele>83.4</ele>
        <time>2012-12-09T08:24:06.000Z</time>
      </trkpt>
      <trkpt lat="43.45077" lon="6.77174">
        <ele>83.3</ele>
        <time>2012-12-09T08:24:07.000Z</time>
      </trkpt>
      <trkpt lat="43.45079" lon="6.77171">
        <ele>82.8</ele>
        <time>2012-12-09T08:24:08.000Z</time>
      </trkpt>
      <trkpt lat="43.45081" lon="6.77168">
        <ele>82.2</ele>
        <time>2012-12-09T08:24:09.000Z</time>
      </trkpt>
      <trkpt lat="43.45082" lon="6.77164">
        <ele>80.9</ele>
        <time>2012-12-09T08:24:10.000Z</time>
      </trkpt>
      <trkpt lat="43.45084" lon="6.77159">
        <ele>80</ele>
        <time>2012-12-09T08:24:11.000Z</time>
      </trkpt>
      <trkpt lat="43.45085" lon="6.77154">
        <ele>78.6</ele>
        <time>2012-12-09T08:24:12.000Z</time>
      </trkpt>
      <trkpt lat="43.45086" lon="6.77149">
        <ele>77.2</ele>
        <time>2012-12-09T08:24:13.000Z</time>
      </trkpt>
      <trkpt lat="43.45087" lon="6.77145">
        <ele>76.4</ele>
        <time>2012-12-09T08:24:14.000Z</time>
      </trkpt>
      <trkpt lat="43.45089" lon="6.77141">
        <ele>78.2</ele>
        <time>2012-12-09T08:24:15.000Z</time>
      </trkpt>
      <trkpt lat="43.45089" lon="6.77137">
        <ele>78.9</ele>
        <time>2012-12-09T08:24:16.000Z</time>
      </trkpt>
      <trkpt lat="43.4509" lon="6.77133">
        <ele>79.6</ele>
        <time>2012-12-09T08:24:17.000Z</time>
      </trkpt>
      <trkpt lat="43.45091" lon="6.77129">
        <ele>79.9</ele>
        <time>2012-12-09T08:24:18.000Z</time>
      </trkpt>
      <trkpt lat="43.45093" lon="6.77125">
        <ele>80</ele>
        <time>2012-12-09T08:24:19.000Z</time>
      </trkpt>
      <trkpt lat="43.45093" lon="6.77121">
        <ele>80.2</ele>
        <time>2012-12-09T08:24:20.000Z</time>
      </trkpt>
      <trkpt lat="43.45094" lon="6.77117">
        <ele>80.2</ele>
        <time>2012-12-09T08:24:21.000Z</time>
      </trkpt>
      <trkpt lat="43.45094" lon="6.77113">
        <ele>80.3</ele>
        <time>2012-12-09T08:24:22.000Z</time>
      </trkpt>
      <trkpt lat="43.45093" lon="6.77108">
        <ele>80.5</ele>
        <time>2012-12-09T08:24:23.000Z</time>
      </trkpt>
      <trkpt lat="43.45093" lon="6.77103">
        <ele>80.7</ele>
        <time>2012-12-09T08:24:24.000Z</time>
      </trkpt>
      <trkpt lat="43.45093" lon="6.77099">
        <ele>80.7</ele>
        <time>2012-12-09T08:24:25.000Z</time>
      </trkpt>
      <trkpt lat="43.45094" lon="6.77094">
        <ele>80.8</ele>
        <time>2012-12-09T08:24:26.000Z</time>
      </trkpt>
      <trkpt lat="43.45094" lon="6.7709">
        <ele>81.2</ele>
        <time>2012-12-09T08:24:27.000Z</time>
      </trkpt>
      <trkpt lat="43.45096" lon="6.77086">
        <ele>81.1</ele>
        <time>2012-12-09T08:24:28.000Z</time>
      </trkpt>
      <trkpt lat="43.451" lon="6.77083">
        <ele>80.4</ele>
        <time>2012-12-09T08:24:29.000Z</time>
      </trkpt>
      <trkpt lat="43.45102" lon="6.7708">
        <ele>79.9</ele>
        <time>2012-12-09T08:24:30.000Z</time>
      </trkpt>
      <trkpt lat="43.45103" lon="6.77077">
        <ele>79.8</ele>
        <time>2012-12-09T08:24:31.000Z</time>
      </trkpt>
      <trkpt lat="43.45105" lon="6.77075">
        <ele>79.9</ele>
        <time>2012-12-09T08:24:32.000Z</time>
      </trkpt>
      <trkpt lat="43.45109" lon="6.77072">
        <ele>79.8</ele>
        <time>2012-12-09T08:24:34.000Z</time>
      </trkpt>
      <trkpt lat="43.4511" lon="6.77071">
        <ele>80</ele>
        <time>2012-12-09T08:24:35.000Z</time>
      </trkpt>
      <trkpt lat="43.45115" lon="6.77072">
        <ele>80.8</ele>
        <time>2012-12-09T08:24:37.000Z</time>
      </trkpt>
      <trkpt lat="43.45118" lon="6.77074">
        <ele>80.9</ele>
        <time>2012-12-09T08:24:38.000Z</time>
      </trkpt>
      <trkpt lat="43.4512" lon="6.77076">
        <ele>81.4</ele>
        <time>2012-12-09T08:24:39.000Z</time>
      </trkpt>
      <trkpt lat="43.45123" lon="6.77078">
        <ele>81.7</ele>
        <time>2012-12-09T08:24:40.000Z</time>
      </trkpt>
      <trkpt lat="43.45125" lon="6.77081">
        <ele>82.3</ele>
        <time>2012-12-09T08:24:41.000Z</time>
      </trkpt>
      <trkpt lat="43.45128" lon="6.77083">
        <ele>82.7</ele>
        <time>2012-12-09T08:24:42.000Z</time>
      </trkpt>
      <trkpt lat="43.45132" lon="6.77085">
        <ele>83.1</ele>
        <time>2012-12-09T08:24:43.000Z</time>
      </trkpt>
      <trkpt lat="43.45153" lon="6.77107">
        <ele>121.6</ele>
        <time>2012-12-09T08:24:48.000Z</time>
      </trkpt>
      <trkpt lat="43.45159" lon="6.77122">
        <ele>111</ele>
        <time>2012-12-09T08:24:50.000Z</time>
      </trkpt>
      <trkpt lat="43.45161" lon="6.77123">
        <ele>97.2</ele>
        <time>2012-12-09T08:24:52.000Z</time>
      </trkpt>
      <trkpt lat="43.45164" lon="6.77125">
        <ele>97.8</ele>
        <time>2012-12-09T08:24:53.000Z</time>
      </trkpt>
      <trkpt lat="43.45166" lon="6.77127">
        <ele>99.1</ele>
        <time>2012-12-09T08:24:54.000Z</time>
      </trkpt>
      <trkpt lat="43.45168" lon="6.77129">
        <ele>99.5</ele>
        <time>2012-12-09T08:24:55.000Z</time>
      </trkpt>
      <trkpt lat="43.45171" lon="6.77132">
        <ele>99.5</ele>
        <time>2012-12-09T08:24:56.000Z</time>
      </trkpt>
      <trkpt lat="43.45173" lon="6.77134">
        <ele>99</ele>
        <time>2012-12-09T08:24:57.000Z</time>
      </trkpt>
      <trkpt lat="43.45176" lon="6.77135">
        <ele>98.4</ele>
        <time>2012-12-09T08:24:58.000Z</time>
      </trkpt>
      <trkpt lat="43.45178" lon="6.77137">
        <ele>97.3</ele>
        <time>2012-12-09T08:24:59.000Z</time>
      </trkpt>
      <trkpt lat="43.45181" lon="6.77138">
        <ele>96.1</ele>
        <time>2012-12-09T08:25:00.000Z</time>
      </trkpt>
      <trkpt lat="43.45185" lon="6.7714">
        <ele>95.7</ele>
        <time>2012-12-09T08:25:01.000Z</time>
      </trkpt>
      <trkpt lat="43.45188" lon="6.77142">
        <ele>95.8</ele>
        <time>2012-12-09T08:25:02.000Z</time>
      </trkpt>
      <trkpt lat="43.45191" lon="6.77143">
        <ele>96.3</ele>
        <time>2012-12-09T08:25:03.000Z</time>
      </trkpt>
      <trkpt lat="43.45194" lon="6.77145">
        <ele>96.3</ele>
        <time>2012-12-09T08:25:04.000Z</time>
      </trkpt>
      <trkpt lat="43.45197" lon="6.77147">
        <ele>96.5</ele>
        <time>2012-12-09T08:25:05.000Z</time>
      </trkpt>
      <trkpt lat="43.452" lon="6.77149">
        <ele>97</ele>
        <time>2012-12-09T08:25:06.000Z</time>
      </trkpt>
      <trkpt lat="43.45203" lon="6.77151">
        <ele>97.7</ele>
        <time>2012-12-09T08:25:07.000Z</time>
      </trkpt>
      <trkpt lat="43.45206" lon="6.77153">
        <ele>97.7</ele>
        <time>2012-12-09T08:25:08.000Z</time>
      </trkpt>
      <trkpt lat="43.45209" lon="6.77155">
        <ele>98.4</ele>
        <time>2012-12-09T08:25:09.000Z</time>
      </trkpt>
      <trkpt lat="43.45212" lon="6.77158">
        <ele>98.2</ele>
        <time>2012-12-09T08:25:10.000Z</time>
      </trkpt>
      <trkpt lat="43.45215" lon="6.7716">
        <ele>99.4</ele>
        <time>2012-12-09T08:25:11.000Z</time>
      </trkpt>
      <trkpt lat="43.45217" lon="6.77162">
        <ele>100.6</ele>
        <time>2012-12-09T08:25:12.000Z</time>
      </trkpt>
      <trkpt lat="43.4522" lon="6.77164">
        <ele>100.8</ele>
        <time>2012-12-09T08:25:13.000Z</time>
      </trkpt>
      <trkpt lat="43.45222" lon="6.77167">
        <ele>100.4</ele>
        <time>2012-12-09T08:25:14.000Z</time>
      </trkpt>
      <trkpt lat="43.45224" lon="6.7717">
        <ele>99.6</ele>
        <time>2012-12-09T08:25:15.000Z</time>
      </trkpt>
      <trkpt lat="43.45226" lon="6.77173">
        <ele>99.8</ele>
        <time>2012-12-09T08:25:16.000Z</time>
      </trkpt>
      <trkpt lat="43.45229" lon="6.77176">
        <ele>99.5</ele>
        <time>2012-12-09T08:25:17.000Z</time>
      </trkpt>
      <trkpt lat="43.45231" lon="6.7718">
        <ele>99.2</ele>
        <time>2012-12-09T08:25:18.000Z</time>
      </trkpt>
      <trkpt lat="43.45234" lon="6.77183">
        <ele>99.1</ele>
        <time>2012-12-09T08:25:19.000Z</time>
      </trkpt>
      <trkpt lat="43.45236" lon="6.77186">
        <ele>98.9</ele>
        <time>2012-12-09T08:25:20.000Z</time>
      </trkpt>
      <trkpt lat="43.45238" lon="6.77189">
        <ele>98.5</ele>
        <time>2012-12-09T08:25:21.000Z</time>
      </trkpt>
      <trkpt lat="43.4524" lon="6.77192">
        <ele>98.2</ele>
        <time>2012-12-09T08:25:22.000Z</time>
      </trkpt>
      <trkpt lat="43.45241" lon="6.77196">
        <ele>97.5</ele>
        <time>2012-12-09T08:25:23.000Z</time>
      </trkpt>
      <trkpt lat="43.45243" lon="6.772">
        <ele>97.3</ele>
        <time>2012-12-09T08:25:24.000Z</time>
      </trkpt>
      <trkpt lat="43.45245" lon="6.77204">
        <ele>96.7</ele>
        <time>2012-12-09T08:25:25.000Z</time>
      </trkpt>
      <trkpt lat="43.45248" lon="6.77208">
        <ele>96</ele>
        <time>2012-12-09T08:25:26.000Z</time>
      </trkpt>
      <trkpt lat="43.4525" lon="6.77212">
        <ele>95.7</ele>
        <time>2012-12-09T08:25:27.000Z</time>
      </trkpt>
      <trkpt lat="43.45251" lon="6.77216">
        <ele>95.6</ele>
        <time>2012-12-09T08:25:28.000Z</time>
      </trkpt>
      <trkpt lat="43.45253" lon="6.7722">
        <ele>95.7</ele>
        <time>2012-12-09T08:25:29.000Z</time>
      </trkpt>
      <trkpt lat="43.45256" lon="6.77223">
        <ele>95.7</ele>
        <time>2012-12-09T08:25:30.000Z</time>
      </trkpt>
      <trkpt lat="43.45258" lon="6.77226">
        <ele>95.7</ele>
        <time>2012-12-09T08:25:31.000Z</time>
      </trkpt>
      <trkpt lat="43.4526" lon="6.77228">
        <ele>95.6</ele>
        <time>2012-12-09T08:25:32.000Z</time>
      </trkpt>
      <trkpt lat="43.45263" lon="6.7723">
        <ele>96.3</ele>
        <time>2012-12-09T08:25:33.000Z</time>
      </trkpt>
      <trkpt lat="43.45265" lon="6.77233">
        <ele>96.3</ele>
        <time>2012-12-09T08:25:34.000Z</time>
      </trkpt>
      <trkpt lat="43.45267" lon="6.77235">
        <ele>96.4</ele>
        <time>2012-12-09T08:25:35.000Z</time>
      </trkpt>
      <trkpt lat="43.4527" lon="6.77237">
        <ele>96.4</ele>
        <time>2012-12-09T08:25:36.000Z</time>
      </trkpt>
      <trkpt lat="43.45272" lon="6.77239">
        <ele>96.4</ele>
        <time>2012-12-09T08:25:37.000Z</time>
      </trkpt>
      <trkpt lat="43.45276" lon="6.77241">
        <ele>96.5</ele>
        <time>2012-12-09T08:25:38.000Z</time>
      </trkpt>
      <trkpt lat="43.45279" lon="6.77243">
        <ele>96.4</ele>
        <time>2012-12-09T08:25:39.000Z</time>
      </trkpt>
      <trkpt lat="43.45281" lon="6.77245">
        <ele>96.3</ele>
        <time>2012-12-09T08:25:40.000Z</time>
      </trkpt>
      <trkpt lat="43.45284" lon="6.77247">
        <ele>96.4</ele>
        <time>2012-12-09T08:25:41.000Z</time>
      </trkpt>
      <trkpt lat="43.45287" lon="6.77249">
        <ele>96.4</ele>
        <time>2012-12-09T08:25:42.000Z</time>
      </trkpt>
      <trkpt lat="43.4529" lon="6.77251">
        <ele>96.3</ele>
        <time>2012-12-09T08:25:43.000Z</time>
      </trkpt>
      <trkpt lat="43.45307" lon="6.77264">
        <ele>76.2</ele>
        <time>2012-12-09T08:25:48.000Z</time>
      </trkpt>
      <trkpt lat="43.45313" lon="6.77263">
        <ele>81.1</ele>
        <time>2012-12-09T08:25:49.000Z</time>
      </trkpt>
      <trkpt lat="43.45318" lon="6.77265">
        <ele>89.8</ele>
        <time>2012-12-09T08:25:50.000Z</time>
      </trkpt>
      <trkpt lat="43.4532" lon="6.77265">
        <ele>93</ele>
        <time>2012-12-09T08:25:51.000Z</time>
      </trkpt>
      <trkpt lat="43.45325" lon="6.77267">
        <ele>93.9</ele>
        <time>2012-12-09T08:25:53.000Z</time>
      </trkpt>
      <trkpt lat="43.45328" lon="6.77269">
        <ele>94.2</ele>
        <time>2012-12-09T08:25:54.000Z</time>
      </trkpt>
      <trkpt lat="43.45331" lon="6.7727">
        <ele>93.8</ele>
        <time>2012-12-09T08:25:55.000Z</time>
      </trkpt>
      <trkpt lat="43.45333" lon="6.77271">
        <ele>94</ele>
        <time>2012-12-09T08:25:56.000Z</time>
      </trkpt>
      <trkpt lat="43.45336" lon="6.77273">
        <ele>93.7</ele>
        <time>2012-12-09T08:25:57.000Z</time>
      </trkpt>
      <trkpt lat="43.45339" lon="6.77274">
        <ele>93.7</ele>
        <time>2012-12-09T08:25:58.000Z</time>
      </trkpt>
      <trkpt lat="43.45341" lon="6.77275">
        <ele>93.2</ele>
        <time>2012-12-09T08:25:59.000Z</time>
      </trkpt>
      <trkpt lat="43.45345" lon="6.77277">
        <ele>93.2</ele>
        <time>2012-12-09T08:26:01.000Z</time>
      </trkpt>
      <trkpt lat="43.45347" lon="6.77278">
        <ele>93.4</ele>
        <time>2012-12-09T08:26:02.000Z</time>
      </trkpt>
      <trkpt lat="43.4535" lon="6.77279">
        <ele>93.8</ele>
        <time>2012-12-09T08:26:03.000Z</time>
      </trkpt>
      <trkpt lat="43.45353" lon="6.77281">
        <ele>93.5</ele>
        <time>2012-12-09T08:26:04.000Z</time>
      </trkpt>
      <trkpt lat="43.45356" lon="6.77283">
        <ele>94</ele>
        <time>2012-12-09T08:26:05.000Z</time>
      </trkpt>
      <trkpt lat="43.45358" lon="6.77285">
        <ele>94.3</ele>
        <time>2012-12-09T08:26:06.000Z</time>
      </trkpt>
      <trkpt lat="43.45361" lon="6.77288">
        <ele>94.9</ele>
        <time>2012-12-09T08:26:07.000Z</time>
      </trkpt>
      <trkpt lat="43.45363" lon="6.7729">
        <ele>95.2</ele>
        <time>2012-12-09T08:26:08.000Z</time>
      </trkpt>
      <trkpt lat="43.45366" lon="6.77292">
        <ele>95.6</ele>
        <time>2012-12-09T08:26:09.000Z</time>
      </trkpt>
      <trkpt lat="43.45368" lon="6.77293">
        <ele>96</ele>
        <time>2012-12-09T08:26:10.000Z</time>
      </trkpt>
      <trkpt lat="43.4537" lon="6.77295">
        <ele>95.6</ele>
        <time>2012-12-09T08:26:11.000Z</time>
      </trkpt>
      <trkpt lat="43.45373" lon="6.77297">
        <ele>95.6</ele>
        <time>2012-12-09T08:26:12.000Z</time>
      </trkpt>
      <trkpt lat="43.45375" lon="6.77299">
        <ele>95.1</ele>
        <time>2012-12-09T08:26:13.000Z</time>
      </trkpt>
      <trkpt lat="43.45378" lon="6.77301">
        <ele>95.7</ele>
        <time>2012-12-09T08:26:14.000Z</time>
      </trkpt>
      <trkpt lat="43.4538" lon="6.77303">
        <ele>96</ele>
        <time>2012-12-09T08:26:15.000Z</time>
      </trkpt>
      <trkpt lat="43.45383" lon="6.77305">
        <ele>96.4</ele>
        <time>2012-12-09T08:26:16.000Z</time>
      </trkpt>
      <trkpt lat="43.45385" lon="6.77307">
        <ele>96.6</ele>
        <time>2012-12-09T08:26:17.000Z</time>
      </trkpt>
      <trkpt lat="43.45388" lon="6.77309">
        <ele>96.6</ele>
        <time>2012-12-09T08:26:18.000Z</time>
      </trkpt>
      <trkpt lat="43.4539" lon="6.77311">
        <ele>96.6</ele>
        <time>2012-12-09T08:26:19.000Z</time>
      </trkpt>
      <trkpt lat="43.45393" lon="6.77313">
        <ele>97.4</ele>
        <time>2012-12-09T08:26:20.000Z</time>
      </trkpt>
      <trkpt lat="43.45395" lon="6.77315">
        <ele>97.9</ele>
        <time>2012-12-09T08:26:21.000Z</time>
      </trkpt>
      <trkpt lat="43.45397" lon="6.77317">
        <ele>98.6</ele>
        <time>2012-12-09T08:26:22.000Z</time>
      </trkpt>
      <trkpt lat="43.454" lon="6.77319">
        <ele>98.8</ele>
        <time>2012-12-09T08:26:23.000Z</time>
      </trkpt>
      <trkpt lat="43.45402" lon="6.7732">
        <ele>98.8</ele>
        <time>2012-12-09T08:26:24.000Z</time>
      </trkpt>
      <trkpt lat="43.45405" lon="6.77322">
        <ele>98.7</ele>
        <time>2012-12-09T08:26:25.000Z</time>
      </trkpt>
      <trkpt lat="43.45407" lon="6.77324">
        <ele>98.9</ele>
        <time>2012-12-09T08:26:26.000Z</time>
      </trkpt>
      <trkpt lat="43.4541" lon="6.77326">
        <ele>99.1</ele>
        <time>2012-12-09T08:26:27.000Z</time>
      </trkpt>
      <trkpt lat="43.45413" lon="6.77328">
        <ele>99.1</ele>
        <time>2012-12-09T08:26:28.000Z</time>
      </trkpt>
      <trkpt lat="43.45416" lon="6.7733">
        <ele>99.4</ele>
        <time>2012-12-09T08:26:29.000Z</time>
      </trkpt>
      <trkpt lat="43.45419" lon="6.77332">
        <ele>99.8</ele>
        <time>2012-12-09T08:26:30.000Z</time>
      </trkpt>
      <trkpt lat="43.45422" lon="6.77334">
        <ele>99.9</ele>
        <time>2012-12-09T08:26:31.000Z</time>
      </trkpt>
      <trkpt lat="43.45424" lon="6.77336">
        <ele>100</ele>
        <time>2012-12-09T08:26:32.000Z</time>
      </trkpt>
      <trkpt lat="43.45427" lon="6.77337">
        <ele>100.2</ele>
        <time>2012-12-09T08:26:33.000Z</time>
      </trkpt>
      <trkpt lat="43.45429" lon="6.77339">
        <ele>100.4</ele>
        <time>2012-12-09T08:26:34.000Z</time>
      </trkpt>
      <trkpt lat="43.45431" lon="6.77341">
        <ele>100.5</ele>
        <time>2012-12-09T08:26:35.000Z</time>
      </trkpt>
      <trkpt lat="43.45433" lon="6.77343">
        <ele>100.5</ele>
        <time>2012-12-09T08:26:36.000Z</time>
      </trkpt>
      <trkpt lat="43.45435" lon="6.77344">
        <ele>100.5</ele>
        <time>2012-12-09T08:26:37.000Z</time>
      </trkpt>
      <trkpt lat="43.45438" lon="6.77345">
        <ele>100.5</ele>
        <time>2012-12-09T08:26:38.000Z</time>
      </trkpt>
      <trkpt lat="43.4544" lon="6.77347">
        <ele>100.9</ele>
        <time>2012-12-09T08:26:39.000Z</time>
      </trkpt>
      <trkpt lat="43.45442" lon="6.77349">
        <ele>101.4</ele>
        <time>2012-12-09T08:26:40.000Z</time>
      </trkpt>
      <trkpt lat="43.45444" lon="6.77352">
        <ele>102.1</ele>
        <time>2012-12-09T08:26:41.000Z</time>
      </trkpt>
      <trkpt lat="43.45446" lon="6.77354">
        <ele>102.4</ele>
        <time>2012-12-09T08:26:42.000Z</time>
      </trkpt>
      <trkpt lat="43.45448" lon="6.77358">
        <ele>102.7</ele>
        <time>2012-12-09T08:26:43.000Z</time>
      </trkpt>
      <trkpt lat="43.45459" lon="6.77391">
        <ele>98.7</ele>
        <time>2012-12-09T08:26:48.000Z</time>
      </trkpt>
      <trkpt lat="43.45458" lon="6.7738">
        <ele>107.6</ele>
        <time>2012-12-09T08:26:49.000Z</time>
      </trkpt>
      <trkpt lat="43.45464" lon="6.77378">
        <ele>102.9</ele>
        <time>2012-12-09T08:26:50.000Z</time>
      </trkpt>
      <trkpt lat="43.45467" lon="6.77374">
        <ele>109.4</ele>
        <time>2012-12-09T08:26:52.000Z</time>
      </trkpt>
      <trkpt lat="43.45468" lon="6.77373">
        <ele>112.7</ele>
        <time>2012-12-09T08:26:53.000Z</time>
      </trkpt>
      <trkpt lat="43.45464" lon="6.77372">
        <ele>109.2</ele>
        <time>2012-12-09T08:27:47.000Z</time>
      </trkpt>
      <trkpt lat="43.45463" lon="6.77373">
        <ele>104.5</ele>
        <time>2012-12-09T08:27:48.000Z</time>
      </trkpt>
      <trkpt lat="43.4546" lon="6.7737">
        <ele>116.5</ele>
        <time>2012-12-09T08:28:47.000Z</time>
      </trkpt>
      <trkpt lat="43.45456" lon="6.77369">
        <ele>114.3</ele>
        <time>2012-12-09T08:28:48.000Z</time>
      </trkpt>
      <trkpt lat="43.45457" lon="6.77374">
        <ele>104.8</ele>
        <time>2012-12-09T08:28:51.000Z</time>
      </trkpt>
      <trkpt lat="43.45459" lon="6.77375">
        <ele>104.1</ele>
        <time>2012-12-09T08:28:52.000Z</time>
      </trkpt>
      <trkpt lat="43.45458" lon="6.77377">
        <ele>99.7</ele>
        <time>2012-12-09T08:29:32.000Z</time>
      </trkpt>
      <trkpt lat="43.45456" lon="6.77367">
        <ele>105.5</ele>
        <time>2012-12-09T08:29:33.000Z</time>
      </trkpt>
      <trkpt lat="43.45456" lon="6.77368">
        <ele>104.9</ele>
        <time>2012-12-09T08:29:43.000Z</time>
      </trkpt>
      <trkpt lat="43.45463" lon="6.77367">
        <ele>129.6</ele>
        <time>2012-12-09T08:29:48.000Z</time>
      </trkpt>
      <trkpt lat="43.45461" lon="6.7736">
        <ele>127.9</ele>
        <time>2012-12-09T08:29:49.000Z</time>
      </trkpt>
      <trkpt lat="43.45457" lon="6.77366">
        <ele>117.9</ele>
        <time>2012-12-09T08:29:50.000Z</time>
      </trkpt>
      <trkpt lat="43.4546" lon="6.7737">
        <ele>114.2</ele>
        <time>2012-12-09T08:29:56.000Z</time>
      </trkpt>
      <trkpt lat="43.45461" lon="6.7737">
        <ele>114.8</ele>
        <time>2012-12-09T08:29:57.000Z</time>
      </trkpt>
      <trkpt lat="43.45457" lon="6.77368">
        <ele>109.3</ele>
        <time>2012-12-09T08:30:24.000Z</time>
      </trkpt>
      <trkpt lat="43.45456" lon="6.77368">
        <ele>109.1</ele>
        <time>2012-12-09T08:30:25.000Z</time>
      </trkpt>
      <trkpt lat="43.45456" lon="6.77368">
        <ele>108.7</ele>
        <time>2012-12-09T08:30:43.000Z</time>
      </trkpt>
      <trkpt lat="43.45477" lon="6.77373">
        <ele>132.6</ele>
        <time>2012-12-09T08:30:48.000Z</time>
      </trkpt>
      <trkpt lat="43.45475" lon="6.77371">
        <ele>135</ele>
        <time>2012-12-09T08:30:59.000Z</time>
      </trkpt>
      <trkpt lat="43.45472" lon="6.77369">
        <ele>134.3</ele>
        <time>2012-12-09T08:31:00.000Z</time>
      </trkpt>
      <trkpt lat="43.45471" lon="6.77368">
        <ele>134.1</ele>
        <time>2012-12-09T08:31:43.000Z</time>
      </trkpt>
      <trkpt lat="43.4547" lon="6.77361">
        <ele>127.6</ele>
        <time>2012-12-09T08:31:48.000Z</time>
      </trkpt>
      <trkpt lat="43.45469" lon="6.77362">
        <ele>125.2</ele>
        <time>2012-12-09T08:31:49.000Z</time>
      </trkpt>
      <trkpt lat="43.45465" lon="6.77366">
        <ele>117.4</ele>
        <time>2012-12-09T08:31:50.000Z</time>
      </trkpt>
      <trkpt lat="43.45463" lon="6.77371">
        <ele>112.7</ele>
        <time>2012-12-09T08:32:07.000Z</time>
      </trkpt>
      <trkpt lat="43.45457" lon="6.77377">
        <ele>102.9</ele>
        <time>2012-12-09T08:32:08.000Z</time>
      </trkpt>
      <trkpt lat="43.45454" lon="6.77375">
        <ele>104.6</ele>
        <time>2012-12-09T08:33:49.000Z</time>
      </trkpt>
      <trkpt lat="43.4545" lon="6.77373">
        <ele>105.9</ele>
        <time>2012-12-09T08:33:50.000Z</time>
      </trkpt>
      <trkpt lat="43.4545" lon="6.77375">
        <ele>115.8</ele>
        <time>2012-12-09T08:34:35.000Z</time>
      </trkpt>
      <trkpt lat="43.45457" lon="6.77376">
        <ele>113.5</ele>
        <time>2012-12-09T08:34:36.000Z</time>
      </trkpt>
      <trkpt lat="43.45459" lon="6.77377">
        <ele>112.4</ele>
        <time>2012-12-09T08:34:43.000Z</time>
      </trkpt>
      <trkpt lat="43.45464" lon="6.77382">
        <ele>98.3</ele>
        <time>2012-12-09T08:34:48.000Z</time>
      </trkpt>
      <trkpt lat="43.45471" lon="6.77388">
        <ele>97.1</ele>
        <time>2012-12-09T08:34:49.000Z</time>
      </trkpt>
      <trkpt lat="43.45475" lon="6.77392">
        <ele>103.4</ele>
        <time>2012-12-09T08:34:50.000Z</time>
      </trkpt>
      <trkpt lat="43.45477" lon="6.77399">
        <ele>106.6</ele>
        <time>2012-12-09T08:34:51.000Z</time>
      </trkpt>
      <trkpt lat="43.4548" lon="6.77403">
        <ele>109.9</ele>
        <time>2012-12-09T08:34:52.000Z</time>
      </trkpt>
      <trkpt lat="43.45482" lon="6.77405">
        <ele>113.1</ele>
        <time>2012-12-09T08:34:53.000Z</time>
      </trkpt>
      <trkpt lat="43.45485" lon="6.77407">
        <ele>115.9</ele>
        <time>2012-12-09T08:34:54.000Z</time>
      </trkpt>
      <trkpt lat="43.4549" lon="6.77412">
        <ele>115</ele>
        <time>2012-12-09T08:34:56.000Z</time>
      </trkpt>
      <trkpt lat="43.45492" lon="6.77414">
        <ele>112.9</ele>
        <time>2012-12-09T08:34:57.000Z</time>
      </trkpt>
      <trkpt lat="43.45495" lon="6.77415">
        <ele>111.3</ele>
        <time>2012-12-09T08:34:58.000Z</time>
      </trkpt>
      <trkpt lat="43.45498" lon="6.77418">
        <ele>111.6</ele>
        <time>2012-12-09T08:34:59.000Z</time>
      </trkpt>
      <trkpt lat="43.455" lon="6.7742">
        <ele>111.4</ele>
        <time>2012-12-09T08:35:00.000Z</time>
      </trkpt>
      <trkpt lat="43.45503" lon="6.77423">
        <ele>113</ele>
        <time>2012-12-09T08:35:01.000Z</time>
      </trkpt>
      <trkpt lat="43.45505" lon="6.77425">
        <ele>113.2</ele>
        <time>2012-12-09T08:35:02.000Z</time>
      </trkpt>
      <trkpt lat="43.45508" lon="6.77428">
        <ele>113.6</ele>
        <time>2012-12-09T08:35:03.000Z</time>
      </trkpt>
      <trkpt lat="43.45511" lon="6.7743">
        <ele>115.1</ele>
        <time>2012-12-09T08:35:04.000Z</time>
      </trkpt>
      <trkpt lat="43.45514" lon="6.77433">
        <ele>116.3</ele>
        <time>2012-12-09T08:35:05.000Z</time>
      </trkpt>
      <trkpt lat="43.45518" lon="6.77435">
        <ele>116.5</ele>
        <time>2012-12-09T08:35:06.000Z</time>
      </trkpt>
      <trkpt lat="43.4552" lon="6.77438">
        <ele>116.6</ele>
        <time>2012-12-09T08:35:07.000Z</time>
      </trkpt>
      <trkpt lat="43.45523" lon="6.7744">
        <ele>117</ele>
        <time>2012-12-09T08:35:08.000Z</time>
      </trkpt>
      <trkpt lat="43.45525" lon="6.77443">
        <ele>116.9</ele>
        <time>2012-12-09T08:35:09.000Z</time>
      </trkpt>
      <trkpt lat="43.45527" lon="6.77445">
        <ele>116.7</ele>
        <time>2012-12-09T08:35:10.000Z</time>
      </trkpt>
      <trkpt lat="43.4553" lon="6.77448">
        <ele>116</ele>
        <time>2012-12-09T08:35:11.000Z</time>
      </trkpt>
      <trkpt lat="43.45532" lon="6.77451">
        <ele>115.3</ele>
        <time>2012-12-09T08:35:12.000Z</time>
      </trkpt>
      <trkpt lat="43.45535" lon="6.77453">
        <ele>114.9</ele>
        <time>2012-12-09T08:35:13.000Z</time>
      </trkpt>
      <trkpt lat="43.45538" lon="6.77456">
        <ele>115.1</ele>
        <time>2012-12-09T08:35:14.000Z</time>
      </trkpt>
      <trkpt lat="43.45541" lon="6.77458">
        <ele>115.3</ele>
        <time>2012-12-09T08:35:15.000Z</time>
      </trkpt>
      <trkpt lat="43.45543" lon="6.7746">
        <ele>115.4</ele>
        <time>2012-12-09T08:35:16.000Z</time>
      </trkpt>
      <trkpt lat="43.45546" lon="6.77464">
        <ele>114.1</ele>
        <time>2012-12-09T08:35:17.000Z</time>
      </trkpt>
      <trkpt lat="43.4555" lon="6.77469">
        <ele>113.7</ele>
        <time>2012-12-09T08:35:18.000Z</time>
      </trkpt>
      <trkpt lat="43.45553" lon="6.77474">
        <ele>114</ele>
        <time>2012-12-09T08:35:19.000Z</time>
      </trkpt>
      <trkpt lat="43.45555" lon="6.77478">
        <ele>115.1</ele>
        <time>2012-12-09T08:35:20.000Z</time>
      </trkpt>
      <trkpt lat="43.45558" lon="6.77482">
        <ele>115.2</ele>
        <time>2012-12-09T08:35:21.000Z</time>
      </trkpt>
      <trkpt lat="43.4556" lon="6.77487">
        <ele>115.1</ele>
        <time>2012-12-09T08:35:22.000Z</time>
      </trkpt>
      <trkpt lat="43.45562" lon="6.77491">
        <ele>115</ele>
        <time>2012-12-09T08:35:23.000Z</time>
      </trkpt>
      <trkpt lat="43.45563" lon="6.77495">
        <ele>114.5</ele>
        <time>2012-12-09T08:35:24.000Z</time>
      </trkpt>
      <trkpt lat="43.45565" lon="6.77499">
        <ele>114.2</ele>
        <time>2012-12-09T08:35:25.000Z</time>
      </trkpt>
      <trkpt lat="43.45567" lon="6.77503">
        <ele>112.6</ele>
        <time>2012-12-09T08:35:26.000Z</time>
      </trkpt>
      <trkpt lat="43.45569" lon="6.77506">
        <ele>111.7</ele>
        <time>2012-12-09T08:35:27.000Z</time>
      </trkpt>
      <trkpt lat="43.4557" lon="6.7751">
        <ele>111.8</ele>
        <time>2012-12-09T08:35:28.000Z</time>
      </trkpt>
      <trkpt lat="43.45571" lon="6.77515">
        <ele>111.9</ele>
        <time>2012-12-09T08:35:29.000Z</time>
      </trkpt>
      <trkpt lat="43.45573" lon="6.7752">
        <ele>111.5</ele>
        <time>2012-12-09T08:35:30.000Z</time>
      </trkpt>
      <trkpt lat="43.45574" lon="6.77524">
        <ele>111.3</ele>
        <time>2012-12-09T08:35:31.000Z</time>
      </trkpt>
      <trkpt lat="43.45575" lon="6.77528">
        <ele>111.3</ele>
        <time>2012-12-09T08:35:32.000Z</time>
      </trkpt>
      <trkpt lat="43.45576" lon="6.77532">
        <ele>111.5</ele>
        <time>2012-12-09T08:35:33.000Z</time>
      </trkpt>
      <trkpt lat="43.45578" lon="6.77536">
        <ele>111.3</ele>
        <time>2012-12-09T08:35:34.000Z</time>
      </trkpt>
      <trkpt lat="43.45579" lon="6.7754">
        <ele>111.6</ele>
        <time>2012-12-09T08:35:35.000Z</time>
      </trkpt>
      <trkpt lat="43.4558" lon="6.77544">
        <ele>111.5</ele>
        <time>2012-12-09T08:35:36.000Z</time>
      </trkpt>
      <trkpt lat="43.45582" lon="6.77548">
        <ele>111.5</ele>
        <time>2012-12-09T08:35:37.000Z</time>
      </trkpt>
      <trkpt lat="43.45584" lon="6.77552">
        <ele>110.9</ele>
        <time>2012-12-09T08:35:38.000Z</time>
      </trkpt>
      <trkpt lat="43.45585" lon="6.77556">
        <ele>110.6</ele>
        <time>2012-12-09T08:35:39.000Z</time>
      </trkpt>
      <trkpt lat="43.45586" lon="6.7756">
        <ele>111</ele>
        <time>2012-12-09T08:35:40.000Z</time>
      </trkpt>
      <trkpt lat="43.45587" lon="6.77566">
        <ele>111.3</ele>
        <time>2012-12-09T08:35:41.000Z</time>
      </trkpt>
      <trkpt lat="43.45588" lon="6.7757">
        <ele>111.3</ele>
        <time>2012-12-09T08:35:42.000Z</time>
      </trkpt>
      <trkpt lat="43.45588" lon="6.77575">
        <ele>111.4</ele>
        <time>2012-12-09T08:35:43.000Z</time>
      </trkpt>
      <trkpt lat="43.45586" lon="6.77596">
        <ele>132.3</ele>
        <time>2012-12-09T08:35:49.000Z</time>
      </trkpt>
      <trkpt lat="43.45589" lon="6.77617">
        <ele>130.8</ele>
        <time>2012-12-09T08:35:50.000Z</time>
      </trkpt>
      <trkpt lat="43.45584" lon="6.77615">
        <ele>129.1</ele>
        <time>2012-12-09T08:35:51.000Z</time>
      </trkpt>
      <trkpt lat="43.45582" lon="6.7762">
        <ele>128</ele>
        <time>2012-12-09T08:35:53.000Z</time>
      </trkpt>
      <trkpt lat="43.45582" lon="6.77623">
        <ele>128.4</ele>
        <time>2012-12-09T08:35:54.000Z</time>
      </trkpt>
      <trkpt lat="43.45581" lon="6.77626">
        <ele>128.5</ele>
        <time>2012-12-09T08:35:55.000Z</time>
      </trkpt>
      <trkpt lat="43.4558" lon="6.77631">
        <ele>127.8</ele>
        <time>2012-12-09T08:35:56.000Z</time>
      </trkpt>
      <trkpt lat="43.45579" lon="6.77634">
        <ele>127.5</ele>
        <time>2012-12-09T08:35:57.000Z</time>
      </trkpt>
      <trkpt lat="43.45578" lon="6.77637">
        <ele>126.6</ele>
        <time>2012-12-09T08:35:58.000Z</time>
      </trkpt>
      <trkpt lat="43.45577" lon="6.7764">
        <ele>126.7</ele>
        <time>2012-12-09T08:35:59.000Z</time>
      </trkpt>
      <trkpt lat="43.45574" lon="6.77642">
        <ele>125.6</ele>
        <time>2012-12-09T08:36:00.000Z</time>
      </trkpt>
      <trkpt lat="43.45571" lon="6.77644">
        <ele>123.6</ele>
        <time>2012-12-09T08:36:01.000Z</time>
      </trkpt>
      <trkpt lat="43.45569" lon="6.77646">
        <ele>122.1</ele>
        <time>2012-12-09T08:36:02.000Z</time>
      </trkpt>
      <trkpt lat="43.45567" lon="6.77648">
        <ele>121.5</ele>
        <time>2012-12-09T08:36:03.000Z</time>
      </trkpt>
      <trkpt lat="43.45565" lon="6.7765">
        <ele>121.5</ele>
        <time>2012-12-09T08:36:04.000Z</time>
      </trkpt>
      <trkpt lat="43.45563" lon="6.77652">
        <ele>122.2</ele>
        <time>2012-12-09T08:36:05.000Z</time>
      </trkpt>
      <trkpt lat="43.45562" lon="6.77654">
        <ele>121.7</ele>
        <time>2012-12-09T08:36:06.000Z</time>
      </trkpt>
      <trkpt lat="43.4556" lon="6.77657">
        <ele>120.6</ele>
        <time>2012-12-09T08:36:07.000Z</time>
      </trkpt>
      <trkpt lat="43.45558" lon="6.7766">
        <ele>120.8</ele>
        <time>2012-12-09T08:36:08.000Z</time>
      </trkpt>
      <trkpt lat="43.45557" lon="6.77663">
        <ele>120.7</ele>
        <time>2012-12-09T08:36:09.000Z</time>
      </trkpt>
      <trkpt lat="43.45556" lon="6.77666">
        <ele>120.9</ele>
        <time>2012-12-09T08:36:10.000Z</time>
      </trkpt>
      <trkpt lat="43.45555" lon="6.7767">
        <ele>120.4</ele>
        <time>2012-12-09T08:36:11.000Z</time>
      </trkpt>
      <trkpt lat="43.45554" lon="6.77673">
        <ele>120.8</ele>
        <time>2012-12-09T08:36:12.000Z</time>
      </trkpt>
      <trkpt lat="43.45553" lon="6.77677">
        <ele>122.5</ele>
        <time>2012-12-09T08:36:13.000Z</time>
      </trkpt>
      <trkpt lat="43.45553" lon="6.77681">
        <ele>123</ele>
        <time>2012-12-09T08:36:14.000Z</time>
      </trkpt>
      <trkpt lat="43.45552" lon="6.77684">
        <ele>122.5</ele>
        <time>2012-12-09T08:36:15.000Z</time>
      </trkpt>
      <trkpt lat="43.45552" lon="6.77688">
        <ele>122.2</ele>
        <time>2012-12-09T08:36:16.000Z</time>
      </trkpt>
      <trkpt lat="43.45552" lon="6.77691">
        <ele>122.1</ele>
        <time>2012-12-09T08:36:17.000Z</time>
      </trkpt>
      <trkpt lat="43.45553" lon="6.77695">
        <ele>121.9</ele>
        <time>2012-12-09T08:36:18.000Z</time>
      </trkpt>
      <trkpt lat="43.45554" lon="6.777">
        <ele>121.3</ele>
        <time>2012-12-09T08:36:20.000Z</time>
      </trkpt>
      <trkpt lat="43.45555" lon="6.77701">
        <ele>121.2</ele>
        <time>2012-12-09T08:36:21.000Z</time>
      </trkpt>
      <trkpt lat="43.45558" lon="6.77705">
        <ele>120.9</ele>
        <time>2012-12-09T08:36:23.000Z</time>
      </trkpt>
      <trkpt lat="43.45559" lon="6.77706">
        <ele>120.8</ele>
        <time>2012-12-09T08:36:24.000Z</time>
      </trkpt>
      <trkpt lat="43.45562" lon="6.77711">
        <ele>120.5</ele>
        <time>2012-12-09T08:36:26.000Z</time>
      </trkpt>
      <trkpt lat="43.45563" lon="6.77714">
        <ele>120.6</ele>
        <time>2012-12-09T08:36:27.000Z</time>
      </trkpt>
      <trkpt lat="43.45564" lon="6.77719">
        <ele>120.8</ele>
        <time>2012-12-09T08:36:29.000Z</time>
      </trkpt>
      <trkpt lat="43.45564" lon="6.77722">
        <ele>120.8</ele>
        <time>2012-12-09T08:36:30.000Z</time>
      </trkpt>
      <trkpt lat="43.45565" lon="6.77725">
        <ele>120.7</ele>
        <time>2012-12-09T08:36:31.000Z</time>
      </trkpt>
      <trkpt lat="43.45567" lon="6.77728">
        <ele>120.7</ele>
        <time>2012-12-09T08:36:32.000Z</time>
      </trkpt>
      <trkpt lat="43.45568" lon="6.77731">
        <ele>120.6</ele>
        <time>2012-12-09T08:36:33.000Z</time>
      </trkpt>
      <trkpt lat="43.45569" lon="6.77734">
        <ele>120.5</ele>
        <time>2012-12-09T08:36:34.000Z</time>
      </trkpt>
      <trkpt lat="43.4557" lon="6.77739">
        <ele>121.1</ele>
        <time>2012-12-09T08:36:36.000Z</time>
      </trkpt>
      <trkpt lat="43.45572" lon="6.77742">
        <ele>121.5</ele>
        <time>2012-12-09T08:36:37.000Z</time>
      </trkpt>
      <trkpt lat="43.45574" lon="6.77745">
        <ele>121.6</ele>
        <time>2012-12-09T08:36:38.000Z</time>
      </trkpt>
      <trkpt lat="43.45574" lon="6.77748">
        <ele>121.7</ele>
        <time>2012-12-09T08:36:39.000Z</time>
      </trkpt>
      <trkpt lat="43.45575" lon="6.77752">
        <ele>121.7</ele>
        <time>2012-12-09T08:36:40.000Z</time>
      </trkpt>
      <trkpt lat="43.45575" lon="6.77756">
        <ele>122.4</ele>
        <time>2012-12-09T08:36:41.000Z</time>
      </trkpt>
      <trkpt lat="43.45575" lon="6.7776">
        <ele>123</ele>
        <time>2012-12-09T08:36:42.000Z</time>
      </trkpt>
      <trkpt lat="43.45575" lon="6.77765">
        <ele>123.5</ele>
        <time>2012-12-09T08:36:43.000Z</time>
      </trkpt>
      <trkpt lat="43.45584" lon="6.778">
        <ele>130.6</ele>
        <time>2012-12-09T08:36:48.000Z</time>
      </trkpt>
      <trkpt lat="43.45581" lon="6.77803">
        <ele>129</ele>
        <time>2012-12-09T08:36:49.000Z</time>
      </trkpt>
      <trkpt lat="43.4558" lon="6.77806">
        <ele>130.1</ele>
        <time>2012-12-09T08:36:50.000Z</time>
      </trkpt>
      <trkpt lat="43.45574" lon="6.7781">
        <ele>134.8</ele>
        <time>2012-12-09T08:36:52.000Z</time>
      </trkpt>
      <trkpt lat="43.45571" lon="6.77812">
        <ele>133.1</ele>
        <time>2012-12-09T08:36:53.000Z</time>
      </trkpt>
      <trkpt lat="43.4557" lon="6.77815">
        <ele>132.7</ele>
        <time>2012-12-09T08:36:54.000Z</time>
      </trkpt>
      <trkpt lat="43.45569" lon="6.7782">
        <ele>132</ele>
        <time>2012-12-09T08:36:55.000Z</time>
      </trkpt>
      <trkpt lat="43.45568" lon="6.77825">
        <ele>132.3</ele>
        <time>2012-12-09T08:36:56.000Z</time>
      </trkpt>
      <trkpt lat="43.45568" lon="6.77829">
        <ele>132.4</ele>
        <time>2012-12-09T08:36:57.000Z</time>
      </trkpt>
      <trkpt lat="43.45569" lon="6.77834">
        <ele>131.8</ele>
        <time>2012-12-09T08:36:58.000Z</time>
      </trkpt>
      <trkpt lat="43.45569" lon="6.77839">
        <ele>131.2</ele>
        <time>2012-12-09T08:36:59.000Z</time>
      </trkpt>
      <trkpt lat="43.45569" lon="6.77843">
        <ele>130.9</ele>
        <time>2012-12-09T08:37:00.000Z</time>
      </trkpt>
      <trkpt lat="43.45569" lon="6.77847">
        <ele>131.4</ele>
        <time>2012-12-09T08:37:01.000Z</time>
      </trkpt>
      <trkpt lat="43.45568" lon="6.7785">
        <ele>131.1</ele>
        <time>2012-12-09T08:37:02.000Z</time>
      </trkpt>
      <trkpt lat="43.45567" lon="6.77854">
        <ele>130.3</ele>
        <time>2012-12-09T08:37:03.000Z</time>
      </trkpt>
      <trkpt lat="43.45567" lon="6.77857">
        <ele>131</ele>
        <time>2012-12-09T08:37:04.000Z</time>
      </trkpt>
      <trkpt lat="43.45565" lon="6.7786">
        <ele>131.3</ele>
        <time>2012-12-09T08:37:05.000Z</time>
      </trkpt>
      <trkpt lat="43.45564" lon="6.77864">
        <ele>132</ele>
        <time>2012-12-09T08:37:06.000Z</time>
      </trkpt>
      <trkpt lat="43.45563" lon="6.77868">
        <ele>131.9</ele>
        <time>2012-12-09T08:37:07.000Z</time>
      </trkpt>
      <trkpt lat="43.45562" lon="6.77872">
        <ele>132</ele>
        <time>2012-12-09T08:37:08.000Z</time>
      </trkpt>
      <trkpt lat="43.45561" lon="6.77876">
        <ele>131.6</ele>
        <time>2012-12-09T08:37:09.000Z</time>
      </trkpt>
      <trkpt lat="43.4556" lon="6.77881">
        <ele>131.2</ele>
        <time>2012-12-09T08:37:10.000Z</time>
      </trkpt>
      <trkpt lat="43.45559" lon="6.77885">
        <ele>130.5</ele>
        <time>2012-12-09T08:37:11.000Z</time>
      </trkpt>
      <trkpt lat="43.45558" lon="6.7789">
        <ele>129.6</ele>
        <time>2012-12-09T08:37:12.000Z</time>
      </trkpt>
      <trkpt lat="43.45558" lon="6.77894">
        <ele>129.3</ele>
        <time>2012-12-09T08:37:13.000Z</time>
      </trkpt>
      <trkpt lat="43.45557" lon="6.77898">
        <ele>129.1</ele>
        <time>2012-12-09T08:37:14.000Z</time>
      </trkpt>
      <trkpt lat="43.45557" lon="6.77902">
        <ele>129</ele>
        <time>2012-12-09T08:37:15.000Z</time>
      </trkpt>
      <trkpt lat="43.45558" lon="6.77906">
        <ele>129.1</ele>
        <time>2012-12-09T08:37:16.000Z</time>
      </trkpt>
      <trkpt lat="43.45558" lon="6.77911">
        <ele>129</ele>
        <time>2012-12-09T08:37:17.000Z</time>
      </trkpt>
      <trkpt lat="43.45559" lon="6.77915">
        <ele>129.2</ele>
        <time>2012-12-09T08:37:18.000Z</time>
      </trkpt>
      <trkpt lat="43.4556" lon="6.77919">
        <ele>129.2</ele>
        <time>2012-12-09T08:37:19.000Z</time>
      </trkpt>
      <trkpt lat="43.4556" lon="6.77923">
        <ele>128.9</ele>
        <time>2012-12-09T08:37:20.000Z</time>
      </trkpt>
      <trkpt lat="43.4556" lon="6.77927">
        <ele>128.5</ele>
        <time>2012-12-09T08:37:21.000Z</time>
      </trkpt>
      <trkpt lat="43.4556" lon="6.77931">
        <ele>128.4</ele>
        <time>2012-12-09T08:37:22.000Z</time>
      </trkpt>
      <trkpt lat="43.4556" lon="6.77935">
        <ele>128.2</ele>
        <time>2012-12-09T08:37:23.000Z</time>
      </trkpt>
      <trkpt lat="43.4556" lon="6.7794">
        <ele>128</ele>
        <time>2012-12-09T08:37:24.000Z</time>
      </trkpt>
      <trkpt lat="43.4556" lon="6.77945">
        <ele>127.7</ele>
        <time>2012-12-09T08:37:25.000Z</time>
      </trkpt>
      <trkpt lat="43.4556" lon="6.77951">
        <ele>127.7</ele>
        <time>2012-12-09T08:37:26.000Z</time>
      </trkpt>
      <trkpt lat="43.45559" lon="6.77956">
        <ele>127.9</ele>
        <time>2012-12-09T08:37:27.000Z</time>
      </trkpt>
      <trkpt lat="43.45559" lon="6.77961">
        <ele>127.6</ele>
        <time>2012-12-09T08:37:28.000Z</time>
      </trkpt>
      <trkpt lat="43.45559" lon="6.77965">
        <ele>127.9</ele>
        <time>2012-12-09T08:37:29.000Z</time>
      </trkpt>
      <trkpt lat="43.45559" lon="6.77969">
        <ele>128.1</ele>
        <time>2012-12-09T08:37:30.000Z</time>
      </trkpt>
      <trkpt lat="43.45559" lon="6.77973">
        <ele>128</ele>
        <time>2012-12-09T08:37:31.000Z</time>
      </trkpt>
      <trkpt lat="43.4556" lon="6.77977">
        <ele>127.9</ele>
        <time>2012-12-09T08:37:32.000Z</time>
      </trkpt>
      <trkpt lat="43.4556" lon="6.77981">
        <ele>128.1</ele>
        <time>2012-12-09T08:37:33.000Z</time>
      </trkpt>
      <trkpt lat="43.45561" lon="6.77986">
        <ele>128.5</ele>
        <time>2012-12-09T08:37:34.000Z</time>
      </trkpt>
      <trkpt lat="43.45562" lon="6.7799">
        <ele>128.7</ele>
        <time>2012-12-09T08:37:35.000Z</time>
      </trkpt>
      <trkpt lat="43.45563" lon="6.77993">
        <ele>128.7</ele>
        <time>2012-12-09T08:37:36.000Z</time>
      </trkpt>
      <trkpt lat="43.45564" lon="6.77997">
        <ele>128.7</ele>
        <time>2012-12-09T08:37:37.000Z</time>
      </trkpt>
      <trkpt lat="43.45565" lon="6.78001">
        <ele>128.6</ele>
        <time>2012-12-09T08:37:38.000Z</time>
      </trkpt>
      <trkpt lat="43.45566" lon="6.78006">
        <ele>128.7</ele>
        <time>2012-12-09T08:37:39.000Z</time>
      </trkpt>
      <trkpt lat="43.45568" lon="6.7801">
        <ele>129.1</ele>
        <time>2012-12-09T08:37:40.000Z</time>
      </trkpt>
      <trkpt lat="43.45569" lon="6.78014">
        <ele>128.9</ele>
        <time>2012-12-09T08:37:41.000Z</time>
      </trkpt>
      <trkpt lat="43.4557" lon="6.78019">
        <ele>128.8</ele>
        <time>2012-12-09T08:37:42.000Z</time>
      </trkpt>
      <trkpt lat="43.45571" lon="6.78023">
        <ele>128.5</ele>
        <time>2012-12-09T08:37:43.000Z</time>
      </trkpt>
      <trkpt lat="43.45583" lon="6.7806">
        <ele>146.3</ele>
        <time>2012-12-09T08:37:48.000Z</time>
      </trkpt>
      <trkpt lat="43.45575" lon="6.78043">
        <ele>131.4</ele>
        <time>2012-12-09T08:37:50.000Z</time>
      </trkpt>
      <trkpt lat="43.4558" lon="6.78055">
        <ele>131.9</ele>
        <time>2012-12-09T08:37:51.000Z</time>
      </trkpt>
      <trkpt lat="43.45583" lon="6.78059">
        <ele>134.9</ele>
        <time>2012-12-09T08:37:52.000Z</time>
      </trkpt>
      <trkpt lat="43.45585" lon="6.78066">
        <ele>134.7</ele>
        <time>2012-12-09T08:37:53.000Z</time>
      </trkpt>
      <trkpt lat="43.45587" lon="6.78073">
        <ele>133.8</ele>
        <time>2012-12-09T08:37:54.000Z</time>
      </trkpt>
      <trkpt lat="43.45589" lon="6.78076">
        <ele>134.2</ele>
        <time>2012-12-09T08:37:55.000Z</time>
      </trkpt>
      <trkpt lat="43.45591" lon="6.78079">
        <ele>135.5</ele>
        <time>2012-12-09T08:37:56.000Z</time>
      </trkpt>
      <trkpt lat="43.45593" lon="6.78082">
        <ele>135.4</ele>
        <time>2012-12-09T08:37:57.000Z</time>
      </trkpt>
      <trkpt lat="43.45595" lon="6.78085">
        <ele>135.6</ele>
        <time>2012-12-09T08:37:58.000Z</time>
      </trkpt>
      <trkpt lat="43.45597" lon="6.78089">
        <ele>135.7</ele>
        <time>2012-12-09T08:37:59.000Z</time>
      </trkpt>
      <trkpt lat="43.45598" lon="6.78092">
        <ele>135.9</ele>
        <time>2012-12-09T08:38:00.000Z</time>
      </trkpt>
      <trkpt lat="43.456" lon="6.78096">
        <ele>136.5</ele>
        <time>2012-12-09T08:38:01.000Z</time>
      </trkpt>
      <trkpt lat="43.45602" lon="6.781">
        <ele>136.5</ele>
        <time>2012-12-09T08:38:02.000Z</time>
      </trkpt>
      <trkpt lat="43.45604" lon="6.78104">
        <ele>136.5</ele>
        <time>2012-12-09T08:38:03.000Z</time>
      </trkpt>
      <trkpt lat="43.45606" lon="6.78109">
        <ele>135.9</ele>
        <time>2012-12-09T08:38:04.000Z</time>
      </trkpt>
      <trkpt lat="43.45608" lon="6.78114">
        <ele>135.9</ele>
        <time>2012-12-09T08:38:05.000Z</time>
      </trkpt>
      <trkpt lat="43.4561" lon="6.78118">
        <ele>136.3</ele>
        <time>2012-12-09T08:38:06.000Z</time>
      </trkpt>
      <trkpt lat="43.45612" lon="6.78121">
        <ele>136.6</ele>
        <time>2012-12-09T08:38:07.000Z</time>
      </trkpt>
      <trkpt lat="43.45615" lon="6.78126">
        <ele>136.9</ele>
        <time>2012-12-09T08:38:08.000Z</time>
      </trkpt>
      <trkpt lat="43.45617" lon="6.7813">
        <ele>137.2</ele>
        <time>2012-12-09T08:38:09.000Z</time>
      </trkpt>
      <trkpt lat="43.45619" lon="6.78134">
        <ele>137.6</ele>
        <time>2012-12-09T08:38:10.000Z</time>
      </trkpt>
      <trkpt lat="43.45622" lon="6.78138">
        <ele>137.5</ele>
        <time>2012-12-09T08:38:11.000Z</time>
      </trkpt>
      <trkpt lat="43.45624" lon="6.78143">
        <ele>138</ele>
        <time>2012-12-09T08:38:12.000Z</time>
      </trkpt>
      <trkpt lat="43.45627" lon="6.78147">
        <ele>138.8</ele>
        <time>2012-12-09T08:38:13.000Z</time>
      </trkpt>
      <trkpt lat="43.4563" lon="6.78151">
        <ele>139.1</ele>
        <time>2012-12-09T08:38:14.000Z</time>
      </trkpt>
      <trkpt lat="43.45633" lon="6.78155">
        <ele>140</ele>
        <time>2012-12-09T08:38:15.000Z</time>
      </trkpt>
      <trkpt lat="43.45635" lon="6.78159">
        <ele>141.1</ele>
        <time>2012-12-09T08:38:16.000Z</time>
      </trkpt>
      <trkpt lat="43.45637" lon="6.78162">
        <ele>140.4</ele>
        <time>2012-12-09T08:38:17.000Z</time>
      </trkpt>
      <trkpt lat="43.4564" lon="6.78166">
        <ele>140.7</ele>
        <time>2012-12-09T08:38:18.000Z</time>
      </trkpt>
      <trkpt lat="43.45642" lon="6.7817">
        <ele>141.5</ele>
        <time>2012-12-09T08:38:19.000Z</time>
      </trkpt>
      <trkpt lat="43.45644" lon="6.78172">
        <ele>141.9</ele>
        <time>2012-12-09T08:38:20.000Z</time>
      </trkpt>
      <trkpt lat="43.45647" lon="6.78174">
        <ele>142.7</ele>
        <time>2012-12-09T08:38:21.000Z</time>
      </trkpt>
      <trkpt lat="43.45649" lon="6.78176">
        <ele>143.2</ele>
        <time>2012-12-09T08:38:22.000Z</time>
      </trkpt>
      <trkpt lat="43.45652" lon="6.78178">
        <ele>144.1</ele>
        <time>2012-12-09T08:38:23.000Z</time>
      </trkpt>
      <trkpt lat="43.45654" lon="6.7818">
        <ele>144.9</ele>
        <time>2012-12-09T08:38:24.000Z</time>
      </trkpt>
      <trkpt lat="43.45655" lon="6.78182">
        <ele>145.8</ele>
        <time>2012-12-09T08:38:25.000Z</time>
      </trkpt>
      <trkpt lat="43.45657" lon="6.78184">
        <ele>146.5</ele>
        <time>2012-12-09T08:38:26.000Z</time>
      </trkpt>
      <trkpt lat="43.45659" lon="6.78186">
        <ele>147</ele>
        <time>2012-12-09T08:38:27.000Z</time>
      </trkpt>
      <trkpt lat="43.45662" lon="6.78188">
        <ele>147.3</ele>
        <time>2012-12-09T08:38:28.000Z</time>
      </trkpt>
      <trkpt lat="43.45664" lon="6.7819">
        <ele>146.9</ele>
        <time>2012-12-09T08:38:29.000Z</time>
      </trkpt>
      <trkpt lat="43.45666" lon="6.78191">
        <ele>146.2</ele>
        <time>2012-12-09T08:38:30.000Z</time>
      </trkpt>
      <trkpt lat="43.45668" lon="6.78193">
        <ele>145.5</ele>
        <time>2012-12-09T08:38:31.000Z</time>
      </trkpt>
      <trkpt lat="43.4567" lon="6.78195">
        <ele>145.2</ele>
        <time>2012-12-09T08:38:32.000Z</time>
      </trkpt>
      <trkpt lat="43.45673" lon="6.78196">
        <ele>145</ele>
        <time>2012-12-09T08:38:33.000Z</time>
      </trkpt>
      <trkpt lat="43.45676" lon="6.78198">
        <ele>145</ele>
        <time>2012-12-09T08:38:34.000Z</time>
      </trkpt>
      <trkpt lat="43.45678" lon="6.782">
        <ele>144.7</ele>
        <time>2012-12-09T08:38:35.000Z</time>
      </trkpt>
      <trkpt lat="43.45681" lon="6.78202">
        <ele>144.1</ele>
        <time>2012-12-09T08:38:36.000Z</time>
      </trkpt>
      <trkpt lat="43.45683" lon="6.78204">
        <ele>144.5</ele>
        <time>2012-12-09T08:38:37.000Z</time>
      </trkpt>
      <trkpt lat="43.45685" lon="6.78206">
        <ele>144.2</ele>
        <time>2012-12-09T08:38:38.000Z</time>
      </trkpt>
      <trkpt lat="43.45688" lon="6.7821">
        <ele>143.2</ele>
        <time>2012-12-09T08:38:40.000Z</time>
      </trkpt>
      <trkpt lat="43.4569" lon="6.78212">
        <ele>143.1</ele>
        <time>2012-12-09T08:38:41.000Z</time>
      </trkpt>
      <trkpt lat="43.45691" lon="6.78215">
        <ele>142.9</ele>
        <time>2012-12-09T08:38:42.000Z</time>
      </trkpt>
      <trkpt lat="43.45693" lon="6.78218">
        <ele>142.8</ele>
        <time>2012-12-09T08:38:43.000Z</time>
      </trkpt>
      <trkpt lat="43.45711" lon="6.78245">
        <ele>145</ele>
        <time>2012-12-09T08:38:49.000Z</time>
      </trkpt>
      <trkpt lat="43.45716" lon="6.78245">
        <ele>141.2</ele>
        <time>2012-12-09T08:38:50.000Z</time>
      </trkpt>
      <trkpt lat="43.45719" lon="6.78241">
        <ele>138.4</ele>
        <time>2012-12-09T08:38:51.000Z</time>
      </trkpt>
      <trkpt lat="43.45722" lon="6.7824">
        <ele>134.5</ele>
        <time>2012-12-09T08:38:52.000Z</time>
      </trkpt>
      <trkpt lat="43.45727" lon="6.78241">
        <ele>134.9</ele>
        <time>2012-12-09T08:38:53.000Z</time>
      </trkpt>
      <trkpt lat="43.45729" lon="6.78242">
        <ele>137.8</ele>
        <time>2012-12-09T08:38:55.000Z</time>
      </trkpt>
      <trkpt lat="43.45732" lon="6.78243">
        <ele>137.5</ele>
        <time>2012-12-09T08:38:56.000Z</time>
      </trkpt>
      <trkpt lat="43.45734" lon="6.78246">
        <ele>137.5</ele>
        <time>2012-12-09T08:38:57.000Z</time>
      </trkpt>
      <trkpt lat="43.45736" lon="6.7825">
        <ele>136</ele>
        <time>2012-12-09T08:38:59.000Z</time>
      </trkpt>
      <trkpt lat="43.45738" lon="6.78251">
        <ele>136.4</ele>
        <time>2012-12-09T08:39:00.000Z</time>
      </trkpt>
      <trkpt lat="43.45739" lon="6.78253">
        <ele>136.4</ele>
        <time>2012-12-09T08:39:01.000Z</time>
      </trkpt>
      <trkpt lat="43.45741" lon="6.78255">
        <ele>135.6</ele>
        <time>2012-12-09T08:39:02.000Z</time>
      </trkpt>
      <trkpt lat="43.45743" lon="6.78257">
        <ele>136</ele>
        <time>2012-12-09T08:39:03.000Z</time>
      </trkpt>
      <trkpt lat="43.45745" lon="6.78259">
        <ele>135.8</ele>
        <time>2012-12-09T08:39:04.000Z</time>
      </trkpt>
      <trkpt lat="43.45746" lon="6.7826">
        <ele>136.1</ele>
        <time>2012-12-09T08:39:05.000Z</time>
      </trkpt>
      <trkpt lat="43.45748" lon="6.78262">
        <ele>136</ele>
        <time>2012-12-09T08:39:06.000Z</time>
      </trkpt>
      <trkpt lat="43.45751" lon="6.78264">
        <ele>136.2</ele>
        <time>2012-12-09T08:39:07.000Z</time>
      </trkpt>
      <trkpt lat="43.45753" lon="6.78265">
        <ele>137.2</ele>
        <time>2012-12-09T08:39:08.000Z</time>
      </trkpt>
      <trkpt lat="43.45756" lon="6.78267">
        <ele>137.7</ele>
        <time>2012-12-09T08:39:09.000Z</time>
      </trkpt>
      <trkpt lat="43.45759" lon="6.78269">
        <ele>137.7</ele>
        <time>2012-12-09T08:39:10.000Z</time>
      </trkpt>
      <trkpt lat="43.45762" lon="6.7827">
        <ele>137.5</ele>
        <time>2012-12-09T08:39:11.000Z</time>
      </trkpt>
      <trkpt lat="43.45764" lon="6.78271">
        <ele>136.9</ele>
        <time>2012-12-09T08:39:12.000Z</time>
      </trkpt>
      <trkpt lat="43.45767" lon="6.78272">
        <ele>137.1</ele>
        <time>2012-12-09T08:39:13.000Z</time>
      </trkpt>
      <trkpt lat="43.4577" lon="6.78273">
        <ele>136.5</ele>
        <time>2012-12-09T08:39:14.000Z</time>
      </trkpt>
      <trkpt lat="43.45773" lon="6.78274">
        <ele>136.4</ele>
        <time>2012-12-09T08:39:15.000Z</time>
      </trkpt>
      <trkpt lat="43.45776" lon="6.78274">
        <ele>136.9</ele>
        <time>2012-12-09T08:39:16.000Z</time>
      </trkpt>
      <trkpt lat="43.45779" lon="6.78275">
        <ele>137.6</ele>
        <time>2012-12-09T08:39:17.000Z</time>
      </trkpt>
      <trkpt lat="43.45782" lon="6.78276">
        <ele>137.6</ele>
        <time>2012-12-09T08:39:18.000Z</time>
      </trkpt>
      <trkpt lat="43.45785" lon="6.78277">
        <ele>136.7</ele>
        <time>2012-12-09T08:39:19.000Z</time>
      </trkpt>
      <trkpt lat="43.45788" lon="6.78278">
        <ele>136.6</ele>
        <time>2012-12-09T08:39:20.000Z</time>
      </trkpt>
      <trkpt lat="43.4579" lon="6.78279">
        <ele>136.3</ele>
        <time>2012-12-09T08:39:21.000Z</time>
      </trkpt>
      <trkpt lat="43.45793" lon="6.7828">
        <ele>136.2</ele>
        <time>2012-12-09T08:39:22.000Z</time>
      </trkpt>
      <trkpt lat="43.45796" lon="6.78281">
        <ele>136.4</ele>
        <time>2012-12-09T08:39:23.000Z</time>
      </trkpt>
      <trkpt lat="43.45798" lon="6.78282">
        <ele>136.7</ele>
        <time>2012-12-09T08:39:24.000Z</time>
      </trkpt>
      <trkpt lat="43.45801" lon="6.78282">
        <ele>136.6</ele>
        <time>2012-12-09T08:39:25.000Z</time>
      </trkpt>
      <trkpt lat="43.45803" lon="6.78283">
        <ele>136.6</ele>
        <time>2012-12-09T08:39:26.000Z</time>
      </trkpt>
      <trkpt lat="43.45805" lon="6.78284">
        <ele>136.4</ele>
        <time>2012-12-09T08:39:27.000Z</time>
      </trkpt>
      <trkpt lat="43.45808" lon="6.78285">
        <ele>136.5</ele>
        <time>2012-12-09T08:39:28.000Z</time>
      </trkpt>
      <trkpt lat="43.4581" lon="6.78286">
        <ele>136.6</ele>
        <time>2012-12-09T08:39:29.000Z</time>
      </trkpt>
      <trkpt lat="43.45813" lon="6.78287">
        <ele>136.7</ele>
        <time>2012-12-09T08:39:30.000Z</time>
      </trkpt>
      <trkpt lat="43.45816" lon="6.78288">
        <ele>136.7</ele>
        <time>2012-12-09T08:39:31.000Z</time>
      </trkpt>
      <trkpt lat="43.45818" lon="6.78289">
        <ele>136.9</ele>
        <time>2012-12-09T08:39:32.000Z</time>
      </trkpt>
      <trkpt lat="43.45823" lon="6.78289">
        <ele>137</ele>
        <time>2012-12-09T08:39:34.000Z</time>
      </trkpt>
      <trkpt lat="43.45825" lon="6.78289">
        <ele>137.1</ele>
        <time>2012-12-09T08:39:35.000Z</time>
      </trkpt>
      <trkpt lat="43.45827" lon="6.78288">
        <ele>137.2</ele>
        <time>2012-12-09T08:39:36.000Z</time>
      </trkpt>
      <trkpt lat="43.4583" lon="6.78289">
        <ele>137.2</ele>
        <time>2012-12-09T08:39:37.000Z</time>
      </trkpt>
      <trkpt lat="43.45832" lon="6.78289">
        <ele>136.9</ele>
        <time>2012-12-09T08:39:38.000Z</time>
      </trkpt>
      <trkpt lat="43.45835" lon="6.7829">
        <ele>136.8</ele>
        <time>2012-12-09T08:39:39.000Z</time>
      </trkpt>
      <trkpt lat="43.45837" lon="6.78291">
        <ele>136.7</ele>
        <time>2012-12-09T08:39:40.000Z</time>
      </trkpt>
      <trkpt lat="43.4584" lon="6.78291">
        <ele>136.7</ele>
        <time>2012-12-09T08:39:41.000Z</time>
      </trkpt>
      <trkpt lat="43.45842" lon="6.78293">
        <ele>136.7</ele>
        <time>2012-12-09T08:39:42.000Z</time>
      </trkpt>
      <trkpt lat="43.45844" lon="6.78294">
        <ele>137.1</ele>
        <time>2012-12-09T08:39:43.000Z</time>
      </trkpt>
      <trkpt lat="43.4586" lon="6.78313">
        <ele>136.2</ele>
        <time>2012-12-09T08:39:48.000Z</time>
      </trkpt>
      <trkpt lat="43.45868" lon="6.78324">
        <ele>140.6</ele>
        <time>2012-12-09T08:39:49.000Z</time>
      </trkpt>
      <trkpt lat="43.45874" lon="6.78331">
        <ele>140.7</ele>
        <time>2012-12-09T08:39:50.000Z</time>
      </trkpt>
      <trkpt lat="43.45875" lon="6.78332">
        <ele>136.5</ele>
        <time>2012-12-09T08:39:51.000Z</time>
      </trkpt>
      <trkpt lat="43.4588" lon="6.78331">
        <ele>138.5</ele>
        <time>2012-12-09T08:39:52.000Z</time>
      </trkpt>
      <trkpt lat="43.45883" lon="6.78332">
        <ele>139.6</ele>
        <time>2012-12-09T08:39:53.000Z</time>
      </trkpt>
      <trkpt lat="43.45886" lon="6.78332">
        <ele>141.1</ele>
        <time>2012-12-09T08:39:54.000Z</time>
      </trkpt>
      <trkpt lat="43.45889" lon="6.78332">
        <ele>141.6</ele>
        <time>2012-12-09T08:39:55.000Z</time>
      </trkpt>
      <trkpt lat="43.45893" lon="6.78332">
        <ele>142.6</ele>
        <time>2012-12-09T08:39:56.000Z</time>
      </trkpt>
      <trkpt lat="43.45896" lon="6.78331">
        <ele>143.7</ele>
        <time>2012-12-09T08:39:57.000Z</time>
      </trkpt>
      <trkpt lat="43.45899" lon="6.78332">
        <ele>144.6</ele>
        <time>2012-12-09T08:39:58.000Z</time>
      </trkpt>
      <trkpt lat="43.45902" lon="6.78332">
        <ele>144.3</ele>
        <time>2012-12-09T08:39:59.000Z</time>
      </trkpt>
      <trkpt lat="43.45905" lon="6.78332">
        <ele>144.8</ele>
        <time>2012-12-09T08:40:00.000Z</time>
      </trkpt>
      <trkpt lat="43.45907" lon="6.78333">
        <ele>146.1</ele>
        <time>2012-12-09T08:40:01.000Z</time>
      </trkpt>
      <trkpt lat="43.4591" lon="6.78333">
        <ele>146.3</ele>
        <time>2012-12-09T08:40:02.000Z</time>
      </trkpt>
      <trkpt lat="43.45914" lon="6.78335">
        <ele>146.8</ele>
        <time>2012-12-09T08:40:03.000Z</time>
      </trkpt>
      <trkpt lat="43.45917" lon="6.78336">
        <ele>147.3</ele>
        <time>2012-12-09T08:40:04.000Z</time>
      </trkpt>
      <trkpt lat="43.4592" lon="6.78338">
        <ele>148</ele>
        <time>2012-12-09T08:40:05.000Z</time>
      </trkpt>
      <trkpt lat="43.45923" lon="6.78338">
        <ele>147.8</ele>
        <time>2012-12-09T08:40:06.000Z</time>
      </trkpt>
      <trkpt lat="43.45926" lon="6.78339">
        <ele>148.2</ele>
        <time>2012-12-09T08:40:07.000Z</time>
      </trkpt>
      <trkpt lat="43.45929" lon="6.7834">
        <ele>148.7</ele>
        <time>2012-12-09T08:40:08.000Z</time>
      </trkpt>
      <trkpt lat="43.45932" lon="6.78342">
        <ele>149</ele>
        <time>2012-12-09T08:40:09.000Z</time>
      </trkpt>
      <trkpt lat="43.45936" lon="6.78344">
        <ele>148.9</ele>
        <time>2012-12-09T08:40:10.000Z</time>
      </trkpt>
      <trkpt lat="43.4594" lon="6.78346">
        <ele>149.1</ele>
        <time>2012-12-09T08:40:11.000Z</time>
      </trkpt>
      <trkpt lat="43.45944" lon="6.78348">
        <ele>150.1</ele>
        <time>2012-12-09T08:40:12.000Z</time>
      </trkpt>
      <trkpt lat="43.45948" lon="6.78349">
        <ele>150.7</ele>
        <time>2012-12-09T08:40:13.000Z</time>
      </trkpt>
      <trkpt lat="43.45951" lon="6.78351">
        <ele>151.3</ele>
        <time>2012-12-09T08:40:14.000Z</time>
      </trkpt>
      <trkpt lat="43.45955" lon="6.78354">
        <ele>151.3</ele>
        <time>2012-12-09T08:40:15.000Z</time>
      </trkpt>
      <trkpt lat="43.45958" lon="6.78356">
        <ele>151.5</ele>
        <time>2012-12-09T08:40:16.000Z</time>
      </trkpt>
      <trkpt lat="43.45962" lon="6.78357">
        <ele>150.5</ele>
        <time>2012-12-09T08:40:17.000Z</time>
      </trkpt>
      <trkpt lat="43.45966" lon="6.78359">
        <ele>149.8</ele>
        <time>2012-12-09T08:40:18.000Z</time>
      </trkpt>
      <trkpt lat="43.4597" lon="6.78361">
        <ele>149.4</ele>
        <time>2012-12-09T08:40:19.000Z</time>
      </trkpt>
      <trkpt lat="43.45974" lon="6.78363">
        <ele>148.8</ele>
        <time>2012-12-09T08:40:20.000Z</time>
      </trkpt>
      <trkpt lat="43.45978" lon="6.78366">
        <ele>148.3</ele>
        <time>2012-12-09T08:40:21.000Z</time>
      </trkpt>
      <trkpt lat="43.45982" lon="6.78367">
        <ele>148</ele>
        <time>2012-12-09T08:40:22.000Z</time>
      </trkpt>
      <trkpt lat="43.45986" lon="6.78369">
        <ele>147.8</ele>
        <time>2012-12-09T08:40:23.000Z</time>
      </trkpt>
      <trkpt lat="43.4599" lon="6.7837">
        <ele>147.6</ele>
        <time>2012-12-09T08:40:24.000Z</time>
      </trkpt>
      <trkpt lat="43.45994" lon="6.78371">
        <ele>147.8</ele>
        <time>2012-12-09T08:40:25.000Z</time>
      </trkpt>
      <trkpt lat="43.45999" lon="6.78373">
        <ele>148.2</ele>
        <time>2012-12-09T08:40:26.000Z</time>
      </trkpt>
      <trkpt lat="43.46003" lon="6.78374">
        <ele>148.8</ele>
        <time>2012-12-09T08:40:27.000Z</time>
      </trkpt>
      <trkpt lat="43.46008" lon="6.78375">
        <ele>149.4</ele>
        <time>2012-12-09T08:40:28.000Z</time>
      </trkpt>
      <trkpt lat="43.46012" lon="6.78377">
        <ele>149.8</ele>
        <time>2012-12-09T08:40:29.000Z</time>
      </trkpt>
      <trkpt lat="43.46015" lon="6.78378">
        <ele>149.7</ele>
        <time>2012-12-09T08:40:30.000Z</time>
      </trkpt>
      <trkpt lat="43.46019" lon="6.78379">
        <ele>149.9</ele>
        <time>2012-12-09T08:40:31.000Z</time>
      </trkpt>
      <trkpt lat="43.46023" lon="6.7838">
        <ele>150</ele>
        <time>2012-12-09T08:40:32.000Z</time>
      </trkpt>
      <trkpt lat="43.46027" lon="6.78382">
        <ele>149.9</ele>
        <time>2012-12-09T08:40:33.000Z</time>
      </trkpt>
      <trkpt lat="43.4603" lon="6.78383">
        <ele>149.8</ele>
        <time>2012-12-09T08:40:34.000Z</time>
      </trkpt>
      <trkpt lat="43.46033" lon="6.78385">
        <ele>150.1</ele>
        <time>2012-12-09T08:40:35.000Z</time>
      </trkpt>
      <trkpt lat="43.46036" lon="6.78388">
        <ele>150.3</ele>
        <time>2012-12-09T08:40:36.000Z</time>
      </trkpt>
      <trkpt lat="43.46038" lon="6.78391">
        <ele>150.4</ele>
        <time>2012-12-09T08:40:37.000Z</time>
      </trkpt>
      <trkpt lat="43.46041" lon="6.78395">
        <ele>150.5</ele>
        <time>2012-12-09T08:40:38.000Z</time>
      </trkpt>
      <trkpt lat="43.46044" lon="6.78398">
        <ele>150.4</ele>
        <time>2012-12-09T08:40:39.000Z</time>
      </trkpt>
      <trkpt lat="43.46047" lon="6.78402">
        <ele>150.4</ele>
        <time>2012-12-09T08:40:40.000Z</time>
      </trkpt>
      <trkpt lat="43.4605" lon="6.78404">
        <ele>150.4</ele>
        <time>2012-12-09T08:40:41.000Z</time>
      </trkpt>
      <trkpt lat="43.46053" lon="6.78407">
        <ele>150.3</ele>
        <time>2012-12-09T08:40:42.000Z</time>
      </trkpt>
      <trkpt lat="43.46057" lon="6.78409">
        <ele>150.2</ele>
        <time>2012-12-09T08:40:43.000Z</time>
      </trkpt>
      <trkpt lat="43.46068" lon="6.7841">
        <ele>153.5</ele>
        <time>2012-12-09T08:40:48.000Z</time>
      </trkpt>
      <trkpt lat="43.46069" lon="6.78417">
        <ele>159.1</ele>
        <time>2012-12-09T08:40:49.000Z</time>
      </trkpt>
      <trkpt lat="43.4607" lon="6.78418">
        <ele>160.2</ele>
        <time>2012-12-09T08:40:50.000Z</time>
      </trkpt>
      <trkpt lat="43.46073" lon="6.78422">
        <ele>160</ele>
        <time>2012-12-09T08:40:51.000Z</time>
      </trkpt>
      <trkpt lat="43.46075" lon="6.78426">
        <ele>157.4</ele>
        <time>2012-12-09T08:40:52.000Z</time>
      </trkpt>
      <trkpt lat="43.46077" lon="6.78429">
        <ele>154</ele>
        <time>2012-12-09T08:40:53.000Z</time>
      </trkpt>
      <trkpt lat="43.4608" lon="6.7843">
        <ele>153.1</ele>
        <time>2012-12-09T08:40:54.000Z</time>
      </trkpt>
      <trkpt lat="43.46084" lon="6.78431">
        <ele>152.1</ele>
        <time>2012-12-09T08:40:55.000Z</time>
      </trkpt>
      <trkpt lat="43.46087" lon="6.78433">
        <ele>151.8</ele>
        <time>2012-12-09T08:40:56.000Z</time>
      </trkpt>
      <trkpt lat="43.4609" lon="6.78434">
        <ele>151.9</ele>
        <time>2012-12-09T08:40:57.000Z</time>
      </trkpt>
      <trkpt lat="43.46093" lon="6.78435">
        <ele>151.9</ele>
        <time>2012-12-09T08:40:58.000Z</time>
      </trkpt>
      <trkpt lat="43.46096" lon="6.78436">
        <ele>151.6</ele>
        <time>2012-12-09T08:40:59.000Z</time>
      </trkpt>
      <trkpt lat="43.46099" lon="6.78437">
        <ele>151.8</ele>
        <time>2012-12-09T08:41:00.000Z</time>
      </trkpt>
      <trkpt lat="43.46102" lon="6.78438">
        <ele>150.6</ele>
        <time>2012-12-09T08:41:01.000Z</time>
      </trkpt>
      <trkpt lat="43.46104" lon="6.78439">
        <ele>149.6</ele>
        <time>2012-12-09T08:41:02.000Z</time>
      </trkpt>
      <trkpt lat="43.46107" lon="6.78441">
        <ele>149</ele>
        <time>2012-12-09T08:41:03.000Z</time>
      </trkpt>
      <trkpt lat="43.46109" lon="6.78442">
        <ele>148.2</ele>
        <time>2012-12-09T08:41:04.000Z</time>
      </trkpt>
      <trkpt lat="43.46112" lon="6.78443">
        <ele>149.3</ele>
        <time>2012-12-09T08:41:05.000Z</time>
      </trkpt>
      <trkpt lat="43.46114" lon="6.78445">
        <ele>149.9</ele>
        <time>2012-12-09T08:41:06.000Z</time>
      </trkpt>
      <trkpt lat="43.46117" lon="6.78447">
        <ele>149.3</ele>
        <time>2012-12-09T08:41:07.000Z</time>
      </trkpt>
      <trkpt lat="43.4612" lon="6.7845">
        <ele>149.8</ele>
        <time>2012-12-09T08:41:08.000Z</time>
      </trkpt>
      <trkpt lat="43.46122" lon="6.78453">
        <ele>150.2</ele>
        <time>2012-12-09T08:41:09.000Z</time>
      </trkpt>
      <trkpt lat="43.46125" lon="6.78455">
        <ele>151</ele>
        <time>2012-12-09T08:41:10.000Z</time>
      </trkpt>
      <trkpt lat="43.46127" lon="6.78458">
        <ele>151.1</ele>
        <time>2012-12-09T08:41:11.000Z</time>
      </trkpt>
      <trkpt lat="43.4613" lon="6.7846">
        <ele>151.4</ele>
        <time>2012-12-09T08:41:12.000Z</time>
      </trkpt>
      <trkpt lat="43.46134" lon="6.78462">
        <ele>152</ele>
        <time>2012-12-09T08:41:13.000Z</time>
      </trkpt>
      <trkpt lat="43.46137" lon="6.78463">
        <ele>152.1</ele>
        <time>2012-12-09T08:41:14.000Z</time>
      </trkpt>
      <trkpt lat="43.46141" lon="6.78465">
        <ele>153.1</ele>
        <time>2012-12-09T08:41:15.000Z</time>
      </trkpt>
      <trkpt lat="43.46144" lon="6.78467">
        <ele>153.6</ele>
        <time>2012-12-09T08:41:16.000Z</time>
      </trkpt>
      <trkpt lat="43.46148" lon="6.78468">
        <ele>153.9</ele>
        <time>2012-12-09T08:41:17.000Z</time>
      </trkpt>
      <trkpt lat="43.46151" lon="6.7847">
        <ele>154.2</ele>
        <time>2012-12-09T08:41:18.000Z</time>
      </trkpt>
      <trkpt lat="43.46154" lon="6.78471">
        <ele>154.9</ele>
        <time>2012-12-09T08:41:19.000Z</time>
      </trkpt>
      <trkpt lat="43.46157" lon="6.78473">
        <ele>155.1</ele>
        <time>2012-12-09T08:41:20.000Z</time>
      </trkpt>
      <trkpt lat="43.4616" lon="6.78475">
        <ele>155.5</ele>
        <time>2012-12-09T08:41:21.000Z</time>
      </trkpt>
      <trkpt lat="43.46162" lon="6.78477">
        <ele>155.7</ele>
        <time>2012-12-09T08:41:22.000Z</time>
      </trkpt>
      <trkpt lat="43.46165" lon="6.78479">
        <ele>155.9</ele>
        <time>2012-12-09T08:41:23.000Z</time>
      </trkpt>
      <trkpt lat="43.46168" lon="6.78481">
        <ele>156.2</ele>
        <time>2012-12-09T08:41:24.000Z</time>
      </trkpt>
      <trkpt lat="43.4617" lon="6.78483">
        <ele>156.1</ele>
        <time>2012-12-09T08:41:25.000Z</time>
      </trkpt>
      <trkpt lat="43.46172" lon="6.78487">
        <ele>155.8</ele>
        <time>2012-12-09T08:41:26.000Z</time>
      </trkpt>
      <trkpt lat="43.46173" lon="6.7849">
        <ele>155.9</ele>
        <time>2012-12-09T08:41:27.000Z</time>
      </trkpt>
      <trkpt lat="43.46175" lon="6.78493">
        <ele>155.7</ele>
        <time>2012-12-09T08:41:28.000Z</time>
      </trkpt>
      <trkpt lat="43.46176" lon="6.78496">
        <ele>155.7</ele>
        <time>2012-12-09T08:41:29.000Z</time>
      </trkpt>
      <trkpt lat="43.46178" lon="6.78499">
        <ele>155.6</ele>
        <time>2012-12-09T08:41:30.000Z</time>
      </trkpt>
      <trkpt lat="43.46179" lon="6.78502">
        <ele>155.9</ele>
        <time>2012-12-09T08:41:31.000Z</time>
      </trkpt>
      <trkpt lat="43.46181" lon="6.78505">
        <ele>156.4</ele>
        <time>2012-12-09T08:41:32.000Z</time>
      </trkpt>
      <trkpt lat="43.46182" lon="6.78508">
        <ele>156.6</ele>
        <time>2012-12-09T08:41:33.000Z</time>
      </trkpt>
      <trkpt lat="43.46184" lon="6.78512">
        <ele>156.5</ele>
        <time>2012-12-09T08:41:34.000Z</time>
      </trkpt>
      <trkpt lat="43.46186" lon="6.78515">
        <ele>156.4</ele>
        <time>2012-12-09T08:41:35.000Z</time>
      </trkpt>
      <trkpt lat="43.46188" lon="6.78519">
        <ele>156.8</ele>
        <time>2012-12-09T08:41:36.000Z</time>
      </trkpt>
      <trkpt lat="43.4619" lon="6.78523">
        <ele>156.9</ele>
        <time>2012-12-09T08:41:37.000Z</time>
      </trkpt>
      <trkpt lat="43.46192" lon="6.78527">
        <ele>156.8</ele>
        <time>2012-12-09T08:41:38.000Z</time>
      </trkpt>
      <trkpt lat="43.46194" lon="6.7853">
        <ele>156.8</ele>
        <time>2012-12-09T08:41:39.000Z</time>
      </trkpt>
      <trkpt lat="43.46196" lon="6.78533">
        <ele>157</ele>
        <time>2012-12-09T08:41:40.000Z</time>
      </trkpt>
      <trkpt lat="43.46198" lon="6.78536">
        <ele>157</ele>
        <time>2012-12-09T08:41:41.000Z</time>
      </trkpt>
      <trkpt lat="43.462" lon="6.78538">
        <ele>157.6</ele>
        <time>2012-12-09T08:41:42.000Z</time>
      </trkpt>
      <trkpt lat="43.46202" lon="6.78541">
        <ele>158</ele>
        <time>2012-12-09T08:41:43.000Z</time>
      </trkpt>
      <trkpt lat="43.46208" lon="6.78548">
        <ele>155.3</ele>
        <time>2012-12-09T08:41:48.000Z</time>
      </trkpt>
      <trkpt lat="43.46216" lon="6.78557">
        <ele>152.1</ele>
        <time>2012-12-09T08:41:49.000Z</time>
      </trkpt>
      <trkpt lat="43.46219" lon="6.78559">
        <ele>149.7</ele>
        <time>2012-12-09T08:41:50.000Z</time>
      </trkpt>
      <trkpt lat="43.46222" lon="6.7856">
        <ele>153.7</ele>
        <time>2012-12-09T08:41:51.000Z</time>
      </trkpt>
      <trkpt lat="43.46225" lon="6.78562">
        <ele>157.4</ele>
        <time>2012-12-09T08:41:52.000Z</time>
      </trkpt>
      <trkpt lat="43.46226" lon="6.78564">
        <ele>157.9</ele>
        <time>2012-12-09T08:41:53.000Z</time>
      </trkpt>
      <trkpt lat="43.46228" lon="6.78568">
        <ele>158.9</ele>
        <time>2012-12-09T08:41:55.000Z</time>
      </trkpt>
      <trkpt lat="43.46229" lon="6.7857">
        <ele>159.6</ele>
        <time>2012-12-09T08:41:56.000Z</time>
      </trkpt>
      <trkpt lat="43.46231" lon="6.78574">
        <ele>159.3</ele>
        <time>2012-12-09T08:41:58.000Z</time>
      </trkpt>
      <trkpt lat="43.46232" lon="6.78577">
        <ele>159.3</ele>
        <time>2012-12-09T08:41:59.000Z</time>
      </trkpt>
      <trkpt lat="43.46235" lon="6.78582">
        <ele>160.3</ele>
        <time>2012-12-09T08:42:01.000Z</time>
      </trkpt>
      <trkpt lat="43.46236" lon="6.78583">
        <ele>160.3</ele>
        <time>2012-12-09T08:42:02.000Z</time>
      </trkpt>
      <trkpt lat="43.46239" lon="6.78587">
        <ele>160.5</ele>
        <time>2012-12-09T08:42:04.000Z</time>
      </trkpt>
      <trkpt lat="43.4624" lon="6.78589">
        <ele>160.7</ele>
        <time>2012-12-09T08:42:05.000Z</time>
      </trkpt>
      <trkpt lat="43.46243" lon="6.78593">
        <ele>161.2</ele>
        <time>2012-12-09T08:42:07.000Z</time>
      </trkpt>
      <trkpt lat="43.46244" lon="6.78595">
        <ele>161.9</ele>
        <time>2012-12-09T08:42:08.000Z</time>
      </trkpt>
      <trkpt lat="43.46246" lon="6.78598">
        <ele>162.5</ele>
        <time>2012-12-09T08:42:09.000Z</time>
      </trkpt>
      <trkpt lat="43.46247" lon="6.78601">
        <ele>162.8</ele>
        <time>2012-12-09T08:42:10.000Z</time>
      </trkpt>
      <trkpt lat="43.46248" lon="6.78604">
        <ele>163.4</ele>
        <time>2012-12-09T08:42:11.000Z</time>
      </trkpt>
      <trkpt lat="43.4625" lon="6.78606">
        <ele>163.8</ele>
        <time>2012-12-09T08:42:12.000Z</time>
      </trkpt>
      <trkpt lat="43.46251" lon="6.78609">
        <ele>164.5</ele>
        <time>2012-12-09T08:42:13.000Z</time>
      </trkpt>
      <trkpt lat="43.46252" lon="6.78611">
        <ele>165.5</ele>
        <time>2012-12-09T08:42:14.000Z</time>
      </trkpt>
      <trkpt lat="43.46255" lon="6.78616">
        <ele>165.3</ele>
        <time>2012-12-09T08:42:16.000Z</time>
      </trkpt>
      <trkpt lat="43.46256" lon="6.78618">
        <ele>165</ele>
        <time>2012-12-09T08:42:17.000Z</time>
      </trkpt>
      <trkpt lat="43.46257" lon="6.78621">
        <ele>165.5</ele>
        <time>2012-12-09T08:42:19.000Z</time>
      </trkpt>
      <trkpt lat="43.46258" lon="6.78623">
        <ele>165.9</ele>
        <time>2012-12-09T08:42:20.000Z</time>
      </trkpt>
      <trkpt lat="43.46261" lon="6.78626">
        <ele>166.2</ele>
        <time>2012-12-09T08:42:22.000Z</time>
      </trkpt>
      <trkpt lat="43.46262" lon="6.78627">
        <ele>166.5</ele>
        <time>2012-12-09T08:42:23.000Z</time>
      </trkpt>
      <trkpt lat="43.46265" lon="6.7863">
        <ele>167.1</ele>
        <time>2012-12-09T08:42:25.000Z</time>
      </trkpt>
      <trkpt lat="43.46267" lon="6.78631">
        <ele>167.3</ele>
        <time>2012-12-09T08:42:26.000Z</time>
      </trkpt>
      <trkpt lat="43.46269" lon="6.78632">
        <ele>167.9</ele>
        <time>2012-12-09T08:42:27.000Z</time>
      </trkpt>
      <trkpt lat="43.46271" lon="6.78634">
        <ele>168.1</ele>
        <time>2012-12-09T08:42:28.000Z</time>
      </trkpt>
      <trkpt lat="43.46273" lon="6.78635">
        <ele>168.4</ele>
        <time>2012-12-09T08:42:29.000Z</time>
      </trkpt>
      <trkpt lat="43.46275" lon="6.78636">
        <ele>168.2</ele>
        <time>2012-12-09T08:42:30.000Z</time>
      </trkpt>
      <trkpt lat="43.46279" lon="6.78639">
        <ele>168.1</ele>
        <time>2012-12-09T08:42:32.000Z</time>
      </trkpt>
      <trkpt lat="43.4628" lon="6.7864">
        <ele>167.9</ele>
        <time>2012-12-09T08:42:33.000Z</time>
      </trkpt>
      <trkpt lat="43.46283" lon="6.78644">
        <ele>167.6</ele>
        <time>2012-12-09T08:42:35.000Z</time>
      </trkpt>
      <trkpt lat="43.46284" lon="6.78645">
        <ele>167.6</ele>
        <time>2012-12-09T08:42:36.000Z</time>
      </trkpt>
      <trkpt lat="43.46287" lon="6.78648">
        <ele>167.9</ele>
        <time>2012-12-09T08:42:38.000Z</time>
      </trkpt>
      <trkpt lat="43.46288" lon="6.7865">
        <ele>167.8</ele>
        <time>2012-12-09T08:42:39.000Z</time>
      </trkpt>
      <trkpt lat="43.4629" lon="6.78651">
        <ele>167.8</ele>
        <time>2012-12-09T08:42:40.000Z</time>
      </trkpt>
      <trkpt lat="43.46293" lon="6.78652">
        <ele>167.9</ele>
        <time>2012-12-09T08:42:41.000Z</time>
      </trkpt>
      <trkpt lat="43.46296" lon="6.78655">
        <ele>167.7</ele>
        <time>2012-12-09T08:42:43.000Z</time>
      </trkpt>
      <trkpt lat="43.46299" lon="6.78666">
        <ele>183.6</ele>
        <time>2012-12-09T08:42:48.000Z</time>
      </trkpt>
      <trkpt lat="43.46303" lon="6.78668">
        <ele>180.5</ele>
        <time>2012-12-09T08:42:54.000Z</time>
      </trkpt>
      <trkpt lat="43.46305" lon="6.78669">
        <ele>180.3</ele>
        <time>2012-12-09T08:42:55.000Z</time>
      </trkpt>
      <trkpt lat="43.46308" lon="6.7867">
        <ele>177.7</ele>
        <time>2012-12-09T08:42:57.000Z</time>
      </trkpt>
      <trkpt lat="43.4631" lon="6.7867">
        <ele>177.4</ele>
        <time>2012-12-09T08:42:58.000Z</time>
      </trkpt>
      <trkpt lat="43.46314" lon="6.7867">
        <ele>175.4</ele>
        <time>2012-12-09T08:43:00.000Z</time>
      </trkpt>
      <trkpt lat="43.46317" lon="6.78671">
        <ele>170.6</ele>
        <time>2012-12-09T08:43:01.000Z</time>
      </trkpt>
      <trkpt lat="43.4632" lon="6.78671">
        <ele>167.9</ele>
        <time>2012-12-09T08:43:02.000Z</time>
      </trkpt>
      <trkpt lat="43.46322" lon="6.78671">
        <ele>167.9</ele>
        <time>2012-12-09T08:43:03.000Z</time>
      </trkpt>
      <trkpt lat="43.46326" lon="6.78671">
        <ele>168</ele>
        <time>2012-12-09T08:43:04.000Z</time>
      </trkpt>
      <trkpt lat="43.46328" lon="6.78669">
        <ele>168.1</ele>
        <time>2012-12-09T08:43:05.000Z</time>
      </trkpt>
      <trkpt lat="43.46332" lon="6.78666">
        <ele>167.3</ele>
        <time>2012-12-09T08:43:07.000Z</time>
      </trkpt>
      <trkpt lat="43.46333" lon="6.78663">
        <ele>167.5</ele>
        <time>2012-12-09T08:43:08.000Z</time>
      </trkpt>
      <trkpt lat="43.46334" lon="6.78661">
        <ele>167</ele>
        <time>2012-12-09T08:43:09.000Z</time>
      </trkpt>
      <trkpt lat="43.46337" lon="6.78659">
        <ele>165.1</ele>
        <time>2012-12-09T08:43:10.000Z</time>
      </trkpt>
      <trkpt lat="43.46341" lon="6.78658">
        <ele>161.5</ele>
        <time>2012-12-09T08:43:13.000Z</time>
      </trkpt>
      <trkpt lat="43.46342" lon="6.78658">
        <ele>161.3</ele>
        <time>2012-12-09T08:43:14.000Z</time>
      </trkpt>
      <trkpt lat="43.46342" lon="6.78657">
        <ele>160.1</ele>
        <time>2012-12-09T08:43:43.000Z</time>
      </trkpt>
      <trkpt lat="43.46341" lon="6.78649">
        <ele>160</ele>
        <time>2012-12-09T08:43:47.000Z</time>
      </trkpt>
      <trkpt lat="43.4634" lon="6.78653">
        <ele>165.6</ele>
        <time>2012-12-09T08:43:48.000Z</time>
      </trkpt>
      <trkpt lat="43.46339" lon="6.78654">
        <ele>165.4</ele>
        <time>2012-12-09T08:43:49.000Z</time>
      </trkpt>
      <trkpt lat="43.46336" lon="6.78651">
        <ele>171.3</ele>
        <time>2012-12-09T08:44:13.000Z</time>
      </trkpt>
      <trkpt lat="43.46336" lon="6.78649">
        <ele>169.9</ele>
        <time>2012-12-09T08:44:14.000Z</time>
      </trkpt>
      <trkpt lat="43.46336" lon="6.78644">
        <ele>168</ele>
        <time>2012-12-09T08:44:17.000Z</time>
      </trkpt>
      <trkpt lat="43.46336" lon="6.78643">
        <ele>167.9</ele>
        <time>2012-12-09T08:44:18.000Z</time>
      </trkpt>
      <trkpt lat="43.46335" lon="6.78638">
        <ele>167.8</ele>
        <time>2012-12-09T08:44:20.000Z</time>
      </trkpt>
      <trkpt lat="43.46335" lon="6.78636">
        <ele>167.6</ele>
        <time>2012-12-09T08:44:21.000Z</time>
      </trkpt>
      <trkpt lat="43.46338" lon="6.78632">
        <ele>167.6</ele>
        <time>2012-12-09T08:44:23.000Z</time>
      </trkpt>
      <trkpt lat="43.46339" lon="6.78629">
        <ele>167.6</ele>
        <time>2012-12-09T08:44:24.000Z</time>
      </trkpt>
      <trkpt lat="43.4634" lon="6.78626">
        <ele>167.3</ele>
        <time>2012-12-09T08:44:25.000Z</time>
      </trkpt>
      <trkpt lat="43.46342" lon="6.78624">
        <ele>166.5</ele>
        <time>2012-12-09T08:44:26.000Z</time>
      </trkpt>
      <trkpt lat="43.46343" lon="6.78621">
        <ele>166.1</ele>
        <time>2012-12-09T08:44:27.000Z</time>
      </trkpt>
      <trkpt lat="43.46344" lon="6.78618">
        <ele>166.3</ele>
        <time>2012-12-09T08:44:28.000Z</time>
      </trkpt>
      <trkpt lat="43.46346" lon="6.78615">
        <ele>166.7</ele>
        <time>2012-12-09T08:44:29.000Z</time>
      </trkpt>
      <trkpt lat="43.46348" lon="6.78613">
        <ele>166.6</ele>
        <time>2012-12-09T08:44:30.000Z</time>
      </trkpt>
      <trkpt lat="43.4635" lon="6.7861">
        <ele>166.3</ele>
        <time>2012-12-09T08:44:31.000Z</time>
      </trkpt>
      <trkpt lat="43.46352" lon="6.78607">
        <ele>165.5</ele>
        <time>2012-12-09T08:44:32.000Z</time>
      </trkpt>
      <trkpt lat="43.46354" lon="6.78605">
        <ele>164.8</ele>
        <time>2012-12-09T08:44:33.000Z</time>
      </trkpt>
      <trkpt lat="43.46356" lon="6.78603">
        <ele>164.4</ele>
        <time>2012-12-09T08:44:34.000Z</time>
      </trkpt>
      <trkpt lat="43.46359" lon="6.786">
        <ele>163</ele>
        <time>2012-12-09T08:44:35.000Z</time>
      </trkpt>
      <trkpt lat="43.46361" lon="6.78599">
        <ele>161.9</ele>
        <time>2012-12-09T08:44:36.000Z</time>
      </trkpt>
      <trkpt lat="43.46363" lon="6.78597">
        <ele>161</ele>
        <time>2012-12-09T08:44:37.000Z</time>
      </trkpt>
      <trkpt lat="43.46365" lon="6.78594">
        <ele>160.9</ele>
        <time>2012-12-09T08:44:38.000Z</time>
      </trkpt>
      <trkpt lat="43.46368" lon="6.7859">
        <ele>159.6</ele>
        <time>2012-12-09T08:44:40.000Z</time>
      </trkpt>
      <trkpt lat="43.46369" lon="6.78588">
        <ele>159.2</ele>
        <time>2012-12-09T08:44:41.000Z</time>
      </trkpt>
      <trkpt lat="43.46372" lon="6.78583">
        <ele>158.8</ele>
        <time>2012-12-09T08:44:43.000Z</time>
      </trkpt>
      <trkpt lat="43.46365" lon="6.78576">
        <ele>159.2</ele>
        <time>2012-12-09T08:44:47.000Z</time>
      </trkpt>
      <trkpt lat="43.46371" lon="6.78558">
        <ele>146.4</ele>
        <time>2012-12-09T08:44:48.000Z</time>
      </trkpt>
      <trkpt lat="43.4638" lon="6.78561">
        <ele>138.2</ele>
        <time>2012-12-09T08:44:50.000Z</time>
      </trkpt>
      <trkpt lat="43.46383" lon="6.78566">
        <ele>144.6</ele>
        <time>2012-12-09T08:44:51.000Z</time>
      </trkpt>
      <trkpt lat="43.46386" lon="6.78566">
        <ele>144.4</ele>
        <time>2012-12-09T08:44:52.000Z</time>
      </trkpt>
      <trkpt lat="43.46388" lon="6.78567">
        <ele>148.5</ele>
        <time>2012-12-09T08:44:53.000Z</time>
      </trkpt>
      <trkpt lat="43.46392" lon="6.78568">
        <ele>149.5</ele>
        <time>2012-12-09T08:44:55.000Z</time>
      </trkpt>
      <trkpt lat="43.46395" lon="6.78569">
        <ele>150.6</ele>
        <time>2012-12-09T08:44:56.000Z</time>
      </trkpt>
      <trkpt lat="43.46397" lon="6.7857">
        <ele>151.7</ele>
        <time>2012-12-09T08:44:57.000Z</time>
      </trkpt>
      <trkpt lat="43.46399" lon="6.78572">
        <ele>152.9</ele>
        <time>2012-12-09T08:44:58.000Z</time>
      </trkpt>
      <trkpt lat="43.46401" lon="6.78573">
        <ele>155</ele>
        <time>2012-12-09T08:44:59.000Z</time>
      </trkpt>
      <trkpt lat="43.46403" lon="6.78574">
        <ele>156.1</ele>
        <time>2012-12-09T08:45:00.000Z</time>
      </trkpt>
      <trkpt lat="43.46405" lon="6.78575">
        <ele>156.4</ele>
        <time>2012-12-09T08:45:01.000Z</time>
      </trkpt>
      <trkpt lat="43.46407" lon="6.78576">
        <ele>156.7</ele>
        <time>2012-12-09T08:45:02.000Z</time>
      </trkpt>
      <trkpt lat="43.46412" lon="6.78579">
        <ele>158.6</ele>
        <time>2012-12-09T08:45:04.000Z</time>
      </trkpt>
      <trkpt lat="43.46413" lon="6.7858">
        <ele>158.8</ele>
        <time>2012-12-09T08:45:05.000Z</time>
      </trkpt>
      <trkpt lat="43.46417" lon="6.78584">
        <ele>159.3</ele>
        <time>2012-12-09T08:45:07.000Z</time>
      </trkpt>
      <trkpt lat="43.46418" lon="6.78586">
        <ele>159.2</ele>
        <time>2012-12-09T08:45:08.000Z</time>
      </trkpt>
      <trkpt lat="43.46419" lon="6.78588">
        <ele>159.1</ele>
        <time>2012-12-09T08:45:09.000Z</time>
      </trkpt>
      <trkpt lat="43.4642" lon="6.78591">
        <ele>159.5</ele>
        <time>2012-12-09T08:45:10.000Z</time>
      </trkpt>
      <trkpt lat="43.46421" lon="6.78594">
        <ele>159.8</ele>
        <time>2012-12-09T08:45:11.000Z</time>
      </trkpt>
      <trkpt lat="43.46422" lon="6.78598">
        <ele>160.9</ele>
        <time>2012-12-09T08:45:12.000Z</time>
      </trkpt>
      <trkpt lat="43.46422" lon="6.786">
        <ele>161.5</ele>
        <time>2012-12-09T08:45:13.000Z</time>
      </trkpt>
      <trkpt lat="43.46423" lon="6.78604">
        <ele>162</ele>
        <time>2012-12-09T08:45:14.000Z</time>
      </trkpt>
      <trkpt lat="43.46424" lon="6.78607">
        <ele>162.2</ele>
        <time>2012-12-09T08:45:15.000Z</time>
      </trkpt>
      <trkpt lat="43.46424" lon="6.78611">
        <ele>161.8</ele>
        <time>2012-12-09T08:45:16.000Z</time>
      </trkpt>
      <trkpt lat="43.46424" lon="6.78615">
        <ele>161.2</ele>
        <time>2012-12-09T08:45:17.000Z</time>
      </trkpt>
      <trkpt lat="43.46425" lon="6.78618">
        <ele>160.9</ele>
        <time>2012-12-09T08:45:18.000Z</time>
      </trkpt>
      <trkpt lat="43.46425" lon="6.78622">
        <ele>160.8</ele>
        <time>2012-12-09T08:45:19.000Z</time>
      </trkpt>
      <trkpt lat="43.46425" lon="6.78626">
        <ele>160.5</ele>
        <time>2012-12-09T08:45:20.000Z</time>
      </trkpt>
      <trkpt lat="43.46426" lon="6.7863">
        <ele>160.4</ele>
        <time>2012-12-09T08:45:21.000Z</time>
      </trkpt>
      <trkpt lat="43.46427" lon="6.78634">
        <ele>160.4</ele>
        <time>2012-12-09T08:45:22.000Z</time>
      </trkpt>
      <trkpt lat="43.46428" lon="6.78639">
        <ele>161</ele>
        <time>2012-12-09T08:45:24.000Z</time>
      </trkpt>
      <trkpt lat="43.46429" lon="6.78643">
        <ele>161</ele>
        <time>2012-12-09T08:45:25.000Z</time>
      </trkpt>
      <trkpt lat="43.4643" lon="6.78646">
        <ele>160.9</ele>
        <time>2012-12-09T08:45:26.000Z</time>
      </trkpt>
      <trkpt lat="43.46431" lon="6.78648">
        <ele>160.8</ele>
        <time>2012-12-09T08:45:27.000Z</time>
      </trkpt>
      <trkpt lat="43.46433" lon="6.78653">
        <ele>160.4</ele>
        <time>2012-12-09T08:45:29.000Z</time>
      </trkpt>
      <trkpt lat="43.46434" lon="6.78656">
        <ele>160.3</ele>
        <time>2012-12-09T08:45:30.000Z</time>
      </trkpt>
      <trkpt lat="43.46436" lon="6.78658">
        <ele>160.4</ele>
        <time>2012-12-09T08:45:31.000Z</time>
      </trkpt>
      <trkpt lat="43.46438" lon="6.7866">
        <ele>160.3</ele>
        <time>2012-12-09T08:45:32.000Z</time>
      </trkpt>
      <trkpt lat="43.4644" lon="6.78661">
        <ele>160.2</ele>
        <time>2012-12-09T08:45:33.000Z</time>
      </trkpt>
      <trkpt lat="43.46443" lon="6.78662">
        <ele>160.4</ele>
        <time>2012-12-09T08:45:34.000Z</time>
      </trkpt>
      <trkpt lat="43.46445" lon="6.78663">
        <ele>160.4</ele>
        <time>2012-12-09T08:45:35.000Z</time>
      </trkpt>
      <trkpt lat="43.46447" lon="6.78664">
        <ele>160.3</ele>
        <time>2012-12-09T08:45:36.000Z</time>
      </trkpt>
      <trkpt lat="43.4645" lon="6.78665">
        <ele>160.3</ele>
        <time>2012-12-09T08:45:37.000Z</time>
      </trkpt>
      <trkpt lat="43.46453" lon="6.78666">
        <ele>160.3</ele>
        <time>2012-12-09T08:45:38.000Z</time>
      </trkpt>
      <trkpt lat="43.46455" lon="6.78667">
        <ele>160.6</ele>
        <time>2012-12-09T08:45:39.000Z</time>
      </trkpt>
      <trkpt lat="43.46458" lon="6.78669">
        <ele>160.7</ele>
        <time>2012-12-09T08:45:40.000Z</time>
      </trkpt>
      <trkpt lat="43.4646" lon="6.7867">
        <ele>160.8</ele>
        <time>2012-12-09T08:45:41.000Z</time>
      </trkpt>
      <trkpt lat="43.46463" lon="6.78671">
        <ele>160.5</ele>
        <time>2012-12-09T08:45:42.000Z</time>
      </trkpt>
      <trkpt lat="43.46465" lon="6.78673">
        <ele>160.4</ele>
        <time>2012-12-09T08:45:43.000Z</time>
      </trkpt>
      <trkpt lat="43.46475" lon="6.787">
        <ele>159.6</ele>
        <time>2012-12-09T08:45:48.000Z</time>
      </trkpt>
      <trkpt lat="43.46482" lon="6.78697">
        <ele>162.5</ele>
        <time>2012-12-09T08:45:49.000Z</time>
      </trkpt>
      <trkpt lat="43.4648" lon="6.78704">
        <ele>163.4</ele>
        <time>2012-12-09T08:45:50.000Z</time>
      </trkpt>
      <trkpt lat="43.46479" lon="6.78706">
        <ele>162.9</ele>
        <time>2012-12-09T08:45:51.000Z</time>
      </trkpt>
      <trkpt lat="43.4648" lon="6.78711">
        <ele>166.8</ele>
        <time>2012-12-09T08:45:52.000Z</time>
      </trkpt>
      <trkpt lat="43.46481" lon="6.78717">
        <ele>167.8</ele>
        <time>2012-12-09T08:45:54.000Z</time>
      </trkpt>
      <trkpt lat="43.46482" lon="6.78719">
        <ele>167.5</ele>
        <time>2012-12-09T08:45:55.000Z</time>
      </trkpt>
      <trkpt lat="43.46482" lon="6.78723">
        <ele>167</ele>
        <time>2012-12-09T08:45:56.000Z</time>
      </trkpt>
      <trkpt lat="43.46483" lon="6.78726">
        <ele>166.5</ele>
        <time>2012-12-09T08:45:57.000Z</time>
      </trkpt>
      <trkpt lat="43.46484" lon="6.7873">
        <ele>166</ele>
        <time>2012-12-09T08:45:58.000Z</time>
      </trkpt>
      <trkpt lat="43.46485" lon="6.78734">
        <ele>166.3</ele>
        <time>2012-12-09T08:45:59.000Z</time>
      </trkpt>
      <trkpt lat="43.46486" lon="6.78737">
        <ele>166</ele>
        <time>2012-12-09T08:46:00.000Z</time>
      </trkpt>
      <trkpt lat="43.46487" lon="6.78739">
        <ele>166.3</ele>
        <time>2012-12-09T08:46:01.000Z</time>
      </trkpt>
      <trkpt lat="43.46488" lon="6.78745">
        <ele>167.4</ele>
        <time>2012-12-09T08:46:03.000Z</time>
      </trkpt>
      <trkpt lat="43.46489" lon="6.78748">
        <ele>168.1</ele>
        <time>2012-12-09T08:46:04.000Z</time>
      </trkpt>
      <trkpt lat="43.4649" lon="6.78751">
        <ele>168.1</ele>
        <time>2012-12-09T08:46:05.000Z</time>
      </trkpt>
      <trkpt lat="43.46492" lon="6.78754">
        <ele>168</ele>
        <time>2012-12-09T08:46:06.000Z</time>
      </trkpt>
      <trkpt lat="43.46494" lon="6.78756">
        <ele>168</ele>
        <time>2012-12-09T08:46:07.000Z</time>
      </trkpt>
      <trkpt lat="43.46496" lon="6.78757">
        <ele>168.6</ele>
        <time>2012-12-09T08:46:08.000Z</time>
      </trkpt>
      <trkpt lat="43.465" lon="6.78759">
        <ele>168.8</ele>
        <time>2012-12-09T08:46:09.000Z</time>
      </trkpt>
      <trkpt lat="43.46503" lon="6.78759">
        <ele>169.5</ele>
        <time>2012-12-09T08:46:10.000Z</time>
      </trkpt>
      <trkpt lat="43.46506" lon="6.78759">
        <ele>169.6</ele>
        <time>2012-12-09T08:46:11.000Z</time>
      </trkpt>
      <trkpt lat="43.46508" lon="6.78758">
        <ele>170.4</ele>
        <time>2012-12-09T08:46:12.000Z</time>
      </trkpt>
      <trkpt lat="43.4651" lon="6.78755">
        <ele>170.7</ele>
        <time>2012-12-09T08:46:13.000Z</time>
      </trkpt>
      <trkpt lat="43.46511" lon="6.78752">
        <ele>171.4</ele>
        <time>2012-12-09T08:46:14.000Z</time>
      </trkpt>
      <trkpt lat="43.46513" lon="6.78748">
        <ele>171.2</ele>
        <time>2012-12-09T08:46:15.000Z</time>
      </trkpt>
      <trkpt lat="43.46514" lon="6.78744">
        <ele>170.1</ele>
        <time>2012-12-09T08:46:16.000Z</time>
      </trkpt>
      <trkpt lat="43.46516" lon="6.78741">
        <ele>169.8</ele>
        <time>2012-12-09T08:46:17.000Z</time>
      </trkpt>
      <trkpt lat="43.46519" lon="6.78738">
        <ele>169.6</ele>
        <time>2012-12-09T08:46:18.000Z</time>
      </trkpt>
      <trkpt lat="43.46521" lon="6.78734">
        <ele>169.2</ele>
        <time>2012-12-09T08:46:19.000Z</time>
      </trkpt>
      <trkpt lat="43.46522" lon="6.78731">
        <ele>168.9</ele>
        <time>2012-12-09T08:46:20.000Z</time>
      </trkpt>
      <trkpt lat="43.46524" lon="6.78728">
        <ele>168.6</ele>
        <time>2012-12-09T08:46:21.000Z</time>
      </trkpt>
      <trkpt lat="43.46526" lon="6.78725">
        <ele>168.4</ele>
        <time>2012-12-09T08:46:22.000Z</time>
      </trkpt>
      <trkpt lat="43.46528" lon="6.78722">
        <ele>168.2</ele>
        <time>2012-12-09T08:46:23.000Z</time>
      </trkpt>
      <trkpt lat="43.4653" lon="6.78719">
        <ele>168.1</ele>
        <time>2012-12-09T08:46:24.000Z</time>
      </trkpt>
      <trkpt lat="43.46532" lon="6.78717">
        <ele>167.8</ele>
        <time>2012-12-09T08:46:25.000Z</time>
      </trkpt>
      <trkpt lat="43.46534" lon="6.78715">
        <ele>167.7</ele>
        <time>2012-12-09T08:46:26.000Z</time>
      </trkpt>
      <trkpt lat="43.46536" lon="6.78712">
        <ele>167.5</ele>
        <time>2012-12-09T08:46:27.000Z</time>
      </trkpt>
      <trkpt lat="43.46539" lon="6.7871">
        <ele>167.4</ele>
        <time>2012-12-09T08:46:28.000Z</time>
      </trkpt>
      <trkpt lat="43.46541" lon="6.78709">
        <ele>167.1</ele>
        <time>2012-12-09T08:46:29.000Z</time>
      </trkpt>
      <trkpt lat="43.46543" lon="6.78707">
        <ele>166.7</ele>
        <time>2012-12-09T08:46:30.000Z</time>
      </trkpt>
      <trkpt lat="43.46545" lon="6.78707">
        <ele>166.6</ele>
        <time>2012-12-09T08:46:31.000Z</time>
      </trkpt>
      <trkpt lat="43.46548" lon="6.78706">
        <ele>166.3</ele>
        <time>2012-12-09T08:46:32.000Z</time>
      </trkpt>
      <trkpt lat="43.4655" lon="6.78706">
        <ele>166.1</ele>
        <time>2012-12-09T08:46:33.000Z</time>
      </trkpt>
      <trkpt lat="43.46553" lon="6.78706">
        <ele>166</ele>
        <time>2012-12-09T08:46:34.000Z</time>
      </trkpt>
      <trkpt lat="43.46555" lon="6.78706">
        <ele>166.1</ele>
        <time>2012-12-09T08:46:35.000Z</time>
      </trkpt>
      <trkpt lat="43.46558" lon="6.78707">
        <ele>166</ele>
        <time>2012-12-09T08:46:36.000Z</time>
      </trkpt>
      <trkpt lat="43.46561" lon="6.78708">
        <ele>166.2</ele>
        <time>2012-12-09T08:46:37.000Z</time>
      </trkpt>
      <trkpt lat="43.46563" lon="6.7871">
        <ele>166.5</ele>
        <time>2012-12-09T08:46:38.000Z</time>
      </trkpt>
      <trkpt lat="43.46565" lon="6.78712">
        <ele>166.6</ele>
        <time>2012-12-09T08:46:39.000Z</time>
      </trkpt>
      <trkpt lat="43.46568" lon="6.78714">
        <ele>166.8</ele>
        <time>2012-12-09T08:46:40.000Z</time>
      </trkpt>
      <trkpt lat="43.4657" lon="6.78717">
        <ele>167</ele>
        <time>2012-12-09T08:46:41.000Z</time>
      </trkpt>
      <trkpt lat="43.46572" lon="6.7872">
        <ele>166.8</ele>
        <time>2012-12-09T08:46:42.000Z</time>
      </trkpt>
      <trkpt lat="43.46573" lon="6.78723">
        <ele>166.4</ele>
        <time>2012-12-09T08:46:43.000Z</time>
      </trkpt>
      <trkpt lat="43.4658" lon="6.78729">
        <ele>160.8</ele>
        <time>2012-12-09T08:46:48.000Z</time>
      </trkpt>
      <trkpt lat="43.46579" lon="6.78737">
        <ele>157.4</ele>
        <time>2012-12-09T08:46:49.000Z</time>
      </trkpt>
      <trkpt lat="43.46581" lon="6.78743">
        <ele>158.9</ele>
        <time>2012-12-09T08:46:50.000Z</time>
      </trkpt>
      <trkpt lat="43.46582" lon="6.78747">
        <ele>159.2</ele>
        <time>2012-12-09T08:46:51.000Z</time>
      </trkpt>
      <trkpt lat="43.46582" lon="6.7875">
        <ele>159.8</ele>
        <time>2012-12-09T08:46:52.000Z</time>
      </trkpt>
      <trkpt lat="43.46585" lon="6.78754">
        <ele>160</ele>
        <time>2012-12-09T08:46:54.000Z</time>
      </trkpt>
      <trkpt lat="43.46586" lon="6.78757">
        <ele>160.6</ele>
        <time>2012-12-09T08:46:55.000Z</time>
      </trkpt>
      <trkpt lat="43.4659" lon="6.78757">
        <ele>164</ele>
        <time>2012-12-09T08:46:57.000Z</time>
      </trkpt>
      <trkpt lat="43.46591" lon="6.78755">
        <ele>166.1</ele>
        <time>2012-12-09T08:46:58.000Z</time>
      </trkpt>
      <trkpt lat="43.46592" lon="6.78752">
        <ele>167.5</ele>
        <time>2012-12-09T08:46:59.000Z</time>
      </trkpt>
      <trkpt lat="43.46593" lon="6.78748">
        <ele>168.2</ele>
        <time>2012-12-09T08:47:00.000Z</time>
      </trkpt>
      <trkpt lat="43.46594" lon="6.78745">
        <ele>168.5</ele>
        <time>2012-12-09T08:47:01.000Z</time>
      </trkpt>
      <trkpt lat="43.46595" lon="6.78742">
        <ele>169</ele>
        <time>2012-12-09T08:47:02.000Z</time>
      </trkpt>
      <trkpt lat="43.46596" lon="6.78738">
        <ele>169</ele>
        <time>2012-12-09T08:47:03.000Z</time>
      </trkpt>
      <trkpt lat="43.46597" lon="6.78734">
        <ele>169.4</ele>
        <time>2012-12-09T08:47:04.000Z</time>
      </trkpt>
      <trkpt lat="43.46598" lon="6.78731">
        <ele>170.2</ele>
        <time>2012-12-09T08:47:05.000Z</time>
      </trkpt>
      <trkpt lat="43.46599" lon="6.78727">
        <ele>171</ele>
        <time>2012-12-09T08:47:06.000Z</time>
      </trkpt>
      <trkpt lat="43.46599" lon="6.78723">
        <ele>170.5</ele>
        <time>2012-12-09T08:47:07.000Z</time>
      </trkpt>
      <trkpt lat="43.46601" lon="6.78719">
        <ele>169.4</ele>
        <time>2012-12-09T08:47:08.000Z</time>
      </trkpt>
      <trkpt lat="43.46602" lon="6.78715">
        <ele>169.4</ele>
        <time>2012-12-09T08:47:09.000Z</time>
      </trkpt>
      <trkpt lat="43.46604" lon="6.78711">
        <ele>170.2</ele>
        <time>2012-12-09T08:47:10.000Z</time>
      </trkpt>
      <trkpt lat="43.46605" lon="6.78708">
        <ele>170.3</ele>
        <time>2012-12-09T08:47:11.000Z</time>
      </trkpt>
      <trkpt lat="43.46606" lon="6.78703">
        <ele>169.8</ele>
        <time>2012-12-09T08:47:12.000Z</time>
      </trkpt>
      <trkpt lat="43.46607" lon="6.78699">
        <ele>168.7</ele>
        <time>2012-12-09T08:47:13.000Z</time>
      </trkpt>
      <trkpt lat="43.46608" lon="6.78696">
        <ele>167.9</ele>
        <time>2012-12-09T08:47:14.000Z</time>
      </trkpt>
      <trkpt lat="43.46609" lon="6.78692">
        <ele>167.8</ele>
        <time>2012-12-09T08:47:15.000Z</time>
      </trkpt>
      <trkpt lat="43.4661" lon="6.78689">
        <ele>167.7</ele>
        <time>2012-12-09T08:47:16.000Z</time>
      </trkpt>
      <trkpt lat="43.46612" lon="6.78685">
        <ele>167.6</ele>
        <time>2012-12-09T08:47:17.000Z</time>
      </trkpt>
      <trkpt lat="43.46613" lon="6.78682">
        <ele>167.8</ele>
        <time>2012-12-09T08:47:18.000Z</time>
      </trkpt>
      <trkpt lat="43.46613" lon="6.78678">
        <ele>167.9</ele>
        <time>2012-12-09T08:47:19.000Z</time>
      </trkpt>
      <trkpt lat="43.46614" lon="6.78675">
        <ele>168.3</ele>
        <time>2012-12-09T08:47:20.000Z</time>
      </trkpt>
      <trkpt lat="43.46615" lon="6.78672">
        <ele>168.8</ele>
        <time>2012-12-09T08:47:21.000Z</time>
      </trkpt>
      <trkpt lat="43.46615" lon="6.78668">
        <ele>169.2</ele>
        <time>2012-12-09T08:47:22.000Z</time>
      </trkpt>
      <trkpt lat="43.46617" lon="6.78663">
        <ele>169.3</ele>
        <time>2012-12-09T08:47:24.000Z</time>
      </trkpt>
      <trkpt lat="43.46617" lon="6.78661">
        <ele>168.1</ele>
        <time>2012-12-09T08:47:25.000Z</time>
      </trkpt>
      <trkpt lat="43.46618" lon="6.78664">
        <ele>164.7</ele>
        <time>2012-12-09T08:47:29.000Z</time>
      </trkpt>
      <trkpt lat="43.46618" lon="6.78667">
        <ele>164.3</ele>
        <time>2012-12-09T08:47:30.000Z</time>
      </trkpt>
      <trkpt lat="43.46618" lon="6.78672">
        <ele>164.7</ele>
        <time>2012-12-09T08:47:31.000Z</time>
      </trkpt>
      <trkpt lat="43.46618" lon="6.78675">
        <ele>164.9</ele>
        <time>2012-12-09T08:47:32.000Z</time>
      </trkpt>
      <trkpt lat="43.46618" lon="6.78678">
        <ele>165.2</ele>
        <time>2012-12-09T08:47:33.000Z</time>
      </trkpt>
      <trkpt lat="43.46618" lon="6.78682">
        <ele>165.2</ele>
        <time>2012-12-09T08:47:34.000Z</time>
      </trkpt>
      <trkpt lat="43.46618" lon="6.78685">
        <ele>165.6</ele>
        <time>2012-12-09T08:47:35.000Z</time>
      </trkpt>
      <trkpt lat="43.46619" lon="6.78688">
        <ele>165.7</ele>
        <time>2012-12-09T08:47:36.000Z</time>
      </trkpt>
      <trkpt lat="43.46618" lon="6.78691">
        <ele>165.8</ele>
        <time>2012-12-09T08:47:37.000Z</time>
      </trkpt>
      <trkpt lat="43.46618" lon="6.78694">
        <ele>166.2</ele>
        <time>2012-12-09T08:47:38.000Z</time>
      </trkpt>
      <trkpt lat="43.46618" lon="6.78698">
        <ele>166.5</ele>
        <time>2012-12-09T08:47:39.000Z</time>
      </trkpt>
      <trkpt lat="43.46617" lon="6.78701">
        <ele>166.7</ele>
        <time>2012-12-09T08:47:40.000Z</time>
      </trkpt>
      <trkpt lat="43.46616" lon="6.78707">
        <ele>167.6</ele>
        <time>2012-12-09T08:47:42.000Z</time>
      </trkpt>
      <trkpt lat="43.46616" lon="6.7871">
        <ele>168</ele>
        <time>2012-12-09T08:47:43.000Z</time>
      </trkpt>
      <trkpt lat="43.46614" lon="6.78706">
        <ele>186.4</ele>
        <time>2012-12-09T08:47:47.000Z</time>
      </trkpt>
      <trkpt lat="43.4662" lon="6.7873">
        <ele>167.3</ele>
        <time>2012-12-09T08:47:49.000Z</time>
      </trkpt>
      <trkpt lat="43.46617" lon="6.78731">
        <ele>175.1</ele>
        <time>2012-12-09T08:47:51.000Z</time>
      </trkpt>
      <trkpt lat="43.46613" lon="6.78732">
        <ele>176.2</ele>
        <time>2012-12-09T08:47:52.000Z</time>
      </trkpt>
      <trkpt lat="43.46611" lon="6.78738">
        <ele>174.9</ele>
        <time>2012-12-09T08:47:54.000Z</time>
      </trkpt>
      <trkpt lat="43.4661" lon="6.78741">
        <ele>174.2</ele>
        <time>2012-12-09T08:47:55.000Z</time>
      </trkpt>
      <trkpt lat="43.4661" lon="6.78744">
        <ele>173.4</ele>
        <time>2012-12-09T08:47:56.000Z</time>
      </trkpt>
      <trkpt lat="43.46609" lon="6.78747">
        <ele>172.9</ele>
        <time>2012-12-09T08:47:57.000Z</time>
      </trkpt>
      <trkpt lat="43.46609" lon="6.78753">
        <ele>172.1</ele>
        <time>2012-12-09T08:47:59.000Z</time>
      </trkpt>
      <trkpt lat="43.46609" lon="6.78756">
        <ele>172.3</ele>
        <time>2012-12-09T08:48:00.000Z</time>
      </trkpt>
      <trkpt lat="43.46609" lon="6.78762">
        <ele>172.2</ele>
        <time>2012-12-09T08:48:02.000Z</time>
      </trkpt>
      <trkpt lat="43.46609" lon="6.78765">
        <ele>171.7</ele>
        <time>2012-12-09T08:48:03.000Z</time>
      </trkpt>
      <trkpt lat="43.46608" lon="6.78771">
        <ele>171</ele>
        <time>2012-12-09T08:48:05.000Z</time>
      </trkpt>
      <trkpt lat="43.46608" lon="6.78774">
        <ele>170.8</ele>
        <time>2012-12-09T08:48:06.000Z</time>
      </trkpt>
      <trkpt lat="43.46608" lon="6.78777">
        <ele>170.4</ele>
        <time>2012-12-09T08:48:07.000Z</time>
      </trkpt>
      <trkpt lat="43.46607" lon="6.7878">
        <ele>170</ele>
        <time>2012-12-09T08:48:08.000Z</time>
      </trkpt>
      <trkpt lat="43.46607" lon="6.78783">
        <ele>170.1</ele>
        <time>2012-12-09T08:48:09.000Z</time>
      </trkpt>
      <trkpt lat="43.46607" lon="6.78786">
        <ele>169.9</ele>
        <time>2012-12-09T08:48:10.000Z</time>
      </trkpt>
      <trkpt lat="43.46606" lon="6.78792">
        <ele>169.8</ele>
        <time>2012-12-09T08:48:12.000Z</time>
      </trkpt>
      <trkpt lat="43.46605" lon="6.78795">
        <ele>169.5</ele>
        <time>2012-12-09T08:48:13.000Z</time>
      </trkpt>
      <trkpt lat="43.46604" lon="6.78801">
        <ele>169.9</ele>
        <time>2012-12-09T08:48:15.000Z</time>
      </trkpt>
      <trkpt lat="43.46603" lon="6.78804">
        <ele>170.3</ele>
        <time>2012-12-09T08:48:16.000Z</time>
      </trkpt>
      <trkpt lat="43.46601" lon="6.78809">
        <ele>170.5</ele>
        <time>2012-12-09T08:48:18.000Z</time>
      </trkpt>
      <trkpt lat="43.466" lon="6.78812">
        <ele>170.5</ele>
        <time>2012-12-09T08:48:19.000Z</time>
      </trkpt>
      <trkpt lat="43.46599" lon="6.78815">
        <ele>170.5</ele>
        <time>2012-12-09T08:48:20.000Z</time>
      </trkpt>
      <trkpt lat="43.46598" lon="6.78818">
        <ele>170.8</ele>
        <time>2012-12-09T08:48:21.000Z</time>
      </trkpt>
      <trkpt lat="43.46597" lon="6.78823">
        <ele>171.1</ele>
        <time>2012-12-09T08:48:23.000Z</time>
      </trkpt>
      <trkpt lat="43.46596" lon="6.78826">
        <ele>171</ele>
        <time>2012-12-09T08:48:24.000Z</time>
      </trkpt>
      <trkpt lat="43.46595" lon="6.78829">
        <ele>170.9</ele>
        <time>2012-12-09T08:48:25.000Z</time>
      </trkpt>
      <trkpt lat="43.46594" lon="6.78831">
        <ele>170.7</ele>
        <time>2012-12-09T08:48:26.000Z</time>
      </trkpt>
      <trkpt lat="43.46591" lon="6.78836">
        <ele>171</ele>
        <time>2012-12-09T08:48:28.000Z</time>
      </trkpt>
      <trkpt lat="43.46589" lon="6.78838">
        <ele>171</ele>
        <time>2012-12-09T08:48:29.000Z</time>
      </trkpt>
      <trkpt lat="43.46586" lon="6.78842">
        <ele>171.1</ele>
        <time>2012-12-09T08:48:31.000Z</time>
      </trkpt>
      <trkpt lat="43.46584" lon="6.78843">
        <ele>171.5</ele>
        <time>2012-12-09T08:48:32.000Z</time>
      </trkpt>
      <trkpt lat="43.4658" lon="6.78846">
        <ele>172.1</ele>
        <time>2012-12-09T08:48:34.000Z</time>
      </trkpt>
      <trkpt lat="43.46578" lon="6.78847">
        <ele>172.5</ele>
        <time>2012-12-09T08:48:35.000Z</time>
      </trkpt>
      <trkpt lat="43.46574" lon="6.7885">
        <ele>173</ele>
        <time>2012-12-09T08:48:37.000Z</time>
      </trkpt>
      <trkpt lat="43.46572" lon="6.78852">
        <ele>173.1</ele>
        <time>2012-12-09T08:48:38.000Z</time>
      </trkpt>
      <trkpt lat="43.46568" lon="6.78856">
        <ele>172.8</ele>
        <time>2012-12-09T08:48:40.000Z</time>
      </trkpt>
      <trkpt lat="43.46567" lon="6.78858">
        <ele>172.9</ele>
        <time>2012-12-09T08:48:41.000Z</time>
      </trkpt>
      <trkpt lat="43.46564" lon="6.78862">
        <ele>172.7</ele>
        <time>2012-12-09T08:48:43.000Z</time>
      </trkpt>
      <trkpt lat="43.46567" lon="6.78886">
        <ele>178.8</ele>
        <time>2012-12-09T08:48:48.000Z</time>
      </trkpt>
      <trkpt lat="43.46568" lon="6.78892">
        <ele>174.9</ele>
        <time>2012-12-09T08:48:53.000Z</time>
      </trkpt>
      <trkpt lat="43.46571" lon="6.78894">
        <ele>175</ele>
        <time>2012-12-09T08:48:54.000Z</time>
      </trkpt>
      <trkpt lat="43.46573" lon="6.78897">
        <ele>175.1</ele>
        <time>2012-12-09T08:48:55.000Z</time>
      </trkpt>
      <trkpt lat="43.46577" lon="6.78899">
        <ele>174.6</ele>
        <time>2012-12-09T08:48:56.000Z</time>
      </trkpt>
      <trkpt lat="43.4658" lon="6.789">
        <ele>174.6</ele>
        <time>2012-12-09T08:48:57.000Z</time>
      </trkpt>
      <trkpt lat="43.46584" lon="6.78902">
        <ele>175.2</ele>
        <time>2012-12-09T08:48:58.000Z</time>
      </trkpt>
      <trkpt lat="43.46588" lon="6.78903">
        <ele>175.7</ele>
        <time>2012-12-09T08:48:59.000Z</time>
      </trkpt>
      <trkpt lat="43.46592" lon="6.78906">
        <ele>175.9</ele>
        <time>2012-12-09T08:49:00.000Z</time>
      </trkpt>
      <trkpt lat="43.46597" lon="6.78907">
        <ele>175.6</ele>
        <time>2012-12-09T08:49:01.000Z</time>
      </trkpt>
      <trkpt lat="43.46601" lon="6.78909">
        <ele>175.9</ele>
        <time>2012-12-09T08:49:02.000Z</time>
      </trkpt>
      <trkpt lat="43.46606" lon="6.7891">
        <ele>175.9</ele>
        <time>2012-12-09T08:49:03.000Z</time>
      </trkpt>
      <trkpt lat="43.46611" lon="6.78911">
        <ele>175.9</ele>
        <time>2012-12-09T08:49:04.000Z</time>
      </trkpt>
      <trkpt lat="43.46616" lon="6.78911">
        <ele>175.5</ele>
        <time>2012-12-09T08:49:05.000Z</time>
      </trkpt>
      <trkpt lat="43.4662" lon="6.78911">
        <ele>174.9</ele>
        <time>2012-12-09T08:49:06.000Z</time>
      </trkpt>
      <trkpt lat="43.46624" lon="6.78911">
        <ele>174.8</ele>
        <time>2012-12-09T08:49:07.000Z</time>
      </trkpt>
      <trkpt lat="43.46629" lon="6.7891">
        <ele>173.6</ele>
        <time>2012-12-09T08:49:08.000Z</time>
      </trkpt>
      <trkpt lat="43.46632" lon="6.78911">
        <ele>172.8</ele>
        <time>2012-12-09T08:49:09.000Z</time>
      </trkpt>
      <trkpt lat="43.46636" lon="6.78912">
        <ele>172.2</ele>
        <time>2012-12-09T08:49:10.000Z</time>
      </trkpt>
      <trkpt lat="43.4664" lon="6.78915">
        <ele>171.7</ele>
        <time>2012-12-09T08:49:11.000Z</time>
      </trkpt>
      <trkpt lat="43.46643" lon="6.78919">
        <ele>170.7</ele>
        <time>2012-12-09T08:49:12.000Z</time>
      </trkpt>
      <trkpt lat="43.46646" lon="6.78922">
        <ele>169.2</ele>
        <time>2012-12-09T08:49:13.000Z</time>
      </trkpt>
      <trkpt lat="43.46649" lon="6.78926">
        <ele>168.3</ele>
        <time>2012-12-09T08:49:14.000Z</time>
      </trkpt>
      <trkpt lat="43.46651" lon="6.78929">
        <ele>168.7</ele>
        <time>2012-12-09T08:49:15.000Z</time>
      </trkpt>
      <trkpt lat="43.46654" lon="6.78932">
        <ele>168.6</ele>
        <time>2012-12-09T08:49:16.000Z</time>
      </trkpt>
      <trkpt lat="43.46656" lon="6.78935">
        <ele>168.4</ele>
        <time>2012-12-09T08:49:17.000Z</time>
      </trkpt>
      <trkpt lat="43.46659" lon="6.78938">
        <ele>168.6</ele>
        <time>2012-12-09T08:49:18.000Z</time>
      </trkpt>
      <trkpt lat="43.46662" lon="6.78941">
        <ele>168.5</ele>
        <time>2012-12-09T08:49:19.000Z</time>
      </trkpt>
      <trkpt lat="43.46665" lon="6.78943">
        <ele>168.5</ele>
        <time>2012-12-09T08:49:20.000Z</time>
      </trkpt>
      <trkpt lat="43.46668" lon="6.78946">
        <ele>168.6</ele>
        <time>2012-12-09T08:49:21.000Z</time>
      </trkpt>
      <trkpt lat="43.46671" lon="6.7895">
        <ele>168.6</ele>
        <time>2012-12-09T08:49:22.000Z</time>
      </trkpt>
      <trkpt lat="43.46674" lon="6.78954">
        <ele>168.5</ele>
        <time>2012-12-09T08:49:23.000Z</time>
      </trkpt>
      <trkpt lat="43.46677" lon="6.78958">
        <ele>168.3</ele>
        <time>2012-12-09T08:49:24.000Z</time>
      </trkpt>
      <trkpt lat="43.46679" lon="6.78962">
        <ele>167.8</ele>
        <time>2012-12-09T08:49:25.000Z</time>
      </trkpt>
      <trkpt lat="43.46681" lon="6.78968">
        <ele>167.4</ele>
        <time>2012-12-09T08:49:26.000Z</time>
      </trkpt>
      <trkpt lat="43.46684" lon="6.78973">
        <ele>166.2</ele>
        <time>2012-12-09T08:49:27.000Z</time>
      </trkpt>
      <trkpt lat="43.46686" lon="6.78978">
        <ele>165.7</ele>
        <time>2012-12-09T08:49:28.000Z</time>
      </trkpt>
      <trkpt lat="43.46689" lon="6.78984">
        <ele>165.1</ele>
        <time>2012-12-09T08:49:29.000Z</time>
      </trkpt>
      <trkpt lat="43.46693" lon="6.78989">
        <ele>164.8</ele>
        <time>2012-12-09T08:49:30.000Z</time>
      </trkpt>
      <trkpt lat="43.46696" lon="6.78995">
        <ele>164.7</ele>
        <time>2012-12-09T08:49:31.000Z</time>
      </trkpt>
      <trkpt lat="43.46699" lon="6.79001">
        <ele>164.5</ele>
        <time>2012-12-09T08:49:32.000Z</time>
      </trkpt>
      <trkpt lat="43.46702" lon="6.79005">
        <ele>164.3</ele>
        <time>2012-12-09T08:49:33.000Z</time>
      </trkpt>
      <trkpt lat="43.46705" lon="6.79009">
        <ele>164.2</ele>
        <time>2012-12-09T08:49:34.000Z</time>
      </trkpt>
      <trkpt lat="43.46709" lon="6.79014">
        <ele>164.3</ele>
        <time>2012-12-09T08:49:35.000Z</time>
      </trkpt>
      <trkpt lat="43.46713" lon="6.79018">
        <ele>164.4</ele>
        <time>2012-12-09T08:49:36.000Z</time>
      </trkpt>
      <trkpt lat="43.46716" lon="6.79023">
        <ele>164.5</ele>
        <time>2012-12-09T08:49:37.000Z</time>
      </trkpt>
      <trkpt lat="43.46719" lon="6.79028">
        <ele>164.4</ele>
        <time>2012-12-09T08:49:38.000Z</time>
      </trkpt>
      <trkpt lat="43.46723" lon="6.79034">
        <ele>164.5</ele>
        <time>2012-12-09T08:49:39.000Z</time>
      </trkpt>
      <trkpt lat="43.46725" lon="6.79039">
        <ele>164.5</ele>
        <time>2012-12-09T08:49:40.000Z</time>
      </trkpt>
      <trkpt lat="43.46728" lon="6.79044">
        <ele>164.5</ele>
        <time>2012-12-09T08:49:41.000Z</time>
      </trkpt>
      <trkpt lat="43.46731" lon="6.7905">
        <ele>164.5</ele>
        <time>2012-12-09T08:49:42.000Z</time>
      </trkpt>
      <trkpt lat="43.46733" lon="6.79055">
        <ele>164.6</ele>
        <time>2012-12-09T08:49:43.000Z</time>
      </trkpt>
      <trkpt lat="43.46745" lon="6.79085">
        <ele>160.9</ele>
        <time>2012-12-09T08:49:48.000Z</time>
      </trkpt>
      <trkpt lat="43.4675" lon="6.79089">
        <ele>157.4</ele>
        <time>2012-12-09T08:49:49.000Z</time>
      </trkpt>
      <trkpt lat="43.46752" lon="6.79094">
        <ele>161</ele>
        <time>2012-12-09T08:49:50.000Z</time>
      </trkpt>
      <trkpt lat="43.46752" lon="6.79098">
        <ele>158.7</ele>
        <time>2012-12-09T08:49:51.000Z</time>
      </trkpt>
      <trkpt lat="43.46752" lon="6.79102">
        <ele>158.5</ele>
        <time>2012-12-09T08:49:52.000Z</time>
      </trkpt>
      <trkpt lat="43.46752" lon="6.79106">
        <ele>157.5</ele>
        <time>2012-12-09T08:49:53.000Z</time>
      </trkpt>
      <trkpt lat="43.46752" lon="6.7911">
        <ele>156.9</ele>
        <time>2012-12-09T08:49:54.000Z</time>
      </trkpt>
      <trkpt lat="43.46753" lon="6.79114">
        <ele>155.9</ele>
        <time>2012-12-09T08:49:55.000Z</time>
      </trkpt>
      <trkpt lat="43.46754" lon="6.79119">
        <ele>154.9</ele>
        <time>2012-12-09T08:49:56.000Z</time>
      </trkpt>
      <trkpt lat="43.46754" lon="6.79124">
        <ele>155</ele>
        <time>2012-12-09T08:49:57.000Z</time>
      </trkpt>
      <trkpt lat="43.46755" lon="6.79129">
        <ele>156.2</ele>
        <time>2012-12-09T08:49:58.000Z</time>
      </trkpt>
      <trkpt lat="43.46756" lon="6.79133">
        <ele>157.3</ele>
        <time>2012-12-09T08:49:59.000Z</time>
      </trkpt>
      <trkpt lat="43.46757" lon="6.79138">
        <ele>157</ele>
        <time>2012-12-09T08:50:00.000Z</time>
      </trkpt>
      <trkpt lat="43.46757" lon="6.79142">
        <ele>157.6</ele>
        <time>2012-12-09T08:50:01.000Z</time>
      </trkpt>
      <trkpt lat="43.46758" lon="6.79147">
        <ele>157.5</ele>
        <time>2012-12-09T08:50:02.000Z</time>
      </trkpt>
      <trkpt lat="43.46758" lon="6.79151">
        <ele>157.4</ele>
        <time>2012-12-09T08:50:03.000Z</time>
      </trkpt>
      <trkpt lat="43.46759" lon="6.79156">
        <ele>157.5</ele>
        <time>2012-12-09T08:50:04.000Z</time>
      </trkpt>
      <trkpt lat="43.46761" lon="6.79161">
        <ele>157.3</ele>
        <time>2012-12-09T08:50:05.000Z</time>
      </trkpt>
      <trkpt lat="43.46763" lon="6.79165">
        <ele>157.4</ele>
        <time>2012-12-09T08:50:06.000Z</time>
      </trkpt>
      <trkpt lat="43.46765" lon="6.79168">
        <ele>157.8</ele>
        <time>2012-12-09T08:50:07.000Z</time>
      </trkpt>
      <trkpt lat="43.46767" lon="6.79172">
        <ele>158.2</ele>
        <time>2012-12-09T08:50:08.000Z</time>
      </trkpt>
      <trkpt lat="43.46769" lon="6.79175">
        <ele>158.4</ele>
        <time>2012-12-09T08:50:09.000Z</time>
      </trkpt>
      <trkpt lat="43.46771" lon="6.79178">
        <ele>158.2</ele>
        <time>2012-12-09T08:50:10.000Z</time>
      </trkpt>
      <trkpt lat="43.46774" lon="6.79183">
        <ele>158.8</ele>
        <time>2012-12-09T08:50:11.000Z</time>
      </trkpt>
      <trkpt lat="43.46777" lon="6.79186">
        <ele>158.1</ele>
        <time>2012-12-09T08:50:12.000Z</time>
      </trkpt>
      <trkpt lat="43.46779" lon="6.79191">
        <ele>159.1</ele>
        <time>2012-12-09T08:50:13.000Z</time>
      </trkpt>
      <trkpt lat="43.46781" lon="6.79195">
        <ele>159.5</ele>
        <time>2012-12-09T08:50:14.000Z</time>
      </trkpt>
      <trkpt lat="43.46783" lon="6.79199">
        <ele>159.4</ele>
        <time>2012-12-09T08:50:15.000Z</time>
      </trkpt>
      <trkpt lat="43.46786" lon="6.79203">
        <ele>160</ele>
        <time>2012-12-09T08:50:16.000Z</time>
      </trkpt>
      <trkpt lat="43.46787" lon="6.79207">
        <ele>159.7</ele>
        <time>2012-12-09T08:50:17.000Z</time>
      </trkpt>
      <trkpt lat="43.46789" lon="6.7921">
        <ele>160</ele>
        <time>2012-12-09T08:50:18.000Z</time>
      </trkpt>
      <trkpt lat="43.46791" lon="6.79214">
        <ele>160.3</ele>
        <time>2012-12-09T08:50:19.000Z</time>
      </trkpt>
      <trkpt lat="43.46793" lon="6.79218">
        <ele>160.3</ele>
        <time>2012-12-09T08:50:20.000Z</time>
      </trkpt>
      <trkpt lat="43.46795" lon="6.79222">
        <ele>160.5</ele>
        <time>2012-12-09T08:50:21.000Z</time>
      </trkpt>
      <trkpt lat="43.46797" lon="6.79225">
        <ele>160.6</ele>
        <time>2012-12-09T08:50:22.000Z</time>
      </trkpt>
      <trkpt lat="43.468" lon="6.79229">
        <ele>160.8</ele>
        <time>2012-12-09T08:50:23.000Z</time>
      </trkpt>
      <trkpt lat="43.46802" lon="6.79233">
        <ele>160.8</ele>
        <time>2012-12-09T08:50:24.000Z</time>
      </trkpt>
      <trkpt lat="43.46804" lon="6.79237">
        <ele>161</ele>
        <time>2012-12-09T08:50:25.000Z</time>
      </trkpt>
      <trkpt lat="43.46807" lon="6.79241">
        <ele>161.3</ele>
        <time>2012-12-09T08:50:26.000Z</time>
      </trkpt>
      <trkpt lat="43.46809" lon="6.79244">
        <ele>161.5</ele>
        <time>2012-12-09T08:50:27.000Z</time>
      </trkpt>
      <trkpt lat="43.46812" lon="6.79247">
        <ele>161.4</ele>
        <time>2012-12-09T08:50:28.000Z</time>
      </trkpt>
      <trkpt lat="43.46814" lon="6.7925">
        <ele>161.6</ele>
        <time>2012-12-09T08:50:29.000Z</time>
      </trkpt>
      <trkpt lat="43.46816" lon="6.79252">
        <ele>161.5</ele>
        <time>2012-12-09T08:50:30.000Z</time>
      </trkpt>
      <trkpt lat="43.46818" lon="6.79254">
        <ele>161.1</ele>
        <time>2012-12-09T08:50:31.000Z</time>
      </trkpt>
      <trkpt lat="43.46821" lon="6.79256">
        <ele>161.2</ele>
        <time>2012-12-09T08:50:32.000Z</time>
      </trkpt>
      <trkpt lat="43.46824" lon="6.79257">
        <ele>161.2</ele>
        <time>2012-12-09T08:50:33.000Z</time>
      </trkpt>
      <trkpt lat="43.46826" lon="6.79259">
        <ele>161.3</ele>
        <time>2012-12-09T08:50:34.000Z</time>
      </trkpt>
      <trkpt lat="43.46827" lon="6.79261">
        <ele>161.4</ele>
        <time>2012-12-09T08:50:35.000Z</time>
      </trkpt>
      <trkpt lat="43.46831" lon="6.79263">
        <ele>161.9</ele>
        <time>2012-12-09T08:50:37.000Z</time>
      </trkpt>
      <trkpt lat="43.46833" lon="6.79264">
        <ele>162.1</ele>
        <time>2012-12-09T08:50:38.000Z</time>
      </trkpt>
      <trkpt lat="43.46831" lon="6.79269">
        <ele>162.9</ele>
        <time>2012-12-09T08:50:49.000Z</time>
      </trkpt>
      <trkpt lat="43.46828" lon="6.79264">
        <ele>164.7</ele>
        <time>2012-12-09T08:50:50.000Z</time>
      </trkpt>
      <trkpt lat="43.46829" lon="6.79261">
        <ele>177.9</ele>
        <time>2012-12-09T08:51:26.000Z</time>
      </trkpt>
      <trkpt lat="43.46834" lon="6.79263">
        <ele>158.6</ele>
        <time>2012-12-09T08:51:27.000Z</time>
      </trkpt>
      <trkpt lat="43.46838" lon="6.79263">
        <ele>150.4</ele>
        <time>2012-12-09T08:52:08.000Z</time>
      </trkpt>
      <trkpt lat="43.46838" lon="6.7926">
        <ele>154.4</ele>
        <time>2012-12-09T08:52:09.000Z</time>
      </trkpt>
      <trkpt lat="43.4684" lon="6.79254">
        <ele>160.4</ele>
        <time>2012-12-09T08:52:11.000Z</time>
      </trkpt>
      <trkpt lat="43.46841" lon="6.79251">
        <ele>159.7</ele>
        <time>2012-12-09T08:52:12.000Z</time>
      </trkpt>
      <trkpt lat="43.46843" lon="6.79249">
        <ele>161.2</ele>
        <time>2012-12-09T08:52:13.000Z</time>
      </trkpt>
      <trkpt lat="43.46844" lon="6.79247">
        <ele>162.9</ele>
        <time>2012-12-09T08:52:14.000Z</time>
      </trkpt>
      <trkpt lat="43.46846" lon="6.79243">
        <ele>163.9</ele>
        <time>2012-12-09T08:52:15.000Z</time>
      </trkpt>
      <trkpt lat="43.46847" lon="6.7924">
        <ele>165.7</ele>
        <time>2012-12-09T08:52:16.000Z</time>
      </trkpt>
      <trkpt lat="43.46848" lon="6.79236">
        <ele>166.3</ele>
        <time>2012-12-09T08:52:17.000Z</time>
      </trkpt>
      <trkpt lat="43.4685" lon="6.79232">
        <ele>165</ele>
        <time>2012-12-09T08:52:18.000Z</time>
      </trkpt>
      <trkpt lat="43.46851" lon="6.79229">
        <ele>163</ele>
        <time>2012-12-09T08:52:19.000Z</time>
      </trkpt>
      <trkpt lat="43.46853" lon="6.79226">
        <ele>161.9</ele>
        <time>2012-12-09T08:52:20.000Z</time>
      </trkpt>
      <trkpt lat="43.46853" lon="6.79223">
        <ele>161.1</ele>
        <time>2012-12-09T08:52:21.000Z</time>
      </trkpt>
      <trkpt lat="43.46854" lon="6.79219">
        <ele>160.3</ele>
        <time>2012-12-09T08:52:22.000Z</time>
      </trkpt>
      <trkpt lat="43.46856" lon="6.79216">
        <ele>159.7</ele>
        <time>2012-12-09T08:52:23.000Z</time>
      </trkpt>
      <trkpt lat="43.46857" lon="6.79213">
        <ele>159.5</ele>
        <time>2012-12-09T08:52:24.000Z</time>
      </trkpt>
      <trkpt lat="43.46858" lon="6.79209">
        <ele>159.2</ele>
        <time>2012-12-09T08:52:25.000Z</time>
      </trkpt>
      <trkpt lat="43.46859" lon="6.79206">
        <ele>159</ele>
        <time>2012-12-09T08:52:26.000Z</time>
      </trkpt>
      <trkpt lat="43.46861" lon="6.79203">
        <ele>158.4</ele>
        <time>2012-12-09T08:52:27.000Z</time>
      </trkpt>
      <trkpt lat="43.46862" lon="6.79199">
        <ele>158.2</ele>
        <time>2012-12-09T08:52:28.000Z</time>
      </trkpt>
      <trkpt lat="43.46864" lon="6.79196">
        <ele>158.5</ele>
        <time>2012-12-09T08:52:29.000Z</time>
      </trkpt>
      <trkpt lat="43.46865" lon="6.79193">
        <ele>158.7</ele>
        <time>2012-12-09T08:52:30.000Z</time>
      </trkpt>
      <trkpt lat="43.46867" lon="6.7919">
        <ele>158.8</ele>
        <time>2012-12-09T08:52:31.000Z</time>
      </trkpt>
      <trkpt lat="43.46869" lon="6.79187">
        <ele>158.6</ele>
        <time>2012-12-09T08:52:32.000Z</time>
      </trkpt>
      <trkpt lat="43.46871" lon="6.79185">
        <ele>158.6</ele>
        <time>2012-12-09T08:52:33.000Z</time>
      </trkpt>
      <trkpt lat="43.46873" lon="6.79183">
        <ele>158.7</ele>
        <time>2012-12-09T08:52:34.000Z</time>
      </trkpt>
      <trkpt lat="43.46875" lon="6.7918">
        <ele>158.8</ele>
        <time>2012-12-09T08:52:35.000Z</time>
      </trkpt>
      <trkpt lat="43.46877" lon="6.79178">
        <ele>158.6</ele>
        <time>2012-12-09T08:52:36.000Z</time>
      </trkpt>
      <trkpt lat="43.46879" lon="6.79175">
        <ele>158.4</ele>
        <time>2012-12-09T08:52:37.000Z</time>
      </trkpt>
      <trkpt lat="43.46881" lon="6.79173">
        <ele>158.3</ele>
        <time>2012-12-09T08:52:38.000Z</time>
      </trkpt>
      <trkpt lat="43.46883" lon="6.7917">
        <ele>158.5</ele>
        <time>2012-12-09T08:52:39.000Z</time>
      </trkpt>
      <trkpt lat="43.46885" lon="6.79167">
        <ele>158.3</ele>
        <time>2012-12-09T08:52:40.000Z</time>
      </trkpt>
      <trkpt lat="43.46887" lon="6.79165">
        <ele>158.4</ele>
        <time>2012-12-09T08:52:41.000Z</time>
      </trkpt>
      <trkpt lat="43.46889" lon="6.79162">
        <ele>159.1</ele>
        <time>2012-12-09T08:52:42.000Z</time>
      </trkpt>
      <trkpt lat="43.46891" lon="6.7916">
        <ele>159.4</ele>
        <time>2012-12-09T08:52:43.000Z</time>
      </trkpt>
      <trkpt lat="43.46893" lon="6.79157">
        <ele>159.6</ele>
        <time>2012-12-09T08:52:44.000Z</time>
      </trkpt>
      <trkpt lat="43.46896" lon="6.79129">
        <ele>123.1</ele>
        <time>2012-12-09T08:52:48.000Z</time>
      </trkpt>
      <trkpt lat="43.46898" lon="6.79133">
        <ele>130.4</ele>
        <time>2012-12-09T08:52:49.000Z</time>
      </trkpt>
      <trkpt lat="43.46901" lon="6.79132">
        <ele>138.7</ele>
        <time>2012-12-09T08:52:50.000Z</time>
      </trkpt>
      <trkpt lat="43.46902" lon="6.79127">
        <ele>143.7</ele>
        <time>2012-12-09T08:52:51.000Z</time>
      </trkpt>
      <trkpt lat="43.46903" lon="6.79126">
        <ele>151.2</ele>
        <time>2012-12-09T08:52:52.000Z</time>
      </trkpt>
      <trkpt lat="43.469" lon="6.79123">
        <ele>156.4</ele>
        <time>2012-12-09T08:52:56.000Z</time>
      </trkpt>
      <trkpt lat="43.46898" lon="6.79122">
        <ele>158.2</ele>
        <time>2012-12-09T08:52:57.000Z</time>
      </trkpt>
      <trkpt lat="43.46895" lon="6.7912">
        <ele>157.5</ele>
        <time>2012-12-09T08:52:59.000Z</time>
      </trkpt>
      <trkpt lat="43.46893" lon="6.79119">
        <ele>157.7</ele>
        <time>2012-12-09T08:53:00.000Z</time>
      </trkpt>
      <trkpt lat="43.46891" lon="6.79118">
        <ele>158.1</ele>
        <time>2012-12-09T08:53:01.000Z</time>
      </trkpt>
      <trkpt lat="43.46888" lon="6.79117">
        <ele>157.7</ele>
        <time>2012-12-09T08:53:02.000Z</time>
      </trkpt>
      <trkpt lat="43.46886" lon="6.79116">
        <ele>157.9</ele>
        <time>2012-12-09T08:53:03.000Z</time>
      </trkpt>
      <trkpt lat="43.46883" lon="6.79115">
        <ele>157.9</ele>
        <time>2012-12-09T08:53:04.000Z</time>
      </trkpt>
      <trkpt lat="43.46881" lon="6.79113">
        <ele>157.9</ele>
        <time>2012-12-09T08:53:05.000Z</time>
      </trkpt>
      <trkpt lat="43.46878" lon="6.79112">
        <ele>158</ele>
        <time>2012-12-09T08:53:06.000Z</time>
      </trkpt>
      <trkpt lat="43.46875" lon="6.7911">
        <ele>159.3</ele>
        <time>2012-12-09T08:53:08.000Z</time>
      </trkpt>
      <trkpt lat="43.46873" lon="6.79108">
        <ele>160.5</ele>
        <time>2012-12-09T08:53:09.000Z</time>
      </trkpt>
      <trkpt lat="43.46871" lon="6.79107">
        <ele>160.9</ele>
        <time>2012-12-09T08:53:10.000Z</time>
      </trkpt>
      <trkpt lat="43.46869" lon="6.79105">
        <ele>161.5</ele>
        <time>2012-12-09T08:53:11.000Z</time>
      </trkpt>
      <trkpt lat="43.46866" lon="6.791">
        <ele>163.2</ele>
        <time>2012-12-09T08:53:13.000Z</time>
      </trkpt>
      <trkpt lat="43.46864" lon="6.79098">
        <ele>163.6</ele>
        <time>2012-12-09T08:53:14.000Z</time>
      </trkpt>
      <trkpt lat="43.46863" lon="6.79095">
        <ele>165</ele>
        <time>2012-12-09T08:53:15.000Z</time>
      </trkpt>
      <trkpt lat="43.46862" lon="6.79092">
        <ele>165.9</ele>
        <time>2012-12-09T08:53:16.000Z</time>
      </trkpt>
      <trkpt lat="43.4686" lon="6.79089">
        <ele>165.1</ele>
        <time>2012-12-09T08:53:17.000Z</time>
      </trkpt>
      <trkpt lat="43.4686" lon="6.79086">
        <ele>164.6</ele>
        <time>2012-12-09T08:53:18.000Z</time>
      </trkpt>
      <trkpt lat="43.46859" lon="6.7908">
        <ele>165.2</ele>
        <time>2012-12-09T08:53:20.000Z</time>
      </trkpt>
      <trkpt lat="43.46858" lon="6.79077">
        <ele>165.4</ele>
        <time>2012-12-09T08:53:21.000Z</time>
      </trkpt>
      <trkpt lat="43.46858" lon="6.79073">
        <ele>165.2</ele>
        <time>2012-12-09T08:53:22.000Z</time>
      </trkpt>
      <trkpt lat="43.46859" lon="6.79069">
        <ele>165.3</ele>
        <time>2012-12-09T08:53:23.000Z</time>
      </trkpt>
      <trkpt lat="43.46859" lon="6.79066">
        <ele>165.3</ele>
        <time>2012-12-09T08:53:24.000Z</time>
      </trkpt>
      <trkpt lat="43.46859" lon="6.79062">
        <ele>165.3</ele>
        <time>2012-12-09T08:53:25.000Z</time>
      </trkpt>
      <trkpt lat="43.46859" lon="6.79058">
        <ele>165</ele>
        <time>2012-12-09T08:53:26.000Z</time>
      </trkpt>
      <trkpt lat="43.46859" lon="6.79055">
        <ele>164.6</ele>
        <time>2012-12-09T08:53:27.000Z</time>
      </trkpt>
      <trkpt lat="43.46859" lon="6.79052">
        <ele>164.2</ele>
        <time>2012-12-09T08:53:28.000Z</time>
      </trkpt>
      <trkpt lat="43.4686" lon="6.79048">
        <ele>163.9</ele>
        <time>2012-12-09T08:53:29.000Z</time>
      </trkpt>
      <trkpt lat="43.4686" lon="6.79045">
        <ele>163.5</ele>
        <time>2012-12-09T08:53:30.000Z</time>
      </trkpt>
      <trkpt lat="43.46861" lon="6.79042">
        <ele>163.1</ele>
        <time>2012-12-09T08:53:31.000Z</time>
      </trkpt>
      <trkpt lat="43.46862" lon="6.79039">
        <ele>163.3</ele>
        <time>2012-12-09T08:53:32.000Z</time>
      </trkpt>
      <trkpt lat="43.46863" lon="6.79036">
        <ele>163.4</ele>
        <time>2012-12-09T08:53:33.000Z</time>
      </trkpt>
      <trkpt lat="43.46864" lon="6.79033">
        <ele>163.6</ele>
        <time>2012-12-09T08:53:34.000Z</time>
      </trkpt>
      <trkpt lat="43.46865" lon="6.7903">
        <ele>163.6</ele>
        <time>2012-12-09T08:53:35.000Z</time>
      </trkpt>
      <trkpt lat="43.46866" lon="6.79027">
        <ele>163.7</ele>
        <time>2012-12-09T08:53:36.000Z</time>
      </trkpt>
      <trkpt lat="43.46867" lon="6.79024">
        <ele>164.1</ele>
        <time>2012-12-09T08:53:37.000Z</time>
      </trkpt>
      <trkpt lat="43.46869" lon="6.79021">
        <ele>164.6</ele>
        <time>2012-12-09T08:53:38.000Z</time>
      </trkpt>
      <trkpt lat="43.4687" lon="6.79019">
        <ele>165.3</ele>
        <time>2012-12-09T08:53:39.000Z</time>
      </trkpt>
      <trkpt lat="43.46873" lon="6.79013">
        <ele>165.9</ele>
        <time>2012-12-09T08:53:40.000Z</time>
      </trkpt>
      <trkpt lat="43.46875" lon="6.79011">
        <ele>166.2</ele>
        <time>2012-12-09T08:53:41.000Z</time>
      </trkpt>
      <trkpt lat="43.46877" lon="6.79008">
        <ele>166.4</ele>
        <time>2012-12-09T08:53:42.000Z</time>
      </trkpt>
      <trkpt lat="43.46888" lon="6.78999">
        <ele>166.2</ele>
        <time>2012-12-09T08:53:47.000Z</time>
      </trkpt>
      <trkpt lat="43.46895" lon="6.7899">
        <ele>195.3</ele>
        <time>2012-12-09T08:53:48.000Z</time>
      </trkpt>
      <trkpt lat="43.46898" lon="6.78987">
        <ele>184.6</ele>
        <time>2012-12-09T08:53:50.000Z</time>
      </trkpt>
      <trkpt lat="43.46895" lon="6.78983">
        <ele>194.5</ele>
        <time>2012-12-09T08:53:52.000Z</time>
      </trkpt>
      <trkpt lat="43.46894" lon="6.78979">
        <ele>188.4</ele>
        <time>2012-12-09T08:53:53.000Z</time>
      </trkpt>
      <trkpt lat="43.46897" lon="6.78976">
        <ele>184</ele>
        <time>2012-12-09T08:53:54.000Z</time>
      </trkpt>
      <trkpt lat="43.46899" lon="6.78972">
        <ele>181.5</ele>
        <time>2012-12-09T08:53:55.000Z</time>
      </trkpt>
      <trkpt lat="43.46901" lon="6.7897">
        <ele>181.7</ele>
        <time>2012-12-09T08:53:56.000Z</time>
      </trkpt>
      <trkpt lat="43.46902" lon="6.78968">
        <ele>181.5</ele>
        <time>2012-12-09T08:53:57.000Z</time>
      </trkpt>
      <trkpt lat="43.46904" lon="6.78966">
        <ele>182.3</ele>
        <time>2012-12-09T08:53:58.000Z</time>
      </trkpt>
      <trkpt lat="43.46906" lon="6.78963">
        <ele>182.9</ele>
        <time>2012-12-09T08:53:59.000Z</time>
      </trkpt>
      <trkpt lat="43.46909" lon="6.78961">
        <ele>182.2</ele>
        <time>2012-12-09T08:54:00.000Z</time>
      </trkpt>
      <trkpt lat="43.46911" lon="6.7896">
        <ele>182.2</ele>
        <time>2012-12-09T08:54:01.000Z</time>
      </trkpt>
      <trkpt lat="43.46913" lon="6.78959">
        <ele>182.1</ele>
        <time>2012-12-09T08:54:02.000Z</time>
      </trkpt>
      <trkpt lat="43.46916" lon="6.78957">
        <ele>181.7</ele>
        <time>2012-12-09T08:54:03.000Z</time>
      </trkpt>
      <trkpt lat="43.46918" lon="6.78956">
        <ele>180.5</ele>
        <time>2012-12-09T08:54:04.000Z</time>
      </trkpt>
      <trkpt lat="43.4692" lon="6.78955">
        <ele>180.3</ele>
        <time>2012-12-09T08:54:05.000Z</time>
      </trkpt>
      <trkpt lat="43.46923" lon="6.78954">
        <ele>180</ele>
        <time>2012-12-09T08:54:06.000Z</time>
      </trkpt>
      <trkpt lat="43.46926" lon="6.78953">
        <ele>179.4</ele>
        <time>2012-12-09T08:54:07.000Z</time>
      </trkpt>
      <trkpt lat="43.46929" lon="6.78952">
        <ele>179.1</ele>
        <time>2012-12-09T08:54:08.000Z</time>
      </trkpt>
      <trkpt lat="43.46931" lon="6.78951">
        <ele>178.9</ele>
        <time>2012-12-09T08:54:09.000Z</time>
      </trkpt>
      <trkpt lat="43.46934" lon="6.78949">
        <ele>178.5</ele>
        <time>2012-12-09T08:54:10.000Z</time>
      </trkpt>
      <trkpt lat="43.46936" lon="6.78948">
        <ele>178.6</ele>
        <time>2012-12-09T08:54:11.000Z</time>
      </trkpt>
      <trkpt lat="43.46939" lon="6.78946">
        <ele>178.4</ele>
        <time>2012-12-09T08:54:12.000Z</time>
      </trkpt>
      <trkpt lat="43.46941" lon="6.78945">
        <ele>178.1</ele>
        <time>2012-12-09T08:54:13.000Z</time>
      </trkpt>
      <trkpt lat="43.46944" lon="6.78944">
        <ele>178.3</ele>
        <time>2012-12-09T08:54:14.000Z</time>
      </trkpt>
      <trkpt lat="43.46947" lon="6.78943">
        <ele>178.8</ele>
        <time>2012-12-09T08:54:15.000Z</time>
      </trkpt>
      <trkpt lat="43.4695" lon="6.78943">
        <ele>179.1</ele>
        <time>2012-12-09T08:54:16.000Z</time>
      </trkpt>
      <trkpt lat="43.46953" lon="6.78942">
        <ele>178.8</ele>
        <time>2012-12-09T08:54:17.000Z</time>
      </trkpt>
      <trkpt lat="43.46956" lon="6.78942">
        <ele>178.6</ele>
        <time>2012-12-09T08:54:18.000Z</time>
      </trkpt>
      <trkpt lat="43.46959" lon="6.78942">
        <ele>178.4</ele>
        <time>2012-12-09T08:54:19.000Z</time>
      </trkpt>
      <trkpt lat="43.46961" lon="6.78941">
        <ele>178.2</ele>
        <time>2012-12-09T08:54:20.000Z</time>
      </trkpt>
      <trkpt lat="43.46964" lon="6.78941">
        <ele>178</ele>
        <time>2012-12-09T08:54:21.000Z</time>
      </trkpt>
      <trkpt lat="43.46966" lon="6.78942">
        <ele>178</ele>
        <time>2012-12-09T08:54:22.000Z</time>
      </trkpt>
      <trkpt lat="43.46969" lon="6.78942">
        <ele>178</ele>
        <time>2012-12-09T08:54:23.000Z</time>
      </trkpt>
      <trkpt lat="43.46971" lon="6.78942">
        <ele>177.8</ele>
        <time>2012-12-09T08:54:24.000Z</time>
      </trkpt>
      <trkpt lat="43.46974" lon="6.78942">
        <ele>177.9</ele>
        <time>2012-12-09T08:54:25.000Z</time>
      </trkpt>
      <trkpt lat="43.46976" lon="6.78942">
        <ele>177.9</ele>
        <time>2012-12-09T08:54:26.000Z</time>
      </trkpt>
      <trkpt lat="43.4698" lon="6.78943">
        <ele>177.6</ele>
        <time>2012-12-09T08:54:28.000Z</time>
      </trkpt>
      <trkpt lat="43.46982" lon="6.78944">
        <ele>177.5</ele>
        <time>2012-12-09T08:54:29.000Z</time>
      </trkpt>
      <trkpt lat="43.46986" lon="6.78946">
        <ele>177.8</ele>
        <time>2012-12-09T08:54:31.000Z</time>
      </trkpt>
      <trkpt lat="43.46988" lon="6.78947">
        <ele>178</ele>
        <time>2012-12-09T08:54:32.000Z</time>
      </trkpt>
      <trkpt lat="43.46991" lon="6.78949">
        <ele>178.4</ele>
        <time>2012-12-09T08:54:34.000Z</time>
      </trkpt>
      <trkpt lat="43.46993" lon="6.78951">
        <ele>178.7</ele>
        <time>2012-12-09T08:54:35.000Z</time>
      </trkpt>
      <trkpt lat="43.46995" lon="6.78953">
        <ele>179</ele>
        <time>2012-12-09T08:54:36.000Z</time>
      </trkpt>
      <trkpt lat="43.46997" lon="6.78954">
        <ele>179.2</ele>
        <time>2012-12-09T08:54:37.000Z</time>
      </trkpt>
      <trkpt lat="43.47" lon="6.78956">
        <ele>179.2</ele>
        <time>2012-12-09T08:54:38.000Z</time>
      </trkpt>
      <trkpt lat="43.47002" lon="6.78958">
        <ele>179.1</ele>
        <time>2012-12-09T08:54:39.000Z</time>
      </trkpt>
      <trkpt lat="43.47004" lon="6.7896">
        <ele>179.3</ele>
        <time>2012-12-09T08:54:40.000Z</time>
      </trkpt>
      <trkpt lat="43.47006" lon="6.78962">
        <ele>179.4</ele>
        <time>2012-12-09T08:54:41.000Z</time>
      </trkpt>
      <trkpt lat="43.47008" lon="6.78965">
        <ele>179.4</ele>
        <time>2012-12-09T08:54:42.000Z</time>
      </trkpt>
      <trkpt lat="43.47009" lon="6.78967">
        <ele>179.1</ele>
        <time>2012-12-09T08:54:43.000Z</time>
      </trkpt>
      <trkpt lat="43.47021" lon="6.78979">
        <ele>193.5</ele>
        <time>2012-12-09T08:54:49.000Z</time>
      </trkpt>
      <trkpt lat="43.47025" lon="6.78981">
        <ele>187.6</ele>
        <time>2012-12-09T08:54:50.000Z</time>
      </trkpt>
      <trkpt lat="43.47029" lon="6.78978">
        <ele>174.1</ele>
        <time>2012-12-09T08:54:53.000Z</time>
      </trkpt>
      <trkpt lat="43.47031" lon="6.78978">
        <ele>174.7</ele>
        <time>2012-12-09T08:54:54.000Z</time>
      </trkpt>
      <trkpt lat="43.47033" lon="6.78978">
        <ele>175.5</ele>
        <time>2012-12-09T08:54:55.000Z</time>
      </trkpt>
      <trkpt lat="43.47035" lon="6.78979">
        <ele>176</ele>
        <time>2012-12-09T08:54:56.000Z</time>
      </trkpt>
      <trkpt lat="43.47038" lon="6.78979">
        <ele>176.4</ele>
        <time>2012-12-09T08:54:57.000Z</time>
      </trkpt>
      <trkpt lat="43.4704" lon="6.78979">
        <ele>176.5</ele>
        <time>2012-12-09T08:54:58.000Z</time>
      </trkpt>
      <trkpt lat="43.47042" lon="6.7898">
        <ele>176.7</ele>
        <time>2012-12-09T08:54:59.000Z</time>
      </trkpt>
      <trkpt lat="43.47045" lon="6.78982">
        <ele>177.6</ele>
        <time>2012-12-09T08:55:00.000Z</time>
      </trkpt>
      <trkpt lat="43.47047" lon="6.78985">
        <ele>176.7</ele>
        <time>2012-12-09T08:55:02.000Z</time>
      </trkpt>
      <trkpt lat="43.47049" lon="6.78987">
        <ele>176.9</ele>
        <time>2012-12-09T08:55:03.000Z</time>
      </trkpt>
      <trkpt lat="43.47051" lon="6.78991">
        <ele>176.6</ele>
        <time>2012-12-09T08:55:05.000Z</time>
      </trkpt>
      <trkpt lat="43.47052" lon="6.78994">
        <ele>176.8</ele>
        <time>2012-12-09T08:55:06.000Z</time>
      </trkpt>
      <trkpt lat="43.47054" lon="6.78998">
        <ele>177.1</ele>
        <time>2012-12-09T08:55:08.000Z</time>
      </trkpt>
      <trkpt lat="43.47055" lon="6.79001">
        <ele>176.7</ele>
        <time>2012-12-09T08:55:09.000Z</time>
      </trkpt>
      <trkpt lat="43.47056" lon="6.79004">
        <ele>175.7</ele>
        <time>2012-12-09T08:55:10.000Z</time>
      </trkpt>
      <trkpt lat="43.47056" lon="6.79007">
        <ele>175.1</ele>
        <time>2012-12-09T08:55:11.000Z</time>
      </trkpt>
      <trkpt lat="43.47058" lon="6.79012">
        <ele>175.7</ele>
        <time>2012-12-09T08:55:13.000Z</time>
      </trkpt>
      <trkpt lat="43.47059" lon="6.79015">
        <ele>175.8</ele>
        <time>2012-12-09T08:55:14.000Z</time>
      </trkpt>
      <trkpt lat="43.4706" lon="6.79018">
        <ele>176</ele>
        <time>2012-12-09T08:55:15.000Z</time>
      </trkpt>
      <trkpt lat="43.47061" lon="6.79021">
        <ele>176.4</ele>
        <time>2012-12-09T08:55:16.000Z</time>
      </trkpt>
      <trkpt lat="43.47062" lon="6.79024">
        <ele>176.9</ele>
        <time>2012-12-09T08:55:17.000Z</time>
      </trkpt>
      <trkpt lat="43.47063" lon="6.79027">
        <ele>176.4</ele>
        <time>2012-12-09T08:55:18.000Z</time>
      </trkpt>
      <trkpt lat="43.47064" lon="6.7903">
        <ele>176.8</ele>
        <time>2012-12-09T08:55:19.000Z</time>
      </trkpt>
      <trkpt lat="43.47064" lon="6.79033">
        <ele>177</ele>
        <time>2012-12-09T08:55:20.000Z</time>
      </trkpt>
      <trkpt lat="43.47065" lon="6.79038">
        <ele>177.9</ele>
        <time>2012-12-09T08:55:22.000Z</time>
      </trkpt>
      <trkpt lat="43.47066" lon="6.79041">
        <ele>178.3</ele>
        <time>2012-12-09T08:55:23.000Z</time>
      </trkpt>
      <trkpt lat="43.47066" lon="6.79047">
        <ele>179.1</ele>
        <time>2012-12-09T08:55:25.000Z</time>
      </trkpt>
      <trkpt lat="43.47066" lon="6.79049">
        <ele>179.4</ele>
        <time>2012-12-09T08:55:26.000Z</time>
      </trkpt>
      <trkpt lat="43.47067" lon="6.79055">
        <ele>180.1</ele>
        <time>2012-12-09T08:55:28.000Z</time>
      </trkpt>
      <trkpt lat="43.47069" lon="6.79057">
        <ele>180.4</ele>
        <time>2012-12-09T08:55:29.000Z</time>
      </trkpt>
      <trkpt lat="43.47072" lon="6.79061">
        <ele>180.9</ele>
        <time>2012-12-09T08:55:31.000Z</time>
      </trkpt>
      <trkpt lat="43.47073" lon="6.79064">
        <ele>181</ele>
        <time>2012-12-09T08:55:32.000Z</time>
      </trkpt>
      <trkpt lat="43.47075" lon="6.79066">
        <ele>181.2</ele>
        <time>2012-12-09T08:55:33.000Z</time>
      </trkpt>
      <trkpt lat="43.47077" lon="6.79069">
        <ele>181.4</ele>
        <time>2012-12-09T08:55:34.000Z</time>
      </trkpt>
      <trkpt lat="43.4708" lon="6.79073">
        <ele>182.3</ele>
        <time>2012-12-09T08:55:36.000Z</time>
      </trkpt>
      <trkpt lat="43.47081" lon="6.79075">
        <ele>182.7</ele>
        <time>2012-12-09T08:55:37.000Z</time>
      </trkpt>
      <trkpt lat="43.47083" lon="6.79081">
        <ele>183</ele>
        <time>2012-12-09T08:55:39.000Z</time>
      </trkpt>
      <trkpt lat="43.47084" lon="6.79083">
        <ele>182.9</ele>
        <time>2012-12-09T08:55:40.000Z</time>
      </trkpt>
      <trkpt lat="43.47086" lon="6.79086">
        <ele>182.9</ele>
        <time>2012-12-09T08:55:41.000Z</time>
      </trkpt>
      <trkpt lat="43.47087" lon="6.79088">
        <ele>182.9</ele>
        <time>2012-12-09T08:55:42.000Z</time>
      </trkpt>
      <trkpt lat="43.4709" lon="6.79092">
        <ele>183.2</ele>
        <time>2012-12-09T08:55:44.000Z</time>
      </trkpt>
      <trkpt lat="43.47099" lon="6.791">
        <ele>188.6</ele>
        <time>2012-12-09T08:55:48.000Z</time>
      </trkpt>
      <trkpt lat="43.47093" lon="6.79095">
        <ele>174.5</ele>
        <time>2012-12-09T08:55:49.000Z</time>
      </trkpt>
      <trkpt lat="43.47096" lon="6.79093">
        <ele>175.3</ele>
        <time>2012-12-09T08:55:51.000Z</time>
      </trkpt>
      <trkpt lat="43.47099" lon="6.79094">
        <ele>175.6</ele>
        <time>2012-12-09T08:55:52.000Z</time>
      </trkpt>
      <trkpt lat="43.47101" lon="6.79097">
        <ele>178.6</ele>
        <time>2012-12-09T08:55:54.000Z</time>
      </trkpt>
      <trkpt lat="43.47103" lon="6.791">
        <ele>177.8</ele>
        <time>2012-12-09T08:55:55.000Z</time>
      </trkpt>
      <trkpt lat="43.47105" lon="6.79103">
        <ele>179.5</ele>
        <time>2012-12-09T08:55:56.000Z</time>
      </trkpt>
      <trkpt lat="43.47106" lon="6.79106">
        <ele>181.3</ele>
        <time>2012-12-09T08:55:57.000Z</time>
      </trkpt>
      <trkpt lat="43.47107" lon="6.79108">
        <ele>182.2</ele>
        <time>2012-12-09T08:55:58.000Z</time>
      </trkpt>
      <trkpt lat="43.47109" lon="6.79111">
        <ele>182.6</ele>
        <time>2012-12-09T08:55:59.000Z</time>
      </trkpt>
      <trkpt lat="43.47111" lon="6.79113">
        <ele>182.3</ele>
        <time>2012-12-09T08:56:00.000Z</time>
      </trkpt>
      <trkpt lat="43.47113" lon="6.79116">
        <ele>182</ele>
        <time>2012-12-09T08:56:01.000Z</time>
      </trkpt>
      <trkpt lat="43.47115" lon="6.79118">
        <ele>182</ele>
        <time>2012-12-09T08:56:02.000Z</time>
      </trkpt>
      <trkpt lat="43.47118" lon="6.79119">
        <ele>182.4</ele>
        <time>2012-12-09T08:56:03.000Z</time>
      </trkpt>
      <trkpt lat="43.4712" lon="6.7912">
        <ele>183.4</ele>
        <time>2012-12-09T08:56:04.000Z</time>
      </trkpt>
      <trkpt lat="43.47122" lon="6.79121">
        <ele>183.4</ele>
        <time>2012-12-09T08:56:05.000Z</time>
      </trkpt>
      <trkpt lat="43.47127" lon="6.79122">
        <ele>184</ele>
        <time>2012-12-09T08:56:07.000Z</time>
      </trkpt>
      <trkpt lat="43.47128" lon="6.79123">
        <ele>183.9</ele>
        <time>2012-12-09T08:56:08.000Z</time>
      </trkpt>
      <trkpt lat="43.47131" lon="6.79125">
        <ele>184.3</ele>
        <time>2012-12-09T08:56:10.000Z</time>
      </trkpt>
      <trkpt lat="43.47132" lon="6.79127">
        <ele>184.6</ele>
        <time>2012-12-09T08:56:11.000Z</time>
      </trkpt>
      <trkpt lat="43.47133" lon="6.7913">
        <ele>184.5</ele>
        <time>2012-12-09T08:56:12.000Z</time>
      </trkpt>
      <trkpt lat="43.47135" lon="6.79132">
        <ele>184.9</ele>
        <time>2012-12-09T08:56:13.000Z</time>
      </trkpt>
      <trkpt lat="43.47137" lon="6.79137">
        <ele>186</ele>
        <time>2012-12-09T08:56:15.000Z</time>
      </trkpt>
      <trkpt lat="43.47139" lon="6.79138">
        <ele>187.1</ele>
        <time>2012-12-09T08:56:16.000Z</time>
      </trkpt>
      <trkpt lat="43.47141" lon="6.79139">
        <ele>188</ele>
        <time>2012-12-09T08:56:17.000Z</time>
      </trkpt>
      <trkpt lat="43.47144" lon="6.7914">
        <ele>187.4</ele>
        <time>2012-12-09T08:56:18.000Z</time>
      </trkpt>
      <trkpt lat="43.47148" lon="6.7914">
        <ele>187.6</ele>
        <time>2012-12-09T08:56:20.000Z</time>
      </trkpt>
      <trkpt lat="43.4715" lon="6.79139">
        <ele>188</ele>
        <time>2012-12-09T08:56:21.000Z</time>
      </trkpt>
      <trkpt lat="43.47154" lon="6.79137">
        <ele>188.9</ele>
        <time>2012-12-09T08:56:23.000Z</time>
      </trkpt>
      <trkpt lat="43.47157" lon="6.79137">
        <ele>189.4</ele>
        <time>2012-12-09T08:56:24.000Z</time>
      </trkpt>
      <trkpt lat="43.47161" lon="6.79135">
        <ele>190.3</ele>
        <time>2012-12-09T08:56:26.000Z</time>
      </trkpt>
      <trkpt lat="43.47163" lon="6.79134">
        <ele>190.8</ele>
        <time>2012-12-09T08:56:27.000Z</time>
      </trkpt>
      <trkpt lat="43.47167" lon="6.79133">
        <ele>191.7</ele>
        <time>2012-12-09T08:56:29.000Z</time>
      </trkpt>
      <trkpt lat="43.47169" lon="6.79133">
        <ele>191.9</ele>
        <time>2012-12-09T08:56:30.000Z</time>
      </trkpt>
      <trkpt lat="43.47174" lon="6.79133">
        <ele>192.5</ele>
        <time>2012-12-09T08:56:32.000Z</time>
      </trkpt>
      <trkpt lat="43.47176" lon="6.79133">
        <ele>192.7</ele>
        <time>2012-12-09T08:56:33.000Z</time>
      </trkpt>
      <trkpt lat="43.4718" lon="6.79134">
        <ele>193.2</ele>
        <time>2012-12-09T08:56:35.000Z</time>
      </trkpt>
      <trkpt lat="43.47182" lon="6.79132">
        <ele>193.3</ele>
        <time>2012-12-09T08:56:36.000Z</time>
      </trkpt>
      <trkpt lat="43.47183" lon="6.7913">
        <ele>193.4</ele>
        <time>2012-12-09T08:56:37.000Z</time>
      </trkpt>
      <trkpt lat="43.47185" lon="6.79127">
        <ele>193.5</ele>
        <time>2012-12-09T08:56:38.000Z</time>
      </trkpt>
      <trkpt lat="43.47187" lon="6.79125">
        <ele>193.5</ele>
        <time>2012-12-09T08:56:39.000Z</time>
      </trkpt>
      <trkpt lat="43.47189" lon="6.79122">
        <ele>193.5</ele>
        <time>2012-12-09T08:56:40.000Z</time>
      </trkpt>
      <trkpt lat="43.4719" lon="6.79119">
        <ele>193.5</ele>
        <time>2012-12-09T08:56:41.000Z</time>
      </trkpt>
      <trkpt lat="43.47191" lon="6.79117">
        <ele>193.6</ele>
        <time>2012-12-09T08:56:42.000Z</time>
      </trkpt>
      <trkpt lat="43.47192" lon="6.79114">
        <ele>193.8</ele>
        <time>2012-12-09T08:56:43.000Z</time>
      </trkpt>
      <trkpt lat="43.472" lon="6.79097">
        <ele>221.2</ele>
        <time>2012-12-09T08:56:51.000Z</time>
      </trkpt>
      <trkpt lat="43.47203" lon="6.79096">
        <ele>212.6</ele>
        <time>2012-12-09T08:56:52.000Z</time>
      </trkpt>
      <trkpt lat="43.47205" lon="6.79099">
        <ele>214.6</ele>
        <time>2012-12-09T08:56:53.000Z</time>
      </trkpt>
      <trkpt lat="43.47207" lon="6.79101">
        <ele>210.6</ele>
        <time>2012-12-09T08:56:54.000Z</time>
      </trkpt>
      <trkpt lat="43.4721" lon="6.79102">
        <ele>208.3</ele>
        <time>2012-12-09T08:56:55.000Z</time>
      </trkpt>
      <trkpt lat="43.47213" lon="6.79105">
        <ele>206.7</ele>
        <time>2012-12-09T08:56:57.000Z</time>
      </trkpt>
      <trkpt lat="43.47215" lon="6.79107">
        <ele>204.1</ele>
        <time>2012-12-09T08:56:58.000Z</time>
      </trkpt>
      <trkpt lat="43.47216" lon="6.79111">
        <ele>201.9</ele>
        <time>2012-12-09T08:57:00.000Z</time>
      </trkpt>
      <trkpt lat="43.47217" lon="6.79113">
        <ele>200.7</ele>
        <time>2012-12-09T08:57:01.000Z</time>
      </trkpt>
      <trkpt lat="43.47218" lon="6.79118">
        <ele>201</ele>
        <time>2012-12-09T08:57:03.000Z</time>
      </trkpt>
      <trkpt lat="43.47218" lon="6.7912">
        <ele>200.5</ele>
        <time>2012-12-09T08:57:04.000Z</time>
      </trkpt>
      <trkpt lat="43.47219" lon="6.79125">
        <ele>201.1</ele>
        <time>2012-12-09T08:57:06.000Z</time>
      </trkpt>
      <trkpt lat="43.4722" lon="6.79127">
        <ele>201.3</ele>
        <time>2012-12-09T08:57:07.000Z</time>
      </trkpt>
      <trkpt lat="43.4722" lon="6.79132">
        <ele>201.1</ele>
        <time>2012-12-09T08:57:09.000Z</time>
      </trkpt>
      <trkpt lat="43.47221" lon="6.79135">
        <ele>201</ele>
        <time>2012-12-09T08:57:10.000Z</time>
      </trkpt>
      <trkpt lat="43.47221" lon="6.7914">
        <ele>202.1</ele>
        <time>2012-12-09T08:57:12.000Z</time>
      </trkpt>
      <trkpt lat="43.47221" lon="6.79143">
        <ele>202.7</ele>
        <time>2012-12-09T08:57:13.000Z</time>
      </trkpt>
      <trkpt lat="43.47221" lon="6.79148">
        <ele>202.3</ele>
        <time>2012-12-09T08:57:15.000Z</time>
      </trkpt>
      <trkpt lat="43.47221" lon="6.79151">
        <ele>201.8</ele>
        <time>2012-12-09T08:57:16.000Z</time>
      </trkpt>
      <trkpt lat="43.47221" lon="6.79154">
        <ele>201.4</ele>
        <time>2012-12-09T08:57:17.000Z</time>
      </trkpt>
      <trkpt lat="43.47221" lon="6.79157">
        <ele>201.1</ele>
        <time>2012-12-09T08:57:18.000Z</time>
      </trkpt>
      <trkpt lat="43.47221" lon="6.79161">
        <ele>201.3</ele>
        <time>2012-12-09T08:57:19.000Z</time>
      </trkpt>
      <trkpt lat="43.47221" lon="6.79164">
        <ele>201</ele>
        <time>2012-12-09T08:57:20.000Z</time>
      </trkpt>
      <trkpt lat="43.4722" lon="6.79169">
        <ele>201.3</ele>
        <time>2012-12-09T08:57:22.000Z</time>
      </trkpt>
      <trkpt lat="43.4722" lon="6.79171">
        <ele>201.5</ele>
        <time>2012-12-09T08:57:23.000Z</time>
      </trkpt>
      <trkpt lat="43.47219" lon="6.79176">
        <ele>201.9</ele>
        <time>2012-12-09T08:57:25.000Z</time>
      </trkpt>
      <trkpt lat="43.47219" lon="6.79179">
        <ele>202</ele>
        <time>2012-12-09T08:57:26.000Z</time>
      </trkpt>
      <trkpt lat="43.47219" lon="6.79185">
        <ele>202.1</ele>
        <time>2012-12-09T08:57:28.000Z</time>
      </trkpt>
      <trkpt lat="43.47218" lon="6.79187">
        <ele>202.4</ele>
        <time>2012-12-09T08:57:29.000Z</time>
      </trkpt>
      <trkpt lat="43.47218" lon="6.79193">
        <ele>202.1</ele>
        <time>2012-12-09T08:57:31.000Z</time>
      </trkpt>
      <trkpt lat="43.47218" lon="6.79196">
        <ele>202.2</ele>
        <time>2012-12-09T08:57:32.000Z</time>
      </trkpt>
      <trkpt lat="43.47217" lon="6.79201">
        <ele>202.7</ele>
        <time>2012-12-09T08:57:34.000Z</time>
      </trkpt>
      <trkpt lat="43.47216" lon="6.79204">
        <ele>202.9</ele>
        <time>2012-12-09T08:57:35.000Z</time>
      </trkpt>
      <trkpt lat="43.47215" lon="6.79209">
        <ele>203</ele>
        <time>2012-12-09T08:57:37.000Z</time>
      </trkpt>
      <trkpt lat="43.47214" lon="6.79212">
        <ele>203.1</ele>
        <time>2012-12-09T08:57:38.000Z</time>
      </trkpt>
      <trkpt lat="43.47213" lon="6.79217">
        <ele>203.4</ele>
        <time>2012-12-09T08:57:40.000Z</time>
      </trkpt>
      <trkpt lat="43.47212" lon="6.7922">
        <ele>203.5</ele>
        <time>2012-12-09T08:57:41.000Z</time>
      </trkpt>
      <trkpt lat="43.47212" lon="6.79225">
        <ele>203.8</ele>
        <time>2012-12-09T08:57:43.000Z</time>
      </trkpt>
      <trkpt lat="43.47211" lon="6.79238">
        <ele>213</ele>
        <time>2012-12-09T08:57:48.000Z</time>
      </trkpt>
      <trkpt lat="43.4721" lon="6.79244">
        <ele>211.2</ele>
        <time>2012-12-09T08:57:49.000Z</time>
      </trkpt>
      <trkpt lat="43.4721" lon="6.79247">
        <ele>210.4</ele>
        <time>2012-12-09T08:57:51.000Z</time>
      </trkpt>
      <trkpt lat="43.47211" lon="6.79251">
        <ele>210.1</ele>
        <time>2012-12-09T08:57:53.000Z</time>
      </trkpt>
      <trkpt lat="43.47213" lon="6.79253">
        <ele>210.5</ele>
        <time>2012-12-09T08:57:54.000Z</time>
      </trkpt>
      <trkpt lat="43.47216" lon="6.79257">
        <ele>210.7</ele>
        <time>2012-12-09T08:57:56.000Z</time>
      </trkpt>
      <trkpt lat="43.47217" lon="6.79259">
        <ele>210.7</ele>
        <time>2012-12-09T08:57:57.000Z</time>
      </trkpt>
      <trkpt lat="43.4722" lon="6.79264">
        <ele>207.4</ele>
        <time>2012-12-09T08:57:59.000Z</time>
      </trkpt>
      <trkpt lat="43.47222" lon="6.79265">
        <ele>204.4</ele>
        <time>2012-12-09T08:58:00.000Z</time>
      </trkpt>
      <trkpt lat="43.47224" lon="6.79268">
        <ele>204.9</ele>
        <time>2012-12-09T08:58:01.000Z</time>
      </trkpt>
      <trkpt lat="43.47225" lon="6.7927">
        <ele>205.6</ele>
        <time>2012-12-09T08:58:02.000Z</time>
      </trkpt>
      <trkpt lat="43.47227" lon="6.79274">
        <ele>205.8</ele>
        <time>2012-12-09T08:58:04.000Z</time>
      </trkpt>
      <trkpt lat="43.47228" lon="6.79276">
        <ele>205.8</ele>
        <time>2012-12-09T08:58:05.000Z</time>
      </trkpt>
      <trkpt lat="43.47231" lon="6.79279">
        <ele>206.6</ele>
        <time>2012-12-09T08:58:07.000Z</time>
      </trkpt>
      <trkpt lat="43.47233" lon="6.79281">
        <ele>206.4</ele>
        <time>2012-12-09T08:58:08.000Z</time>
      </trkpt>
      <trkpt lat="43.47236" lon="6.79283">
        <ele>205.4</ele>
        <time>2012-12-09T08:58:10.000Z</time>
      </trkpt>
      <trkpt lat="43.47238" lon="6.79284">
        <ele>205.3</ele>
        <time>2012-12-09T08:58:11.000Z</time>
      </trkpt>
      <trkpt lat="43.4724" lon="6.79284">
        <ele>205.9</ele>
        <time>2012-12-09T08:58:12.000Z</time>
      </trkpt>
      <trkpt lat="43.47243" lon="6.79285">
        <ele>206.1</ele>
        <time>2012-12-09T08:58:13.000Z</time>
      </trkpt>
      <trkpt lat="43.47247" lon="6.79287">
        <ele>207</ele>
        <time>2012-12-09T08:58:15.000Z</time>
      </trkpt>
      <trkpt lat="43.47249" lon="6.79286">
        <ele>207.4</ele>
        <time>2012-12-09T08:58:16.000Z</time>
      </trkpt>
      <trkpt lat="43.47253" lon="6.79287">
        <ele>207.2</ele>
        <time>2012-12-09T08:58:18.000Z</time>
      </trkpt>
      <trkpt lat="43.47255" lon="6.79287">
        <ele>207.4</ele>
        <time>2012-12-09T08:58:19.000Z</time>
      </trkpt>
      <trkpt lat="43.47258" lon="6.79288">
        <ele>207.3</ele>
        <time>2012-12-09T08:58:21.000Z</time>
      </trkpt>
      <trkpt lat="43.4726" lon="6.79289">
        <ele>207.4</ele>
        <time>2012-12-09T08:58:22.000Z</time>
      </trkpt>
      <trkpt lat="43.47262" lon="6.7929">
        <ele>207.3</ele>
        <time>2012-12-09T08:58:23.000Z</time>
      </trkpt>
      <trkpt lat="43.47264" lon="6.79292">
        <ele>207.2</ele>
        <time>2012-12-09T08:58:24.000Z</time>
      </trkpt>
      <trkpt lat="43.47267" lon="6.79293">
        <ele>207.2</ele>
        <time>2012-12-09T08:58:25.000Z</time>
      </trkpt>
      <trkpt lat="43.47269" lon="6.79295">
        <ele>207.3</ele>
        <time>2012-12-09T08:58:26.000Z</time>
      </trkpt>
      <trkpt lat="43.47272" lon="6.79296">
        <ele>207.6</ele>
        <time>2012-12-09T08:58:27.000Z</time>
      </trkpt>
      <trkpt lat="43.47274" lon="6.79297">
        <ele>207.8</ele>
        <time>2012-12-09T08:58:28.000Z</time>
      </trkpt>
      <trkpt lat="43.47276" lon="6.79297">
        <ele>208</ele>
        <time>2012-12-09T08:58:29.000Z</time>
      </trkpt>
      <trkpt lat="43.47279" lon="6.79299">
        <ele>208</ele>
        <time>2012-12-09T08:58:30.000Z</time>
      </trkpt>
      <trkpt lat="43.47281" lon="6.793">
        <ele>208.1</ele>
        <time>2012-12-09T08:58:31.000Z</time>
      </trkpt>
      <trkpt lat="43.47284" lon="6.79302">
        <ele>207.9</ele>
        <time>2012-12-09T08:58:32.000Z</time>
      </trkpt>
      <trkpt lat="43.47286" lon="6.79303">
        <ele>208.1</ele>
        <time>2012-12-09T08:58:33.000Z</time>
      </trkpt>
      <trkpt lat="43.47288" lon="6.79304">
        <ele>208.2</ele>
        <time>2012-12-09T08:58:34.000Z</time>
      </trkpt>
      <trkpt lat="43.4729" lon="6.79305">
        <ele>208.2</ele>
        <time>2012-12-09T08:58:35.000Z</time>
      </trkpt>
      <trkpt lat="43.47293" lon="6.79307">
        <ele>208.3</ele>
        <time>2012-12-09T08:58:36.000Z</time>
      </trkpt>
      <trkpt lat="43.47295" lon="6.79309">
        <ele>208.5</ele>
        <time>2012-12-09T08:58:37.000Z</time>
      </trkpt>
      <trkpt lat="43.47297" lon="6.79311">
        <ele>208.7</ele>
        <time>2012-12-09T08:58:38.000Z</time>
      </trkpt>
      <trkpt lat="43.47301" lon="6.79314">
        <ele>208.3</ele>
        <time>2012-12-09T08:58:40.000Z</time>
      </trkpt>
      <trkpt lat="43.47303" lon="6.79315">
        <ele>208.8</ele>
        <time>2012-12-09T08:58:41.000Z</time>
      </trkpt>
      <trkpt lat="43.47306" lon="6.7932">
        <ele>209.1</ele>
        <time>2012-12-09T08:58:43.000Z</time>
      </trkpt>
      <trkpt lat="43.47307" lon="6.79323">
        <ele>209.1</ele>
        <time>2012-12-09T08:58:44.000Z</time>
      </trkpt>
      <trkpt lat="43.47313" lon="6.7934">
        <ele>235.3</ele>
        <time>2012-12-09T08:58:47.000Z</time>
      </trkpt>
      <trkpt lat="43.47322" lon="6.79351">
        <ele>206.6</ele>
        <time>2012-12-09T08:58:48.000Z</time>
      </trkpt>
      <trkpt lat="43.4732" lon="6.79357">
        <ele>205.1</ele>
        <time>2012-12-09T08:58:50.000Z</time>
      </trkpt>
      <trkpt lat="43.47317" lon="6.79358">
        <ele>208.6</ele>
        <time>2012-12-09T08:58:51.000Z</time>
      </trkpt>
      <trkpt lat="43.47314" lon="6.79361">
        <ele>212.3</ele>
        <time>2012-12-09T08:58:52.000Z</time>
      </trkpt>
      <trkpt lat="43.47314" lon="6.79366">
        <ele>212.7</ele>
        <time>2012-12-09T08:58:54.000Z</time>
      </trkpt>
      <trkpt lat="43.47314" lon="6.79369">
        <ele>213.8</ele>
        <time>2012-12-09T08:58:55.000Z</time>
      </trkpt>
      <trkpt lat="43.47314" lon="6.79373">
        <ele>214.1</ele>
        <time>2012-12-09T08:58:56.000Z</time>
      </trkpt>
      <trkpt lat="43.47314" lon="6.79376">
        <ele>213.5</ele>
        <time>2012-12-09T08:58:57.000Z</time>
      </trkpt>
      <trkpt lat="43.47313" lon="6.79379">
        <ele>214</ele>
        <time>2012-12-09T08:58:58.000Z</time>
      </trkpt>
      <trkpt lat="43.47312" lon="6.79383">
        <ele>214.3</ele>
        <time>2012-12-09T08:58:59.000Z</time>
      </trkpt>
      <trkpt lat="43.47312" lon="6.79386">
        <ele>214.5</ele>
        <time>2012-12-09T08:59:00.000Z</time>
      </trkpt>
      <trkpt lat="43.47311" lon="6.79389">
        <ele>215.2</ele>
        <time>2012-12-09T08:59:01.000Z</time>
      </trkpt>
      <trkpt lat="43.47311" lon="6.79393">
        <ele>215</ele>
        <time>2012-12-09T08:59:02.000Z</time>
      </trkpt>
      <trkpt lat="43.4731" lon="6.79397">
        <ele>215.7</ele>
        <time>2012-12-09T08:59:03.000Z</time>
      </trkpt>
      <trkpt lat="43.4731" lon="6.79401">
        <ele>216</ele>
        <time>2012-12-09T08:59:04.000Z</time>
      </trkpt>
      <trkpt lat="43.47309" lon="6.79404">
        <ele>216.2</ele>
        <time>2012-12-09T08:59:05.000Z</time>
      </trkpt>
      <trkpt lat="43.47309" lon="6.79408">
        <ele>216.5</ele>
        <time>2012-12-09T08:59:06.000Z</time>
      </trkpt>
      <trkpt lat="43.47309" lon="6.79412">
        <ele>216.3</ele>
        <time>2012-12-09T08:59:07.000Z</time>
      </trkpt>
      <trkpt lat="43.47309" lon="6.79416">
        <ele>216</ele>
        <time>2012-12-09T08:59:08.000Z</time>
      </trkpt>
      <trkpt lat="43.47308" lon="6.7942">
        <ele>216.7</ele>
        <time>2012-12-09T08:59:09.000Z</time>
      </trkpt>
      <trkpt lat="43.47308" lon="6.79424">
        <ele>216.5</ele>
        <time>2012-12-09T08:59:10.000Z</time>
      </trkpt>
      <trkpt lat="43.47308" lon="6.79427">
        <ele>216.8</ele>
        <time>2012-12-09T08:59:11.000Z</time>
      </trkpt>
      <trkpt lat="43.47307" lon="6.79431">
        <ele>216.9</ele>
        <time>2012-12-09T08:59:12.000Z</time>
      </trkpt>
      <trkpt lat="43.47307" lon="6.79434">
        <ele>216.9</ele>
        <time>2012-12-09T08:59:13.000Z</time>
      </trkpt>
      <trkpt lat="43.47307" lon="6.79438">
        <ele>217.1</ele>
        <time>2012-12-09T08:59:14.000Z</time>
      </trkpt>
      <trkpt lat="43.47307" lon="6.79442">
        <ele>217.5</ele>
        <time>2012-12-09T08:59:15.000Z</time>
      </trkpt>
      <trkpt lat="43.47307" lon="6.79445">
        <ele>217.6</ele>
        <time>2012-12-09T08:59:16.000Z</time>
      </trkpt>
      <trkpt lat="43.47307" lon="6.79449">
        <ele>217.3</ele>
        <time>2012-12-09T08:59:17.000Z</time>
      </trkpt>
      <trkpt lat="43.47307" lon="6.79452">
        <ele>217.2</ele>
        <time>2012-12-09T08:59:18.000Z</time>
      </trkpt>
      <trkpt lat="43.47307" lon="6.79456">
        <ele>217.2</ele>
        <time>2012-12-09T08:59:19.000Z</time>
      </trkpt>
      <trkpt lat="43.47308" lon="6.7946">
        <ele>217.4</ele>
        <time>2012-12-09T08:59:20.000Z</time>
      </trkpt>
      <trkpt lat="43.47308" lon="6.79464">
        <ele>217.9</ele>
        <time>2012-12-09T08:59:21.000Z</time>
      </trkpt>
      <trkpt lat="43.47309" lon="6.79468">
        <ele>218.1</ele>
        <time>2012-12-09T08:59:22.000Z</time>
      </trkpt>
      <trkpt lat="43.4731" lon="6.79473">
        <ele>218.6</ele>
        <time>2012-12-09T08:59:23.000Z</time>
      </trkpt>
      <trkpt lat="43.47312" lon="6.79477">
        <ele>218.9</ele>
        <time>2012-12-09T08:59:24.000Z</time>
      </trkpt>
      <trkpt lat="43.47313" lon="6.79481">
        <ele>218.7</ele>
        <time>2012-12-09T08:59:25.000Z</time>
      </trkpt>
      <trkpt lat="43.47314" lon="6.79484">
        <ele>218.8</ele>
        <time>2012-12-09T08:59:26.000Z</time>
      </trkpt>
      <trkpt lat="43.47315" lon="6.79487">
        <ele>219</ele>
        <time>2012-12-09T08:59:27.000Z</time>
      </trkpt>
      <trkpt lat="43.47317" lon="6.79491">
        <ele>219.2</ele>
        <time>2012-12-09T08:59:28.000Z</time>
      </trkpt>
      <trkpt lat="43.47318" lon="6.79494">
        <ele>219.5</ele>
        <time>2012-12-09T08:59:29.000Z</time>
      </trkpt>
      <trkpt lat="43.47319" lon="6.79497">
        <ele>219.5</ele>
        <time>2012-12-09T08:59:30.000Z</time>
      </trkpt>
      <trkpt lat="43.4732" lon="6.79501">
        <ele>219.5</ele>
        <time>2012-12-09T08:59:31.000Z</time>
      </trkpt>
      <trkpt lat="43.47321" lon="6.79504">
        <ele>219.7</ele>
        <time>2012-12-09T08:59:32.000Z</time>
      </trkpt>
      <trkpt lat="43.47322" lon="6.79508">
        <ele>219.2</ele>
        <time>2012-12-09T08:59:33.000Z</time>
      </trkpt>
      <trkpt lat="43.47323" lon="6.79511">
        <ele>218.9</ele>
        <time>2012-12-09T08:59:34.000Z</time>
      </trkpt>
      <trkpt lat="43.47324" lon="6.79515">
        <ele>218.7</ele>
        <time>2012-12-09T08:59:35.000Z</time>
      </trkpt>
      <trkpt lat="43.47324" lon="6.79518">
        <ele>218.9</ele>
        <time>2012-12-09T08:59:36.000Z</time>
      </trkpt>
      <trkpt lat="43.47325" lon="6.79521">
        <ele>219.1</ele>
        <time>2012-12-09T08:59:37.000Z</time>
      </trkpt>
      <trkpt lat="43.47325" lon="6.79525">
        <ele>219.2</ele>
        <time>2012-12-09T08:59:38.000Z</time>
      </trkpt>
      <trkpt lat="43.47326" lon="6.79529">
        <ele>219.1</ele>
        <time>2012-12-09T08:59:39.000Z</time>
      </trkpt>
      <trkpt lat="43.47327" lon="6.79532">
        <ele>218.9</ele>
        <time>2012-12-09T08:59:40.000Z</time>
      </trkpt>
      <trkpt lat="43.47328" lon="6.79536">
        <ele>218.7</ele>
        <time>2012-12-09T08:59:41.000Z</time>
      </trkpt>
      <trkpt lat="43.47328" lon="6.79539">
        <ele>218.7</ele>
        <time>2012-12-09T08:59:42.000Z</time>
      </trkpt>
      <trkpt lat="43.47329" lon="6.79543">
        <ele>218.8</ele>
        <time>2012-12-09T08:59:43.000Z</time>
      </trkpt>
      <trkpt lat="43.47328" lon="6.79563">
        <ele>211.7</ele>
        <time>2012-12-09T08:59:48.000Z</time>
      </trkpt>
      <trkpt lat="43.47331" lon="6.79576">
        <ele>203</ele>
        <time>2012-12-09T08:59:49.000Z</time>
      </trkpt>
      <trkpt lat="43.47332" lon="6.79582">
        <ele>208.6</ele>
        <time>2012-12-09T08:59:51.000Z</time>
      </trkpt>
      <trkpt lat="43.47329" lon="6.79585">
        <ele>208.7</ele>
        <time>2012-12-09T08:59:52.000Z</time>
      </trkpt>
      <trkpt lat="43.4733" lon="6.79589">
        <ele>206.9</ele>
        <time>2012-12-09T08:59:53.000Z</time>
      </trkpt>
      <trkpt lat="43.47332" lon="6.79593">
        <ele>207.1</ele>
        <time>2012-12-09T08:59:54.000Z</time>
      </trkpt>
      <trkpt lat="43.47333" lon="6.79596">
        <ele>208.6</ele>
        <time>2012-12-09T08:59:55.000Z</time>
      </trkpt>
      <trkpt lat="43.47334" lon="6.79599">
        <ele>209.1</ele>
        <time>2012-12-09T08:59:56.000Z</time>
      </trkpt>
      <trkpt lat="43.47336" lon="6.79602">
        <ele>210.1</ele>
        <time>2012-12-09T08:59:57.000Z</time>
      </trkpt>
      <trkpt lat="43.47338" lon="6.79605">
        <ele>210.8</ele>
        <time>2012-12-09T08:59:58.000Z</time>
      </trkpt>
      <trkpt lat="43.4734" lon="6.79607">
        <ele>211.6</ele>
        <time>2012-12-09T08:59:59.000Z</time>
      </trkpt>
      <trkpt lat="43.47341" lon="6.7961">
        <ele>212.5</ele>
        <time>2012-12-09T09:00:00.000Z</time>
      </trkpt>
      <trkpt lat="43.47343" lon="6.79613">
        <ele>213.1</ele>
        <time>2012-12-09T09:00:01.000Z</time>
      </trkpt>
      <trkpt lat="43.47345" lon="6.79615">
        <ele>213.7</ele>
        <time>2012-12-09T09:00:02.000Z</time>
      </trkpt>
      <trkpt lat="43.47347" lon="6.79618">
        <ele>214.8</ele>
        <time>2012-12-09T09:00:03.000Z</time>
      </trkpt>
      <trkpt lat="43.47349" lon="6.79621">
        <ele>216.6</ele>
        <time>2012-12-09T09:00:04.000Z</time>
      </trkpt>
      <trkpt lat="43.47351" lon="6.79623">
        <ele>217.1</ele>
        <time>2012-12-09T09:00:05.000Z</time>
      </trkpt>
      <trkpt lat="43.47354" lon="6.79625">
        <ele>218</ele>
        <time>2012-12-09T09:00:06.000Z</time>
      </trkpt>
      <trkpt lat="43.47356" lon="6.79626">
        <ele>216.7</ele>
        <time>2012-12-09T09:00:07.000Z</time>
      </trkpt>
      <trkpt lat="43.47359" lon="6.79627">
        <ele>216</ele>
        <time>2012-12-09T09:00:08.000Z</time>
      </trkpt>
      <trkpt lat="43.47361" lon="6.79628">
        <ele>216.5</ele>
        <time>2012-12-09T09:00:09.000Z</time>
      </trkpt>
      <trkpt lat="43.47364" lon="6.79628">
        <ele>216.8</ele>
        <time>2012-12-09T09:00:10.000Z</time>
      </trkpt>
      <trkpt lat="43.47367" lon="6.79628">
        <ele>216</ele>
        <time>2012-12-09T09:00:11.000Z</time>
      </trkpt>
      <trkpt lat="43.47369" lon="6.79629">
        <ele>215.4</ele>
        <time>2012-12-09T09:00:12.000Z</time>
      </trkpt>
      <trkpt lat="43.47372" lon="6.79629">
        <ele>215.2</ele>
        <time>2012-12-09T09:00:13.000Z</time>
      </trkpt>
      <trkpt lat="43.47375" lon="6.79629">
        <ele>214.5</ele>
        <time>2012-12-09T09:00:14.000Z</time>
      </trkpt>
      <trkpt lat="43.47378" lon="6.7963">
        <ele>214.7</ele>
        <time>2012-12-09T09:00:15.000Z</time>
      </trkpt>
      <trkpt lat="43.4738" lon="6.7963">
        <ele>214.3</ele>
        <time>2012-12-09T09:00:16.000Z</time>
      </trkpt>
      <trkpt lat="43.47383" lon="6.79631">
        <ele>214.7</ele>
        <time>2012-12-09T09:00:17.000Z</time>
      </trkpt>
      <trkpt lat="43.47385" lon="6.79631">
        <ele>214.5</ele>
        <time>2012-12-09T09:00:18.000Z</time>
      </trkpt>
      <trkpt lat="43.47388" lon="6.79632">
        <ele>214.9</ele>
        <time>2012-12-09T09:00:19.000Z</time>
      </trkpt>
      <trkpt lat="43.47391" lon="6.79633">
        <ele>215.7</ele>
        <time>2012-12-09T09:00:20.000Z</time>
      </trkpt>
      <trkpt lat="43.47394" lon="6.79633">
        <ele>217.2</ele>
        <time>2012-12-09T09:00:21.000Z</time>
      </trkpt>
      <trkpt lat="43.47397" lon="6.79633">
        <ele>218.1</ele>
        <time>2012-12-09T09:00:22.000Z</time>
      </trkpt>
      <trkpt lat="43.47399" lon="6.79633">
        <ele>218.8</ele>
        <time>2012-12-09T09:00:23.000Z</time>
      </trkpt>
      <trkpt lat="43.47402" lon="6.79633">
        <ele>219.3</ele>
        <time>2012-12-09T09:00:24.000Z</time>
      </trkpt>
      <trkpt lat="43.47405" lon="6.79634">
        <ele>219.5</ele>
        <time>2012-12-09T09:00:25.000Z</time>
      </trkpt>
      <trkpt lat="43.47408" lon="6.79634">
        <ele>219.7</ele>
        <time>2012-12-09T09:00:26.000Z</time>
      </trkpt>
      <trkpt lat="43.4741" lon="6.79634">
        <ele>220</ele>
        <time>2012-12-09T09:00:27.000Z</time>
      </trkpt>
      <trkpt lat="43.47413" lon="6.79635">
        <ele>220.2</ele>
        <time>2012-12-09T09:00:28.000Z</time>
      </trkpt>
      <trkpt lat="43.47416" lon="6.79634">
        <ele>220.5</ele>
        <time>2012-12-09T09:00:29.000Z</time>
      </trkpt>
      <trkpt lat="43.47419" lon="6.79634">
        <ele>221.1</ele>
        <time>2012-12-09T09:00:30.000Z</time>
      </trkpt>
      <trkpt lat="43.47422" lon="6.79633">
        <ele>221.7</ele>
        <time>2012-12-09T09:00:31.000Z</time>
      </trkpt>
      <trkpt lat="43.47425" lon="6.79632">
        <ele>222.2</ele>
        <time>2012-12-09T09:00:32.000Z</time>
      </trkpt>
      <trkpt lat="43.47427" lon="6.79632">
        <ele>222.3</ele>
        <time>2012-12-09T09:00:33.000Z</time>
      </trkpt>
      <trkpt lat="43.4743" lon="6.7963">
        <ele>222.3</ele>
        <time>2012-12-09T09:00:34.000Z</time>
      </trkpt>
      <trkpt lat="43.47432" lon="6.7963">
        <ele>222.4</ele>
        <time>2012-12-09T09:00:35.000Z</time>
      </trkpt>
      <trkpt lat="43.47435" lon="6.79629">
        <ele>222.2</ele>
        <time>2012-12-09T09:00:36.000Z</time>
      </trkpt>
      <trkpt lat="43.47437" lon="6.79628">
        <ele>222</ele>
        <time>2012-12-09T09:00:37.000Z</time>
      </trkpt>
      <trkpt lat="43.4744" lon="6.79627">
        <ele>222.1</ele>
        <time>2012-12-09T09:00:38.000Z</time>
      </trkpt>
      <trkpt lat="43.47443" lon="6.79626">
        <ele>222.1</ele>
        <time>2012-12-09T09:00:39.000Z</time>
      </trkpt>
      <trkpt lat="43.47446" lon="6.79625">
        <ele>222.2</ele>
        <time>2012-12-09T09:00:40.000Z</time>
      </trkpt>
      <trkpt lat="43.47448" lon="6.79624">
        <ele>222.4</ele>
        <time>2012-12-09T09:00:41.000Z</time>
      </trkpt>
      <trkpt lat="43.47451" lon="6.79622">
        <ele>222.6</ele>
        <time>2012-12-09T09:00:42.000Z</time>
      </trkpt>
      <trkpt lat="43.47453" lon="6.79621">
        <ele>222.7</ele>
        <time>2012-12-09T09:00:43.000Z</time>
      </trkpt>
      <trkpt lat="43.47473" lon="6.79593">
        <ele>195.2</ele>
        <time>2012-12-09T09:00:49.000Z</time>
      </trkpt>
      <trkpt lat="43.47473" lon="6.79601">
        <ele>216.6</ele>
        <time>2012-12-09T09:00:50.000Z</time>
      </trkpt>
      <trkpt lat="43.47474" lon="6.79597">
        <ele>218.9</ele>
        <time>2012-12-09T09:00:51.000Z</time>
      </trkpt>
      <trkpt lat="43.47476" lon="6.79595">
        <ele>222.6</ele>
        <time>2012-12-09T09:00:52.000Z</time>
      </trkpt>
      <trkpt lat="43.47479" lon="6.79592">
        <ele>231.8</ele>
        <time>2012-12-09T09:00:54.000Z</time>
      </trkpt>
      <trkpt lat="43.4748" lon="6.79589">
        <ele>233.1</ele>
        <time>2012-12-09T09:00:55.000Z</time>
      </trkpt>
      <trkpt lat="43.47482" lon="6.79586">
        <ele>234.3</ele>
        <time>2012-12-09T09:00:56.000Z</time>
      </trkpt>
      <trkpt lat="43.47483" lon="6.79583">
        <ele>234.2</ele>
        <time>2012-12-09T09:00:57.000Z</time>
      </trkpt>
      <trkpt lat="43.47484" lon="6.7958">
        <ele>233.7</ele>
        <time>2012-12-09T09:00:58.000Z</time>
      </trkpt>
      <trkpt lat="43.47485" lon="6.79578">
        <ele>234.1</ele>
        <time>2012-12-09T09:00:59.000Z</time>
      </trkpt>
      <trkpt lat="43.47486" lon="6.79575">
        <ele>235.5</ele>
        <time>2012-12-09T09:01:00.000Z</time>
      </trkpt>
      <trkpt lat="43.47488" lon="6.79572">
        <ele>237.2</ele>
        <time>2012-12-09T09:01:01.000Z</time>
      </trkpt>
      <trkpt lat="43.47489" lon="6.79569">
        <ele>237.6</ele>
        <time>2012-12-09T09:01:02.000Z</time>
      </trkpt>
      <trkpt lat="43.4749" lon="6.79566">
        <ele>236.9</ele>
        <time>2012-12-09T09:01:03.000Z</time>
      </trkpt>
      <trkpt lat="43.47492" lon="6.79563">
        <ele>237.6</ele>
        <time>2012-12-09T09:01:04.000Z</time>
      </trkpt>
      <trkpt lat="43.47494" lon="6.7956">
        <ele>238</ele>
        <time>2012-12-09T09:01:05.000Z</time>
      </trkpt>
      <trkpt lat="43.47495" lon="6.79557">
        <ele>237.9</ele>
        <time>2012-12-09T09:01:06.000Z</time>
      </trkpt>
      <trkpt lat="43.47497" lon="6.79554">
        <ele>238.1</ele>
        <time>2012-12-09T09:01:07.000Z</time>
      </trkpt>
      <trkpt lat="43.47498" lon="6.79551">
        <ele>238</ele>
        <time>2012-12-09T09:01:08.000Z</time>
      </trkpt>
      <trkpt lat="43.475" lon="6.79548">
        <ele>237.4</ele>
        <time>2012-12-09T09:01:09.000Z</time>
      </trkpt>
      <trkpt lat="43.47501" lon="6.79544">
        <ele>236.5</ele>
        <time>2012-12-09T09:01:10.000Z</time>
      </trkpt>
      <trkpt lat="43.47502" lon="6.79541">
        <ele>235.9</ele>
        <time>2012-12-09T09:01:11.000Z</time>
      </trkpt>
      <trkpt lat="43.47504" lon="6.79539">
        <ele>234.6</ele>
        <time>2012-12-09T09:01:12.000Z</time>
      </trkpt>
      <trkpt lat="43.47505" lon="6.79536">
        <ele>234.6</ele>
        <time>2012-12-09T09:01:13.000Z</time>
      </trkpt>
      <trkpt lat="43.47506" lon="6.79533">
        <ele>234.8</ele>
        <time>2012-12-09T09:01:14.000Z</time>
      </trkpt>
      <trkpt lat="43.47508" lon="6.79529">
        <ele>234.5</ele>
        <time>2012-12-09T09:01:15.000Z</time>
      </trkpt>
      <trkpt lat="43.47509" lon="6.79526">
        <ele>235.6</ele>
        <time>2012-12-09T09:01:16.000Z</time>
      </trkpt>
      <trkpt lat="43.47511" lon="6.79523">
        <ele>236.6</ele>
        <time>2012-12-09T09:01:17.000Z</time>
      </trkpt>
      <trkpt lat="43.47513" lon="6.79521">
        <ele>237.3</ele>
        <time>2012-12-09T09:01:18.000Z</time>
      </trkpt>
      <trkpt lat="43.47516" lon="6.79519">
        <ele>237.8</ele>
        <time>2012-12-09T09:01:19.000Z</time>
      </trkpt>
      <trkpt lat="43.47518" lon="6.79516">
        <ele>238.1</ele>
        <time>2012-12-09T09:01:20.000Z</time>
      </trkpt>
      <trkpt lat="43.47519" lon="6.79514">
        <ele>238.3</ele>
        <time>2012-12-09T09:01:21.000Z</time>
      </trkpt>
      <trkpt lat="43.47521" lon="6.79511">
        <ele>238.2</ele>
        <time>2012-12-09T09:01:22.000Z</time>
      </trkpt>
      <trkpt lat="43.47524" lon="6.79509">
        <ele>238.2</ele>
        <time>2012-12-09T09:01:23.000Z</time>
      </trkpt>
      <trkpt lat="43.47526" lon="6.79507">
        <ele>238.6</ele>
        <time>2012-12-09T09:01:24.000Z</time>
      </trkpt>
      <trkpt lat="43.47528" lon="6.79504">
        <ele>239.2</ele>
        <time>2012-12-09T09:01:25.000Z</time>
      </trkpt>
      <trkpt lat="43.47531" lon="6.79502">
        <ele>239.6</ele>
        <time>2012-12-09T09:01:26.000Z</time>
      </trkpt>
      <trkpt lat="43.47533" lon="6.795">
        <ele>239.8</ele>
        <time>2012-12-09T09:01:27.000Z</time>
      </trkpt>
      <trkpt lat="43.47536" lon="6.79498">
        <ele>239.7</ele>
        <time>2012-12-09T09:01:28.000Z</time>
      </trkpt>
      <trkpt lat="43.47539" lon="6.79496">
        <ele>238.9</ele>
        <time>2012-12-09T09:01:29.000Z</time>
      </trkpt>
      <trkpt lat="43.47541" lon="6.79494">
        <ele>238.4</ele>
        <time>2012-12-09T09:01:30.000Z</time>
      </trkpt>
      <trkpt lat="43.47543" lon="6.79492">
        <ele>238.1</ele>
        <time>2012-12-09T09:01:31.000Z</time>
      </trkpt>
      <trkpt lat="43.47546" lon="6.7949">
        <ele>238.3</ele>
        <time>2012-12-09T09:01:32.000Z</time>
      </trkpt>
      <trkpt lat="43.47548" lon="6.79488">
        <ele>238</ele>
        <time>2012-12-09T09:01:33.000Z</time>
      </trkpt>
      <trkpt lat="43.47551" lon="6.79485">
        <ele>237.7</ele>
        <time>2012-12-09T09:01:34.000Z</time>
      </trkpt>
      <trkpt lat="43.47553" lon="6.79483">
        <ele>237.4</ele>
        <time>2012-12-09T09:01:35.000Z</time>
      </trkpt>
      <trkpt lat="43.47556" lon="6.79481">
        <ele>237.2</ele>
        <time>2012-12-09T09:01:36.000Z</time>
      </trkpt>
      <trkpt lat="43.47558" lon="6.79478">
        <ele>237</ele>
        <time>2012-12-09T09:01:37.000Z</time>
      </trkpt>
      <trkpt lat="43.47561" lon="6.79476">
        <ele>236.9</ele>
        <time>2012-12-09T09:01:38.000Z</time>
      </trkpt>
      <trkpt lat="43.47563" lon="6.79474">
        <ele>236.8</ele>
        <time>2012-12-09T09:01:39.000Z</time>
      </trkpt>
      <trkpt lat="43.47566" lon="6.79473">
        <ele>236.5</ele>
        <time>2012-12-09T09:01:40.000Z</time>
      </trkpt>
      <trkpt lat="43.47568" lon="6.79471">
        <ele>236.3</ele>
        <time>2012-12-09T09:01:41.000Z</time>
      </trkpt>
      <trkpt lat="43.4757" lon="6.79468">
        <ele>236.1</ele>
        <time>2012-12-09T09:01:42.000Z</time>
      </trkpt>
      <trkpt lat="43.47572" lon="6.79466">
        <ele>236.1</ele>
        <time>2012-12-09T09:01:43.000Z</time>
      </trkpt>
      <trkpt lat="43.47575" lon="6.79464">
        <ele>236.1</ele>
        <time>2012-12-09T09:01:44.000Z</time>
      </trkpt>
      <trkpt lat="43.47588" lon="6.79447">
        <ele>238.2</ele>
        <time>2012-12-09T09:01:49.000Z</time>
      </trkpt>
      <trkpt lat="43.47591" lon="6.79449">
        <ele>234.7</ele>
        <time>2012-12-09T09:01:51.000Z</time>
      </trkpt>
      <trkpt lat="43.47594" lon="6.79444">
        <ele>227.6</ele>
        <time>2012-12-09T09:01:52.000Z</time>
      </trkpt>
      <trkpt lat="43.47597" lon="6.79441">
        <ele>226.5</ele>
        <time>2012-12-09T09:01:53.000Z</time>
      </trkpt>
      <trkpt lat="43.476" lon="6.7944">
        <ele>228.3</ele>
        <time>2012-12-09T09:01:54.000Z</time>
      </trkpt>
      <trkpt lat="43.47602" lon="6.79437">
        <ele>228.6</ele>
        <time>2012-12-09T09:01:55.000Z</time>
      </trkpt>
      <trkpt lat="43.47604" lon="6.79436">
        <ele>228</ele>
        <time>2012-12-09T09:01:56.000Z</time>
      </trkpt>
      <trkpt lat="43.47607" lon="6.79434">
        <ele>226.4</ele>
        <time>2012-12-09T09:01:57.000Z</time>
      </trkpt>
      <trkpt lat="43.47609" lon="6.79432">
        <ele>226.3</ele>
        <time>2012-12-09T09:01:58.000Z</time>
      </trkpt>
      <trkpt lat="43.47611" lon="6.7943">
        <ele>227.1</ele>
        <time>2012-12-09T09:01:59.000Z</time>
      </trkpt>
      <trkpt lat="43.47614" lon="6.79428">
        <ele>226.5</ele>
        <time>2012-12-09T09:02:00.000Z</time>
      </trkpt>
      <trkpt lat="43.47616" lon="6.79426">
        <ele>225.9</ele>
        <time>2012-12-09T09:02:01.000Z</time>
      </trkpt>
      <trkpt lat="43.47619" lon="6.79424">
        <ele>225.1</ele>
        <time>2012-12-09T09:02:02.000Z</time>
      </trkpt>
      <trkpt lat="43.47621" lon="6.79422">
        <ele>224.7</ele>
        <time>2012-12-09T09:02:03.000Z</time>
      </trkpt>
      <trkpt lat="43.47624" lon="6.7942">
        <ele>225.3</ele>
        <time>2012-12-09T09:02:04.000Z</time>
      </trkpt>
      <trkpt lat="43.47626" lon="6.79418">
        <ele>225.6</ele>
        <time>2012-12-09T09:02:05.000Z</time>
      </trkpt>
      <trkpt lat="43.47628" lon="6.79416">
        <ele>225.8</ele>
        <time>2012-12-09T09:02:06.000Z</time>
      </trkpt>
      <trkpt lat="43.47631" lon="6.79414">
        <ele>225.8</ele>
        <time>2012-12-09T09:02:07.000Z</time>
      </trkpt>
      <trkpt lat="43.47633" lon="6.79412">
        <ele>225.2</ele>
        <time>2012-12-09T09:02:08.000Z</time>
      </trkpt>
      <trkpt lat="43.47636" lon="6.7941">
        <ele>225.7</ele>
        <time>2012-12-09T09:02:09.000Z</time>
      </trkpt>
      <trkpt lat="43.47639" lon="6.79408">
        <ele>225.6</ele>
        <time>2012-12-09T09:02:10.000Z</time>
      </trkpt>
      <trkpt lat="43.47641" lon="6.79407">
        <ele>225.2</ele>
        <time>2012-12-09T09:02:11.000Z</time>
      </trkpt>
      <trkpt lat="43.47643" lon="6.79405">
        <ele>225.9</ele>
        <time>2012-12-09T09:02:12.000Z</time>
      </trkpt>
      <trkpt lat="43.47646" lon="6.79403">
        <ele>226.5</ele>
        <time>2012-12-09T09:02:13.000Z</time>
      </trkpt>
      <trkpt lat="43.47648" lon="6.79401">
        <ele>227.5</ele>
        <time>2012-12-09T09:02:14.000Z</time>
      </trkpt>
      <trkpt lat="43.4765" lon="6.79399">
        <ele>228.2</ele>
        <time>2012-12-09T09:02:15.000Z</time>
      </trkpt>
      <trkpt lat="43.47652" lon="6.79397">
        <ele>227.6</ele>
        <time>2012-12-09T09:02:16.000Z</time>
      </trkpt>
      <trkpt lat="43.47655" lon="6.79395">
        <ele>227.4</ele>
        <time>2012-12-09T09:02:17.000Z</time>
      </trkpt>
      <trkpt lat="43.47657" lon="6.79393">
        <ele>227.1</ele>
        <time>2012-12-09T09:02:18.000Z</time>
      </trkpt>
      <trkpt lat="43.4766" lon="6.79392">
        <ele>227.2</ele>
        <time>2012-12-09T09:02:19.000Z</time>
      </trkpt>
      <trkpt lat="43.47662" lon="6.79391">
        <ele>226.9</ele>
        <time>2012-12-09T09:02:20.000Z</time>
      </trkpt>
      <trkpt lat="43.47665" lon="6.79389">
        <ele>227.4</ele>
        <time>2012-12-09T09:02:21.000Z</time>
      </trkpt>
      <trkpt lat="43.47668" lon="6.79388">
        <ele>227.6</ele>
        <time>2012-12-09T09:02:22.000Z</time>
      </trkpt>
      <trkpt lat="43.47671" lon="6.79387">
        <ele>228</ele>
        <time>2012-12-09T09:02:23.000Z</time>
      </trkpt>
      <trkpt lat="43.47674" lon="6.79386">
        <ele>228.5</ele>
        <time>2012-12-09T09:02:24.000Z</time>
      </trkpt>
      <trkpt lat="43.47676" lon="6.79386">
        <ele>228.8</ele>
        <time>2012-12-09T09:02:25.000Z</time>
      </trkpt>
      <trkpt lat="43.47679" lon="6.79385">
        <ele>228.5</ele>
        <time>2012-12-09T09:02:26.000Z</time>
      </trkpt>
      <trkpt lat="43.47682" lon="6.79385">
        <ele>228.7</ele>
        <time>2012-12-09T09:02:27.000Z</time>
      </trkpt>
      <trkpt lat="43.47685" lon="6.79385">
        <ele>228.8</ele>
        <time>2012-12-09T09:02:28.000Z</time>
      </trkpt>
      <trkpt lat="43.47688" lon="6.79387">
        <ele>229.5</ele>
        <time>2012-12-09T09:02:29.000Z</time>
      </trkpt>
      <trkpt lat="43.47691" lon="6.79389">
        <ele>230</ele>
        <time>2012-12-09T09:02:30.000Z</time>
      </trkpt>
      <trkpt lat="43.47693" lon="6.79391">
        <ele>230.2</ele>
        <time>2012-12-09T09:02:31.000Z</time>
      </trkpt>
      <trkpt lat="43.47696" lon="6.79393">
        <ele>230.2</ele>
        <time>2012-12-09T09:02:32.000Z</time>
      </trkpt>
      <trkpt lat="43.47698" lon="6.79394">
        <ele>230.2</ele>
        <time>2012-12-09T09:02:33.000Z</time>
      </trkpt>
      <trkpt lat="43.477" lon="6.79396">
        <ele>230.7</ele>
        <time>2012-12-09T09:02:34.000Z</time>
      </trkpt>
      <trkpt lat="43.47703" lon="6.79397">
        <ele>230.8</ele>
        <time>2012-12-09T09:02:35.000Z</time>
      </trkpt>
      <trkpt lat="43.47706" lon="6.79398">
        <ele>230.4</ele>
        <time>2012-12-09T09:02:36.000Z</time>
      </trkpt>
      <trkpt lat="43.47708" lon="6.794">
        <ele>229.9</ele>
        <time>2012-12-09T09:02:37.000Z</time>
      </trkpt>
      <trkpt lat="43.47711" lon="6.79402">
        <ele>229.5</ele>
        <time>2012-12-09T09:02:38.000Z</time>
      </trkpt>
      <trkpt lat="43.47713" lon="6.79404">
        <ele>229.4</ele>
        <time>2012-12-09T09:02:39.000Z</time>
      </trkpt>
      <trkpt lat="43.47716" lon="6.79406">
        <ele>229.5</ele>
        <time>2012-12-09T09:02:40.000Z</time>
      </trkpt>
      <trkpt lat="43.47719" lon="6.79407">
        <ele>229.5</ele>
        <time>2012-12-09T09:02:41.000Z</time>
      </trkpt>
      <trkpt lat="43.47722" lon="6.79408">
        <ele>229.3</ele>
        <time>2012-12-09T09:02:42.000Z</time>
      </trkpt>
      <trkpt lat="43.47724" lon="6.79409">
        <ele>229.6</ele>
        <time>2012-12-09T09:02:43.000Z</time>
      </trkpt>
      <trkpt lat="43.47751" lon="6.79393">
        <ele>222.1</ele>
        <time>2012-12-09T09:02:48.000Z</time>
      </trkpt>
      <trkpt lat="43.47752" lon="6.79403">
        <ele>223.6</ele>
        <time>2012-12-09T09:02:50.000Z</time>
      </trkpt>
      <trkpt lat="43.47756" lon="6.79404">
        <ele>243.1</ele>
        <time>2012-12-09T09:02:52.000Z</time>
      </trkpt>
      <trkpt lat="43.47758" lon="6.79406">
        <ele>243.8</ele>
        <time>2012-12-09T09:02:53.000Z</time>
      </trkpt>
      <trkpt lat="43.47762" lon="6.79405">
        <ele>242.9</ele>
        <time>2012-12-09T09:02:55.000Z</time>
      </trkpt>
      <trkpt lat="43.47764" lon="6.79405">
        <ele>243</ele>
        <time>2012-12-09T09:02:56.000Z</time>
      </trkpt>
      <trkpt lat="43.47766" lon="6.79404">
        <ele>242.8</ele>
        <time>2012-12-09T09:02:57.000Z</time>
      </trkpt>
      <trkpt lat="43.47769" lon="6.79403">
        <ele>243</ele>
        <time>2012-12-09T09:02:58.000Z</time>
      </trkpt>
      <trkpt lat="43.47771" lon="6.79403">
        <ele>242.6</ele>
        <time>2012-12-09T09:02:59.000Z</time>
      </trkpt>
      <trkpt lat="43.47774" lon="6.79402">
        <ele>242.3</ele>
        <time>2012-12-09T09:03:00.000Z</time>
      </trkpt>
      <trkpt lat="43.47777" lon="6.79402">
        <ele>241.9</ele>
        <time>2012-12-09T09:03:01.000Z</time>
      </trkpt>
      <trkpt lat="43.4778" lon="6.79402">
        <ele>242.6</ele>
        <time>2012-12-09T09:03:02.000Z</time>
      </trkpt>
      <trkpt lat="43.47783" lon="6.79402">
        <ele>243.1</ele>
        <time>2012-12-09T09:03:03.000Z</time>
      </trkpt>
      <trkpt lat="43.47786" lon="6.79402">
        <ele>242.5</ele>
        <time>2012-12-09T09:03:04.000Z</time>
      </trkpt>
      <trkpt lat="43.47789" lon="6.79401">
        <ele>243.3</ele>
        <time>2012-12-09T09:03:05.000Z</time>
      </trkpt>
      <trkpt lat="43.47792" lon="6.794">
        <ele>243.7</ele>
        <time>2012-12-09T09:03:06.000Z</time>
      </trkpt>
      <trkpt lat="43.47795" lon="6.79399">
        <ele>244.4</ele>
        <time>2012-12-09T09:03:07.000Z</time>
      </trkpt>
      <trkpt lat="43.47798" lon="6.79399">
        <ele>243.5</ele>
        <time>2012-12-09T09:03:08.000Z</time>
      </trkpt>
      <trkpt lat="43.47801" lon="6.79396">
        <ele>243.5</ele>
        <time>2012-12-09T09:03:09.000Z</time>
      </trkpt>
      <trkpt lat="43.47803" lon="6.79394">
        <ele>243.6</ele>
        <time>2012-12-09T09:03:10.000Z</time>
      </trkpt>
      <trkpt lat="43.47806" lon="6.79392">
        <ele>243.8</ele>
        <time>2012-12-09T09:03:11.000Z</time>
      </trkpt>
      <trkpt lat="43.47809" lon="6.7939">
        <ele>244.2</ele>
        <time>2012-12-09T09:03:12.000Z</time>
      </trkpt>
      <trkpt lat="43.47812" lon="6.79388">
        <ele>244.6</ele>
        <time>2012-12-09T09:03:13.000Z</time>
      </trkpt>
      <trkpt lat="43.47815" lon="6.79387">
        <ele>243.7</ele>
        <time>2012-12-09T09:03:14.000Z</time>
      </trkpt>
      <trkpt lat="43.47818" lon="6.79386">
        <ele>243.5</ele>
        <time>2012-12-09T09:03:15.000Z</time>
      </trkpt>
      <trkpt lat="43.47821" lon="6.79384">
        <ele>243.2</ele>
        <time>2012-12-09T09:03:16.000Z</time>
      </trkpt>
      <trkpt lat="43.47825" lon="6.79383">
        <ele>242.8</ele>
        <time>2012-12-09T09:03:17.000Z</time>
      </trkpt>
      <trkpt lat="43.47828" lon="6.79381">
        <ele>242.1</ele>
        <time>2012-12-09T09:03:18.000Z</time>
      </trkpt>
      <trkpt lat="43.4783" lon="6.79379">
        <ele>241.6</ele>
        <time>2012-12-09T09:03:19.000Z</time>
      </trkpt>
      <trkpt lat="43.47833" lon="6.79377">
        <ele>241.6</ele>
        <time>2012-12-09T09:03:20.000Z</time>
      </trkpt>
      <trkpt lat="43.47836" lon="6.79375">
        <ele>241.9</ele>
        <time>2012-12-09T09:03:21.000Z</time>
      </trkpt>
      <trkpt lat="43.47839" lon="6.79373">
        <ele>241.9</ele>
        <time>2012-12-09T09:03:22.000Z</time>
      </trkpt>
      <trkpt lat="43.47842" lon="6.79371">
        <ele>241.7</ele>
        <time>2012-12-09T09:03:23.000Z</time>
      </trkpt>
      <trkpt lat="43.47845" lon="6.7937">
        <ele>241.7</ele>
        <time>2012-12-09T09:03:24.000Z</time>
      </trkpt>
      <trkpt lat="43.47847" lon="6.79368">
        <ele>241.7</ele>
        <time>2012-12-09T09:03:25.000Z</time>
      </trkpt>
      <trkpt lat="43.4785" lon="6.79366">
        <ele>241.6</ele>
        <time>2012-12-09T09:03:26.000Z</time>
      </trkpt>
      <trkpt lat="43.47853" lon="6.79364">
        <ele>241.6</ele>
        <time>2012-12-09T09:03:27.000Z</time>
      </trkpt>
      <trkpt lat="43.47856" lon="6.79363">
        <ele>241.5</ele>
        <time>2012-12-09T09:03:28.000Z</time>
      </trkpt>
      <trkpt lat="43.47859" lon="6.79361">
        <ele>241.6</ele>
        <time>2012-12-09T09:03:29.000Z</time>
      </trkpt>
      <trkpt lat="43.47862" lon="6.79359">
        <ele>241.8</ele>
        <time>2012-12-09T09:03:30.000Z</time>
      </trkpt>
      <trkpt lat="43.47865" lon="6.79357">
        <ele>241.8</ele>
        <time>2012-12-09T09:03:31.000Z</time>
      </trkpt>
      <trkpt lat="43.47868" lon="6.79356">
        <ele>242</ele>
        <time>2012-12-09T09:03:32.000Z</time>
      </trkpt>
      <trkpt lat="43.47871" lon="6.79354">
        <ele>242.1</ele>
        <time>2012-12-09T09:03:33.000Z</time>
      </trkpt>
      <trkpt lat="43.47874" lon="6.79353">
        <ele>242.2</ele>
        <time>2012-12-09T09:03:34.000Z</time>
      </trkpt>
      <trkpt lat="43.47877" lon="6.79352">
        <ele>242.4</ele>
        <time>2012-12-09T09:03:35.000Z</time>
      </trkpt>
      <trkpt lat="43.47881" lon="6.79352">
        <ele>242.5</ele>
        <time>2012-12-09T09:03:36.000Z</time>
      </trkpt>
      <trkpt lat="43.47884" lon="6.79351">
        <ele>242.6</ele>
        <time>2012-12-09T09:03:37.000Z</time>
      </trkpt>
      <trkpt lat="43.47888" lon="6.7935">
        <ele>242.7</ele>
        <time>2012-12-09T09:03:38.000Z</time>
      </trkpt>
      <trkpt lat="43.4789" lon="6.7935">
        <ele>243.2</ele>
        <time>2012-12-09T09:03:39.000Z</time>
      </trkpt>
      <trkpt lat="43.47893" lon="6.79349">
        <ele>243.5</ele>
        <time>2012-12-09T09:03:40.000Z</time>
      </trkpt>
      <trkpt lat="43.47896" lon="6.79349">
        <ele>243.7</ele>
        <time>2012-12-09T09:03:41.000Z</time>
      </trkpt>
      <trkpt lat="43.47899" lon="6.79347">
        <ele>243.8</ele>
        <time>2012-12-09T09:03:42.000Z</time>
      </trkpt>
      <trkpt lat="43.47901" lon="6.79346">
        <ele>243.6</ele>
        <time>2012-12-09T09:03:43.000Z</time>
      </trkpt>
      <trkpt lat="43.47904" lon="6.79345">
        <ele>243.3</ele>
        <time>2012-12-09T09:03:44.000Z</time>
      </trkpt>
      <trkpt lat="43.47906" lon="6.79344">
        <ele>243.2</ele>
        <time>2012-12-09T09:03:45.000Z</time>
      </trkpt>
      <trkpt lat="43.47909" lon="6.79343">
        <ele>243.2</ele>
        <time>2012-12-09T09:03:46.000Z</time>
      </trkpt>
      <trkpt lat="43.47912" lon="6.79342">
        <ele>243.2</ele>
        <time>2012-12-09T09:03:47.000Z</time>
      </trkpt>
      <trkpt lat="43.47914" lon="6.79341">
        <ele>242.8</ele>
        <time>2012-12-09T09:03:48.000Z</time>
      </trkpt>
      <trkpt lat="43.47917" lon="6.7934">
        <ele>242.7</ele>
        <time>2012-12-09T09:03:49.000Z</time>
      </trkpt>
      <trkpt lat="43.4792" lon="6.79338">
        <ele>242.5</ele>
        <time>2012-12-09T09:03:50.000Z</time>
      </trkpt>
      <trkpt lat="43.47922" lon="6.79336">
        <ele>242.4</ele>
        <time>2012-12-09T09:03:51.000Z</time>
      </trkpt>
      <trkpt lat="43.47925" lon="6.79335">
        <ele>242.4</ele>
        <time>2012-12-09T09:03:52.000Z</time>
      </trkpt>
      <trkpt lat="43.47928" lon="6.79333">
        <ele>242.7</ele>
        <time>2012-12-09T09:03:53.000Z</time>
      </trkpt>
      <trkpt lat="43.47931" lon="6.79332">
        <ele>242.5</ele>
        <time>2012-12-09T09:03:54.000Z</time>
      </trkpt>
      <trkpt lat="43.47933" lon="6.79331">
        <ele>242.2</ele>
        <time>2012-12-09T09:03:55.000Z</time>
      </trkpt>
      <trkpt lat="43.47936" lon="6.79331">
        <ele>242.3</ele>
        <time>2012-12-09T09:03:56.000Z</time>
      </trkpt>
      <trkpt lat="43.47939" lon="6.79331">
        <ele>242.2</ele>
        <time>2012-12-09T09:03:57.000Z</time>
      </trkpt>
      <trkpt lat="43.47942" lon="6.7933">
        <ele>242.1</ele>
        <time>2012-12-09T09:03:58.000Z</time>
      </trkpt>
      <trkpt lat="43.47945" lon="6.79329">
        <ele>241.7</ele>
        <time>2012-12-09T09:03:59.000Z</time>
      </trkpt>
      <trkpt lat="43.47948" lon="6.79328">
        <ele>241.6</ele>
        <time>2012-12-09T09:04:00.000Z</time>
      </trkpt>
      <trkpt lat="43.47951" lon="6.79328">
        <ele>241.8</ele>
        <time>2012-12-09T09:04:01.000Z</time>
      </trkpt>
      <trkpt lat="43.47953" lon="6.79327">
        <ele>242.2</ele>
        <time>2012-12-09T09:04:02.000Z</time>
      </trkpt>
      <trkpt lat="43.47956" lon="6.79326">
        <ele>242.3</ele>
        <time>2012-12-09T09:04:03.000Z</time>
      </trkpt>
      <trkpt lat="43.47959" lon="6.79325">
        <ele>242.5</ele>
        <time>2012-12-09T09:04:04.000Z</time>
      </trkpt>
      <trkpt lat="43.47961" lon="6.79325">
        <ele>242.5</ele>
        <time>2012-12-09T09:04:05.000Z</time>
      </trkpt>
      <trkpt lat="43.47964" lon="6.79323">
        <ele>242.6</ele>
        <time>2012-12-09T09:04:06.000Z</time>
      </trkpt>
      <trkpt lat="43.47967" lon="6.79323">
        <ele>242.4</ele>
        <time>2012-12-09T09:04:07.000Z</time>
      </trkpt>
      <trkpt lat="43.47969" lon="6.79322">
        <ele>242.1</ele>
        <time>2012-12-09T09:04:08.000Z</time>
      </trkpt>
      <trkpt lat="43.47972" lon="6.79321">
        <ele>242</ele>
        <time>2012-12-09T09:04:09.000Z</time>
      </trkpt>
      <trkpt lat="43.47974" lon="6.7932">
        <ele>242.2</ele>
        <time>2012-12-09T09:04:10.000Z</time>
      </trkpt>
      <trkpt lat="43.47978" lon="6.79318">
        <ele>242.8</ele>
        <time>2012-12-09T09:04:12.000Z</time>
      </trkpt>
      <trkpt lat="43.4798" lon="6.79317">
        <ele>242.9</ele>
        <time>2012-12-09T09:04:13.000Z</time>
      </trkpt>
      <trkpt lat="43.47982" lon="6.79316">
        <ele>243.2</ele>
        <time>2012-12-09T09:04:14.000Z</time>
      </trkpt>
      <trkpt lat="43.47985" lon="6.79316">
        <ele>243.4</ele>
        <time>2012-12-09T09:04:15.000Z</time>
      </trkpt>
      <trkpt lat="43.47988" lon="6.79315">
        <ele>243.7</ele>
        <time>2012-12-09T09:04:16.000Z</time>
      </trkpt>
      <trkpt lat="43.47991" lon="6.79315">
        <ele>243.6</ele>
        <time>2012-12-09T09:04:17.000Z</time>
      </trkpt>
      <trkpt lat="43.47995" lon="6.79315">
        <ele>243.8</ele>
        <time>2012-12-09T09:04:18.000Z</time>
      </trkpt>
      <trkpt lat="43.47997" lon="6.79315">
        <ele>243.9</ele>
        <time>2012-12-09T09:04:19.000Z</time>
      </trkpt>
      <trkpt lat="43.48" lon="6.79315">
        <ele>243.8</ele>
        <time>2012-12-09T09:04:20.000Z</time>
      </trkpt>
      <trkpt lat="43.48003" lon="6.79315">
        <ele>243.9</ele>
        <time>2012-12-09T09:04:21.000Z</time>
      </trkpt>
      <trkpt lat="43.48006" lon="6.79315">
        <ele>243.9</ele>
        <time>2012-12-09T09:04:22.000Z</time>
      </trkpt>
      <trkpt lat="43.48009" lon="6.79315">
        <ele>243.6</ele>
        <time>2012-12-09T09:04:23.000Z</time>
      </trkpt>
      <trkpt lat="43.48011" lon="6.79315">
        <ele>243.6</ele>
        <time>2012-12-09T09:04:24.000Z</time>
      </trkpt>
      <trkpt lat="43.48014" lon="6.79315">
        <ele>243.5</ele>
        <time>2012-12-09T09:04:25.000Z</time>
      </trkpt>
      <trkpt lat="43.48017" lon="6.79315">
        <ele>243.4</ele>
        <time>2012-12-09T09:04:26.000Z</time>
      </trkpt>
      <trkpt lat="43.4802" lon="6.79315">
        <ele>243.5</ele>
        <time>2012-12-09T09:04:27.000Z</time>
      </trkpt>
      <trkpt lat="43.48022" lon="6.79315">
        <ele>243.6</ele>
        <time>2012-12-09T09:04:28.000Z</time>
      </trkpt>
      <trkpt lat="43.48025" lon="6.79315">
        <ele>244.1</ele>
        <time>2012-12-09T09:04:29.000Z</time>
      </trkpt>
      <trkpt lat="43.48027" lon="6.79315">
        <ele>244.4</ele>
        <time>2012-12-09T09:04:30.000Z</time>
      </trkpt>
      <trkpt lat="43.4803" lon="6.79315">
        <ele>244.3</ele>
        <time>2012-12-09T09:04:31.000Z</time>
      </trkpt>
      <trkpt lat="43.48032" lon="6.79314">
        <ele>244.4</ele>
        <time>2012-12-09T09:04:32.000Z</time>
      </trkpt>
      <trkpt lat="43.48034" lon="6.79313">
        <ele>244.7</ele>
        <time>2012-12-09T09:04:33.000Z</time>
      </trkpt>
      <trkpt lat="43.48037" lon="6.79313">
        <ele>244.9</ele>
        <time>2012-12-09T09:04:34.000Z</time>
      </trkpt>
      <trkpt lat="43.48039" lon="6.79313">
        <ele>245</ele>
        <time>2012-12-09T09:04:35.000Z</time>
      </trkpt>
      <trkpt lat="43.48042" lon="6.79312">
        <ele>244.9</ele>
        <time>2012-12-09T09:04:36.000Z</time>
      </trkpt>
      <trkpt lat="43.48044" lon="6.79312">
        <ele>244.8</ele>
        <time>2012-12-09T09:04:37.000Z</time>
      </trkpt>
      <trkpt lat="43.48047" lon="6.79311">
        <ele>244.5</ele>
        <time>2012-12-09T09:04:38.000Z</time>
      </trkpt>
      <trkpt lat="43.48049" lon="6.7931">
        <ele>244.4</ele>
        <time>2012-12-09T09:04:39.000Z</time>
      </trkpt>
      <trkpt lat="43.48053" lon="6.79308">
        <ele>244.8</ele>
        <time>2012-12-09T09:04:41.000Z</time>
      </trkpt>
      <trkpt lat="43.48055" lon="6.79306">
        <ele>245.1</ele>
        <time>2012-12-09T09:04:42.000Z</time>
      </trkpt>
      <trkpt lat="43.48059" lon="6.79303">
        <ele>244.7</ele>
        <time>2012-12-09T09:04:44.000Z</time>
      </trkpt>
      <trkpt lat="43.4806" lon="6.79301">
        <ele>244.6</ele>
        <time>2012-12-09T09:04:45.000Z</time>
      </trkpt>
      <trkpt lat="43.48062" lon="6.79298">
        <ele>244.7</ele>
        <time>2012-12-09T09:04:46.000Z</time>
      </trkpt>
      <trkpt lat="43.48064" lon="6.79296">
        <ele>244.9</ele>
        <time>2012-12-09T09:04:47.000Z</time>
      </trkpt>
      <trkpt lat="43.48066" lon="6.79295">
        <ele>244.9</ele>
        <time>2012-12-09T09:04:48.000Z</time>
      </trkpt>
      <trkpt lat="43.48068" lon="6.79293">
        <ele>245</ele>
        <time>2012-12-09T09:04:49.000Z</time>
      </trkpt>
      <trkpt lat="43.48072" lon="6.79292">
        <ele>245.1</ele>
        <time>2012-12-09T09:04:51.000Z</time>
      </trkpt>
      <trkpt lat="43.48074" lon="6.79293">
        <ele>245.1</ele>
        <time>2012-12-09T09:04:52.000Z</time>
      </trkpt>
      <trkpt lat="43.48078" lon="6.79294">
        <ele>245.2</ele>
        <time>2012-12-09T09:04:54.000Z</time>
      </trkpt>
      <trkpt lat="43.4808" lon="6.79296">
        <ele>245.5</ele>
        <time>2012-12-09T09:04:55.000Z</time>
      </trkpt>
      <trkpt lat="43.48083" lon="6.79299">
        <ele>245.5</ele>
        <time>2012-12-09T09:04:57.000Z</time>
      </trkpt>
      <trkpt lat="43.48086" lon="6.793">
        <ele>245.6</ele>
        <time>2012-12-09T09:04:58.000Z</time>
      </trkpt>
      <trkpt lat="43.48088" lon="6.79302">
        <ele>245.8</ele>
        <time>2012-12-09T09:04:59.000Z</time>
      </trkpt>
      <trkpt lat="43.4809" lon="6.79303">
        <ele>245.8</ele>
        <time>2012-12-09T09:05:00.000Z</time>
      </trkpt>
      <trkpt lat="43.48091" lon="6.79305">
        <ele>245.9</ele>
        <time>2012-12-09T09:05:01.000Z</time>
      </trkpt>
      <trkpt lat="43.48094" lon="6.79307">
        <ele>245.9</ele>
        <time>2012-12-09T09:05:02.000Z</time>
      </trkpt>
      <trkpt lat="43.48096" lon="6.79309">
        <ele>246</ele>
        <time>2012-12-09T09:05:03.000Z</time>
      </trkpt>
      <trkpt lat="43.48098" lon="6.7931">
        <ele>246.2</ele>
        <time>2012-12-09T09:05:04.000Z</time>
      </trkpt>
      <trkpt lat="43.481" lon="6.79311">
        <ele>246.3</ele>
        <time>2012-12-09T09:05:05.000Z</time>
      </trkpt>
      <trkpt lat="43.48102" lon="6.79312">
        <ele>246.4</ele>
        <time>2012-12-09T09:05:06.000Z</time>
      </trkpt>
      <trkpt lat="43.48107" lon="6.79314">
        <ele>246</ele>
        <time>2012-12-09T09:05:08.000Z</time>
      </trkpt>
      <trkpt lat="43.48108" lon="6.79314">
        <ele>245.9</ele>
        <time>2012-12-09T09:05:09.000Z</time>
      </trkpt>
      <trkpt lat="43.48112" lon="6.79313">
        <ele>246.3</ele>
        <time>2012-12-09T09:05:11.000Z</time>
      </trkpt>
      <trkpt lat="43.48114" lon="6.79312">
        <ele>246.4</ele>
        <time>2012-12-09T09:05:12.000Z</time>
      </trkpt>
      <trkpt lat="43.48118" lon="6.7931">
        <ele>246.5</ele>
        <time>2012-12-09T09:05:14.000Z</time>
      </trkpt>
      <trkpt lat="43.48119" lon="6.79308">
        <ele>246.3</ele>
        <time>2012-12-09T09:05:15.000Z</time>
      </trkpt>
      <trkpt lat="43.48122" lon="6.79305">
        <ele>246.3</ele>
        <time>2012-12-09T09:05:17.000Z</time>
      </trkpt>
      <trkpt lat="43.48124" lon="6.79303">
        <ele>246.4</ele>
        <time>2012-12-09T09:05:18.000Z</time>
      </trkpt>
      <trkpt lat="43.48128" lon="6.79302">
        <ele>246.7</ele>
        <time>2012-12-09T09:05:20.000Z</time>
      </trkpt>
      <trkpt lat="43.4813" lon="6.79302">
        <ele>246.7</ele>
        <time>2012-12-09T09:05:21.000Z</time>
      </trkpt>
      <trkpt lat="43.48134" lon="6.79303">
        <ele>246.9</ele>
        <time>2012-12-09T09:05:23.000Z</time>
      </trkpt>
      <trkpt lat="43.48136" lon="6.79303">
        <ele>246.9</ele>
        <time>2012-12-09T09:05:24.000Z</time>
      </trkpt>
      <trkpt lat="43.4814" lon="6.79305">
        <ele>247</ele>
        <time>2012-12-09T09:05:26.000Z</time>
      </trkpt>
      <trkpt lat="43.48142" lon="6.79306">
        <ele>247</ele>
        <time>2012-12-09T09:05:27.000Z</time>
      </trkpt>
      <trkpt lat="43.48146" lon="6.79308">
        <ele>246.9</ele>
        <time>2012-12-09T09:05:29.000Z</time>
      </trkpt>
      <trkpt lat="43.48148" lon="6.79309">
        <ele>246.9</ele>
        <time>2012-12-09T09:05:30.000Z</time>
      </trkpt>
      <trkpt lat="43.4815" lon="6.79311">
        <ele>246.9</ele>
        <time>2012-12-09T09:05:31.000Z</time>
      </trkpt>
      <trkpt lat="43.48153" lon="6.79312">
        <ele>246.8</ele>
        <time>2012-12-09T09:05:32.000Z</time>
      </trkpt>
      <trkpt lat="43.48157" lon="6.79313">
        <ele>246.7</ele>
        <time>2012-12-09T09:05:34.000Z</time>
      </trkpt>
      <trkpt lat="43.48159" lon="6.79314">
        <ele>246.6</ele>
        <time>2012-12-09T09:05:35.000Z</time>
      </trkpt>
      <trkpt lat="43.48162" lon="6.79316">
        <ele>246.3</ele>
        <time>2012-12-09T09:05:37.000Z</time>
      </trkpt>
      <trkpt lat="43.48164" lon="6.79317">
        <ele>246.3</ele>
        <time>2012-12-09T09:05:38.000Z</time>
      </trkpt>
      <trkpt lat="43.48169" lon="6.79318">
        <ele>246.6</ele>
        <time>2012-12-09T09:05:40.000Z</time>
      </trkpt>
      <trkpt lat="43.48171" lon="6.79318">
        <ele>246.7</ele>
        <time>2012-12-09T09:05:41.000Z</time>
      </trkpt>
      <trkpt lat="43.48175" lon="6.79319">
        <ele>246.9</ele>
        <time>2012-12-09T09:05:43.000Z</time>
      </trkpt>
      <trkpt lat="43.48177" lon="6.79319">
        <ele>247.1</ele>
        <time>2012-12-09T09:05:44.000Z</time>
      </trkpt>
      <trkpt lat="43.48179" lon="6.79319">
        <ele>247.1</ele>
        <time>2012-12-09T09:05:45.000Z</time>
      </trkpt>
      <trkpt lat="43.48192" lon="6.79322">
        <ele>245.2</ele>
        <time>2012-12-09T09:05:52.000Z</time>
      </trkpt>
      <trkpt lat="43.48198" lon="6.79329">
        <ele>241.2</ele>
        <time>2012-12-09T09:05:53.000Z</time>
      </trkpt>
      <trkpt lat="43.48201" lon="6.79334">
        <ele>252.3</ele>
        <time>2012-12-09T09:05:54.000Z</time>
      </trkpt>
      <trkpt lat="43.48202" lon="6.79335">
        <ele>256.1</ele>
        <time>2012-12-09T09:05:55.000Z</time>
      </trkpt>
      <trkpt lat="43.48207" lon="6.79337">
        <ele>256.9</ele>
        <time>2012-12-09T09:05:57.000Z</time>
      </trkpt>
      <trkpt lat="43.48208" lon="6.79339">
        <ele>257.3</ele>
        <time>2012-12-09T09:05:58.000Z</time>
      </trkpt>
      <trkpt lat="43.48211" lon="6.79342">
        <ele>257.7</ele>
        <time>2012-12-09T09:06:00.000Z</time>
      </trkpt>
      <trkpt lat="43.48213" lon="6.79343">
        <ele>257</ele>
        <time>2012-12-09T09:06:01.000Z</time>
      </trkpt>
      <trkpt lat="43.48216" lon="6.79345">
        <ele>258.2</ele>
        <time>2012-12-09T09:06:03.000Z</time>
      </trkpt>
      <trkpt lat="43.48217" lon="6.79345">
        <ele>259.1</ele>
        <time>2012-12-09T09:06:04.000Z</time>
      </trkpt>
      <trkpt lat="43.48221" lon="6.79344">
        <ele>261.5</ele>
        <time>2012-12-09T09:06:06.000Z</time>
      </trkpt>
      <trkpt lat="43.48223" lon="6.79344">
        <ele>261.9</ele>
        <time>2012-12-09T09:06:07.000Z</time>
      </trkpt>
      <trkpt lat="43.48227" lon="6.79343">
        <ele>263.4</ele>
        <time>2012-12-09T09:06:09.000Z</time>
      </trkpt>
      <trkpt lat="43.48229" lon="6.79342">
        <ele>263.9</ele>
        <time>2012-12-09T09:06:10.000Z</time>
      </trkpt>
      <trkpt lat="43.48233" lon="6.7934">
        <ele>263</ele>
        <time>2012-12-09T09:06:12.000Z</time>
      </trkpt>
      <trkpt lat="43.48235" lon="6.7934">
        <ele>262.4</ele>
        <time>2012-12-09T09:06:13.000Z</time>
      </trkpt>
      <trkpt lat="43.48238" lon="6.79338">
        <ele>262.3</ele>
        <time>2012-12-09T09:06:15.000Z</time>
      </trkpt>
      <trkpt lat="43.48241" lon="6.79338">
        <ele>262.2</ele>
        <time>2012-12-09T09:06:16.000Z</time>
      </trkpt>
      <trkpt lat="43.48243" lon="6.79337">
        <ele>261.4</ele>
        <time>2012-12-09T09:06:17.000Z</time>
      </trkpt>
      <trkpt lat="43.48245" lon="6.79337">
        <ele>260.1</ele>
        <time>2012-12-09T09:06:18.000Z</time>
      </trkpt>
      <trkpt lat="43.48247" lon="6.79335">
        <ele>260</ele>
        <time>2012-12-09T09:06:19.000Z</time>
      </trkpt>
      <trkpt lat="43.48249" lon="6.79334">
        <ele>259.7</ele>
        <time>2012-12-09T09:06:20.000Z</time>
      </trkpt>
      <trkpt lat="43.48252" lon="6.79333">
        <ele>259.4</ele>
        <time>2012-12-09T09:06:21.000Z</time>
      </trkpt>
      <trkpt lat="43.48254" lon="6.79332">
        <ele>259.1</ele>
        <time>2012-12-09T09:06:22.000Z</time>
      </trkpt>
      <trkpt lat="43.48256" lon="6.79331">
        <ele>258.8</ele>
        <time>2012-12-09T09:06:23.000Z</time>
      </trkpt>
      <trkpt lat="43.48258" lon="6.79331">
        <ele>258.6</ele>
        <time>2012-12-09T09:06:24.000Z</time>
      </trkpt>
      <trkpt lat="43.4826" lon="6.7933">
        <ele>258.7</ele>
        <time>2012-12-09T09:06:25.000Z</time>
      </trkpt>
      <trkpt lat="43.48262" lon="6.79328">
        <ele>258.5</ele>
        <time>2012-12-09T09:06:26.000Z</time>
      </trkpt>
      <trkpt lat="43.48265" lon="6.79326">
        <ele>257.5</ele>
        <time>2012-12-09T09:06:27.000Z</time>
      </trkpt>
      <trkpt lat="43.48267" lon="6.79326">
        <ele>257.4</ele>
        <time>2012-12-09T09:06:28.000Z</time>
      </trkpt>
      <trkpt lat="43.48269" lon="6.79324">
        <ele>257.5</ele>
        <time>2012-12-09T09:06:29.000Z</time>
      </trkpt>
      <trkpt lat="43.48272" lon="6.79323">
        <ele>257.4</ele>
        <time>2012-12-09T09:06:30.000Z</time>
      </trkpt>
      <trkpt lat="43.48275" lon="6.7932">
        <ele>257.3</ele>
        <time>2012-12-09T09:06:31.000Z</time>
      </trkpt>
      <trkpt lat="43.48277" lon="6.79318">
        <ele>257.1</ele>
        <time>2012-12-09T09:06:32.000Z</time>
      </trkpt>
      <trkpt lat="43.48279" lon="6.79316">
        <ele>257</ele>
        <time>2012-12-09T09:06:33.000Z</time>
      </trkpt>
      <trkpt lat="43.4828" lon="6.79314">
        <ele>257</ele>
        <time>2012-12-09T09:06:34.000Z</time>
      </trkpt>
      <trkpt lat="43.48282" lon="6.79312">
        <ele>256.9</ele>
        <time>2012-12-09T09:06:35.000Z</time>
      </trkpt>
      <trkpt lat="43.48284" lon="6.79309">
        <ele>257.2</ele>
        <time>2012-12-09T09:06:36.000Z</time>
      </trkpt>
      <trkpt lat="43.48287" lon="6.79305">
        <ele>257.1</ele>
        <time>2012-12-09T09:06:38.000Z</time>
      </trkpt>
      <trkpt lat="43.48289" lon="6.79305">
        <ele>256.8</ele>
        <time>2012-12-09T09:06:39.000Z</time>
      </trkpt>
      <trkpt lat="43.48293" lon="6.79304">
        <ele>256</ele>
        <time>2012-12-09T09:06:41.000Z</time>
      </trkpt>
      <trkpt lat="43.48294" lon="6.79304">
        <ele>255.8</ele>
        <time>2012-12-09T09:06:42.000Z</time>
      </trkpt>
      <trkpt lat="43.48298" lon="6.79308">
        <ele>257</ele>
        <time>2012-12-09T09:06:45.000Z</time>
      </trkpt>
      <trkpt lat="43.48297" lon="6.79331">
        <ele>265</ele>
        <time>2012-12-09T09:06:51.000Z</time>
      </trkpt>
      <trkpt lat="43.48296" lon="6.79335">
        <ele>266.3</ele>
        <time>2012-12-09T09:06:52.000Z</time>
      </trkpt>
      <trkpt lat="43.48295" lon="6.79338">
        <ele>266.6</ele>
        <time>2012-12-09T09:06:53.000Z</time>
      </trkpt>
      <trkpt lat="43.48295" lon="6.79341">
        <ele>266.5</ele>
        <time>2012-12-09T09:06:54.000Z</time>
      </trkpt>
      <trkpt lat="43.48296" lon="6.79344">
        <ele>267</ele>
        <time>2012-12-09T09:06:55.000Z</time>
      </trkpt>
      <trkpt lat="43.48297" lon="6.79348">
        <ele>267.2</ele>
        <time>2012-12-09T09:06:56.000Z</time>
      </trkpt>
      <trkpt lat="43.48297" lon="6.7935">
        <ele>267.5</ele>
        <time>2012-12-09T09:06:57.000Z</time>
      </trkpt>
      <trkpt lat="43.48298" lon="6.79353">
        <ele>268.5</ele>
        <time>2012-12-09T09:06:58.000Z</time>
      </trkpt>
      <trkpt lat="43.48299" lon="6.79356">
        <ele>269.4</ele>
        <time>2012-12-09T09:06:59.000Z</time>
      </trkpt>
      <trkpt lat="43.48301" lon="6.79359">
        <ele>269.6</ele>
        <time>2012-12-09T09:07:00.000Z</time>
      </trkpt>
      <trkpt lat="43.48303" lon="6.79361">
        <ele>271</ele>
        <time>2012-12-09T09:07:01.000Z</time>
      </trkpt>
      <trkpt lat="43.48304" lon="6.79363">
        <ele>273.4</ele>
        <time>2012-12-09T09:07:02.000Z</time>
      </trkpt>
      <trkpt lat="43.48306" lon="6.79365">
        <ele>275.2</ele>
        <time>2012-12-09T09:07:03.000Z</time>
      </trkpt>
      <trkpt lat="43.48308" lon="6.79368">
        <ele>276.3</ele>
        <time>2012-12-09T09:07:04.000Z</time>
      </trkpt>
      <trkpt lat="43.48309" lon="6.79371">
        <ele>278.4</ele>
        <time>2012-12-09T09:07:05.000Z</time>
      </trkpt>
      <trkpt lat="43.48312" lon="6.79374">
        <ele>279.4</ele>
        <time>2012-12-09T09:07:07.000Z</time>
      </trkpt>
      <trkpt lat="43.48314" lon="6.79376">
        <ele>280</ele>
        <time>2012-12-09T09:07:08.000Z</time>
      </trkpt>
      <trkpt lat="43.48317" lon="6.7938">
        <ele>279.4</ele>
        <time>2012-12-09T09:07:10.000Z</time>
      </trkpt>
      <trkpt lat="43.48318" lon="6.79381">
        <ele>279.5</ele>
        <time>2012-12-09T09:07:11.000Z</time>
      </trkpt>
      <trkpt lat="43.48321" lon="6.79384">
        <ele>279.8</ele>
        <time>2012-12-09T09:07:13.000Z</time>
      </trkpt>
      <trkpt lat="43.48322" lon="6.79387">
        <ele>280.4</ele>
        <time>2012-12-09T09:07:14.000Z</time>
      </trkpt>
      <trkpt lat="43.48323" lon="6.79389">
        <ele>281.6</ele>
        <time>2012-12-09T09:07:15.000Z</time>
      </trkpt>
      <trkpt lat="43.48325" lon="6.79392">
        <ele>279.9</ele>
        <time>2012-12-09T09:07:16.000Z</time>
      </trkpt>
      <trkpt lat="43.48327" lon="6.79395">
        <ele>278.4</ele>
        <time>2012-12-09T09:07:17.000Z</time>
      </trkpt>
      <trkpt lat="43.48328" lon="6.79397">
        <ele>277.3</ele>
        <time>2012-12-09T09:07:18.000Z</time>
      </trkpt>
      <trkpt lat="43.4833" lon="6.79401">
        <ele>276.2</ele>
        <time>2012-12-09T09:07:20.000Z</time>
      </trkpt>
      <trkpt lat="43.48331" lon="6.79404">
        <ele>276.2</ele>
        <time>2012-12-09T09:07:21.000Z</time>
      </trkpt>
      <trkpt lat="43.48332" lon="6.79407">
        <ele>276.5</ele>
        <time>2012-12-09T09:07:22.000Z</time>
      </trkpt>
      <trkpt lat="43.48332" lon="6.7941">
        <ele>276.7</ele>
        <time>2012-12-09T09:07:23.000Z</time>
      </trkpt>
      <trkpt lat="43.48334" lon="6.79415">
        <ele>276.6</ele>
        <time>2012-12-09T09:07:25.000Z</time>
      </trkpt>
      <trkpt lat="43.48334" lon="6.79418">
        <ele>276.1</ele>
        <time>2012-12-09T09:07:26.000Z</time>
      </trkpt>
      <trkpt lat="43.48336" lon="6.79423">
        <ele>275.9</ele>
        <time>2012-12-09T09:07:28.000Z</time>
      </trkpt>
      <trkpt lat="43.48337" lon="6.79425">
        <ele>275.7</ele>
        <time>2012-12-09T09:07:29.000Z</time>
      </trkpt>
      <trkpt lat="43.48339" lon="6.79429">
        <ele>275.1</ele>
        <time>2012-12-09T09:07:31.000Z</time>
      </trkpt>
      <trkpt lat="43.4834" lon="6.79431">
        <ele>275.2</ele>
        <time>2012-12-09T09:07:32.000Z</time>
      </trkpt>
      <trkpt lat="43.48342" lon="6.79435">
        <ele>275.1</ele>
        <time>2012-12-09T09:07:34.000Z</time>
      </trkpt>
      <trkpt lat="43.48342" lon="6.79438">
        <ele>275.1</ele>
        <time>2012-12-09T09:07:35.000Z</time>
      </trkpt>
      <trkpt lat="43.48343" lon="6.79442">
        <ele>274.8</ele>
        <time>2012-12-09T09:07:37.000Z</time>
      </trkpt>
      <trkpt lat="43.48343" lon="6.79445">
        <ele>274.5</ele>
        <time>2012-12-09T09:07:38.000Z</time>
      </trkpt>
      <trkpt lat="43.48342" lon="6.79449">
        <ele>274.5</ele>
        <time>2012-12-09T09:07:40.000Z</time>
      </trkpt>
      <trkpt lat="43.48341" lon="6.79451">
        <ele>274.2</ele>
        <time>2012-12-09T09:07:41.000Z</time>
      </trkpt>
      <trkpt lat="43.48338" lon="6.79454">
        <ele>274.2</ele>
        <time>2012-12-09T09:07:43.000Z</time>
      </trkpt>
      <trkpt lat="43.48336" lon="6.79455">
        <ele>274.5</ele>
        <time>2012-12-09T09:07:44.000Z</time>
      </trkpt>
      <trkpt lat="43.48335" lon="6.79456">
        <ele>274.2</ele>
        <time>2012-12-09T09:07:45.000Z</time>
      </trkpt>
      <trkpt lat="43.48327" lon="6.79451">
        <ele>263.5</ele>
        <time>2012-12-09T09:07:52.000Z</time>
      </trkpt>
      <trkpt lat="43.48324" lon="6.7945">
        <ele>262.5</ele>
        <time>2012-12-09T09:07:53.000Z</time>
      </trkpt>
      <trkpt lat="43.48322" lon="6.7945">
        <ele>261.9</ele>
        <time>2012-12-09T09:07:54.000Z</time>
      </trkpt>
      <trkpt lat="43.48319" lon="6.7945">
        <ele>262.6</ele>
        <time>2012-12-09T09:07:55.000Z</time>
      </trkpt>
      <trkpt lat="43.48316" lon="6.7945">
        <ele>263.6</ele>
        <time>2012-12-09T09:07:56.000Z</time>
      </trkpt>
      <trkpt lat="43.48314" lon="6.79449">
        <ele>264.4</ele>
        <time>2012-12-09T09:07:57.000Z</time>
      </trkpt>
      <trkpt lat="43.48311" lon="6.79449">
        <ele>266.8</ele>
        <time>2012-12-09T09:07:58.000Z</time>
      </trkpt>
      <trkpt lat="43.48309" lon="6.79448">
        <ele>267.2</ele>
        <time>2012-12-09T09:07:59.000Z</time>
      </trkpt>
      <trkpt lat="43.48307" lon="6.79447">
        <ele>267.1</ele>
        <time>2012-12-09T09:08:00.000Z</time>
      </trkpt>
      <trkpt lat="43.48303" lon="6.79445">
        <ele>266.6</ele>
        <time>2012-12-09T09:08:02.000Z</time>
      </trkpt>
      <trkpt lat="43.48301" lon="6.79444">
        <ele>267.2</ele>
        <time>2012-12-09T09:08:03.000Z</time>
      </trkpt>
      <trkpt lat="43.48297" lon="6.79442">
        <ele>269.1</ele>
        <time>2012-12-09T09:08:05.000Z</time>
      </trkpt>
      <trkpt lat="43.48296" lon="6.79441">
        <ele>270.3</ele>
        <time>2012-12-09T09:08:06.000Z</time>
      </trkpt>
      <trkpt lat="43.48293" lon="6.7944">
        <ele>270.8</ele>
        <time>2012-12-09T09:08:07.000Z</time>
      </trkpt>
      <trkpt lat="43.4829" lon="6.7944">
        <ele>271.7</ele>
        <time>2012-12-09T09:08:08.000Z</time>
      </trkpt>
      <trkpt lat="43.48288" lon="6.79439">
        <ele>272.8</ele>
        <time>2012-12-09T09:08:09.000Z</time>
      </trkpt>
      <trkpt lat="43.48285" lon="6.79438">
        <ele>273.4</ele>
        <time>2012-12-09T09:08:10.000Z</time>
      </trkpt>
      <trkpt lat="43.48282" lon="6.79438">
        <ele>273.8</ele>
        <time>2012-12-09T09:08:11.000Z</time>
      </trkpt>
      <trkpt lat="43.48279" lon="6.79438">
        <ele>273.8</ele>
        <time>2012-12-09T09:08:12.000Z</time>
      </trkpt>
      <trkpt lat="43.48277" lon="6.79439">
        <ele>274.4</ele>
        <time>2012-12-09T09:08:13.000Z</time>
      </trkpt>
      <trkpt lat="43.48275" lon="6.79439">
        <ele>274.4</ele>
        <time>2012-12-09T09:08:14.000Z</time>
      </trkpt>
      <trkpt lat="43.4827" lon="6.79439">
        <ele>275.2</ele>
        <time>2012-12-09T09:08:16.000Z</time>
      </trkpt>
      <trkpt lat="43.48268" lon="6.79439">
        <ele>276.4</ele>
        <time>2012-12-09T09:08:17.000Z</time>
      </trkpt>
      <trkpt lat="43.48264" lon="6.7944">
        <ele>276.8</ele>
        <time>2012-12-09T09:08:19.000Z</time>
      </trkpt>
      <trkpt lat="43.48262" lon="6.79441">
        <ele>277.1</ele>
        <time>2012-12-09T09:08:20.000Z</time>
      </trkpt>
      <trkpt lat="43.48259" lon="6.79443">
        <ele>276.9</ele>
        <time>2012-12-09T09:08:22.000Z</time>
      </trkpt>
      <trkpt lat="43.48257" lon="6.79444">
        <ele>276.7</ele>
        <time>2012-12-09T09:08:23.000Z</time>
      </trkpt>
      <trkpt lat="43.48253" lon="6.79445">
        <ele>276.2</ele>
        <time>2012-12-09T09:08:25.000Z</time>
      </trkpt>
      <trkpt lat="43.48252" lon="6.79446">
        <ele>275.8</ele>
        <time>2012-12-09T09:08:26.000Z</time>
      </trkpt>
      <trkpt lat="43.48248" lon="6.79448">
        <ele>276</ele>
        <time>2012-12-09T09:08:28.000Z</time>
      </trkpt>
      <trkpt lat="43.48245" lon="6.79449">
        <ele>276.4</ele>
        <time>2012-12-09T09:08:29.000Z</time>
      </trkpt>
      <trkpt lat="43.48241" lon="6.79451">
        <ele>277.2</ele>
        <time>2012-12-09T09:08:31.000Z</time>
      </trkpt>
      <trkpt lat="43.48239" lon="6.79452">
        <ele>277.2</ele>
        <time>2012-12-09T09:08:32.000Z</time>
      </trkpt>
      <trkpt lat="43.48234" lon="6.79453">
        <ele>277.3</ele>
        <time>2012-12-09T09:08:34.000Z</time>
      </trkpt>
      <trkpt lat="43.48232" lon="6.79454">
        <ele>277.5</ele>
        <time>2012-12-09T09:08:35.000Z</time>
      </trkpt>
      <trkpt lat="43.48228" lon="6.79454">
        <ele>277.8</ele>
        <time>2012-12-09T09:08:37.000Z</time>
      </trkpt>
      <trkpt lat="43.48226" lon="6.79454">
        <ele>278</ele>
        <time>2012-12-09T09:08:38.000Z</time>
      </trkpt>
      <trkpt lat="43.48224" lon="6.79455">
        <ele>278</ele>
        <time>2012-12-09T09:08:39.000Z</time>
      </trkpt>
      <trkpt lat="43.48222" lon="6.79456">
        <ele>278</ele>
        <time>2012-12-09T09:08:40.000Z</time>
      </trkpt>
      <trkpt lat="43.48218" lon="6.79458">
        <ele>278</ele>
        <time>2012-12-09T09:08:42.000Z</time>
      </trkpt>
      <trkpt lat="43.48216" lon="6.79459">
        <ele>278.2</ele>
        <time>2012-12-09T09:08:43.000Z</time>
      </trkpt>
      <trkpt lat="43.48212" lon="6.7946">
        <ele>278.1</ele>
        <time>2012-12-09T09:08:45.000Z</time>
      </trkpt>
      <trkpt lat="43.4821" lon="6.79479">
        <ele>273.2</ele>
        <time>2012-12-09T09:08:51.000Z</time>
      </trkpt>
      <trkpt lat="43.48205" lon="6.7948">
        <ele>277.4</ele>
        <time>2012-12-09T09:08:52.000Z</time>
      </trkpt>
      <trkpt lat="43.48198" lon="6.79479">
        <ele>288</ele>
        <time>2012-12-09T09:08:53.000Z</time>
      </trkpt>
      <trkpt lat="43.48194" lon="6.7948">
        <ele>282.2</ele>
        <time>2012-12-09T09:08:55.000Z</time>
      </trkpt>
      <trkpt lat="43.48192" lon="6.7948">
        <ele>283.4</ele>
        <time>2012-12-09T09:08:56.000Z</time>
      </trkpt>
      <trkpt lat="43.48189" lon="6.79481">
        <ele>285.5</ele>
        <time>2012-12-09T09:08:58.000Z</time>
      </trkpt>
      <trkpt lat="43.48187" lon="6.79482">
        <ele>286.3</ele>
        <time>2012-12-09T09:08:59.000Z</time>
      </trkpt>
      <trkpt lat="43.48183" lon="6.79484">
        <ele>290.2</ele>
        <time>2012-12-09T09:09:01.000Z</time>
      </trkpt>
      <trkpt lat="43.48181" lon="6.79485">
        <ele>290.6</ele>
        <time>2012-12-09T09:09:02.000Z</time>
      </trkpt>
      <trkpt lat="43.48177" lon="6.79487">
        <ele>291.2</ele>
        <time>2012-12-09T09:09:04.000Z</time>
      </trkpt>
      <trkpt lat="43.48175" lon="6.79488">
        <ele>292.8</ele>
        <time>2012-12-09T09:09:05.000Z</time>
      </trkpt>
      <trkpt lat="43.48171" lon="6.7949">
        <ele>292</ele>
        <time>2012-12-09T09:09:07.000Z</time>
      </trkpt>
      <trkpt lat="43.4817" lon="6.79493">
        <ele>288.3</ele>
        <time>2012-12-09T09:09:08.000Z</time>
      </trkpt>
      <trkpt lat="43.48168" lon="6.79495">
        <ele>287.4</ele>
        <time>2012-12-09T09:09:09.000Z</time>
      </trkpt>
      <trkpt lat="43.48166" lon="6.79496">
        <ele>285.4</ele>
        <time>2012-12-09T09:09:10.000Z</time>
      </trkpt>
      <trkpt lat="43.48162" lon="6.795">
        <ele>284.5</ele>
        <time>2012-12-09T09:09:12.000Z</time>
      </trkpt>
      <trkpt lat="43.4816" lon="6.79501">
        <ele>284.6</ele>
        <time>2012-12-09T09:09:13.000Z</time>
      </trkpt>
      <trkpt lat="43.48158" lon="6.79503">
        <ele>283.8</ele>
        <time>2012-12-09T09:09:14.000Z</time>
      </trkpt>
      <trkpt lat="43.48156" lon="6.79505">
        <ele>284.3</ele>
        <time>2012-12-09T09:09:15.000Z</time>
      </trkpt>
      <trkpt lat="43.48153" lon="6.79506">
        <ele>285.9</ele>
        <time>2012-12-09T09:09:16.000Z</time>
      </trkpt>
      <trkpt lat="43.48152" lon="6.79507">
        <ele>285</ele>
        <time>2012-12-09T09:09:17.000Z</time>
      </trkpt>
      <trkpt lat="43.48148" lon="6.7951">
        <ele>283.4</ele>
        <time>2012-12-09T09:09:19.000Z</time>
      </trkpt>
      <trkpt lat="43.48146" lon="6.79512">
        <ele>283.2</ele>
        <time>2012-12-09T09:09:20.000Z</time>
      </trkpt>
      <trkpt lat="43.48144" lon="6.79516">
        <ele>282.4</ele>
        <time>2012-12-09T09:09:22.000Z</time>
      </trkpt>
      <trkpt lat="43.48142" lon="6.79518">
        <ele>282.1</ele>
        <time>2012-12-09T09:09:23.000Z</time>
      </trkpt>
      <trkpt lat="43.48139" lon="6.79521">
        <ele>281.6</ele>
        <time>2012-12-09T09:09:25.000Z</time>
      </trkpt>
      <trkpt lat="43.48137" lon="6.79523">
        <ele>281.6</ele>
        <time>2012-12-09T09:09:26.000Z</time>
      </trkpt>
      <trkpt lat="43.48134" lon="6.79527">
        <ele>281.2</ele>
        <time>2012-12-09T09:09:28.000Z</time>
      </trkpt>
      <trkpt lat="43.48132" lon="6.79528">
        <ele>281.1</ele>
        <time>2012-12-09T09:09:29.000Z</time>
      </trkpt>
      <trkpt lat="43.48129" lon="6.7953">
        <ele>281.9</ele>
        <time>2012-12-09T09:09:31.000Z</time>
      </trkpt>
      <trkpt lat="43.48127" lon="6.79532">
        <ele>282.3</ele>
        <time>2012-12-09T09:09:32.000Z</time>
      </trkpt>
      <trkpt lat="43.48123" lon="6.79535">
        <ele>281.7</ele>
        <time>2012-12-09T09:09:34.000Z</time>
      </trkpt>
      <trkpt lat="43.48121" lon="6.79537">
        <ele>281.3</ele>
        <time>2012-12-09T09:09:35.000Z</time>
      </trkpt>
      <trkpt lat="43.48118" lon="6.79539">
        <ele>281.9</ele>
        <time>2012-12-09T09:09:37.000Z</time>
      </trkpt>
      <trkpt lat="43.48116" lon="6.7954">
        <ele>282.1</ele>
        <time>2012-12-09T09:09:38.000Z</time>
      </trkpt>
      <trkpt lat="43.48114" lon="6.79542">
        <ele>282.2</ele>
        <time>2012-12-09T09:09:39.000Z</time>
      </trkpt>
      <trkpt lat="43.48112" lon="6.79544">
        <ele>282</ele>
        <time>2012-12-09T09:09:40.000Z</time>
      </trkpt>
      <trkpt lat="43.48109" lon="6.79548">
        <ele>282.4</ele>
        <time>2012-12-09T09:09:42.000Z</time>
      </trkpt>
      <trkpt lat="43.48107" lon="6.79549">
        <ele>282.5</ele>
        <time>2012-12-09T09:09:43.000Z</time>
      </trkpt>
      <trkpt lat="43.48105" lon="6.79553">
        <ele>282.5</ele>
        <time>2012-12-09T09:09:45.000Z</time>
      </trkpt>
      <trkpt lat="43.48092" lon="6.79578">
        <ele>288.7</ele>
        <time>2012-12-09T09:09:54.000Z</time>
      </trkpt>
      <trkpt lat="43.4809" lon="6.79584">
        <ele>291.2</ele>
        <time>2012-12-09T09:09:56.000Z</time>
      </trkpt>
      <trkpt lat="43.4809" lon="6.79586">
        <ele>291.6</ele>
        <time>2012-12-09T09:09:57.000Z</time>
      </trkpt>
      <trkpt lat="43.48089" lon="6.79591">
        <ele>293.7</ele>
        <time>2012-12-09T09:09:59.000Z</time>
      </trkpt>
      <trkpt lat="43.48088" lon="6.79594">
        <ele>293.9</ele>
        <time>2012-12-09T09:10:00.000Z</time>
      </trkpt>
      <trkpt lat="43.48087" lon="6.79599">
        <ele>294.6</ele>
        <time>2012-12-09T09:10:02.000Z</time>
      </trkpt>
      <trkpt lat="43.48086" lon="6.79602">
        <ele>295</ele>
        <time>2012-12-09T09:10:03.000Z</time>
      </trkpt>
      <trkpt lat="43.48085" lon="6.79608">
        <ele>296</ele>
        <time>2012-12-09T09:10:05.000Z</time>
      </trkpt>
      <trkpt lat="43.48085" lon="6.7961">
        <ele>296.3</ele>
        <time>2012-12-09T09:10:06.000Z</time>
      </trkpt>
      <trkpt lat="43.48084" lon="6.79615">
        <ele>295.5</ele>
        <time>2012-12-09T09:10:08.000Z</time>
      </trkpt>
      <trkpt lat="43.48084" lon="6.79618">
        <ele>295.9</ele>
        <time>2012-12-09T09:10:09.000Z</time>
      </trkpt>
      <trkpt lat="43.48084" lon="6.79621">
        <ele>296.3</ele>
        <time>2012-12-09T09:10:10.000Z</time>
      </trkpt>
      <trkpt lat="43.48084" lon="6.79624">
        <ele>295.5</ele>
        <time>2012-12-09T09:10:11.000Z</time>
      </trkpt>
      <trkpt lat="43.48085" lon="6.7963">
        <ele>295</ele>
        <time>2012-12-09T09:10:13.000Z</time>
      </trkpt>
      <trkpt lat="43.48085" lon="6.79633">
        <ele>294.6</ele>
        <time>2012-12-09T09:10:14.000Z</time>
      </trkpt>
      <trkpt lat="43.48086" lon="6.79639">
        <ele>294.8</ele>
        <time>2012-12-09T09:10:16.000Z</time>
      </trkpt>
      <trkpt lat="43.48087" lon="6.79641">
        <ele>294.7</ele>
        <time>2012-12-09T09:10:17.000Z</time>
      </trkpt>
      <trkpt lat="43.48087" lon="6.79645">
        <ele>294.5</ele>
        <time>2012-12-09T09:10:18.000Z</time>
      </trkpt>
      <trkpt lat="43.48088" lon="6.79648">
        <ele>294.1</ele>
        <time>2012-12-09T09:10:19.000Z</time>
      </trkpt>
      <trkpt lat="43.48089" lon="6.79653">
        <ele>293.2</ele>
        <time>2012-12-09T09:10:21.000Z</time>
      </trkpt>
      <trkpt lat="43.4809" lon="6.79656">
        <ele>292.8</ele>
        <time>2012-12-09T09:10:22.000Z</time>
      </trkpt>
      <trkpt lat="43.48091" lon="6.79659">
        <ele>292.9</ele>
        <time>2012-12-09T09:10:23.000Z</time>
      </trkpt>
      <trkpt lat="43.48093" lon="6.79662">
        <ele>292.8</ele>
        <time>2012-12-09T09:10:24.000Z</time>
      </trkpt>
      <trkpt lat="43.48093" lon="6.79665">
        <ele>292.8</ele>
        <time>2012-12-09T09:10:25.000Z</time>
      </trkpt>
      <trkpt lat="43.48094" lon="6.79668">
        <ele>292.9</ele>
        <time>2012-12-09T09:10:26.000Z</time>
      </trkpt>
      <trkpt lat="43.48094" lon="6.79671">
        <ele>292.8</ele>
        <time>2012-12-09T09:10:27.000Z</time>
      </trkpt>
      <trkpt lat="43.48095" lon="6.79674">
        <ele>292.9</ele>
        <time>2012-12-09T09:10:28.000Z</time>
      </trkpt>
      <trkpt lat="43.48097" lon="6.79679">
        <ele>293.2</ele>
        <time>2012-12-09T09:10:30.000Z</time>
      </trkpt>
      <trkpt lat="43.48097" lon="6.79682">
        <ele>293.4</ele>
        <time>2012-12-09T09:10:31.000Z</time>
      </trkpt>
      <trkpt lat="43.48098" lon="6.79685">
        <ele>293.5</ele>
        <time>2012-12-09T09:10:32.000Z</time>
      </trkpt>
      <trkpt lat="43.48098" lon="6.79688">
        <ele>293.6</ele>
        <time>2012-12-09T09:10:33.000Z</time>
      </trkpt>
      <trkpt lat="43.481" lon="6.79693">
        <ele>293.4</ele>
        <time>2012-12-09T09:10:35.000Z</time>
      </trkpt>
      <trkpt lat="43.481" lon="6.79696">
        <ele>293.4</ele>
        <time>2012-12-09T09:10:36.000Z</time>
      </trkpt>
      <trkpt lat="43.48102" lon="6.79701">
        <ele>293.3</ele>
        <time>2012-12-09T09:10:38.000Z</time>
      </trkpt>
      <trkpt lat="43.48103" lon="6.79703">
        <ele>293.2</ele>
        <time>2012-12-09T09:10:39.000Z</time>
      </trkpt>
      <trkpt lat="43.48104" lon="6.79709">
        <ele>293.2</ele>
        <time>2012-12-09T09:10:41.000Z</time>
      </trkpt>
      <trkpt lat="43.48106" lon="6.79711">
        <ele>293.3</ele>
        <time>2012-12-09T09:10:42.000Z</time>
      </trkpt>
      <trkpt lat="43.48107" lon="6.79714">
        <ele>293.2</ele>
        <time>2012-12-09T09:10:43.000Z</time>
      </trkpt>
      <trkpt lat="43.48108" lon="6.79717">
        <ele>293.3</ele>
        <time>2012-12-09T09:10:44.000Z</time>
      </trkpt>
      <trkpt lat="43.48109" lon="6.7972">
        <ele>293.4</ele>
        <time>2012-12-09T09:10:45.000Z</time>
      </trkpt>
      <trkpt lat="43.48119" lon="6.79757">
        <ele>314.1</ele>
        <time>2012-12-09T09:10:51.000Z</time>
      </trkpt>
      <trkpt lat="43.48126" lon="6.79768">
        <ele>288.4</ele>
        <time>2012-12-09T09:10:52.000Z</time>
      </trkpt>
      <trkpt lat="43.48124" lon="6.79767">
        <ele>285.4</ele>
        <time>2012-12-09T09:10:53.000Z</time>
      </trkpt>
      <trkpt lat="43.48122" lon="6.79765">
        <ele>287.6</ele>
        <time>2012-12-09T09:10:54.000Z</time>
      </trkpt>
      <trkpt lat="43.48119" lon="6.79763">
        <ele>289.8</ele>
        <time>2012-12-09T09:10:55.000Z</time>
      </trkpt>
      <trkpt lat="43.48116" lon="6.7976">
        <ele>295.3</ele>
        <time>2012-12-09T09:10:56.000Z</time>
      </trkpt>
      <trkpt lat="43.48113" lon="6.79762">
        <ele>296.1</ele>
        <time>2012-12-09T09:10:59.000Z</time>
      </trkpt>
      <trkpt lat="43.48113" lon="6.79764">
        <ele>295.7</ele>
        <time>2012-12-09T09:11:00.000Z</time>
      </trkpt>
      <trkpt lat="43.48112" lon="6.79769">
        <ele>294.9</ele>
        <time>2012-12-09T09:11:02.000Z</time>
      </trkpt>
      <trkpt lat="43.48111" lon="6.79771">
        <ele>295.8</ele>
        <time>2012-12-09T09:11:03.000Z</time>
      </trkpt>
      <trkpt lat="43.4811" lon="6.79776">
        <ele>296.5</ele>
        <time>2012-12-09T09:11:05.000Z</time>
      </trkpt>
      <trkpt lat="43.4811" lon="6.79779">
        <ele>296.8</ele>
        <time>2012-12-09T09:11:06.000Z</time>
      </trkpt>
      <trkpt lat="43.48109" lon="6.79782">
        <ele>297.4</ele>
        <time>2012-12-09T09:11:07.000Z</time>
      </trkpt>
      <trkpt lat="43.48108" lon="6.79785">
        <ele>298</ele>
        <time>2012-12-09T09:11:08.000Z</time>
      </trkpt>
      <trkpt lat="43.48108" lon="6.79789">
        <ele>297.9</ele>
        <time>2012-12-09T09:11:09.000Z</time>
      </trkpt>
      <trkpt lat="43.48108" lon="6.79792">
        <ele>297.6</ele>
        <time>2012-12-09T09:11:10.000Z</time>
      </trkpt>
      <trkpt lat="43.48106" lon="6.79797">
        <ele>297.5</ele>
        <time>2012-12-09T09:11:12.000Z</time>
      </trkpt>
      <trkpt lat="43.48105" lon="6.79799">
        <ele>297.5</ele>
        <time>2012-12-09T09:11:13.000Z</time>
      </trkpt>
      <trkpt lat="43.48103" lon="6.79804">
        <ele>299.1</ele>
        <time>2012-12-09T09:11:15.000Z</time>
      </trkpt>
      <trkpt lat="43.48102" lon="6.79806">
        <ele>300</ele>
        <time>2012-12-09T09:11:16.000Z</time>
      </trkpt>
      <trkpt lat="43.48099" lon="6.79811">
        <ele>300.1</ele>
        <time>2012-12-09T09:11:18.000Z</time>
      </trkpt>
      <trkpt lat="43.48098" lon="6.79814">
        <ele>300.5</ele>
        <time>2012-12-09T09:11:19.000Z</time>
      </trkpt>
      <trkpt lat="43.48097" lon="6.79816">
        <ele>300.8</ele>
        <time>2012-12-09T09:11:20.000Z</time>
      </trkpt>
      <trkpt lat="43.48096" lon="6.79819">
        <ele>300.9</ele>
        <time>2012-12-09T09:11:21.000Z</time>
      </trkpt>
      <trkpt lat="43.48093" lon="6.79824">
        <ele>300.9</ele>
        <time>2012-12-09T09:11:23.000Z</time>
      </trkpt>
      <trkpt lat="43.48092" lon="6.79827">
        <ele>300.9</ele>
        <time>2012-12-09T09:11:24.000Z</time>
      </trkpt>
      <trkpt lat="43.48091" lon="6.79829">
        <ele>300.8</ele>
        <time>2012-12-09T09:11:25.000Z</time>
      </trkpt>
      <trkpt lat="43.4809" lon="6.79832">
        <ele>300.7</ele>
        <time>2012-12-09T09:11:26.000Z</time>
      </trkpt>
      <trkpt lat="43.48088" lon="6.79835">
        <ele>300.8</ele>
        <time>2012-12-09T09:11:27.000Z</time>
      </trkpt>
      <trkpt lat="43.48087" lon="6.79838">
        <ele>301.1</ele>
        <time>2012-12-09T09:11:28.000Z</time>
      </trkpt>
      <trkpt lat="43.48084" lon="6.79843">
        <ele>301</ele>
        <time>2012-12-09T09:11:30.000Z</time>
      </trkpt>
      <trkpt lat="43.48083" lon="6.79845">
        <ele>300.9</ele>
        <time>2012-12-09T09:11:31.000Z</time>
      </trkpt>
      <trkpt lat="43.4808" lon="6.79849">
        <ele>301.6</ele>
        <time>2012-12-09T09:11:33.000Z</time>
      </trkpt>
      <trkpt lat="43.48079" lon="6.79852">
        <ele>301.7</ele>
        <time>2012-12-09T09:11:34.000Z</time>
      </trkpt>
      <trkpt lat="43.48077" lon="6.79856">
        <ele>302.1</ele>
        <time>2012-12-09T09:11:36.000Z</time>
      </trkpt>
      <trkpt lat="43.48076" lon="6.79859">
        <ele>302.1</ele>
        <time>2012-12-09T09:11:37.000Z</time>
      </trkpt>
      <trkpt lat="43.48073" lon="6.79863">
        <ele>302</ele>
        <time>2012-12-09T09:11:39.000Z</time>
      </trkpt>
      <trkpt lat="43.48071" lon="6.79865">
        <ele>302.3</ele>
        <time>2012-12-09T09:11:40.000Z</time>
      </trkpt>
      <trkpt lat="43.4807" lon="6.79867">
        <ele>302.5</ele>
        <time>2012-12-09T09:11:41.000Z</time>
      </trkpt>
      <trkpt lat="43.48068" lon="6.7987">
        <ele>302.6</ele>
        <time>2012-12-09T09:11:42.000Z</time>
      </trkpt>
      <trkpt lat="43.48066" lon="6.79872">
        <ele>302.8</ele>
        <time>2012-12-09T09:11:43.000Z</time>
      </trkpt>
      <trkpt lat="43.48064" lon="6.79874">
        <ele>302.9</ele>
        <time>2012-12-09T09:11:44.000Z</time>
      </trkpt>
      <trkpt lat="43.48063" lon="6.79876">
        <ele>303.2</ele>
        <time>2012-12-09T09:11:45.000Z</time>
      </trkpt>
      <trkpt lat="43.48052" lon="6.79902">
        <ele>299.2</ele>
        <time>2012-12-09T09:11:55.000Z</time>
      </trkpt>
      <trkpt lat="43.48051" lon="6.79907">
        <ele>299.3</ele>
        <time>2012-12-09T09:11:57.000Z</time>
      </trkpt>
      <trkpt lat="43.48051" lon="6.7991">
        <ele>300.2</ele>
        <time>2012-12-09T09:11:58.000Z</time>
      </trkpt>
      <trkpt lat="43.48052" lon="6.79915">
        <ele>300.7</ele>
        <time>2012-12-09T09:12:00.000Z</time>
      </trkpt>
      <trkpt lat="43.48052" lon="6.79917">
        <ele>300.7</ele>
        <time>2012-12-09T09:12:01.000Z</time>
      </trkpt>
      <trkpt lat="43.4805" lon="6.79922">
        <ele>298</ele>
        <time>2012-12-09T09:12:45.000Z</time>
      </trkpt>
      <trkpt lat="43.48046" lon="6.79926">
        <ele>300.2</ele>
        <time>2012-12-09T09:12:49.000Z</time>
      </trkpt>
      <trkpt lat="43.48047" lon="6.79931">
        <ele>320.5</ele>
        <time>2012-12-09T09:13:45.000Z</time>
      </trkpt>
      <trkpt lat="43.48051" lon="6.79918">
        <ele>324.9</ele>
        <time>2012-12-09T09:13:50.000Z</time>
      </trkpt>
      <trkpt lat="43.48055" lon="6.79918">
        <ele>306.8</ele>
        <time>2012-12-09T09:16:01.000Z</time>
      </trkpt>
      <trkpt lat="43.48056" lon="6.79918">
        <ele>306.8</ele>
        <time>2012-12-09T09:16:02.000Z</time>
      </trkpt>
      <trkpt lat="43.4806" lon="6.79919">
        <ele>306.6</ele>
        <time>2012-12-09T09:16:04.000Z</time>
      </trkpt>
      <trkpt lat="43.48062" lon="6.7992">
        <ele>306.6</ele>
        <time>2012-12-09T09:16:05.000Z</time>
      </trkpt>
      <trkpt lat="43.48066" lon="6.79921">
        <ele>306.2</ele>
        <time>2012-12-09T09:16:07.000Z</time>
      </trkpt>
      <trkpt lat="43.48068" lon="6.79923">
        <ele>307</ele>
        <time>2012-12-09T09:16:08.000Z</time>
      </trkpt>
      <trkpt lat="43.4807" lon="6.79924">
        <ele>307.6</ele>
        <time>2012-12-09T09:16:09.000Z</time>
      </trkpt>
      <trkpt lat="43.48072" lon="6.79926">
        <ele>307.8</ele>
        <time>2012-12-09T09:16:10.000Z</time>
      </trkpt>
      <trkpt lat="43.48073" lon="6.79929">
        <ele>308.2</ele>
        <time>2012-12-09T09:16:11.000Z</time>
      </trkpt>
      <trkpt lat="43.48075" lon="6.79931">
        <ele>308.4</ele>
        <time>2012-12-09T09:16:12.000Z</time>
      </trkpt>
      <trkpt lat="43.48078" lon="6.79935">
        <ele>308.8</ele>
        <time>2012-12-09T09:16:14.000Z</time>
      </trkpt>
      <trkpt lat="43.48079" lon="6.79937">
        <ele>309.4</ele>
        <time>2012-12-09T09:16:15.000Z</time>
      </trkpt>
      <trkpt lat="43.48081" lon="6.79939">
        <ele>309.6</ele>
        <time>2012-12-09T09:16:16.000Z</time>
      </trkpt>
      <trkpt lat="43.48083" lon="6.79941">
        <ele>309.6</ele>
        <time>2012-12-09T09:16:17.000Z</time>
      </trkpt>
      <trkpt lat="43.48085" lon="6.79944">
        <ele>309.4</ele>
        <time>2012-12-09T09:16:18.000Z</time>
      </trkpt>
      <trkpt lat="43.48087" lon="6.79946">
        <ele>309.4</ele>
        <time>2012-12-09T09:16:19.000Z</time>
      </trkpt>
      <trkpt lat="43.48088" lon="6.79947">
        <ele>309.4</ele>
        <time>2012-12-09T09:16:20.000Z</time>
      </trkpt>
      <trkpt lat="43.48091" lon="6.79949">
        <ele>309.5</ele>
        <time>2012-12-09T09:16:21.000Z</time>
      </trkpt>
      <trkpt lat="43.48093" lon="6.79951">
        <ele>309.5</ele>
        <time>2012-12-09T09:16:22.000Z</time>
      </trkpt>
      <trkpt lat="43.48095" lon="6.79953">
        <ele>309.4</ele>
        <time>2012-12-09T09:16:23.000Z</time>
      </trkpt>
      <trkpt lat="43.48097" lon="6.79955">
        <ele>309.4</ele>
        <time>2012-12-09T09:16:24.000Z</time>
      </trkpt>
      <trkpt lat="43.48099" lon="6.79957">
        <ele>309.5</ele>
        <time>2012-12-09T09:16:25.000Z</time>
      </trkpt>
      <trkpt lat="43.48101" lon="6.7996">
        <ele>309.4</ele>
        <time>2012-12-09T09:16:26.000Z</time>
      </trkpt>
      <trkpt lat="43.48103" lon="6.79962">
        <ele>309.2</ele>
        <time>2012-12-09T09:16:27.000Z</time>
      </trkpt>
      <trkpt lat="43.48105" lon="6.79964">
        <ele>309.1</ele>
        <time>2012-12-09T09:16:28.000Z</time>
      </trkpt>
      <trkpt lat="43.48108" lon="6.79966">
        <ele>309</ele>
        <time>2012-12-09T09:16:29.000Z</time>
      </trkpt>
      <trkpt lat="43.4811" lon="6.79967">
        <ele>308.9</ele>
        <time>2012-12-09T09:16:30.000Z</time>
      </trkpt>
      <trkpt lat="43.48112" lon="6.79969">
        <ele>309</ele>
        <time>2012-12-09T09:16:31.000Z</time>
      </trkpt>
      <trkpt lat="43.48114" lon="6.79971">
        <ele>309.1</ele>
        <time>2012-12-09T09:16:32.000Z</time>
      </trkpt>
      <trkpt lat="43.48116" lon="6.79973">
        <ele>309.2</ele>
        <time>2012-12-09T09:16:33.000Z</time>
      </trkpt>
      <trkpt lat="43.48118" lon="6.79975">
        <ele>309.4</ele>
        <time>2012-12-09T09:16:34.000Z</time>
      </trkpt>
      <trkpt lat="43.4812" lon="6.79977">
        <ele>309.7</ele>
        <time>2012-12-09T09:16:35.000Z</time>
      </trkpt>
      <trkpt lat="43.48122" lon="6.79979">
        <ele>310.2</ele>
        <time>2012-12-09T09:16:36.000Z</time>
      </trkpt>
      <trkpt lat="43.48124" lon="6.79981">
        <ele>310.5</ele>
        <time>2012-12-09T09:16:37.000Z</time>
      </trkpt>
      <trkpt lat="43.48126" lon="6.79984">
        <ele>310.8</ele>
        <time>2012-12-09T09:16:38.000Z</time>
      </trkpt>
      <trkpt lat="43.48128" lon="6.79986">
        <ele>311.1</ele>
        <time>2012-12-09T09:16:39.000Z</time>
      </trkpt>
      <trkpt lat="43.48129" lon="6.79988">
        <ele>311.3</ele>
        <time>2012-12-09T09:16:40.000Z</time>
      </trkpt>
      <trkpt lat="43.48131" lon="6.7999">
        <ele>311.3</ele>
        <time>2012-12-09T09:16:41.000Z</time>
      </trkpt>
      <trkpt lat="43.48133" lon="6.79993">
        <ele>311.3</ele>
        <time>2012-12-09T09:16:42.000Z</time>
      </trkpt>
      <trkpt lat="43.48135" lon="6.79995">
        <ele>311.3</ele>
        <time>2012-12-09T09:16:43.000Z</time>
      </trkpt>
      <trkpt lat="43.48137" lon="6.79997">
        <ele>311.4</ele>
        <time>2012-12-09T09:16:44.000Z</time>
      </trkpt>
      <trkpt lat="43.48139" lon="6.79999">
        <ele>311.5</ele>
        <time>2012-12-09T09:16:45.000Z</time>
      </trkpt>
      <trkpt lat="43.48144" lon="6.79984">
        <ele>346.7</ele>
        <time>2012-12-09T09:16:49.000Z</time>
      </trkpt>
      <trkpt lat="43.48146" lon="6.7999">
        <ele>332.3</ele>
        <time>2012-12-09T09:16:50.000Z</time>
      </trkpt>
      <trkpt lat="43.4815" lon="6.79994">
        <ele>338</ele>
        <time>2012-12-09T09:16:51.000Z</time>
      </trkpt>
      <trkpt lat="43.48153" lon="6.79998">
        <ele>348.4</ele>
        <time>2012-12-09T09:16:53.000Z</time>
      </trkpt>
      <trkpt lat="43.48156" lon="6.80001">
        <ele>348.9</ele>
        <time>2012-12-09T09:16:55.000Z</time>
      </trkpt>
      <trkpt lat="43.48158" lon="6.80002">
        <ele>348</ele>
        <time>2012-12-09T09:16:56.000Z</time>
      </trkpt>
      <trkpt lat="43.4816" lon="6.80005">
        <ele>346.1</ele>
        <time>2012-12-09T09:16:57.000Z</time>
      </trkpt>
      <trkpt lat="43.48162" lon="6.80008">
        <ele>344.3</ele>
        <time>2012-12-09T09:16:58.000Z</time>
      </trkpt>
      <trkpt lat="43.48164" lon="6.80011">
        <ele>342.9</ele>
        <time>2012-12-09T09:16:59.000Z</time>
      </trkpt>
      <trkpt lat="43.48166" lon="6.80014">
        <ele>341.8</ele>
        <time>2012-12-09T09:17:00.000Z</time>
      </trkpt>
      <trkpt lat="43.48169" lon="6.80017">
        <ele>340.3</ele>
        <time>2012-12-09T09:17:01.000Z</time>
      </trkpt>
      <trkpt lat="43.48171" lon="6.8002">
        <ele>338.8</ele>
        <time>2012-12-09T09:17:02.000Z</time>
      </trkpt>
      <trkpt lat="43.48174" lon="6.80023">
        <ele>337.9</ele>
        <time>2012-12-09T09:17:03.000Z</time>
      </trkpt>
      <trkpt lat="43.48176" lon="6.80025">
        <ele>336.9</ele>
        <time>2012-12-09T09:17:04.000Z</time>
      </trkpt>
      <trkpt lat="43.48178" lon="6.80027">
        <ele>336.1</ele>
        <time>2012-12-09T09:17:05.000Z</time>
      </trkpt>
      <trkpt lat="43.4818" lon="6.80029">
        <ele>335.4</ele>
        <time>2012-12-09T09:17:06.000Z</time>
      </trkpt>
      <trkpt lat="43.48182" lon="6.8003">
        <ele>335</ele>
        <time>2012-12-09T09:17:07.000Z</time>
      </trkpt>
      <trkpt lat="43.48184" lon="6.80032">
        <ele>334.1</ele>
        <time>2012-12-09T09:17:08.000Z</time>
      </trkpt>
      <trkpt lat="43.48186" lon="6.80034">
        <ele>333.3</ele>
        <time>2012-12-09T09:17:09.000Z</time>
      </trkpt>
      <trkpt lat="43.48189" lon="6.80036">
        <ele>332.6</ele>
        <time>2012-12-09T09:17:10.000Z</time>
      </trkpt>
      <trkpt lat="43.48191" lon="6.80038">
        <ele>331.4</ele>
        <time>2012-12-09T09:17:11.000Z</time>
      </trkpt>
      <trkpt lat="43.48193" lon="6.80039">
        <ele>329.9</ele>
        <time>2012-12-09T09:17:12.000Z</time>
      </trkpt>
      <trkpt lat="43.48195" lon="6.80041">
        <ele>328.8</ele>
        <time>2012-12-09T09:17:13.000Z</time>
      </trkpt>
      <trkpt lat="43.48197" lon="6.80042">
        <ele>327.9</ele>
        <time>2012-12-09T09:17:14.000Z</time>
      </trkpt>
      <trkpt lat="43.482" lon="6.80044">
        <ele>327.3</ele>
        <time>2012-12-09T09:17:15.000Z</time>
      </trkpt>
      <trkpt lat="43.48202" lon="6.80045">
        <ele>327</ele>
        <time>2012-12-09T09:17:16.000Z</time>
      </trkpt>
      <trkpt lat="43.48204" lon="6.80046">
        <ele>326.3</ele>
        <time>2012-12-09T09:17:17.000Z</time>
      </trkpt>
      <trkpt lat="43.48206" lon="6.80047">
        <ele>325.8</ele>
        <time>2012-12-09T09:17:18.000Z</time>
      </trkpt>
      <trkpt lat="43.48209" lon="6.80049">
        <ele>324.9</ele>
        <time>2012-12-09T09:17:19.000Z</time>
      </trkpt>
      <trkpt lat="43.48211" lon="6.8005">
        <ele>324.3</ele>
        <time>2012-12-09T09:17:20.000Z</time>
      </trkpt>
      <trkpt lat="43.48214" lon="6.80051">
        <ele>323.3</ele>
        <time>2012-12-09T09:17:21.000Z</time>
      </trkpt>
      <trkpt lat="43.48217" lon="6.80052">
        <ele>322.7</ele>
        <time>2012-12-09T09:17:22.000Z</time>
      </trkpt>
      <trkpt lat="43.48219" lon="6.80053">
        <ele>322.5</ele>
        <time>2012-12-09T09:17:23.000Z</time>
      </trkpt>
      <trkpt lat="43.48221" lon="6.80054">
        <ele>322.4</ele>
        <time>2012-12-09T09:17:24.000Z</time>
      </trkpt>
      <trkpt lat="43.48224" lon="6.80055">
        <ele>322.1</ele>
        <time>2012-12-09T09:17:25.000Z</time>
      </trkpt>
      <trkpt lat="43.48226" lon="6.80056">
        <ele>321.8</ele>
        <time>2012-12-09T09:17:26.000Z</time>
      </trkpt>
      <trkpt lat="43.48229" lon="6.80057">
        <ele>321.7</ele>
        <time>2012-12-09T09:17:27.000Z</time>
      </trkpt>
      <trkpt lat="43.48231" lon="6.80057">
        <ele>321.7</ele>
        <time>2012-12-09T09:17:28.000Z</time>
      </trkpt>
      <trkpt lat="43.48234" lon="6.80058">
        <ele>321.6</ele>
        <time>2012-12-09T09:17:29.000Z</time>
      </trkpt>
      <trkpt lat="43.48236" lon="6.80058">
        <ele>321.5</ele>
        <time>2012-12-09T09:17:30.000Z</time>
      </trkpt>
      <trkpt lat="43.48239" lon="6.80058">
        <ele>321.4</ele>
        <time>2012-12-09T09:17:31.000Z</time>
      </trkpt>
      <trkpt lat="43.48241" lon="6.80058">
        <ele>321.1</ele>
        <time>2012-12-09T09:17:32.000Z</time>
      </trkpt>
      <trkpt lat="43.48244" lon="6.80059">
        <ele>320.4</ele>
        <time>2012-12-09T09:17:33.000Z</time>
      </trkpt>
      <trkpt lat="43.48247" lon="6.80059">
        <ele>320.1</ele>
        <time>2012-12-09T09:17:34.000Z</time>
      </trkpt>
      <trkpt lat="43.48249" lon="6.80059">
        <ele>319.7</ele>
        <time>2012-12-09T09:17:35.000Z</time>
      </trkpt>
      <trkpt lat="43.48252" lon="6.80059">
        <ele>319.3</ele>
        <time>2012-12-09T09:17:36.000Z</time>
      </trkpt>
      <trkpt lat="43.48255" lon="6.80059">
        <ele>319.1</ele>
        <time>2012-12-09T09:17:37.000Z</time>
      </trkpt>
      <trkpt lat="43.48257" lon="6.80059">
        <ele>319.1</ele>
        <time>2012-12-09T09:17:38.000Z</time>
      </trkpt>
      <trkpt lat="43.48259" lon="6.80058">
        <ele>319</ele>
        <time>2012-12-09T09:17:39.000Z</time>
      </trkpt>
      <trkpt lat="43.48262" lon="6.80058">
        <ele>318.9</ele>
        <time>2012-12-09T09:17:40.000Z</time>
      </trkpt>
      <trkpt lat="43.48264" lon="6.80058">
        <ele>318.6</ele>
        <time>2012-12-09T09:17:41.000Z</time>
      </trkpt>
      <trkpt lat="43.48267" lon="6.80058">
        <ele>318.4</ele>
        <time>2012-12-09T09:17:42.000Z</time>
      </trkpt>
      <trkpt lat="43.4827" lon="6.80058">
        <ele>318</ele>
        <time>2012-12-09T09:17:43.000Z</time>
      </trkpt>
      <trkpt lat="43.48272" lon="6.80058">
        <ele>317.7</ele>
        <time>2012-12-09T09:17:44.000Z</time>
      </trkpt>
      <trkpt lat="43.48275" lon="6.80058">
        <ele>317.7</ele>
        <time>2012-12-09T09:17:45.000Z</time>
      </trkpt>
      <trkpt lat="43.48289" lon="6.80056">
        <ele>321.5</ele>
        <time>2012-12-09T09:17:50.000Z</time>
      </trkpt>
      <trkpt lat="43.48292" lon="6.80055">
        <ele>318</ele>
        <time>2012-12-09T09:17:53.000Z</time>
      </trkpt>
      <trkpt lat="43.48294" lon="6.80055">
        <ele>318.3</ele>
        <time>2012-12-09T09:17:54.000Z</time>
      </trkpt>
      <trkpt lat="43.48296" lon="6.80054">
        <ele>318.5</ele>
        <time>2012-12-09T09:17:55.000Z</time>
      </trkpt>
      <trkpt lat="43.48298" lon="6.80053">
        <ele>319.2</ele>
        <time>2012-12-09T09:17:56.000Z</time>
      </trkpt>
      <trkpt lat="43.48301" lon="6.80053">
        <ele>319.6</ele>
        <time>2012-12-09T09:17:57.000Z</time>
      </trkpt>
      <trkpt lat="43.48303" lon="6.80052">
        <ele>320.3</ele>
        <time>2012-12-09T09:17:58.000Z</time>
      </trkpt>
      <trkpt lat="43.48305" lon="6.80052">
        <ele>320.9</ele>
        <time>2012-12-09T09:17:59.000Z</time>
      </trkpt>
      <trkpt lat="43.48308" lon="6.80051">
        <ele>321</ele>
        <time>2012-12-09T09:18:00.000Z</time>
      </trkpt>
      <trkpt lat="43.4831" lon="6.8005">
        <ele>320.5</ele>
        <time>2012-12-09T09:18:01.000Z</time>
      </trkpt>
      <trkpt lat="43.48312" lon="6.80049">
        <ele>320.5</ele>
        <time>2012-12-09T09:18:02.000Z</time>
      </trkpt>
      <trkpt lat="43.48315" lon="6.80048">
        <ele>320.6</ele>
        <time>2012-12-09T09:18:03.000Z</time>
      </trkpt>
      <trkpt lat="43.48317" lon="6.80046">
        <ele>321</ele>
        <time>2012-12-09T09:18:04.000Z</time>
      </trkpt>
      <trkpt lat="43.48319" lon="6.80045">
        <ele>321</ele>
        <time>2012-12-09T09:18:05.000Z</time>
      </trkpt>
      <trkpt lat="43.48321" lon="6.80043">
        <ele>320.5</ele>
        <time>2012-12-09T09:18:06.000Z</time>
      </trkpt>
      <trkpt lat="43.48324" lon="6.80042">
        <ele>320.7</ele>
        <time>2012-12-09T09:18:07.000Z</time>
      </trkpt>
      <trkpt lat="43.48326" lon="6.8004">
        <ele>320.6</ele>
        <time>2012-12-09T09:18:08.000Z</time>
      </trkpt>
      <trkpt lat="43.48328" lon="6.80038">
        <ele>320.8</ele>
        <time>2012-12-09T09:18:09.000Z</time>
      </trkpt>
      <trkpt lat="43.4833" lon="6.80036">
        <ele>320.8</ele>
        <time>2012-12-09T09:18:10.000Z</time>
      </trkpt>
      <trkpt lat="43.48332" lon="6.80034">
        <ele>320.6</ele>
        <time>2012-12-09T09:18:11.000Z</time>
      </trkpt>
      <trkpt lat="43.48334" lon="6.80032">
        <ele>320.6</ele>
        <time>2012-12-09T09:18:12.000Z</time>
      </trkpt>
      <trkpt lat="43.48337" lon="6.8003">
        <ele>320.5</ele>
        <time>2012-12-09T09:18:13.000Z</time>
      </trkpt>
      <trkpt lat="43.48339" lon="6.80028">
        <ele>320.6</ele>
        <time>2012-12-09T09:18:14.000Z</time>
      </trkpt>
      <trkpt lat="43.4834" lon="6.80026">
        <ele>320.8</ele>
        <time>2012-12-09T09:18:15.000Z</time>
      </trkpt>
      <trkpt lat="43.48342" lon="6.80024">
        <ele>321</ele>
        <time>2012-12-09T09:18:16.000Z</time>
      </trkpt>
      <trkpt lat="43.48344" lon="6.80022">
        <ele>320.5</ele>
        <time>2012-12-09T09:18:17.000Z</time>
      </trkpt>
      <trkpt lat="43.48346" lon="6.8002">
        <ele>320.3</ele>
        <time>2012-12-09T09:18:18.000Z</time>
      </trkpt>
      <trkpt lat="43.48348" lon="6.80018">
        <ele>320.2</ele>
        <time>2012-12-09T09:18:19.000Z</time>
      </trkpt>
      <trkpt lat="43.4835" lon="6.80017">
        <ele>320.1</ele>
        <time>2012-12-09T09:18:20.000Z</time>
      </trkpt>
      <trkpt lat="43.48353" lon="6.80015">
        <ele>319.9</ele>
        <time>2012-12-09T09:18:21.000Z</time>
      </trkpt>
      <trkpt lat="43.48355" lon="6.80013">
        <ele>320.2</ele>
        <time>2012-12-09T09:18:22.000Z</time>
      </trkpt>
      <trkpt lat="43.48357" lon="6.80012">
        <ele>320.4</ele>
        <time>2012-12-09T09:18:23.000Z</time>
      </trkpt>
      <trkpt lat="43.48359" lon="6.80011">
        <ele>320.7</ele>
        <time>2012-12-09T09:18:24.000Z</time>
      </trkpt>
      <trkpt lat="43.48361" lon="6.8001">
        <ele>320.9</ele>
        <time>2012-12-09T09:18:25.000Z</time>
      </trkpt>
      <trkpt lat="43.48364" lon="6.80008">
        <ele>320.9</ele>
        <time>2012-12-09T09:18:26.000Z</time>
      </trkpt>
      <trkpt lat="43.48366" lon="6.80007">
        <ele>320.9</ele>
        <time>2012-12-09T09:18:27.000Z</time>
      </trkpt>
      <trkpt lat="43.48368" lon="6.80006">
        <ele>320.9</ele>
        <time>2012-12-09T09:18:28.000Z</time>
      </trkpt>
      <trkpt lat="43.4837" lon="6.80004">
        <ele>321.1</ele>
        <time>2012-12-09T09:18:29.000Z</time>
      </trkpt>
      <trkpt lat="43.48373" lon="6.80003">
        <ele>321.2</ele>
        <time>2012-12-09T09:18:30.000Z</time>
      </trkpt>
      <trkpt lat="43.48377" lon="6.80001">
        <ele>321.1</ele>
        <time>2012-12-09T09:18:32.000Z</time>
      </trkpt>
      <trkpt lat="43.48379" lon="6.8">
        <ele>321.2</ele>
        <time>2012-12-09T09:18:33.000Z</time>
      </trkpt>
      <trkpt lat="43.48381" lon="6.79998">
        <ele>321.2</ele>
        <time>2012-12-09T09:18:34.000Z</time>
      </trkpt>
      <trkpt lat="43.48383" lon="6.79997">
        <ele>321.3</ele>
        <time>2012-12-09T09:18:35.000Z</time>
      </trkpt>
      <trkpt lat="43.48385" lon="6.79995">
        <ele>321.3</ele>
        <time>2012-12-09T09:18:36.000Z</time>
      </trkpt>
      <trkpt lat="43.48387" lon="6.79993">
        <ele>321.2</ele>
        <time>2012-12-09T09:18:37.000Z</time>
      </trkpt>
      <trkpt lat="43.48389" lon="6.7999">
        <ele>320.8</ele>
        <time>2012-12-09T09:18:38.000Z</time>
      </trkpt>
      <trkpt lat="43.48391" lon="6.79988">
        <ele>320.7</ele>
        <time>2012-12-09T09:18:39.000Z</time>
      </trkpt>
      <trkpt lat="43.48393" lon="6.79982">
        <ele>320.7</ele>
        <time>2012-12-09T09:18:40.000Z</time>
      </trkpt>
      <trkpt lat="43.48394" lon="6.79979">
        <ele>320.9</ele>
        <time>2012-12-09T09:18:41.000Z</time>
      </trkpt>
      <trkpt lat="43.48395" lon="6.79976">
        <ele>321.2</ele>
        <time>2012-12-09T09:18:42.000Z</time>
      </trkpt>
      <trkpt lat="43.48396" lon="6.79973">
        <ele>321.4</ele>
        <time>2012-12-09T09:18:43.000Z</time>
      </trkpt>
      <trkpt lat="43.48397" lon="6.7997">
        <ele>321.4</ele>
        <time>2012-12-09T09:18:44.000Z</time>
      </trkpt>
      <trkpt lat="43.48406" lon="6.79942">
        <ele>323.4</ele>
        <time>2012-12-09T09:18:52.000Z</time>
      </trkpt>
      <trkpt lat="43.48409" lon="6.79941">
        <ele>324.9</ele>
        <time>2012-12-09T09:18:54.000Z</time>
      </trkpt>
      <trkpt lat="43.4841" lon="6.79938">
        <ele>324.9</ele>
        <time>2012-12-09T09:18:55.000Z</time>
      </trkpt>
      <trkpt lat="43.48412" lon="6.79936">
        <ele>324.8</ele>
        <time>2012-12-09T09:18:56.000Z</time>
      </trkpt>
      <trkpt lat="43.48414" lon="6.79934">
        <ele>324.5</ele>
        <time>2012-12-09T09:18:57.000Z</time>
      </trkpt>
      <trkpt lat="43.48417" lon="6.79932">
        <ele>324.1</ele>
        <time>2012-12-09T09:18:58.000Z</time>
      </trkpt>
      <trkpt lat="43.48419" lon="6.79931">
        <ele>323.8</ele>
        <time>2012-12-09T09:18:59.000Z</time>
      </trkpt>
      <trkpt lat="43.48422" lon="6.7993">
        <ele>322.9</ele>
        <time>2012-12-09T09:19:00.000Z</time>
      </trkpt>
      <trkpt lat="43.48424" lon="6.7993">
        <ele>323</ele>
        <time>2012-12-09T09:19:01.000Z</time>
      </trkpt>
      <trkpt lat="43.48427" lon="6.79931">
        <ele>323.6</ele>
        <time>2012-12-09T09:19:02.000Z</time>
      </trkpt>
      <trkpt lat="43.48429" lon="6.79932">
        <ele>324.3</ele>
        <time>2012-12-09T09:19:03.000Z</time>
      </trkpt>
      <trkpt lat="43.48431" lon="6.79934">
        <ele>325</ele>
        <time>2012-12-09T09:19:04.000Z</time>
      </trkpt>
      <trkpt lat="43.48433" lon="6.79937">
        <ele>325.8</ele>
        <time>2012-12-09T09:19:05.000Z</time>
      </trkpt>
      <trkpt lat="43.48436" lon="6.79941">
        <ele>325.9</ele>
        <time>2012-12-09T09:19:07.000Z</time>
      </trkpt>
      <trkpt lat="43.48437" lon="6.79944">
        <ele>325.4</ele>
        <time>2012-12-09T09:19:08.000Z</time>
      </trkpt>
      <trkpt lat="43.48438" lon="6.79947">
        <ele>325.6</ele>
        <time>2012-12-09T09:19:09.000Z</time>
      </trkpt>
      <trkpt lat="43.48439" lon="6.7995">
        <ele>325.9</ele>
        <time>2012-12-09T09:19:10.000Z</time>
      </trkpt>
      <trkpt lat="43.4844" lon="6.79953">
        <ele>325.8</ele>
        <time>2012-12-09T09:19:11.000Z</time>
      </trkpt>
      <trkpt lat="43.48441" lon="6.79956">
        <ele>325.6</ele>
        <time>2012-12-09T09:19:12.000Z</time>
      </trkpt>
      <trkpt lat="43.48443" lon="6.79959">
        <ele>325.8</ele>
        <time>2012-12-09T09:19:13.000Z</time>
      </trkpt>
      <trkpt lat="43.48444" lon="6.79962">
        <ele>326.4</ele>
        <time>2012-12-09T09:19:14.000Z</time>
      </trkpt>
      <trkpt lat="43.48446" lon="6.79964">
        <ele>327</ele>
        <time>2012-12-09T09:19:15.000Z</time>
      </trkpt>
      <trkpt lat="43.48447" lon="6.79967">
        <ele>327.5</ele>
        <time>2012-12-09T09:19:16.000Z</time>
      </trkpt>
      <trkpt lat="43.48449" lon="6.79969">
        <ele>327.8</ele>
        <time>2012-12-09T09:19:17.000Z</time>
      </trkpt>
      <trkpt lat="43.48451" lon="6.79971">
        <ele>327.9</ele>
        <time>2012-12-09T09:19:18.000Z</time>
      </trkpt>
      <trkpt lat="43.48453" lon="6.79973">
        <ele>327.9</ele>
        <time>2012-12-09T09:19:19.000Z</time>
      </trkpt>
      <trkpt lat="43.48455" lon="6.79975">
        <ele>327.9</ele>
        <time>2012-12-09T09:19:20.000Z</time>
      </trkpt>
      <trkpt lat="43.48457" lon="6.79977">
        <ele>328.1</ele>
        <time>2012-12-09T09:19:21.000Z</time>
      </trkpt>
      <trkpt lat="43.48459" lon="6.7998">
        <ele>328.2</ele>
        <time>2012-12-09T09:19:22.000Z</time>
      </trkpt>
      <trkpt lat="43.48461" lon="6.79982">
        <ele>328.5</ele>
        <time>2012-12-09T09:19:23.000Z</time>
      </trkpt>
      <trkpt lat="43.48463" lon="6.79985">
        <ele>328.7</ele>
        <time>2012-12-09T09:19:24.000Z</time>
      </trkpt>
      <trkpt lat="43.48464" lon="6.79987">
        <ele>329</ele>
        <time>2012-12-09T09:19:25.000Z</time>
      </trkpt>
      <trkpt lat="43.48466" lon="6.7999">
        <ele>329.3</ele>
        <time>2012-12-09T09:19:26.000Z</time>
      </trkpt>
      <trkpt lat="43.48468" lon="6.79992">
        <ele>329.1</ele>
        <time>2012-12-09T09:19:27.000Z</time>
      </trkpt>
      <trkpt lat="43.4847" lon="6.79995">
        <ele>329</ele>
        <time>2012-12-09T09:19:28.000Z</time>
      </trkpt>
      <trkpt lat="43.48471" lon="6.79998">
        <ele>329</ele>
        <time>2012-12-09T09:19:29.000Z</time>
      </trkpt>
      <trkpt lat="43.48473" lon="6.8">
        <ele>329</ele>
        <time>2012-12-09T09:19:30.000Z</time>
      </trkpt>
      <trkpt lat="43.48474" lon="6.80003">
        <ele>329.3</ele>
        <time>2012-12-09T09:19:31.000Z</time>
      </trkpt>
      <trkpt lat="43.48476" lon="6.80006">
        <ele>329.5</ele>
        <time>2012-12-09T09:19:32.000Z</time>
      </trkpt>
      <trkpt lat="43.48477" lon="6.80009">
        <ele>329.6</ele>
        <time>2012-12-09T09:19:33.000Z</time>
      </trkpt>
      <trkpt lat="43.48478" lon="6.80013">
        <ele>329.8</ele>
        <time>2012-12-09T09:19:34.000Z</time>
      </trkpt>
      <trkpt lat="43.48479" lon="6.80016">
        <ele>329.9</ele>
        <time>2012-12-09T09:19:35.000Z</time>
      </trkpt>
      <trkpt lat="43.4848" lon="6.80019">
        <ele>330.3</ele>
        <time>2012-12-09T09:19:36.000Z</time>
      </trkpt>
      <trkpt lat="43.4848" lon="6.80023">
        <ele>330.4</ele>
        <time>2012-12-09T09:19:37.000Z</time>
      </trkpt>
      <trkpt lat="43.4848" lon="6.80026">
        <ele>330.7</ele>
        <time>2012-12-09T09:19:38.000Z</time>
      </trkpt>
      <trkpt lat="43.48481" lon="6.80029">
        <ele>331</ele>
        <time>2012-12-09T09:19:39.000Z</time>
      </trkpt>
      <trkpt lat="43.48481" lon="6.80033">
        <ele>330.9</ele>
        <time>2012-12-09T09:19:40.000Z</time>
      </trkpt>
      <trkpt lat="43.48481" lon="6.80036">
        <ele>330.5</ele>
        <time>2012-12-09T09:19:41.000Z</time>
      </trkpt>
      <trkpt lat="43.48482" lon="6.80039">
        <ele>330.6</ele>
        <time>2012-12-09T09:19:42.000Z</time>
      </trkpt>
      <trkpt lat="43.48483" lon="6.80043">
        <ele>330.9</ele>
        <time>2012-12-09T09:19:43.000Z</time>
      </trkpt>
      <trkpt lat="43.48483" lon="6.80046">
        <ele>331.1</ele>
        <time>2012-12-09T09:19:44.000Z</time>
      </trkpt>
      <trkpt lat="43.48484" lon="6.8005">
        <ele>331.2</ele>
        <time>2012-12-09T09:19:45.000Z</time>
      </trkpt>
      <trkpt lat="43.48501" lon="6.80102">
        <ele>332.7</ele>
        <time>2012-12-09T09:20:01.000Z</time>
      </trkpt>
      <trkpt lat="43.48502" lon="6.80105">
        <ele>332.7</ele>
        <time>2012-12-09T09:20:02.000Z</time>
      </trkpt>
      <trkpt lat="43.48504" lon="6.80108">
        <ele>333.1</ele>
        <time>2012-12-09T09:20:03.000Z</time>
      </trkpt>
      <trkpt lat="43.48505" lon="6.80111">
        <ele>333.2</ele>
        <time>2012-12-09T09:20:04.000Z</time>
      </trkpt>
      <trkpt lat="43.48506" lon="6.80114">
        <ele>333.8</ele>
        <time>2012-12-09T09:20:05.000Z</time>
      </trkpt>
      <trkpt lat="43.48507" lon="6.80117">
        <ele>334.6</ele>
        <time>2012-12-09T09:20:06.000Z</time>
      </trkpt>
      <trkpt lat="43.48509" lon="6.8012">
        <ele>335.5</ele>
        <time>2012-12-09T09:20:07.000Z</time>
      </trkpt>
      <trkpt lat="43.4851" lon="6.80123">
        <ele>336.1</ele>
        <time>2012-12-09T09:20:08.000Z</time>
      </trkpt>
      <trkpt lat="43.48511" lon="6.80126">
        <ele>336.8</ele>
        <time>2012-12-09T09:20:09.000Z</time>
      </trkpt>
      <trkpt lat="43.48512" lon="6.80129">
        <ele>337.6</ele>
        <time>2012-12-09T09:20:10.000Z</time>
      </trkpt>
      <trkpt lat="43.48514" lon="6.80132">
        <ele>337.8</ele>
        <time>2012-12-09T09:20:11.000Z</time>
      </trkpt>
      <trkpt lat="43.48516" lon="6.80134">
        <ele>338.1</ele>
        <time>2012-12-09T09:20:12.000Z</time>
      </trkpt>
      <trkpt lat="43.48518" lon="6.80137">
        <ele>338.3</ele>
        <time>2012-12-09T09:20:13.000Z</time>
      </trkpt>
      <trkpt lat="43.4852" lon="6.80139">
        <ele>338.5</ele>
        <time>2012-12-09T09:20:14.000Z</time>
      </trkpt>
      <trkpt lat="43.48521" lon="6.80142">
        <ele>338.8</ele>
        <time>2012-12-09T09:20:15.000Z</time>
      </trkpt>
      <trkpt lat="43.48523" lon="6.80144">
        <ele>339.5</ele>
        <time>2012-12-09T09:20:16.000Z</time>
      </trkpt>
      <trkpt lat="43.48525" lon="6.80147">
        <ele>339.3</ele>
        <time>2012-12-09T09:20:17.000Z</time>
      </trkpt>
      <trkpt lat="43.48526" lon="6.8015">
        <ele>339.3</ele>
        <time>2012-12-09T09:20:18.000Z</time>
      </trkpt>
      <trkpt lat="43.48528" lon="6.80153">
        <ele>339</ele>
        <time>2012-12-09T09:20:19.000Z</time>
      </trkpt>
      <trkpt lat="43.4853" lon="6.80155">
        <ele>339.1</ele>
        <time>2012-12-09T09:20:20.000Z</time>
      </trkpt>
      <trkpt lat="43.48531" lon="6.80158">
        <ele>339.1</ele>
        <time>2012-12-09T09:20:21.000Z</time>
      </trkpt>
      <trkpt lat="43.48533" lon="6.80161">
        <ele>339.2</ele>
        <time>2012-12-09T09:20:22.000Z</time>
      </trkpt>
      <trkpt lat="43.48535" lon="6.80163">
        <ele>339.5</ele>
        <time>2012-12-09T09:20:23.000Z</time>
      </trkpt>
      <trkpt lat="43.48537" lon="6.80166">
        <ele>339.7</ele>
        <time>2012-12-09T09:20:24.000Z</time>
      </trkpt>
      <trkpt lat="43.48539" lon="6.80168">
        <ele>339.9</ele>
        <time>2012-12-09T09:20:25.000Z</time>
      </trkpt>
      <trkpt lat="43.48541" lon="6.80171">
        <ele>339.8</ele>
        <time>2012-12-09T09:20:26.000Z</time>
      </trkpt>
      <trkpt lat="43.48543" lon="6.80174">
        <ele>339.8</ele>
        <time>2012-12-09T09:20:27.000Z</time>
      </trkpt>
      <trkpt lat="43.48545" lon="6.80176">
        <ele>340.1</ele>
        <time>2012-12-09T09:20:28.000Z</time>
      </trkpt>
      <trkpt lat="43.48547" lon="6.80179">
        <ele>340.1</ele>
        <time>2012-12-09T09:20:29.000Z</time>
      </trkpt>
      <trkpt lat="43.48549" lon="6.80181">
        <ele>340.3</ele>
        <time>2012-12-09T09:20:30.000Z</time>
      </trkpt>
      <trkpt lat="43.48551" lon="6.80183">
        <ele>340.6</ele>
        <time>2012-12-09T09:20:31.000Z</time>
      </trkpt>
      <trkpt lat="43.48553" lon="6.80186">
        <ele>340.9</ele>
        <time>2012-12-09T09:20:32.000Z</time>
      </trkpt>
      <trkpt lat="43.48555" lon="6.80188">
        <ele>340.9</ele>
        <time>2012-12-09T09:20:33.000Z</time>
      </trkpt>
      <trkpt lat="43.48557" lon="6.80191">
        <ele>341.1</ele>
        <time>2012-12-09T09:20:34.000Z</time>
      </trkpt>
      <trkpt lat="43.48559" lon="6.80194">
        <ele>341.2</ele>
        <time>2012-12-09T09:20:35.000Z</time>
      </trkpt>
      <trkpt lat="43.48561" lon="6.80196">
        <ele>341.2</ele>
        <time>2012-12-09T09:20:36.000Z</time>
      </trkpt>
      <trkpt lat="43.48563" lon="6.80198">
        <ele>341.2</ele>
        <time>2012-12-09T09:20:37.000Z</time>
      </trkpt>
      <trkpt lat="43.48565" lon="6.80201">
        <ele>341.3</ele>
        <time>2012-12-09T09:20:38.000Z</time>
      </trkpt>
      <trkpt lat="43.48567" lon="6.80203">
        <ele>341.5</ele>
        <time>2012-12-09T09:20:39.000Z</time>
      </trkpt>
      <trkpt lat="43.48569" lon="6.80206">
        <ele>341.3</ele>
        <time>2012-12-09T09:20:40.000Z</time>
      </trkpt>
      <trkpt lat="43.48572" lon="6.80208">
        <ele>341.3</ele>
        <time>2012-12-09T09:20:41.000Z</time>
      </trkpt>
      <trkpt lat="43.48574" lon="6.80211">
        <ele>341.1</ele>
        <time>2012-12-09T09:20:42.000Z</time>
      </trkpt>
      <trkpt lat="43.48576" lon="6.80213">
        <ele>341.2</ele>
        <time>2012-12-09T09:20:43.000Z</time>
      </trkpt>
      <trkpt lat="43.48578" lon="6.80216">
        <ele>341</ele>
        <time>2012-12-09T09:20:44.000Z</time>
      </trkpt>
      <trkpt lat="43.48581" lon="6.80219">
        <ele>341</ele>
        <time>2012-12-09T09:20:45.000Z</time>
      </trkpt>
      <trkpt lat="43.48597" lon="6.80245">
        <ele>334.7</ele>
        <time>2012-12-09T09:20:52.000Z</time>
      </trkpt>
      <trkpt lat="43.48599" lon="6.80246">
        <ele>333.6</ele>
        <time>2012-12-09T09:20:53.000Z</time>
      </trkpt>
      <trkpt lat="43.48601" lon="6.80249">
        <ele>334.4</ele>
        <time>2012-12-09T09:20:54.000Z</time>
      </trkpt>
      <trkpt lat="43.48604" lon="6.8025">
        <ele>336.2</ele>
        <time>2012-12-09T09:20:55.000Z</time>
      </trkpt>
      <trkpt lat="43.48606" lon="6.80253">
        <ele>336.3</ele>
        <time>2012-12-09T09:20:56.000Z</time>
      </trkpt>
      <trkpt lat="43.48609" lon="6.80256">
        <ele>336.5</ele>
        <time>2012-12-09T09:20:57.000Z</time>
      </trkpt>
      <trkpt lat="43.48612" lon="6.80258">
        <ele>338.4</ele>
        <time>2012-12-09T09:20:58.000Z</time>
      </trkpt>
      <trkpt lat="43.48614" lon="6.80259">
        <ele>339.1</ele>
        <time>2012-12-09T09:20:59.000Z</time>
      </trkpt>
      <trkpt lat="43.48616" lon="6.80261">
        <ele>339.6</ele>
        <time>2012-12-09T09:21:00.000Z</time>
      </trkpt>
      <trkpt lat="43.48618" lon="6.80263">
        <ele>340.8</ele>
        <time>2012-12-09T09:21:01.000Z</time>
      </trkpt>
      <trkpt lat="43.48621" lon="6.80266">
        <ele>342.1</ele>
        <time>2012-12-09T09:21:02.000Z</time>
      </trkpt>
      <trkpt lat="43.48623" lon="6.80268">
        <ele>342.6</ele>
        <time>2012-12-09T09:21:03.000Z</time>
      </trkpt>
      <trkpt lat="43.48625" lon="6.8027">
        <ele>343.2</ele>
        <time>2012-12-09T09:21:04.000Z</time>
      </trkpt>
      <trkpt lat="43.48628" lon="6.80272">
        <ele>344.5</ele>
        <time>2012-12-09T09:21:05.000Z</time>
      </trkpt>
      <trkpt lat="43.4863" lon="6.80274">
        <ele>344.7</ele>
        <time>2012-12-09T09:21:06.000Z</time>
      </trkpt>
      <trkpt lat="43.48632" lon="6.80276">
        <ele>345</ele>
        <time>2012-12-09T09:21:07.000Z</time>
      </trkpt>
      <trkpt lat="43.48634" lon="6.80278">
        <ele>344.9</ele>
        <time>2012-12-09T09:21:08.000Z</time>
      </trkpt>
      <trkpt lat="43.48637" lon="6.8028">
        <ele>345</ele>
        <time>2012-12-09T09:21:09.000Z</time>
      </trkpt>
      <trkpt lat="43.48639" lon="6.80282">
        <ele>344.9</ele>
        <time>2012-12-09T09:21:10.000Z</time>
      </trkpt>
      <trkpt lat="43.48641" lon="6.80285">
        <ele>345.3</ele>
        <time>2012-12-09T09:21:11.000Z</time>
      </trkpt>
      <trkpt lat="43.48644" lon="6.80287">
        <ele>346.2</ele>
        <time>2012-12-09T09:21:12.000Z</time>
      </trkpt>
      <trkpt lat="43.48646" lon="6.80289">
        <ele>346.8</ele>
        <time>2012-12-09T09:21:13.000Z</time>
      </trkpt>
      <trkpt lat="43.48649" lon="6.80291">
        <ele>347</ele>
        <time>2012-12-09T09:21:14.000Z</time>
      </trkpt>
      <trkpt lat="43.48651" lon="6.80293">
        <ele>347.2</ele>
        <time>2012-12-09T09:21:15.000Z</time>
      </trkpt>
      <trkpt lat="43.48653" lon="6.80295">
        <ele>347</ele>
        <time>2012-12-09T09:21:16.000Z</time>
      </trkpt>
      <trkpt lat="43.48656" lon="6.80297">
        <ele>346.3</ele>
        <time>2012-12-09T09:21:17.000Z</time>
      </trkpt>
      <trkpt lat="43.48658" lon="6.80299">
        <ele>345.9</ele>
        <time>2012-12-09T09:21:18.000Z</time>
      </trkpt>
      <trkpt lat="43.48661" lon="6.80301">
        <ele>345.4</ele>
        <time>2012-12-09T09:21:19.000Z</time>
      </trkpt>
      <trkpt lat="43.48663" lon="6.80304">
        <ele>345.4</ele>
        <time>2012-12-09T09:21:20.000Z</time>
      </trkpt>
      <trkpt lat="43.48665" lon="6.80306">
        <ele>345.5</ele>
        <time>2012-12-09T09:21:21.000Z</time>
      </trkpt>
      <trkpt lat="43.48667" lon="6.80308">
        <ele>345.7</ele>
        <time>2012-12-09T09:21:22.000Z</time>
      </trkpt>
      <trkpt lat="43.4867" lon="6.80311">
        <ele>345.8</ele>
        <time>2012-12-09T09:21:23.000Z</time>
      </trkpt>
      <trkpt lat="43.48672" lon="6.80314">
        <ele>346</ele>
        <time>2012-12-09T09:21:24.000Z</time>
      </trkpt>
      <trkpt lat="43.48673" lon="6.80317">
        <ele>346.1</ele>
        <time>2012-12-09T09:21:25.000Z</time>
      </trkpt>
      <trkpt lat="43.48675" lon="6.8032">
        <ele>346.1</ele>
        <time>2012-12-09T09:21:26.000Z</time>
      </trkpt>
      <trkpt lat="43.48677" lon="6.80324">
        <ele>346.2</ele>
        <time>2012-12-09T09:21:27.000Z</time>
      </trkpt>
      <trkpt lat="43.48679" lon="6.80327">
        <ele>346.3</ele>
        <time>2012-12-09T09:21:28.000Z</time>
      </trkpt>
      <trkpt lat="43.4868" lon="6.8033">
        <ele>346.5</ele>
        <time>2012-12-09T09:21:29.000Z</time>
      </trkpt>
      <trkpt lat="43.48682" lon="6.80333">
        <ele>346.5</ele>
        <time>2012-12-09T09:21:30.000Z</time>
      </trkpt>
      <trkpt lat="43.48685" lon="6.80335">
        <ele>346.7</ele>
        <time>2012-12-09T09:21:31.000Z</time>
      </trkpt>
      <trkpt lat="43.48687" lon="6.80338">
        <ele>346.7</ele>
        <time>2012-12-09T09:21:32.000Z</time>
      </trkpt>
      <trkpt lat="43.4869" lon="6.8034">
        <ele>346.2</ele>
        <time>2012-12-09T09:21:33.000Z</time>
      </trkpt>
      <trkpt lat="43.48692" lon="6.80341">
        <ele>346.1</ele>
        <time>2012-12-09T09:21:34.000Z</time>
      </trkpt>
      <trkpt lat="43.48695" lon="6.80342">
        <ele>346.7</ele>
        <time>2012-12-09T09:21:35.000Z</time>
      </trkpt>
      <trkpt lat="43.48697" lon="6.80343">
        <ele>347.2</ele>
        <time>2012-12-09T09:21:36.000Z</time>
      </trkpt>
      <trkpt lat="43.487" lon="6.80344">
        <ele>347.5</ele>
        <time>2012-12-09T09:21:37.000Z</time>
      </trkpt>
      <trkpt lat="43.48702" lon="6.80343">
        <ele>347.4</ele>
        <time>2012-12-09T09:21:38.000Z</time>
      </trkpt>
      <trkpt lat="43.48705" lon="6.80344">
        <ele>347.5</ele>
        <time>2012-12-09T09:21:39.000Z</time>
      </trkpt>
      <trkpt lat="43.48707" lon="6.80343">
        <ele>347.5</ele>
        <time>2012-12-09T09:21:40.000Z</time>
      </trkpt>
      <trkpt lat="43.4871" lon="6.80343">
        <ele>347.2</ele>
        <time>2012-12-09T09:21:41.000Z</time>
      </trkpt>
      <trkpt lat="43.48712" lon="6.80342">
        <ele>347.1</ele>
        <time>2012-12-09T09:21:42.000Z</time>
      </trkpt>
      <trkpt lat="43.48714" lon="6.8034">
        <ele>346.9</ele>
        <time>2012-12-09T09:21:43.000Z</time>
      </trkpt>
      <trkpt lat="43.48717" lon="6.80339">
        <ele>346.7</ele>
        <time>2012-12-09T09:21:44.000Z</time>
      </trkpt>
      <trkpt lat="43.48719" lon="6.80337">
        <ele>346.8</ele>
        <time>2012-12-09T09:21:45.000Z</time>
      </trkpt>
      <trkpt lat="43.48744" lon="6.80283">
        <ele>349</ele>
        <time>2012-12-09T09:22:04.000Z</time>
      </trkpt>
      <trkpt lat="43.48745" lon="6.80279">
        <ele>348.8</ele>
        <time>2012-12-09T09:22:05.000Z</time>
      </trkpt>
      <trkpt lat="43.48746" lon="6.80276">
        <ele>348.2</ele>
        <time>2012-12-09T09:22:06.000Z</time>
      </trkpt>
      <trkpt lat="43.48747" lon="6.80272">
        <ele>347.9</ele>
        <time>2012-12-09T09:22:07.000Z</time>
      </trkpt>
      <trkpt lat="43.48748" lon="6.80268">
        <ele>347.7</ele>
        <time>2012-12-09T09:22:08.000Z</time>
      </trkpt>
      <trkpt lat="43.48749" lon="6.80265">
        <ele>347.6</ele>
        <time>2012-12-09T09:22:09.000Z</time>
      </trkpt>
      <trkpt lat="43.4875" lon="6.80262">
        <ele>347.7</ele>
        <time>2012-12-09T09:22:10.000Z</time>
      </trkpt>
      <trkpt lat="43.48751" lon="6.80258">
        <ele>347.8</ele>
        <time>2012-12-09T09:22:11.000Z</time>
      </trkpt>
      <trkpt lat="43.48752" lon="6.80254">
        <ele>348.5</ele>
        <time>2012-12-09T09:22:12.000Z</time>
      </trkpt>
      <trkpt lat="43.48753" lon="6.80251">
        <ele>349.2</ele>
        <time>2012-12-09T09:22:13.000Z</time>
      </trkpt>
      <trkpt lat="43.48754" lon="6.80248">
        <ele>349.3</ele>
        <time>2012-12-09T09:22:14.000Z</time>
      </trkpt>
      <trkpt lat="43.48756" lon="6.80245">
        <ele>349.2</ele>
        <time>2012-12-09T09:22:15.000Z</time>
      </trkpt>
      <trkpt lat="43.48757" lon="6.80241">
        <ele>349.7</ele>
        <time>2012-12-09T09:22:16.000Z</time>
      </trkpt>
      <trkpt lat="43.48758" lon="6.80238">
        <ele>349.8</ele>
        <time>2012-12-09T09:22:17.000Z</time>
      </trkpt>
      <trkpt lat="43.48759" lon="6.80235">
        <ele>349.9</ele>
        <time>2012-12-09T09:22:18.000Z</time>
      </trkpt>
      <trkpt lat="43.4876" lon="6.80231">
        <ele>349.3</ele>
        <time>2012-12-09T09:22:19.000Z</time>
      </trkpt>
      <trkpt lat="43.48761" lon="6.80228">
        <ele>349.8</ele>
        <time>2012-12-09T09:22:20.000Z</time>
      </trkpt>
      <trkpt lat="43.48762" lon="6.80225">
        <ele>350.2</ele>
        <time>2012-12-09T09:22:21.000Z</time>
      </trkpt>
      <trkpt lat="43.48764" lon="6.80222">
        <ele>350.3</ele>
        <time>2012-12-09T09:22:22.000Z</time>
      </trkpt>
      <trkpt lat="43.48765" lon="6.80219">
        <ele>350.3</ele>
        <time>2012-12-09T09:22:23.000Z</time>
      </trkpt>
      <trkpt lat="43.48767" lon="6.80215">
        <ele>350.4</ele>
        <time>2012-12-09T09:22:24.000Z</time>
      </trkpt>
      <trkpt lat="43.48768" lon="6.80212">
        <ele>350.2</ele>
        <time>2012-12-09T09:22:25.000Z</time>
      </trkpt>
      <trkpt lat="43.48769" lon="6.80209">
        <ele>350.6</ele>
        <time>2012-12-09T09:22:26.000Z</time>
      </trkpt>
      <trkpt lat="43.4877" lon="6.80205">
        <ele>350.7</ele>
        <time>2012-12-09T09:22:27.000Z</time>
      </trkpt>
      <trkpt lat="43.48771" lon="6.80202">
        <ele>351</ele>
        <time>2012-12-09T09:22:28.000Z</time>
      </trkpt>
      <trkpt lat="43.48772" lon="6.80199">
        <ele>351.2</ele>
        <time>2012-12-09T09:22:29.000Z</time>
      </trkpt>
      <trkpt lat="43.48773" lon="6.80196">
        <ele>351.5</ele>
        <time>2012-12-09T09:22:30.000Z</time>
      </trkpt>
      <trkpt lat="43.48774" lon="6.80192">
        <ele>351.6</ele>
        <time>2012-12-09T09:22:31.000Z</time>
      </trkpt>
      <trkpt lat="43.48775" lon="6.80189">
        <ele>351.7</ele>
        <time>2012-12-09T09:22:32.000Z</time>
      </trkpt>
      <trkpt lat="43.48775" lon="6.80185">
        <ele>351.5</ele>
        <time>2012-12-09T09:22:33.000Z</time>
      </trkpt>
      <trkpt lat="43.48776" lon="6.80181">
        <ele>351.4</ele>
        <time>2012-12-09T09:22:34.000Z</time>
      </trkpt>
      <trkpt lat="43.48777" lon="6.80177">
        <ele>351.4</ele>
        <time>2012-12-09T09:22:35.000Z</time>
      </trkpt>
      <trkpt lat="43.48778" lon="6.80174">
        <ele>351.4</ele>
        <time>2012-12-09T09:22:36.000Z</time>
      </trkpt>
      <trkpt lat="43.48779" lon="6.8017">
        <ele>351.5</ele>
        <time>2012-12-09T09:22:37.000Z</time>
      </trkpt>
      <trkpt lat="43.4878" lon="6.80166">
        <ele>351.6</ele>
        <time>2012-12-09T09:22:38.000Z</time>
      </trkpt>
      <trkpt lat="43.4878" lon="6.80162">
        <ele>351.7</ele>
        <time>2012-12-09T09:22:39.000Z</time>
      </trkpt>
      <trkpt lat="43.48781" lon="6.80158">
        <ele>352.1</ele>
        <time>2012-12-09T09:22:40.000Z</time>
      </trkpt>
      <trkpt lat="43.48781" lon="6.80155">
        <ele>352.1</ele>
        <time>2012-12-09T09:22:41.000Z</time>
      </trkpt>
      <trkpt lat="43.48782" lon="6.80151">
        <ele>351.8</ele>
        <time>2012-12-09T09:22:42.000Z</time>
      </trkpt>
      <trkpt lat="43.48783" lon="6.80148">
        <ele>351.6</ele>
        <time>2012-12-09T09:22:43.000Z</time>
      </trkpt>
      <trkpt lat="43.48783" lon="6.80144">
        <ele>351.6</ele>
        <time>2012-12-09T09:22:44.000Z</time>
      </trkpt>
      <trkpt lat="43.48783" lon="6.8014">
        <ele>351.8</ele>
        <time>2012-12-09T09:22:45.000Z</time>
      </trkpt>
      <trkpt lat="43.48778" lon="6.80071">
        <ele>353.9</ele>
        <time>2012-12-09T09:23:04.000Z</time>
      </trkpt>
      <trkpt lat="43.48778" lon="6.80067">
        <ele>354.1</ele>
        <time>2012-12-09T09:23:05.000Z</time>
      </trkpt>
      <trkpt lat="43.48777" lon="6.80063">
        <ele>354.6</ele>
        <time>2012-12-09T09:23:06.000Z</time>
      </trkpt>
      <trkpt lat="43.48776" lon="6.80059">
        <ele>355</ele>
        <time>2012-12-09T09:23:07.000Z</time>
      </trkpt>
      <trkpt lat="43.48775" lon="6.80056">
        <ele>355</ele>
        <time>2012-12-09T09:23:08.000Z</time>
      </trkpt>
      <trkpt lat="43.48774" lon="6.80052">
        <ele>355.2</ele>
        <time>2012-12-09T09:23:09.000Z</time>
      </trkpt>
      <trkpt lat="43.48773" lon="6.80049">
        <ele>355.4</ele>
        <time>2012-12-09T09:23:10.000Z</time>
      </trkpt>
      <trkpt lat="43.48771" lon="6.80047">
        <ele>355.6</ele>
        <time>2012-12-09T09:23:11.000Z</time>
      </trkpt>
      <trkpt lat="43.4877" lon="6.80045">
        <ele>355.5</ele>
        <time>2012-12-09T09:23:12.000Z</time>
      </trkpt>
      <trkpt lat="43.48768" lon="6.80042">
        <ele>355.7</ele>
        <time>2012-12-09T09:23:13.000Z</time>
      </trkpt>
      <trkpt lat="43.48766" lon="6.80039">
        <ele>355.3</ele>
        <time>2012-12-09T09:23:14.000Z</time>
      </trkpt>
      <trkpt lat="43.48764" lon="6.80037">
        <ele>355.4</ele>
        <time>2012-12-09T09:23:15.000Z</time>
      </trkpt>
      <trkpt lat="43.48762" lon="6.80034">
        <ele>355.4</ele>
        <time>2012-12-09T09:23:16.000Z</time>
      </trkpt>
      <trkpt lat="43.4876" lon="6.80031">
        <ele>355.3</ele>
        <time>2012-12-09T09:23:17.000Z</time>
      </trkpt>
      <trkpt lat="43.48758" lon="6.80028">
        <ele>355.5</ele>
        <time>2012-12-09T09:23:18.000Z</time>
      </trkpt>
      <trkpt lat="43.48756" lon="6.80025">
        <ele>355.3</ele>
        <time>2012-12-09T09:23:19.000Z</time>
      </trkpt>
      <trkpt lat="43.48755" lon="6.80023">
        <ele>355.4</ele>
        <time>2012-12-09T09:23:20.000Z</time>
      </trkpt>
      <trkpt lat="43.48753" lon="6.8002">
        <ele>355.6</ele>
        <time>2012-12-09T09:23:21.000Z</time>
      </trkpt>
      <trkpt lat="43.48752" lon="6.80017">
        <ele>356</ele>
        <time>2012-12-09T09:23:22.000Z</time>
      </trkpt>
      <trkpt lat="43.4875" lon="6.80014">
        <ele>356.5</ele>
        <time>2012-12-09T09:23:23.000Z</time>
      </trkpt>
      <trkpt lat="43.48749" lon="6.80011">
        <ele>357.1</ele>
        <time>2012-12-09T09:23:24.000Z</time>
      </trkpt>
      <trkpt lat="43.48748" lon="6.80008">
        <ele>357.3</ele>
        <time>2012-12-09T09:23:25.000Z</time>
      </trkpt>
      <trkpt lat="43.48746" lon="6.80005">
        <ele>357.5</ele>
        <time>2012-12-09T09:23:26.000Z</time>
      </trkpt>
      <trkpt lat="43.48744" lon="6.80002">
        <ele>358</ele>
        <time>2012-12-09T09:23:27.000Z</time>
      </trkpt>
      <trkpt lat="43.48743" lon="6.79998">
        <ele>358.6</ele>
        <time>2012-12-09T09:23:28.000Z</time>
      </trkpt>
      <trkpt lat="43.48741" lon="6.79996">
        <ele>359</ele>
        <time>2012-12-09T09:23:29.000Z</time>
      </trkpt>
      <trkpt lat="43.4874" lon="6.79993">
        <ele>359.2</ele>
        <time>2012-12-09T09:23:30.000Z</time>
      </trkpt>
      <trkpt lat="43.48739" lon="6.7999">
        <ele>359.3</ele>
        <time>2012-12-09T09:23:31.000Z</time>
      </trkpt>
      <trkpt lat="43.48737" lon="6.79987">
        <ele>358.9</ele>
        <time>2012-12-09T09:23:32.000Z</time>
      </trkpt>
      <trkpt lat="43.48736" lon="6.79984">
        <ele>358.9</ele>
        <time>2012-12-09T09:23:33.000Z</time>
      </trkpt>
      <trkpt lat="43.48734" lon="6.79981">
        <ele>358.9</ele>
        <time>2012-12-09T09:23:34.000Z</time>
      </trkpt>
      <trkpt lat="43.48733" lon="6.79978">
        <ele>359</ele>
        <time>2012-12-09T09:23:35.000Z</time>
      </trkpt>
      <trkpt lat="43.48731" lon="6.79975">
        <ele>359.4</ele>
        <time>2012-12-09T09:23:36.000Z</time>
      </trkpt>
      <trkpt lat="43.4873" lon="6.79972">
        <ele>359.5</ele>
        <time>2012-12-09T09:23:37.000Z</time>
      </trkpt>
      <trkpt lat="43.48728" lon="6.79969">
        <ele>359.4</ele>
        <time>2012-12-09T09:23:38.000Z</time>
      </trkpt>
      <trkpt lat="43.48727" lon="6.79966">
        <ele>359.4</ele>
        <time>2012-12-09T09:23:39.000Z</time>
      </trkpt>
      <trkpt lat="43.48727" lon="6.79962">
        <ele>359.6</ele>
        <time>2012-12-09T09:23:40.000Z</time>
      </trkpt>
      <trkpt lat="43.48726" lon="6.79959">
        <ele>359.7</ele>
        <time>2012-12-09T09:23:41.000Z</time>
      </trkpt>
      <trkpt lat="43.48726" lon="6.79955">
        <ele>360</ele>
        <time>2012-12-09T09:23:42.000Z</time>
      </trkpt>
      <trkpt lat="43.48725" lon="6.79952">
        <ele>359.9</ele>
        <time>2012-12-09T09:23:43.000Z</time>
      </trkpt>
      <trkpt lat="43.48725" lon="6.79948">
        <ele>360</ele>
        <time>2012-12-09T09:23:44.000Z</time>
      </trkpt>
      <trkpt lat="43.48725" lon="6.79944">
        <ele>360.1</ele>
        <time>2012-12-09T09:23:45.000Z</time>
      </trkpt>
      <trkpt lat="43.48745" lon="6.79874">
        <ele>363.2</ele>
        <time>2012-12-09T09:24:04.000Z</time>
      </trkpt>
      <trkpt lat="43.48747" lon="6.79871">
        <ele>363.5</ele>
        <time>2012-12-09T09:24:05.000Z</time>
      </trkpt>
      <trkpt lat="43.48749" lon="6.79869">
        <ele>364</ele>
        <time>2012-12-09T09:24:06.000Z</time>
      </trkpt>
      <trkpt lat="43.48751" lon="6.79866">
        <ele>364</ele>
        <time>2012-12-09T09:24:07.000Z</time>
      </trkpt>
      <trkpt lat="43.48753" lon="6.79864">
        <ele>363.7</ele>
        <time>2012-12-09T09:24:08.000Z</time>
      </trkpt>
      <trkpt lat="43.48755" lon="6.79862">
        <ele>363.9</ele>
        <time>2012-12-09T09:24:09.000Z</time>
      </trkpt>
      <trkpt lat="43.48757" lon="6.7986">
        <ele>363.8</ele>
        <time>2012-12-09T09:24:10.000Z</time>
      </trkpt>
      <trkpt lat="43.48759" lon="6.79858">
        <ele>363.8</ele>
        <time>2012-12-09T09:24:11.000Z</time>
      </trkpt>
      <trkpt lat="43.48762" lon="6.79856">
        <ele>363.7</ele>
        <time>2012-12-09T09:24:12.000Z</time>
      </trkpt>
      <trkpt lat="43.48765" lon="6.79854">
        <ele>364</ele>
        <time>2012-12-09T09:24:13.000Z</time>
      </trkpt>
      <trkpt lat="43.48767" lon="6.79852">
        <ele>363.7</ele>
        <time>2012-12-09T09:24:14.000Z</time>
      </trkpt>
      <trkpt lat="43.4877" lon="6.79851">
        <ele>364.3</ele>
        <time>2012-12-09T09:24:15.000Z</time>
      </trkpt>
      <trkpt lat="43.48773" lon="6.79849">
        <ele>364.6</ele>
        <time>2012-12-09T09:24:16.000Z</time>
      </trkpt>
      <trkpt lat="43.48775" lon="6.79847">
        <ele>364.5</ele>
        <time>2012-12-09T09:24:17.000Z</time>
      </trkpt>
      <trkpt lat="43.48778" lon="6.79845">
        <ele>364.2</ele>
        <time>2012-12-09T09:24:18.000Z</time>
      </trkpt>
      <trkpt lat="43.4878" lon="6.79843">
        <ele>364.1</ele>
        <time>2012-12-09T09:24:19.000Z</time>
      </trkpt>
      <trkpt lat="43.48782" lon="6.7984">
        <ele>364.3</ele>
        <time>2012-12-09T09:24:20.000Z</time>
      </trkpt>
      <trkpt lat="43.48784" lon="6.79838">
        <ele>364.5</ele>
        <time>2012-12-09T09:24:21.000Z</time>
      </trkpt>
      <trkpt lat="43.48787" lon="6.79835">
        <ele>364.5</ele>
        <time>2012-12-09T09:24:22.000Z</time>
      </trkpt>
      <trkpt lat="43.48789" lon="6.79833">
        <ele>365</ele>
        <time>2012-12-09T09:24:23.000Z</time>
      </trkpt>
      <trkpt lat="43.48791" lon="6.79831">
        <ele>364.9</ele>
        <time>2012-12-09T09:24:24.000Z</time>
      </trkpt>
      <trkpt lat="43.48793" lon="6.79829">
        <ele>364.9</ele>
        <time>2012-12-09T09:24:25.000Z</time>
      </trkpt>
      <trkpt lat="43.48795" lon="6.79827">
        <ele>364.8</ele>
        <time>2012-12-09T09:24:26.000Z</time>
      </trkpt>
      <trkpt lat="43.48797" lon="6.79824">
        <ele>364.9</ele>
        <time>2012-12-09T09:24:27.000Z</time>
      </trkpt>
      <trkpt lat="43.488" lon="6.79822">
        <ele>365</ele>
        <time>2012-12-09T09:24:28.000Z</time>
      </trkpt>
      <trkpt lat="43.48802" lon="6.79819">
        <ele>365</ele>
        <time>2012-12-09T09:24:29.000Z</time>
      </trkpt>
      <trkpt lat="43.48804" lon="6.79817">
        <ele>365.1</ele>
        <time>2012-12-09T09:24:30.000Z</time>
      </trkpt>
      <trkpt lat="43.48806" lon="6.79814">
        <ele>365.2</ele>
        <time>2012-12-09T09:24:31.000Z</time>
      </trkpt>
      <trkpt lat="43.48808" lon="6.79811">
        <ele>365.5</ele>
        <time>2012-12-09T09:24:32.000Z</time>
      </trkpt>
      <trkpt lat="43.4881" lon="6.79809">
        <ele>365.5</ele>
        <time>2012-12-09T09:24:33.000Z</time>
      </trkpt>
      <trkpt lat="43.48812" lon="6.79806">
        <ele>365.5</ele>
        <time>2012-12-09T09:24:34.000Z</time>
      </trkpt>
      <trkpt lat="43.48814" lon="6.79802">
        <ele>365.1</ele>
        <time>2012-12-09T09:24:35.000Z</time>
      </trkpt>
      <trkpt lat="43.48817" lon="6.798">
        <ele>365.2</ele>
        <time>2012-12-09T09:24:36.000Z</time>
      </trkpt>
      <trkpt lat="43.48819" lon="6.79796">
        <ele>365</ele>
        <time>2012-12-09T09:24:37.000Z</time>
      </trkpt>
      <trkpt lat="43.48821" lon="6.79794">
        <ele>364.9</ele>
        <time>2012-12-09T09:24:38.000Z</time>
      </trkpt>
      <trkpt lat="43.48823" lon="6.7979">
        <ele>364.9</ele>
        <time>2012-12-09T09:24:39.000Z</time>
      </trkpt>
      <trkpt lat="43.48824" lon="6.79787">
        <ele>365</ele>
        <time>2012-12-09T09:24:40.000Z</time>
      </trkpt>
      <trkpt lat="43.48826" lon="6.79784">
        <ele>365.2</ele>
        <time>2012-12-09T09:24:41.000Z</time>
      </trkpt>
      <trkpt lat="43.48827" lon="6.79781">
        <ele>365.5</ele>
        <time>2012-12-09T09:24:42.000Z</time>
      </trkpt>
      <trkpt lat="43.48828" lon="6.79777">
        <ele>365.7</ele>
        <time>2012-12-09T09:24:43.000Z</time>
      </trkpt>
      <trkpt lat="43.4883" lon="6.79774">
        <ele>365.7</ele>
        <time>2012-12-09T09:24:44.000Z</time>
      </trkpt>
      <trkpt lat="43.48831" lon="6.7977">
        <ele>365.7</ele>
        <time>2012-12-09T09:24:45.000Z</time>
      </trkpt>
      <trkpt lat="43.48849" lon="6.79708">
        <ele>371.5</ele>
        <time>2012-12-09T09:25:04.000Z</time>
      </trkpt>
      <trkpt lat="43.4885" lon="6.79705">
        <ele>371.1</ele>
        <time>2012-12-09T09:25:05.000Z</time>
      </trkpt>
      <trkpt lat="43.48851" lon="6.79701">
        <ele>371.2</ele>
        <time>2012-12-09T09:25:06.000Z</time>
      </trkpt>
      <trkpt lat="43.48852" lon="6.79698">
        <ele>371.3</ele>
        <time>2012-12-09T09:25:07.000Z</time>
      </trkpt>
      <trkpt lat="43.48853" lon="6.79694">
        <ele>372.2</ele>
        <time>2012-12-09T09:25:08.000Z</time>
      </trkpt>
      <trkpt lat="43.48854" lon="6.7969">
        <ele>372.5</ele>
        <time>2012-12-09T09:25:09.000Z</time>
      </trkpt>
      <trkpt lat="43.48855" lon="6.79687">
        <ele>372.7</ele>
        <time>2012-12-09T09:25:10.000Z</time>
      </trkpt>
      <trkpt lat="43.48856" lon="6.79683">
        <ele>373</ele>
        <time>2012-12-09T09:25:11.000Z</time>
      </trkpt>
      <trkpt lat="43.48856" lon="6.79679">
        <ele>373.1</ele>
        <time>2012-12-09T09:25:12.000Z</time>
      </trkpt>
      <trkpt lat="43.48857" lon="6.79675">
        <ele>373.4</ele>
        <time>2012-12-09T09:25:13.000Z</time>
      </trkpt>
      <trkpt lat="43.48857" lon="6.79672">
        <ele>374</ele>
        <time>2012-12-09T09:25:14.000Z</time>
      </trkpt>
      <trkpt lat="43.48858" lon="6.79666">
        <ele>375.7</ele>
        <time>2012-12-09T09:25:16.000Z</time>
      </trkpt>
      <trkpt lat="43.48859" lon="6.79663">
        <ele>376.1</ele>
        <time>2012-12-09T09:25:17.000Z</time>
      </trkpt>
      <trkpt lat="43.48859" lon="6.79659">
        <ele>376.1</ele>
        <time>2012-12-09T09:25:18.000Z</time>
      </trkpt>
      <trkpt lat="43.4886" lon="6.79655">
        <ele>375.8</ele>
        <time>2012-12-09T09:25:19.000Z</time>
      </trkpt>
      <trkpt lat="43.4886" lon="6.79652">
        <ele>375.9</ele>
        <time>2012-12-09T09:25:20.000Z</time>
      </trkpt>
      <trkpt lat="43.48861" lon="6.79648">
        <ele>376.2</ele>
        <time>2012-12-09T09:25:21.000Z</time>
      </trkpt>
      <trkpt lat="43.48862" lon="6.79645">
        <ele>376.6</ele>
        <time>2012-12-09T09:25:22.000Z</time>
      </trkpt>
      <trkpt lat="43.48863" lon="6.79641">
        <ele>376.7</ele>
        <time>2012-12-09T09:25:23.000Z</time>
      </trkpt>
      <trkpt lat="43.48864" lon="6.79638">
        <ele>376.3</ele>
        <time>2012-12-09T09:25:24.000Z</time>
      </trkpt>
      <trkpt lat="43.48865" lon="6.79635">
        <ele>376.1</ele>
        <time>2012-12-09T09:25:25.000Z</time>
      </trkpt>
      <trkpt lat="43.48866" lon="6.79631">
        <ele>376.2</ele>
        <time>2012-12-09T09:25:26.000Z</time>
      </trkpt>
      <trkpt lat="43.48867" lon="6.79628">
        <ele>376.2</ele>
        <time>2012-12-09T09:25:27.000Z</time>
      </trkpt>
      <trkpt lat="43.48868" lon="6.79625">
        <ele>376.3</ele>
        <time>2012-12-09T09:25:28.000Z</time>
      </trkpt>
      <trkpt lat="43.48869" lon="6.79622">
        <ele>376.2</ele>
        <time>2012-12-09T09:25:29.000Z</time>
      </trkpt>
      <trkpt lat="43.4887" lon="6.79618">
        <ele>376.5</ele>
        <time>2012-12-09T09:25:30.000Z</time>
      </trkpt>
      <trkpt lat="43.48871" lon="6.79615">
        <ele>376.9</ele>
        <time>2012-12-09T09:25:31.000Z</time>
      </trkpt>
      <trkpt lat="43.48872" lon="6.79612">
        <ele>377.2</ele>
        <time>2012-12-09T09:25:32.000Z</time>
      </trkpt>
      <trkpt lat="43.48873" lon="6.79609">
        <ele>377</ele>
        <time>2012-12-09T09:25:33.000Z</time>
      </trkpt>
      <trkpt lat="43.48873" lon="6.79606">
        <ele>376.7</ele>
        <time>2012-12-09T09:25:34.000Z</time>
      </trkpt>
      <trkpt lat="43.48874" lon="6.79603">
        <ele>376.5</ele>
        <time>2012-12-09T09:25:35.000Z</time>
      </trkpt>
      <trkpt lat="43.48875" lon="6.79599">
        <ele>376.4</ele>
        <time>2012-12-09T09:25:36.000Z</time>
      </trkpt>
      <trkpt lat="43.48876" lon="6.79595">
        <ele>376.1</ele>
        <time>2012-12-09T09:25:37.000Z</time>
      </trkpt>
      <trkpt lat="43.48877" lon="6.79592">
        <ele>375.7</ele>
        <time>2012-12-09T09:25:38.000Z</time>
      </trkpt>
      <trkpt lat="43.48878" lon="6.79589">
        <ele>375.8</ele>
        <time>2012-12-09T09:25:39.000Z</time>
      </trkpt>
      <trkpt lat="43.4888" lon="6.79585">
        <ele>375.8</ele>
        <time>2012-12-09T09:25:40.000Z</time>
      </trkpt>
      <trkpt lat="43.48881" lon="6.79582">
        <ele>376</ele>
        <time>2012-12-09T09:25:41.000Z</time>
      </trkpt>
      <trkpt lat="43.48883" lon="6.79578">
        <ele>376.4</ele>
        <time>2012-12-09T09:25:42.000Z</time>
      </trkpt>
      <trkpt lat="43.48884" lon="6.79575">
        <ele>376.5</ele>
        <time>2012-12-09T09:25:43.000Z</time>
      </trkpt>
      <trkpt lat="43.48886" lon="6.79571">
        <ele>376.7</ele>
        <time>2012-12-09T09:25:44.000Z</time>
      </trkpt>
      <trkpt lat="43.48888" lon="6.79568">
        <ele>376.8</ele>
        <time>2012-12-09T09:25:45.000Z</time>
      </trkpt>
      <trkpt lat="43.48933" lon="6.79595">
        <ele>389.4</ele>
        <time>2012-12-09T09:26:04.000Z</time>
      </trkpt>
      <trkpt lat="43.48936" lon="6.79597">
        <ele>389.1</ele>
        <time>2012-12-09T09:26:05.000Z</time>
      </trkpt>
      <trkpt lat="43.48938" lon="6.79599">
        <ele>388.6</ele>
        <time>2012-12-09T09:26:06.000Z</time>
      </trkpt>
      <trkpt lat="43.48941" lon="6.796">
        <ele>388.2</ele>
        <time>2012-12-09T09:26:07.000Z</time>
      </trkpt>
      <trkpt lat="43.48944" lon="6.79601">
        <ele>388.5</ele>
        <time>2012-12-09T09:26:08.000Z</time>
      </trkpt>
      <trkpt lat="43.48947" lon="6.79603">
        <ele>388.6</ele>
        <time>2012-12-09T09:26:09.000Z</time>
      </trkpt>
      <trkpt lat="43.4895" lon="6.79604">
        <ele>388.5</ele>
        <time>2012-12-09T09:26:10.000Z</time>
      </trkpt>
      <trkpt lat="43.48952" lon="6.79605">
        <ele>388.5</ele>
        <time>2012-12-09T09:26:11.000Z</time>
      </trkpt>
      <trkpt lat="43.48955" lon="6.79606">
        <ele>387.7</ele>
        <time>2012-12-09T09:26:12.000Z</time>
      </trkpt>
      <trkpt lat="43.48958" lon="6.79607">
        <ele>386.9</ele>
        <time>2012-12-09T09:26:13.000Z</time>
      </trkpt>
      <trkpt lat="43.48961" lon="6.79608">
        <ele>386</ele>
        <time>2012-12-09T09:26:14.000Z</time>
      </trkpt>
      <trkpt lat="43.48964" lon="6.79608">
        <ele>385.8</ele>
        <time>2012-12-09T09:26:15.000Z</time>
      </trkpt>
      <trkpt lat="43.48967" lon="6.79609">
        <ele>384.7</ele>
        <time>2012-12-09T09:26:16.000Z</time>
      </trkpt>
      <trkpt lat="43.4897" lon="6.79608">
        <ele>383.6</ele>
        <time>2012-12-09T09:26:17.000Z</time>
      </trkpt>
      <trkpt lat="43.48974" lon="6.79608">
        <ele>381.9</ele>
        <time>2012-12-09T09:26:18.000Z</time>
      </trkpt>
      <trkpt lat="43.48977" lon="6.79608">
        <ele>381.6</ele>
        <time>2012-12-09T09:26:19.000Z</time>
      </trkpt>
      <trkpt lat="43.4898" lon="6.79607">
        <ele>380.9</ele>
        <time>2012-12-09T09:26:20.000Z</time>
      </trkpt>
      <trkpt lat="43.48983" lon="6.79606">
        <ele>380.6</ele>
        <time>2012-12-09T09:26:21.000Z</time>
      </trkpt>
      <trkpt lat="43.48986" lon="6.79605">
        <ele>380.4</ele>
        <time>2012-12-09T09:26:22.000Z</time>
      </trkpt>
      <trkpt lat="43.48988" lon="6.79604">
        <ele>380.3</ele>
        <time>2012-12-09T09:26:23.000Z</time>
      </trkpt>
      <trkpt lat="43.48991" lon="6.79602">
        <ele>380.3</ele>
        <time>2012-12-09T09:26:24.000Z</time>
      </trkpt>
      <trkpt lat="43.48994" lon="6.796">
        <ele>380.2</ele>
        <time>2012-12-09T09:26:25.000Z</time>
      </trkpt>
      <trkpt lat="43.48997" lon="6.79599">
        <ele>380.2</ele>
        <time>2012-12-09T09:26:26.000Z</time>
      </trkpt>
      <trkpt lat="43.49" lon="6.79598">
        <ele>380.3</ele>
        <time>2012-12-09T09:26:27.000Z</time>
      </trkpt>
      <trkpt lat="43.49003" lon="6.79597">
        <ele>380.4</ele>
        <time>2012-12-09T09:26:28.000Z</time>
      </trkpt>
      <trkpt lat="43.49006" lon="6.79596">
        <ele>380.4</ele>
        <time>2012-12-09T09:26:29.000Z</time>
      </trkpt>
      <trkpt lat="43.49009" lon="6.79597">
        <ele>380.3</ele>
        <time>2012-12-09T09:26:30.000Z</time>
      </trkpt>
      <trkpt lat="43.49012" lon="6.79598">
        <ele>380.7</ele>
        <time>2012-12-09T09:26:31.000Z</time>
      </trkpt>
      <trkpt lat="43.49015" lon="6.79599">
        <ele>380.6</ele>
        <time>2012-12-09T09:26:32.000Z</time>
      </trkpt>
      <trkpt lat="43.49017" lon="6.79602">
        <ele>380.7</ele>
        <time>2012-12-09T09:26:33.000Z</time>
      </trkpt>
      <trkpt lat="43.4902" lon="6.79605">
        <ele>381.1</ele>
        <time>2012-12-09T09:26:34.000Z</time>
      </trkpt>
      <trkpt lat="43.49021" lon="6.79609">
        <ele>381.3</ele>
        <time>2012-12-09T09:26:35.000Z</time>
      </trkpt>
      <trkpt lat="43.49022" lon="6.79613">
        <ele>381.6</ele>
        <time>2012-12-09T09:26:36.000Z</time>
      </trkpt>
      <trkpt lat="43.49023" lon="6.79618">
        <ele>381.7</ele>
        <time>2012-12-09T09:26:37.000Z</time>
      </trkpt>
      <trkpt lat="43.49023" lon="6.79622">
        <ele>381.9</ele>
        <time>2012-12-09T09:26:38.000Z</time>
      </trkpt>
      <trkpt lat="43.49024" lon="6.79627">
        <ele>382.1</ele>
        <time>2012-12-09T09:26:39.000Z</time>
      </trkpt>
      <trkpt lat="43.49024" lon="6.79631">
        <ele>382.4</ele>
        <time>2012-12-09T09:26:40.000Z</time>
      </trkpt>
      <trkpt lat="43.49024" lon="6.79635">
        <ele>382.5</ele>
        <time>2012-12-09T09:26:41.000Z</time>
      </trkpt>
      <trkpt lat="43.49024" lon="6.79639">
        <ele>382.7</ele>
        <time>2012-12-09T09:26:42.000Z</time>
      </trkpt>
      <trkpt lat="43.49025" lon="6.79643">
        <ele>382.9</ele>
        <time>2012-12-09T09:26:43.000Z</time>
      </trkpt>
      <trkpt lat="43.49026" lon="6.79646">
        <ele>383.1</ele>
        <time>2012-12-09T09:26:44.000Z</time>
      </trkpt>
      <trkpt lat="43.49027" lon="6.7965">
        <ele>383.4</ele>
        <time>2012-12-09T09:26:45.000Z</time>
      </trkpt>
      <trkpt lat="43.4904" lon="6.79688">
        <ele>375</ele>
        <time>2012-12-09T09:26:52.000Z</time>
      </trkpt>
      <trkpt lat="43.49037" lon="6.79695">
        <ele>379.9</ele>
        <time>2012-12-09T09:26:54.000Z</time>
      </trkpt>
      <trkpt lat="43.49037" lon="6.79699">
        <ele>382.4</ele>
        <time>2012-12-09T09:26:55.000Z</time>
      </trkpt>
      <trkpt lat="43.49038" lon="6.79703">
        <ele>384.9</ele>
        <time>2012-12-09T09:26:56.000Z</time>
      </trkpt>
      <trkpt lat="43.49038" lon="6.79706">
        <ele>385.3</ele>
        <time>2012-12-09T09:26:57.000Z</time>
      </trkpt>
      <trkpt lat="43.49037" lon="6.7971">
        <ele>385.3</ele>
        <time>2012-12-09T09:26:58.000Z</time>
      </trkpt>
      <trkpt lat="43.49037" lon="6.79714">
        <ele>385.3</ele>
        <time>2012-12-09T09:26:59.000Z</time>
      </trkpt>
      <trkpt lat="43.49037" lon="6.79717">
        <ele>387</ele>
        <time>2012-12-09T09:27:00.000Z</time>
      </trkpt>
      <trkpt lat="43.49037" lon="6.7972">
        <ele>388</ele>
        <time>2012-12-09T09:27:01.000Z</time>
      </trkpt>
      <trkpt lat="43.49037" lon="6.79723">
        <ele>387.9</ele>
        <time>2012-12-09T09:27:02.000Z</time>
      </trkpt>
      <trkpt lat="43.49038" lon="6.79727">
        <ele>387.5</ele>
        <time>2012-12-09T09:27:03.000Z</time>
      </trkpt>
      <trkpt lat="43.49039" lon="6.7973">
        <ele>387.1</ele>
        <time>2012-12-09T09:27:04.000Z</time>
      </trkpt>
      <trkpt lat="43.4904" lon="6.79734">
        <ele>387.2</ele>
        <time>2012-12-09T09:27:05.000Z</time>
      </trkpt>
      <trkpt lat="43.49041" lon="6.79738">
        <ele>387</ele>
        <time>2012-12-09T09:27:06.000Z</time>
      </trkpt>
      <trkpt lat="43.49042" lon="6.79741">
        <ele>387</ele>
        <time>2012-12-09T09:27:07.000Z</time>
      </trkpt>
      <trkpt lat="43.49043" lon="6.79745">
        <ele>387.5</ele>
        <time>2012-12-09T09:27:08.000Z</time>
      </trkpt>
      <trkpt lat="43.49044" lon="6.79748">
        <ele>387.4</ele>
        <time>2012-12-09T09:27:09.000Z</time>
      </trkpt>
      <trkpt lat="43.49045" lon="6.79752">
        <ele>387.5</ele>
        <time>2012-12-09T09:27:10.000Z</time>
      </trkpt>
      <trkpt lat="43.49047" lon="6.79755">
        <ele>387.6</ele>
        <time>2012-12-09T09:27:11.000Z</time>
      </trkpt>
      <trkpt lat="43.49048" lon="6.79758">
        <ele>387.9</ele>
        <time>2012-12-09T09:27:12.000Z</time>
      </trkpt>
      <trkpt lat="43.4905" lon="6.79762">
        <ele>387.6</ele>
        <time>2012-12-09T09:27:13.000Z</time>
      </trkpt>
      <trkpt lat="43.49051" lon="6.79765">
        <ele>387.3</ele>
        <time>2012-12-09T09:27:14.000Z</time>
      </trkpt>
      <trkpt lat="43.49053" lon="6.79768">
        <ele>387.3</ele>
        <time>2012-12-09T09:27:15.000Z</time>
      </trkpt>
      <trkpt lat="43.49055" lon="6.79771">
        <ele>387.5</ele>
        <time>2012-12-09T09:27:16.000Z</time>
      </trkpt>
      <trkpt lat="43.49057" lon="6.79773">
        <ele>387.2</ele>
        <time>2012-12-09T09:27:17.000Z</time>
      </trkpt>
      <trkpt lat="43.49059" lon="6.79776">
        <ele>387.1</ele>
        <time>2012-12-09T09:27:18.000Z</time>
      </trkpt>
      <trkpt lat="43.49061" lon="6.79779">
        <ele>387.3</ele>
        <time>2012-12-09T09:27:19.000Z</time>
      </trkpt>
      <trkpt lat="43.49063" lon="6.79781">
        <ele>387.6</ele>
        <time>2012-12-09T09:27:20.000Z</time>
      </trkpt>
      <trkpt lat="43.49065" lon="6.79785">
        <ele>387.8</ele>
        <time>2012-12-09T09:27:21.000Z</time>
      </trkpt>
      <trkpt lat="43.49067" lon="6.79788">
        <ele>387.8</ele>
        <time>2012-12-09T09:27:22.000Z</time>
      </trkpt>
      <trkpt lat="43.49069" lon="6.79791">
        <ele>388.3</ele>
        <time>2012-12-09T09:27:23.000Z</time>
      </trkpt>
      <trkpt lat="43.4907" lon="6.79795">
        <ele>388.4</ele>
        <time>2012-12-09T09:27:24.000Z</time>
      </trkpt>
      <trkpt lat="43.49073" lon="6.79798">
        <ele>388.5</ele>
        <time>2012-12-09T09:27:25.000Z</time>
      </trkpt>
      <trkpt lat="43.49075" lon="6.798">
        <ele>388.3</ele>
        <time>2012-12-09T09:27:26.000Z</time>
      </trkpt>
      <trkpt lat="43.49077" lon="6.79803">
        <ele>388.4</ele>
        <time>2012-12-09T09:27:27.000Z</time>
      </trkpt>
      <trkpt lat="43.49079" lon="6.79805">
        <ele>388.6</ele>
        <time>2012-12-09T09:27:28.000Z</time>
      </trkpt>
      <trkpt lat="43.49081" lon="6.79808">
        <ele>388.8</ele>
        <time>2012-12-09T09:27:29.000Z</time>
      </trkpt>
      <trkpt lat="43.49084" lon="6.79811">
        <ele>389.1</ele>
        <time>2012-12-09T09:27:30.000Z</time>
      </trkpt>
      <trkpt lat="43.49086" lon="6.79814">
        <ele>389.2</ele>
        <time>2012-12-09T09:27:31.000Z</time>
      </trkpt>
      <trkpt lat="43.49088" lon="6.79816">
        <ele>389.4</ele>
        <time>2012-12-09T09:27:32.000Z</time>
      </trkpt>
      <trkpt lat="43.49091" lon="6.79819">
        <ele>389.5</ele>
        <time>2012-12-09T09:27:33.000Z</time>
      </trkpt>
      <trkpt lat="43.49093" lon="6.79821">
        <ele>389.8</ele>
        <time>2012-12-09T09:27:34.000Z</time>
      </trkpt>
      <trkpt lat="43.49096" lon="6.79824">
        <ele>390</ele>
        <time>2012-12-09T09:27:35.000Z</time>
      </trkpt>
      <trkpt lat="43.49098" lon="6.79826">
        <ele>390.2</ele>
        <time>2012-12-09T09:27:36.000Z</time>
      </trkpt>
      <trkpt lat="43.491" lon="6.79828">
        <ele>390.6</ele>
        <time>2012-12-09T09:27:37.000Z</time>
      </trkpt>
      <trkpt lat="43.49102" lon="6.79831">
        <ele>391.1</ele>
        <time>2012-12-09T09:27:38.000Z</time>
      </trkpt>
      <trkpt lat="43.49104" lon="6.79834">
        <ele>391.2</ele>
        <time>2012-12-09T09:27:39.000Z</time>
      </trkpt>
      <trkpt lat="43.49107" lon="6.79836">
        <ele>391.3</ele>
        <time>2012-12-09T09:27:40.000Z</time>
      </trkpt>
      <trkpt lat="43.49109" lon="6.79838">
        <ele>391.4</ele>
        <time>2012-12-09T09:27:41.000Z</time>
      </trkpt>
      <trkpt lat="43.49111" lon="6.79841">
        <ele>391.8</ele>
        <time>2012-12-09T09:27:42.000Z</time>
      </trkpt>
      <trkpt lat="43.49113" lon="6.79843">
        <ele>392.2</ele>
        <time>2012-12-09T09:27:43.000Z</time>
      </trkpt>
      <trkpt lat="43.49115" lon="6.79846">
        <ele>392.4</ele>
        <time>2012-12-09T09:27:44.000Z</time>
      </trkpt>
      <trkpt lat="43.49117" lon="6.79849">
        <ele>392.6</ele>
        <time>2012-12-09T09:27:45.000Z</time>
      </trkpt>
      <trkpt lat="43.49119" lon="6.79852">
        <ele>392.8</ele>
        <time>2012-12-09T09:27:46.000Z</time>
      </trkpt>
      <trkpt lat="43.49121" lon="6.79855">
        <ele>393.1</ele>
        <time>2012-12-09T09:27:47.000Z</time>
      </trkpt>
      <trkpt lat="43.49122" lon="6.79858">
        <ele>393.1</ele>
        <time>2012-12-09T09:27:48.000Z</time>
      </trkpt>
      <trkpt lat="43.49124" lon="6.79861">
        <ele>393.5</ele>
        <time>2012-12-09T09:27:49.000Z</time>
      </trkpt>
      <trkpt lat="43.49125" lon="6.79863">
        <ele>393.8</ele>
        <time>2012-12-09T09:27:50.000Z</time>
      </trkpt>
      <trkpt lat="43.49126" lon="6.79867">
        <ele>394.1</ele>
        <time>2012-12-09T09:27:51.000Z</time>
      </trkpt>
      <trkpt lat="43.49128" lon="6.7987">
        <ele>394.1</ele>
        <time>2012-12-09T09:27:52.000Z</time>
      </trkpt>
      <trkpt lat="43.49129" lon="6.79874">
        <ele>393.9</ele>
        <time>2012-12-09T09:27:53.000Z</time>
      </trkpt>
      <trkpt lat="43.4913" lon="6.79877">
        <ele>393.9</ele>
        <time>2012-12-09T09:27:54.000Z</time>
      </trkpt>
      <trkpt lat="43.49131" lon="6.7988">
        <ele>394.2</ele>
        <time>2012-12-09T09:27:55.000Z</time>
      </trkpt>
      <trkpt lat="43.49133" lon="6.79883">
        <ele>394.2</ele>
        <time>2012-12-09T09:27:56.000Z</time>
      </trkpt>
      <trkpt lat="43.49134" lon="6.79887">
        <ele>394.2</ele>
        <time>2012-12-09T09:27:57.000Z</time>
      </trkpt>
      <trkpt lat="43.49135" lon="6.7989">
        <ele>394.3</ele>
        <time>2012-12-09T09:27:58.000Z</time>
      </trkpt>
      <trkpt lat="43.49136" lon="6.79894">
        <ele>394.7</ele>
        <time>2012-12-09T09:27:59.000Z</time>
      </trkpt>
      <trkpt lat="43.49137" lon="6.79897">
        <ele>395</ele>
        <time>2012-12-09T09:28:00.000Z</time>
      </trkpt>
      <trkpt lat="43.49138" lon="6.799">
        <ele>395.1</ele>
        <time>2012-12-09T09:28:01.000Z</time>
      </trkpt>
      <trkpt lat="43.49139" lon="6.79904">
        <ele>395.1</ele>
        <time>2012-12-09T09:28:02.000Z</time>
      </trkpt>
      <trkpt lat="43.4914" lon="6.79907">
        <ele>395</ele>
        <time>2012-12-09T09:28:03.000Z</time>
      </trkpt>
      <trkpt lat="43.49141" lon="6.7991">
        <ele>395.2</ele>
        <time>2012-12-09T09:28:04.000Z</time>
      </trkpt>
      <trkpt lat="43.49142" lon="6.79913">
        <ele>395.4</ele>
        <time>2012-12-09T09:28:05.000Z</time>
      </trkpt>
      <trkpt lat="43.49143" lon="6.79915">
        <ele>395.6</ele>
        <time>2012-12-09T09:28:06.000Z</time>
      </trkpt>
      <trkpt lat="43.49144" lon="6.79918">
        <ele>395.7</ele>
        <time>2012-12-09T09:28:07.000Z</time>
      </trkpt>
      <trkpt lat="43.49145" lon="6.79922">
        <ele>396</ele>
        <time>2012-12-09T09:28:08.000Z</time>
      </trkpt>
      <trkpt lat="43.49146" lon="6.79925">
        <ele>396.1</ele>
        <time>2012-12-09T09:28:09.000Z</time>
      </trkpt>
      <trkpt lat="43.49147" lon="6.79929">
        <ele>396.2</ele>
        <time>2012-12-09T09:28:10.000Z</time>
      </trkpt>
      <trkpt lat="43.49148" lon="6.79932">
        <ele>396.3</ele>
        <time>2012-12-09T09:28:11.000Z</time>
      </trkpt>
      <trkpt lat="43.49148" lon="6.79936">
        <ele>396.8</ele>
        <time>2012-12-09T09:28:12.000Z</time>
      </trkpt>
      <trkpt lat="43.49149" lon="6.7994">
        <ele>397.1</ele>
        <time>2012-12-09T09:28:13.000Z</time>
      </trkpt>
      <trkpt lat="43.49149" lon="6.79943">
        <ele>397.4</ele>
        <time>2012-12-09T09:28:14.000Z</time>
      </trkpt>
      <trkpt lat="43.4915" lon="6.79947">
        <ele>397.6</ele>
        <time>2012-12-09T09:28:15.000Z</time>
      </trkpt>
      <trkpt lat="43.4915" lon="6.7995">
        <ele>397.7</ele>
        <time>2012-12-09T09:28:16.000Z</time>
      </trkpt>
      <trkpt lat="43.49151" lon="6.79954">
        <ele>397.9</ele>
        <time>2012-12-09T09:28:17.000Z</time>
      </trkpt>
      <trkpt lat="43.49151" lon="6.79957">
        <ele>397.9</ele>
        <time>2012-12-09T09:28:18.000Z</time>
      </trkpt>
      <trkpt lat="43.49153" lon="6.79961">
        <ele>397.4</ele>
        <time>2012-12-09T09:28:20.000Z</time>
      </trkpt>
      <trkpt lat="43.49154" lon="6.79964">
        <ele>397.2</ele>
        <time>2012-12-09T09:28:21.000Z</time>
      </trkpt>
      <trkpt lat="43.49155" lon="6.79967">
        <ele>397.3</ele>
        <time>2012-12-09T09:28:22.000Z</time>
      </trkpt>
      <trkpt lat="43.49156" lon="6.7997">
        <ele>397.1</ele>
        <time>2012-12-09T09:28:23.000Z</time>
      </trkpt>
      <trkpt lat="43.49158" lon="6.79975">
        <ele>397</ele>
        <time>2012-12-09T09:28:25.000Z</time>
      </trkpt>
      <trkpt lat="43.49159" lon="6.79977">
        <ele>396.9</ele>
        <time>2012-12-09T09:28:26.000Z</time>
      </trkpt>
      <trkpt lat="43.49161" lon="6.79982">
        <ele>397</ele>
        <time>2012-12-09T09:28:28.000Z</time>
      </trkpt>
      <trkpt lat="43.49162" lon="6.79984">
        <ele>397.1</ele>
        <time>2012-12-09T09:28:29.000Z</time>
      </trkpt>
      <trkpt lat="43.49165" lon="6.79987">
        <ele>397.3</ele>
        <time>2012-12-09T09:28:31.000Z</time>
      </trkpt>
      <trkpt lat="43.49167" lon="6.79988">
        <ele>397.4</ele>
        <time>2012-12-09T09:28:32.000Z</time>
      </trkpt>
      <trkpt lat="43.49171" lon="6.79989">
        <ele>397.6</ele>
        <time>2012-12-09T09:28:34.000Z</time>
      </trkpt>
      <trkpt lat="43.49173" lon="6.7999">
        <ele>397.8</ele>
        <time>2012-12-09T09:28:35.000Z</time>
      </trkpt>
      <trkpt lat="43.49175" lon="6.7999">
        <ele>398</ele>
        <time>2012-12-09T09:28:36.000Z</time>
      </trkpt>
      <trkpt lat="43.49178" lon="6.7999">
        <ele>398.1</ele>
        <time>2012-12-09T09:28:37.000Z</time>
      </trkpt>
      <trkpt lat="43.4918" lon="6.7999">
        <ele>397.9</ele>
        <time>2012-12-09T09:28:38.000Z</time>
      </trkpt>
      <trkpt lat="43.49182" lon="6.7999">
        <ele>398.1</ele>
        <time>2012-12-09T09:28:39.000Z</time>
      </trkpt>
      <trkpt lat="43.49187" lon="6.79991">
        <ele>398.4</ele>
        <time>2012-12-09T09:28:41.000Z</time>
      </trkpt>
      <trkpt lat="43.49189" lon="6.79992">
        <ele>398.5</ele>
        <time>2012-12-09T09:28:42.000Z</time>
      </trkpt>
      <trkpt lat="43.49193" lon="6.79993">
        <ele>398.8</ele>
        <time>2012-12-09T09:28:44.000Z</time>
      </trkpt>
      <trkpt lat="43.49194" lon="6.79994">
        <ele>398.9</ele>
        <time>2012-12-09T09:28:45.000Z</time>
      </trkpt>
      <trkpt lat="43.49196" lon="6.79995">
        <ele>398.8</ele>
        <time>2012-12-09T09:28:46.000Z</time>
      </trkpt>
      <trkpt lat="43.49239" lon="6.80024">
        <ele>412.3</ele>
        <time>2012-12-09T09:29:05.000Z</time>
      </trkpt>
      <trkpt lat="43.49242" lon="6.80025">
        <ele>412.1</ele>
        <time>2012-12-09T09:29:06.000Z</time>
      </trkpt>
      <trkpt lat="43.49245" lon="6.80025">
        <ele>411.9</ele>
        <time>2012-12-09T09:29:07.000Z</time>
      </trkpt>
      <trkpt lat="43.49247" lon="6.80025">
        <ele>411.6</ele>
        <time>2012-12-09T09:29:08.000Z</time>
      </trkpt>
      <trkpt lat="43.4925" lon="6.80025">
        <ele>411</ele>
        <time>2012-12-09T09:29:09.000Z</time>
      </trkpt>
      <trkpt lat="43.49253" lon="6.80025">
        <ele>410.6</ele>
        <time>2012-12-09T09:29:10.000Z</time>
      </trkpt>
      <trkpt lat="43.49255" lon="6.80024">
        <ele>410.7</ele>
        <time>2012-12-09T09:29:11.000Z</time>
      </trkpt>
      <trkpt lat="43.49257" lon="6.80023">
        <ele>411.2</ele>
        <time>2012-12-09T09:29:12.000Z</time>
      </trkpt>
      <trkpt lat="43.4926" lon="6.80023">
        <ele>411.7</ele>
        <time>2012-12-09T09:29:13.000Z</time>
      </trkpt>
      <trkpt lat="43.49262" lon="6.80021">
        <ele>411.9</ele>
        <time>2012-12-09T09:29:14.000Z</time>
      </trkpt>
      <trkpt lat="43.49264" lon="6.8002">
        <ele>411.9</ele>
        <time>2012-12-09T09:29:15.000Z</time>
      </trkpt>
      <trkpt lat="43.49266" lon="6.80018">
        <ele>412.3</ele>
        <time>2012-12-09T09:29:16.000Z</time>
      </trkpt>
      <trkpt lat="43.49268" lon="6.80017">
        <ele>412.5</ele>
        <time>2012-12-09T09:29:17.000Z</time>
      </trkpt>
      <trkpt lat="43.49271" lon="6.80015">
        <ele>412.6</ele>
        <time>2012-12-09T09:29:18.000Z</time>
      </trkpt>
      <trkpt lat="43.49273" lon="6.80014">
        <ele>412.7</ele>
        <time>2012-12-09T09:29:19.000Z</time>
      </trkpt>
      <trkpt lat="43.49276" lon="6.80013">
        <ele>411.7</ele>
        <time>2012-12-09T09:29:20.000Z</time>
      </trkpt>
      <trkpt lat="43.49279" lon="6.80013">
        <ele>411.7</ele>
        <time>2012-12-09T09:29:21.000Z</time>
      </trkpt>
      <trkpt lat="43.49282" lon="6.80013">
        <ele>411.5</ele>
        <time>2012-12-09T09:29:22.000Z</time>
      </trkpt>
      <trkpt lat="43.49285" lon="6.80012">
        <ele>411.2</ele>
        <time>2012-12-09T09:29:23.000Z</time>
      </trkpt>
      <trkpt lat="43.49288" lon="6.80011">
        <ele>411</ele>
        <time>2012-12-09T09:29:24.000Z</time>
      </trkpt>
      <trkpt lat="43.49291" lon="6.80011">
        <ele>410.8</ele>
        <time>2012-12-09T09:29:25.000Z</time>
      </trkpt>
      <trkpt lat="43.49294" lon="6.8001">
        <ele>411</ele>
        <time>2012-12-09T09:29:26.000Z</time>
      </trkpt>
      <trkpt lat="43.49297" lon="6.80011">
        <ele>410.8</ele>
        <time>2012-12-09T09:29:27.000Z</time>
      </trkpt>
      <trkpt lat="43.493" lon="6.80011">
        <ele>410.8</ele>
        <time>2012-12-09T09:29:28.000Z</time>
      </trkpt>
      <trkpt lat="43.49302" lon="6.80012">
        <ele>410.9</ele>
        <time>2012-12-09T09:29:29.000Z</time>
      </trkpt>
      <trkpt lat="43.49305" lon="6.80012">
        <ele>410.4</ele>
        <time>2012-12-09T09:29:30.000Z</time>
      </trkpt>
      <trkpt lat="43.49307" lon="6.80012">
        <ele>410.4</ele>
        <time>2012-12-09T09:29:31.000Z</time>
      </trkpt>
      <trkpt lat="43.4931" lon="6.80014">
        <ele>410.3</ele>
        <time>2012-12-09T09:29:32.000Z</time>
      </trkpt>
      <trkpt lat="43.49312" lon="6.80015">
        <ele>410.2</ele>
        <time>2012-12-09T09:29:33.000Z</time>
      </trkpt>
      <trkpt lat="43.49314" lon="6.80017">
        <ele>409.8</ele>
        <time>2012-12-09T09:29:34.000Z</time>
      </trkpt>
      <trkpt lat="43.49316" lon="6.80018">
        <ele>409.9</ele>
        <time>2012-12-09T09:29:35.000Z</time>
      </trkpt>
      <trkpt lat="43.49319" lon="6.8002">
        <ele>410.1</ele>
        <time>2012-12-09T09:29:36.000Z</time>
      </trkpt>
      <trkpt lat="43.49321" lon="6.80021">
        <ele>410.1</ele>
        <time>2012-12-09T09:29:37.000Z</time>
      </trkpt>
      <trkpt lat="43.49324" lon="6.80023">
        <ele>410</ele>
        <time>2012-12-09T09:29:38.000Z</time>
      </trkpt>
      <trkpt lat="43.49326" lon="6.80025">
        <ele>410.1</ele>
        <time>2012-12-09T09:29:39.000Z</time>
      </trkpt>
      <trkpt lat="43.49328" lon="6.80027">
        <ele>410.4</ele>
        <time>2012-12-09T09:29:40.000Z</time>
      </trkpt>
      <trkpt lat="43.49331" lon="6.80029">
        <ele>410.8</ele>
        <time>2012-12-09T09:29:41.000Z</time>
      </trkpt>
      <trkpt lat="43.49333" lon="6.8003">
        <ele>411</ele>
        <time>2012-12-09T09:29:42.000Z</time>
      </trkpt>
      <trkpt lat="43.49336" lon="6.80032">
        <ele>411.1</ele>
        <time>2012-12-09T09:29:43.000Z</time>
      </trkpt>
      <trkpt lat="43.49338" lon="6.80034">
        <ele>411.1</ele>
        <time>2012-12-09T09:29:44.000Z</time>
      </trkpt>
      <trkpt lat="43.49341" lon="6.80036">
        <ele>411.1</ele>
        <time>2012-12-09T09:29:45.000Z</time>
      </trkpt>
      <trkpt lat="43.49343" lon="6.80038">
        <ele>411.1</ele>
        <time>2012-12-09T09:29:46.000Z</time>
      </trkpt>
      <trkpt lat="43.49346" lon="6.80039">
        <ele>411.2</ele>
        <time>2012-12-09T09:29:47.000Z</time>
      </trkpt>
      <trkpt lat="43.49348" lon="6.80041">
        <ele>411.5</ele>
        <time>2012-12-09T09:29:48.000Z</time>
      </trkpt>
      <trkpt lat="43.49351" lon="6.80043">
        <ele>411.5</ele>
        <time>2012-12-09T09:29:49.000Z</time>
      </trkpt>
      <trkpt lat="43.49353" lon="6.80045">
        <ele>411.4</ele>
        <time>2012-12-09T09:29:50.000Z</time>
      </trkpt>
      <trkpt lat="43.49356" lon="6.80047">
        <ele>411.5</ele>
        <time>2012-12-09T09:29:51.000Z</time>
      </trkpt>
      <trkpt lat="43.49358" lon="6.80049">
        <ele>411.6</ele>
        <time>2012-12-09T09:29:52.000Z</time>
      </trkpt>
      <trkpt lat="43.49361" lon="6.80051">
        <ele>411.4</ele>
        <time>2012-12-09T09:29:53.000Z</time>
      </trkpt>
      <trkpt lat="43.49363" lon="6.80053">
        <ele>411.4</ele>
        <time>2012-12-09T09:29:54.000Z</time>
      </trkpt>
      <trkpt lat="43.49365" lon="6.80055">
        <ele>411.5</ele>
        <time>2012-12-09T09:29:55.000Z</time>
      </trkpt>
      <trkpt lat="43.49368" lon="6.80058">
        <ele>411.9</ele>
        <time>2012-12-09T09:29:56.000Z</time>
      </trkpt>
      <trkpt lat="43.4937" lon="6.8006">
        <ele>411.9</ele>
        <time>2012-12-09T09:29:57.000Z</time>
      </trkpt>
      <trkpt lat="43.49373" lon="6.80061">
        <ele>412</ele>
        <time>2012-12-09T09:29:58.000Z</time>
      </trkpt>
      <trkpt lat="43.49375" lon="6.80063">
        <ele>412</ele>
        <time>2012-12-09T09:29:59.000Z</time>
      </trkpt>
      <trkpt lat="43.49378" lon="6.80064">
        <ele>411.9</ele>
        <time>2012-12-09T09:30:00.000Z</time>
      </trkpt>
      <trkpt lat="43.4938" lon="6.80066">
        <ele>412.1</ele>
        <time>2012-12-09T09:30:01.000Z</time>
      </trkpt>
      <trkpt lat="43.49382" lon="6.80069">
        <ele>412.3</ele>
        <time>2012-12-09T09:30:02.000Z</time>
      </trkpt>
      <trkpt lat="43.49384" lon="6.80071">
        <ele>412.4</ele>
        <time>2012-12-09T09:30:03.000Z</time>
      </trkpt>
      <trkpt lat="43.49386" lon="6.80073">
        <ele>412.4</ele>
        <time>2012-12-09T09:30:04.000Z</time>
      </trkpt>
      <trkpt lat="43.49388" lon="6.80075">
        <ele>412.3</ele>
        <time>2012-12-09T09:30:05.000Z</time>
      </trkpt>
      <trkpt lat="43.49391" lon="6.80077">
        <ele>412.3</ele>
        <time>2012-12-09T09:30:06.000Z</time>
      </trkpt>
      <trkpt lat="43.49393" lon="6.80078">
        <ele>412.1</ele>
        <time>2012-12-09T09:30:07.000Z</time>
      </trkpt>
      <trkpt lat="43.49395" lon="6.8008">
        <ele>412</ele>
        <time>2012-12-09T09:30:08.000Z</time>
      </trkpt>
      <trkpt lat="43.49397" lon="6.80083">
        <ele>412.2</ele>
        <time>2012-12-09T09:30:09.000Z</time>
      </trkpt>
      <trkpt lat="43.49399" lon="6.80084">
        <ele>412.2</ele>
        <time>2012-12-09T09:30:10.000Z</time>
      </trkpt>
      <trkpt lat="43.49401" lon="6.80087">
        <ele>412.4</ele>
        <time>2012-12-09T09:30:11.000Z</time>
      </trkpt>
      <trkpt lat="43.49402" lon="6.80089">
        <ele>412.6</ele>
        <time>2012-12-09T09:30:12.000Z</time>
      </trkpt>
      <trkpt lat="43.49404" lon="6.80092">
        <ele>412.7</ele>
        <time>2012-12-09T09:30:13.000Z</time>
      </trkpt>
      <trkpt lat="43.49405" lon="6.80095">
        <ele>412.6</ele>
        <time>2012-12-09T09:30:14.000Z</time>
      </trkpt>
      <trkpt lat="43.49407" lon="6.80098">
        <ele>412.5</ele>
        <time>2012-12-09T09:30:15.000Z</time>
      </trkpt>
      <trkpt lat="43.49408" lon="6.80101">
        <ele>412.3</ele>
        <time>2012-12-09T09:30:16.000Z</time>
      </trkpt>
      <trkpt lat="43.49408" lon="6.80104">
        <ele>412.3</ele>
        <time>2012-12-09T09:30:17.000Z</time>
      </trkpt>
      <trkpt lat="43.49409" lon="6.80107">
        <ele>412.5</ele>
        <time>2012-12-09T09:30:18.000Z</time>
      </trkpt>
      <trkpt lat="43.49409" lon="6.80111">
        <ele>412.5</ele>
        <time>2012-12-09T09:30:19.000Z</time>
      </trkpt>
      <trkpt lat="43.49409" lon="6.80115">
        <ele>412.9</ele>
        <time>2012-12-09T09:30:20.000Z</time>
      </trkpt>
      <trkpt lat="43.4941" lon="6.80119">
        <ele>413</ele>
        <time>2012-12-09T09:30:21.000Z</time>
      </trkpt>
      <trkpt lat="43.4941" lon="6.80123">
        <ele>413.1</ele>
        <time>2012-12-09T09:30:22.000Z</time>
      </trkpt>
      <trkpt lat="43.49411" lon="6.80127">
        <ele>413.3</ele>
        <time>2012-12-09T09:30:23.000Z</time>
      </trkpt>
      <trkpt lat="43.49412" lon="6.80132">
        <ele>413.4</ele>
        <time>2012-12-09T09:30:24.000Z</time>
      </trkpt>
      <trkpt lat="43.49412" lon="6.80136">
        <ele>413.3</ele>
        <time>2012-12-09T09:30:25.000Z</time>
      </trkpt>
      <trkpt lat="43.49412" lon="6.8014">
        <ele>413.2</ele>
        <time>2012-12-09T09:30:26.000Z</time>
      </trkpt>
      <trkpt lat="43.49413" lon="6.80144">
        <ele>413</ele>
        <time>2012-12-09T09:30:27.000Z</time>
      </trkpt>
      <trkpt lat="43.49413" lon="6.80148">
        <ele>413.1</ele>
        <time>2012-12-09T09:30:28.000Z</time>
      </trkpt>
      <trkpt lat="43.49414" lon="6.80152">
        <ele>413</ele>
        <time>2012-12-09T09:30:29.000Z</time>
      </trkpt>
      <trkpt lat="43.49415" lon="6.80156">
        <ele>413</ele>
        <time>2012-12-09T09:30:30.000Z</time>
      </trkpt>
      <trkpt lat="43.49415" lon="6.8016">
        <ele>412.9</ele>
        <time>2012-12-09T09:30:31.000Z</time>
      </trkpt>
      <trkpt lat="43.49417" lon="6.80164">
        <ele>413.1</ele>
        <time>2012-12-09T09:30:32.000Z</time>
      </trkpt>
      <trkpt lat="43.49417" lon="6.80167">
        <ele>413.2</ele>
        <time>2012-12-09T09:30:33.000Z</time>
      </trkpt>
      <trkpt lat="43.49418" lon="6.80171">
        <ele>413.2</ele>
        <time>2012-12-09T09:30:34.000Z</time>
      </trkpt>
      <trkpt lat="43.4942" lon="6.80174">
        <ele>413.1</ele>
        <time>2012-12-09T09:30:35.000Z</time>
      </trkpt>
      <trkpt lat="43.49421" lon="6.80177">
        <ele>413</ele>
        <time>2012-12-09T09:30:36.000Z</time>
      </trkpt>
      <trkpt lat="43.49423" lon="6.80181">
        <ele>413</ele>
        <time>2012-12-09T09:30:37.000Z</time>
      </trkpt>
      <trkpt lat="43.49424" lon="6.80184">
        <ele>412.9</ele>
        <time>2012-12-09T09:30:38.000Z</time>
      </trkpt>
      <trkpt lat="43.49426" lon="6.80186">
        <ele>412.9</ele>
        <time>2012-12-09T09:30:39.000Z</time>
      </trkpt>
      <trkpt lat="43.49428" lon="6.80188">
        <ele>412.6</ele>
        <time>2012-12-09T09:30:40.000Z</time>
      </trkpt>
      <trkpt lat="43.4943" lon="6.80191">
        <ele>412.8</ele>
        <time>2012-12-09T09:30:41.000Z</time>
      </trkpt>
      <trkpt lat="43.49432" lon="6.80193">
        <ele>413.3</ele>
        <time>2012-12-09T09:30:42.000Z</time>
      </trkpt>
      <trkpt lat="43.49433" lon="6.80195">
        <ele>413.8</ele>
        <time>2012-12-09T09:30:43.000Z</time>
      </trkpt>
      <trkpt lat="43.49437" lon="6.80198">
        <ele>413.9</ele>
        <time>2012-12-09T09:30:45.000Z</time>
      </trkpt>
      <trkpt lat="43.49439" lon="6.80199">
        <ele>413.9</ele>
        <time>2012-12-09T09:30:46.000Z</time>
      </trkpt>
      <trkpt lat="43.49578" lon="6.8018">
        <ele>421</ele>
        <time>2012-12-09T09:31:53.000Z</time>
      </trkpt>
      <trkpt lat="43.4958" lon="6.80184">
        <ele>418</ele>
        <time>2012-12-09T09:31:56.000Z</time>
      </trkpt>
      <trkpt lat="43.49581" lon="6.80186">
        <ele>418.1</ele>
        <time>2012-12-09T09:31:57.000Z</time>
      </trkpt>
      <trkpt lat="43.49582" lon="6.80189">
        <ele>415.8</ele>
        <time>2012-12-09T09:32:46.000Z</time>
      </trkpt>
      <trkpt lat="43.49583" lon="6.80196">
        <ele>402.3</ele>
        <time>2012-12-09T09:32:54.000Z</time>
      </trkpt>
      <trkpt lat="43.49583" lon="6.80196">
        <ele>402.3</ele>
        <time>2012-12-09T09:33:46.000Z</time>
      </trkpt>
      <trkpt lat="43.49579" lon="6.80187">
        <ele>399.4</ele>
        <time>2012-12-09T09:34:04.000Z</time>
      </trkpt>
      <trkpt lat="43.49581" lon="6.80183">
        <ele>417.1</ele>
        <time>2012-12-09T09:34:10.000Z</time>
      </trkpt>
      <trkpt lat="43.4958" lon="6.80181">
        <ele>417.6</ele>
        <time>2012-12-09T09:34:11.000Z</time>
      </trkpt>
      <trkpt lat="43.4958" lon="6.80179">
        <ele>418.1</ele>
        <time>2012-12-09T09:34:12.000Z</time>
      </trkpt>
      <trkpt lat="43.49579" lon="6.80176">
        <ele>418.5</ele>
        <time>2012-12-09T09:34:13.000Z</time>
      </trkpt>
      <trkpt lat="43.49576" lon="6.8017">
        <ele>419</ele>
        <time>2012-12-09T09:34:15.000Z</time>
      </trkpt>
      <trkpt lat="43.49574" lon="6.8017">
        <ele>418.5</ele>
        <time>2012-12-09T09:34:16.000Z</time>
      </trkpt>
      <trkpt lat="43.49572" lon="6.8017">
        <ele>417.9</ele>
        <time>2012-12-09T09:34:17.000Z</time>
      </trkpt>
      <trkpt lat="43.49569" lon="6.8017">
        <ele>417.6</ele>
        <time>2012-12-09T09:34:18.000Z</time>
      </trkpt>
      <trkpt lat="43.49566" lon="6.80169">
        <ele>417.2</ele>
        <time>2012-12-09T09:34:19.000Z</time>
      </trkpt>
      <trkpt lat="43.49563" lon="6.80168">
        <ele>417</ele>
        <time>2012-12-09T09:34:20.000Z</time>
      </trkpt>
      <trkpt lat="43.4956" lon="6.80168">
        <ele>416.4</ele>
        <time>2012-12-09T09:34:21.000Z</time>
      </trkpt>
      <trkpt lat="43.49558" lon="6.80168">
        <ele>416.3</ele>
        <time>2012-12-09T09:34:22.000Z</time>
      </trkpt>
      <trkpt lat="43.49555" lon="6.8017">
        <ele>416.3</ele>
        <time>2012-12-09T09:34:23.000Z</time>
      </trkpt>
      <trkpt lat="43.49553" lon="6.80172">
        <ele>416.2</ele>
        <time>2012-12-09T09:34:24.000Z</time>
      </trkpt>
      <trkpt lat="43.4955" lon="6.80174">
        <ele>416.3</ele>
        <time>2012-12-09T09:34:25.000Z</time>
      </trkpt>
      <trkpt lat="43.49547" lon="6.80177">
        <ele>416.2</ele>
        <time>2012-12-09T09:34:26.000Z</time>
      </trkpt>
      <trkpt lat="43.49544" lon="6.80179">
        <ele>416.3</ele>
        <time>2012-12-09T09:34:27.000Z</time>
      </trkpt>
      <trkpt lat="43.49541" lon="6.80181">
        <ele>416.4</ele>
        <time>2012-12-09T09:34:28.000Z</time>
      </trkpt>
      <trkpt lat="43.49537" lon="6.80182">
        <ele>416.4</ele>
        <time>2012-12-09T09:34:29.000Z</time>
      </trkpt>
      <trkpt lat="43.49533" lon="6.80184">
        <ele>416.5</ele>
        <time>2012-12-09T09:34:30.000Z</time>
      </trkpt>
      <trkpt lat="43.4953" lon="6.80186">
        <ele>416.7</ele>
        <time>2012-12-09T09:34:31.000Z</time>
      </trkpt>
      <trkpt lat="43.49526" lon="6.80188">
        <ele>416.6</ele>
        <time>2012-12-09T09:34:32.000Z</time>
      </trkpt>
      <trkpt lat="43.49522" lon="6.80189">
        <ele>416.8</ele>
        <time>2012-12-09T09:34:33.000Z</time>
      </trkpt>
      <trkpt lat="43.49519" lon="6.80191">
        <ele>416.9</ele>
        <time>2012-12-09T09:34:34.000Z</time>
      </trkpt>
      <trkpt lat="43.49515" lon="6.80193">
        <ele>416.9</ele>
        <time>2012-12-09T09:34:35.000Z</time>
      </trkpt>
      <trkpt lat="43.49511" lon="6.80195">
        <ele>417</ele>
        <time>2012-12-09T09:34:36.000Z</time>
      </trkpt>
      <trkpt lat="43.49507" lon="6.80196">
        <ele>417.1</ele>
        <time>2012-12-09T09:34:37.000Z</time>
      </trkpt>
      <trkpt lat="43.49502" lon="6.80198">
        <ele>417.2</ele>
        <time>2012-12-09T09:34:38.000Z</time>
      </trkpt>
      <trkpt lat="43.49497" lon="6.80199">
        <ele>417.1</ele>
        <time>2012-12-09T09:34:39.000Z</time>
      </trkpt>
      <trkpt lat="43.49492" lon="6.802">
        <ele>417.1</ele>
        <time>2012-12-09T09:34:40.000Z</time>
      </trkpt>
      <trkpt lat="43.49487" lon="6.80201">
        <ele>417</ele>
        <time>2012-12-09T09:34:41.000Z</time>
      </trkpt>
      <trkpt lat="43.49481" lon="6.80202">
        <ele>417</ele>
        <time>2012-12-09T09:34:42.000Z</time>
      </trkpt>
      <trkpt lat="43.49476" lon="6.80203">
        <ele>416.8</ele>
        <time>2012-12-09T09:34:43.000Z</time>
      </trkpt>
      <trkpt lat="43.49471" lon="6.80203">
        <ele>416.8</ele>
        <time>2012-12-09T09:34:44.000Z</time>
      </trkpt>
      <trkpt lat="43.49465" lon="6.80202">
        <ele>416.7</ele>
        <time>2012-12-09T09:34:45.000Z</time>
      </trkpt>
      <trkpt lat="43.4946" lon="6.80201">
        <ele>416.4</ele>
        <time>2012-12-09T09:34:46.000Z</time>
      </trkpt>
      <trkpt lat="43.4943" lon="6.80124">
        <ele>412.8</ele>
        <time>2012-12-09T09:35:04.000Z</time>
      </trkpt>
      <trkpt lat="43.4943" lon="6.8012">
        <ele>413.5</ele>
        <time>2012-12-09T09:35:05.000Z</time>
      </trkpt>
      <trkpt lat="43.49431" lon="6.80116">
        <ele>414.6</ele>
        <time>2012-12-09T09:35:06.000Z</time>
      </trkpt>
      <trkpt lat="43.49431" lon="6.80113">
        <ele>415.6</ele>
        <time>2012-12-09T09:35:07.000Z</time>
      </trkpt>
      <trkpt lat="43.49432" lon="6.80109">
        <ele>416.3</ele>
        <time>2012-12-09T09:35:08.000Z</time>
      </trkpt>
      <trkpt lat="43.49433" lon="6.80105">
        <ele>416.3</ele>
        <time>2012-12-09T09:35:09.000Z</time>
      </trkpt>
      <trkpt lat="43.49434" lon="6.80101">
        <ele>416.6</ele>
        <time>2012-12-09T09:35:10.000Z</time>
      </trkpt>
      <trkpt lat="43.49434" lon="6.80097">
        <ele>417.3</ele>
        <time>2012-12-09T09:35:11.000Z</time>
      </trkpt>
      <trkpt lat="43.49435" lon="6.80093">
        <ele>418.2</ele>
        <time>2012-12-09T09:35:12.000Z</time>
      </trkpt>
      <trkpt lat="43.49435" lon="6.80089">
        <ele>419</ele>
        <time>2012-12-09T09:35:13.000Z</time>
      </trkpt>
      <trkpt lat="43.49435" lon="6.80085">
        <ele>419.2</ele>
        <time>2012-12-09T09:35:14.000Z</time>
      </trkpt>
      <trkpt lat="43.49435" lon="6.80081">
        <ele>419.2</ele>
        <time>2012-12-09T09:35:15.000Z</time>
      </trkpt>
      <trkpt lat="43.49435" lon="6.80078">
        <ele>419.5</ele>
        <time>2012-12-09T09:35:16.000Z</time>
      </trkpt>
      <trkpt lat="43.49435" lon="6.80074">
        <ele>420</ele>
        <time>2012-12-09T09:35:17.000Z</time>
      </trkpt>
      <trkpt lat="43.49434" lon="6.8007">
        <ele>420.8</ele>
        <time>2012-12-09T09:35:18.000Z</time>
      </trkpt>
      <trkpt lat="43.49433" lon="6.80066">
        <ele>421.3</ele>
        <time>2012-12-09T09:35:20.000Z</time>
      </trkpt>
      <trkpt lat="43.49433" lon="6.80063">
        <ele>421.2</ele>
        <time>2012-12-09T09:35:21.000Z</time>
      </trkpt>
      <trkpt lat="43.49431" lon="6.80059">
        <ele>421.3</ele>
        <time>2012-12-09T09:35:23.000Z</time>
      </trkpt>
      <trkpt lat="43.49429" lon="6.80059">
        <ele>421.5</ele>
        <time>2012-12-09T09:35:24.000Z</time>
      </trkpt>
      <trkpt lat="43.49425" lon="6.80056">
        <ele>421.3</ele>
        <time>2012-12-09T09:35:26.000Z</time>
      </trkpt>
      <trkpt lat="43.49422" lon="6.80054">
        <ele>421.1</ele>
        <time>2012-12-09T09:35:27.000Z</time>
      </trkpt>
      <trkpt lat="43.4942" lon="6.80053">
        <ele>421.2</ele>
        <time>2012-12-09T09:35:28.000Z</time>
      </trkpt>
      <trkpt lat="43.49418" lon="6.80051">
        <ele>421.2</ele>
        <time>2012-12-09T09:35:29.000Z</time>
      </trkpt>
      <trkpt lat="43.49416" lon="6.80049">
        <ele>421</ele>
        <time>2012-12-09T09:35:30.000Z</time>
      </trkpt>
      <trkpt lat="43.49414" lon="6.80047">
        <ele>420.9</ele>
        <time>2012-12-09T09:35:31.000Z</time>
      </trkpt>
      <trkpt lat="43.49411" lon="6.80045">
        <ele>420.9</ele>
        <time>2012-12-09T09:35:32.000Z</time>
      </trkpt>
      <trkpt lat="43.49409" lon="6.80043">
        <ele>420.7</ele>
        <time>2012-12-09T09:35:33.000Z</time>
      </trkpt>
      <trkpt lat="43.49407" lon="6.80041">
        <ele>420.6</ele>
        <time>2012-12-09T09:35:34.000Z</time>
      </trkpt>
      <trkpt lat="43.49405" lon="6.80039">
        <ele>420.7</ele>
        <time>2012-12-09T09:35:35.000Z</time>
      </trkpt>
      <trkpt lat="43.49403" lon="6.80037">
        <ele>420.2</ele>
        <time>2012-12-09T09:35:36.000Z</time>
      </trkpt>
      <trkpt lat="43.49401" lon="6.80035">
        <ele>420.2</ele>
        <time>2012-12-09T09:35:37.000Z</time>
      </trkpt>
      <trkpt lat="43.49399" lon="6.80033">
        <ele>420.4</ele>
        <time>2012-12-09T09:35:38.000Z</time>
      </trkpt>
      <trkpt lat="43.49397" lon="6.80031">
        <ele>420.5</ele>
        <time>2012-12-09T09:35:39.000Z</time>
      </trkpt>
      <trkpt lat="43.49395" lon="6.80029">
        <ele>420.6</ele>
        <time>2012-12-09T09:35:40.000Z</time>
      </trkpt>
      <trkpt lat="43.49393" lon="6.80028">
        <ele>420.8</ele>
        <time>2012-12-09T09:35:41.000Z</time>
      </trkpt>
      <trkpt lat="43.49391" lon="6.80026">
        <ele>421</ele>
        <time>2012-12-09T09:35:42.000Z</time>
      </trkpt>
      <trkpt lat="43.49389" lon="6.80024">
        <ele>421.1</ele>
        <time>2012-12-09T09:35:43.000Z</time>
      </trkpt>
      <trkpt lat="43.49387" lon="6.80023">
        <ele>421.1</ele>
        <time>2012-12-09T09:35:44.000Z</time>
      </trkpt>
      <trkpt lat="43.49385" lon="6.8002">
        <ele>421.2</ele>
        <time>2012-12-09T09:35:45.000Z</time>
      </trkpt>
      <trkpt lat="43.49384" lon="6.80018">
        <ele>421.2</ele>
        <time>2012-12-09T09:35:46.000Z</time>
      </trkpt>
      <trkpt lat="43.49354" lon="6.79972">
        <ele>433</ele>
        <time>2012-12-09T09:36:05.000Z</time>
      </trkpt>
      <trkpt lat="43.49352" lon="6.79968">
        <ele>433</ele>
        <time>2012-12-09T09:36:07.000Z</time>
      </trkpt>
      <trkpt lat="43.4935" lon="6.79966">
        <ele>432.7</ele>
        <time>2012-12-09T09:36:08.000Z</time>
      </trkpt>
      <trkpt lat="43.49347" lon="6.79963">
        <ele>432.1</ele>
        <time>2012-12-09T09:36:10.000Z</time>
      </trkpt>
      <trkpt lat="43.49346" lon="6.79962">
        <ele>432.4</ele>
        <time>2012-12-09T09:36:11.000Z</time>
      </trkpt>
      <trkpt lat="43.49342" lon="6.79959">
        <ele>432.7</ele>
        <time>2012-12-09T09:36:13.000Z</time>
      </trkpt>
      <trkpt lat="43.49341" lon="6.79958">
        <ele>433.3</ele>
        <time>2012-12-09T09:36:14.000Z</time>
      </trkpt>
      <trkpt lat="43.49337" lon="6.79957">
        <ele>433.9</ele>
        <time>2012-12-09T09:36:16.000Z</time>
      </trkpt>
      <trkpt lat="43.49336" lon="6.79956">
        <ele>433.2</ele>
        <time>2012-12-09T09:36:17.000Z</time>
      </trkpt>
      <trkpt lat="43.49333" lon="6.79955">
        <ele>432.3</ele>
        <time>2012-12-09T09:36:19.000Z</time>
      </trkpt>
      <trkpt lat="43.49331" lon="6.79954">
        <ele>432.4</ele>
        <time>2012-12-09T09:36:20.000Z</time>
      </trkpt>
      <trkpt lat="43.49327" lon="6.79951">
        <ele>432.6</ele>
        <time>2012-12-09T09:36:22.000Z</time>
      </trkpt>
      <trkpt lat="43.49326" lon="6.7995">
        <ele>432.5</ele>
        <time>2012-12-09T09:36:23.000Z</time>
      </trkpt>
      <trkpt lat="43.49322" lon="6.79948">
        <ele>432.5</ele>
        <time>2012-12-09T09:36:25.000Z</time>
      </trkpt>
      <trkpt lat="43.49321" lon="6.79946">
        <ele>432.9</ele>
        <time>2012-12-09T09:36:26.000Z</time>
      </trkpt>
      <trkpt lat="43.49319" lon="6.79943">
        <ele>432.9</ele>
        <time>2012-12-09T09:36:28.000Z</time>
      </trkpt>
      <trkpt lat="43.49317" lon="6.79941">
        <ele>432.8</ele>
        <time>2012-12-09T09:36:29.000Z</time>
      </trkpt>
      <trkpt lat="43.49314" lon="6.79937">
        <ele>432.7</ele>
        <time>2012-12-09T09:36:31.000Z</time>
      </trkpt>
      <trkpt lat="43.49313" lon="6.79935">
        <ele>432.8</ele>
        <time>2012-12-09T09:36:32.000Z</time>
      </trkpt>
      <trkpt lat="43.4931" lon="6.79932">
        <ele>433.4</ele>
        <time>2012-12-09T09:36:34.000Z</time>
      </trkpt>
      <trkpt lat="43.49308" lon="6.79931">
        <ele>433.6</ele>
        <time>2012-12-09T09:36:35.000Z</time>
      </trkpt>
      <trkpt lat="43.49306" lon="6.79927">
        <ele>433.6</ele>
        <time>2012-12-09T09:36:37.000Z</time>
      </trkpt>
      <trkpt lat="43.49304" lon="6.79926">
        <ele>433.7</ele>
        <time>2012-12-09T09:36:38.000Z</time>
      </trkpt>
      <trkpt lat="43.49301" lon="6.79923">
        <ele>434.1</ele>
        <time>2012-12-09T09:36:40.000Z</time>
      </trkpt>
      <trkpt lat="43.49299" lon="6.79922">
        <ele>434.1</ele>
        <time>2012-12-09T09:36:41.000Z</time>
      </trkpt>
      <trkpt lat="43.49296" lon="6.7992">
        <ele>434.5</ele>
        <time>2012-12-09T09:36:43.000Z</time>
      </trkpt>
      <trkpt lat="43.49295" lon="6.79919">
        <ele>434.4</ele>
        <time>2012-12-09T09:36:44.000Z</time>
      </trkpt>
      <trkpt lat="43.49291" lon="6.79917">
        <ele>434.6</ele>
        <time>2012-12-09T09:36:46.000Z</time>
      </trkpt>
      <trkpt lat="43.49266" lon="6.79883">
        <ele>434.1</ele>
        <time>2012-12-09T09:37:05.000Z</time>
      </trkpt>
      <trkpt lat="43.49265" lon="6.79881">
        <ele>434.9</ele>
        <time>2012-12-09T09:37:06.000Z</time>
      </trkpt>
      <trkpt lat="43.49263" lon="6.79878">
        <ele>435.2</ele>
        <time>2012-12-09T09:37:07.000Z</time>
      </trkpt>
      <trkpt lat="43.49261" lon="6.79873">
        <ele>435.7</ele>
        <time>2012-12-09T09:37:09.000Z</time>
      </trkpt>
      <trkpt lat="43.4926" lon="6.79871">
        <ele>436.6</ele>
        <time>2012-12-09T09:37:10.000Z</time>
      </trkpt>
      <trkpt lat="43.49258" lon="6.79867">
        <ele>436.3</ele>
        <time>2012-12-09T09:37:12.000Z</time>
      </trkpt>
      <trkpt lat="43.49257" lon="6.79865">
        <ele>436.6</ele>
        <time>2012-12-09T09:37:13.000Z</time>
      </trkpt>
      <trkpt lat="43.49254" lon="6.79861">
        <ele>436.7</ele>
        <time>2012-12-09T09:37:15.000Z</time>
      </trkpt>
      <trkpt lat="43.49253" lon="6.79859">
        <ele>436.7</ele>
        <time>2012-12-09T09:37:16.000Z</time>
      </trkpt>
      <trkpt lat="43.49251" lon="6.79855">
        <ele>436.9</ele>
        <time>2012-12-09T09:37:18.000Z</time>
      </trkpt>
      <trkpt lat="43.4925" lon="6.79854">
        <ele>437</ele>
        <time>2012-12-09T09:37:19.000Z</time>
      </trkpt>
      <trkpt lat="43.49247" lon="6.7985">
        <ele>438.1</ele>
        <time>2012-12-09T09:37:21.000Z</time>
      </trkpt>
      <trkpt lat="43.49246" lon="6.79848">
        <ele>438.4</ele>
        <time>2012-12-09T09:37:22.000Z</time>
      </trkpt>
      <trkpt lat="43.49244" lon="6.79843">
        <ele>438.7</ele>
        <time>2012-12-09T09:37:24.000Z</time>
      </trkpt>
      <trkpt lat="43.49244" lon="6.7984">
        <ele>438.9</ele>
        <time>2012-12-09T09:37:25.000Z</time>
      </trkpt>
      <trkpt lat="43.49241" lon="6.79835">
        <ele>439.7</ele>
        <time>2012-12-09T09:37:27.000Z</time>
      </trkpt>
      <trkpt lat="43.4924" lon="6.79833">
        <ele>439.9</ele>
        <time>2012-12-09T09:37:28.000Z</time>
      </trkpt>
      <trkpt lat="43.49238" lon="6.79829">
        <ele>440.5</ele>
        <time>2012-12-09T09:37:30.000Z</time>
      </trkpt>
      <trkpt lat="43.49237" lon="6.79827">
        <ele>440.7</ele>
        <time>2012-12-09T09:37:31.000Z</time>
      </trkpt>
      <trkpt lat="43.49235" lon="6.79822">
        <ele>441</ele>
        <time>2012-12-09T09:37:33.000Z</time>
      </trkpt>
      <trkpt lat="43.49234" lon="6.79821">
        <ele>441.6</ele>
        <time>2012-12-09T09:37:34.000Z</time>
      </trkpt>
      <trkpt lat="43.49232" lon="6.79817">
        <ele>442</ele>
        <time>2012-12-09T09:37:36.000Z</time>
      </trkpt>
      <trkpt lat="43.4923" lon="6.79815">
        <ele>441.9</ele>
        <time>2012-12-09T09:37:37.000Z</time>
      </trkpt>
      <trkpt lat="43.49229" lon="6.7981">
        <ele>442.1</ele>
        <time>2012-12-09T09:37:39.000Z</time>
      </trkpt>
      <trkpt lat="43.49228" lon="6.79808">
        <ele>442.2</ele>
        <time>2012-12-09T09:37:40.000Z</time>
      </trkpt>
      <trkpt lat="43.49226" lon="6.79804">
        <ele>442.7</ele>
        <time>2012-12-09T09:37:42.000Z</time>
      </trkpt>
      <trkpt lat="43.49225" lon="6.79802">
        <ele>442.7</ele>
        <time>2012-12-09T09:37:43.000Z</time>
      </trkpt>
      <trkpt lat="43.49222" lon="6.79797">
        <ele>442.9</ele>
        <time>2012-12-09T09:37:45.000Z</time>
      </trkpt>
      <trkpt lat="43.49221" lon="6.79794">
        <ele>443.3</ele>
        <time>2012-12-09T09:37:46.000Z</time>
      </trkpt>
      <trkpt lat="43.492" lon="6.79751">
        <ele>444</ele>
        <time>2012-12-09T09:38:05.000Z</time>
      </trkpt>
      <trkpt lat="43.49196" lon="6.79747">
        <ele>444.3</ele>
        <time>2012-12-09T09:38:08.000Z</time>
      </trkpt>
      <trkpt lat="43.49195" lon="6.79746">
        <ele>444.7</ele>
        <time>2012-12-09T09:38:09.000Z</time>
      </trkpt>
      <trkpt lat="43.49193" lon="6.79742">
        <ele>445.3</ele>
        <time>2012-12-09T09:38:12.000Z</time>
      </trkpt>
      <trkpt lat="43.49192" lon="6.79739">
        <ele>444.9</ele>
        <time>2012-12-09T09:38:13.000Z</time>
      </trkpt>
      <trkpt lat="43.4919" lon="6.79737">
        <ele>444.8</ele>
        <time>2012-12-09T09:38:14.000Z</time>
      </trkpt>
      <trkpt lat="43.49189" lon="6.79734">
        <ele>444.8</ele>
        <time>2012-12-09T09:38:15.000Z</time>
      </trkpt>
      <trkpt lat="43.49187" lon="6.79732">
        <ele>445.1</ele>
        <time>2012-12-09T09:38:16.000Z</time>
      </trkpt>
      <trkpt lat="43.49186" lon="6.79729">
        <ele>445.1</ele>
        <time>2012-12-09T09:38:17.000Z</time>
      </trkpt>
      <trkpt lat="43.49184" lon="6.79727">
        <ele>445.4</ele>
        <time>2012-12-09T09:38:18.000Z</time>
      </trkpt>
      <trkpt lat="43.49182" lon="6.79724">
        <ele>445.4</ele>
        <time>2012-12-09T09:38:19.000Z</time>
      </trkpt>
      <trkpt lat="43.4918" lon="6.79722">
        <ele>445.8</ele>
        <time>2012-12-09T09:38:20.000Z</time>
      </trkpt>
      <trkpt lat="43.49179" lon="6.7972">
        <ele>445.6</ele>
        <time>2012-12-09T09:38:21.000Z</time>
      </trkpt>
      <trkpt lat="43.49176" lon="6.79716">
        <ele>445.7</ele>
        <time>2012-12-09T09:38:23.000Z</time>
      </trkpt>
      <trkpt lat="43.49175" lon="6.79715">
        <ele>445.7</ele>
        <time>2012-12-09T09:38:24.000Z</time>
      </trkpt>
      <trkpt lat="43.49172" lon="6.79712">
        <ele>445.7</ele>
        <time>2012-12-09T09:38:26.000Z</time>
      </trkpt>
      <trkpt lat="43.49171" lon="6.7971">
        <ele>446.1</ele>
        <time>2012-12-09T09:38:27.000Z</time>
      </trkpt>
      <trkpt lat="43.49167" lon="6.79707">
        <ele>447.2</ele>
        <time>2012-12-09T09:38:29.000Z</time>
      </trkpt>
      <trkpt lat="43.49166" lon="6.79704">
        <ele>447.3</ele>
        <time>2012-12-09T09:38:30.000Z</time>
      </trkpt>
      <trkpt lat="43.49163" lon="6.797">
        <ele>447.1</ele>
        <time>2012-12-09T09:38:32.000Z</time>
      </trkpt>
      <trkpt lat="43.49161" lon="6.79698">
        <ele>447.2</ele>
        <time>2012-12-09T09:38:33.000Z</time>
      </trkpt>
      <trkpt lat="43.49159" lon="6.79694">
        <ele>447.8</ele>
        <time>2012-12-09T09:38:35.000Z</time>
      </trkpt>
      <trkpt lat="43.49158" lon="6.79692">
        <ele>448</ele>
        <time>2012-12-09T09:38:36.000Z</time>
      </trkpt>
      <trkpt lat="43.49157" lon="6.79688">
        <ele>448.4</ele>
        <time>2012-12-09T09:38:38.000Z</time>
      </trkpt>
      <trkpt lat="43.49158" lon="6.79685">
        <ele>448.5</ele>
        <time>2012-12-09T09:38:39.000Z</time>
      </trkpt>
      <trkpt lat="43.49158" lon="6.79679">
        <ele>449.1</ele>
        <time>2012-12-09T09:38:41.000Z</time>
      </trkpt>
      <trkpt lat="43.49159" lon="6.79676">
        <ele>449.4</ele>
        <time>2012-12-09T09:38:42.000Z</time>
      </trkpt>
      <trkpt lat="43.4916" lon="6.79671">
        <ele>449.6</ele>
        <time>2012-12-09T09:38:44.000Z</time>
      </trkpt>
      <trkpt lat="43.49159" lon="6.79669">
        <ele>449.8</ele>
        <time>2012-12-09T09:38:45.000Z</time>
      </trkpt>
      <trkpt lat="43.49159" lon="6.79666">
        <ele>450</ele>
        <time>2012-12-09T09:38:46.000Z</time>
      </trkpt>
      <trkpt lat="43.49151" lon="6.79628">
        <ele>458.8</ele>
        <time>2012-12-09T09:39:04.000Z</time>
      </trkpt>
      <trkpt lat="43.4915" lon="6.79623">
        <ele>457.8</ele>
        <time>2012-12-09T09:39:06.000Z</time>
      </trkpt>
      <trkpt lat="43.49149" lon="6.7962">
        <ele>457</ele>
        <time>2012-12-09T09:39:07.000Z</time>
      </trkpt>
      <trkpt lat="43.49147" lon="6.79615">
        <ele>457.2</ele>
        <time>2012-12-09T09:39:10.000Z</time>
      </trkpt>
      <trkpt lat="43.49146" lon="6.79613">
        <ele>457.4</ele>
        <time>2012-12-09T09:39:11.000Z</time>
      </trkpt>
      <trkpt lat="43.49145" lon="6.79608">
        <ele>457.7</ele>
        <time>2012-12-09T09:39:13.000Z</time>
      </trkpt>
      <trkpt lat="43.49144" lon="6.79606">
        <ele>457.6</ele>
        <time>2012-12-09T09:39:14.000Z</time>
      </trkpt>
      <trkpt lat="43.49143" lon="6.79601">
        <ele>457.9</ele>
        <time>2012-12-09T09:39:17.000Z</time>
      </trkpt>
      <trkpt lat="43.49143" lon="6.79599">
        <ele>458.3</ele>
        <time>2012-12-09T09:39:18.000Z</time>
      </trkpt>
      <trkpt lat="43.49143" lon="6.79594">
        <ele>458.9</ele>
        <time>2012-12-09T09:39:20.000Z</time>
      </trkpt>
      <trkpt lat="43.49142" lon="6.79592">
        <ele>459.1</ele>
        <time>2012-12-09T09:39:21.000Z</time>
      </trkpt>
      <trkpt lat="43.49142" lon="6.79588">
        <ele>458.9</ele>
        <time>2012-12-09T09:39:23.000Z</time>
      </trkpt>
      <trkpt lat="43.49142" lon="6.79585">
        <ele>458.9</ele>
        <time>2012-12-09T09:39:24.000Z</time>
      </trkpt>
      <trkpt lat="43.49142" lon="6.79581">
        <ele>459.1</ele>
        <time>2012-12-09T09:39:26.000Z</time>
      </trkpt>
      <trkpt lat="43.49142" lon="6.79579">
        <ele>458.9</ele>
        <time>2012-12-09T09:39:27.000Z</time>
      </trkpt>
      <trkpt lat="43.49142" lon="6.79573">
        <ele>458.3</ele>
        <time>2012-12-09T09:39:29.000Z</time>
      </trkpt>
      <trkpt lat="43.49142" lon="6.79571">
        <ele>458.5</ele>
        <time>2012-12-09T09:39:30.000Z</time>
      </trkpt>
      <trkpt lat="43.49142" lon="6.79567">
        <ele>458.7</ele>
        <time>2012-12-09T09:39:32.000Z</time>
      </trkpt>
      <trkpt lat="43.49142" lon="6.79565">
        <ele>458.6</ele>
        <time>2012-12-09T09:39:33.000Z</time>
      </trkpt>
      <trkpt lat="43.49142" lon="6.7956">
        <ele>459</ele>
        <time>2012-12-09T09:39:35.000Z</time>
      </trkpt>
      <trkpt lat="43.49142" lon="6.79558">
        <ele>459.2</ele>
        <time>2012-12-09T09:39:36.000Z</time>
      </trkpt>
      <trkpt lat="43.49142" lon="6.79553">
        <ele>459.7</ele>
        <time>2012-12-09T09:39:38.000Z</time>
      </trkpt>
      <trkpt lat="43.49142" lon="6.7955">
        <ele>459.8</ele>
        <time>2012-12-09T09:39:39.000Z</time>
      </trkpt>
      <trkpt lat="43.49143" lon="6.79545">
        <ele>459.9</ele>
        <time>2012-12-09T09:39:41.000Z</time>
      </trkpt>
      <trkpt lat="43.49143" lon="6.79543">
        <ele>460</ele>
        <time>2012-12-09T09:39:42.000Z</time>
      </trkpt>
      <trkpt lat="43.49144" lon="6.79539">
        <ele>460</ele>
        <time>2012-12-09T09:39:44.000Z</time>
      </trkpt>
      <trkpt lat="43.49144" lon="6.79537">
        <ele>460</ele>
        <time>2012-12-09T09:39:45.000Z</time>
      </trkpt>
      <trkpt lat="43.49145" lon="6.79535">
        <ele>460.2</ele>
        <time>2012-12-09T09:39:46.000Z</time>
      </trkpt>
      <trkpt lat="43.49143" lon="6.79513">
        <ele>467.4</ele>
        <time>2012-12-09T09:39:57.000Z</time>
      </trkpt>
      <trkpt lat="43.49142" lon="6.79508">
        <ele>468.6</ele>
        <time>2012-12-09T09:40:00.000Z</time>
      </trkpt>
      <trkpt lat="43.49142" lon="6.79506">
        <ele>468.4</ele>
        <time>2012-12-09T09:40:01.000Z</time>
      </trkpt>
      <trkpt lat="43.49141" lon="6.79501">
        <ele>469.4</ele>
        <time>2012-12-09T09:40:04.000Z</time>
      </trkpt>
      <trkpt lat="43.4914" lon="6.79499">
        <ele>469.5</ele>
        <time>2012-12-09T09:40:05.000Z</time>
      </trkpt>
      <trkpt lat="43.4914" lon="6.79495">
        <ele>469.4</ele>
        <time>2012-12-09T09:40:07.000Z</time>
      </trkpt>
      <trkpt lat="43.4914" lon="6.79492">
        <ele>469.4</ele>
        <time>2012-12-09T09:40:08.000Z</time>
      </trkpt>
      <trkpt lat="43.49139" lon="6.79486">
        <ele>469.5</ele>
        <time>2012-12-09T09:40:11.000Z</time>
      </trkpt>
      <trkpt lat="43.49138" lon="6.79484">
        <ele>469.4</ele>
        <time>2012-12-09T09:40:12.000Z</time>
      </trkpt>
      <trkpt lat="43.49138" lon="6.79479">
        <ele>469.4</ele>
        <time>2012-12-09T09:40:14.000Z</time>
      </trkpt>
      <trkpt lat="43.49138" lon="6.79477">
        <ele>469.2</ele>
        <time>2012-12-09T09:40:15.000Z</time>
      </trkpt>
      <trkpt lat="43.49137" lon="6.79472">
        <ele>469.3</ele>
        <time>2012-12-09T09:40:17.000Z</time>
      </trkpt>
      <trkpt lat="43.49137" lon="6.79469">
        <ele>468.9</ele>
        <time>2012-12-09T09:40:18.000Z</time>
      </trkpt>
      <trkpt lat="43.49137" lon="6.79464">
        <ele>468.2</ele>
        <time>2012-12-09T09:40:20.000Z</time>
      </trkpt>
      <trkpt lat="43.49136" lon="6.79462">
        <ele>468.1</ele>
        <time>2012-12-09T09:40:21.000Z</time>
      </trkpt>
      <trkpt lat="43.49136" lon="6.79457">
        <ele>467.8</ele>
        <time>2012-12-09T09:40:23.000Z</time>
      </trkpt>
      <trkpt lat="43.49135" lon="6.79455">
        <ele>467.8</ele>
        <time>2012-12-09T09:40:24.000Z</time>
      </trkpt>
      <trkpt lat="43.49135" lon="6.79449">
        <ele>467.6</ele>
        <time>2012-12-09T09:40:26.000Z</time>
      </trkpt>
      <trkpt lat="43.49135" lon="6.79447">
        <ele>467.7</ele>
        <time>2012-12-09T09:40:27.000Z</time>
      </trkpt>
      <trkpt lat="43.49133" lon="6.79443">
        <ele>468.1</ele>
        <time>2012-12-09T09:40:29.000Z</time>
      </trkpt>
      <trkpt lat="43.49132" lon="6.79442">
        <ele>468.2</ele>
        <time>2012-12-09T09:40:30.000Z</time>
      </trkpt>
      <trkpt lat="43.49131" lon="6.79438">
        <ele>468.2</ele>
        <time>2012-12-09T09:40:32.000Z</time>
      </trkpt>
      <trkpt lat="43.4913" lon="6.79436">
        <ele>468.3</ele>
        <time>2012-12-09T09:40:33.000Z</time>
      </trkpt>
      <trkpt lat="43.49128" lon="6.79431">
        <ele>468.8</ele>
        <time>2012-12-09T09:40:36.000Z</time>
      </trkpt>
      <trkpt lat="43.49127" lon="6.79429">
        <ele>468.9</ele>
        <time>2012-12-09T09:40:37.000Z</time>
      </trkpt>
      <trkpt lat="43.49125" lon="6.79425">
        <ele>469.2</ele>
        <time>2012-12-09T09:40:39.000Z</time>
      </trkpt>
      <trkpt lat="43.49124" lon="6.79423">
        <ele>469.2</ele>
        <time>2012-12-09T09:40:40.000Z</time>
      </trkpt>
      <trkpt lat="43.49123" lon="6.79418">
        <ele>469</ele>
        <time>2012-12-09T09:40:42.000Z</time>
      </trkpt>
      <trkpt lat="43.49122" lon="6.79416">
        <ele>468.9</ele>
        <time>2012-12-09T09:40:43.000Z</time>
      </trkpt>
      <trkpt lat="43.49119" lon="6.79412">
        <ele>468.8</ele>
        <time>2012-12-09T09:40:45.000Z</time>
      </trkpt>
      <trkpt lat="43.49118" lon="6.7941">
        <ele>468.6</ele>
        <time>2012-12-09T09:40:46.000Z</time>
      </trkpt>
      <trkpt lat="43.49115" lon="6.79407">
        <ele>469</ele>
        <time>2012-12-09T09:40:48.000Z</time>
      </trkpt>
      <trkpt lat="43.49113" lon="6.79406">
        <ele>469.2</ele>
        <time>2012-12-09T09:40:49.000Z</time>
      </trkpt>
      <trkpt lat="43.4911" lon="6.79404">
        <ele>469.7</ele>
        <time>2012-12-09T09:40:51.000Z</time>
      </trkpt>
      <trkpt lat="43.49109" lon="6.79403">
        <ele>470</ele>
        <time>2012-12-09T09:40:52.000Z</time>
      </trkpt>
      <trkpt lat="43.49105" lon="6.79401">
        <ele>470.4</ele>
        <time>2012-12-09T09:40:54.000Z</time>
      </trkpt>
      <trkpt lat="43.49103" lon="6.79399">
        <ele>470.7</ele>
        <time>2012-12-09T09:40:55.000Z</time>
      </trkpt>
      <trkpt lat="43.49099" lon="6.79396">
        <ele>471</ele>
        <time>2012-12-09T09:40:57.000Z</time>
      </trkpt>
      <trkpt lat="43.49097" lon="6.79395">
        <ele>471.3</ele>
        <time>2012-12-09T09:40:58.000Z</time>
      </trkpt>
      <trkpt lat="43.49093" lon="6.79393">
        <ele>471.9</ele>
        <time>2012-12-09T09:41:00.000Z</time>
      </trkpt>
      <trkpt lat="43.49091" lon="6.79392">
        <ele>472.2</ele>
        <time>2012-12-09T09:41:01.000Z</time>
      </trkpt>
      <trkpt lat="43.49087" lon="6.7939">
        <ele>472.3</ele>
        <time>2012-12-09T09:41:03.000Z</time>
      </trkpt>
      <trkpt lat="43.49085" lon="6.79389">
        <ele>472.5</ele>
        <time>2012-12-09T09:41:04.000Z</time>
      </trkpt>
      <trkpt lat="43.4908" lon="6.79388">
        <ele>472.8</ele>
        <time>2012-12-09T09:41:06.000Z</time>
      </trkpt>
      <trkpt lat="43.49078" lon="6.79387">
        <ele>472.8</ele>
        <time>2012-12-09T09:41:07.000Z</time>
      </trkpt>
      <trkpt lat="43.49074" lon="6.79386">
        <ele>472.9</ele>
        <time>2012-12-09T09:41:09.000Z</time>
      </trkpt>
      <trkpt lat="43.49071" lon="6.79385">
        <ele>473</ele>
        <time>2012-12-09T09:41:10.000Z</time>
      </trkpt>
      <trkpt lat="43.49069" lon="6.79385">
        <ele>473</ele>
        <time>2012-12-09T09:41:11.000Z</time>
      </trkpt>
      <trkpt lat="43.49066" lon="6.79385">
        <ele>472.9</ele>
        <time>2012-12-09T09:41:12.000Z</time>
      </trkpt>
      <trkpt lat="43.49063" lon="6.79384">
        <ele>472.8</ele>
        <time>2012-12-09T09:41:13.000Z</time>
      </trkpt>
      <trkpt lat="43.4906" lon="6.79384">
        <ele>472.8</ele>
        <time>2012-12-09T09:41:14.000Z</time>
      </trkpt>
      <trkpt lat="43.49057" lon="6.79384">
        <ele>472.6</ele>
        <time>2012-12-09T09:41:15.000Z</time>
      </trkpt>
      <trkpt lat="43.49054" lon="6.79384">
        <ele>472.6</ele>
        <time>2012-12-09T09:41:16.000Z</time>
      </trkpt>
      <trkpt lat="43.49052" lon="6.79384">
        <ele>472.6</ele>
        <time>2012-12-09T09:41:17.000Z</time>
      </trkpt>
      <trkpt lat="43.49049" lon="6.79384">
        <ele>472.3</ele>
        <time>2012-12-09T09:41:18.000Z</time>
      </trkpt>
      <trkpt lat="43.49046" lon="6.79383">
        <ele>472.2</ele>
        <time>2012-12-09T09:41:19.000Z</time>
      </trkpt>
      <trkpt lat="43.49043" lon="6.79382">
        <ele>472.1</ele>
        <time>2012-12-09T09:41:20.000Z</time>
      </trkpt>
      <trkpt lat="43.49039" lon="6.7938">
        <ele>471.8</ele>
        <time>2012-12-09T09:41:21.000Z</time>
      </trkpt>
      <trkpt lat="43.49036" lon="6.79378">
        <ele>471.5</ele>
        <time>2012-12-09T09:41:22.000Z</time>
      </trkpt>
      <trkpt lat="43.49034" lon="6.79377">
        <ele>471.3</ele>
        <time>2012-12-09T09:41:23.000Z</time>
      </trkpt>
      <trkpt lat="43.49031" lon="6.79376">
        <ele>471</ele>
        <time>2012-12-09T09:41:24.000Z</time>
      </trkpt>
      <trkpt lat="43.49029" lon="6.79375">
        <ele>470.7</ele>
        <time>2012-12-09T09:41:25.000Z</time>
      </trkpt>
      <trkpt lat="43.49026" lon="6.79373">
        <ele>470.5</ele>
        <time>2012-12-09T09:41:26.000Z</time>
      </trkpt>
      <trkpt lat="43.49024" lon="6.79371">
        <ele>470.3</ele>
        <time>2012-12-09T09:41:27.000Z</time>
      </trkpt>
      <trkpt lat="43.49021" lon="6.79367">
        <ele>470.1</ele>
        <time>2012-12-09T09:41:28.000Z</time>
      </trkpt>
      <trkpt lat="43.49019" lon="6.79364">
        <ele>469.9</ele>
        <time>2012-12-09T09:41:29.000Z</time>
      </trkpt>
      <trkpt lat="43.49017" lon="6.79361">
        <ele>469.7</ele>
        <time>2012-12-09T09:41:30.000Z</time>
      </trkpt>
      <trkpt lat="43.49014" lon="6.79357">
        <ele>469.6</ele>
        <time>2012-12-09T09:41:31.000Z</time>
      </trkpt>
      <trkpt lat="43.49012" lon="6.79354">
        <ele>469.5</ele>
        <time>2012-12-09T09:41:32.000Z</time>
      </trkpt>
      <trkpt lat="43.4901" lon="6.79351">
        <ele>469.4</ele>
        <time>2012-12-09T09:41:33.000Z</time>
      </trkpt>
      <trkpt lat="43.49007" lon="6.79348">
        <ele>469.3</ele>
        <time>2012-12-09T09:41:34.000Z</time>
      </trkpt>
      <trkpt lat="43.49005" lon="6.79346">
        <ele>469.2</ele>
        <time>2012-12-09T09:41:35.000Z</time>
      </trkpt>
      <trkpt lat="43.49004" lon="6.79345">
        <ele>469.1</ele>
        <time>2012-12-09T09:41:36.000Z</time>
      </trkpt>
      <trkpt lat="43.49004" lon="6.79348">
        <ele>467.5</ele>
        <time>2012-12-09T09:41:46.000Z</time>
      </trkpt>
      <trkpt lat="43.48982" lon="6.79327">
        <ele>460.1</ele>
        <time>2012-12-09T09:42:05.000Z</time>
      </trkpt>
      <trkpt lat="43.48978" lon="6.79326">
        <ele>460.5</ele>
        <time>2012-12-09T09:42:06.000Z</time>
      </trkpt>
      <trkpt lat="43.48975" lon="6.79325">
        <ele>460.3</ele>
        <time>2012-12-09T09:42:07.000Z</time>
      </trkpt>
      <trkpt lat="43.48971" lon="6.79324">
        <ele>459.9</ele>
        <time>2012-12-09T09:42:08.000Z</time>
      </trkpt>
      <trkpt lat="43.48967" lon="6.79322">
        <ele>459.7</ele>
        <time>2012-12-09T09:42:09.000Z</time>
      </trkpt>
      <trkpt lat="43.48963" lon="6.79321">
        <ele>459.5</ele>
        <time>2012-12-09T09:42:10.000Z</time>
      </trkpt>
      <trkpt lat="43.48959" lon="6.7932">
        <ele>459.2</ele>
        <time>2012-12-09T09:42:11.000Z</time>
      </trkpt>
      <trkpt lat="43.48955" lon="6.79319">
        <ele>459.1</ele>
        <time>2012-12-09T09:42:12.000Z</time>
      </trkpt>
      <trkpt lat="43.48951" lon="6.79318">
        <ele>458.8</ele>
        <time>2012-12-09T09:42:13.000Z</time>
      </trkpt>
      <trkpt lat="43.48946" lon="6.79316">
        <ele>458.4</ele>
        <time>2012-12-09T09:42:14.000Z</time>
      </trkpt>
      <trkpt lat="43.48942" lon="6.79315">
        <ele>457.8</ele>
        <time>2012-12-09T09:42:15.000Z</time>
      </trkpt>
      <trkpt lat="43.48937" lon="6.79314">
        <ele>457.4</ele>
        <time>2012-12-09T09:42:16.000Z</time>
      </trkpt>
      <trkpt lat="43.48933" lon="6.79312">
        <ele>457</ele>
        <time>2012-12-09T09:42:17.000Z</time>
      </trkpt>
      <trkpt lat="43.48928" lon="6.79311">
        <ele>456.7</ele>
        <time>2012-12-09T09:42:18.000Z</time>
      </trkpt>
      <trkpt lat="43.48923" lon="6.79309">
        <ele>456.4</ele>
        <time>2012-12-09T09:42:19.000Z</time>
      </trkpt>
      <trkpt lat="43.48919" lon="6.79307">
        <ele>456.2</ele>
        <time>2012-12-09T09:42:20.000Z</time>
      </trkpt>
      <trkpt lat="43.48915" lon="6.79304">
        <ele>456.1</ele>
        <time>2012-12-09T09:42:21.000Z</time>
      </trkpt>
      <trkpt lat="43.48911" lon="6.79301">
        <ele>455.9</ele>
        <time>2012-12-09T09:42:22.000Z</time>
      </trkpt>
      <trkpt lat="43.48909" lon="6.79296">
        <ele>455.8</ele>
        <time>2012-12-09T09:42:23.000Z</time>
      </trkpt>
      <trkpt lat="43.48906" lon="6.79291">
        <ele>455.7</ele>
        <time>2012-12-09T09:42:24.000Z</time>
      </trkpt>
      <trkpt lat="43.48904" lon="6.79285">
        <ele>455.7</ele>
        <time>2012-12-09T09:42:25.000Z</time>
      </trkpt>
      <trkpt lat="43.48901" lon="6.79279">
        <ele>455.5</ele>
        <time>2012-12-09T09:42:26.000Z</time>
      </trkpt>
      <trkpt lat="43.48899" lon="6.79272">
        <ele>455.4</ele>
        <time>2012-12-09T09:42:27.000Z</time>
      </trkpt>
      <trkpt lat="43.48897" lon="6.79266">
        <ele>455.2</ele>
        <time>2012-12-09T09:42:28.000Z</time>
      </trkpt>
      <trkpt lat="43.48895" lon="6.79259">
        <ele>455.1</ele>
        <time>2012-12-09T09:42:29.000Z</time>
      </trkpt>
      <trkpt lat="43.48893" lon="6.79254">
        <ele>455</ele>
        <time>2012-12-09T09:42:30.000Z</time>
      </trkpt>
      <trkpt lat="43.48891" lon="6.79249">
        <ele>454.9</ele>
        <time>2012-12-09T09:42:31.000Z</time>
      </trkpt>
      <trkpt lat="43.48889" lon="6.79245">
        <ele>454.6</ele>
        <time>2012-12-09T09:42:32.000Z</time>
      </trkpt>
      <trkpt lat="43.48887" lon="6.7924">
        <ele>454.5</ele>
        <time>2012-12-09T09:42:33.000Z</time>
      </trkpt>
      <trkpt lat="43.48885" lon="6.79238">
        <ele>454.4</ele>
        <time>2012-12-09T09:42:34.000Z</time>
      </trkpt>
      <trkpt lat="43.48883" lon="6.79236">
        <ele>454.1</ele>
        <time>2012-12-09T09:42:35.000Z</time>
      </trkpt>
      <trkpt lat="43.48881" lon="6.79234">
        <ele>453.5</ele>
        <time>2012-12-09T09:42:36.000Z</time>
      </trkpt>
      <trkpt lat="43.48879" lon="6.79232">
        <ele>453</ele>
        <time>2012-12-09T09:42:37.000Z</time>
      </trkpt>
      <trkpt lat="43.48876" lon="6.79231">
        <ele>453</ele>
        <time>2012-12-09T09:42:38.000Z</time>
      </trkpt>
      <trkpt lat="43.48874" lon="6.79231">
        <ele>453</ele>
        <time>2012-12-09T09:42:39.000Z</time>
      </trkpt>
      <trkpt lat="43.48869" lon="6.79231">
        <ele>452.8</ele>
        <time>2012-12-09T09:42:42.000Z</time>
      </trkpt>
      <trkpt lat="43.48869" lon="6.79231">
        <ele>452.7</ele>
        <time>2012-12-09T09:42:43.000Z</time>
      </trkpt>
      <trkpt lat="43.48865" lon="6.79231">
        <ele>451.1</ele>
        <time>2012-12-09T09:42:49.000Z</time>
      </trkpt>
      <trkpt lat="43.48862" lon="6.7923">
        <ele>450.9</ele>
        <time>2012-12-09T09:42:50.000Z</time>
      </trkpt>
      <trkpt lat="43.4886" lon="6.7923">
        <ele>450.7</ele>
        <time>2012-12-09T09:42:51.000Z</time>
      </trkpt>
      <trkpt lat="43.48858" lon="6.79228">
        <ele>450.6</ele>
        <time>2012-12-09T09:42:52.000Z</time>
      </trkpt>
      <trkpt lat="43.48856" lon="6.79227">
        <ele>450.3</ele>
        <time>2012-12-09T09:42:53.000Z</time>
      </trkpt>
      <trkpt lat="43.48854" lon="6.79225">
        <ele>449.9</ele>
        <time>2012-12-09T09:42:54.000Z</time>
      </trkpt>
      <trkpt lat="43.48851" lon="6.79223">
        <ele>449.8</ele>
        <time>2012-12-09T09:42:55.000Z</time>
      </trkpt>
      <trkpt lat="43.48849" lon="6.79221">
        <ele>449.6</ele>
        <time>2012-12-09T09:42:56.000Z</time>
      </trkpt>
      <trkpt lat="43.48845" lon="6.7922">
        <ele>449.3</ele>
        <time>2012-12-09T09:42:57.000Z</time>
      </trkpt>
      <trkpt lat="43.48842" lon="6.79218">
        <ele>449</ele>
        <time>2012-12-09T09:42:58.000Z</time>
      </trkpt>
      <trkpt lat="43.48839" lon="6.79215">
        <ele>448.6</ele>
        <time>2012-12-09T09:42:59.000Z</time>
      </trkpt>
      <trkpt lat="43.48835" lon="6.79213">
        <ele>448.1</ele>
        <time>2012-12-09T09:43:00.000Z</time>
      </trkpt>
      <trkpt lat="43.48832" lon="6.7921">
        <ele>447.7</ele>
        <time>2012-12-09T09:43:01.000Z</time>
      </trkpt>
      <trkpt lat="43.48828" lon="6.79207">
        <ele>447.7</ele>
        <time>2012-12-09T09:43:02.000Z</time>
      </trkpt>
      <trkpt lat="43.48824" lon="6.79205">
        <ele>447.4</ele>
        <time>2012-12-09T09:43:03.000Z</time>
      </trkpt>
      <trkpt lat="43.4882" lon="6.79202">
        <ele>447.2</ele>
        <time>2012-12-09T09:43:04.000Z</time>
      </trkpt>
      <trkpt lat="43.48816" lon="6.79199">
        <ele>446.9</ele>
        <time>2012-12-09T09:43:05.000Z</time>
      </trkpt>
      <trkpt lat="43.48812" lon="6.79197">
        <ele>446.6</ele>
        <time>2012-12-09T09:43:06.000Z</time>
      </trkpt>
      <trkpt lat="43.48808" lon="6.79194">
        <ele>446.3</ele>
        <time>2012-12-09T09:43:07.000Z</time>
      </trkpt>
      <trkpt lat="43.48804" lon="6.79192">
        <ele>446</ele>
        <time>2012-12-09T09:43:08.000Z</time>
      </trkpt>
      <trkpt lat="43.48801" lon="6.79188">
        <ele>445.8</ele>
        <time>2012-12-09T09:43:09.000Z</time>
      </trkpt>
      <trkpt lat="43.48798" lon="6.79185">
        <ele>445.6</ele>
        <time>2012-12-09T09:43:10.000Z</time>
      </trkpt>
      <trkpt lat="43.48795" lon="6.79182">
        <ele>445.4</ele>
        <time>2012-12-09T09:43:11.000Z</time>
      </trkpt>
      <trkpt lat="43.48792" lon="6.79178">
        <ele>445.1</ele>
        <time>2012-12-09T09:43:12.000Z</time>
      </trkpt>
      <trkpt lat="43.48789" lon="6.79173">
        <ele>444.6</ele>
        <time>2012-12-09T09:43:13.000Z</time>
      </trkpt>
      <trkpt lat="43.48786" lon="6.79168">
        <ele>444.1</ele>
        <time>2012-12-09T09:43:14.000Z</time>
      </trkpt>
      <trkpt lat="43.48783" lon="6.79163">
        <ele>443.6</ele>
        <time>2012-12-09T09:43:15.000Z</time>
      </trkpt>
      <trkpt lat="43.48781" lon="6.79158">
        <ele>443.3</ele>
        <time>2012-12-09T09:43:16.000Z</time>
      </trkpt>
      <trkpt lat="43.48778" lon="6.79152">
        <ele>443</ele>
        <time>2012-12-09T09:43:17.000Z</time>
      </trkpt>
      <trkpt lat="43.48775" lon="6.79147">
        <ele>442.8</ele>
        <time>2012-12-09T09:43:18.000Z</time>
      </trkpt>
      <trkpt lat="43.48772" lon="6.79143">
        <ele>442.6</ele>
        <time>2012-12-09T09:43:19.000Z</time>
      </trkpt>
      <trkpt lat="43.48768" lon="6.79138">
        <ele>442.4</ele>
        <time>2012-12-09T09:43:20.000Z</time>
      </trkpt>
      <trkpt lat="43.48764" lon="6.79135">
        <ele>442.2</ele>
        <time>2012-12-09T09:43:21.000Z</time>
      </trkpt>
      <trkpt lat="43.4876" lon="6.79134">
        <ele>441.8</ele>
        <time>2012-12-09T09:43:22.000Z</time>
      </trkpt>
      <trkpt lat="43.48756" lon="6.79133">
        <ele>441.5</ele>
        <time>2012-12-09T09:43:23.000Z</time>
      </trkpt>
      <trkpt lat="43.48752" lon="6.79132">
        <ele>441.3</ele>
        <time>2012-12-09T09:43:24.000Z</time>
      </trkpt>
      <trkpt lat="43.48749" lon="6.79133">
        <ele>441.1</ele>
        <time>2012-12-09T09:43:25.000Z</time>
      </trkpt>
      <trkpt lat="43.48746" lon="6.79136">
        <ele>440.8</ele>
        <time>2012-12-09T09:43:27.000Z</time>
      </trkpt>
      <trkpt lat="43.48745" lon="6.79137">
        <ele>440.7</ele>
        <time>2012-12-09T09:43:28.000Z</time>
      </trkpt>
      <trkpt lat="43.48743" lon="6.79132">
        <ele>436.6</ele>
        <time>2012-12-09T09:44:24.000Z</time>
      </trkpt>
      <trkpt lat="43.48749" lon="6.7914">
        <ele>429.7</ele>
        <time>2012-12-09T09:44:25.000Z</time>
      </trkpt>
      <trkpt lat="43.4875" lon="6.79145">
        <ele>431.6</ele>
        <time>2012-12-09T09:44:28.000Z</time>
      </trkpt>
      <trkpt lat="43.48751" lon="6.79147">
        <ele>431.7</ele>
        <time>2012-12-09T09:44:29.000Z</time>
      </trkpt>
      <trkpt lat="43.48752" lon="6.7915">
        <ele>431.9</ele>
        <time>2012-12-09T09:44:30.000Z</time>
      </trkpt>
      <trkpt lat="43.48754" lon="6.79153">
        <ele>432.3</ele>
        <time>2012-12-09T09:44:31.000Z</time>
      </trkpt>
      <trkpt lat="43.48755" lon="6.79156">
        <ele>432.4</ele>
        <time>2012-12-09T09:44:32.000Z</time>
      </trkpt>
      <trkpt lat="43.48757" lon="6.7916">
        <ele>432.6</ele>
        <time>2012-12-09T09:44:33.000Z</time>
      </trkpt>
      <trkpt lat="43.48758" lon="6.79163">
        <ele>432.7</ele>
        <time>2012-12-09T09:44:34.000Z</time>
      </trkpt>
      <trkpt lat="43.48759" lon="6.79167">
        <ele>432.9</ele>
        <time>2012-12-09T09:44:35.000Z</time>
      </trkpt>
      <trkpt lat="43.48761" lon="6.7917">
        <ele>433</ele>
        <time>2012-12-09T09:44:36.000Z</time>
      </trkpt>
      <trkpt lat="43.48762" lon="6.79174">
        <ele>433</ele>
        <time>2012-12-09T09:44:37.000Z</time>
      </trkpt>
      <trkpt lat="43.48763" lon="6.79178">
        <ele>433</ele>
        <time>2012-12-09T09:44:38.000Z</time>
      </trkpt>
      <trkpt lat="43.48764" lon="6.79182">
        <ele>433</ele>
        <time>2012-12-09T09:44:39.000Z</time>
      </trkpt>
      <trkpt lat="43.48766" lon="6.79185">
        <ele>433</ele>
        <time>2012-12-09T09:44:40.000Z</time>
      </trkpt>
      <trkpt lat="43.48767" lon="6.79189">
        <ele>433</ele>
        <time>2012-12-09T09:44:41.000Z</time>
      </trkpt>
      <trkpt lat="43.48769" lon="6.79193">
        <ele>433</ele>
        <time>2012-12-09T09:44:42.000Z</time>
      </trkpt>
      <trkpt lat="43.48771" lon="6.79196">
        <ele>432.9</ele>
        <time>2012-12-09T09:44:43.000Z</time>
      </trkpt>
      <trkpt lat="43.48773" lon="6.792">
        <ele>432.7</ele>
        <time>2012-12-09T09:44:44.000Z</time>
      </trkpt>
      <trkpt lat="43.48776" lon="6.79204">
        <ele>432.4</ele>
        <time>2012-12-09T09:44:45.000Z</time>
      </trkpt>
      <trkpt lat="43.48778" lon="6.79208">
        <ele>432.1</ele>
        <time>2012-12-09T09:44:46.000Z</time>
      </trkpt>
      <trkpt lat="43.48808" lon="6.79249">
        <ele>430.6</ele>
        <time>2012-12-09T09:44:57.000Z</time>
      </trkpt>
      <trkpt lat="43.4881" lon="6.79252">
        <ele>431.2</ele>
        <time>2012-12-09T09:44:58.000Z</time>
      </trkpt>
      <trkpt lat="43.48813" lon="6.79256">
        <ele>431.2</ele>
        <time>2012-12-09T09:44:59.000Z</time>
      </trkpt>
      <trkpt lat="43.48816" lon="6.79259">
        <ele>431.3</ele>
        <time>2012-12-09T09:45:00.000Z</time>
      </trkpt>
      <trkpt lat="43.48818" lon="6.79263">
        <ele>431.8</ele>
        <time>2012-12-09T09:45:01.000Z</time>
      </trkpt>
      <trkpt lat="43.48821" lon="6.79266">
        <ele>432</ele>
        <time>2012-12-09T09:45:02.000Z</time>
      </trkpt>
      <trkpt lat="43.48823" lon="6.7927">
        <ele>432</ele>
        <time>2012-12-09T09:45:03.000Z</time>
      </trkpt>
      <trkpt lat="43.48825" lon="6.79273">
        <ele>431.7</ele>
        <time>2012-12-09T09:45:04.000Z</time>
      </trkpt>
      <trkpt lat="43.48827" lon="6.79278">
        <ele>431.3</ele>
        <time>2012-12-09T09:45:05.000Z</time>
      </trkpt>
      <trkpt lat="43.48828" lon="6.79282">
        <ele>431.4</ele>
        <time>2012-12-09T09:45:06.000Z</time>
      </trkpt>
      <trkpt lat="43.48828" lon="6.79287">
        <ele>431.3</ele>
        <time>2012-12-09T09:45:07.000Z</time>
      </trkpt>
      <trkpt lat="43.48828" lon="6.79291">
        <ele>430.9</ele>
        <time>2012-12-09T09:45:08.000Z</time>
      </trkpt>
      <trkpt lat="43.48828" lon="6.79296">
        <ele>430.7</ele>
        <time>2012-12-09T09:45:09.000Z</time>
      </trkpt>
      <trkpt lat="43.48827" lon="6.793">
        <ele>430.5</ele>
        <time>2012-12-09T09:45:10.000Z</time>
      </trkpt>
      <trkpt lat="43.48827" lon="6.79304">
        <ele>430</ele>
        <time>2012-12-09T09:45:11.000Z</time>
      </trkpt>
      <trkpt lat="43.48827" lon="6.79309">
        <ele>429.2</ele>
        <time>2012-12-09T09:45:12.000Z</time>
      </trkpt>
      <trkpt lat="43.48827" lon="6.79314">
        <ele>428.7</ele>
        <time>2012-12-09T09:45:13.000Z</time>
      </trkpt>
      <trkpt lat="43.48827" lon="6.79318">
        <ele>428.5</ele>
        <time>2012-12-09T09:45:14.000Z</time>
      </trkpt>
      <trkpt lat="43.48827" lon="6.79323">
        <ele>428.1</ele>
        <time>2012-12-09T09:45:15.000Z</time>
      </trkpt>
      <trkpt lat="43.48827" lon="6.79328">
        <ele>427.7</ele>
        <time>2012-12-09T09:45:16.000Z</time>
      </trkpt>
      <trkpt lat="43.48827" lon="6.79331">
        <ele>426.8</ele>
        <time>2012-12-09T09:45:17.000Z</time>
      </trkpt>
      <trkpt lat="43.48827" lon="6.79335">
        <ele>426.7</ele>
        <time>2012-12-09T09:45:18.000Z</time>
      </trkpt>
      <trkpt lat="43.48828" lon="6.79339">
        <ele>426.6</ele>
        <time>2012-12-09T09:45:19.000Z</time>
      </trkpt>
      <trkpt lat="43.48827" lon="6.79343">
        <ele>426.5</ele>
        <time>2012-12-09T09:45:20.000Z</time>
      </trkpt>
      <trkpt lat="43.48827" lon="6.79346">
        <ele>426.5</ele>
        <time>2012-12-09T09:45:21.000Z</time>
      </trkpt>
      <trkpt lat="43.48827" lon="6.79349">
        <ele>426.3</ele>
        <time>2012-12-09T09:45:22.000Z</time>
      </trkpt>
      <trkpt lat="43.48826" lon="6.79352">
        <ele>426.4</ele>
        <time>2012-12-09T09:45:23.000Z</time>
      </trkpt>
      <trkpt lat="43.48826" lon="6.79355">
        <ele>426.1</ele>
        <time>2012-12-09T09:45:24.000Z</time>
      </trkpt>
      <trkpt lat="43.48826" lon="6.79359">
        <ele>425.8</ele>
        <time>2012-12-09T09:45:25.000Z</time>
      </trkpt>
      <trkpt lat="43.48826" lon="6.79362">
        <ele>425.6</ele>
        <time>2012-12-09T09:45:26.000Z</time>
      </trkpt>
      <trkpt lat="43.48826" lon="6.79366">
        <ele>425.2</ele>
        <time>2012-12-09T09:45:27.000Z</time>
      </trkpt>
      <trkpt lat="43.48825" lon="6.7937">
        <ele>425</ele>
        <time>2012-12-09T09:45:28.000Z</time>
      </trkpt>
      <trkpt lat="43.48825" lon="6.79374">
        <ele>424.7</ele>
        <time>2012-12-09T09:45:29.000Z</time>
      </trkpt>
      <trkpt lat="43.48825" lon="6.79379">
        <ele>424.4</ele>
        <time>2012-12-09T09:45:30.000Z</time>
      </trkpt>
      <trkpt lat="43.48824" lon="6.79384">
        <ele>424.2</ele>
        <time>2012-12-09T09:45:31.000Z</time>
      </trkpt>
      <trkpt lat="43.48823" lon="6.79389">
        <ele>424</ele>
        <time>2012-12-09T09:45:32.000Z</time>
      </trkpt>
      <trkpt lat="43.48823" lon="6.79395">
        <ele>423.7</ele>
        <time>2012-12-09T09:45:33.000Z</time>
      </trkpt>
      <trkpt lat="43.48822" lon="6.79401">
        <ele>423.5</ele>
        <time>2012-12-09T09:45:34.000Z</time>
      </trkpt>
      <trkpt lat="43.48821" lon="6.79406">
        <ele>423.2</ele>
        <time>2012-12-09T09:45:35.000Z</time>
      </trkpt>
      <trkpt lat="43.4882" lon="6.79411">
        <ele>423.1</ele>
        <time>2012-12-09T09:45:36.000Z</time>
      </trkpt>
      <trkpt lat="43.48819" lon="6.79416">
        <ele>422.8</ele>
        <time>2012-12-09T09:45:37.000Z</time>
      </trkpt>
      <trkpt lat="43.48818" lon="6.79422">
        <ele>422.6</ele>
        <time>2012-12-09T09:45:38.000Z</time>
      </trkpt>
      <trkpt lat="43.48817" lon="6.79427">
        <ele>422.4</ele>
        <time>2012-12-09T09:45:39.000Z</time>
      </trkpt>
      <trkpt lat="43.48816" lon="6.79432">
        <ele>422.2</ele>
        <time>2012-12-09T09:45:40.000Z</time>
      </trkpt>
      <trkpt lat="43.48815" lon="6.79437">
        <ele>422.1</ele>
        <time>2012-12-09T09:45:41.000Z</time>
      </trkpt>
      <trkpt lat="43.48815" lon="6.79443">
        <ele>421.8</ele>
        <time>2012-12-09T09:45:42.000Z</time>
      </trkpt>
      <trkpt lat="43.48814" lon="6.79448">
        <ele>421.6</ele>
        <time>2012-12-09T09:45:43.000Z</time>
      </trkpt>
      <trkpt lat="43.48813" lon="6.79454">
        <ele>421.3</ele>
        <time>2012-12-09T09:45:44.000Z</time>
      </trkpt>
      <trkpt lat="43.48812" lon="6.79459">
        <ele>421.2</ele>
        <time>2012-12-09T09:45:45.000Z</time>
      </trkpt>
      <trkpt lat="43.48811" lon="6.79464">
        <ele>421</ele>
        <time>2012-12-09T09:45:46.000Z</time>
      </trkpt>
      <trkpt lat="43.48807" lon="6.79504">
        <ele>414.1</ele>
        <time>2012-12-09T09:45:54.000Z</time>
      </trkpt>
      <trkpt lat="43.48806" lon="6.7951">
        <ele>414.4</ele>
        <time>2012-12-09T09:45:55.000Z</time>
      </trkpt>
      <trkpt lat="43.48804" lon="6.79514">
        <ele>414.9</ele>
        <time>2012-12-09T09:45:56.000Z</time>
      </trkpt>
      <trkpt lat="43.48802" lon="6.79519">
        <ele>414.5</ele>
        <time>2012-12-09T09:45:57.000Z</time>
      </trkpt>
      <trkpt lat="43.48801" lon="6.79525">
        <ele>414.8</ele>
        <time>2012-12-09T09:45:58.000Z</time>
      </trkpt>
      <trkpt lat="43.488" lon="6.7953">
        <ele>414.7</ele>
        <time>2012-12-09T09:45:59.000Z</time>
      </trkpt>
      <trkpt lat="43.48798" lon="6.79534">
        <ele>414.6</ele>
        <time>2012-12-09T09:46:00.000Z</time>
      </trkpt>
      <trkpt lat="43.48797" lon="6.79539">
        <ele>414.4</ele>
        <time>2012-12-09T09:46:01.000Z</time>
      </trkpt>
      <trkpt lat="43.48795" lon="6.79544">
        <ele>413.7</ele>
        <time>2012-12-09T09:46:02.000Z</time>
      </trkpt>
      <trkpt lat="43.48795" lon="6.79548">
        <ele>413.1</ele>
        <time>2012-12-09T09:46:03.000Z</time>
      </trkpt>
      <trkpt lat="43.48794" lon="6.79551">
        <ele>412.9</ele>
        <time>2012-12-09T09:46:04.000Z</time>
      </trkpt>
      <trkpt lat="43.48791" lon="6.79547">
        <ele>419.2</ele>
        <time>2012-12-09T09:48:04.000Z</time>
      </trkpt>
      <trkpt lat="43.48792" lon="6.79543">
        <ele>418.8</ele>
        <time>2012-12-09T09:48:05.000Z</time>
      </trkpt>
      <trkpt lat="43.48792" lon="6.79538">
        <ele>418.3</ele>
        <time>2012-12-09T09:48:06.000Z</time>
      </trkpt>
      <trkpt lat="43.48792" lon="6.79534">
        <ele>417.4</ele>
        <time>2012-12-09T09:48:07.000Z</time>
      </trkpt>
      <trkpt lat="43.48792" lon="6.79529">
        <ele>417.3</ele>
        <time>2012-12-09T09:48:08.000Z</time>
      </trkpt>
      <trkpt lat="43.48792" lon="6.79524">
        <ele>417.3</ele>
        <time>2012-12-09T09:48:09.000Z</time>
      </trkpt>
      <trkpt lat="43.48792" lon="6.79519">
        <ele>417.5</ele>
        <time>2012-12-09T09:48:10.000Z</time>
      </trkpt>
      <trkpt lat="43.48792" lon="6.79514">
        <ele>417.1</ele>
        <time>2012-12-09T09:48:11.000Z</time>
      </trkpt>
      <trkpt lat="43.48791" lon="6.79508">
        <ele>416.7</ele>
        <time>2012-12-09T09:48:12.000Z</time>
      </trkpt>
      <trkpt lat="43.48792" lon="6.79502">
        <ele>416.1</ele>
        <time>2012-12-09T09:48:13.000Z</time>
      </trkpt>
      <trkpt lat="43.48792" lon="6.79496">
        <ele>415.5</ele>
        <time>2012-12-09T09:48:14.000Z</time>
      </trkpt>
      <trkpt lat="43.48792" lon="6.7949">
        <ele>415.3</ele>
        <time>2012-12-09T09:48:15.000Z</time>
      </trkpt>
      <trkpt lat="43.48793" lon="6.79484">
        <ele>415</ele>
        <time>2012-12-09T09:48:16.000Z</time>
      </trkpt>
      <trkpt lat="43.48793" lon="6.79478">
        <ele>414.5</ele>
        <time>2012-12-09T09:48:17.000Z</time>
      </trkpt>
      <trkpt lat="43.48792" lon="6.79472">
        <ele>414.4</ele>
        <time>2012-12-09T09:48:18.000Z</time>
      </trkpt>
      <trkpt lat="43.48792" lon="6.79466">
        <ele>414.7</ele>
        <time>2012-12-09T09:48:19.000Z</time>
      </trkpt>
      <trkpt lat="43.48792" lon="6.79461">
        <ele>414.9</ele>
        <time>2012-12-09T09:48:20.000Z</time>
      </trkpt>
      <trkpt lat="43.48792" lon="6.79455">
        <ele>415</ele>
        <time>2012-12-09T09:48:21.000Z</time>
      </trkpt>
      <trkpt lat="43.48792" lon="6.79449">
        <ele>414.6</ele>
        <time>2012-12-09T09:48:22.000Z</time>
      </trkpt>
      <trkpt lat="43.48792" lon="6.79444">
        <ele>414.2</ele>
        <time>2012-12-09T09:48:23.000Z</time>
      </trkpt>
      <trkpt lat="43.48791" lon="6.79439">
        <ele>413.9</ele>
        <time>2012-12-09T09:48:24.000Z</time>
      </trkpt>
      <trkpt lat="43.4879" lon="6.79434">
        <ele>413.6</ele>
        <time>2012-12-09T09:48:25.000Z</time>
      </trkpt>
      <trkpt lat="43.4879" lon="6.79429">
        <ele>413.2</ele>
        <time>2012-12-09T09:48:26.000Z</time>
      </trkpt>
      <trkpt lat="43.48789" lon="6.79426">
        <ele>412.9</ele>
        <time>2012-12-09T09:48:27.000Z</time>
      </trkpt>
      <trkpt lat="43.48789" lon="6.79421">
        <ele>411.6</ele>
        <time>2012-12-09T09:48:35.000Z</time>
      </trkpt>
      <trkpt lat="43.48789" lon="6.79418">
        <ele>411.5</ele>
        <time>2012-12-09T09:48:36.000Z</time>
      </trkpt>
      <trkpt lat="43.48788" lon="6.79413">
        <ele>411.3</ele>
        <time>2012-12-09T09:48:37.000Z</time>
      </trkpt>
      <trkpt lat="43.48788" lon="6.79409">
        <ele>411</ele>
        <time>2012-12-09T09:48:38.000Z</time>
      </trkpt>
      <trkpt lat="43.48787" lon="6.79404">
        <ele>410.8</ele>
        <time>2012-12-09T09:48:39.000Z</time>
      </trkpt>
      <trkpt lat="43.48786" lon="6.794">
        <ele>410.8</ele>
        <time>2012-12-09T09:48:40.000Z</time>
      </trkpt>
      <trkpt lat="43.48786" lon="6.79395">
        <ele>410.7</ele>
        <time>2012-12-09T09:48:41.000Z</time>
      </trkpt>
      <trkpt lat="43.48786" lon="6.79389">
        <ele>410.7</ele>
        <time>2012-12-09T09:48:42.000Z</time>
      </trkpt>
      <trkpt lat="43.48785" lon="6.79384">
        <ele>410.4</ele>
        <time>2012-12-09T09:48:43.000Z</time>
      </trkpt>
      <trkpt lat="43.48784" lon="6.79379">
        <ele>410</ele>
        <time>2012-12-09T09:48:44.000Z</time>
      </trkpt>
      <trkpt lat="43.48783" lon="6.79374">
        <ele>409.6</ele>
        <time>2012-12-09T09:48:45.000Z</time>
      </trkpt>
      <trkpt lat="43.48782" lon="6.79368">
        <ele>409.3</ele>
        <time>2012-12-09T09:48:46.000Z</time>
      </trkpt>
      <trkpt lat="43.48772" lon="6.79321">
        <ele>396.5</ele>
        <time>2012-12-09T09:48:56.000Z</time>
      </trkpt>
      <trkpt lat="43.4877" lon="6.79315">
        <ele>397.8</ele>
        <time>2012-12-09T09:48:59.000Z</time>
      </trkpt>
      <trkpt lat="43.48769" lon="6.79315">
        <ele>397.9</ele>
        <time>2012-12-09T09:49:00.000Z</time>
      </trkpt>
      <trkpt lat="43.48769" lon="6.79314">
        <ele>397.9</ele>
        <time>2012-12-09T09:49:46.000Z</time>
      </trkpt>
      <trkpt lat="43.48755" lon="6.79304">
        <ele>398.7</ele>
        <time>2012-12-09T09:50:05.000Z</time>
      </trkpt>
      <trkpt lat="43.48754" lon="6.79309">
        <ele>400</ele>
        <time>2012-12-09T09:50:09.000Z</time>
      </trkpt>
      <trkpt lat="43.48753" lon="6.7931">
        <ele>399.9</ele>
        <time>2012-12-09T09:50:10.000Z</time>
      </trkpt>
      <trkpt lat="43.48752" lon="6.79315">
        <ele>400.6</ele>
        <time>2012-12-09T09:50:12.000Z</time>
      </trkpt>
      <trkpt lat="43.48751" lon="6.79319">
        <ele>399.1</ele>
        <time>2012-12-09T09:50:13.000Z</time>
      </trkpt>
      <trkpt lat="43.48751" lon="6.79323">
        <ele>398.5</ele>
        <time>2012-12-09T09:50:14.000Z</time>
      </trkpt>
      <trkpt lat="43.4875" lon="6.79327">
        <ele>397.8</ele>
        <time>2012-12-09T09:50:15.000Z</time>
      </trkpt>
      <trkpt lat="43.48749" lon="6.7933">
        <ele>398.1</ele>
        <time>2012-12-09T09:50:16.000Z</time>
      </trkpt>
      <trkpt lat="43.48748" lon="6.79334">
        <ele>398</ele>
        <time>2012-12-09T09:50:17.000Z</time>
      </trkpt>
      <trkpt lat="43.48747" lon="6.79338">
        <ele>396.9</ele>
        <time>2012-12-09T09:50:18.000Z</time>
      </trkpt>
      <trkpt lat="43.48745" lon="6.79341">
        <ele>396.5</ele>
        <time>2012-12-09T09:50:19.000Z</time>
      </trkpt>
      <trkpt lat="43.48744" lon="6.79344">
        <ele>396.2</ele>
        <time>2012-12-09T09:50:20.000Z</time>
      </trkpt>
      <trkpt lat="43.48743" lon="6.79347">
        <ele>395.4</ele>
        <time>2012-12-09T09:50:21.000Z</time>
      </trkpt>
      <trkpt lat="43.48741" lon="6.7935">
        <ele>394.7</ele>
        <time>2012-12-09T09:50:22.000Z</time>
      </trkpt>
      <trkpt lat="43.4874" lon="6.79353">
        <ele>394.4</ele>
        <time>2012-12-09T09:50:23.000Z</time>
      </trkpt>
      <trkpt lat="43.48739" lon="6.79356">
        <ele>394.3</ele>
        <time>2012-12-09T09:50:24.000Z</time>
      </trkpt>
      <trkpt lat="43.48738" lon="6.79359">
        <ele>393.9</ele>
        <time>2012-12-09T09:50:25.000Z</time>
      </trkpt>
      <trkpt lat="43.48736" lon="6.79362">
        <ele>393.7</ele>
        <time>2012-12-09T09:50:26.000Z</time>
      </trkpt>
      <trkpt lat="43.48734" lon="6.79365">
        <ele>393.4</ele>
        <time>2012-12-09T09:50:27.000Z</time>
      </trkpt>
      <trkpt lat="43.48732" lon="6.79368">
        <ele>393.2</ele>
        <time>2012-12-09T09:50:28.000Z</time>
      </trkpt>
      <trkpt lat="43.48731" lon="6.79371">
        <ele>393</ele>
        <time>2012-12-09T09:50:29.000Z</time>
      </trkpt>
      <trkpt lat="43.48729" lon="6.79373">
        <ele>392.8</ele>
        <time>2012-12-09T09:50:30.000Z</time>
      </trkpt>
      <trkpt lat="43.48727" lon="6.79376">
        <ele>392.7</ele>
        <time>2012-12-09T09:50:31.000Z</time>
      </trkpt>
      <trkpt lat="43.48725" lon="6.79378">
        <ele>392.7</ele>
        <time>2012-12-09T09:50:32.000Z</time>
      </trkpt>
      <trkpt lat="43.48723" lon="6.7938">
        <ele>392.7</ele>
        <time>2012-12-09T09:50:33.000Z</time>
      </trkpt>
      <trkpt lat="43.48721" lon="6.79382">
        <ele>392.8</ele>
        <time>2012-12-09T09:50:34.000Z</time>
      </trkpt>
      <trkpt lat="43.48719" lon="6.79384">
        <ele>392.7</ele>
        <time>2012-12-09T09:50:35.000Z</time>
      </trkpt>
      <trkpt lat="43.48716" lon="6.79388">
        <ele>392.6</ele>
        <time>2012-12-09T09:50:37.000Z</time>
      </trkpt>
      <trkpt lat="43.48714" lon="6.7939">
        <ele>392.5</ele>
        <time>2012-12-09T09:50:38.000Z</time>
      </trkpt>
      <trkpt lat="43.48711" lon="6.79394">
        <ele>392.3</ele>
        <time>2012-12-09T09:50:40.000Z</time>
      </trkpt>
      <trkpt lat="43.48709" lon="6.79395">
        <ele>392.3</ele>
        <time>2012-12-09T09:50:41.000Z</time>
      </trkpt>
      <trkpt lat="43.48707" lon="6.79397">
        <ele>392.3</ele>
        <time>2012-12-09T09:50:42.000Z</time>
      </trkpt>
      <trkpt lat="43.48705" lon="6.79398">
        <ele>392.3</ele>
        <time>2012-12-09T09:50:43.000Z</time>
      </trkpt>
      <trkpt lat="43.48701" lon="6.794">
        <ele>392.4</ele>
        <time>2012-12-09T09:50:45.000Z</time>
      </trkpt>
      <trkpt lat="43.48698" lon="6.79401">
        <ele>392.4</ele>
        <time>2012-12-09T09:50:46.000Z</time>
      </trkpt>
      <trkpt lat="43.48696" lon="6.79402">
        <ele>392.3</ele>
        <time>2012-12-09T09:50:47.000Z</time>
      </trkpt>
      <trkpt lat="43.48693" lon="6.79403">
        <ele>392</ele>
        <time>2012-12-09T09:50:48.000Z</time>
      </trkpt>
      <trkpt lat="43.48691" lon="6.79404">
        <ele>391.8</ele>
        <time>2012-12-09T09:50:49.000Z</time>
      </trkpt>
      <trkpt lat="43.48688" lon="6.79404">
        <ele>391.4</ele>
        <time>2012-12-09T09:50:50.000Z</time>
      </trkpt>
      <trkpt lat="43.48686" lon="6.79408">
        <ele>386.7</ele>
        <time>2012-12-09T09:51:25.000Z</time>
      </trkpt>
      <trkpt lat="43.48685" lon="6.79408">
        <ele>386.9</ele>
        <time>2012-12-09T09:51:26.000Z</time>
      </trkpt>
      <trkpt lat="43.48681" lon="6.79409">
        <ele>386.8</ele>
        <time>2012-12-09T09:51:28.000Z</time>
      </trkpt>
      <trkpt lat="43.48679" lon="6.79409">
        <ele>386.7</ele>
        <time>2012-12-09T09:51:29.000Z</time>
      </trkpt>
      <trkpt lat="43.48676" lon="6.79409">
        <ele>386.8</ele>
        <time>2012-12-09T09:51:30.000Z</time>
      </trkpt>
      <trkpt lat="43.48673" lon="6.79409">
        <ele>386.8</ele>
        <time>2012-12-09T09:51:31.000Z</time>
      </trkpt>
      <trkpt lat="43.4867" lon="6.79408">
        <ele>386.6</ele>
        <time>2012-12-09T09:51:32.000Z</time>
      </trkpt>
      <trkpt lat="43.48668" lon="6.79408">
        <ele>386.5</ele>
        <time>2012-12-09T09:51:33.000Z</time>
      </trkpt>
      <trkpt lat="43.48665" lon="6.79408">
        <ele>386.4</ele>
        <time>2012-12-09T09:51:34.000Z</time>
      </trkpt>
      <trkpt lat="43.48663" lon="6.79407">
        <ele>386.2</ele>
        <time>2012-12-09T09:51:35.000Z</time>
      </trkpt>
      <trkpt lat="43.4866" lon="6.79406">
        <ele>385.8</ele>
        <time>2012-12-09T09:51:36.000Z</time>
      </trkpt>
      <trkpt lat="43.48658" lon="6.79405">
        <ele>385.6</ele>
        <time>2012-12-09T09:51:37.000Z</time>
      </trkpt>
      <trkpt lat="43.48658" lon="6.79403">
        <ele>384.5</ele>
        <time>2012-12-09T09:51:46.000Z</time>
      </trkpt>
      <trkpt lat="43.48637" lon="6.79405">
        <ele>379.4</ele>
        <time>2012-12-09T09:51:57.000Z</time>
      </trkpt>
      <trkpt lat="43.48634" lon="6.79405">
        <ele>378.7</ele>
        <time>2012-12-09T09:51:58.000Z</time>
      </trkpt>
      <trkpt lat="43.48632" lon="6.79404">
        <ele>378.6</ele>
        <time>2012-12-09T09:51:59.000Z</time>
      </trkpt>
      <trkpt lat="43.48629" lon="6.79404">
        <ele>378</ele>
        <time>2012-12-09T09:52:00.000Z</time>
      </trkpt>
      <trkpt lat="43.48626" lon="6.79403">
        <ele>377.7</ele>
        <time>2012-12-09T09:52:01.000Z</time>
      </trkpt>
      <trkpt lat="43.48624" lon="6.79402">
        <ele>377.3</ele>
        <time>2012-12-09T09:52:02.000Z</time>
      </trkpt>
      <trkpt lat="43.48621" lon="6.79401">
        <ele>377</ele>
        <time>2012-12-09T09:52:03.000Z</time>
      </trkpt>
      <trkpt lat="43.48618" lon="6.794">
        <ele>376.6</ele>
        <time>2012-12-09T09:52:04.000Z</time>
      </trkpt>
      <trkpt lat="43.48615" lon="6.79399">
        <ele>376.5</ele>
        <time>2012-12-09T09:52:05.000Z</time>
      </trkpt>
      <trkpt lat="43.48613" lon="6.79398">
        <ele>376.8</ele>
        <time>2012-12-09T09:52:06.000Z</time>
      </trkpt>
      <trkpt lat="43.4861" lon="6.79397">
        <ele>376.9</ele>
        <time>2012-12-09T09:52:07.000Z</time>
      </trkpt>
      <trkpt lat="43.48607" lon="6.79395">
        <ele>376.5</ele>
        <time>2012-12-09T09:52:08.000Z</time>
      </trkpt>
      <trkpt lat="43.48605" lon="6.79394">
        <ele>376.4</ele>
        <time>2012-12-09T09:52:09.000Z</time>
      </trkpt>
      <trkpt lat="43.48602" lon="6.79393">
        <ele>376.4</ele>
        <time>2012-12-09T09:52:10.000Z</time>
      </trkpt>
      <trkpt lat="43.486" lon="6.79391">
        <ele>376.1</ele>
        <time>2012-12-09T09:52:11.000Z</time>
      </trkpt>
      <trkpt lat="43.48597" lon="6.79389">
        <ele>375.6</ele>
        <time>2012-12-09T09:52:12.000Z</time>
      </trkpt>
      <trkpt lat="43.48594" lon="6.79387">
        <ele>374.9</ele>
        <time>2012-12-09T09:52:13.000Z</time>
      </trkpt>
      <trkpt lat="43.48591" lon="6.79385">
        <ele>374.4</ele>
        <time>2012-12-09T09:52:14.000Z</time>
      </trkpt>
      <trkpt lat="43.48587" lon="6.79383">
        <ele>374</ele>
        <time>2012-12-09T09:52:15.000Z</time>
      </trkpt>
      <trkpt lat="43.48584" lon="6.79381">
        <ele>373</ele>
        <time>2012-12-09T09:52:16.000Z</time>
      </trkpt>
      <trkpt lat="43.48581" lon="6.79379">
        <ele>372.2</ele>
        <time>2012-12-09T09:52:17.000Z</time>
      </trkpt>
      <trkpt lat="43.48579" lon="6.79377">
        <ele>372</ele>
        <time>2012-12-09T09:52:18.000Z</time>
      </trkpt>
      <trkpt lat="43.48576" lon="6.79374">
        <ele>371.6</ele>
        <time>2012-12-09T09:52:19.000Z</time>
      </trkpt>
      <trkpt lat="43.48573" lon="6.79372">
        <ele>371.3</ele>
        <time>2012-12-09T09:52:20.000Z</time>
      </trkpt>
      <trkpt lat="43.48571" lon="6.7937">
        <ele>370.9</ele>
        <time>2012-12-09T09:52:21.000Z</time>
      </trkpt>
      <trkpt lat="43.48568" lon="6.79367">
        <ele>370.8</ele>
        <time>2012-12-09T09:52:22.000Z</time>
      </trkpt>
      <trkpt lat="43.48565" lon="6.79364">
        <ele>370.7</ele>
        <time>2012-12-09T09:52:23.000Z</time>
      </trkpt>
      <trkpt lat="43.48563" lon="6.79361">
        <ele>370.6</ele>
        <time>2012-12-09T09:52:24.000Z</time>
      </trkpt>
      <trkpt lat="43.4856" lon="6.79358">
        <ele>370.4</ele>
        <time>2012-12-09T09:52:25.000Z</time>
      </trkpt>
      <trkpt lat="43.48557" lon="6.79355">
        <ele>370.1</ele>
        <time>2012-12-09T09:52:26.000Z</time>
      </trkpt>
      <trkpt lat="43.48555" lon="6.79352">
        <ele>369.8</ele>
        <time>2012-12-09T09:52:27.000Z</time>
      </trkpt>
      <trkpt lat="43.48552" lon="6.7935">
        <ele>369.5</ele>
        <time>2012-12-09T09:52:28.000Z</time>
      </trkpt>
      <trkpt lat="43.48549" lon="6.79347">
        <ele>369.1</ele>
        <time>2012-12-09T09:52:29.000Z</time>
      </trkpt>
      <trkpt lat="43.48546" lon="6.79344">
        <ele>368.8</ele>
        <time>2012-12-09T09:52:30.000Z</time>
      </trkpt>
      <trkpt lat="43.48544" lon="6.79341">
        <ele>368.5</ele>
        <time>2012-12-09T09:52:31.000Z</time>
      </trkpt>
      <trkpt lat="43.48541" lon="6.79338">
        <ele>368.3</ele>
        <time>2012-12-09T09:52:32.000Z</time>
      </trkpt>
      <trkpt lat="43.48539" lon="6.79335">
        <ele>368</ele>
        <time>2012-12-09T09:52:33.000Z</time>
      </trkpt>
      <trkpt lat="43.48537" lon="6.79333">
        <ele>367.9</ele>
        <time>2012-12-09T09:52:34.000Z</time>
      </trkpt>
      <trkpt lat="43.48535" lon="6.79331">
        <ele>367.8</ele>
        <time>2012-12-09T09:52:35.000Z</time>
      </trkpt>
      <trkpt lat="43.48533" lon="6.79326">
        <ele>367.8</ele>
        <time>2012-12-09T09:52:37.000Z</time>
      </trkpt>
      <trkpt lat="43.48532" lon="6.79324">
        <ele>367.7</ele>
        <time>2012-12-09T09:52:38.000Z</time>
      </trkpt>
      <trkpt lat="43.48533" lon="6.79319">
        <ele>367.8</ele>
        <time>2012-12-09T09:52:40.000Z</time>
      </trkpt>
      <trkpt lat="43.48533" lon="6.79317">
        <ele>368</ele>
        <time>2012-12-09T09:52:41.000Z</time>
      </trkpt>
      <trkpt lat="43.48533" lon="6.79313">
        <ele>368</ele>
        <time>2012-12-09T09:52:43.000Z</time>
      </trkpt>
      <trkpt lat="43.48533" lon="6.7931">
        <ele>367.6</ele>
        <time>2012-12-09T09:52:44.000Z</time>
      </trkpt>
      <trkpt lat="43.48532" lon="6.79308">
        <ele>367.5</ele>
        <time>2012-12-09T09:52:46.000Z</time>
      </trkpt>
      <trkpt lat="43.48519" lon="6.79316">
        <ele>367.1</ele>
        <time>2012-12-09T09:53:05.000Z</time>
      </trkpt>
      <trkpt lat="43.48516" lon="6.7932">
        <ele>369.7</ele>
        <time>2012-12-09T09:53:08.000Z</time>
      </trkpt>
      <trkpt lat="43.48514" lon="6.7932">
        <ele>370.6</ele>
        <time>2012-12-09T09:53:09.000Z</time>
      </trkpt>
      <trkpt lat="43.48511" lon="6.7932">
        <ele>370</ele>
        <time>2012-12-09T09:53:11.000Z</time>
      </trkpt>
      <trkpt lat="43.48509" lon="6.7932">
        <ele>369.8</ele>
        <time>2012-12-09T09:53:12.000Z</time>
      </trkpt>
      <trkpt lat="43.48506" lon="6.7932">
        <ele>369.9</ele>
        <time>2012-12-09T09:53:14.000Z</time>
      </trkpt>
      <trkpt lat="43.48504" lon="6.7932">
        <ele>369.7</ele>
        <time>2012-12-09T09:53:15.000Z</time>
      </trkpt>
      <trkpt lat="43.48502" lon="6.7932">
        <ele>369.4</ele>
        <time>2012-12-09T09:53:16.000Z</time>
      </trkpt>
      <trkpt lat="43.48499" lon="6.79319">
        <ele>368.9</ele>
        <time>2012-12-09T09:53:17.000Z</time>
      </trkpt>
      <trkpt lat="43.48496" lon="6.79319">
        <ele>368.3</ele>
        <time>2012-12-09T09:53:18.000Z</time>
      </trkpt>
      <trkpt lat="43.48494" lon="6.79318">
        <ele>367.5</ele>
        <time>2012-12-09T09:53:19.000Z</time>
      </trkpt>
      <trkpt lat="43.48491" lon="6.79318">
        <ele>367</ele>
        <time>2012-12-09T09:53:20.000Z</time>
      </trkpt>
      <trkpt lat="43.48489" lon="6.79317">
        <ele>366.5</ele>
        <time>2012-12-09T09:53:21.000Z</time>
      </trkpt>
      <trkpt lat="43.48487" lon="6.79316">
        <ele>366.1</ele>
        <time>2012-12-09T09:53:22.000Z</time>
      </trkpt>
      <trkpt lat="43.48484" lon="6.79315">
        <ele>365.8</ele>
        <time>2012-12-09T09:53:23.000Z</time>
      </trkpt>
      <trkpt lat="43.48481" lon="6.79311">
        <ele>365</ele>
        <time>2012-12-09T09:53:25.000Z</time>
      </trkpt>
      <trkpt lat="43.48479" lon="6.79309">
        <ele>364.6</ele>
        <time>2012-12-09T09:53:26.000Z</time>
      </trkpt>
      <trkpt lat="43.48477" lon="6.79303">
        <ele>363.5</ele>
        <time>2012-12-09T09:53:28.000Z</time>
      </trkpt>
      <trkpt lat="43.48476" lon="6.79301">
        <ele>363.1</ele>
        <time>2012-12-09T09:53:29.000Z</time>
      </trkpt>
      <trkpt lat="43.48475" lon="6.79295">
        <ele>362.4</ele>
        <time>2012-12-09T09:53:31.000Z</time>
      </trkpt>
      <trkpt lat="43.48475" lon="6.79292">
        <ele>362.1</ele>
        <time>2012-12-09T09:53:32.000Z</time>
      </trkpt>
      <trkpt lat="43.48473" lon="6.79286">
        <ele>361.5</ele>
        <time>2012-12-09T09:53:34.000Z</time>
      </trkpt>
      <trkpt lat="43.48472" lon="6.79283">
        <ele>361.2</ele>
        <time>2012-12-09T09:53:35.000Z</time>
      </trkpt>
      <trkpt lat="43.48472" lon="6.7928">
        <ele>360.9</ele>
        <time>2012-12-09T09:53:36.000Z</time>
      </trkpt>
      <trkpt lat="43.48471" lon="6.79277">
        <ele>360.6</ele>
        <time>2012-12-09T09:53:37.000Z</time>
      </trkpt>
      <trkpt lat="43.4847" lon="6.79274">
        <ele>360.4</ele>
        <time>2012-12-09T09:53:38.000Z</time>
      </trkpt>
      <trkpt lat="43.48469" lon="6.79271">
        <ele>360.1</ele>
        <time>2012-12-09T09:53:39.000Z</time>
      </trkpt>
      <trkpt lat="43.48467" lon="6.79266">
        <ele>359.5</ele>
        <time>2012-12-09T09:53:41.000Z</time>
      </trkpt>
      <trkpt lat="43.48466" lon="6.79265">
        <ele>359.5</ele>
        <time>2012-12-09T09:53:42.000Z</time>
      </trkpt>
      <trkpt lat="43.48467" lon="6.79263">
        <ele>359.2</ele>
        <time>2012-12-09T09:53:46.000Z</time>
      </trkpt>
      <trkpt lat="43.48468" lon="6.7925">
        <ele>352.4</ele>
        <time>2012-12-09T09:54:02.000Z</time>
      </trkpt>
      <trkpt lat="43.48468" lon="6.79245">
        <ele>351.9</ele>
        <time>2012-12-09T09:54:03.000Z</time>
      </trkpt>
      <trkpt lat="43.48466" lon="6.7924">
        <ele>351.7</ele>
        <time>2012-12-09T09:54:04.000Z</time>
      </trkpt>
      <trkpt lat="43.48465" lon="6.79235">
        <ele>351.4</ele>
        <time>2012-12-09T09:54:05.000Z</time>
      </trkpt>
      <trkpt lat="43.48465" lon="6.7923">
        <ele>351.2</ele>
        <time>2012-12-09T09:54:06.000Z</time>
      </trkpt>
      <trkpt lat="43.48464" lon="6.79225">
        <ele>350.9</ele>
        <time>2012-12-09T09:54:07.000Z</time>
      </trkpt>
      <trkpt lat="43.48462" lon="6.7922">
        <ele>350.6</ele>
        <time>2012-12-09T09:54:08.000Z</time>
      </trkpt>
      <trkpt lat="43.48461" lon="6.79215">
        <ele>350.4</ele>
        <time>2012-12-09T09:54:09.000Z</time>
      </trkpt>
      <trkpt lat="43.48461" lon="6.7921">
        <ele>350</ele>
        <time>2012-12-09T09:54:10.000Z</time>
      </trkpt>
      <trkpt lat="43.4846" lon="6.79204">
        <ele>349.7</ele>
        <time>2012-12-09T09:54:11.000Z</time>
      </trkpt>
      <trkpt lat="43.48459" lon="6.79199">
        <ele>349.5</ele>
        <time>2012-12-09T09:54:12.000Z</time>
      </trkpt>
      <trkpt lat="43.48459" lon="6.79194">
        <ele>349.1</ele>
        <time>2012-12-09T09:54:13.000Z</time>
      </trkpt>
      <trkpt lat="43.48458" lon="6.79189">
        <ele>348.7</ele>
        <time>2012-12-09T09:54:14.000Z</time>
      </trkpt>
      <trkpt lat="43.48457" lon="6.79184">
        <ele>348.3</ele>
        <time>2012-12-09T09:54:15.000Z</time>
      </trkpt>
      <trkpt lat="43.48457" lon="6.7918">
        <ele>347.9</ele>
        <time>2012-12-09T09:54:16.000Z</time>
      </trkpt>
      <trkpt lat="43.48456" lon="6.79175">
        <ele>347.6</ele>
        <time>2012-12-09T09:54:17.000Z</time>
      </trkpt>
      <trkpt lat="43.48455" lon="6.7917">
        <ele>347.4</ele>
        <time>2012-12-09T09:54:18.000Z</time>
      </trkpt>
      <trkpt lat="43.48455" lon="6.79165">
        <ele>347.3</ele>
        <time>2012-12-09T09:54:19.000Z</time>
      </trkpt>
      <trkpt lat="43.48454" lon="6.79161">
        <ele>347.3</ele>
        <time>2012-12-09T09:54:20.000Z</time>
      </trkpt>
      <trkpt lat="43.48454" lon="6.79156">
        <ele>347.2</ele>
        <time>2012-12-09T09:54:21.000Z</time>
      </trkpt>
      <trkpt lat="43.48454" lon="6.79151">
        <ele>347.2</ele>
        <time>2012-12-09T09:54:22.000Z</time>
      </trkpt>
      <trkpt lat="43.48454" lon="6.79147">
        <ele>347.1</ele>
        <time>2012-12-09T09:54:23.000Z</time>
      </trkpt>
      <trkpt lat="43.48453" lon="6.79143">
        <ele>347</ele>
        <time>2012-12-09T09:54:24.000Z</time>
      </trkpt>
      <trkpt lat="43.48452" lon="6.79138">
        <ele>346.8</ele>
        <time>2012-12-09T09:54:25.000Z</time>
      </trkpt>
      <trkpt lat="43.48451" lon="6.79133">
        <ele>346.5</ele>
        <time>2012-12-09T09:54:26.000Z</time>
      </trkpt>
      <trkpt lat="43.4845" lon="6.79127">
        <ele>346.2</ele>
        <time>2012-12-09T09:54:27.000Z</time>
      </trkpt>
      <trkpt lat="43.48449" lon="6.79122">
        <ele>346</ele>
        <time>2012-12-09T09:54:28.000Z</time>
      </trkpt>
      <trkpt lat="43.48448" lon="6.79117">
        <ele>346</ele>
        <time>2012-12-09T09:54:29.000Z</time>
      </trkpt>
      <trkpt lat="43.48447" lon="6.79113">
        <ele>345.8</ele>
        <time>2012-12-09T09:54:30.000Z</time>
      </trkpt>
      <trkpt lat="43.48447" lon="6.79108">
        <ele>345.6</ele>
        <time>2012-12-09T09:54:31.000Z</time>
      </trkpt>
      <trkpt lat="43.48446" lon="6.79103">
        <ele>345.3</ele>
        <time>2012-12-09T09:54:32.000Z</time>
      </trkpt>
      <trkpt lat="43.48445" lon="6.79098">
        <ele>345.4</ele>
        <time>2012-12-09T09:54:33.000Z</time>
      </trkpt>
      <trkpt lat="43.48444" lon="6.79094">
        <ele>345.4</ele>
        <time>2012-12-09T09:54:34.000Z</time>
      </trkpt>
      <trkpt lat="43.48444" lon="6.7909">
        <ele>345.2</ele>
        <time>2012-12-09T09:54:35.000Z</time>
      </trkpt>
      <trkpt lat="43.48443" lon="6.79085">
        <ele>345.1</ele>
        <time>2012-12-09T09:54:36.000Z</time>
      </trkpt>
      <trkpt lat="43.48443" lon="6.79081">
        <ele>344.8</ele>
        <time>2012-12-09T09:54:37.000Z</time>
      </trkpt>
      <trkpt lat="43.48444" lon="6.79077">
        <ele>344.7</ele>
        <time>2012-12-09T09:54:38.000Z</time>
      </trkpt>
      <trkpt lat="43.48445" lon="6.79073">
        <ele>344.6</ele>
        <time>2012-12-09T09:54:39.000Z</time>
      </trkpt>
      <trkpt lat="43.48445" lon="6.79069">
        <ele>344.6</ele>
        <time>2012-12-09T09:54:40.000Z</time>
      </trkpt>
      <trkpt lat="43.48445" lon="6.79065">
        <ele>344.5</ele>
        <time>2012-12-09T09:54:41.000Z</time>
      </trkpt>
      <trkpt lat="43.48445" lon="6.79061">
        <ele>344.6</ele>
        <time>2012-12-09T09:54:42.000Z</time>
      </trkpt>
      <trkpt lat="43.48443" lon="6.79056">
        <ele>344.8</ele>
        <time>2012-12-09T09:54:44.000Z</time>
      </trkpt>
      <trkpt lat="43.48442" lon="6.79056">
        <ele>345</ele>
        <time>2012-12-09T09:54:45.000Z</time>
      </trkpt>
      <trkpt lat="43.4844" lon="6.79061">
        <ele>344.8</ele>
        <time>2012-12-09T09:54:46.000Z</time>
      </trkpt>
      <trkpt lat="43.48437" lon="6.79064">
        <ele>344.6</ele>
        <time>2012-12-09T09:54:47.000Z</time>
      </trkpt>
      <trkpt lat="43.48435" lon="6.79067">
        <ele>344.5</ele>
        <time>2012-12-09T09:54:48.000Z</time>
      </trkpt>
      <trkpt lat="43.48432" lon="6.7907">
        <ele>344.5</ele>
        <time>2012-12-09T09:54:49.000Z</time>
      </trkpt>
      <trkpt lat="43.4843" lon="6.79072">
        <ele>344.4</ele>
        <time>2012-12-09T09:54:50.000Z</time>
      </trkpt>
      <trkpt lat="43.48427" lon="6.79075">
        <ele>344.4</ele>
        <time>2012-12-09T09:54:51.000Z</time>
      </trkpt>
      <trkpt lat="43.48424" lon="6.79078">
        <ele>344.4</ele>
        <time>2012-12-09T09:54:52.000Z</time>
      </trkpt>
      <trkpt lat="43.48422" lon="6.7908">
        <ele>344.4</ele>
        <time>2012-12-09T09:54:53.000Z</time>
      </trkpt>
      <trkpt lat="43.4842" lon="6.79082">
        <ele>344.4</ele>
        <time>2012-12-09T09:54:54.000Z</time>
      </trkpt>
      <trkpt lat="43.48417" lon="6.79084">
        <ele>344.3</ele>
        <time>2012-12-09T09:54:55.000Z</time>
      </trkpt>
      <trkpt lat="43.48414" lon="6.79085">
        <ele>344.2</ele>
        <time>2012-12-09T09:54:56.000Z</time>
      </trkpt>
      <trkpt lat="43.48411" lon="6.79085">
        <ele>344.1</ele>
        <time>2012-12-09T09:54:57.000Z</time>
      </trkpt>
      <trkpt lat="43.48408" lon="6.79086">
        <ele>344.2</ele>
        <time>2012-12-09T09:54:58.000Z</time>
      </trkpt>
      <trkpt lat="43.48404" lon="6.79087">
        <ele>344.3</ele>
        <time>2012-12-09T09:54:59.000Z</time>
      </trkpt>
      <trkpt lat="43.48401" lon="6.79088">
        <ele>344.1</ele>
        <time>2012-12-09T09:55:00.000Z</time>
      </trkpt>
      <trkpt lat="43.48398" lon="6.79088">
        <ele>343.9</ele>
        <time>2012-12-09T09:55:01.000Z</time>
      </trkpt>
      <trkpt lat="43.48395" lon="6.79089">
        <ele>343.6</ele>
        <time>2012-12-09T09:55:02.000Z</time>
      </trkpt>
      <trkpt lat="43.48392" lon="6.79089">
        <ele>343.3</ele>
        <time>2012-12-09T09:55:03.000Z</time>
      </trkpt>
      <trkpt lat="43.48389" lon="6.79088">
        <ele>343.1</ele>
        <time>2012-12-09T09:55:04.000Z</time>
      </trkpt>
      <trkpt lat="43.48386" lon="6.79087">
        <ele>342.8</ele>
        <time>2012-12-09T09:55:05.000Z</time>
      </trkpt>
      <trkpt lat="43.48383" lon="6.79085">
        <ele>342.6</ele>
        <time>2012-12-09T09:55:06.000Z</time>
      </trkpt>
      <trkpt lat="43.4838" lon="6.79084">
        <ele>342.4</ele>
        <time>2012-12-09T09:55:07.000Z</time>
      </trkpt>
      <trkpt lat="43.48377" lon="6.79084">
        <ele>342.2</ele>
        <time>2012-12-09T09:55:08.000Z</time>
      </trkpt>
      <trkpt lat="43.48374" lon="6.79086">
        <ele>342.2</ele>
        <time>2012-12-09T09:55:09.000Z</time>
      </trkpt>
      <trkpt lat="43.48371" lon="6.79088">
        <ele>342</ele>
        <time>2012-12-09T09:55:10.000Z</time>
      </trkpt>
      <trkpt lat="43.48368" lon="6.79091">
        <ele>341.7</ele>
        <time>2012-12-09T09:55:11.000Z</time>
      </trkpt>
      <trkpt lat="43.48365" lon="6.79093">
        <ele>341.6</ele>
        <time>2012-12-09T09:55:12.000Z</time>
      </trkpt>
      <trkpt lat="43.48363" lon="6.79095">
        <ele>341.6</ele>
        <time>2012-12-09T09:55:13.000Z</time>
      </trkpt>
      <trkpt lat="43.4836" lon="6.79098">
        <ele>341.6</ele>
        <time>2012-12-09T09:55:14.000Z</time>
      </trkpt>
      <trkpt lat="43.48357" lon="6.791">
        <ele>341.5</ele>
        <time>2012-12-09T09:55:15.000Z</time>
      </trkpt>
      <trkpt lat="43.48355" lon="6.79103">
        <ele>341.3</ele>
        <time>2012-12-09T09:55:16.000Z</time>
      </trkpt>
      <trkpt lat="43.48352" lon="6.79105">
        <ele>341.2</ele>
        <time>2012-12-09T09:55:17.000Z</time>
      </trkpt>
      <trkpt lat="43.48349" lon="6.79107">
        <ele>341.1</ele>
        <time>2012-12-09T09:55:18.000Z</time>
      </trkpt>
      <trkpt lat="43.48346" lon="6.79108">
        <ele>341</ele>
        <time>2012-12-09T09:55:19.000Z</time>
      </trkpt>
      <trkpt lat="43.48343" lon="6.79109">
        <ele>340.9</ele>
        <time>2012-12-09T09:55:20.000Z</time>
      </trkpt>
      <trkpt lat="43.4834" lon="6.79109">
        <ele>340.6</ele>
        <time>2012-12-09T09:55:21.000Z</time>
      </trkpt>
      <trkpt lat="43.48336" lon="6.79109">
        <ele>340.4</ele>
        <time>2012-12-09T09:55:23.000Z</time>
      </trkpt>
      <trkpt lat="43.48335" lon="6.79109">
        <ele>340.4</ele>
        <time>2012-12-09T09:55:24.000Z</time>
      </trkpt>
      <trkpt lat="43.48331" lon="6.79113">
        <ele>337.9</ele>
        <time>2012-12-09T09:55:33.000Z</time>
      </trkpt>
      <trkpt lat="43.4833" lon="6.79113">
        <ele>337.7</ele>
        <time>2012-12-09T09:55:34.000Z</time>
      </trkpt>
      <trkpt lat="43.48327" lon="6.79115">
        <ele>337.4</ele>
        <time>2012-12-09T09:55:37.000Z</time>
      </trkpt>
      <trkpt lat="43.48325" lon="6.79116">
        <ele>337.4</ele>
        <time>2012-12-09T09:55:38.000Z</time>
      </trkpt>
      <trkpt lat="43.48321" lon="6.79118">
        <ele>337.7</ele>
        <time>2012-12-09T09:55:40.000Z</time>
      </trkpt>
      <trkpt lat="43.48318" lon="6.79119">
        <ele>337.8</ele>
        <time>2012-12-09T09:55:41.000Z</time>
      </trkpt>
      <trkpt lat="43.48316" lon="6.7912">
        <ele>337.7</ele>
        <time>2012-12-09T09:55:42.000Z</time>
      </trkpt>
      <trkpt lat="43.48313" lon="6.7912">
        <ele>337.6</ele>
        <time>2012-12-09T09:55:43.000Z</time>
      </trkpt>
      <trkpt lat="43.4831" lon="6.79121">
        <ele>337.4</ele>
        <time>2012-12-09T09:55:44.000Z</time>
      </trkpt>
      <trkpt lat="43.48308" lon="6.79122">
        <ele>337.3</ele>
        <time>2012-12-09T09:55:45.000Z</time>
      </trkpt>
      <trkpt lat="43.48304" lon="6.79122">
        <ele>337.1</ele>
        <time>2012-12-09T09:55:46.000Z</time>
      </trkpt>
      <trkpt lat="43.48252" lon="6.79136">
        <ele>323.7</ele>
        <time>2012-12-09T09:56:00.000Z</time>
      </trkpt>
      <trkpt lat="43.48248" lon="6.79136">
        <ele>322.8</ele>
        <time>2012-12-09T09:56:01.000Z</time>
      </trkpt>
      <trkpt lat="43.48243" lon="6.79137">
        <ele>322.5</ele>
        <time>2012-12-09T09:56:02.000Z</time>
      </trkpt>
      <trkpt lat="43.48239" lon="6.79136">
        <ele>321.8</ele>
        <time>2012-12-09T09:56:03.000Z</time>
      </trkpt>
      <trkpt lat="43.48234" lon="6.79136">
        <ele>320.9</ele>
        <time>2012-12-09T09:56:04.000Z</time>
      </trkpt>
      <trkpt lat="43.48229" lon="6.79135">
        <ele>320.2</ele>
        <time>2012-12-09T09:56:05.000Z</time>
      </trkpt>
      <trkpt lat="43.48225" lon="6.79134">
        <ele>319.7</ele>
        <time>2012-12-09T09:56:06.000Z</time>
      </trkpt>
      <trkpt lat="43.48221" lon="6.79132">
        <ele>319.7</ele>
        <time>2012-12-09T09:56:07.000Z</time>
      </trkpt>
      <trkpt lat="43.48216" lon="6.79131">
        <ele>319.6</ele>
        <time>2012-12-09T09:56:08.000Z</time>
      </trkpt>
      <trkpt lat="43.48211" lon="6.7913">
        <ele>319.3</ele>
        <time>2012-12-09T09:56:09.000Z</time>
      </trkpt>
      <trkpt lat="43.48202" lon="6.79128">
        <ele>318.6</ele>
        <time>2012-12-09T09:56:10.000Z</time>
      </trkpt>
      <trkpt lat="43.48197" lon="6.79128">
        <ele>318.1</ele>
        <time>2012-12-09T09:56:11.000Z</time>
      </trkpt>
      <trkpt lat="43.48192" lon="6.79128">
        <ele>318.1</ele>
        <time>2012-12-09T09:56:12.000Z</time>
      </trkpt>
      <trkpt lat="43.48187" lon="6.79127">
        <ele>317.5</ele>
        <time>2012-12-09T09:56:13.000Z</time>
      </trkpt>
      <trkpt lat="43.48181" lon="6.79126">
        <ele>317</ele>
        <time>2012-12-09T09:56:14.000Z</time>
      </trkpt>
      <trkpt lat="43.48176" lon="6.79126">
        <ele>316.3</ele>
        <time>2012-12-09T09:56:15.000Z</time>
      </trkpt>
      <trkpt lat="43.4817" lon="6.79125">
        <ele>315.6</ele>
        <time>2012-12-09T09:56:16.000Z</time>
      </trkpt>
      <trkpt lat="43.48164" lon="6.79124">
        <ele>315</ele>
        <time>2012-12-09T09:56:17.000Z</time>
      </trkpt>
      <trkpt lat="43.48158" lon="6.79124">
        <ele>314.7</ele>
        <time>2012-12-09T09:56:18.000Z</time>
      </trkpt>
      <trkpt lat="43.48153" lon="6.79123">
        <ele>314.2</ele>
        <time>2012-12-09T09:56:19.000Z</time>
      </trkpt>
      <trkpt lat="43.48147" lon="6.79121">
        <ele>313.4</ele>
        <time>2012-12-09T09:56:20.000Z</time>
      </trkpt>
      <trkpt lat="43.48141" lon="6.79119">
        <ele>312.7</ele>
        <time>2012-12-09T09:56:21.000Z</time>
      </trkpt>
      <trkpt lat="43.48136" lon="6.79116">
        <ele>311.8</ele>
        <time>2012-12-09T09:56:22.000Z</time>
      </trkpt>
      <trkpt lat="43.4813" lon="6.79113">
        <ele>310.9</ele>
        <time>2012-12-09T09:56:23.000Z</time>
      </trkpt>
      <trkpt lat="43.48125" lon="6.7911">
        <ele>310.2</ele>
        <time>2012-12-09T09:56:24.000Z</time>
      </trkpt>
      <trkpt lat="43.48119" lon="6.79107">
        <ele>309.7</ele>
        <time>2012-12-09T09:56:25.000Z</time>
      </trkpt>
      <trkpt lat="43.48113" lon="6.79106">
        <ele>309.6</ele>
        <time>2012-12-09T09:56:26.000Z</time>
      </trkpt>
      <trkpt lat="43.48107" lon="6.79106">
        <ele>309.6</ele>
        <time>2012-12-09T09:56:27.000Z</time>
      </trkpt>
      <trkpt lat="43.48102" lon="6.79108">
        <ele>309.7</ele>
        <time>2012-12-09T09:56:28.000Z</time>
      </trkpt>
      <trkpt lat="43.48097" lon="6.7911">
        <ele>309.5</ele>
        <time>2012-12-09T09:56:29.000Z</time>
      </trkpt>
      <trkpt lat="43.48091" lon="6.79113">
        <ele>309.4</ele>
        <time>2012-12-09T09:56:30.000Z</time>
      </trkpt>
      <trkpt lat="43.48086" lon="6.79115">
        <ele>309.2</ele>
        <time>2012-12-09T09:56:31.000Z</time>
      </trkpt>
      <trkpt lat="43.4808" lon="6.79117">
        <ele>308.9</ele>
        <time>2012-12-09T09:56:32.000Z</time>
      </trkpt>
      <trkpt lat="43.48075" lon="6.79119">
        <ele>308.8</ele>
        <time>2012-12-09T09:56:33.000Z</time>
      </trkpt>
      <trkpt lat="43.48069" lon="6.79121">
        <ele>308.6</ele>
        <time>2012-12-09T09:56:34.000Z</time>
      </trkpt>
      <trkpt lat="43.48063" lon="6.79122">
        <ele>308.1</ele>
        <time>2012-12-09T09:56:35.000Z</time>
      </trkpt>
      <trkpt lat="43.48058" lon="6.79123">
        <ele>307.7</ele>
        <time>2012-12-09T09:56:36.000Z</time>
      </trkpt>
      <trkpt lat="43.48054" lon="6.79123">
        <ele>307.1</ele>
        <time>2012-12-09T09:56:37.000Z</time>
      </trkpt>
      <trkpt lat="43.48049" lon="6.79123">
        <ele>306.6</ele>
        <time>2012-12-09T09:56:38.000Z</time>
      </trkpt>
      <trkpt lat="43.48044" lon="6.79123">
        <ele>306</ele>
        <time>2012-12-09T09:56:39.000Z</time>
      </trkpt>
      <trkpt lat="43.48038" lon="6.79124">
        <ele>305.5</ele>
        <time>2012-12-09T09:56:40.000Z</time>
      </trkpt>
      <trkpt lat="43.48033" lon="6.79125">
        <ele>305</ele>
        <time>2012-12-09T09:56:41.000Z</time>
      </trkpt>
      <trkpt lat="43.48028" lon="6.79127">
        <ele>304.5</ele>
        <time>2012-12-09T09:56:42.000Z</time>
      </trkpt>
      <trkpt lat="43.48022" lon="6.79127">
        <ele>304</ele>
        <time>2012-12-09T09:56:43.000Z</time>
      </trkpt>
      <trkpt lat="43.48018" lon="6.79128">
        <ele>303.9</ele>
        <time>2012-12-09T09:56:44.000Z</time>
      </trkpt>
      <trkpt lat="43.48013" lon="6.79127">
        <ele>303.7</ele>
        <time>2012-12-09T09:56:45.000Z</time>
      </trkpt>
      <trkpt lat="43.48008" lon="6.79119">
        <ele>297.9</ele>
        <time>2012-12-09T09:56:56.000Z</time>
      </trkpt>
      <trkpt lat="43.48008" lon="6.79119">
        <ele>297.9</ele>
        <time>2012-12-09T09:57:46.000Z</time>
      </trkpt>
      <trkpt lat="43.48013" lon="6.79131">
        <ele>296.6</ele>
        <time>2012-12-09T09:57:56.000Z</time>
      </trkpt>
      <trkpt lat="43.48016" lon="6.79134">
        <ele>298.9</ele>
        <time>2012-12-09T09:58:20.000Z</time>
      </trkpt>
      <trkpt lat="43.48018" lon="6.79135">
        <ele>298.4</ele>
        <time>2012-12-09T09:58:21.000Z</time>
      </trkpt>
      <trkpt lat="43.48021" lon="6.79138">
        <ele>297.9</ele>
        <time>2012-12-09T09:58:22.000Z</time>
      </trkpt>
      <trkpt lat="43.48025" lon="6.79139">
        <ele>297.5</ele>
        <time>2012-12-09T09:58:23.000Z</time>
      </trkpt>
      <trkpt lat="43.4803" lon="6.79141">
        <ele>297.1</ele>
        <time>2012-12-09T09:58:24.000Z</time>
      </trkpt>
      <trkpt lat="43.48034" lon="6.79142">
        <ele>296.7</ele>
        <time>2012-12-09T09:58:25.000Z</time>
      </trkpt>
      <trkpt lat="43.4804" lon="6.79145">
        <ele>296.1</ele>
        <time>2012-12-09T09:58:26.000Z</time>
      </trkpt>
      <trkpt lat="43.48045" lon="6.79147">
        <ele>295.8</ele>
        <time>2012-12-09T09:58:27.000Z</time>
      </trkpt>
      <trkpt lat="43.4805" lon="6.79151">
        <ele>295.7</ele>
        <time>2012-12-09T09:58:28.000Z</time>
      </trkpt>
      <trkpt lat="43.48055" lon="6.79155">
        <ele>295.1</ele>
        <time>2012-12-09T09:58:29.000Z</time>
      </trkpt>
      <trkpt lat="43.48059" lon="6.79158">
        <ele>294.8</ele>
        <time>2012-12-09T09:58:30.000Z</time>
      </trkpt>
      <trkpt lat="43.48065" lon="6.79161">
        <ele>294.2</ele>
        <time>2012-12-09T09:58:31.000Z</time>
      </trkpt>
      <trkpt lat="43.4807" lon="6.79164">
        <ele>293.6</ele>
        <time>2012-12-09T09:58:32.000Z</time>
      </trkpt>
      <trkpt lat="43.48075" lon="6.79167">
        <ele>293</ele>
        <time>2012-12-09T09:58:33.000Z</time>
      </trkpt>
      <trkpt lat="43.48081" lon="6.79169">
        <ele>292.6</ele>
        <time>2012-12-09T09:58:34.000Z</time>
      </trkpt>
      <trkpt lat="43.48086" lon="6.7917">
        <ele>292.3</ele>
        <time>2012-12-09T09:58:35.000Z</time>
      </trkpt>
      <trkpt lat="43.48091" lon="6.79172">
        <ele>292</ele>
        <time>2012-12-09T09:58:36.000Z</time>
      </trkpt>
      <trkpt lat="43.48096" lon="6.79173">
        <ele>291.6</ele>
        <time>2012-12-09T09:58:37.000Z</time>
      </trkpt>
      <trkpt lat="43.48102" lon="6.79174">
        <ele>291.3</ele>
        <time>2012-12-09T09:58:38.000Z</time>
      </trkpt>
      <trkpt lat="43.48107" lon="6.79175">
        <ele>290.9</ele>
        <time>2012-12-09T09:58:39.000Z</time>
      </trkpt>
      <trkpt lat="43.48111" lon="6.79176">
        <ele>290.6</ele>
        <time>2012-12-09T09:58:40.000Z</time>
      </trkpt>
      <trkpt lat="43.48116" lon="6.79176">
        <ele>290.4</ele>
        <time>2012-12-09T09:58:41.000Z</time>
      </trkpt>
      <trkpt lat="43.4812" lon="6.79177">
        <ele>290.2</ele>
        <time>2012-12-09T09:58:42.000Z</time>
      </trkpt>
      <trkpt lat="43.48123" lon="6.79179">
        <ele>290.3</ele>
        <time>2012-12-09T09:58:44.000Z</time>
      </trkpt>
      <trkpt lat="43.48124" lon="6.7918">
        <ele>290.4</ele>
        <time>2012-12-09T09:58:45.000Z</time>
      </trkpt>
      <trkpt lat="43.48125" lon="6.79185">
        <ele>289.7</ele>
        <time>2012-12-09T09:59:08.000Z</time>
      </trkpt>
      <trkpt lat="43.48126" lon="6.79186">
        <ele>289.6</ele>
        <time>2012-12-09T09:59:09.000Z</time>
      </trkpt>
      <trkpt lat="43.4813" lon="6.79188">
        <ele>289</ele>
        <time>2012-12-09T09:59:13.000Z</time>
      </trkpt>
      <trkpt lat="43.48131" lon="6.79189">
        <ele>288.8</ele>
        <time>2012-12-09T09:59:14.000Z</time>
      </trkpt>
      <trkpt lat="43.48135" lon="6.79191">
        <ele>288.5</ele>
        <time>2012-12-09T09:59:16.000Z</time>
      </trkpt>
      <trkpt lat="43.48137" lon="6.79193">
        <ele>288.3</ele>
        <time>2012-12-09T09:59:17.000Z</time>
      </trkpt>
      <trkpt lat="43.4814" lon="6.79195">
        <ele>288</ele>
        <time>2012-12-09T09:59:18.000Z</time>
      </trkpt>
      <trkpt lat="43.48144" lon="6.79197">
        <ele>287.7</ele>
        <time>2012-12-09T09:59:19.000Z</time>
      </trkpt>
      <trkpt lat="43.48149" lon="6.792">
        <ele>287.5</ele>
        <time>2012-12-09T09:59:20.000Z</time>
      </trkpt>
      <trkpt lat="43.48153" lon="6.79202">
        <ele>287.3</ele>
        <time>2012-12-09T09:59:21.000Z</time>
      </trkpt>
      <trkpt lat="43.48158" lon="6.79205">
        <ele>287.1</ele>
        <time>2012-12-09T09:59:22.000Z</time>
      </trkpt>
      <trkpt lat="43.48162" lon="6.79208">
        <ele>286.9</ele>
        <time>2012-12-09T09:59:23.000Z</time>
      </trkpt>
      <trkpt lat="43.48167" lon="6.79211">
        <ele>286.8</ele>
        <time>2012-12-09T09:59:24.000Z</time>
      </trkpt>
      <trkpt lat="43.48172" lon="6.79215">
        <ele>286.5</ele>
        <time>2012-12-09T09:59:25.000Z</time>
      </trkpt>
      <trkpt lat="43.48176" lon="6.79219">
        <ele>286.2</ele>
        <time>2012-12-09T09:59:26.000Z</time>
      </trkpt>
      <trkpt lat="43.48181" lon="6.79223">
        <ele>286</ele>
        <time>2012-12-09T09:59:27.000Z</time>
      </trkpt>
      <trkpt lat="43.48185" lon="6.79226">
        <ele>285.9</ele>
        <time>2012-12-09T09:59:28.000Z</time>
      </trkpt>
      <trkpt lat="43.48189" lon="6.79229">
        <ele>285.7</ele>
        <time>2012-12-09T09:59:29.000Z</time>
      </trkpt>
      <trkpt lat="43.48193" lon="6.79232">
        <ele>285.5</ele>
        <time>2012-12-09T09:59:30.000Z</time>
      </trkpt>
      <trkpt lat="43.48196" lon="6.79235">
        <ele>285.3</ele>
        <time>2012-12-09T09:59:31.000Z</time>
      </trkpt>
      <trkpt lat="43.482" lon="6.79239">
        <ele>285</ele>
        <time>2012-12-09T09:59:32.000Z</time>
      </trkpt>
      <trkpt lat="43.48202" lon="6.79243">
        <ele>285</ele>
        <time>2012-12-09T09:59:33.000Z</time>
      </trkpt>
      <trkpt lat="43.48204" lon="6.79249">
        <ele>284.8</ele>
        <time>2012-12-09T09:59:34.000Z</time>
      </trkpt>
      <trkpt lat="43.48206" lon="6.79255">
        <ele>284.4</ele>
        <time>2012-12-09T09:59:35.000Z</time>
      </trkpt>
      <trkpt lat="43.48209" lon="6.7926">
        <ele>283.9</ele>
        <time>2012-12-09T09:59:36.000Z</time>
      </trkpt>
      <trkpt lat="43.48211" lon="6.79265">
        <ele>283.5</ele>
        <time>2012-12-09T09:59:37.000Z</time>
      </trkpt>
      <trkpt lat="43.48214" lon="6.7927">
        <ele>283.2</ele>
        <time>2012-12-09T09:59:38.000Z</time>
      </trkpt>
      <trkpt lat="43.48217" lon="6.79275">
        <ele>282.9</ele>
        <time>2012-12-09T09:59:39.000Z</time>
      </trkpt>
      <trkpt lat="43.48219" lon="6.7928">
        <ele>282.6</ele>
        <time>2012-12-09T09:59:40.000Z</time>
      </trkpt>
      <trkpt lat="43.48221" lon="6.79285">
        <ele>282.1</ele>
        <time>2012-12-09T09:59:41.000Z</time>
      </trkpt>
      <trkpt lat="43.48224" lon="6.79289">
        <ele>281.6</ele>
        <time>2012-12-09T09:59:42.000Z</time>
      </trkpt>
      <trkpt lat="43.48226" lon="6.79294">
        <ele>281.3</ele>
        <time>2012-12-09T09:59:43.000Z</time>
      </trkpt>
      <trkpt lat="43.48229" lon="6.79298">
        <ele>280.7</ele>
        <time>2012-12-09T09:59:44.000Z</time>
      </trkpt>
      <trkpt lat="43.48233" lon="6.79301">
        <ele>280.4</ele>
        <time>2012-12-09T09:59:45.000Z</time>
      </trkpt>
      <trkpt lat="43.48237" lon="6.79303">
        <ele>280</ele>
        <time>2012-12-09T09:59:46.000Z</time>
      </trkpt>
      <trkpt lat="43.48241" lon="6.79305">
        <ele>279.8</ele>
        <time>2012-12-09T09:59:47.000Z</time>
      </trkpt>
      <trkpt lat="43.48246" lon="6.79306">
        <ele>279.4</ele>
        <time>2012-12-09T09:59:48.000Z</time>
      </trkpt>
      <trkpt lat="43.48251" lon="6.79307">
        <ele>279.2</ele>
        <time>2012-12-09T09:59:49.000Z</time>
      </trkpt>
      <trkpt lat="43.48255" lon="6.79308">
        <ele>279</ele>
        <time>2012-12-09T09:59:50.000Z</time>
      </trkpt>
      <trkpt lat="43.48261" lon="6.79307">
        <ele>278.3</ele>
        <time>2012-12-09T09:59:51.000Z</time>
      </trkpt>
      <trkpt lat="43.48266" lon="6.79304">
        <ele>277.7</ele>
        <time>2012-12-09T09:59:52.000Z</time>
      </trkpt>
      <trkpt lat="43.48272" lon="6.79302">
        <ele>277.3</ele>
        <time>2012-12-09T09:59:53.000Z</time>
      </trkpt>
      <trkpt lat="43.48278" lon="6.79298">
        <ele>276.8</ele>
        <time>2012-12-09T09:59:54.000Z</time>
      </trkpt>
      <trkpt lat="43.48283" lon="6.79293">
        <ele>276.5</ele>
        <time>2012-12-09T09:59:55.000Z</time>
      </trkpt>
      <trkpt lat="43.48287" lon="6.79289">
        <ele>276.1</ele>
        <time>2012-12-09T09:59:56.000Z</time>
      </trkpt>
      <trkpt lat="43.48292" lon="6.79286">
        <ele>276</ele>
        <time>2012-12-09T09:59:57.000Z</time>
      </trkpt>
      <trkpt lat="43.48295" lon="6.79284">
        <ele>275.7</ele>
        <time>2012-12-09T09:59:58.000Z</time>
      </trkpt>
      <trkpt lat="43.48299" lon="6.79282">
        <ele>275.2</ele>
        <time>2012-12-09T09:59:59.000Z</time>
      </trkpt>
      <trkpt lat="43.48301" lon="6.79281">
        <ele>274.9</ele>
        <time>2012-12-09T10:00:00.000Z</time>
      </trkpt>
      <trkpt lat="43.48304" lon="6.7928">
        <ele>274.7</ele>
        <time>2012-12-09T10:00:01.000Z</time>
      </trkpt>
      <trkpt lat="43.48308" lon="6.79278">
        <ele>274</ele>
        <time>2012-12-09T10:00:05.000Z</time>
      </trkpt>
      <trkpt lat="43.48308" lon="6.79277">
        <ele>274</ele>
        <time>2012-12-09T10:00:06.000Z</time>
      </trkpt>
      <trkpt lat="43.48306" lon="6.79282">
        <ele>272.9</ele>
        <time>2012-12-09T10:00:17.000Z</time>
      </trkpt>
      <trkpt lat="43.48305" lon="6.79282">
        <ele>272.9</ele>
        <time>2012-12-09T10:00:18.000Z</time>
      </trkpt>
      <trkpt lat="43.48302" lon="6.79286">
        <ele>272.7</ele>
        <time>2012-12-09T10:00:23.000Z</time>
      </trkpt>
      <trkpt lat="43.48301" lon="6.79286">
        <ele>272.7</ele>
        <time>2012-12-09T10:00:24.000Z</time>
      </trkpt>
      <trkpt lat="43.48298" lon="6.7929">
        <ele>271.9</ele>
        <time>2012-12-09T10:00:28.000Z</time>
      </trkpt>
      <trkpt lat="43.48298" lon="6.79291">
        <ele>271.7</ele>
        <time>2012-12-09T10:00:29.000Z</time>
      </trkpt>
      <trkpt lat="43.48298" lon="6.79297">
        <ele>270.8</ele>
        <time>2012-12-09T10:00:34.000Z</time>
      </trkpt>
      <trkpt lat="43.48298" lon="6.79298">
        <ele>270.7</ele>
        <time>2012-12-09T10:00:35.000Z</time>
      </trkpt>
      <trkpt lat="43.48296" lon="6.79304">
        <ele>270.3</ele>
        <time>2012-12-09T10:00:39.000Z</time>
      </trkpt>
      <trkpt lat="43.48296" lon="6.79305">
        <ele>270.5</ele>
        <time>2012-12-09T10:00:40.000Z</time>
      </trkpt>
      <trkpt lat="43.48291" lon="6.79306">
        <ele>264.8</ele>
        <time>2012-12-09T10:02:06.000Z</time>
      </trkpt>
      <trkpt lat="43.48291" lon="6.79306">
        <ele>264.6</ele>
        <time>2012-12-09T10:02:07.000Z</time>
      </trkpt>
      <trkpt lat="43.48288" lon="6.79307">
        <ele>261.1</ele>
        <time>2012-12-09T10:02:40.000Z</time>
      </trkpt>
      <trkpt lat="43.48286" lon="6.79308">
        <ele>261.1</ele>
        <time>2012-12-09T10:02:41.000Z</time>
      </trkpt>
      <trkpt lat="43.48283" lon="6.79312">
        <ele>261.1</ele>
        <time>2012-12-09T10:02:43.000Z</time>
      </trkpt>
      <trkpt lat="43.48281" lon="6.79314">
        <ele>261</ele>
        <time>2012-12-09T10:02:44.000Z</time>
      </trkpt>
      <trkpt lat="43.48279" lon="6.79318">
        <ele>261.2</ele>
        <time>2012-12-09T10:02:45.000Z</time>
      </trkpt>
      <trkpt lat="43.48276" lon="6.79321">
        <ele>261.1</ele>
        <time>2012-12-09T10:02:46.000Z</time>
      </trkpt>
      <trkpt lat="43.48246" lon="6.7932">
        <ele>241.7</ele>
        <time>2012-12-09T10:02:52.000Z</time>
      </trkpt>
      <trkpt lat="43.48237" lon="6.79327">
        <ele>248.4</ele>
        <time>2012-12-09T10:02:54.000Z</time>
      </trkpt>
      <trkpt lat="43.48231" lon="6.7933">
        <ele>246</ele>
        <time>2012-12-09T10:02:55.000Z</time>
      </trkpt>
      <trkpt lat="43.48225" lon="6.79335">
        <ele>248.3</ele>
        <time>2012-12-09T10:02:56.000Z</time>
      </trkpt>
      <trkpt lat="43.48221" lon="6.79338">
        <ele>250.8</ele>
        <time>2012-12-09T10:02:57.000Z</time>
      </trkpt>
      <trkpt lat="43.48217" lon="6.79339">
        <ele>252.5</ele>
        <time>2012-12-09T10:02:58.000Z</time>
      </trkpt>
      <trkpt lat="43.48212" lon="6.79341">
        <ele>253.5</ele>
        <time>2012-12-09T10:02:59.000Z</time>
      </trkpt>
      <trkpt lat="43.48208" lon="6.79341">
        <ele>254</ele>
        <time>2012-12-09T10:03:00.000Z</time>
      </trkpt>
      <trkpt lat="43.48203" lon="6.7934">
        <ele>252.9</ele>
        <time>2012-12-09T10:03:01.000Z</time>
      </trkpt>
      <trkpt lat="43.48198" lon="6.79338">
        <ele>252.3</ele>
        <time>2012-12-09T10:03:02.000Z</time>
      </trkpt>
      <trkpt lat="43.48193" lon="6.79335">
        <ele>252.2</ele>
        <time>2012-12-09T10:03:03.000Z</time>
      </trkpt>
      <trkpt lat="43.48187" lon="6.79331">
        <ele>251.4</ele>
        <time>2012-12-09T10:03:04.000Z</time>
      </trkpt>
      <trkpt lat="43.48182" lon="6.79328">
        <ele>250.8</ele>
        <time>2012-12-09T10:03:05.000Z</time>
      </trkpt>
      <trkpt lat="43.48176" lon="6.79326">
        <ele>250.6</ele>
        <time>2012-12-09T10:03:06.000Z</time>
      </trkpt>
      <trkpt lat="43.4817" lon="6.79324">
        <ele>250.5</ele>
        <time>2012-12-09T10:03:07.000Z</time>
      </trkpt>
      <trkpt lat="43.48164" lon="6.79321">
        <ele>250.6</ele>
        <time>2012-12-09T10:03:08.000Z</time>
      </trkpt>
      <trkpt lat="43.48157" lon="6.79318">
        <ele>250.8</ele>
        <time>2012-12-09T10:03:09.000Z</time>
      </trkpt>
      <trkpt lat="43.4815" lon="6.79314">
        <ele>250.5</ele>
        <time>2012-12-09T10:03:10.000Z</time>
      </trkpt>
      <trkpt lat="43.48143" lon="6.7931">
        <ele>250.3</ele>
        <time>2012-12-09T10:03:11.000Z</time>
      </trkpt>
      <trkpt lat="43.48137" lon="6.79307">
        <ele>249.6</ele>
        <time>2012-12-09T10:03:12.000Z</time>
      </trkpt>
      <trkpt lat="43.4813" lon="6.79304">
        <ele>249.2</ele>
        <time>2012-12-09T10:03:13.000Z</time>
      </trkpt>
      <trkpt lat="43.48123" lon="6.79303">
        <ele>249.6</ele>
        <time>2012-12-09T10:03:14.000Z</time>
      </trkpt>
      <trkpt lat="43.48116" lon="6.79303">
        <ele>249.8</ele>
        <time>2012-12-09T10:03:15.000Z</time>
      </trkpt>
      <trkpt lat="43.48109" lon="6.79305">
        <ele>249.7</ele>
        <time>2012-12-09T10:03:16.000Z</time>
      </trkpt>
      <trkpt lat="43.48104" lon="6.79307">
        <ele>249.6</ele>
        <time>2012-12-09T10:03:17.000Z</time>
      </trkpt>
      <trkpt lat="43.48097" lon="6.79306">
        <ele>248.9</ele>
        <time>2012-12-09T10:03:18.000Z</time>
      </trkpt>
      <trkpt lat="43.48091" lon="6.79305">
        <ele>248.8</ele>
        <time>2012-12-09T10:03:19.000Z</time>
      </trkpt>
      <trkpt lat="43.48085" lon="6.79302">
        <ele>248.5</ele>
        <time>2012-12-09T10:03:20.000Z</time>
      </trkpt>
      <trkpt lat="43.4808" lon="6.79297">
        <ele>247.9</ele>
        <time>2012-12-09T10:03:21.000Z</time>
      </trkpt>
      <trkpt lat="43.48074" lon="6.79293">
        <ele>247.6</ele>
        <time>2012-12-09T10:03:22.000Z</time>
      </trkpt>
      <trkpt lat="43.48069" lon="6.7929">
        <ele>247.6</ele>
        <time>2012-12-09T10:03:23.000Z</time>
      </trkpt>
      <trkpt lat="43.48064" lon="6.79287">
        <ele>247.3</ele>
        <time>2012-12-09T10:03:24.000Z</time>
      </trkpt>
      <trkpt lat="43.48058" lon="6.79286">
        <ele>246.8</ele>
        <time>2012-12-09T10:03:25.000Z</time>
      </trkpt>
      <trkpt lat="43.48053" lon="6.79288">
        <ele>246.6</ele>
        <time>2012-12-09T10:03:26.000Z</time>
      </trkpt>
      <trkpt lat="43.48048" lon="6.79292">
        <ele>245.5</ele>
        <time>2012-12-09T10:03:27.000Z</time>
      </trkpt>
      <trkpt lat="43.48045" lon="6.79297">
        <ele>244.6</ele>
        <time>2012-12-09T10:03:28.000Z</time>
      </trkpt>
      <trkpt lat="43.48042" lon="6.79302">
        <ele>244</ele>
        <time>2012-12-09T10:03:29.000Z</time>
      </trkpt>
      <trkpt lat="43.48038" lon="6.79306">
        <ele>243.5</ele>
        <time>2012-12-09T10:03:30.000Z</time>
      </trkpt>
      <trkpt lat="43.48034" lon="6.79309">
        <ele>243.3</ele>
        <time>2012-12-09T10:03:31.000Z</time>
      </trkpt>
      <trkpt lat="43.48029" lon="6.79311">
        <ele>243.2</ele>
        <time>2012-12-09T10:03:32.000Z</time>
      </trkpt>
      <trkpt lat="43.48024" lon="6.79313">
        <ele>243.1</ele>
        <time>2012-12-09T10:03:33.000Z</time>
      </trkpt>
      <trkpt lat="43.48019" lon="6.79315">
        <ele>242.6</ele>
        <time>2012-12-09T10:03:34.000Z</time>
      </trkpt>
      <trkpt lat="43.48014" lon="6.79316">
        <ele>242.3</ele>
        <time>2012-12-09T10:03:35.000Z</time>
      </trkpt>
      <trkpt lat="43.48009" lon="6.79317">
        <ele>242</ele>
        <time>2012-12-09T10:03:36.000Z</time>
      </trkpt>
      <trkpt lat="43.48004" lon="6.79317">
        <ele>241.9</ele>
        <time>2012-12-09T10:03:37.000Z</time>
      </trkpt>
      <trkpt lat="43.47999" lon="6.79317">
        <ele>241.7</ele>
        <time>2012-12-09T10:03:38.000Z</time>
      </trkpt>
      <trkpt lat="43.47993" lon="6.79317">
        <ele>241.4</ele>
        <time>2012-12-09T10:03:39.000Z</time>
      </trkpt>
      <trkpt lat="43.47987" lon="6.79318">
        <ele>241.1</ele>
        <time>2012-12-09T10:03:40.000Z</time>
      </trkpt>
      <trkpt lat="43.47981" lon="6.79319">
        <ele>241.1</ele>
        <time>2012-12-09T10:03:41.000Z</time>
      </trkpt>
      <trkpt lat="43.47976" lon="6.79321">
        <ele>241.3</ele>
        <time>2012-12-09T10:03:42.000Z</time>
      </trkpt>
      <trkpt lat="43.4797" lon="6.79323">
        <ele>241.4</ele>
        <time>2012-12-09T10:03:43.000Z</time>
      </trkpt>
      <trkpt lat="43.47964" lon="6.79326">
        <ele>241.5</ele>
        <time>2012-12-09T10:03:44.000Z</time>
      </trkpt>
      <trkpt lat="43.47958" lon="6.79329">
        <ele>241.5</ele>
        <time>2012-12-09T10:03:45.000Z</time>
      </trkpt>
      <trkpt lat="43.47952" lon="6.79332">
        <ele>241.4</ele>
        <time>2012-12-09T10:03:46.000Z</time>
      </trkpt>
      <trkpt lat="43.4792" lon="6.79351">
        <ele>241.4</ele>
        <time>2012-12-09T10:03:51.000Z</time>
      </trkpt>
      <trkpt lat="43.47914" lon="6.79355">
        <ele>241.5</ele>
        <time>2012-12-09T10:03:52.000Z</time>
      </trkpt>
      <trkpt lat="43.47898" lon="6.79356">
        <ele>241.5</ele>
        <time>2012-12-09T10:03:53.000Z</time>
      </trkpt>
      <trkpt lat="43.47898" lon="6.79358">
        <ele>230</ele>
        <time>2012-12-09T10:03:55.000Z</time>
      </trkpt>
      <trkpt lat="43.47891" lon="6.79363">
        <ele>228.8</ele>
        <time>2012-12-09T10:03:57.000Z</time>
      </trkpt>
      <trkpt lat="43.47883" lon="6.79363">
        <ele>228.3</ele>
        <time>2012-12-09T10:03:58.000Z</time>
      </trkpt>
      <trkpt lat="43.47876" lon="6.79363">
        <ele>224.3</ele>
        <time>2012-12-09T10:03:59.000Z</time>
      </trkpt>
      <trkpt lat="43.4787" lon="6.79364">
        <ele>224.2</ele>
        <time>2012-12-09T10:04:00.000Z</time>
      </trkpt>
      <trkpt lat="43.47867" lon="6.79365">
        <ele>225.8</ele>
        <time>2012-12-09T10:04:01.000Z</time>
      </trkpt>
      <trkpt lat="43.47862" lon="6.79367">
        <ele>226.6</ele>
        <time>2012-12-09T10:04:02.000Z</time>
      </trkpt>
      <trkpt lat="43.47859" lon="6.79369">
        <ele>226.6</ele>
        <time>2012-12-09T10:04:03.000Z</time>
      </trkpt>
      <trkpt lat="43.47856" lon="6.79371">
        <ele>227.2</ele>
        <time>2012-12-09T10:04:04.000Z</time>
      </trkpt>
      <trkpt lat="43.47853" lon="6.79373">
        <ele>228.9</ele>
        <time>2012-12-09T10:04:05.000Z</time>
      </trkpt>
      <trkpt lat="43.4785" lon="6.79375">
        <ele>231.3</ele>
        <time>2012-12-09T10:04:06.000Z</time>
      </trkpt>
      <trkpt lat="43.47847" lon="6.79377">
        <ele>232.7</ele>
        <time>2012-12-09T10:04:07.000Z</time>
      </trkpt>
      <trkpt lat="43.47844" lon="6.79379">
        <ele>233.3</ele>
        <time>2012-12-09T10:04:08.000Z</time>
      </trkpt>
      <trkpt lat="43.47841" lon="6.79381">
        <ele>234.2</ele>
        <time>2012-12-09T10:04:09.000Z</time>
      </trkpt>
      <trkpt lat="43.47838" lon="6.79383">
        <ele>234.5</ele>
        <time>2012-12-09T10:04:10.000Z</time>
      </trkpt>
      <trkpt lat="43.47835" lon="6.79385">
        <ele>235.8</ele>
        <time>2012-12-09T10:04:11.000Z</time>
      </trkpt>
      <trkpt lat="43.47832" lon="6.79388">
        <ele>236.3</ele>
        <time>2012-12-09T10:04:12.000Z</time>
      </trkpt>
      <trkpt lat="43.47829" lon="6.7939">
        <ele>237</ele>
        <time>2012-12-09T10:04:13.000Z</time>
      </trkpt>
      <trkpt lat="43.47826" lon="6.79392">
        <ele>238.1</ele>
        <time>2012-12-09T10:04:14.000Z</time>
      </trkpt>
      <trkpt lat="43.47823" lon="6.79393">
        <ele>238.9</ele>
        <time>2012-12-09T10:04:15.000Z</time>
      </trkpt>
      <trkpt lat="43.4782" lon="6.79394">
        <ele>239.3</ele>
        <time>2012-12-09T10:04:16.000Z</time>
      </trkpt>
      <trkpt lat="43.47817" lon="6.79395">
        <ele>240.5</ele>
        <time>2012-12-09T10:04:17.000Z</time>
      </trkpt>
      <trkpt lat="43.47814" lon="6.79396">
        <ele>240</ele>
        <time>2012-12-09T10:04:18.000Z</time>
      </trkpt>
      <trkpt lat="43.4781" lon="6.79397">
        <ele>240</ele>
        <time>2012-12-09T10:04:19.000Z</time>
      </trkpt>
      <trkpt lat="43.47807" lon="6.79399">
        <ele>240</ele>
        <time>2012-12-09T10:04:20.000Z</time>
      </trkpt>
      <trkpt lat="43.47804" lon="6.79401">
        <ele>240.3</ele>
        <time>2012-12-09T10:04:21.000Z</time>
      </trkpt>
      <trkpt lat="43.47801" lon="6.79403">
        <ele>240.3</ele>
        <time>2012-12-09T10:04:22.000Z</time>
      </trkpt>
      <trkpt lat="43.47798" lon="6.79406">
        <ele>240.5</ele>
        <time>2012-12-09T10:04:23.000Z</time>
      </trkpt>
      <trkpt lat="43.47794" lon="6.79408">
        <ele>240.5</ele>
        <time>2012-12-09T10:04:24.000Z</time>
      </trkpt>
      <trkpt lat="43.47791" lon="6.7941">
        <ele>240.6</ele>
        <time>2012-12-09T10:04:25.000Z</time>
      </trkpt>
      <trkpt lat="43.47788" lon="6.79412">
        <ele>240.5</ele>
        <time>2012-12-09T10:04:26.000Z</time>
      </trkpt>
      <trkpt lat="43.47785" lon="6.79412">
        <ele>240.4</ele>
        <time>2012-12-09T10:04:27.000Z</time>
      </trkpt>
      <trkpt lat="43.47781" lon="6.79412">
        <ele>240.4</ele>
        <time>2012-12-09T10:04:28.000Z</time>
      </trkpt>
      <trkpt lat="43.47778" lon="6.79412">
        <ele>240.6</ele>
        <time>2012-12-09T10:04:29.000Z</time>
      </trkpt>
      <trkpt lat="43.47774" lon="6.79412">
        <ele>240.9</ele>
        <time>2012-12-09T10:04:30.000Z</time>
      </trkpt>
      <trkpt lat="43.4777" lon="6.79411">
        <ele>241.1</ele>
        <time>2012-12-09T10:04:31.000Z</time>
      </trkpt>
      <trkpt lat="43.47766" lon="6.7941">
        <ele>241.1</ele>
        <time>2012-12-09T10:04:32.000Z</time>
      </trkpt>
      <trkpt lat="43.47762" lon="6.7941">
        <ele>241</ele>
        <time>2012-12-09T10:04:33.000Z</time>
      </trkpt>
      <trkpt lat="43.47758" lon="6.7941">
        <ele>240.1</ele>
        <time>2012-12-09T10:04:34.000Z</time>
      </trkpt>
      <trkpt lat="43.47754" lon="6.79411">
        <ele>240.1</ele>
        <time>2012-12-09T10:04:35.000Z</time>
      </trkpt>
      <trkpt lat="43.4775" lon="6.79412">
        <ele>240</ele>
        <time>2012-12-09T10:04:36.000Z</time>
      </trkpt>
      <trkpt lat="43.47746" lon="6.79413">
        <ele>239.8</ele>
        <time>2012-12-09T10:04:37.000Z</time>
      </trkpt>
      <trkpt lat="43.47742" lon="6.79413">
        <ele>239.8</ele>
        <time>2012-12-09T10:04:38.000Z</time>
      </trkpt>
      <trkpt lat="43.47737" lon="6.79414">
        <ele>239.8</ele>
        <time>2012-12-09T10:04:39.000Z</time>
      </trkpt>
      <trkpt lat="43.47733" lon="6.79415">
        <ele>239.9</ele>
        <time>2012-12-09T10:04:40.000Z</time>
      </trkpt>
      <trkpt lat="43.47728" lon="6.79415">
        <ele>239.8</ele>
        <time>2012-12-09T10:04:41.000Z</time>
      </trkpt>
      <trkpt lat="43.47723" lon="6.79414">
        <ele>239.3</ele>
        <time>2012-12-09T10:04:42.000Z</time>
      </trkpt>
      <trkpt lat="43.47719" lon="6.79412">
        <ele>238.7</ele>
        <time>2012-12-09T10:04:43.000Z</time>
      </trkpt>
      <trkpt lat="43.47714" lon="6.79409">
        <ele>237.7</ele>
        <time>2012-12-09T10:04:44.000Z</time>
      </trkpt>
      <trkpt lat="43.47709" lon="6.79405">
        <ele>237.2</ele>
        <time>2012-12-09T10:04:45.000Z</time>
      </trkpt>
      <trkpt lat="43.47705" lon="6.79402">
        <ele>236.9</ele>
        <time>2012-12-09T10:04:46.000Z</time>
      </trkpt>
      <trkpt lat="43.47688" lon="6.794">
        <ele>233.8</ele>
        <time>2012-12-09T10:04:52.000Z</time>
      </trkpt>
      <trkpt lat="43.47674" lon="6.79404">
        <ele>235.8</ele>
        <time>2012-12-09T10:04:54.000Z</time>
      </trkpt>
      <trkpt lat="43.47663" lon="6.79401">
        <ele>228.1</ele>
        <time>2012-12-09T10:04:55.000Z</time>
      </trkpt>
      <trkpt lat="43.47656" lon="6.79404">
        <ele>227.4</ele>
        <time>2012-12-09T10:04:56.000Z</time>
      </trkpt>
      <trkpt lat="43.47649" lon="6.79407">
        <ele>226.4</ele>
        <time>2012-12-09T10:04:57.000Z</time>
      </trkpt>
      <trkpt lat="43.47644" lon="6.79412">
        <ele>227.2</ele>
        <time>2012-12-09T10:04:58.000Z</time>
      </trkpt>
      <trkpt lat="43.47639" lon="6.79418">
        <ele>228.7</ele>
        <time>2012-12-09T10:04:59.000Z</time>
      </trkpt>
      <trkpt lat="43.47634" lon="6.79423">
        <ele>229.8</ele>
        <time>2012-12-09T10:05:00.000Z</time>
      </trkpt>
      <trkpt lat="43.47628" lon="6.79428">
        <ele>231.1</ele>
        <time>2012-12-09T10:05:01.000Z</time>
      </trkpt>
      <trkpt lat="43.47623" lon="6.79432">
        <ele>231.8</ele>
        <time>2012-12-09T10:05:02.000Z</time>
      </trkpt>
      <trkpt lat="43.47618" lon="6.79437">
        <ele>232.7</ele>
        <time>2012-12-09T10:05:03.000Z</time>
      </trkpt>
      <trkpt lat="43.47613" lon="6.79441">
        <ele>233.6</ele>
        <time>2012-12-09T10:05:04.000Z</time>
      </trkpt>
      <trkpt lat="43.47607" lon="6.79445">
        <ele>234.5</ele>
        <time>2012-12-09T10:05:05.000Z</time>
      </trkpt>
      <trkpt lat="43.47602" lon="6.79449">
        <ele>235.5</ele>
        <time>2012-12-09T10:05:06.000Z</time>
      </trkpt>
      <trkpt lat="43.47598" lon="6.79454">
        <ele>236.6</ele>
        <time>2012-12-09T10:05:07.000Z</time>
      </trkpt>
      <trkpt lat="43.47593" lon="6.79458">
        <ele>237.6</ele>
        <time>2012-12-09T10:05:08.000Z</time>
      </trkpt>
      <trkpt lat="43.47588" lon="6.79462">
        <ele>237.9</ele>
        <time>2012-12-09T10:05:09.000Z</time>
      </trkpt>
      <trkpt lat="43.47583" lon="6.79466">
        <ele>238.6</ele>
        <time>2012-12-09T10:05:10.000Z</time>
      </trkpt>
      <trkpt lat="43.47578" lon="6.7947">
        <ele>238.8</ele>
        <time>2012-12-09T10:05:11.000Z</time>
      </trkpt>
      <trkpt lat="43.47573" lon="6.79474">
        <ele>239</ele>
        <time>2012-12-09T10:05:12.000Z</time>
      </trkpt>
      <trkpt lat="43.47568" lon="6.79478">
        <ele>239.1</ele>
        <time>2012-12-09T10:05:13.000Z</time>
      </trkpt>
      <trkpt lat="43.47563" lon="6.79482">
        <ele>238.8</ele>
        <time>2012-12-09T10:05:14.000Z</time>
      </trkpt>
      <trkpt lat="43.47559" lon="6.79486">
        <ele>238.5</ele>
        <time>2012-12-09T10:05:15.000Z</time>
      </trkpt>
      <trkpt lat="43.47554" lon="6.7949">
        <ele>238.2</ele>
        <time>2012-12-09T10:05:16.000Z</time>
      </trkpt>
      <trkpt lat="43.47549" lon="6.79494">
        <ele>237.6</ele>
        <time>2012-12-09T10:05:17.000Z</time>
      </trkpt>
      <trkpt lat="43.47544" lon="6.79498">
        <ele>237.2</ele>
        <time>2012-12-09T10:05:18.000Z</time>
      </trkpt>
      <trkpt lat="43.47539" lon="6.79501">
        <ele>236.6</ele>
        <time>2012-12-09T10:05:19.000Z</time>
      </trkpt>
      <trkpt lat="43.47534" lon="6.79506">
        <ele>236.3</ele>
        <time>2012-12-09T10:05:20.000Z</time>
      </trkpt>
      <trkpt lat="43.47529" lon="6.7951">
        <ele>236.2</ele>
        <time>2012-12-09T10:05:21.000Z</time>
      </trkpt>
      <trkpt lat="43.47525" lon="6.79514">
        <ele>235.8</ele>
        <time>2012-12-09T10:05:22.000Z</time>
      </trkpt>
      <trkpt lat="43.4752" lon="6.79518">
        <ele>235.8</ele>
        <time>2012-12-09T10:05:23.000Z</time>
      </trkpt>
      <trkpt lat="43.47516" lon="6.79523">
        <ele>235.9</ele>
        <time>2012-12-09T10:05:24.000Z</time>
      </trkpt>
      <trkpt lat="43.47511" lon="6.79527">
        <ele>235.9</ele>
        <time>2012-12-09T10:05:25.000Z</time>
      </trkpt>
      <trkpt lat="43.47507" lon="6.79532">
        <ele>235.9</ele>
        <time>2012-12-09T10:05:26.000Z</time>
      </trkpt>
      <trkpt lat="43.47503" lon="6.79538">
        <ele>235.5</ele>
        <time>2012-12-09T10:05:27.000Z</time>
      </trkpt>
      <trkpt lat="43.47499" lon="6.79544">
        <ele>235.3</ele>
        <time>2012-12-09T10:05:28.000Z</time>
      </trkpt>
      <trkpt lat="43.47496" lon="6.79549">
        <ele>234.7</ele>
        <time>2012-12-09T10:05:29.000Z</time>
      </trkpt>
      <trkpt lat="43.47493" lon="6.79556">
        <ele>234.3</ele>
        <time>2012-12-09T10:05:30.000Z</time>
      </trkpt>
      <trkpt lat="43.4749" lon="6.79562">
        <ele>234</ele>
        <time>2012-12-09T10:05:31.000Z</time>
      </trkpt>
      <trkpt lat="43.47488" lon="6.79569">
        <ele>233.6</ele>
        <time>2012-12-09T10:05:32.000Z</time>
      </trkpt>
      <trkpt lat="43.47484" lon="6.79576">
        <ele>233.1</ele>
        <time>2012-12-09T10:05:33.000Z</time>
      </trkpt>
      <trkpt lat="43.47481" lon="6.79582">
        <ele>232.6</ele>
        <time>2012-12-09T10:05:34.000Z</time>
      </trkpt>
      <trkpt lat="43.47478" lon="6.79589">
        <ele>232.3</ele>
        <time>2012-12-09T10:05:35.000Z</time>
      </trkpt>
      <trkpt lat="43.47475" lon="6.79596">
        <ele>232.1</ele>
        <time>2012-12-09T10:05:36.000Z</time>
      </trkpt>
      <trkpt lat="43.47471" lon="6.79602">
        <ele>231.9</ele>
        <time>2012-12-09T10:05:37.000Z</time>
      </trkpt>
      <trkpt lat="43.47467" lon="6.79607">
        <ele>231.7</ele>
        <time>2012-12-09T10:05:38.000Z</time>
      </trkpt>
      <trkpt lat="43.47464" lon="6.79613">
        <ele>231.3</ele>
        <time>2012-12-09T10:05:39.000Z</time>
      </trkpt>
      <trkpt lat="43.4746" lon="6.79617">
        <ele>231.3</ele>
        <time>2012-12-09T10:05:40.000Z</time>
      </trkpt>
      <trkpt lat="43.47456" lon="6.79622">
        <ele>231.3</ele>
        <time>2012-12-09T10:05:41.000Z</time>
      </trkpt>
      <trkpt lat="43.47451" lon="6.79626">
        <ele>231.2</ele>
        <time>2012-12-09T10:05:42.000Z</time>
      </trkpt>
      <trkpt lat="43.47447" lon="6.79629">
        <ele>231.1</ele>
        <time>2012-12-09T10:05:43.000Z</time>
      </trkpt>
      <trkpt lat="43.47443" lon="6.79632">
        <ele>231.2</ele>
        <time>2012-12-09T10:05:44.000Z</time>
      </trkpt>
      <trkpt lat="43.47439" lon="6.79635">
        <ele>231.2</ele>
        <time>2012-12-09T10:05:45.000Z</time>
      </trkpt>
      <trkpt lat="43.47435" lon="6.79637">
        <ele>231.2</ele>
        <time>2012-12-09T10:05:46.000Z</time>
      </trkpt>
      <trkpt lat="43.4742" lon="6.79636">
        <ele>236.9</ele>
        <time>2012-12-09T10:05:51.000Z</time>
      </trkpt>
      <trkpt lat="43.4741" lon="6.79638">
        <ele>227.7</ele>
        <time>2012-12-09T10:05:52.000Z</time>
      </trkpt>
      <trkpt lat="43.47403" lon="6.79643">
        <ele>226.1</ele>
        <time>2012-12-09T10:05:53.000Z</time>
      </trkpt>
      <trkpt lat="43.474" lon="6.79641">
        <ele>224.3</ele>
        <time>2012-12-09T10:05:54.000Z</time>
      </trkpt>
      <trkpt lat="43.47396" lon="6.7964">
        <ele>224.2</ele>
        <time>2012-12-09T10:05:55.000Z</time>
      </trkpt>
      <trkpt lat="43.47392" lon="6.7964">
        <ele>224.9</ele>
        <time>2012-12-09T10:05:56.000Z</time>
      </trkpt>
      <trkpt lat="43.47388" lon="6.7964">
        <ele>225.6</ele>
        <time>2012-12-09T10:05:57.000Z</time>
      </trkpt>
      <trkpt lat="43.47383" lon="6.7964">
        <ele>226.3</ele>
        <time>2012-12-09T10:05:58.000Z</time>
      </trkpt>
      <trkpt lat="43.47379" lon="6.79638">
        <ele>224.6</ele>
        <time>2012-12-09T10:05:59.000Z</time>
      </trkpt>
      <trkpt lat="43.47374" lon="6.79636">
        <ele>224.3</ele>
        <time>2012-12-09T10:06:00.000Z</time>
      </trkpt>
      <trkpt lat="43.4737" lon="6.79634">
        <ele>223.6</ele>
        <time>2012-12-09T10:06:01.000Z</time>
      </trkpt>
      <trkpt lat="43.47366" lon="6.79632">
        <ele>223.9</ele>
        <time>2012-12-09T10:06:02.000Z</time>
      </trkpt>
      <trkpt lat="43.47362" lon="6.7963">
        <ele>223.6</ele>
        <time>2012-12-09T10:06:03.000Z</time>
      </trkpt>
      <trkpt lat="43.47358" lon="6.79628">
        <ele>223.6</ele>
        <time>2012-12-09T10:06:04.000Z</time>
      </trkpt>
      <trkpt lat="43.47355" lon="6.79625">
        <ele>223.1</ele>
        <time>2012-12-09T10:06:05.000Z</time>
      </trkpt>
      <trkpt lat="43.47351" lon="6.79622">
        <ele>222.5</ele>
        <time>2012-12-09T10:06:06.000Z</time>
      </trkpt>
      <trkpt lat="43.47348" lon="6.79619">
        <ele>222.3</ele>
        <time>2012-12-09T10:06:07.000Z</time>
      </trkpt>
      <trkpt lat="43.47344" lon="6.79616">
        <ele>221.9</ele>
        <time>2012-12-09T10:06:08.000Z</time>
      </trkpt>
      <trkpt lat="43.47341" lon="6.79612">
        <ele>221.8</ele>
        <time>2012-12-09T10:06:09.000Z</time>
      </trkpt>
      <trkpt lat="43.47337" lon="6.79607">
        <ele>221.6</ele>
        <time>2012-12-09T10:06:10.000Z</time>
      </trkpt>
      <trkpt lat="43.47334" lon="6.79603">
        <ele>221.5</ele>
        <time>2012-12-09T10:06:11.000Z</time>
      </trkpt>
      <trkpt lat="43.47331" lon="6.79597">
        <ele>220.8</ele>
        <time>2012-12-09T10:06:12.000Z</time>
      </trkpt>
      <trkpt lat="43.47329" lon="6.79591">
        <ele>220.8</ele>
        <time>2012-12-09T10:06:13.000Z</time>
      </trkpt>
      <trkpt lat="43.47328" lon="6.79585">
        <ele>220.9</ele>
        <time>2012-12-09T10:06:14.000Z</time>
      </trkpt>
      <trkpt lat="43.47327" lon="6.79578">
        <ele>221.1</ele>
        <time>2012-12-09T10:06:15.000Z</time>
      </trkpt>
      <trkpt lat="43.47326" lon="6.7957">
        <ele>220.7</ele>
        <time>2012-12-09T10:06:16.000Z</time>
      </trkpt>
      <trkpt lat="43.47325" lon="6.79563">
        <ele>220.5</ele>
        <time>2012-12-09T10:06:17.000Z</time>
      </trkpt>
      <trkpt lat="43.47324" lon="6.79556">
        <ele>220.4</ele>
        <time>2012-12-09T10:06:18.000Z</time>
      </trkpt>
      <trkpt lat="43.47323" lon="6.79549">
        <ele>220.4</ele>
        <time>2012-12-09T10:06:19.000Z</time>
      </trkpt>
      <trkpt lat="43.47322" lon="6.79543">
        <ele>220.3</ele>
        <time>2012-12-09T10:06:20.000Z</time>
      </trkpt>
      <trkpt lat="43.4732" lon="6.79536">
        <ele>220.4</ele>
        <time>2012-12-09T10:06:21.000Z</time>
      </trkpt>
      <trkpt lat="43.47319" lon="6.79529">
        <ele>220.5</ele>
        <time>2012-12-09T10:06:22.000Z</time>
      </trkpt>
      <trkpt lat="43.47317" lon="6.79522">
        <ele>220.5</ele>
        <time>2012-12-09T10:06:23.000Z</time>
      </trkpt>
      <trkpt lat="43.47315" lon="6.79515">
        <ele>220.2</ele>
        <time>2012-12-09T10:06:24.000Z</time>
      </trkpt>
      <trkpt lat="43.47314" lon="6.79508">
        <ele>220.1</ele>
        <time>2012-12-09T10:06:25.000Z</time>
      </trkpt>
      <trkpt lat="43.47312" lon="6.79501">
        <ele>220.1</ele>
        <time>2012-12-09T10:06:26.000Z</time>
      </trkpt>
      <trkpt lat="43.4731" lon="6.79495">
        <ele>220.2</ele>
        <time>2012-12-09T10:06:27.000Z</time>
      </trkpt>
      <trkpt lat="43.47307" lon="6.79488">
        <ele>220</ele>
        <time>2012-12-09T10:06:28.000Z</time>
      </trkpt>
      <trkpt lat="43.47305" lon="6.79482">
        <ele>219.7</ele>
        <time>2012-12-09T10:06:29.000Z</time>
      </trkpt>
      <trkpt lat="43.47303" lon="6.79475">
        <ele>219.3</ele>
        <time>2012-12-09T10:06:30.000Z</time>
      </trkpt>
      <trkpt lat="43.47301" lon="6.79468">
        <ele>219</ele>
        <time>2012-12-09T10:06:31.000Z</time>
      </trkpt>
      <trkpt lat="43.473" lon="6.79461">
        <ele>218.8</ele>
        <time>2012-12-09T10:06:32.000Z</time>
      </trkpt>
      <trkpt lat="43.473" lon="6.79453">
        <ele>218.8</ele>
        <time>2012-12-09T10:06:33.000Z</time>
      </trkpt>
      <trkpt lat="43.47299" lon="6.79446">
        <ele>218.6</ele>
        <time>2012-12-09T10:06:34.000Z</time>
      </trkpt>
      <trkpt lat="43.47299" lon="6.79438">
        <ele>218.4</ele>
        <time>2012-12-09T10:06:35.000Z</time>
      </trkpt>
      <trkpt lat="43.473" lon="6.79431">
        <ele>218.3</ele>
        <time>2012-12-09T10:06:36.000Z</time>
      </trkpt>
      <trkpt lat="43.473" lon="6.79423">
        <ele>218.1</ele>
        <time>2012-12-09T10:06:37.000Z</time>
      </trkpt>
      <trkpt lat="43.47301" lon="6.79416">
        <ele>217.9</ele>
        <time>2012-12-09T10:06:38.000Z</time>
      </trkpt>
      <trkpt lat="43.47301" lon="6.79409">
        <ele>217.7</ele>
        <time>2012-12-09T10:06:39.000Z</time>
      </trkpt>
      <trkpt lat="43.47302" lon="6.79401">
        <ele>217.6</ele>
        <time>2012-12-09T10:06:40.000Z</time>
      </trkpt>
      <trkpt lat="43.47303" lon="6.79394">
        <ele>217.3</ele>
        <time>2012-12-09T10:06:41.000Z</time>
      </trkpt>
      <trkpt lat="43.47304" lon="6.79387">
        <ele>217.1</ele>
        <time>2012-12-09T10:06:42.000Z</time>
      </trkpt>
      <trkpt lat="43.47305" lon="6.7938">
        <ele>216.9</ele>
        <time>2012-12-09T10:06:43.000Z</time>
      </trkpt>
      <trkpt lat="43.47305" lon="6.79373">
        <ele>216.7</ele>
        <time>2012-12-09T10:06:44.000Z</time>
      </trkpt>
      <trkpt lat="43.47306" lon="6.79365">
        <ele>216.4</ele>
        <time>2012-12-09T10:06:45.000Z</time>
      </trkpt>
      <trkpt lat="43.47306" lon="6.79358">
        <ele>216.2</ele>
        <time>2012-12-09T10:06:46.000Z</time>
      </trkpt>
      <trkpt lat="43.47306" lon="6.79319">
        <ele>216.2</ele>
        <time>2012-12-09T10:06:50.000Z</time>
      </trkpt>
      <trkpt lat="43.47303" lon="6.79326">
        <ele>214.7</ele>
        <time>2012-12-09T10:06:51.000Z</time>
      </trkpt>
      <trkpt lat="43.47298" lon="6.79309">
        <ele>215.2</ele>
        <time>2012-12-09T10:06:52.000Z</time>
      </trkpt>
      <trkpt lat="43.4729" lon="6.79308">
        <ele>208.7</ele>
        <time>2012-12-09T10:06:54.000Z</time>
      </trkpt>
      <trkpt lat="43.47285" lon="6.79304">
        <ele>208.1</ele>
        <time>2012-12-09T10:06:55.000Z</time>
      </trkpt>
      <trkpt lat="43.4728" lon="6.79301">
        <ele>209.1</ele>
        <time>2012-12-09T10:06:56.000Z</time>
      </trkpt>
      <trkpt lat="43.47274" lon="6.79298">
        <ele>210.3</ele>
        <time>2012-12-09T10:06:57.000Z</time>
      </trkpt>
      <trkpt lat="43.4727" lon="6.79297">
        <ele>209.6</ele>
        <time>2012-12-09T10:06:58.000Z</time>
      </trkpt>
      <trkpt lat="43.47265" lon="6.79296">
        <ele>209.4</ele>
        <time>2012-12-09T10:06:59.000Z</time>
      </trkpt>
      <trkpt lat="43.4726" lon="6.79295">
        <ele>209.3</ele>
        <time>2012-12-09T10:07:00.000Z</time>
      </trkpt>
      <trkpt lat="43.47255" lon="6.79295">
        <ele>209.3</ele>
        <time>2012-12-09T10:07:01.000Z</time>
      </trkpt>
      <trkpt lat="43.4725" lon="6.79295">
        <ele>209.3</ele>
        <time>2012-12-09T10:07:02.000Z</time>
      </trkpt>
      <trkpt lat="43.47245" lon="6.79296">
        <ele>209.4</ele>
        <time>2012-12-09T10:07:03.000Z</time>
      </trkpt>
      <trkpt lat="43.4724" lon="6.79298">
        <ele>209.5</ele>
        <time>2012-12-09T10:07:04.000Z</time>
      </trkpt>
      <trkpt lat="43.47235" lon="6.79301">
        <ele>209.5</ele>
        <time>2012-12-09T10:07:05.000Z</time>
      </trkpt>
      <trkpt lat="43.4723" lon="6.79304">
        <ele>209.3</ele>
        <time>2012-12-09T10:07:06.000Z</time>
      </trkpt>
      <trkpt lat="43.47225" lon="6.79307">
        <ele>209.3</ele>
        <time>2012-12-09T10:07:07.000Z</time>
      </trkpt>
      <trkpt lat="43.4722" lon="6.79311">
        <ele>209.2</ele>
        <time>2012-12-09T10:07:08.000Z</time>
      </trkpt>
      <trkpt lat="43.47215" lon="6.79315">
        <ele>208.8</ele>
        <time>2012-12-09T10:07:09.000Z</time>
      </trkpt>
      <trkpt lat="43.4721" lon="6.79319">
        <ele>208.6</ele>
        <time>2012-12-09T10:07:10.000Z</time>
      </trkpt>
      <trkpt lat="43.47205" lon="6.79324">
        <ele>208.3</ele>
        <time>2012-12-09T10:07:11.000Z</time>
      </trkpt>
      <trkpt lat="43.472" lon="6.79329">
        <ele>207.9</ele>
        <time>2012-12-09T10:07:12.000Z</time>
      </trkpt>
      <trkpt lat="43.47195" lon="6.79335">
        <ele>207.4</ele>
        <time>2012-12-09T10:07:13.000Z</time>
      </trkpt>
      <trkpt lat="43.4719" lon="6.79342">
        <ele>207.1</ele>
        <time>2012-12-09T10:07:14.000Z</time>
      </trkpt>
      <trkpt lat="43.47186" lon="6.7935">
        <ele>206.8</ele>
        <time>2012-12-09T10:07:15.000Z</time>
      </trkpt>
      <trkpt lat="43.47183" lon="6.79359">
        <ele>206.4</ele>
        <time>2012-12-09T10:07:16.000Z</time>
      </trkpt>
      <trkpt lat="43.4718" lon="6.79368">
        <ele>205.8</ele>
        <time>2012-12-09T10:07:17.000Z</time>
      </trkpt>
      <trkpt lat="43.47178" lon="6.79378">
        <ele>205.5</ele>
        <time>2012-12-09T10:07:18.000Z</time>
      </trkpt>
      <trkpt lat="43.47176" lon="6.79388">
        <ele>204.9</ele>
        <time>2012-12-09T10:07:19.000Z</time>
      </trkpt>
      <trkpt lat="43.47173" lon="6.79399">
        <ele>204.3</ele>
        <time>2012-12-09T10:07:20.000Z</time>
      </trkpt>
      <trkpt lat="43.47171" lon="6.7941">
        <ele>203.7</ele>
        <time>2012-12-09T10:07:21.000Z</time>
      </trkpt>
      <trkpt lat="43.47169" lon="6.79421">
        <ele>202.8</ele>
        <time>2012-12-09T10:07:22.000Z</time>
      </trkpt>
      <trkpt lat="43.47167" lon="6.79432">
        <ele>202.1</ele>
        <time>2012-12-09T10:07:23.000Z</time>
      </trkpt>
      <trkpt lat="43.47165" lon="6.79443">
        <ele>201.6</ele>
        <time>2012-12-09T10:07:24.000Z</time>
      </trkpt>
      <trkpt lat="43.47163" lon="6.79454">
        <ele>201.1</ele>
        <time>2012-12-09T10:07:25.000Z</time>
      </trkpt>
      <trkpt lat="43.47162" lon="6.79466">
        <ele>200.1</ele>
        <time>2012-12-09T10:07:26.000Z</time>
      </trkpt>
      <trkpt lat="43.4716" lon="6.79477">
        <ele>199.5</ele>
        <time>2012-12-09T10:07:27.000Z</time>
      </trkpt>
      <trkpt lat="43.47158" lon="6.79489">
        <ele>199.2</ele>
        <time>2012-12-09T10:07:28.000Z</time>
      </trkpt>
      <trkpt lat="43.47156" lon="6.79501">
        <ele>198.6</ele>
        <time>2012-12-09T10:07:29.000Z</time>
      </trkpt>
      <trkpt lat="43.47154" lon="6.79512">
        <ele>197.8</ele>
        <time>2012-12-09T10:07:30.000Z</time>
      </trkpt>
      <trkpt lat="43.47153" lon="6.79523">
        <ele>197.4</ele>
        <time>2012-12-09T10:07:31.000Z</time>
      </trkpt>
      <trkpt lat="43.47151" lon="6.79534">
        <ele>197</ele>
        <time>2012-12-09T10:07:32.000Z</time>
      </trkpt>
      <trkpt lat="43.47148" lon="6.79544">
        <ele>196.8</ele>
        <time>2012-12-09T10:07:33.000Z</time>
      </trkpt>
      <trkpt lat="43.47145" lon="6.79554">
        <ele>196.3</ele>
        <time>2012-12-09T10:07:34.000Z</time>
      </trkpt>
      <trkpt lat="43.47142" lon="6.79563">
        <ele>195.8</ele>
        <time>2012-12-09T10:07:35.000Z</time>
      </trkpt>
      <trkpt lat="43.47138" lon="6.79571">
        <ele>195.4</ele>
        <time>2012-12-09T10:07:36.000Z</time>
      </trkpt>
      <trkpt lat="43.47133" lon="6.79578">
        <ele>195.1</ele>
        <time>2012-12-09T10:07:37.000Z</time>
      </trkpt>
      <trkpt lat="43.47127" lon="6.79584">
        <ele>194.7</ele>
        <time>2012-12-09T10:07:38.000Z</time>
      </trkpt>
      <trkpt lat="43.47121" lon="6.79589">
        <ele>194.4</ele>
        <time>2012-12-09T10:07:39.000Z</time>
      </trkpt>
      <trkpt lat="43.47114" lon="6.79592">
        <ele>194.1</ele>
        <time>2012-12-09T10:07:40.000Z</time>
      </trkpt>
      <trkpt lat="43.47108" lon="6.79595">
        <ele>193.7</ele>
        <time>2012-12-09T10:07:41.000Z</time>
      </trkpt>
      <trkpt lat="43.471" lon="6.79596">
        <ele>193.2</ele>
        <time>2012-12-09T10:07:42.000Z</time>
      </trkpt>
      <trkpt lat="43.47093" lon="6.79597">
        <ele>192.6</ele>
        <time>2012-12-09T10:07:43.000Z</time>
      </trkpt>
      <trkpt lat="43.47086" lon="6.79595">
        <ele>192.3</ele>
        <time>2012-12-09T10:07:44.000Z</time>
      </trkpt>
      <trkpt lat="43.47078" lon="6.79594">
        <ele>191.5</ele>
        <time>2012-12-09T10:07:45.000Z</time>
      </trkpt>
      <trkpt lat="43.4707" lon="6.79592">
        <ele>190.7</ele>
        <time>2012-12-09T10:07:46.000Z</time>
      </trkpt>
      <trkpt lat="43.47059" lon="6.79583">
        <ele>142.6</ele>
        <time>2012-12-09T10:07:48.000Z</time>
      </trkpt>
      <trkpt lat="43.47043" lon="6.79584">
        <ele>175.7</ele>
        <time>2012-12-09T10:07:50.000Z</time>
      </trkpt>
      <trkpt lat="43.47036" lon="6.79579">
        <ele>179.4</ele>
        <time>2012-12-09T10:07:51.000Z</time>
      </trkpt>
      <trkpt lat="43.47033" lon="6.79572">
        <ele>180.1</ele>
        <time>2012-12-09T10:07:52.000Z</time>
      </trkpt>
      <trkpt lat="43.47032" lon="6.79562">
        <ele>182.1</ele>
        <time>2012-12-09T10:07:53.000Z</time>
      </trkpt>
      <trkpt lat="43.47034" lon="6.79553">
        <ele>182.7</ele>
        <time>2012-12-09T10:07:54.000Z</time>
      </trkpt>
      <trkpt lat="43.47037" lon="6.79544">
        <ele>183.7</ele>
        <time>2012-12-09T10:07:55.000Z</time>
      </trkpt>
      <trkpt lat="43.4704" lon="6.79537">
        <ele>184.7</ele>
        <time>2012-12-09T10:07:56.000Z</time>
      </trkpt>
      <trkpt lat="43.47045" lon="6.7953">
        <ele>185.4</ele>
        <time>2012-12-09T10:07:57.000Z</time>
      </trkpt>
      <trkpt lat="43.47049" lon="6.79523">
        <ele>186.4</ele>
        <time>2012-12-09T10:07:58.000Z</time>
      </trkpt>
      <trkpt lat="43.47053" lon="6.79516">
        <ele>186.3</ele>
        <time>2012-12-09T10:07:59.000Z</time>
      </trkpt>
      <trkpt lat="43.47057" lon="6.79508">
        <ele>186.3</ele>
        <time>2012-12-09T10:08:00.000Z</time>
      </trkpt>
      <trkpt lat="43.4706" lon="6.795">
        <ele>186.4</ele>
        <time>2012-12-09T10:08:01.000Z</time>
      </trkpt>
      <trkpt lat="43.47063" lon="6.79492">
        <ele>186.4</ele>
        <time>2012-12-09T10:08:02.000Z</time>
      </trkpt>
      <trkpt lat="43.47066" lon="6.79484">
        <ele>186.4</ele>
        <time>2012-12-09T10:08:03.000Z</time>
      </trkpt>
      <trkpt lat="43.47069" lon="6.79476">
        <ele>186.6</ele>
        <time>2012-12-09T10:08:04.000Z</time>
      </trkpt>
      <trkpt lat="43.47071" lon="6.79467">
        <ele>186.5</ele>
        <time>2012-12-09T10:08:05.000Z</time>
      </trkpt>
      <trkpt lat="43.47073" lon="6.79459">
        <ele>186.4</ele>
        <time>2012-12-09T10:08:06.000Z</time>
      </trkpt>
      <trkpt lat="43.47075" lon="6.7945">
        <ele>186.4</ele>
        <time>2012-12-09T10:08:07.000Z</time>
      </trkpt>
      <trkpt lat="43.47076" lon="6.79442">
        <ele>186.7</ele>
        <time>2012-12-09T10:08:08.000Z</time>
      </trkpt>
      <trkpt lat="43.47077" lon="6.79436">
        <ele>186.8</ele>
        <time>2012-12-09T10:08:09.000Z</time>
      </trkpt>
      <trkpt lat="43.47076" lon="6.7943">
        <ele>187</ele>
        <time>2012-12-09T10:08:10.000Z</time>
      </trkpt>
      <trkpt lat="43.47074" lon="6.79427">
        <ele>187.5</ele>
        <time>2012-12-09T10:08:11.000Z</time>
      </trkpt>
      <trkpt lat="43.47072" lon="6.79425">
        <ele>188</ele>
        <time>2012-12-09T10:08:12.000Z</time>
      </trkpt>
      <trkpt lat="43.47069" lon="6.79425">
        <ele>188.2</ele>
        <time>2012-12-09T10:08:13.000Z</time>
      </trkpt>
      <trkpt lat="43.47064" lon="6.79427">
        <ele>188.6</ele>
        <time>2012-12-09T10:08:14.000Z</time>
      </trkpt>
      <trkpt lat="43.47059" lon="6.7943">
        <ele>188.9</ele>
        <time>2012-12-09T10:08:15.000Z</time>
      </trkpt>
      <trkpt lat="43.47053" lon="6.79434">
        <ele>189</ele>
        <time>2012-12-09T10:08:16.000Z</time>
      </trkpt>
      <trkpt lat="43.47047" lon="6.79439">
        <ele>189</ele>
        <time>2012-12-09T10:08:17.000Z</time>
      </trkpt>
      <trkpt lat="43.47041" lon="6.79443">
        <ele>189.8</ele>
        <time>2012-12-09T10:08:18.000Z</time>
      </trkpt>
      <trkpt lat="43.47035" lon="6.79447">
        <ele>189.5</ele>
        <time>2012-12-09T10:08:19.000Z</time>
      </trkpt>
      <trkpt lat="43.47028" lon="6.7945">
        <ele>188.9</ele>
        <time>2012-12-09T10:08:20.000Z</time>
      </trkpt>
      <trkpt lat="43.47022" lon="6.79453">
        <ele>189</ele>
        <time>2012-12-09T10:08:21.000Z</time>
      </trkpt>
      <trkpt lat="43.47016" lon="6.79456">
        <ele>188.5</ele>
        <time>2012-12-09T10:08:22.000Z</time>
      </trkpt>
      <trkpt lat="43.4701" lon="6.79459">
        <ele>188</ele>
        <time>2012-12-09T10:08:23.000Z</time>
      </trkpt>
      <trkpt lat="43.47004" lon="6.79462">
        <ele>187.8</ele>
        <time>2012-12-09T10:08:24.000Z</time>
      </trkpt>
      <trkpt lat="43.46998" lon="6.79465">
        <ele>187.8</ele>
        <time>2012-12-09T10:08:25.000Z</time>
      </trkpt>
      <trkpt lat="43.46992" lon="6.79468">
        <ele>187.6</ele>
        <time>2012-12-09T10:08:26.000Z</time>
      </trkpt>
      <trkpt lat="43.46985" lon="6.79471">
        <ele>186.8</ele>
        <time>2012-12-09T10:08:27.000Z</time>
      </trkpt>
      <trkpt lat="43.46979" lon="6.79474">
        <ele>186.3</ele>
        <time>2012-12-09T10:08:28.000Z</time>
      </trkpt>
      <trkpt lat="43.46973" lon="6.79477">
        <ele>185.5</ele>
        <time>2012-12-09T10:08:29.000Z</time>
      </trkpt>
      <trkpt lat="43.46966" lon="6.79481">
        <ele>184.8</ele>
        <time>2012-12-09T10:08:30.000Z</time>
      </trkpt>
      <trkpt lat="43.4696" lon="6.79484">
        <ele>184</ele>
        <time>2012-12-09T10:08:31.000Z</time>
      </trkpt>
      <trkpt lat="43.46953" lon="6.79488">
        <ele>183.6</ele>
        <time>2012-12-09T10:08:32.000Z</time>
      </trkpt>
      <trkpt lat="43.46947" lon="6.79491">
        <ele>183</ele>
        <time>2012-12-09T10:08:33.000Z</time>
      </trkpt>
      <trkpt lat="43.4694" lon="6.79495">
        <ele>182.6</ele>
        <time>2012-12-09T10:08:34.000Z</time>
      </trkpt>
      <trkpt lat="43.46934" lon="6.79499">
        <ele>181.8</ele>
        <time>2012-12-09T10:08:35.000Z</time>
      </trkpt>
      <trkpt lat="43.46928" lon="6.79501">
        <ele>180.9</ele>
        <time>2012-12-09T10:08:36.000Z</time>
      </trkpt>
      <trkpt lat="43.46923" lon="6.79501">
        <ele>180.2</ele>
        <time>2012-12-09T10:08:37.000Z</time>
      </trkpt>
      <trkpt lat="43.46918" lon="6.79501">
        <ele>180.1</ele>
        <time>2012-12-09T10:08:38.000Z</time>
      </trkpt>
      <trkpt lat="43.46911" lon="6.79498">
        <ele>179.5</ele>
        <time>2012-12-09T10:08:39.000Z</time>
      </trkpt>
      <trkpt lat="43.4691" lon="6.79493">
        <ele>179</ele>
        <time>2012-12-09T10:08:42.000Z</time>
      </trkpt>
      <trkpt lat="43.4691" lon="6.79491">
        <ele>179</ele>
        <time>2012-12-09T10:08:43.000Z</time>
      </trkpt>
      <trkpt lat="43.46911" lon="6.79486">
        <ele>174.3</ele>
        <time>2012-12-09T10:08:51.000Z</time>
      </trkpt>
      <trkpt lat="43.4691" lon="6.79481">
        <ele>174.1</ele>
        <time>2012-12-09T10:08:53.000Z</time>
      </trkpt>
      <trkpt lat="43.46911" lon="6.79474">
        <ele>174.9</ele>
        <time>2012-12-09T10:08:54.000Z</time>
      </trkpt>
      <trkpt lat="43.46912" lon="6.79467">
        <ele>174.5</ele>
        <time>2012-12-09T10:08:55.000Z</time>
      </trkpt>
      <trkpt lat="43.46913" lon="6.7946">
        <ele>173.7</ele>
        <time>2012-12-09T10:08:56.000Z</time>
      </trkpt>
      <trkpt lat="43.46914" lon="6.79454">
        <ele>173.9</ele>
        <time>2012-12-09T10:08:57.000Z</time>
      </trkpt>
      <trkpt lat="43.46914" lon="6.79447">
        <ele>173.3</ele>
        <time>2012-12-09T10:08:58.000Z</time>
      </trkpt>
      <trkpt lat="43.46915" lon="6.79441">
        <ele>172.6</ele>
        <time>2012-12-09T10:08:59.000Z</time>
      </trkpt>
      <trkpt lat="43.46917" lon="6.79434">
        <ele>172.2</ele>
        <time>2012-12-09T10:09:00.000Z</time>
      </trkpt>
      <trkpt lat="43.46918" lon="6.79428">
        <ele>172</ele>
        <time>2012-12-09T10:09:01.000Z</time>
      </trkpt>
      <trkpt lat="43.46919" lon="6.79422">
        <ele>172</ele>
        <time>2012-12-09T10:09:02.000Z</time>
      </trkpt>
      <trkpt lat="43.46921" lon="6.79416">
        <ele>171.8</ele>
        <time>2012-12-09T10:09:03.000Z</time>
      </trkpt>
      <trkpt lat="43.46924" lon="6.7941">
        <ele>171.5</ele>
        <time>2012-12-09T10:09:04.000Z</time>
      </trkpt>
      <trkpt lat="43.46926" lon="6.79405">
        <ele>171.2</ele>
        <time>2012-12-09T10:09:05.000Z</time>
      </trkpt>
      <trkpt lat="43.46929" lon="6.79399">
        <ele>171</ele>
        <time>2012-12-09T10:09:06.000Z</time>
      </trkpt>
      <trkpt lat="43.46931" lon="6.79394">
        <ele>170.8</ele>
        <time>2012-12-09T10:09:07.000Z</time>
      </trkpt>
      <trkpt lat="43.46933" lon="6.79388">
        <ele>170.9</ele>
        <time>2012-12-09T10:09:08.000Z</time>
      </trkpt>
      <trkpt lat="43.46934" lon="6.79382">
        <ele>171</ele>
        <time>2012-12-09T10:09:09.000Z</time>
      </trkpt>
      <trkpt lat="43.46935" lon="6.79376">
        <ele>171.4</ele>
        <time>2012-12-09T10:09:10.000Z</time>
      </trkpt>
      <trkpt lat="43.46935" lon="6.7937">
        <ele>171.9</ele>
        <time>2012-12-09T10:09:11.000Z</time>
      </trkpt>
      <trkpt lat="43.46934" lon="6.79364">
        <ele>172.7</ele>
        <time>2012-12-09T10:09:12.000Z</time>
      </trkpt>
      <trkpt lat="43.46933" lon="6.7936">
        <ele>173</ele>
        <time>2012-12-09T10:09:13.000Z</time>
      </trkpt>
      <trkpt lat="43.4693" lon="6.79357">
        <ele>173.3</ele>
        <time>2012-12-09T10:09:14.000Z</time>
      </trkpt>
      <trkpt lat="43.46928" lon="6.79352">
        <ele>173.3</ele>
        <time>2012-12-09T10:09:15.000Z</time>
      </trkpt>
      <trkpt lat="43.46927" lon="6.79347">
        <ele>172.5</ele>
        <time>2012-12-09T10:09:16.000Z</time>
      </trkpt>
      <trkpt lat="43.46926" lon="6.79342">
        <ele>172.2</ele>
        <time>2012-12-09T10:09:17.000Z</time>
      </trkpt>
      <trkpt lat="43.46926" lon="6.79337">
        <ele>172.3</ele>
        <time>2012-12-09T10:09:18.000Z</time>
      </trkpt>
      <trkpt lat="43.46926" lon="6.79332">
        <ele>172.4</ele>
        <time>2012-12-09T10:09:19.000Z</time>
      </trkpt>
      <trkpt lat="43.46928" lon="6.79328">
        <ele>172.3</ele>
        <time>2012-12-09T10:09:20.000Z</time>
      </trkpt>
      <trkpt lat="43.4693" lon="6.79323">
        <ele>172.4</ele>
        <time>2012-12-09T10:09:21.000Z</time>
      </trkpt>
      <trkpt lat="43.46931" lon="6.79319">
        <ele>172.5</ele>
        <time>2012-12-09T10:09:22.000Z</time>
      </trkpt>
      <trkpt lat="43.46933" lon="6.79315">
        <ele>172.4</ele>
        <time>2012-12-09T10:09:23.000Z</time>
      </trkpt>
      <trkpt lat="43.46935" lon="6.79311">
        <ele>172.2</ele>
        <time>2012-12-09T10:09:24.000Z</time>
      </trkpt>
      <trkpt lat="43.46937" lon="6.79307">
        <ele>172</ele>
        <time>2012-12-09T10:09:25.000Z</time>
      </trkpt>
      <trkpt lat="43.46939" lon="6.79303">
        <ele>172</ele>
        <time>2012-12-09T10:09:26.000Z</time>
      </trkpt>
      <trkpt lat="43.46941" lon="6.79298">
        <ele>171.9</ele>
        <time>2012-12-09T10:09:27.000Z</time>
      </trkpt>
      <trkpt lat="43.46943" lon="6.79294">
        <ele>171.6</ele>
        <time>2012-12-09T10:09:28.000Z</time>
      </trkpt>
      <trkpt lat="43.46945" lon="6.7929">
        <ele>171.2</ele>
        <time>2012-12-09T10:09:29.000Z</time>
      </trkpt>
      <trkpt lat="43.46947" lon="6.79286">
        <ele>171</ele>
        <time>2012-12-09T10:09:30.000Z</time>
      </trkpt>
      <trkpt lat="43.46949" lon="6.79282">
        <ele>170.8</ele>
        <time>2012-12-09T10:09:31.000Z</time>
      </trkpt>
      <trkpt lat="43.4695" lon="6.79278">
        <ele>170.5</ele>
        <time>2012-12-09T10:09:32.000Z</time>
      </trkpt>
      <trkpt lat="43.46952" lon="6.79276">
        <ele>170.4</ele>
        <time>2012-12-09T10:09:33.000Z</time>
      </trkpt>
      <trkpt lat="43.4695" lon="6.79279">
        <ele>170.5</ele>
        <time>2012-12-09T10:09:46.000Z</time>
      </trkpt>
      <trkpt lat="43.46954" lon="6.79281">
        <ele>166</ele>
        <time>2012-12-09T10:09:48.000Z</time>
      </trkpt>
      <trkpt lat="43.46953" lon="6.79276">
        <ele>161.1</ele>
        <time>2012-12-09T10:10:20.000Z</time>
      </trkpt>
      <trkpt lat="43.46953" lon="6.79274">
        <ele>161.8</ele>
        <time>2012-12-09T10:10:21.000Z</time>
      </trkpt>
      <trkpt lat="43.46955" lon="6.79272">
        <ele>162.2</ele>
        <time>2012-12-09T10:10:22.000Z</time>
      </trkpt>
      <trkpt lat="43.46956" lon="6.79269">
        <ele>162.1</ele>
        <time>2012-12-09T10:10:23.000Z</time>
      </trkpt>
      <trkpt lat="43.46957" lon="6.79265">
        <ele>162.4</ele>
        <time>2012-12-09T10:10:24.000Z</time>
      </trkpt>
      <trkpt lat="43.46958" lon="6.79261">
        <ele>162.7</ele>
        <time>2012-12-09T10:10:25.000Z</time>
      </trkpt>
      <trkpt lat="43.46958" lon="6.79257">
        <ele>163</ele>
        <time>2012-12-09T10:10:26.000Z</time>
      </trkpt>
      <trkpt lat="43.46956" lon="6.79252">
        <ele>163.3</ele>
        <time>2012-12-09T10:10:27.000Z</time>
      </trkpt>
      <trkpt lat="43.46955" lon="6.79248">
        <ele>163.5</ele>
        <time>2012-12-09T10:10:28.000Z</time>
      </trkpt>
      <trkpt lat="43.46953" lon="6.79245">
        <ele>163.7</ele>
        <time>2012-12-09T10:10:29.000Z</time>
      </trkpt>
      <trkpt lat="43.4695" lon="6.79244">
        <ele>163.9</ele>
        <time>2012-12-09T10:10:30.000Z</time>
      </trkpt>
      <trkpt lat="43.46947" lon="6.79244">
        <ele>164.2</ele>
        <time>2012-12-09T10:10:31.000Z</time>
      </trkpt>
      <trkpt lat="43.46944" lon="6.79245">
        <ele>164.5</ele>
        <time>2012-12-09T10:10:32.000Z</time>
      </trkpt>
      <trkpt lat="43.46939" lon="6.79249">
        <ele>164.8</ele>
        <time>2012-12-09T10:10:33.000Z</time>
      </trkpt>
      <trkpt lat="43.46934" lon="6.79251">
        <ele>165.1</ele>
        <time>2012-12-09T10:10:34.000Z</time>
      </trkpt>
      <trkpt lat="43.46929" lon="6.79253">
        <ele>165.3</ele>
        <time>2012-12-09T10:10:35.000Z</time>
      </trkpt>
      <trkpt lat="43.46925" lon="6.79255">
        <ele>165.4</ele>
        <time>2012-12-09T10:10:36.000Z</time>
      </trkpt>
      <trkpt lat="43.4692" lon="6.79256">
        <ele>165.5</ele>
        <time>2012-12-09T10:10:37.000Z</time>
      </trkpt>
      <trkpt lat="43.46916" lon="6.79258">
        <ele>165.2</ele>
        <time>2012-12-09T10:10:38.000Z</time>
      </trkpt>
      <trkpt lat="43.46911" lon="6.79259">
        <ele>165.2</ele>
        <time>2012-12-09T10:10:39.000Z</time>
      </trkpt>
      <trkpt lat="43.46906" lon="6.7926">
        <ele>165.1</ele>
        <time>2012-12-09T10:10:40.000Z</time>
      </trkpt>
      <trkpt lat="43.46902" lon="6.79262">
        <ele>165.1</ele>
        <time>2012-12-09T10:10:41.000Z</time>
      </trkpt>
      <trkpt lat="43.46898" lon="6.79263">
        <ele>165</ele>
        <time>2012-12-09T10:10:42.000Z</time>
      </trkpt>
      <trkpt lat="43.46894" lon="6.79264">
        <ele>165</ele>
        <time>2012-12-09T10:10:43.000Z</time>
      </trkpt>
      <trkpt lat="43.4689" lon="6.79265">
        <ele>165</ele>
        <time>2012-12-09T10:10:44.000Z</time>
      </trkpt>
      <trkpt lat="43.46886" lon="6.79265">
        <ele>164.9</ele>
        <time>2012-12-09T10:10:45.000Z</time>
      </trkpt>
      <trkpt lat="43.46882" lon="6.79264">
        <ele>164.9</ele>
        <time>2012-12-09T10:10:46.000Z</time>
      </trkpt>
      <trkpt lat="43.46878" lon="6.79263">
        <ele>164.9</ele>
        <time>2012-12-09T10:10:47.000Z</time>
      </trkpt>
      <trkpt lat="43.46874" lon="6.79263">
        <ele>164.9</ele>
        <time>2012-12-09T10:10:48.000Z</time>
      </trkpt>
      <trkpt lat="43.46871" lon="6.79265">
        <ele>164.8</ele>
        <time>2012-12-09T10:10:49.000Z</time>
      </trkpt>
      <trkpt lat="43.46868" lon="6.79266">
        <ele>164.6</ele>
        <time>2012-12-09T10:10:50.000Z</time>
      </trkpt>
      <trkpt lat="43.46865" lon="6.79267">
        <ele>164.5</ele>
        <time>2012-12-09T10:10:51.000Z</time>
      </trkpt>
      <trkpt lat="43.46862" lon="6.79268">
        <ele>164.5</ele>
        <time>2012-12-09T10:10:52.000Z</time>
      </trkpt>
      <trkpt lat="43.4686" lon="6.79268">
        <ele>164.6</ele>
        <time>2012-12-09T10:10:53.000Z</time>
      </trkpt>
      <trkpt lat="43.46858" lon="6.79268">
        <ele>164.3</ele>
        <time>2012-12-09T10:11:46.000Z</time>
      </trkpt>
      <trkpt lat="43.46854" lon="6.79268">
        <ele>164.5</ele>
        <time>2012-12-09T10:11:49.000Z</time>
      </trkpt>
      <trkpt lat="43.46849" lon="6.79266">
        <ele>167.1</ele>
        <time>2012-12-09T10:12:00.000Z</time>
      </trkpt>
      <trkpt lat="43.46847" lon="6.79265">
        <ele>167.1</ele>
        <time>2012-12-09T10:12:01.000Z</time>
      </trkpt>
      <trkpt lat="43.46845" lon="6.79263">
        <ele>167.6</ele>
        <time>2012-12-09T10:12:02.000Z</time>
      </trkpt>
      <trkpt lat="43.46843" lon="6.7926">
        <ele>168</ele>
        <time>2012-12-09T10:12:03.000Z</time>
      </trkpt>
      <trkpt lat="43.46842" lon="6.79256">
        <ele>168.2</ele>
        <time>2012-12-09T10:12:18.000Z</time>
      </trkpt>
      <trkpt lat="43.46842" lon="6.79254">
        <ele>167.7</ele>
        <time>2012-12-09T10:12:19.000Z</time>
      </trkpt>
      <trkpt lat="43.46843" lon="6.79252">
        <ele>167.5</ele>
        <time>2012-12-09T10:12:20.000Z</time>
      </trkpt>
      <trkpt lat="43.46845" lon="6.79248">
        <ele>167.4</ele>
        <time>2012-12-09T10:12:21.000Z</time>
      </trkpt>
      <trkpt lat="43.46846" lon="6.79244">
        <ele>167.6</ele>
        <time>2012-12-09T10:12:22.000Z</time>
      </trkpt>
      <trkpt lat="43.46847" lon="6.79241">
        <ele>167.9</ele>
        <time>2012-12-09T10:12:23.000Z</time>
      </trkpt>
      <trkpt lat="43.46849" lon="6.79237">
        <ele>167.9</ele>
        <time>2012-12-09T10:12:24.000Z</time>
      </trkpt>
      <trkpt lat="43.4685" lon="6.79233">
        <ele>168</ele>
        <time>2012-12-09T10:12:25.000Z</time>
      </trkpt>
      <trkpt lat="43.46851" lon="6.79229">
        <ele>168.1</ele>
        <time>2012-12-09T10:12:26.000Z</time>
      </trkpt>
      <trkpt lat="43.46853" lon="6.79224">
        <ele>168</ele>
        <time>2012-12-09T10:12:27.000Z</time>
      </trkpt>
      <trkpt lat="43.46854" lon="6.79219">
        <ele>168.1</ele>
        <time>2012-12-09T10:12:28.000Z</time>
      </trkpt>
      <trkpt lat="43.46856" lon="6.79214">
        <ele>168.3</ele>
        <time>2012-12-09T10:12:29.000Z</time>
      </trkpt>
      <trkpt lat="43.46858" lon="6.79209">
        <ele>168.4</ele>
        <time>2012-12-09T10:12:30.000Z</time>
      </trkpt>
      <trkpt lat="43.4686" lon="6.79205">
        <ele>168.4</ele>
        <time>2012-12-09T10:12:31.000Z</time>
      </trkpt>
      <trkpt lat="43.46862" lon="6.79201">
        <ele>168.3</ele>
        <time>2012-12-09T10:12:32.000Z</time>
      </trkpt>
      <trkpt lat="43.46865" lon="6.79197">
        <ele>168.2</ele>
        <time>2012-12-09T10:12:33.000Z</time>
      </trkpt>
      <trkpt lat="43.46868" lon="6.79193">
        <ele>168</ele>
        <time>2012-12-09T10:12:34.000Z</time>
      </trkpt>
      <trkpt lat="43.46871" lon="6.79189">
        <ele>167.8</ele>
        <time>2012-12-09T10:12:35.000Z</time>
      </trkpt>
      <trkpt lat="43.46874" lon="6.79185">
        <ele>167.8</ele>
        <time>2012-12-09T10:12:36.000Z</time>
      </trkpt>
      <trkpt lat="43.46877" lon="6.79181">
        <ele>167.6</ele>
        <time>2012-12-09T10:12:37.000Z</time>
      </trkpt>
      <trkpt lat="43.4688" lon="6.79178">
        <ele>167.5</ele>
        <time>2012-12-09T10:12:38.000Z</time>
      </trkpt>
      <trkpt lat="43.46883" lon="6.79174">
        <ele>167.3</ele>
        <time>2012-12-09T10:12:39.000Z</time>
      </trkpt>
      <trkpt lat="43.46886" lon="6.79171">
        <ele>167.3</ele>
        <time>2012-12-09T10:12:40.000Z</time>
      </trkpt>
      <trkpt lat="43.46889" lon="6.79168">
        <ele>167.4</ele>
        <time>2012-12-09T10:12:41.000Z</time>
      </trkpt>
      <trkpt lat="43.46892" lon="6.79164">
        <ele>167.5</ele>
        <time>2012-12-09T10:12:42.000Z</time>
      </trkpt>
      <trkpt lat="43.46895" lon="6.79161">
        <ele>167.3</ele>
        <time>2012-12-09T10:12:43.000Z</time>
      </trkpt>
      <trkpt lat="43.46897" lon="6.79157">
        <ele>167.3</ele>
        <time>2012-12-09T10:12:44.000Z</time>
      </trkpt>
      <trkpt lat="43.469" lon="6.79153">
        <ele>167.3</ele>
        <time>2012-12-09T10:12:45.000Z</time>
      </trkpt>
      <trkpt lat="43.46903" lon="6.79149">
        <ele>167.3</ele>
        <time>2012-12-09T10:12:46.000Z</time>
      </trkpt>
      <trkpt lat="43.46889" lon="6.7913">
        <ele>178.4</ele>
        <time>2012-12-09T10:12:48.000Z</time>
      </trkpt>
      <trkpt lat="43.46895" lon="6.79126">
        <ele>172.3</ele>
        <time>2012-12-09T10:12:50.000Z</time>
      </trkpt>
      <trkpt lat="43.46893" lon="6.79129">
        <ele>176.8</ele>
        <time>2012-12-09T10:12:51.000Z</time>
      </trkpt>
      <trkpt lat="43.4689" lon="6.79129">
        <ele>177.5</ele>
        <time>2012-12-09T10:12:52.000Z</time>
      </trkpt>
      <trkpt lat="43.46886" lon="6.79126">
        <ele>178.2</ele>
        <time>2012-12-09T10:12:54.000Z</time>
      </trkpt>
      <trkpt lat="43.46884" lon="6.79124">
        <ele>178.1</ele>
        <time>2012-12-09T10:12:55.000Z</time>
      </trkpt>
      <trkpt lat="43.46882" lon="6.79122">
        <ele>178.1</ele>
        <time>2012-12-09T10:12:56.000Z</time>
      </trkpt>
      <trkpt lat="43.46881" lon="6.7912">
        <ele>176.8</ele>
        <time>2012-12-09T10:12:57.000Z</time>
      </trkpt>
      <trkpt lat="43.46878" lon="6.79118">
        <ele>175.7</ele>
        <time>2012-12-09T10:12:58.000Z</time>
      </trkpt>
      <trkpt lat="43.46876" lon="6.79115">
        <ele>175.1</ele>
        <time>2012-12-09T10:12:59.000Z</time>
      </trkpt>
      <trkpt lat="43.46874" lon="6.79113">
        <ele>173.9</ele>
        <time>2012-12-09T10:13:00.000Z</time>
      </trkpt>
      <trkpt lat="43.46872" lon="6.7911">
        <ele>173.1</ele>
        <time>2012-12-09T10:13:01.000Z</time>
      </trkpt>
      <trkpt lat="43.4687" lon="6.79107">
        <ele>172.9</ele>
        <time>2012-12-09T10:13:02.000Z</time>
      </trkpt>
      <trkpt lat="43.46867" lon="6.79104">
        <ele>172.6</ele>
        <time>2012-12-09T10:13:03.000Z</time>
      </trkpt>
      <trkpt lat="43.46865" lon="6.79101">
        <ele>172.4</ele>
        <time>2012-12-09T10:13:04.000Z</time>
      </trkpt>
      <trkpt lat="43.46863" lon="6.79097">
        <ele>172.5</ele>
        <time>2012-12-09T10:13:05.000Z</time>
      </trkpt>
      <trkpt lat="43.46861" lon="6.79093">
        <ele>172.6</ele>
        <time>2012-12-09T10:13:06.000Z</time>
      </trkpt>
      <trkpt lat="43.4686" lon="6.79089">
        <ele>172.8</ele>
        <time>2012-12-09T10:13:07.000Z</time>
      </trkpt>
      <trkpt lat="43.46859" lon="6.79085">
        <ele>172.9</ele>
        <time>2012-12-09T10:13:08.000Z</time>
      </trkpt>
      <trkpt lat="43.46858" lon="6.79081">
        <ele>173</ele>
        <time>2012-12-09T10:13:09.000Z</time>
      </trkpt>
      <trkpt lat="43.46858" lon="6.79077">
        <ele>173.1</ele>
        <time>2012-12-09T10:13:10.000Z</time>
      </trkpt>
      <trkpt lat="43.46857" lon="6.79072">
        <ele>173.3</ele>
        <time>2012-12-09T10:13:11.000Z</time>
      </trkpt>
      <trkpt lat="43.46857" lon="6.79068">
        <ele>173.3</ele>
        <time>2012-12-09T10:13:12.000Z</time>
      </trkpt>
      <trkpt lat="43.46857" lon="6.79064">
        <ele>173.1</ele>
        <time>2012-12-09T10:13:13.000Z</time>
      </trkpt>
      <trkpt lat="43.46857" lon="6.7906">
        <ele>173.2</ele>
        <time>2012-12-09T10:13:14.000Z</time>
      </trkpt>
      <trkpt lat="43.46857" lon="6.79056">
        <ele>173.4</ele>
        <time>2012-12-09T10:13:15.000Z</time>
      </trkpt>
      <trkpt lat="43.46857" lon="6.79052">
        <ele>173.4</ele>
        <time>2012-12-09T10:13:16.000Z</time>
      </trkpt>
      <trkpt lat="43.46858" lon="6.79049">
        <ele>173.2</ele>
        <time>2012-12-09T10:13:17.000Z</time>
      </trkpt>
      <trkpt lat="43.46859" lon="6.79045">
        <ele>173.1</ele>
        <time>2012-12-09T10:13:18.000Z</time>
      </trkpt>
      <trkpt lat="43.4686" lon="6.79042">
        <ele>173</ele>
        <time>2012-12-09T10:13:19.000Z</time>
      </trkpt>
      <trkpt lat="43.46862" lon="6.79038">
        <ele>173</ele>
        <time>2012-12-09T10:13:20.000Z</time>
      </trkpt>
      <trkpt lat="43.46863" lon="6.79035">
        <ele>172.7</ele>
        <time>2012-12-09T10:13:21.000Z</time>
      </trkpt>
      <trkpt lat="43.46865" lon="6.79032">
        <ele>172.6</ele>
        <time>2012-12-09T10:13:22.000Z</time>
      </trkpt>
      <trkpt lat="43.46866" lon="6.79029">
        <ele>172.5</ele>
        <time>2012-12-09T10:13:23.000Z</time>
      </trkpt>
      <trkpt lat="43.46868" lon="6.79025">
        <ele>172.4</ele>
        <time>2012-12-09T10:13:24.000Z</time>
      </trkpt>
      <trkpt lat="43.4687" lon="6.79023">
        <ele>172.2</ele>
        <time>2012-12-09T10:13:25.000Z</time>
      </trkpt>
      <trkpt lat="43.46871" lon="6.7902">
        <ele>172.1</ele>
        <time>2012-12-09T10:13:26.000Z</time>
      </trkpt>
      <trkpt lat="43.46873" lon="6.79017">
        <ele>172.2</ele>
        <time>2012-12-09T10:13:27.000Z</time>
      </trkpt>
      <trkpt lat="43.46875" lon="6.79014">
        <ele>172.3</ele>
        <time>2012-12-09T10:13:28.000Z</time>
      </trkpt>
      <trkpt lat="43.46877" lon="6.7901">
        <ele>172.4</ele>
        <time>2012-12-09T10:13:29.000Z</time>
      </trkpt>
      <trkpt lat="43.46878" lon="6.79007">
        <ele>172.4</ele>
        <time>2012-12-09T10:13:30.000Z</time>
      </trkpt>
      <trkpt lat="43.4688" lon="6.79004">
        <ele>172.5</ele>
        <time>2012-12-09T10:13:31.000Z</time>
      </trkpt>
      <trkpt lat="43.46882" lon="6.79001">
        <ele>172.1</ele>
        <time>2012-12-09T10:13:32.000Z</time>
      </trkpt>
      <trkpt lat="43.46884" lon="6.78997">
        <ele>172.2</ele>
        <time>2012-12-09T10:13:33.000Z</time>
      </trkpt>
      <trkpt lat="43.46885" lon="6.78993">
        <ele>172.2</ele>
        <time>2012-12-09T10:13:34.000Z</time>
      </trkpt>
      <trkpt lat="43.46887" lon="6.78989">
        <ele>172.2</ele>
        <time>2012-12-09T10:13:35.000Z</time>
      </trkpt>
      <trkpt lat="43.46889" lon="6.78985">
        <ele>172.3</ele>
        <time>2012-12-09T10:13:36.000Z</time>
      </trkpt>
      <trkpt lat="43.46891" lon="6.78982">
        <ele>172.4</ele>
        <time>2012-12-09T10:13:37.000Z</time>
      </trkpt>
      <trkpt lat="43.46893" lon="6.78978">
        <ele>172.4</ele>
        <time>2012-12-09T10:13:38.000Z</time>
      </trkpt>
      <trkpt lat="43.46895" lon="6.78975">
        <ele>172.2</ele>
        <time>2012-12-09T10:13:39.000Z</time>
      </trkpt>
      <trkpt lat="43.46897" lon="6.78971">
        <ele>172.3</ele>
        <time>2012-12-09T10:13:40.000Z</time>
      </trkpt>
      <trkpt lat="43.469" lon="6.78968">
        <ele>172.3</ele>
        <time>2012-12-09T10:13:41.000Z</time>
      </trkpt>
      <trkpt lat="43.46902" lon="6.78965">
        <ele>172.4</ele>
        <time>2012-12-09T10:13:42.000Z</time>
      </trkpt>
      <trkpt lat="43.46904" lon="6.78962">
        <ele>172.3</ele>
        <time>2012-12-09T10:13:43.000Z</time>
      </trkpt>
      <trkpt lat="43.46906" lon="6.7896">
        <ele>172.3</ele>
        <time>2012-12-09T10:13:44.000Z</time>
      </trkpt>
      <trkpt lat="43.46908" lon="6.78959">
        <ele>172.3</ele>
        <time>2012-12-09T10:13:45.000Z</time>
      </trkpt>
      <trkpt lat="43.4691" lon="6.78957">
        <ele>172.2</ele>
        <time>2012-12-09T10:13:46.000Z</time>
      </trkpt>
      <trkpt lat="43.46906" lon="6.78976">
        <ele>153.6</ele>
        <time>2012-12-09T10:13:48.000Z</time>
      </trkpt>
      <trkpt lat="43.46916" lon="6.78959">
        <ele>165.6</ele>
        <time>2012-12-09T10:13:50.000Z</time>
      </trkpt>
      <trkpt lat="43.4692" lon="6.78957">
        <ele>166.2</ele>
        <time>2012-12-09T10:13:51.000Z</time>
      </trkpt>
      <trkpt lat="43.46925" lon="6.78954">
        <ele>167.1</ele>
        <time>2012-12-09T10:13:52.000Z</time>
      </trkpt>
      <trkpt lat="43.46928" lon="6.78952">
        <ele>168.3</ele>
        <time>2012-12-09T10:13:53.000Z</time>
      </trkpt>
      <trkpt lat="43.46932" lon="6.78951">
        <ele>169</ele>
        <time>2012-12-09T10:13:54.000Z</time>
      </trkpt>
      <trkpt lat="43.46935" lon="6.7895">
        <ele>169.4</ele>
        <time>2012-12-09T10:13:55.000Z</time>
      </trkpt>
      <trkpt lat="43.46937" lon="6.78949">
        <ele>169.7</ele>
        <time>2012-12-09T10:13:56.000Z</time>
      </trkpt>
      <trkpt lat="43.46941" lon="6.78947">
        <ele>170</ele>
        <time>2012-12-09T10:13:57.000Z</time>
      </trkpt>
      <trkpt lat="43.46943" lon="6.78946">
        <ele>170</ele>
        <time>2012-12-09T10:13:58.000Z</time>
      </trkpt>
      <trkpt lat="43.46946" lon="6.78945">
        <ele>170.2</ele>
        <time>2012-12-09T10:13:59.000Z</time>
      </trkpt>
      <trkpt lat="43.46949" lon="6.78944">
        <ele>170.6</ele>
        <time>2012-12-09T10:14:00.000Z</time>
      </trkpt>
      <trkpt lat="43.46952" lon="6.78943">
        <ele>171</ele>
        <time>2012-12-09T10:14:01.000Z</time>
      </trkpt>
      <trkpt lat="43.46955" lon="6.78943">
        <ele>171</ele>
        <time>2012-12-09T10:14:02.000Z</time>
      </trkpt>
      <trkpt lat="43.46958" lon="6.78942">
        <ele>170.9</ele>
        <time>2012-12-09T10:14:03.000Z</time>
      </trkpt>
      <trkpt lat="43.46961" lon="6.78942">
        <ele>171.1</ele>
        <time>2012-12-09T10:14:04.000Z</time>
      </trkpt>
      <trkpt lat="43.46964" lon="6.78943">
        <ele>171</ele>
        <time>2012-12-09T10:14:05.000Z</time>
      </trkpt>
      <trkpt lat="43.46967" lon="6.78943">
        <ele>171.2</ele>
        <time>2012-12-09T10:14:06.000Z</time>
      </trkpt>
      <trkpt lat="43.4697" lon="6.78943">
        <ele>171.4</ele>
        <time>2012-12-09T10:14:07.000Z</time>
      </trkpt>
      <trkpt lat="43.46972" lon="6.78943">
        <ele>171.3</ele>
        <time>2012-12-09T10:14:08.000Z</time>
      </trkpt>
      <trkpt lat="43.46975" lon="6.78944">
        <ele>171.4</ele>
        <time>2012-12-09T10:14:09.000Z</time>
      </trkpt>
      <trkpt lat="43.46977" lon="6.78945">
        <ele>171.4</ele>
        <time>2012-12-09T10:14:10.000Z</time>
      </trkpt>
      <trkpt lat="43.46981" lon="6.78946">
        <ele>171.5</ele>
        <time>2012-12-09T10:14:12.000Z</time>
      </trkpt>
      <trkpt lat="43.46983" lon="6.78947">
        <ele>171.6</ele>
        <time>2012-12-09T10:14:13.000Z</time>
      </trkpt>
      <trkpt lat="43.46985" lon="6.78949">
        <ele>171.7</ele>
        <time>2012-12-09T10:14:14.000Z</time>
      </trkpt>
      <trkpt lat="43.46987" lon="6.7895">
        <ele>172.1</ele>
        <time>2012-12-09T10:14:15.000Z</time>
      </trkpt>
      <trkpt lat="43.46989" lon="6.78952">
        <ele>172.3</ele>
        <time>2012-12-09T10:14:16.000Z</time>
      </trkpt>
      <trkpt lat="43.46992" lon="6.78953">
        <ele>172.5</ele>
        <time>2012-12-09T10:14:17.000Z</time>
      </trkpt>
      <trkpt lat="43.46994" lon="6.78954">
        <ele>172.5</ele>
        <time>2012-12-09T10:14:18.000Z</time>
      </trkpt>
      <trkpt lat="43.46996" lon="6.78956">
        <ele>172.8</ele>
        <time>2012-12-09T10:14:19.000Z</time>
      </trkpt>
      <trkpt lat="43.46999" lon="6.78958">
        <ele>173</ele>
        <time>2012-12-09T10:14:21.000Z</time>
      </trkpt>
      <trkpt lat="43.47001" lon="6.7896">
        <ele>173</ele>
        <time>2012-12-09T10:14:22.000Z</time>
      </trkpt>
      <trkpt lat="43.47005" lon="6.78963">
        <ele>173.1</ele>
        <time>2012-12-09T10:14:24.000Z</time>
      </trkpt>
      <trkpt lat="43.47007" lon="6.78965">
        <ele>173.4</ele>
        <time>2012-12-09T10:14:25.000Z</time>
      </trkpt>
      <trkpt lat="43.47008" lon="6.78967">
        <ele>174</ele>
        <time>2012-12-09T10:14:26.000Z</time>
      </trkpt>
      <trkpt lat="43.4701" lon="6.78969">
        <ele>174.2</ele>
        <time>2012-12-09T10:14:27.000Z</time>
      </trkpt>
      <trkpt lat="43.47012" lon="6.78972">
        <ele>174.4</ele>
        <time>2012-12-09T10:14:28.000Z</time>
      </trkpt>
      <trkpt lat="43.47014" lon="6.78974">
        <ele>174.5</ele>
        <time>2012-12-09T10:14:29.000Z</time>
      </trkpt>
      <trkpt lat="43.47016" lon="6.78976">
        <ele>174.5</ele>
        <time>2012-12-09T10:14:30.000Z</time>
      </trkpt>
      <trkpt lat="43.47019" lon="6.78978">
        <ele>174.5</ele>
        <time>2012-12-09T10:14:31.000Z</time>
      </trkpt>
      <trkpt lat="43.47022" lon="6.78979">
        <ele>174.6</ele>
        <time>2012-12-09T10:14:32.000Z</time>
      </trkpt>
      <trkpt lat="43.47024" lon="6.7898">
        <ele>174.9</ele>
        <time>2012-12-09T10:14:33.000Z</time>
      </trkpt>
      <trkpt lat="43.47027" lon="6.78982">
        <ele>175</ele>
        <time>2012-12-09T10:14:34.000Z</time>
      </trkpt>
      <trkpt lat="43.4703" lon="6.78982">
        <ele>175.1</ele>
        <time>2012-12-09T10:14:35.000Z</time>
      </trkpt>
      <trkpt lat="43.47033" lon="6.78983">
        <ele>175.2</ele>
        <time>2012-12-09T10:14:36.000Z</time>
      </trkpt>
      <trkpt lat="43.47036" lon="6.78983">
        <ele>175.7</ele>
        <time>2012-12-09T10:14:37.000Z</time>
      </trkpt>
      <trkpt lat="43.47038" lon="6.78984">
        <ele>175.7</ele>
        <time>2012-12-09T10:14:38.000Z</time>
      </trkpt>
      <trkpt lat="43.47041" lon="6.78985">
        <ele>175.7</ele>
        <time>2012-12-09T10:14:39.000Z</time>
      </trkpt>
      <trkpt lat="43.47045" lon="6.78987">
        <ele>176</ele>
        <time>2012-12-09T10:14:41.000Z</time>
      </trkpt>
      <trkpt lat="43.47046" lon="6.78988">
        <ele>176.2</ele>
        <time>2012-12-09T10:14:42.000Z</time>
      </trkpt>
      <trkpt lat="43.47048" lon="6.78991">
        <ele>176.8</ele>
        <time>2012-12-09T10:14:44.000Z</time>
      </trkpt>
      <trkpt lat="43.47049" lon="6.78993">
        <ele>176.8</ele>
        <time>2012-12-09T10:14:45.000Z</time>
      </trkpt>
      <trkpt lat="43.47053" lon="6.78995">
        <ele>181.1</ele>
        <time>2012-12-09T10:14:48.000Z</time>
      </trkpt>
      <trkpt lat="43.47053" lon="6.78996">
        <ele>182.3</ele>
        <time>2012-12-09T10:14:50.000Z</time>
      </trkpt>
      <trkpt lat="43.47053" lon="6.78996">
        <ele>182.3</ele>
        <time>2012-12-09T10:14:52.000Z</time>
      </trkpt>
      <trkpt lat="43.47053" lon="6.79008">
        <ele>184.1</ele>
        <time>2012-12-09T10:14:53.000Z</time>
      </trkpt>
      <trkpt lat="43.47056" lon="6.79011">
        <ele>185.6</ele>
        <time>2012-12-09T10:14:55.000Z</time>
      </trkpt>
      <trkpt lat="43.47058" lon="6.79014">
        <ele>183.8</ele>
        <time>2012-12-09T10:14:56.000Z</time>
      </trkpt>
      <trkpt lat="43.4706" lon="6.79018">
        <ele>184.1</ele>
        <time>2012-12-09T10:14:58.000Z</time>
      </trkpt>
      <trkpt lat="43.4706" lon="6.79019">
        <ele>184.4</ele>
        <time>2012-12-09T10:14:59.000Z</time>
      </trkpt>
      <trkpt lat="43.4706" lon="6.79015">
        <ele>189.6</ele>
        <time>2012-12-09T10:15:12.000Z</time>
      </trkpt>
      <trkpt lat="43.47059" lon="6.79013">
        <ele>190.4</ele>
        <time>2012-12-09T10:15:13.000Z</time>
      </trkpt>
      <trkpt lat="43.47058" lon="6.7901">
        <ele>190.8</ele>
        <time>2012-12-09T10:15:14.000Z</time>
      </trkpt>
      <trkpt lat="43.47056" lon="6.79007">
        <ele>191.2</ele>
        <time>2012-12-09T10:15:15.000Z</time>
      </trkpt>
      <trkpt lat="43.47054" lon="6.79003">
        <ele>191.5</ele>
        <time>2012-12-09T10:15:16.000Z</time>
      </trkpt>
      <trkpt lat="43.47052" lon="6.79">
        <ele>191</ele>
        <time>2012-12-09T10:15:17.000Z</time>
      </trkpt>
      <trkpt lat="43.47049" lon="6.78996">
        <ele>190.9</ele>
        <time>2012-12-09T10:15:18.000Z</time>
      </trkpt>
      <trkpt lat="43.47047" lon="6.78993">
        <ele>190.4</ele>
        <time>2012-12-09T10:15:19.000Z</time>
      </trkpt>
      <trkpt lat="43.47044" lon="6.78989">
        <ele>189.4</ele>
        <time>2012-12-09T10:15:20.000Z</time>
      </trkpt>
      <trkpt lat="43.47041" lon="6.78985">
        <ele>188.5</ele>
        <time>2012-12-09T10:15:21.000Z</time>
      </trkpt>
      <trkpt lat="43.47036" lon="6.78983">
        <ele>187.3</ele>
        <time>2012-12-09T10:15:22.000Z</time>
      </trkpt>
      <trkpt lat="43.47032" lon="6.78981">
        <ele>186.6</ele>
        <time>2012-12-09T10:15:23.000Z</time>
      </trkpt>
      <trkpt lat="43.47028" lon="6.7898">
        <ele>186.3</ele>
        <time>2012-12-09T10:15:24.000Z</time>
      </trkpt>
      <trkpt lat="43.47024" lon="6.78978">
        <ele>185.8</ele>
        <time>2012-12-09T10:15:25.000Z</time>
      </trkpt>
      <trkpt lat="43.4702" lon="6.78976">
        <ele>185.8</ele>
        <time>2012-12-09T10:15:26.000Z</time>
      </trkpt>
      <trkpt lat="43.47016" lon="6.78973">
        <ele>186</ele>
        <time>2012-12-09T10:15:27.000Z</time>
      </trkpt>
      <trkpt lat="43.47012" lon="6.7897">
        <ele>185.9</ele>
        <time>2012-12-09T10:15:28.000Z</time>
      </trkpt>
      <trkpt lat="43.47008" lon="6.78967">
        <ele>185.8</ele>
        <time>2012-12-09T10:15:29.000Z</time>
      </trkpt>
      <trkpt lat="43.47005" lon="6.78963">
        <ele>185.9</ele>
        <time>2012-12-09T10:15:30.000Z</time>
      </trkpt>
      <trkpt lat="43.47001" lon="6.78959">
        <ele>185.8</ele>
        <time>2012-12-09T10:15:31.000Z</time>
      </trkpt>
      <trkpt lat="43.46997" lon="6.78955">
        <ele>185.3</ele>
        <time>2012-12-09T10:15:32.000Z</time>
      </trkpt>
      <trkpt lat="43.46991" lon="6.78951">
        <ele>184.5</ele>
        <time>2012-12-09T10:15:33.000Z</time>
      </trkpt>
      <trkpt lat="43.46987" lon="6.78947">
        <ele>183.8</ele>
        <time>2012-12-09T10:15:34.000Z</time>
      </trkpt>
      <trkpt lat="43.46982" lon="6.78944">
        <ele>183</ele>
        <time>2012-12-09T10:15:35.000Z</time>
      </trkpt>
      <trkpt lat="43.46976" lon="6.78941">
        <ele>182</ele>
        <time>2012-12-09T10:15:36.000Z</time>
      </trkpt>
      <trkpt lat="43.46971" lon="6.7894">
        <ele>181.3</ele>
        <time>2012-12-09T10:15:37.000Z</time>
      </trkpt>
      <trkpt lat="43.46967" lon="6.78939">
        <ele>180.6</ele>
        <time>2012-12-09T10:15:38.000Z</time>
      </trkpt>
      <trkpt lat="43.46962" lon="6.78938">
        <ele>180</ele>
        <time>2012-12-09T10:15:39.000Z</time>
      </trkpt>
      <trkpt lat="43.46957" lon="6.78938">
        <ele>179.5</ele>
        <time>2012-12-09T10:15:40.000Z</time>
      </trkpt>
      <trkpt lat="43.46952" lon="6.78939">
        <ele>179</ele>
        <time>2012-12-09T10:15:41.000Z</time>
      </trkpt>
      <trkpt lat="43.46947" lon="6.7894">
        <ele>178.7</ele>
        <time>2012-12-09T10:15:42.000Z</time>
      </trkpt>
      <trkpt lat="43.46943" lon="6.78941">
        <ele>178.4</ele>
        <time>2012-12-09T10:15:43.000Z</time>
      </trkpt>
      <trkpt lat="43.46939" lon="6.78943">
        <ele>178</ele>
        <time>2012-12-09T10:15:44.000Z</time>
      </trkpt>
      <trkpt lat="43.46935" lon="6.78944">
        <ele>177.8</ele>
        <time>2012-12-09T10:15:45.000Z</time>
      </trkpt>
      <trkpt lat="43.46932" lon="6.78946">
        <ele>177.5</ele>
        <time>2012-12-09T10:15:46.000Z</time>
      </trkpt>
      <trkpt lat="43.46929" lon="6.78943">
        <ele>170</ele>
        <time>2012-12-09T10:15:48.000Z</time>
      </trkpt>
      <trkpt lat="43.46912" lon="6.78949">
        <ele>172.6</ele>
        <time>2012-12-09T10:15:50.000Z</time>
      </trkpt>
      <trkpt lat="43.4691" lon="6.78951">
        <ele>171.9</ele>
        <time>2012-12-09T10:15:51.000Z</time>
      </trkpt>
      <trkpt lat="43.46906" lon="6.78954">
        <ele>172.8</ele>
        <time>2012-12-09T10:15:52.000Z</time>
      </trkpt>
      <trkpt lat="43.46903" lon="6.78957">
        <ele>172.8</ele>
        <time>2012-12-09T10:15:53.000Z</time>
      </trkpt>
      <trkpt lat="43.469" lon="6.7896">
        <ele>172.5</ele>
        <time>2012-12-09T10:15:54.000Z</time>
      </trkpt>
      <trkpt lat="43.46898" lon="6.78964">
        <ele>172.1</ele>
        <time>2012-12-09T10:15:55.000Z</time>
      </trkpt>
      <trkpt lat="43.46896" lon="6.78968">
        <ele>172.6</ele>
        <time>2012-12-09T10:15:56.000Z</time>
      </trkpt>
      <trkpt lat="43.46894" lon="6.78971">
        <ele>173</ele>
        <time>2012-12-09T10:15:57.000Z</time>
      </trkpt>
      <trkpt lat="43.46891" lon="6.78976">
        <ele>172.5</ele>
        <time>2012-12-09T10:15:58.000Z</time>
      </trkpt>
      <trkpt lat="43.46889" lon="6.78981">
        <ele>172.2</ele>
        <time>2012-12-09T10:15:59.000Z</time>
      </trkpt>
      <trkpt lat="43.46888" lon="6.78985">
        <ele>172.5</ele>
        <time>2012-12-09T10:16:00.000Z</time>
      </trkpt>
      <trkpt lat="43.46886" lon="6.78989">
        <ele>172.6</ele>
        <time>2012-12-09T10:16:01.000Z</time>
      </trkpt>
      <trkpt lat="43.46884" lon="6.78994">
        <ele>172.5</ele>
        <time>2012-12-09T10:16:02.000Z</time>
      </trkpt>
      <trkpt lat="43.46881" lon="6.79">
        <ele>172.3</ele>
        <time>2012-12-09T10:16:03.000Z</time>
      </trkpt>
      <trkpt lat="43.46878" lon="6.79005">
        <ele>172.1</ele>
        <time>2012-12-09T10:16:04.000Z</time>
      </trkpt>
      <trkpt lat="43.46875" lon="6.79011">
        <ele>171.8</ele>
        <time>2012-12-09T10:16:05.000Z</time>
      </trkpt>
      <trkpt lat="43.46872" lon="6.79017">
        <ele>171.7</ele>
        <time>2012-12-09T10:16:06.000Z</time>
      </trkpt>
      <trkpt lat="43.46869" lon="6.79022">
        <ele>171.6</ele>
        <time>2012-12-09T10:16:07.000Z</time>
      </trkpt>
      <trkpt lat="43.46866" lon="6.79028">
        <ele>171.4</ele>
        <time>2012-12-09T10:16:08.000Z</time>
      </trkpt>
      <trkpt lat="43.46863" lon="6.79034">
        <ele>171.2</ele>
        <time>2012-12-09T10:16:09.000Z</time>
      </trkpt>
      <trkpt lat="43.46861" lon="6.7904">
        <ele>171</ele>
        <time>2012-12-09T10:16:10.000Z</time>
      </trkpt>
      <trkpt lat="43.46859" lon="6.79046">
        <ele>170.8</ele>
        <time>2012-12-09T10:16:11.000Z</time>
      </trkpt>
      <trkpt lat="43.46857" lon="6.79053">
        <ele>170.5</ele>
        <time>2012-12-09T10:16:12.000Z</time>
      </trkpt>
      <trkpt lat="43.46856" lon="6.7906">
        <ele>170.2</ele>
        <time>2012-12-09T10:16:13.000Z</time>
      </trkpt>
      <trkpt lat="43.46856" lon="6.79067">
        <ele>170.1</ele>
        <time>2012-12-09T10:16:14.000Z</time>
      </trkpt>
      <trkpt lat="43.46856" lon="6.79073">
        <ele>170</ele>
        <time>2012-12-09T10:16:15.000Z</time>
      </trkpt>
      <trkpt lat="43.46856" lon="6.7908">
        <ele>169.9</ele>
        <time>2012-12-09T10:16:16.000Z</time>
      </trkpt>
      <trkpt lat="43.46857" lon="6.79086">
        <ele>170</ele>
        <time>2012-12-09T10:16:17.000Z</time>
      </trkpt>
      <trkpt lat="43.46858" lon="6.79092">
        <ele>170.1</ele>
        <time>2012-12-09T10:16:18.000Z</time>
      </trkpt>
      <trkpt lat="43.4686" lon="6.79097">
        <ele>170.1</ele>
        <time>2012-12-09T10:16:19.000Z</time>
      </trkpt>
      <trkpt lat="43.46863" lon="6.79102">
        <ele>170.2</ele>
        <time>2012-12-09T10:16:20.000Z</time>
      </trkpt>
      <trkpt lat="43.46865" lon="6.79107">
        <ele>170.3</ele>
        <time>2012-12-09T10:16:21.000Z</time>
      </trkpt>
      <trkpt lat="43.46868" lon="6.79111">
        <ele>170.3</ele>
        <time>2012-12-09T10:16:22.000Z</time>
      </trkpt>
      <trkpt lat="43.46871" lon="6.79114">
        <ele>170.3</ele>
        <time>2012-12-09T10:16:23.000Z</time>
      </trkpt>
      <trkpt lat="43.46875" lon="6.79118">
        <ele>170.4</ele>
        <time>2012-12-09T10:16:24.000Z</time>
      </trkpt>
      <trkpt lat="43.4688" lon="6.79122">
        <ele>170.5</ele>
        <time>2012-12-09T10:16:25.000Z</time>
      </trkpt>
      <trkpt lat="43.46886" lon="6.79125">
        <ele>170.5</ele>
        <time>2012-12-09T10:16:26.000Z</time>
      </trkpt>
      <trkpt lat="43.46891" lon="6.79129">
        <ele>170.6</ele>
        <time>2012-12-09T10:16:27.000Z</time>
      </trkpt>
      <trkpt lat="43.46897" lon="6.79132">
        <ele>170.6</ele>
        <time>2012-12-09T10:16:28.000Z</time>
      </trkpt>
      <trkpt lat="43.46902" lon="6.79135">
        <ele>170.5</ele>
        <time>2012-12-09T10:16:29.000Z</time>
      </trkpt>
      <trkpt lat="43.46906" lon="6.79138">
        <ele>170.6</ele>
        <time>2012-12-09T10:16:30.000Z</time>
      </trkpt>
      <trkpt lat="43.46909" lon="6.79141">
        <ele>170.5</ele>
        <time>2012-12-09T10:16:31.000Z</time>
      </trkpt>
      <trkpt lat="43.46911" lon="6.79144">
        <ele>170.5</ele>
        <time>2012-12-09T10:16:32.000Z</time>
      </trkpt>
      <trkpt lat="43.46911" lon="6.79147">
        <ele>170.4</ele>
        <time>2012-12-09T10:16:33.000Z</time>
      </trkpt>
      <trkpt lat="43.46909" lon="6.79151">
        <ele>170.3</ele>
        <time>2012-12-09T10:16:34.000Z</time>
      </trkpt>
      <trkpt lat="43.46905" lon="6.79155">
        <ele>170.3</ele>
        <time>2012-12-09T10:16:35.000Z</time>
      </trkpt>
      <trkpt lat="43.469" lon="6.79161">
        <ele>170.3</ele>
        <time>2012-12-09T10:16:36.000Z</time>
      </trkpt>
      <trkpt lat="43.46894" lon="6.79167">
        <ele>170.3</ele>
        <time>2012-12-09T10:16:37.000Z</time>
      </trkpt>
      <trkpt lat="43.46888" lon="6.79173">
        <ele>170</ele>
        <time>2012-12-09T10:16:38.000Z</time>
      </trkpt>
      <trkpt lat="43.46882" lon="6.7918">
        <ele>169.9</ele>
        <time>2012-12-09T10:16:39.000Z</time>
      </trkpt>
      <trkpt lat="43.46875" lon="6.79187">
        <ele>169.7</ele>
        <time>2012-12-09T10:16:40.000Z</time>
      </trkpt>
      <trkpt lat="43.4687" lon="6.79193">
        <ele>169.6</ele>
        <time>2012-12-09T10:16:41.000Z</time>
      </trkpt>
      <trkpt lat="43.46865" lon="6.792">
        <ele>169.4</ele>
        <time>2012-12-09T10:16:42.000Z</time>
      </trkpt>
      <trkpt lat="43.4686" lon="6.79208">
        <ele>169.1</ele>
        <time>2012-12-09T10:16:43.000Z</time>
      </trkpt>
      <trkpt lat="43.46856" lon="6.79215">
        <ele>168.5</ele>
        <time>2012-12-09T10:16:44.000Z</time>
      </trkpt>
      <trkpt lat="43.46854" lon="6.79223">
        <ele>168.2</ele>
        <time>2012-12-09T10:16:45.000Z</time>
      </trkpt>
      <trkpt lat="43.46851" lon="6.7923">
        <ele>168.2</ele>
        <time>2012-12-09T10:16:46.000Z</time>
      </trkpt>
      <trkpt lat="43.46846" lon="6.79242">
        <ele>179.9</ele>
        <time>2012-12-09T10:16:48.000Z</time>
      </trkpt>
      <trkpt lat="43.46839" lon="6.79252">
        <ele>168.1</ele>
        <time>2012-12-09T10:16:49.000Z</time>
      </trkpt>
      <trkpt lat="43.46839" lon="6.79259">
        <ele>162.4</ele>
        <time>2012-12-09T10:16:51.000Z</time>
      </trkpt>
      <trkpt lat="43.4684" lon="6.79264">
        <ele>160.3</ele>
        <time>2012-12-09T10:16:52.000Z</time>
      </trkpt>
      <trkpt lat="43.46839" lon="6.79267">
        <ele>159.3</ele>
        <time>2012-12-09T10:16:53.000Z</time>
      </trkpt>
      <trkpt lat="43.46843" lon="6.79268">
        <ele>162.3</ele>
        <time>2012-12-09T10:17:00.000Z</time>
      </trkpt>
      <trkpt lat="43.46844" lon="6.79269">
        <ele>162.8</ele>
        <time>2012-12-09T10:17:01.000Z</time>
      </trkpt>
      <trkpt lat="43.46847" lon="6.79271">
        <ele>163.3</ele>
        <time>2012-12-09T10:17:04.000Z</time>
      </trkpt>
      <trkpt lat="43.46848" lon="6.79272">
        <ele>164</ele>
        <time>2012-12-09T10:17:05.000Z</time>
      </trkpt>
      <trkpt lat="43.46849" lon="6.79272">
        <ele>164.4</ele>
        <time>2012-12-09T10:17:46.000Z</time>
      </trkpt>
      <trkpt lat="43.46843" lon="6.79281">
        <ele>165.2</ele>
        <time>2012-12-09T10:17:51.000Z</time>
      </trkpt>
      <trkpt lat="43.46846" lon="6.79277">
        <ele>164.5</ele>
        <time>2012-12-09T10:18:02.000Z</time>
      </trkpt>
      <trkpt lat="43.46848" lon="6.79276">
        <ele>164.1</ele>
        <time>2012-12-09T10:18:03.000Z</time>
      </trkpt>
      <trkpt lat="43.46851" lon="6.79274">
        <ele>163.6</ele>
        <time>2012-12-09T10:18:04.000Z</time>
      </trkpt>
      <trkpt lat="43.46853" lon="6.79273">
        <ele>163.6</ele>
        <time>2012-12-09T10:18:05.000Z</time>
      </trkpt>
      <trkpt lat="43.46855" lon="6.79271">
        <ele>163.6</ele>
        <time>2012-12-09T10:18:06.000Z</time>
      </trkpt>
      <trkpt lat="43.46858" lon="6.7927">
        <ele>164</ele>
        <time>2012-12-09T10:18:07.000Z</time>
      </trkpt>
      <trkpt lat="43.46862" lon="6.79268">
        <ele>164.4</ele>
        <time>2012-12-09T10:18:09.000Z</time>
      </trkpt>
      <trkpt lat="43.46863" lon="6.79269">
        <ele>164.4</ele>
        <time>2012-12-09T10:18:10.000Z</time>
      </trkpt>
      <trkpt lat="43.46865" lon="6.7927">
        <ele>164.9</ele>
        <time>2012-12-09T10:18:46.000Z</time>
      </trkpt>
      <trkpt lat="43.46869" lon="6.7926">
        <ele>156.7</ele>
        <time>2012-12-09T10:18:48.000Z</time>
      </trkpt>
      <trkpt lat="43.46868" lon="6.79263">
        <ele>151.7</ele>
        <time>2012-12-09T10:19:13.000Z</time>
      </trkpt>
      <trkpt lat="43.46864" lon="6.79267">
        <ele>164.1</ele>
        <time>2012-12-09T10:19:14.000Z</time>
      </trkpt>
      <trkpt lat="43.46866" lon="6.79269">
        <ele>164.4</ele>
        <time>2012-12-09T10:19:46.000Z</time>
      </trkpt>
      <trkpt lat="43.46872" lon="6.79259">
        <ele>154.7</ele>
        <time>2012-12-09T10:19:50.000Z</time>
      </trkpt>
      <trkpt lat="43.46869" lon="6.79265">
        <ele>158</ele>
        <time>2012-12-09T10:19:51.000Z</time>
      </trkpt>
      <trkpt lat="43.46867" lon="6.79266">
        <ele>163.4</ele>
        <time>2012-12-09T10:22:45.000Z</time>
      </trkpt>
      <trkpt lat="43.46857" lon="6.79269">
        <ele>155.1</ele>
        <time>2012-12-09T10:22:48.000Z</time>
      </trkpt>
      <trkpt lat="43.46858" lon="6.79268">
        <ele>181.8</ele>
        <time>2012-12-09T10:23:49.000Z</time>
      </trkpt>
      <trkpt lat="43.46862" lon="6.79267">
        <ele>177.3</ele>
        <time>2012-12-09T10:23:50.000Z</time>
      </trkpt>
      <trkpt lat="43.46864" lon="6.79273">
        <ele>165.4</ele>
        <time>2012-12-09T10:24:46.000Z</time>
      </trkpt>
      <trkpt lat="43.46859" lon="6.79274">
        <ele>165.2</ele>
        <time>2012-12-09T10:24:51.000Z</time>
      </trkpt>
      <trkpt lat="43.46856" lon="6.7927">
        <ele>163.8</ele>
        <time>2012-12-09T10:24:54.000Z</time>
      </trkpt>
      <trkpt lat="43.46854" lon="6.7927">
        <ele>164</ele>
        <time>2012-12-09T10:24:55.000Z</time>
      </trkpt>
      <trkpt lat="43.46851" lon="6.7927">
        <ele>163.4</ele>
        <time>2012-12-09T10:24:56.000Z</time>
      </trkpt>
      <trkpt lat="43.46848" lon="6.79269">
        <ele>163.4</ele>
        <time>2012-12-09T10:24:57.000Z</time>
      </trkpt>
      <trkpt lat="43.46845" lon="6.79268">
        <ele>162.8</ele>
        <time>2012-12-09T10:24:58.000Z</time>
      </trkpt>
      <trkpt lat="43.46843" lon="6.79266">
        <ele>162.6</ele>
        <time>2012-12-09T10:24:59.000Z</time>
      </trkpt>
      <trkpt lat="43.4684" lon="6.79264">
        <ele>162</ele>
        <time>2012-12-09T10:25:01.000Z</time>
      </trkpt>
      <trkpt lat="43.46838" lon="6.79263">
        <ele>161.8</ele>
        <time>2012-12-09T10:25:02.000Z</time>
      </trkpt>
      <trkpt lat="43.46834" lon="6.7926">
        <ele>161.7</ele>
        <time>2012-12-09T10:25:04.000Z</time>
      </trkpt>
      <trkpt lat="43.46832" lon="6.79259">
        <ele>161.2</ele>
        <time>2012-12-09T10:25:05.000Z</time>
      </trkpt>
      <trkpt lat="43.46829" lon="6.79257">
        <ele>161</ele>
        <time>2012-12-09T10:25:06.000Z</time>
      </trkpt>
      <trkpt lat="43.46827" lon="6.79255">
        <ele>160.9</ele>
        <time>2012-12-09T10:25:07.000Z</time>
      </trkpt>
      <trkpt lat="43.46824" lon="6.79253">
        <ele>161.1</ele>
        <time>2012-12-09T10:25:08.000Z</time>
      </trkpt>
      <trkpt lat="43.46822" lon="6.79251">
        <ele>160.9</ele>
        <time>2012-12-09T10:25:09.000Z</time>
      </trkpt>
      <trkpt lat="43.46819" lon="6.79248">
        <ele>161.1</ele>
        <time>2012-12-09T10:25:10.000Z</time>
      </trkpt>
      <trkpt lat="43.46816" lon="6.79245">
        <ele>161.6</ele>
        <time>2012-12-09T10:25:11.000Z</time>
      </trkpt>
      <trkpt lat="43.46814" lon="6.79241">
        <ele>162.2</ele>
        <time>2012-12-09T10:25:12.000Z</time>
      </trkpt>
      <trkpt lat="43.46812" lon="6.79238">
        <ele>162.7</ele>
        <time>2012-12-09T10:25:13.000Z</time>
      </trkpt>
      <trkpt lat="43.4681" lon="6.79234">
        <ele>162.8</ele>
        <time>2012-12-09T10:25:14.000Z</time>
      </trkpt>
      <trkpt lat="43.46807" lon="6.7923">
        <ele>163.2</ele>
        <time>2012-12-09T10:25:15.000Z</time>
      </trkpt>
      <trkpt lat="43.46805" lon="6.79227">
        <ele>163.7</ele>
        <time>2012-12-09T10:25:16.000Z</time>
      </trkpt>
      <trkpt lat="43.46803" lon="6.79222">
        <ele>164</ele>
        <time>2012-12-09T10:25:17.000Z</time>
      </trkpt>
      <trkpt lat="43.46801" lon="6.79218">
        <ele>164.3</ele>
        <time>2012-12-09T10:25:18.000Z</time>
      </trkpt>
      <trkpt lat="43.46798" lon="6.79213">
        <ele>164.3</ele>
        <time>2012-12-09T10:25:19.000Z</time>
      </trkpt>
      <trkpt lat="43.46796" lon="6.79209">
        <ele>164.5</ele>
        <time>2012-12-09T10:25:20.000Z</time>
      </trkpt>
      <trkpt lat="43.46794" lon="6.79204">
        <ele>164.6</ele>
        <time>2012-12-09T10:25:21.000Z</time>
      </trkpt>
      <trkpt lat="43.46792" lon="6.79199">
        <ele>164.7</ele>
        <time>2012-12-09T10:25:22.000Z</time>
      </trkpt>
      <trkpt lat="43.46789" lon="6.79195">
        <ele>164.9</ele>
        <time>2012-12-09T10:25:23.000Z</time>
      </trkpt>
      <trkpt lat="43.46787" lon="6.7919">
        <ele>165</ele>
        <time>2012-12-09T10:25:24.000Z</time>
      </trkpt>
      <trkpt lat="43.46784" lon="6.79185">
        <ele>164.6</ele>
        <time>2012-12-09T10:25:25.000Z</time>
      </trkpt>
      <trkpt lat="43.46782" lon="6.7918">
        <ele>164.3</ele>
        <time>2012-12-09T10:25:26.000Z</time>
      </trkpt>
      <trkpt lat="43.46779" lon="6.79175">
        <ele>164</ele>
        <time>2012-12-09T10:25:27.000Z</time>
      </trkpt>
      <trkpt lat="43.46776" lon="6.79171">
        <ele>163.6</ele>
        <time>2012-12-09T10:25:28.000Z</time>
      </trkpt>
      <trkpt lat="43.46773" lon="6.79166">
        <ele>162.8</ele>
        <time>2012-12-09T10:25:29.000Z</time>
      </trkpt>
      <trkpt lat="43.46771" lon="6.79161">
        <ele>162.4</ele>
        <time>2012-12-09T10:25:30.000Z</time>
      </trkpt>
      <trkpt lat="43.46768" lon="6.79156">
        <ele>162.5</ele>
        <time>2012-12-09T10:25:31.000Z</time>
      </trkpt>
      <trkpt lat="43.46766" lon="6.79151">
        <ele>162.5</ele>
        <time>2012-12-09T10:25:32.000Z</time>
      </trkpt>
      <trkpt lat="43.46763" lon="6.79145">
        <ele>162.5</ele>
        <time>2012-12-09T10:25:33.000Z</time>
      </trkpt>
      <trkpt lat="43.46761" lon="6.79139">
        <ele>162.2</ele>
        <time>2012-12-09T10:25:34.000Z</time>
      </trkpt>
      <trkpt lat="43.4676" lon="6.79134">
        <ele>162.3</ele>
        <time>2012-12-09T10:25:35.000Z</time>
      </trkpt>
      <trkpt lat="43.46759" lon="6.79128">
        <ele>162.4</ele>
        <time>2012-12-09T10:25:36.000Z</time>
      </trkpt>
      <trkpt lat="43.46758" lon="6.79122">
        <ele>162.4</ele>
        <time>2012-12-09T10:25:37.000Z</time>
      </trkpt>
      <trkpt lat="43.46757" lon="6.79117">
        <ele>162.5</ele>
        <time>2012-12-09T10:25:38.000Z</time>
      </trkpt>
      <trkpt lat="43.46756" lon="6.79111">
        <ele>162.6</ele>
        <time>2012-12-09T10:25:39.000Z</time>
      </trkpt>
      <trkpt lat="43.46754" lon="6.79105">
        <ele>162.7</ele>
        <time>2012-12-09T10:25:40.000Z</time>
      </trkpt>
      <trkpt lat="43.46753" lon="6.79099">
        <ele>162.8</ele>
        <time>2012-12-09T10:25:41.000Z</time>
      </trkpt>
      <trkpt lat="43.46751" lon="6.79094">
        <ele>162.9</ele>
        <time>2012-12-09T10:25:42.000Z</time>
      </trkpt>
      <trkpt lat="43.46749" lon="6.79088">
        <ele>162.9</ele>
        <time>2012-12-09T10:25:43.000Z</time>
      </trkpt>
      <trkpt lat="43.46746" lon="6.79082">
        <ele>162.9</ele>
        <time>2012-12-09T10:25:44.000Z</time>
      </trkpt>
      <trkpt lat="43.46744" lon="6.79077">
        <ele>162.9</ele>
        <time>2012-12-09T10:25:45.000Z</time>
      </trkpt>
      <trkpt lat="43.46742" lon="6.79071">
        <ele>162.5</ele>
        <time>2012-12-09T10:25:46.000Z</time>
      </trkpt>
      <trkpt lat="43.46733" lon="6.79058">
        <ele>129.1</ele>
        <time>2012-12-09T10:25:48.000Z</time>
      </trkpt>
      <trkpt lat="43.46733" lon="6.79043">
        <ele>158.1</ele>
        <time>2012-12-09T10:25:50.000Z</time>
      </trkpt>
      <trkpt lat="43.46727" lon="6.79041">
        <ele>159.7</ele>
        <time>2012-12-09T10:25:51.000Z</time>
      </trkpt>
      <trkpt lat="43.46725" lon="6.79035">
        <ele>157.4</ele>
        <time>2012-12-09T10:25:52.000Z</time>
      </trkpt>
      <trkpt lat="43.46722" lon="6.79029">
        <ele>158.5</ele>
        <time>2012-12-09T10:25:53.000Z</time>
      </trkpt>
      <trkpt lat="43.46719" lon="6.79025">
        <ele>159.2</ele>
        <time>2012-12-09T10:25:54.000Z</time>
      </trkpt>
      <trkpt lat="43.46716" lon="6.79021">
        <ele>159.6</ele>
        <time>2012-12-09T10:25:55.000Z</time>
      </trkpt>
      <trkpt lat="43.46713" lon="6.79017">
        <ele>159.7</ele>
        <time>2012-12-09T10:25:56.000Z</time>
      </trkpt>
      <trkpt lat="43.4671" lon="6.79013">
        <ele>160.3</ele>
        <time>2012-12-09T10:25:57.000Z</time>
      </trkpt>
      <trkpt lat="43.46707" lon="6.7901">
        <ele>160.8</ele>
        <time>2012-12-09T10:25:58.000Z</time>
      </trkpt>
      <trkpt lat="43.46705" lon="6.79006">
        <ele>161.3</ele>
        <time>2012-12-09T10:25:59.000Z</time>
      </trkpt>
      <trkpt lat="43.46702" lon="6.79003">
        <ele>162</ele>
        <time>2012-12-09T10:26:00.000Z</time>
      </trkpt>
      <trkpt lat="43.467" lon="6.79">
        <ele>162.2</ele>
        <time>2012-12-09T10:26:01.000Z</time>
      </trkpt>
      <trkpt lat="43.46697" lon="6.78997">
        <ele>162.4</ele>
        <time>2012-12-09T10:26:02.000Z</time>
      </trkpt>
      <trkpt lat="43.46695" lon="6.78993">
        <ele>162.9</ele>
        <time>2012-12-09T10:26:03.000Z</time>
      </trkpt>
      <trkpt lat="43.46693" lon="6.7899">
        <ele>163</ele>
        <time>2012-12-09T10:26:04.000Z</time>
      </trkpt>
      <trkpt lat="43.46691" lon="6.78986">
        <ele>163.1</ele>
        <time>2012-12-09T10:26:05.000Z</time>
      </trkpt>
      <trkpt lat="43.46689" lon="6.78982">
        <ele>163.3</ele>
        <time>2012-12-09T10:26:06.000Z</time>
      </trkpt>
      <trkpt lat="43.46687" lon="6.78978">
        <ele>163.6</ele>
        <time>2012-12-09T10:26:07.000Z</time>
      </trkpt>
      <trkpt lat="43.46685" lon="6.78974">
        <ele>163.9</ele>
        <time>2012-12-09T10:26:08.000Z</time>
      </trkpt>
      <trkpt lat="43.46683" lon="6.7897">
        <ele>164.1</ele>
        <time>2012-12-09T10:26:09.000Z</time>
      </trkpt>
      <trkpt lat="43.46681" lon="6.78966">
        <ele>164.2</ele>
        <time>2012-12-09T10:26:10.000Z</time>
      </trkpt>
      <trkpt lat="43.46679" lon="6.78962">
        <ele>164.2</ele>
        <time>2012-12-09T10:26:11.000Z</time>
      </trkpt>
      <trkpt lat="43.46677" lon="6.78958">
        <ele>164.5</ele>
        <time>2012-12-09T10:26:12.000Z</time>
      </trkpt>
      <trkpt lat="43.46675" lon="6.78955">
        <ele>164.7</ele>
        <time>2012-12-09T10:26:13.000Z</time>
      </trkpt>
      <trkpt lat="43.46672" lon="6.78951">
        <ele>164.7</ele>
        <time>2012-12-09T10:26:14.000Z</time>
      </trkpt>
      <trkpt lat="43.46669" lon="6.78948">
        <ele>164.7</ele>
        <time>2012-12-09T10:26:15.000Z</time>
      </trkpt>
      <trkpt lat="43.46666" lon="6.78945">
        <ele>164.8</ele>
        <time>2012-12-09T10:26:16.000Z</time>
      </trkpt>
      <trkpt lat="43.46664" lon="6.78943">
        <ele>165</ele>
        <time>2012-12-09T10:26:17.000Z</time>
      </trkpt>
      <trkpt lat="43.46661" lon="6.78941">
        <ele>165.3</ele>
        <time>2012-12-09T10:26:18.000Z</time>
      </trkpt>
      <trkpt lat="43.46658" lon="6.78939">
        <ele>165.4</ele>
        <time>2012-12-09T10:26:19.000Z</time>
      </trkpt>
      <trkpt lat="43.46654" lon="6.78938">
        <ele>165.5</ele>
        <time>2012-12-09T10:26:20.000Z</time>
      </trkpt>
      <trkpt lat="43.46651" lon="6.78937">
        <ele>165.6</ele>
        <time>2012-12-09T10:26:21.000Z</time>
      </trkpt>
      <trkpt lat="43.46648" lon="6.78936">
        <ele>165.4</ele>
        <time>2012-12-09T10:26:22.000Z</time>
      </trkpt>
      <trkpt lat="43.46644" lon="6.78935">
        <ele>165.6</ele>
        <time>2012-12-09T10:26:23.000Z</time>
      </trkpt>
      <trkpt lat="43.46641" lon="6.78934">
        <ele>165.7</ele>
        <time>2012-12-09T10:26:24.000Z</time>
      </trkpt>
      <trkpt lat="43.46637" lon="6.78934">
        <ele>165.8</ele>
        <time>2012-12-09T10:26:25.000Z</time>
      </trkpt>
      <trkpt lat="43.46634" lon="6.78933">
        <ele>165.9</ele>
        <time>2012-12-09T10:26:26.000Z</time>
      </trkpt>
      <trkpt lat="43.4663" lon="6.78933">
        <ele>166.1</ele>
        <time>2012-12-09T10:26:27.000Z</time>
      </trkpt>
      <trkpt lat="43.46627" lon="6.78933">
        <ele>166.4</ele>
        <time>2012-12-09T10:26:28.000Z</time>
      </trkpt>
      <trkpt lat="43.46623" lon="6.78933">
        <ele>166.4</ele>
        <time>2012-12-09T10:26:29.000Z</time>
      </trkpt>
      <trkpt lat="43.46619" lon="6.78933">
        <ele>166.6</ele>
        <time>2012-12-09T10:26:30.000Z</time>
      </trkpt>
      <trkpt lat="43.46616" lon="6.78933">
        <ele>166.6</ele>
        <time>2012-12-09T10:26:31.000Z</time>
      </trkpt>
      <trkpt lat="43.46612" lon="6.78933">
        <ele>166.7</ele>
        <time>2012-12-09T10:26:32.000Z</time>
      </trkpt>
      <trkpt lat="43.46609" lon="6.78932">
        <ele>166.8</ele>
        <time>2012-12-09T10:26:33.000Z</time>
      </trkpt>
      <trkpt lat="43.46605" lon="6.78932">
        <ele>166.8</ele>
        <time>2012-12-09T10:26:34.000Z</time>
      </trkpt>
      <trkpt lat="43.46602" lon="6.78931">
        <ele>166.9</ele>
        <time>2012-12-09T10:26:35.000Z</time>
      </trkpt>
      <trkpt lat="43.46598" lon="6.78931">
        <ele>167.1</ele>
        <time>2012-12-09T10:26:36.000Z</time>
      </trkpt>
      <trkpt lat="43.46595" lon="6.78931">
        <ele>167.3</ele>
        <time>2012-12-09T10:26:37.000Z</time>
      </trkpt>
      <trkpt lat="43.46591" lon="6.78931">
        <ele>167.5</ele>
        <time>2012-12-09T10:26:38.000Z</time>
      </trkpt>
      <trkpt lat="43.46587" lon="6.78932">
        <ele>167.6</ele>
        <time>2012-12-09T10:26:39.000Z</time>
      </trkpt>
      <trkpt lat="43.46584" lon="6.78933">
        <ele>168</ele>
        <time>2012-12-09T10:26:40.000Z</time>
      </trkpt>
      <trkpt lat="43.46581" lon="6.78935">
        <ele>168.1</ele>
        <time>2012-12-09T10:26:41.000Z</time>
      </trkpt>
      <trkpt lat="43.46578" lon="6.78937">
        <ele>168.3</ele>
        <time>2012-12-09T10:26:42.000Z</time>
      </trkpt>
      <trkpt lat="43.46574" lon="6.7894">
        <ele>168.3</ele>
        <time>2012-12-09T10:26:43.000Z</time>
      </trkpt>
      <trkpt lat="43.46572" lon="6.78943">
        <ele>168.4</ele>
        <time>2012-12-09T10:26:44.000Z</time>
      </trkpt>
      <trkpt lat="43.46569" lon="6.78947">
        <ele>168.4</ele>
        <time>2012-12-09T10:26:45.000Z</time>
      </trkpt>
      <trkpt lat="43.46567" lon="6.78951">
        <ele>168.6</ele>
        <time>2012-12-09T10:26:46.000Z</time>
      </trkpt>
      <trkpt lat="43.46557" lon="6.78989">
        <ele>156.7</ele>
        <time>2012-12-09T10:26:48.000Z</time>
      </trkpt>
      <trkpt lat="43.46569" lon="6.78961">
        <ele>182.1</ele>
        <time>2012-12-09T10:26:50.000Z</time>
      </trkpt>
      <trkpt lat="43.46566" lon="6.78968">
        <ele>173.8</ele>
        <time>2012-12-09T10:26:51.000Z</time>
      </trkpt>
      <trkpt lat="43.4656" lon="6.78973">
        <ele>169.6</ele>
        <time>2012-12-09T10:26:52.000Z</time>
      </trkpt>
      <trkpt lat="43.46555" lon="6.78972">
        <ele>168.6</ele>
        <time>2012-12-09T10:26:53.000Z</time>
      </trkpt>
      <trkpt lat="43.46549" lon="6.78971">
        <ele>167.1</ele>
        <time>2012-12-09T10:26:54.000Z</time>
      </trkpt>
      <trkpt lat="43.46545" lon="6.78969">
        <ele>166.5</ele>
        <time>2012-12-09T10:26:55.000Z</time>
      </trkpt>
      <trkpt lat="43.46541" lon="6.78967">
        <ele>166.5</ele>
        <time>2012-12-09T10:26:56.000Z</time>
      </trkpt>
      <trkpt lat="43.46537" lon="6.78964">
        <ele>166.5</ele>
        <time>2012-12-09T10:26:57.000Z</time>
      </trkpt>
      <trkpt lat="43.46534" lon="6.78962">
        <ele>167.1</ele>
        <time>2012-12-09T10:26:58.000Z</time>
      </trkpt>
      <trkpt lat="43.4653" lon="6.78959">
        <ele>167.3</ele>
        <time>2012-12-09T10:26:59.000Z</time>
      </trkpt>
      <trkpt lat="43.46526" lon="6.78956">
        <ele>167.6</ele>
        <time>2012-12-09T10:27:00.000Z</time>
      </trkpt>
      <trkpt lat="43.46523" lon="6.78953">
        <ele>167.8</ele>
        <time>2012-12-09T10:27:01.000Z</time>
      </trkpt>
      <trkpt lat="43.46519" lon="6.78951">
        <ele>168.3</ele>
        <time>2012-12-09T10:27:02.000Z</time>
      </trkpt>
      <trkpt lat="43.46515" lon="6.78949">
        <ele>168.6</ele>
        <time>2012-12-09T10:27:03.000Z</time>
      </trkpt>
      <trkpt lat="43.46511" lon="6.78947">
        <ele>168.8</ele>
        <time>2012-12-09T10:27:04.000Z</time>
      </trkpt>
      <trkpt lat="43.46507" lon="6.78945">
        <ele>168.8</ele>
        <time>2012-12-09T10:27:05.000Z</time>
      </trkpt>
      <trkpt lat="43.46503" lon="6.78943">
        <ele>168.9</ele>
        <time>2012-12-09T10:27:06.000Z</time>
      </trkpt>
      <trkpt lat="43.46499" lon="6.78941">
        <ele>169.2</ele>
        <time>2012-12-09T10:27:07.000Z</time>
      </trkpt>
      <trkpt lat="43.46495" lon="6.78937">
        <ele>169.4</ele>
        <time>2012-12-09T10:27:08.000Z</time>
      </trkpt>
      <trkpt lat="43.46492" lon="6.78934">
        <ele>169.4</ele>
        <time>2012-12-09T10:27:09.000Z</time>
      </trkpt>
      <trkpt lat="43.4649" lon="6.78929">
        <ele>169.6</ele>
        <time>2012-12-09T10:27:10.000Z</time>
      </trkpt>
      <trkpt lat="43.46487" lon="6.78924">
        <ele>169.9</ele>
        <time>2012-12-09T10:27:11.000Z</time>
      </trkpt>
      <trkpt lat="43.46486" lon="6.78919">
        <ele>169.9</ele>
        <time>2012-12-09T10:27:12.000Z</time>
      </trkpt>
      <trkpt lat="43.46484" lon="6.78913">
        <ele>169.7</ele>
        <time>2012-12-09T10:27:13.000Z</time>
      </trkpt>
      <trkpt lat="43.46482" lon="6.78907">
        <ele>169.7</ele>
        <time>2012-12-09T10:27:14.000Z</time>
      </trkpt>
      <trkpt lat="43.4648" lon="6.78901">
        <ele>169.4</ele>
        <time>2012-12-09T10:27:15.000Z</time>
      </trkpt>
      <trkpt lat="43.46478" lon="6.78895">
        <ele>169.4</ele>
        <time>2012-12-09T10:27:16.000Z</time>
      </trkpt>
      <trkpt lat="43.46476" lon="6.78889">
        <ele>169.4</ele>
        <time>2012-12-09T10:27:17.000Z</time>
      </trkpt>
      <trkpt lat="43.46474" lon="6.78883">
        <ele>169.5</ele>
        <time>2012-12-09T10:27:18.000Z</time>
      </trkpt>
      <trkpt lat="43.46472" lon="6.78878">
        <ele>169.6</ele>
        <time>2012-12-09T10:27:19.000Z</time>
      </trkpt>
      <trkpt lat="43.46471" lon="6.78872">
        <ele>169.7</ele>
        <time>2012-12-09T10:27:20.000Z</time>
      </trkpt>
      <trkpt lat="43.46469" lon="6.78865">
        <ele>169.8</ele>
        <time>2012-12-09T10:27:21.000Z</time>
      </trkpt>
      <trkpt lat="43.46467" lon="6.78859">
        <ele>169.9</ele>
        <time>2012-12-09T10:27:22.000Z</time>
      </trkpt>
      <trkpt lat="43.46465" lon="6.78853">
        <ele>169.8</ele>
        <time>2012-12-09T10:27:23.000Z</time>
      </trkpt>
      <trkpt lat="43.46463" lon="6.78846">
        <ele>169.7</ele>
        <time>2012-12-09T10:27:24.000Z</time>
      </trkpt>
      <trkpt lat="43.46461" lon="6.7884">
        <ele>169.6</ele>
        <time>2012-12-09T10:27:25.000Z</time>
      </trkpt>
      <trkpt lat="43.46459" lon="6.78833">
        <ele>169.5</ele>
        <time>2012-12-09T10:27:26.000Z</time>
      </trkpt>
      <trkpt lat="43.46457" lon="6.78827">
        <ele>169.4</ele>
        <time>2012-12-09T10:27:27.000Z</time>
      </trkpt>
      <trkpt lat="43.46455" lon="6.7882">
        <ele>169.3</ele>
        <time>2012-12-09T10:27:28.000Z</time>
      </trkpt>
      <trkpt lat="43.46453" lon="6.78814">
        <ele>169.2</ele>
        <time>2012-12-09T10:27:29.000Z</time>
      </trkpt>
      <trkpt lat="43.46451" lon="6.78808">
        <ele>169.2</ele>
        <time>2012-12-09T10:27:30.000Z</time>
      </trkpt>
      <trkpt lat="43.46449" lon="6.78802">
        <ele>169</ele>
        <time>2012-12-09T10:27:31.000Z</time>
      </trkpt>
      <trkpt lat="43.46446" lon="6.78796">
        <ele>168.8</ele>
        <time>2012-12-09T10:27:32.000Z</time>
      </trkpt>
      <trkpt lat="43.46443" lon="6.78791">
        <ele>168.7</ele>
        <time>2012-12-09T10:27:33.000Z</time>
      </trkpt>
      <trkpt lat="43.4644" lon="6.78785">
        <ele>168.5</ele>
        <time>2012-12-09T10:27:34.000Z</time>
      </trkpt>
      <trkpt lat="43.46437" lon="6.7878">
        <ele>168.4</ele>
        <time>2012-12-09T10:27:35.000Z</time>
      </trkpt>
      <trkpt lat="43.46434" lon="6.78775">
        <ele>168.4</ele>
        <time>2012-12-09T10:27:36.000Z</time>
      </trkpt>
      <trkpt lat="43.4643" lon="6.7877">
        <ele>168.3</ele>
        <time>2012-12-09T10:27:37.000Z</time>
      </trkpt>
      <trkpt lat="43.46426" lon="6.78765">
        <ele>168.3</ele>
        <time>2012-12-09T10:27:38.000Z</time>
      </trkpt>
      <trkpt lat="43.46422" lon="6.7876">
        <ele>168.2</ele>
        <time>2012-12-09T10:27:39.000Z</time>
      </trkpt>
      <trkpt lat="43.46419" lon="6.78756">
        <ele>168.2</ele>
        <time>2012-12-09T10:27:40.000Z</time>
      </trkpt>
      <trkpt lat="43.46415" lon="6.7875">
        <ele>168</ele>
        <time>2012-12-09T10:27:41.000Z</time>
      </trkpt>
      <trkpt lat="43.46412" lon="6.78745">
        <ele>167.8</ele>
        <time>2012-12-09T10:27:42.000Z</time>
      </trkpt>
      <trkpt lat="43.46409" lon="6.78739">
        <ele>167.6</ele>
        <time>2012-12-09T10:27:43.000Z</time>
      </trkpt>
      <trkpt lat="43.46406" lon="6.78734">
        <ele>167.5</ele>
        <time>2012-12-09T10:27:44.000Z</time>
      </trkpt>
      <trkpt lat="43.46403" lon="6.78728">
        <ele>167.5</ele>
        <time>2012-12-09T10:27:45.000Z</time>
      </trkpt>
      <trkpt lat="43.46399" lon="6.78722">
        <ele>167.4</ele>
        <time>2012-12-09T10:27:46.000Z</time>
      </trkpt>
      <trkpt lat="43.46377" lon="6.78699">
        <ele>167.1</ele>
        <time>2012-12-09T10:27:50.000Z</time>
      </trkpt>
      <trkpt lat="43.46379" lon="6.78693">
        <ele>168.1</ele>
        <time>2012-12-09T10:27:51.000Z</time>
      </trkpt>
      <trkpt lat="43.46378" lon="6.78688">
        <ele>164.6</ele>
        <time>2012-12-09T10:27:52.000Z</time>
      </trkpt>
      <trkpt lat="43.46373" lon="6.78685">
        <ele>165</ele>
        <time>2012-12-09T10:27:53.000Z</time>
      </trkpt>
      <trkpt lat="43.46368" lon="6.78681">
        <ele>164.2</ele>
        <time>2012-12-09T10:27:54.000Z</time>
      </trkpt>
      <trkpt lat="43.46364" lon="6.78677">
        <ele>164.5</ele>
        <time>2012-12-09T10:27:55.000Z</time>
      </trkpt>
      <trkpt lat="43.4636" lon="6.78673">
        <ele>164.6</ele>
        <time>2012-12-09T10:27:56.000Z</time>
      </trkpt>
      <trkpt lat="43.46356" lon="6.78669">
        <ele>164.5</ele>
        <time>2012-12-09T10:27:57.000Z</time>
      </trkpt>
      <trkpt lat="43.46352" lon="6.78665">
        <ele>163.9</ele>
        <time>2012-12-09T10:27:58.000Z</time>
      </trkpt>
      <trkpt lat="43.46348" lon="6.78661">
        <ele>163.9</ele>
        <time>2012-12-09T10:27:59.000Z</time>
      </trkpt>
      <trkpt lat="43.46344" lon="6.78658">
        <ele>163.9</ele>
        <time>2012-12-09T10:28:00.000Z</time>
      </trkpt>
      <trkpt lat="43.46339" lon="6.78655">
        <ele>164.1</ele>
        <time>2012-12-09T10:28:01.000Z</time>
      </trkpt>
      <trkpt lat="43.46335" lon="6.78653">
        <ele>163.9</ele>
        <time>2012-12-09T10:28:02.000Z</time>
      </trkpt>
      <trkpt lat="43.46331" lon="6.78651">
        <ele>163.7</ele>
        <time>2012-12-09T10:28:03.000Z</time>
      </trkpt>
      <trkpt lat="43.46327" lon="6.78649">
        <ele>163.7</ele>
        <time>2012-12-09T10:28:04.000Z</time>
      </trkpt>
      <trkpt lat="43.46323" lon="6.78646">
        <ele>163.6</ele>
        <time>2012-12-09T10:28:05.000Z</time>
      </trkpt>
      <trkpt lat="43.46319" lon="6.78643">
        <ele>163.5</ele>
        <time>2012-12-09T10:28:06.000Z</time>
      </trkpt>
      <trkpt lat="43.46316" lon="6.7864">
        <ele>163.5</ele>
        <time>2012-12-09T10:28:07.000Z</time>
      </trkpt>
      <trkpt lat="43.46312" lon="6.78638">
        <ele>163.6</ele>
        <time>2012-12-09T10:28:08.000Z</time>
      </trkpt>
      <trkpt lat="43.46309" lon="6.78635">
        <ele>163.8</ele>
        <time>2012-12-09T10:28:09.000Z</time>
      </trkpt>
      <trkpt lat="43.46305" lon="6.78632">
        <ele>163.3</ele>
        <time>2012-12-09T10:28:10.000Z</time>
      </trkpt>
      <trkpt lat="43.46302" lon="6.78629">
        <ele>162.9</ele>
        <time>2012-12-09T10:28:11.000Z</time>
      </trkpt>
      <trkpt lat="43.46299" lon="6.78627">
        <ele>162.9</ele>
        <time>2012-12-09T10:28:12.000Z</time>
      </trkpt>
      <trkpt lat="43.46295" lon="6.78624">
        <ele>163</ele>
        <time>2012-12-09T10:28:13.000Z</time>
      </trkpt>
      <trkpt lat="43.46292" lon="6.78622">
        <ele>163.3</ele>
        <time>2012-12-09T10:28:14.000Z</time>
      </trkpt>
      <trkpt lat="43.46289" lon="6.78619">
        <ele>163.5</ele>
        <time>2012-12-09T10:28:15.000Z</time>
      </trkpt>
      <trkpt lat="43.46285" lon="6.78617">
        <ele>163.9</ele>
        <time>2012-12-09T10:28:16.000Z</time>
      </trkpt>
      <trkpt lat="43.46282" lon="6.78614">
        <ele>164.6</ele>
        <time>2012-12-09T10:28:17.000Z</time>
      </trkpt>
      <trkpt lat="43.46278" lon="6.78611">
        <ele>165</ele>
        <time>2012-12-09T10:28:18.000Z</time>
      </trkpt>
      <trkpt lat="43.46275" lon="6.78608">
        <ele>165.1</ele>
        <time>2012-12-09T10:28:19.000Z</time>
      </trkpt>
      <trkpt lat="43.46271" lon="6.78605">
        <ele>165.4</ele>
        <time>2012-12-09T10:28:20.000Z</time>
      </trkpt>
      <trkpt lat="43.46268" lon="6.78602">
        <ele>165.7</ele>
        <time>2012-12-09T10:28:21.000Z</time>
      </trkpt>
      <trkpt lat="43.46266" lon="6.78598">
        <ele>166</ele>
        <time>2012-12-09T10:28:22.000Z</time>
      </trkpt>
      <trkpt lat="43.46263" lon="6.78594">
        <ele>166.2</ele>
        <time>2012-12-09T10:28:23.000Z</time>
      </trkpt>
      <trkpt lat="43.4626" lon="6.78589">
        <ele>166.5</ele>
        <time>2012-12-09T10:28:24.000Z</time>
      </trkpt>
      <trkpt lat="43.46258" lon="6.78583">
        <ele>166.5</ele>
        <time>2012-12-09T10:28:25.000Z</time>
      </trkpt>
      <trkpt lat="43.46255" lon="6.78577">
        <ele>166.1</ele>
        <time>2012-12-09T10:28:26.000Z</time>
      </trkpt>
      <trkpt lat="43.46252" lon="6.78571">
        <ele>165.6</ele>
        <time>2012-12-09T10:28:27.000Z</time>
      </trkpt>
      <trkpt lat="43.46249" lon="6.78564">
        <ele>165.5</ele>
        <time>2012-12-09T10:28:28.000Z</time>
      </trkpt>
      <trkpt lat="43.46246" lon="6.78557">
        <ele>165.3</ele>
        <time>2012-12-09T10:28:29.000Z</time>
      </trkpt>
      <trkpt lat="43.46244" lon="6.7855">
        <ele>165</ele>
        <time>2012-12-09T10:28:30.000Z</time>
      </trkpt>
      <trkpt lat="43.4624" lon="6.78543">
        <ele>164.8</ele>
        <time>2012-12-09T10:28:31.000Z</time>
      </trkpt>
      <trkpt lat="43.46237" lon="6.78535">
        <ele>165.2</ele>
        <time>2012-12-09T10:28:32.000Z</time>
      </trkpt>
      <trkpt lat="43.46234" lon="6.78528">
        <ele>165.3</ele>
        <time>2012-12-09T10:28:33.000Z</time>
      </trkpt>
      <trkpt lat="43.4623" lon="6.78522">
        <ele>165</ele>
        <time>2012-12-09T10:28:34.000Z</time>
      </trkpt>
      <trkpt lat="43.46225" lon="6.78516">
        <ele>164.7</ele>
        <time>2012-12-09T10:28:35.000Z</time>
      </trkpt>
      <trkpt lat="43.4622" lon="6.7851">
        <ele>164.2</ele>
        <time>2012-12-09T10:28:36.000Z</time>
      </trkpt>
      <trkpt lat="43.46215" lon="6.78505">
        <ele>163.7</ele>
        <time>2012-12-09T10:28:37.000Z</time>
      </trkpt>
      <trkpt lat="43.46209" lon="6.785">
        <ele>163.1</ele>
        <time>2012-12-09T10:28:38.000Z</time>
      </trkpt>
      <trkpt lat="43.46203" lon="6.78495">
        <ele>162.7</ele>
        <time>2012-12-09T10:28:39.000Z</time>
      </trkpt>
      <trkpt lat="43.46197" lon="6.7849">
        <ele>162.3</ele>
        <time>2012-12-09T10:28:40.000Z</time>
      </trkpt>
      <trkpt lat="43.46191" lon="6.78484">
        <ele>162.4</ele>
        <time>2012-12-09T10:28:41.000Z</time>
      </trkpt>
      <trkpt lat="43.46185" lon="6.78478">
        <ele>162.3</ele>
        <time>2012-12-09T10:28:42.000Z</time>
      </trkpt>
      <trkpt lat="43.4618" lon="6.78472">
        <ele>162.2</ele>
        <time>2012-12-09T10:28:43.000Z</time>
      </trkpt>
      <trkpt lat="43.46174" lon="6.78466">
        <ele>162.1</ele>
        <time>2012-12-09T10:28:44.000Z</time>
      </trkpt>
      <trkpt lat="43.46167" lon="6.7846">
        <ele>161.7</ele>
        <time>2012-12-09T10:28:45.000Z</time>
      </trkpt>
      <trkpt lat="43.46161" lon="6.78454">
        <ele>161.5</ele>
        <time>2012-12-09T10:28:46.000Z</time>
      </trkpt>
      <trkpt lat="43.46106" lon="6.78432">
        <ele>143.3</ele>
        <time>2012-12-09T10:28:51.000Z</time>
      </trkpt>
      <trkpt lat="43.461" lon="6.78429">
        <ele>142.9</ele>
        <time>2012-12-09T10:28:52.000Z</time>
      </trkpt>
      <trkpt lat="43.46094" lon="6.78424">
        <ele>141.6</ele>
        <time>2012-12-09T10:28:54.000Z</time>
      </trkpt>
      <trkpt lat="43.46087" lon="6.78419">
        <ele>144.8</ele>
        <time>2012-12-09T10:28:55.000Z</time>
      </trkpt>
      <trkpt lat="43.4608" lon="6.78415">
        <ele>147.4</ele>
        <time>2012-12-09T10:28:56.000Z</time>
      </trkpt>
      <trkpt lat="43.46073" lon="6.78413">
        <ele>148.1</ele>
        <time>2012-12-09T10:28:57.000Z</time>
      </trkpt>
      <trkpt lat="43.46067" lon="6.7841">
        <ele>148</ele>
        <time>2012-12-09T10:28:58.000Z</time>
      </trkpt>
      <trkpt lat="43.46061" lon="6.78408">
        <ele>148</ele>
        <time>2012-12-09T10:28:59.000Z</time>
      </trkpt>
      <trkpt lat="43.46055" lon="6.78405">
        <ele>148.4</ele>
        <time>2012-12-09T10:29:00.000Z</time>
      </trkpt>
      <trkpt lat="43.4605" lon="6.78403">
        <ele>148.4</ele>
        <time>2012-12-09T10:29:01.000Z</time>
      </trkpt>
      <trkpt lat="43.46045" lon="6.78401">
        <ele>148.6</ele>
        <time>2012-12-09T10:29:02.000Z</time>
      </trkpt>
      <trkpt lat="43.46039" lon="6.78399">
        <ele>148.5</ele>
        <time>2012-12-09T10:29:03.000Z</time>
      </trkpt>
      <trkpt lat="43.46035" lon="6.78395">
        <ele>148.4</ele>
        <time>2012-12-09T10:29:04.000Z</time>
      </trkpt>
      <trkpt lat="43.4603" lon="6.78391">
        <ele>149.9</ele>
        <time>2012-12-09T10:29:05.000Z</time>
      </trkpt>
      <trkpt lat="43.46027" lon="6.78387">
        <ele>150.8</ele>
        <time>2012-12-09T10:29:06.000Z</time>
      </trkpt>
      <trkpt lat="43.46024" lon="6.78383">
        <ele>151.4</ele>
        <time>2012-12-09T10:29:07.000Z</time>
      </trkpt>
      <trkpt lat="43.4602" lon="6.78382">
        <ele>151.7</ele>
        <time>2012-12-09T10:29:08.000Z</time>
      </trkpt>
      <trkpt lat="43.46016" lon="6.7838">
        <ele>151.2</ele>
        <time>2012-12-09T10:29:09.000Z</time>
      </trkpt>
      <trkpt lat="43.46012" lon="6.78379">
        <ele>150.8</ele>
        <time>2012-12-09T10:29:10.000Z</time>
      </trkpt>
      <trkpt lat="43.46009" lon="6.78377">
        <ele>151.1</ele>
        <time>2012-12-09T10:29:11.000Z</time>
      </trkpt>
      <trkpt lat="43.46006" lon="6.78375">
        <ele>151</ele>
        <time>2012-12-09T10:29:12.000Z</time>
      </trkpt>
      <trkpt lat="43.46003" lon="6.78375">
        <ele>150.6</ele>
        <time>2012-12-09T10:29:13.000Z</time>
      </trkpt>
      <trkpt lat="43.46" lon="6.78375">
        <ele>150.6</ele>
        <time>2012-12-09T10:29:14.000Z</time>
      </trkpt>
      <trkpt lat="43.45996" lon="6.78375">
        <ele>150.9</ele>
        <time>2012-12-09T10:29:15.000Z</time>
      </trkpt>
      <trkpt lat="43.45993" lon="6.78374">
        <ele>151.2</ele>
        <time>2012-12-09T10:29:16.000Z</time>
      </trkpt>
      <trkpt lat="43.4599" lon="6.78373">
        <ele>151.3</ele>
        <time>2012-12-09T10:29:17.000Z</time>
      </trkpt>
      <trkpt lat="43.45987" lon="6.78372">
        <ele>151.4</ele>
        <time>2012-12-09T10:29:18.000Z</time>
      </trkpt>
      <trkpt lat="43.45985" lon="6.78372">
        <ele>151</ele>
        <time>2012-12-09T10:29:19.000Z</time>
      </trkpt>
      <trkpt lat="43.45982" lon="6.78371">
        <ele>151</ele>
        <time>2012-12-09T10:29:20.000Z</time>
      </trkpt>
      <trkpt lat="43.4598" lon="6.7837">
        <ele>151.3</ele>
        <time>2012-12-09T10:29:21.000Z</time>
      </trkpt>
      <trkpt lat="43.45977" lon="6.78368">
        <ele>151.5</ele>
        <time>2012-12-09T10:29:22.000Z</time>
      </trkpt>
      <trkpt lat="43.45974" lon="6.78367">
        <ele>151.2</ele>
        <time>2012-12-09T10:29:23.000Z</time>
      </trkpt>
      <trkpt lat="43.45971" lon="6.78366">
        <ele>150.9</ele>
        <time>2012-12-09T10:29:24.000Z</time>
      </trkpt>
      <trkpt lat="43.45968" lon="6.78365">
        <ele>150.6</ele>
        <time>2012-12-09T10:29:25.000Z</time>
      </trkpt>
      <trkpt lat="43.45965" lon="6.78364">
        <ele>150.6</ele>
        <time>2012-12-09T10:29:26.000Z</time>
      </trkpt>
      <trkpt lat="43.45961" lon="6.78362">
        <ele>151</ele>
        <time>2012-12-09T10:29:27.000Z</time>
      </trkpt>
      <trkpt lat="43.45958" lon="6.78361">
        <ele>151</ele>
        <time>2012-12-09T10:29:28.000Z</time>
      </trkpt>
      <trkpt lat="43.45955" lon="6.78359">
        <ele>151.1</ele>
        <time>2012-12-09T10:29:29.000Z</time>
      </trkpt>
      <trkpt lat="43.45952" lon="6.78357">
        <ele>151.3</ele>
        <time>2012-12-09T10:29:30.000Z</time>
      </trkpt>
      <trkpt lat="43.45948" lon="6.78355">
        <ele>151.7</ele>
        <time>2012-12-09T10:29:31.000Z</time>
      </trkpt>
      <trkpt lat="43.45945" lon="6.78354">
        <ele>152.4</ele>
        <time>2012-12-09T10:29:32.000Z</time>
      </trkpt>
      <trkpt lat="43.45942" lon="6.78352">
        <ele>153</ele>
        <time>2012-12-09T10:29:33.000Z</time>
      </trkpt>
      <trkpt lat="43.45938" lon="6.7835">
        <ele>153.4</ele>
        <time>2012-12-09T10:29:34.000Z</time>
      </trkpt>
      <trkpt lat="43.45935" lon="6.78348">
        <ele>153.8</ele>
        <time>2012-12-09T10:29:36.000Z</time>
      </trkpt>
      <trkpt lat="43.45932" lon="6.78347">
        <ele>154.1</ele>
        <time>2012-12-09T10:29:37.000Z</time>
      </trkpt>
      <trkpt lat="43.4593" lon="6.78345">
        <ele>154.5</ele>
        <time>2012-12-09T10:29:38.000Z</time>
      </trkpt>
      <trkpt lat="43.45928" lon="6.78343">
        <ele>154.9</ele>
        <time>2012-12-09T10:29:39.000Z</time>
      </trkpt>
      <trkpt lat="43.45925" lon="6.78343">
        <ele>155.5</ele>
        <time>2012-12-09T10:29:40.000Z</time>
      </trkpt>
      <trkpt lat="43.45921" lon="6.78342">
        <ele>154.9</ele>
        <time>2012-12-09T10:29:41.000Z</time>
      </trkpt>
      <trkpt lat="43.45916" lon="6.78341">
        <ele>154</ele>
        <time>2012-12-09T10:29:42.000Z</time>
      </trkpt>
      <trkpt lat="43.45912" lon="6.78339">
        <ele>153.5</ele>
        <time>2012-12-09T10:29:43.000Z</time>
      </trkpt>
      <trkpt lat="43.45909" lon="6.78338">
        <ele>153.3</ele>
        <time>2012-12-09T10:29:44.000Z</time>
      </trkpt>
      <trkpt lat="43.45905" lon="6.78337">
        <ele>153.1</ele>
        <time>2012-12-09T10:29:45.000Z</time>
      </trkpt>
      <trkpt lat="43.45901" lon="6.78335">
        <ele>152.6</ele>
        <time>2012-12-09T10:29:46.000Z</time>
      </trkpt>
      <trkpt lat="43.45878" lon="6.78329">
        <ele>147.4</ele>
        <time>2012-12-09T10:29:51.000Z</time>
      </trkpt>
      <trkpt lat="43.45874" lon="6.78327">
        <ele>146.5</ele>
        <time>2012-12-09T10:29:52.000Z</time>
      </trkpt>
      <trkpt lat="43.45871" lon="6.78324">
        <ele>148.8</ele>
        <time>2012-12-09T10:29:53.000Z</time>
      </trkpt>
      <trkpt lat="43.45868" lon="6.78321">
        <ele>148</ele>
        <time>2012-12-09T10:29:54.000Z</time>
      </trkpt>
      <trkpt lat="43.45866" lon="6.78318">
        <ele>147.5</ele>
        <time>2012-12-09T10:29:55.000Z</time>
      </trkpt>
      <trkpt lat="43.45864" lon="6.78314">
        <ele>147.6</ele>
        <time>2012-12-09T10:29:56.000Z</time>
      </trkpt>
      <trkpt lat="43.45862" lon="6.78311">
        <ele>147.7</ele>
        <time>2012-12-09T10:29:57.000Z</time>
      </trkpt>
      <trkpt lat="43.4586" lon="6.78307">
        <ele>147.8</ele>
        <time>2012-12-09T10:29:58.000Z</time>
      </trkpt>
      <trkpt lat="43.45858" lon="6.78304">
        <ele>147.3</ele>
        <time>2012-12-09T10:29:59.000Z</time>
      </trkpt>
      <trkpt lat="43.45855" lon="6.78301">
        <ele>146.8</ele>
        <time>2012-12-09T10:30:00.000Z</time>
      </trkpt>
      <trkpt lat="43.45853" lon="6.78299">
        <ele>147</ele>
        <time>2012-12-09T10:30:01.000Z</time>
      </trkpt>
      <trkpt lat="43.4585" lon="6.78296">
        <ele>147.6</ele>
        <time>2012-12-09T10:30:02.000Z</time>
      </trkpt>
      <trkpt lat="43.45847" lon="6.78295">
        <ele>147.3</ele>
        <time>2012-12-09T10:30:03.000Z</time>
      </trkpt>
      <trkpt lat="43.45845" lon="6.78293">
        <ele>147</ele>
        <time>2012-12-09T10:30:04.000Z</time>
      </trkpt>
      <trkpt lat="43.45842" lon="6.78293">
        <ele>147.2</ele>
        <time>2012-12-09T10:30:05.000Z</time>
      </trkpt>
      <trkpt lat="43.45839" lon="6.78292">
        <ele>148.3</ele>
        <time>2012-12-09T10:30:06.000Z</time>
      </trkpt>
      <trkpt lat="43.45836" lon="6.78291">
        <ele>148.9</ele>
        <time>2012-12-09T10:30:07.000Z</time>
      </trkpt>
      <trkpt lat="43.45832" lon="6.7829">
        <ele>149.3</ele>
        <time>2012-12-09T10:30:08.000Z</time>
      </trkpt>
      <trkpt lat="43.45828" lon="6.78289">
        <ele>149.6</ele>
        <time>2012-12-09T10:30:09.000Z</time>
      </trkpt>
      <trkpt lat="43.45823" lon="6.78288">
        <ele>150.3</ele>
        <time>2012-12-09T10:30:10.000Z</time>
      </trkpt>
      <trkpt lat="43.45819" lon="6.78287">
        <ele>150.2</ele>
        <time>2012-12-09T10:30:11.000Z</time>
      </trkpt>
      <trkpt lat="43.45814" lon="6.78286">
        <ele>150.1</ele>
        <time>2012-12-09T10:30:12.000Z</time>
      </trkpt>
      <trkpt lat="43.45809" lon="6.78285">
        <ele>149.7</ele>
        <time>2012-12-09T10:30:13.000Z</time>
      </trkpt>
      <trkpt lat="43.45804" lon="6.78284">
        <ele>149.5</ele>
        <time>2012-12-09T10:30:14.000Z</time>
      </trkpt>
      <trkpt lat="43.45799" lon="6.78282">
        <ele>149.5</ele>
        <time>2012-12-09T10:30:15.000Z</time>
      </trkpt>
      <trkpt lat="43.45793" lon="6.78281">
        <ele>149.6</ele>
        <time>2012-12-09T10:30:16.000Z</time>
      </trkpt>
      <trkpt lat="43.45788" lon="6.78279">
        <ele>150.1</ele>
        <time>2012-12-09T10:30:17.000Z</time>
      </trkpt>
      <trkpt lat="43.45783" lon="6.78276">
        <ele>149.6</ele>
        <time>2012-12-09T10:30:18.000Z</time>
      </trkpt>
      <trkpt lat="43.45778" lon="6.78274">
        <ele>149.6</ele>
        <time>2012-12-09T10:30:19.000Z</time>
      </trkpt>
      <trkpt lat="43.45773" lon="6.78271">
        <ele>149.2</ele>
        <time>2012-12-09T10:30:20.000Z</time>
      </trkpt>
      <trkpt lat="43.45767" lon="6.78268">
        <ele>149.2</ele>
        <time>2012-12-09T10:30:21.000Z</time>
      </trkpt>
      <trkpt lat="43.45763" lon="6.78265">
        <ele>149.2</ele>
        <time>2012-12-09T10:30:22.000Z</time>
      </trkpt>
      <trkpt lat="43.45758" lon="6.78261">
        <ele>149.2</ele>
        <time>2012-12-09T10:30:23.000Z</time>
      </trkpt>
      <trkpt lat="43.45753" lon="6.78258">
        <ele>149.7</ele>
        <time>2012-12-09T10:30:24.000Z</time>
      </trkpt>
      <trkpt lat="43.45748" lon="6.78255">
        <ele>149.7</ele>
        <time>2012-12-09T10:30:25.000Z</time>
      </trkpt>
      <trkpt lat="43.45744" lon="6.78253">
        <ele>149.9</ele>
        <time>2012-12-09T10:30:26.000Z</time>
      </trkpt>
      <trkpt lat="43.4574" lon="6.7825">
        <ele>150.1</ele>
        <time>2012-12-09T10:30:27.000Z</time>
      </trkpt>
      <trkpt lat="43.45735" lon="6.78247">
        <ele>150.1</ele>
        <time>2012-12-09T10:30:28.000Z</time>
      </trkpt>
      <trkpt lat="43.4573" lon="6.78245">
        <ele>150.2</ele>
        <time>2012-12-09T10:30:29.000Z</time>
      </trkpt>
      <trkpt lat="43.45724" lon="6.78243">
        <ele>150.2</ele>
        <time>2012-12-09T10:30:30.000Z</time>
      </trkpt>
      <trkpt lat="43.45719" lon="6.78241">
        <ele>149.8</ele>
        <time>2012-12-09T10:30:31.000Z</time>
      </trkpt>
      <trkpt lat="43.45715" lon="6.78239">
        <ele>149.7</ele>
        <time>2012-12-09T10:30:32.000Z</time>
      </trkpt>
      <trkpt lat="43.45708" lon="6.78236">
        <ele>147.9</ele>
        <time>2012-12-09T10:30:33.000Z</time>
      </trkpt>
      <trkpt lat="43.45703" lon="6.78233">
        <ele>147.4</ele>
        <time>2012-12-09T10:30:34.000Z</time>
      </trkpt>
      <trkpt lat="43.45698" lon="6.78229">
        <ele>147.3</ele>
        <time>2012-12-09T10:30:35.000Z</time>
      </trkpt>
      <trkpt lat="43.45693" lon="6.78225">
        <ele>147.3</ele>
        <time>2012-12-09T10:30:36.000Z</time>
      </trkpt>
      <trkpt lat="43.45689" lon="6.78221">
        <ele>146.8</ele>
        <time>2012-12-09T10:30:37.000Z</time>
      </trkpt>
      <trkpt lat="43.45684" lon="6.78218">
        <ele>146.5</ele>
        <time>2012-12-09T10:30:38.000Z</time>
      </trkpt>
      <trkpt lat="43.4568" lon="6.78215">
        <ele>146.3</ele>
        <time>2012-12-09T10:30:39.000Z</time>
      </trkpt>
      <trkpt lat="43.45676" lon="6.78212">
        <ele>146.6</ele>
        <time>2012-12-09T10:30:40.000Z</time>
      </trkpt>
      <trkpt lat="43.45673" lon="6.7821">
        <ele>147.1</ele>
        <time>2012-12-09T10:30:41.000Z</time>
      </trkpt>
      <trkpt lat="43.4567" lon="6.78206">
        <ele>147.4</ele>
        <time>2012-12-09T10:30:42.000Z</time>
      </trkpt>
      <trkpt lat="43.45667" lon="6.78203">
        <ele>147.5</ele>
        <time>2012-12-09T10:30:43.000Z</time>
      </trkpt>
      <trkpt lat="43.45664" lon="6.78201">
        <ele>147.7</ele>
        <time>2012-12-09T10:30:44.000Z</time>
      </trkpt>
      <trkpt lat="43.45661" lon="6.78199">
        <ele>147.7</ele>
        <time>2012-12-09T10:30:45.000Z</time>
      </trkpt>
      <trkpt lat="43.45658" lon="6.78196">
        <ele>147.6</ele>
        <time>2012-12-09T10:30:46.000Z</time>
      </trkpt>
      <trkpt lat="43.45632" lon="6.78174">
        <ele>123.5</ele>
        <time>2012-12-09T10:30:52.000Z</time>
      </trkpt>
      <trkpt lat="43.45632" lon="6.78168">
        <ele>124.1</ele>
        <time>2012-12-09T10:30:53.000Z</time>
      </trkpt>
      <trkpt lat="43.45634" lon="6.78167">
        <ele>136.6</ele>
        <time>2012-12-09T10:30:54.000Z</time>
      </trkpt>
      <trkpt lat="43.45633" lon="6.78168">
        <ele>140.7</ele>
        <time>2012-12-09T10:30:55.000Z</time>
      </trkpt>
      <trkpt lat="43.45628" lon="6.78164">
        <ele>140.8</ele>
        <time>2012-12-09T10:30:57.000Z</time>
      </trkpt>
      <trkpt lat="43.45627" lon="6.78159">
        <ele>142.1</ele>
        <time>2012-12-09T10:30:58.000Z</time>
      </trkpt>
      <trkpt lat="43.45625" lon="6.78156">
        <ele>143.3</ele>
        <time>2012-12-09T10:30:59.000Z</time>
      </trkpt>
      <trkpt lat="43.45623" lon="6.78154">
        <ele>144.6</ele>
        <time>2012-12-09T10:31:00.000Z</time>
      </trkpt>
      <trkpt lat="43.45621" lon="6.78151">
        <ele>145.6</ele>
        <time>2012-12-09T10:31:01.000Z</time>
      </trkpt>
      <trkpt lat="43.45618" lon="6.78149">
        <ele>146.8</ele>
        <time>2012-12-09T10:31:02.000Z</time>
      </trkpt>
      <trkpt lat="43.45616" lon="6.78146">
        <ele>148.4</ele>
        <time>2012-12-09T10:31:03.000Z</time>
      </trkpt>
      <trkpt lat="43.45614" lon="6.78143">
        <ele>149.4</ele>
        <time>2012-12-09T10:31:04.000Z</time>
      </trkpt>
      <trkpt lat="43.45612" lon="6.7814">
        <ele>150.5</ele>
        <time>2012-12-09T10:31:05.000Z</time>
      </trkpt>
      <trkpt lat="43.45609" lon="6.78136">
        <ele>151.2</ele>
        <time>2012-12-09T10:31:06.000Z</time>
      </trkpt>
      <trkpt lat="43.45608" lon="6.78131">
        <ele>151.7</ele>
        <time>2012-12-09T10:31:07.000Z</time>
      </trkpt>
      <trkpt lat="43.45606" lon="6.78127">
        <ele>152.7</ele>
        <time>2012-12-09T10:31:08.000Z</time>
      </trkpt>
      <trkpt lat="43.45604" lon="6.78122">
        <ele>153.4</ele>
        <time>2012-12-09T10:31:09.000Z</time>
      </trkpt>
      <trkpt lat="43.45601" lon="6.78118">
        <ele>153.5</ele>
        <time>2012-12-09T10:31:10.000Z</time>
      </trkpt>
      <trkpt lat="43.45599" lon="6.78113">
        <ele>153.6</ele>
        <time>2012-12-09T10:31:11.000Z</time>
      </trkpt>
      <trkpt lat="43.45597" lon="6.78108">
        <ele>154.2</ele>
        <time>2012-12-09T10:31:12.000Z</time>
      </trkpt>
      <trkpt lat="43.45595" lon="6.78102">
        <ele>153</ele>
        <time>2012-12-09T10:31:13.000Z</time>
      </trkpt>
      <trkpt lat="43.45593" lon="6.78096">
        <ele>151.7</ele>
        <time>2012-12-09T10:31:14.000Z</time>
      </trkpt>
      <trkpt lat="43.4559" lon="6.7809">
        <ele>151.5</ele>
        <time>2012-12-09T10:31:15.000Z</time>
      </trkpt>
      <trkpt lat="43.45588" lon="6.78086">
        <ele>151.2</ele>
        <time>2012-12-09T10:31:16.000Z</time>
      </trkpt>
      <trkpt lat="43.45586" lon="6.78081">
        <ele>150.7</ele>
        <time>2012-12-09T10:31:17.000Z</time>
      </trkpt>
      <trkpt lat="43.45583" lon="6.78076">
        <ele>150.9</ele>
        <time>2012-12-09T10:31:18.000Z</time>
      </trkpt>
      <trkpt lat="43.45581" lon="6.7807">
        <ele>150.1</ele>
        <time>2012-12-09T10:31:19.000Z</time>
      </trkpt>
      <trkpt lat="43.45579" lon="6.78065">
        <ele>149.8</ele>
        <time>2012-12-09T10:31:20.000Z</time>
      </trkpt>
      <trkpt lat="43.45577" lon="6.78059">
        <ele>149.5</ele>
        <time>2012-12-09T10:31:21.000Z</time>
      </trkpt>
      <trkpt lat="43.45574" lon="6.78053">
        <ele>149.4</ele>
        <time>2012-12-09T10:31:22.000Z</time>
      </trkpt>
      <trkpt lat="43.45572" lon="6.78048">
        <ele>149.2</ele>
        <time>2012-12-09T10:31:23.000Z</time>
      </trkpt>
      <trkpt lat="43.4557" lon="6.78042">
        <ele>149.1</ele>
        <time>2012-12-09T10:31:24.000Z</time>
      </trkpt>
      <trkpt lat="43.45568" lon="6.78037">
        <ele>149.3</ele>
        <time>2012-12-09T10:31:25.000Z</time>
      </trkpt>
      <trkpt lat="43.45566" lon="6.78031">
        <ele>149.5</ele>
        <time>2012-12-09T10:31:26.000Z</time>
      </trkpt>
      <trkpt lat="43.45564" lon="6.78026">
        <ele>149.3</ele>
        <time>2012-12-09T10:31:27.000Z</time>
      </trkpt>
      <trkpt lat="43.45563" lon="6.78019">
        <ele>148.8</ele>
        <time>2012-12-09T10:31:28.000Z</time>
      </trkpt>
      <trkpt lat="43.45561" lon="6.78013">
        <ele>147.2</ele>
        <time>2012-12-09T10:31:29.000Z</time>
      </trkpt>
      <trkpt lat="43.4556" lon="6.78006">
        <ele>146.1</ele>
        <time>2012-12-09T10:31:30.000Z</time>
      </trkpt>
      <trkpt lat="43.45559" lon="6.78">
        <ele>145</ele>
        <time>2012-12-09T10:31:31.000Z</time>
      </trkpt>
      <trkpt lat="43.45557" lon="6.77993">
        <ele>143.9</ele>
        <time>2012-12-09T10:31:32.000Z</time>
      </trkpt>
      <trkpt lat="43.45556" lon="6.77987">
        <ele>142.9</ele>
        <time>2012-12-09T10:31:33.000Z</time>
      </trkpt>
      <trkpt lat="43.45556" lon="6.7798">
        <ele>142.5</ele>
        <time>2012-12-09T10:31:34.000Z</time>
      </trkpt>
      <trkpt lat="43.45556" lon="6.77973">
        <ele>142.2</ele>
        <time>2012-12-09T10:31:35.000Z</time>
      </trkpt>
      <trkpt lat="43.45556" lon="6.77965">
        <ele>141.6</ele>
        <time>2012-12-09T10:31:36.000Z</time>
      </trkpt>
      <trkpt lat="43.45556" lon="6.77958">
        <ele>140.8</ele>
        <time>2012-12-09T10:31:37.000Z</time>
      </trkpt>
      <trkpt lat="43.45557" lon="6.7795">
        <ele>140.4</ele>
        <time>2012-12-09T10:31:38.000Z</time>
      </trkpt>
      <trkpt lat="43.45557" lon="6.77943">
        <ele>140</ele>
        <time>2012-12-09T10:31:39.000Z</time>
      </trkpt>
      <trkpt lat="43.45557" lon="6.77937">
        <ele>139.8</ele>
        <time>2012-12-09T10:31:40.000Z</time>
      </trkpt>
      <trkpt lat="43.45557" lon="6.7793">
        <ele>139.4</ele>
        <time>2012-12-09T10:31:41.000Z</time>
      </trkpt>
      <trkpt lat="43.45556" lon="6.77923">
        <ele>138.8</ele>
        <time>2012-12-09T10:31:42.000Z</time>
      </trkpt>
      <trkpt lat="43.45556" lon="6.77916">
        <ele>138.3</ele>
        <time>2012-12-09T10:31:43.000Z</time>
      </trkpt>
      <trkpt lat="43.45556" lon="6.77908">
        <ele>137.9</ele>
        <time>2012-12-09T10:31:44.000Z</time>
      </trkpt>
      <trkpt lat="43.45557" lon="6.779">
        <ele>137.5</ele>
        <time>2012-12-09T10:31:45.000Z</time>
      </trkpt>
      <trkpt lat="43.45558" lon="6.77892">
        <ele>137.5</ele>
        <time>2012-12-09T10:31:46.000Z</time>
      </trkpt>
      <trkpt lat="43.45568" lon="6.77863">
        <ele>120.2</ele>
        <time>2012-12-09T10:31:52.000Z</time>
      </trkpt>
      <trkpt lat="43.45568" lon="6.77862">
        <ele>134.9</ele>
        <time>2012-12-09T10:31:54.000Z</time>
      </trkpt>
      <trkpt lat="43.4557" lon="6.77856">
        <ele>134.8</ele>
        <time>2012-12-09T10:31:55.000Z</time>
      </trkpt>
      <trkpt lat="43.45569" lon="6.77853">
        <ele>136.2</ele>
        <time>2012-12-09T10:31:56.000Z</time>
      </trkpt>
      <trkpt lat="43.45567" lon="6.77849">
        <ele>136.1</ele>
        <time>2012-12-09T10:31:57.000Z</time>
      </trkpt>
      <trkpt lat="43.45567" lon="6.77846">
        <ele>136.4</ele>
        <time>2012-12-09T10:31:58.000Z</time>
      </trkpt>
      <trkpt lat="43.45568" lon="6.77843">
        <ele>136.1</ele>
        <time>2012-12-09T10:31:59.000Z</time>
      </trkpt>
      <trkpt lat="43.45568" lon="6.77838">
        <ele>135.8</ele>
        <time>2012-12-09T10:32:00.000Z</time>
      </trkpt>
      <trkpt lat="43.45569" lon="6.77831">
        <ele>134.5</ele>
        <time>2012-12-09T10:32:01.000Z</time>
      </trkpt>
      <trkpt lat="43.45571" lon="6.77823">
        <ele>133.8</ele>
        <time>2012-12-09T10:32:02.000Z</time>
      </trkpt>
      <trkpt lat="43.45572" lon="6.77815">
        <ele>133.1</ele>
        <time>2012-12-09T10:32:03.000Z</time>
      </trkpt>
      <trkpt lat="43.45573" lon="6.77808">
        <ele>132.6</ele>
        <time>2012-12-09T10:32:04.000Z</time>
      </trkpt>
      <trkpt lat="43.45574" lon="6.778">
        <ele>133</ele>
        <time>2012-12-09T10:32:05.000Z</time>
      </trkpt>
      <trkpt lat="43.45575" lon="6.77792">
        <ele>132.6</ele>
        <time>2012-12-09T10:32:06.000Z</time>
      </trkpt>
      <trkpt lat="43.45575" lon="6.77784">
        <ele>132.7</ele>
        <time>2012-12-09T10:32:07.000Z</time>
      </trkpt>
      <trkpt lat="43.45575" lon="6.77777">
        <ele>133.3</ele>
        <time>2012-12-09T10:32:08.000Z</time>
      </trkpt>
      <trkpt lat="43.45575" lon="6.77771">
        <ele>133.2</ele>
        <time>2012-12-09T10:32:09.000Z</time>
      </trkpt>
      <trkpt lat="43.45575" lon="6.77765">
        <ele>133</ele>
        <time>2012-12-09T10:32:10.000Z</time>
      </trkpt>
      <trkpt lat="43.45574" lon="6.77759">
        <ele>132.7</ele>
        <time>2012-12-09T10:32:11.000Z</time>
      </trkpt>
      <trkpt lat="43.45572" lon="6.77753">
        <ele>132.4</ele>
        <time>2012-12-09T10:32:12.000Z</time>
      </trkpt>
      <trkpt lat="43.4557" lon="6.77749">
        <ele>132.3</ele>
        <time>2012-12-09T10:32:13.000Z</time>
      </trkpt>
      <trkpt lat="43.45568" lon="6.77744">
        <ele>132.6</ele>
        <time>2012-12-09T10:32:14.000Z</time>
      </trkpt>
      <trkpt lat="43.45566" lon="6.7774">
        <ele>132.2</ele>
        <time>2012-12-09T10:32:15.000Z</time>
      </trkpt>
      <trkpt lat="43.45564" lon="6.77737">
        <ele>132</ele>
        <time>2012-12-09T10:32:16.000Z</time>
      </trkpt>
      <trkpt lat="43.45564" lon="6.77732">
        <ele>131.6</ele>
        <time>2012-12-09T10:32:19.000Z</time>
      </trkpt>
      <trkpt lat="43.45565" lon="6.7773">
        <ele>130</ele>
        <time>2012-12-09T10:32:20.000Z</time>
      </trkpt>
      <trkpt lat="43.45565" lon="6.77735">
        <ele>128.3</ele>
        <time>2012-12-09T10:32:26.000Z</time>
      </trkpt>
      <trkpt lat="43.45566" lon="6.77737">
        <ele>128.3</ele>
        <time>2012-12-09T10:32:27.000Z</time>
      </trkpt>
      <trkpt lat="43.45568" lon="6.77741">
        <ele>127.9</ele>
        <time>2012-12-09T10:32:29.000Z</time>
      </trkpt>
      <trkpt lat="43.45569" lon="6.77742">
        <ele>127.8</ele>
        <time>2012-12-09T10:32:30.000Z</time>
      </trkpt>
      <trkpt lat="43.45573" lon="6.77744">
        <ele>127.2</ele>
        <time>2012-12-09T10:32:33.000Z</time>
      </trkpt>
      <trkpt lat="43.45573" lon="6.77745">
        <ele>126.9</ele>
        <time>2012-12-09T10:32:34.000Z</time>
      </trkpt>
      <trkpt lat="43.45571" lon="6.77741">
        <ele>128.5</ele>
        <time>2012-12-09T10:32:41.000Z</time>
      </trkpt>
      <trkpt lat="43.4557" lon="6.77738">
        <ele>128.9</ele>
        <time>2012-12-09T10:32:42.000Z</time>
      </trkpt>
      <trkpt lat="43.45569" lon="6.77734">
        <ele>129.1</ele>
        <time>2012-12-09T10:32:43.000Z</time>
      </trkpt>
      <trkpt lat="43.45568" lon="6.77731">
        <ele>129.2</ele>
        <time>2012-12-09T10:32:44.000Z</time>
      </trkpt>
      <trkpt lat="43.45566" lon="6.77727">
        <ele>129.3</ele>
        <time>2012-12-09T10:32:45.000Z</time>
      </trkpt>
      <trkpt lat="43.45565" lon="6.77724">
        <ele>129.4</ele>
        <time>2012-12-09T10:32:46.000Z</time>
      </trkpt>
      <trkpt lat="43.45545" lon="6.77705">
        <ele>136.6</ele>
        <time>2012-12-09T10:32:51.000Z</time>
      </trkpt>
      <trkpt lat="43.45541" lon="6.77705">
        <ele>124.4</ele>
        <time>2012-12-09T10:32:53.000Z</time>
      </trkpt>
      <trkpt lat="43.45536" lon="6.77698">
        <ele>129.1</ele>
        <time>2012-12-09T10:32:54.000Z</time>
      </trkpt>
      <trkpt lat="43.45539" lon="6.77691">
        <ele>129.2</ele>
        <time>2012-12-09T10:32:55.000Z</time>
      </trkpt>
      <trkpt lat="43.4554" lon="6.77683">
        <ele>128.9</ele>
        <time>2012-12-09T10:32:56.000Z</time>
      </trkpt>
      <trkpt lat="43.45543" lon="6.77677">
        <ele>126.6</ele>
        <time>2012-12-09T10:32:57.000Z</time>
      </trkpt>
      <trkpt lat="43.45546" lon="6.77671">
        <ele>125.2</ele>
        <time>2012-12-09T10:32:58.000Z</time>
      </trkpt>
      <trkpt lat="43.45549" lon="6.77665">
        <ele>123.9</ele>
        <time>2012-12-09T10:32:59.000Z</time>
      </trkpt>
      <trkpt lat="43.45553" lon="6.77659">
        <ele>122.9</ele>
        <time>2012-12-09T10:33:00.000Z</time>
      </trkpt>
      <trkpt lat="43.45556" lon="6.77654">
        <ele>122.3</ele>
        <time>2012-12-09T10:33:01.000Z</time>
      </trkpt>
      <trkpt lat="43.45561" lon="6.77649">
        <ele>122.1</ele>
        <time>2012-12-09T10:33:02.000Z</time>
      </trkpt>
      <trkpt lat="43.45565" lon="6.77643">
        <ele>121.3</ele>
        <time>2012-12-09T10:33:03.000Z</time>
      </trkpt>
      <trkpt lat="43.45569" lon="6.77636">
        <ele>120.1</ele>
        <time>2012-12-09T10:33:04.000Z</time>
      </trkpt>
      <trkpt lat="43.45573" lon="6.77629">
        <ele>119</ele>
        <time>2012-12-09T10:33:05.000Z</time>
      </trkpt>
      <trkpt lat="43.45577" lon="6.77621">
        <ele>118.4</ele>
        <time>2012-12-09T10:33:06.000Z</time>
      </trkpt>
      <trkpt lat="43.45581" lon="6.77614">
        <ele>118.3</ele>
        <time>2012-12-09T10:33:07.000Z</time>
      </trkpt>
      <trkpt lat="43.45584" lon="6.77608">
        <ele>118.2</ele>
        <time>2012-12-09T10:33:08.000Z</time>
      </trkpt>
      <trkpt lat="43.45587" lon="6.77601">
        <ele>117.8</ele>
        <time>2012-12-09T10:33:09.000Z</time>
      </trkpt>
      <trkpt lat="43.4559" lon="6.77594">
        <ele>117.4</ele>
        <time>2012-12-09T10:33:10.000Z</time>
      </trkpt>
      <trkpt lat="43.45593" lon="6.77587">
        <ele>116.9</ele>
        <time>2012-12-09T10:33:11.000Z</time>
      </trkpt>
      <trkpt lat="43.45597" lon="6.7758">
        <ele>117.5</ele>
        <time>2012-12-09T10:33:12.000Z</time>
      </trkpt>
      <trkpt lat="43.45599" lon="6.77573">
        <ele>118.2</ele>
        <time>2012-12-09T10:33:13.000Z</time>
      </trkpt>
      <trkpt lat="43.45599" lon="6.77566">
        <ele>119.4</ele>
        <time>2012-12-09T10:33:14.000Z</time>
      </trkpt>
      <trkpt lat="43.45598" lon="6.77559">
        <ele>120.8</ele>
        <time>2012-12-09T10:33:15.000Z</time>
      </trkpt>
      <trkpt lat="43.45597" lon="6.77551">
        <ele>120.9</ele>
        <time>2012-12-09T10:33:16.000Z</time>
      </trkpt>
      <trkpt lat="43.45596" lon="6.77546">
        <ele>121.4</ele>
        <time>2012-12-09T10:33:17.000Z</time>
      </trkpt>
      <trkpt lat="43.45594" lon="6.77542">
        <ele>122.2</ele>
        <time>2012-12-09T10:33:18.000Z</time>
      </trkpt>
      <trkpt lat="43.45592" lon="6.77536">
        <ele>121.6</ele>
        <time>2012-12-09T10:33:19.000Z</time>
      </trkpt>
      <trkpt lat="43.4559" lon="6.77531">
        <ele>121</ele>
        <time>2012-12-09T10:33:20.000Z</time>
      </trkpt>
      <trkpt lat="43.45588" lon="6.77526">
        <ele>120.3</ele>
        <time>2012-12-09T10:33:21.000Z</time>
      </trkpt>
      <trkpt lat="43.45586" lon="6.77522">
        <ele>120.4</ele>
        <time>2012-12-09T10:33:22.000Z</time>
      </trkpt>
      <trkpt lat="43.45584" lon="6.77517">
        <ele>120.3</ele>
        <time>2012-12-09T10:33:23.000Z</time>
      </trkpt>
      <trkpt lat="43.45582" lon="6.77512">
        <ele>120</ele>
        <time>2012-12-09T10:33:24.000Z</time>
      </trkpt>
      <trkpt lat="43.4558" lon="6.77507">
        <ele>119.5</ele>
        <time>2012-12-09T10:33:25.000Z</time>
      </trkpt>
      <trkpt lat="43.45578" lon="6.77502">
        <ele>119</ele>
        <time>2012-12-09T10:33:26.000Z</time>
      </trkpt>
      <trkpt lat="43.45576" lon="6.77498">
        <ele>119</ele>
        <time>2012-12-09T10:33:27.000Z</time>
      </trkpt>
      <trkpt lat="43.45573" lon="6.77493">
        <ele>118.9</ele>
        <time>2012-12-09T10:33:28.000Z</time>
      </trkpt>
      <trkpt lat="43.4557" lon="6.77489">
        <ele>119.5</ele>
        <time>2012-12-09T10:33:29.000Z</time>
      </trkpt>
      <trkpt lat="43.45567" lon="6.77487">
        <ele>119</ele>
        <time>2012-12-09T10:33:30.000Z</time>
      </trkpt>
      <trkpt lat="43.45563" lon="6.77483">
        <ele>119.6</ele>
        <time>2012-12-09T10:33:31.000Z</time>
      </trkpt>
      <trkpt lat="43.4556" lon="6.77479">
        <ele>119</ele>
        <time>2012-12-09T10:33:32.000Z</time>
      </trkpt>
      <trkpt lat="43.45557" lon="6.77476">
        <ele>118.9</ele>
        <time>2012-12-09T10:33:33.000Z</time>
      </trkpt>
      <trkpt lat="43.45554" lon="6.77474">
        <ele>119.1</ele>
        <time>2012-12-09T10:33:34.000Z</time>
      </trkpt>
      <trkpt lat="43.4555" lon="6.77471">
        <ele>119.3</ele>
        <time>2012-12-09T10:33:35.000Z</time>
      </trkpt>
      <trkpt lat="43.45547" lon="6.77468">
        <ele>119.3</ele>
        <time>2012-12-09T10:33:36.000Z</time>
      </trkpt>
      <trkpt lat="43.45543" lon="6.77466">
        <ele>119.2</ele>
        <time>2012-12-09T10:33:37.000Z</time>
      </trkpt>
      <trkpt lat="43.4554" lon="6.77464">
        <ele>119.3</ele>
        <time>2012-12-09T10:33:38.000Z</time>
      </trkpt>
      <trkpt lat="43.45536" lon="6.77461">
        <ele>119.5</ele>
        <time>2012-12-09T10:33:39.000Z</time>
      </trkpt>
      <trkpt lat="43.45534" lon="6.77458">
        <ele>119.5</ele>
        <time>2012-12-09T10:33:40.000Z</time>
      </trkpt>
      <trkpt lat="43.45531" lon="6.77455">
        <ele>119.6</ele>
        <time>2012-12-09T10:33:41.000Z</time>
      </trkpt>
      <trkpt lat="43.45528" lon="6.77452">
        <ele>119.8</ele>
        <time>2012-12-09T10:33:42.000Z</time>
      </trkpt>
      <trkpt lat="43.45525" lon="6.77449">
        <ele>120.1</ele>
        <time>2012-12-09T10:33:43.000Z</time>
      </trkpt>
      <trkpt lat="43.45522" lon="6.77446">
        <ele>120.3</ele>
        <time>2012-12-09T10:33:44.000Z</time>
      </trkpt>
      <trkpt lat="43.45519" lon="6.77443">
        <ele>120.4</ele>
        <time>2012-12-09T10:33:45.000Z</time>
      </trkpt>
      <trkpt lat="43.45516" lon="6.7744">
        <ele>120.3</ele>
        <time>2012-12-09T10:33:46.000Z</time>
      </trkpt>
      <trkpt lat="43.45491" lon="6.77418">
        <ele>109.4</ele>
        <time>2012-12-09T10:33:51.000Z</time>
      </trkpt>
      <trkpt lat="43.4549" lon="6.77415">
        <ele>125.7</ele>
        <time>2012-12-09T10:33:54.000Z</time>
      </trkpt>
      <trkpt lat="43.45487" lon="6.77413">
        <ele>125.5</ele>
        <time>2012-12-09T10:33:55.000Z</time>
      </trkpt>
      <trkpt lat="43.45484" lon="6.77411">
        <ele>126</ele>
        <time>2012-12-09T10:33:56.000Z</time>
      </trkpt>
      <trkpt lat="43.45481" lon="6.7741">
        <ele>126.2</ele>
        <time>2012-12-09T10:33:57.000Z</time>
      </trkpt>
      <trkpt lat="43.45478" lon="6.77408">
        <ele>126.9</ele>
        <time>2012-12-09T10:33:58.000Z</time>
      </trkpt>
      <trkpt lat="43.45476" lon="6.77405">
        <ele>125.8</ele>
        <time>2012-12-09T10:33:59.000Z</time>
      </trkpt>
      <trkpt lat="43.45473" lon="6.77401">
        <ele>124.4</ele>
        <time>2012-12-09T10:34:00.000Z</time>
      </trkpt>
      <trkpt lat="43.45471" lon="6.77397">
        <ele>123.8</ele>
        <time>2012-12-09T10:34:01.000Z</time>
      </trkpt>
      <trkpt lat="43.45468" lon="6.77395">
        <ele>124.4</ele>
        <time>2012-12-09T10:34:02.000Z</time>
      </trkpt>
      <trkpt lat="43.45465" lon="6.77392">
        <ele>124.4</ele>
        <time>2012-12-09T10:34:03.000Z</time>
      </trkpt>
      <trkpt lat="43.45462" lon="6.77389">
        <ele>124.5</ele>
        <time>2012-12-09T10:34:04.000Z</time>
      </trkpt>
      <trkpt lat="43.4546" lon="6.77386">
        <ele>124.6</ele>
        <time>2012-12-09T10:34:05.000Z</time>
      </trkpt>
      <trkpt lat="43.45458" lon="6.77383">
        <ele>124.5</ele>
        <time>2012-12-09T10:34:06.000Z</time>
      </trkpt>
      <trkpt lat="43.45457" lon="6.7738">
        <ele>124.5</ele>
        <time>2012-12-09T10:34:07.000Z</time>
      </trkpt>
      <trkpt lat="43.45455" lon="6.77377">
        <ele>124.8</ele>
        <time>2012-12-09T10:34:08.000Z</time>
      </trkpt>
      <trkpt lat="43.45453" lon="6.77373">
        <ele>124.5</ele>
        <time>2012-12-09T10:34:09.000Z</time>
      </trkpt>
      <trkpt lat="43.4545" lon="6.77369">
        <ele>124.1</ele>
        <time>2012-12-09T10:34:10.000Z</time>
      </trkpt>
      <trkpt lat="43.45448" lon="6.77366">
        <ele>123.8</ele>
        <time>2012-12-09T10:34:11.000Z</time>
      </trkpt>
      <trkpt lat="43.45446" lon="6.77362">
        <ele>122.9</ele>
        <time>2012-12-09T10:34:12.000Z</time>
      </trkpt>
      <trkpt lat="43.45443" lon="6.77358">
        <ele>121.3</ele>
        <time>2012-12-09T10:34:13.000Z</time>
      </trkpt>
      <trkpt lat="43.4544" lon="6.77356">
        <ele>120.4</ele>
        <time>2012-12-09T10:34:14.000Z</time>
      </trkpt>
      <trkpt lat="43.45437" lon="6.77353">
        <ele>119.7</ele>
        <time>2012-12-09T10:34:15.000Z</time>
      </trkpt>
      <trkpt lat="43.45434" lon="6.77351">
        <ele>119.6</ele>
        <time>2012-12-09T10:34:16.000Z</time>
      </trkpt>
      <trkpt lat="43.45431" lon="6.77348">
        <ele>119.2</ele>
        <time>2012-12-09T10:34:17.000Z</time>
      </trkpt>
      <trkpt lat="43.45426" lon="6.77345">
        <ele>119.4</ele>
        <time>2012-12-09T10:34:18.000Z</time>
      </trkpt>
      <trkpt lat="43.45423" lon="6.77342">
        <ele>119.6</ele>
        <time>2012-12-09T10:34:19.000Z</time>
      </trkpt>
      <trkpt lat="43.45419" lon="6.77339">
        <ele>119.3</ele>
        <time>2012-12-09T10:34:20.000Z</time>
      </trkpt>
      <trkpt lat="43.45414" lon="6.77336">
        <ele>118.9</ele>
        <time>2012-12-09T10:34:21.000Z</time>
      </trkpt>
      <trkpt lat="43.45409" lon="6.77333">
        <ele>118.9</ele>
        <time>2012-12-09T10:34:22.000Z</time>
      </trkpt>
      <trkpt lat="43.45405" lon="6.7733">
        <ele>118.6</ele>
        <time>2012-12-09T10:34:23.000Z</time>
      </trkpt>
      <trkpt lat="43.45401" lon="6.77326">
        <ele>118.1</ele>
        <time>2012-12-09T10:34:24.000Z</time>
      </trkpt>
      <trkpt lat="43.45397" lon="6.77322">
        <ele>117.8</ele>
        <time>2012-12-09T10:34:25.000Z</time>
      </trkpt>
      <trkpt lat="43.45392" lon="6.77318">
        <ele>117.6</ele>
        <time>2012-12-09T10:34:26.000Z</time>
      </trkpt>
      <trkpt lat="43.45387" lon="6.77313">
        <ele>117.1</ele>
        <time>2012-12-09T10:34:27.000Z</time>
      </trkpt>
      <trkpt lat="43.45382" lon="6.77309">
        <ele>116.7</ele>
        <time>2012-12-09T10:34:28.000Z</time>
      </trkpt>
      <trkpt lat="43.45378" lon="6.77304">
        <ele>116.7</ele>
        <time>2012-12-09T10:34:29.000Z</time>
      </trkpt>
      <trkpt lat="43.45373" lon="6.773">
        <ele>116.8</ele>
        <time>2012-12-09T10:34:30.000Z</time>
      </trkpt>
      <trkpt lat="43.45367" lon="6.77296">
        <ele>116.6</ele>
        <time>2012-12-09T10:34:31.000Z</time>
      </trkpt>
      <trkpt lat="43.45362" lon="6.77292">
        <ele>116.3</ele>
        <time>2012-12-09T10:34:32.000Z</time>
      </trkpt>
      <trkpt lat="43.45357" lon="6.77287">
        <ele>116.1</ele>
        <time>2012-12-09T10:34:33.000Z</time>
      </trkpt>
      <trkpt lat="43.45352" lon="6.77283">
        <ele>115.7</ele>
        <time>2012-12-09T10:34:34.000Z</time>
      </trkpt>
      <trkpt lat="43.45347" lon="6.7728">
        <ele>115.6</ele>
        <time>2012-12-09T10:34:35.000Z</time>
      </trkpt>
      <trkpt lat="43.45342" lon="6.77276">
        <ele>115.4</ele>
        <time>2012-12-09T10:34:36.000Z</time>
      </trkpt>
      <trkpt lat="43.45337" lon="6.77273">
        <ele>115.2</ele>
        <time>2012-12-09T10:34:37.000Z</time>
      </trkpt>
      <trkpt lat="43.45331" lon="6.7727">
        <ele>114.9</ele>
        <time>2012-12-09T10:34:38.000Z</time>
      </trkpt>
      <trkpt lat="43.45326" lon="6.77267">
        <ele>114.7</ele>
        <time>2012-12-09T10:34:39.000Z</time>
      </trkpt>
      <trkpt lat="43.4532" lon="6.77264">
        <ele>114.5</ele>
        <time>2012-12-09T10:34:40.000Z</time>
      </trkpt>
      <trkpt lat="43.45314" lon="6.77262">
        <ele>114.4</ele>
        <time>2012-12-09T10:34:41.000Z</time>
      </trkpt>
      <trkpt lat="43.45309" lon="6.77259">
        <ele>114.1</ele>
        <time>2012-12-09T10:34:42.000Z</time>
      </trkpt>
      <trkpt lat="43.45303" lon="6.77256">
        <ele>114</ele>
        <time>2012-12-09T10:34:43.000Z</time>
      </trkpt>
      <trkpt lat="43.45298" lon="6.77253">
        <ele>113.7</ele>
        <time>2012-12-09T10:34:44.000Z</time>
      </trkpt>
      <trkpt lat="43.45293" lon="6.7725">
        <ele>113.4</ele>
        <time>2012-12-09T10:34:45.000Z</time>
      </trkpt>
      <trkpt lat="43.45287" lon="6.77247">
        <ele>113.1</ele>
        <time>2012-12-09T10:34:46.000Z</time>
      </trkpt>
      <trkpt lat="43.45252" lon="6.77227">
        <ele>95.4</ele>
        <time>2012-12-09T10:34:51.000Z</time>
      </trkpt>
      <trkpt lat="43.45253" lon="6.77222">
        <ele>93.9</ele>
        <time>2012-12-09T10:34:52.000Z</time>
      </trkpt>
      <trkpt lat="43.45251" lon="6.77217">
        <ele>97</ele>
        <time>2012-12-09T10:34:53.000Z</time>
      </trkpt>
      <trkpt lat="43.45247" lon="6.77215">
        <ele>99.5</ele>
        <time>2012-12-09T10:34:55.000Z</time>
      </trkpt>
      <trkpt lat="43.45246" lon="6.7721">
        <ele>100.9</ele>
        <time>2012-12-09T10:34:56.000Z</time>
      </trkpt>
      <trkpt lat="43.45244" lon="6.77204">
        <ele>103.5</ele>
        <time>2012-12-09T10:34:57.000Z</time>
      </trkpt>
      <trkpt lat="43.45242" lon="6.77199">
        <ele>105.6</ele>
        <time>2012-12-09T10:34:58.000Z</time>
      </trkpt>
      <trkpt lat="43.45241" lon="6.77191">
        <ele>103.4</ele>
        <time>2012-12-09T10:34:59.000Z</time>
      </trkpt>
      <trkpt lat="43.45239" lon="6.77187">
        <ele>104.5</ele>
        <time>2012-12-09T10:35:00.000Z</time>
      </trkpt>
      <trkpt lat="43.45237" lon="6.77182">
        <ele>105.6</ele>
        <time>2012-12-09T10:35:01.000Z</time>
      </trkpt>
      <trkpt lat="43.45233" lon="6.77179">
        <ele>105.4</ele>
        <time>2012-12-09T10:35:02.000Z</time>
      </trkpt>
      <trkpt lat="43.45231" lon="6.77175">
        <ele>105.6</ele>
        <time>2012-12-09T10:35:03.000Z</time>
      </trkpt>
      <trkpt lat="43.45229" lon="6.77171">
        <ele>106.2</ele>
        <time>2012-12-09T10:35:04.000Z</time>
      </trkpt>
      <trkpt lat="43.45226" lon="6.77168">
        <ele>107.4</ele>
        <time>2012-12-09T10:35:05.000Z</time>
      </trkpt>
      <trkpt lat="43.45223" lon="6.77165">
        <ele>108.9</ele>
        <time>2012-12-09T10:35:06.000Z</time>
      </trkpt>
      <trkpt lat="43.4522" lon="6.77162">
        <ele>109.2</ele>
        <time>2012-12-09T10:35:07.000Z</time>
      </trkpt>
      <trkpt lat="43.45218" lon="6.77157">
        <ele>109.6</ele>
        <time>2012-12-09T10:35:08.000Z</time>
      </trkpt>
      <trkpt lat="43.45215" lon="6.77153">
        <ele>109.6</ele>
        <time>2012-12-09T10:35:09.000Z</time>
      </trkpt>
      <trkpt lat="43.45212" lon="6.77149">
        <ele>109.9</ele>
        <time>2012-12-09T10:35:10.000Z</time>
      </trkpt>
      <trkpt lat="43.45209" lon="6.77146">
        <ele>110.6</ele>
        <time>2012-12-09T10:35:11.000Z</time>
      </trkpt>
      <trkpt lat="43.45206" lon="6.77143">
        <ele>111.2</ele>
        <time>2012-12-09T10:35:12.000Z</time>
      </trkpt>
      <trkpt lat="43.45203" lon="6.7714">
        <ele>111.6</ele>
        <time>2012-12-09T10:35:13.000Z</time>
      </trkpt>
      <trkpt lat="43.452" lon="6.77137">
        <ele>111.6</ele>
        <time>2012-12-09T10:35:14.000Z</time>
      </trkpt>
      <trkpt lat="43.45196" lon="6.77135">
        <ele>110.9</ele>
        <time>2012-12-09T10:35:15.000Z</time>
      </trkpt>
      <trkpt lat="43.45192" lon="6.77132">
        <ele>110.7</ele>
        <time>2012-12-09T10:35:16.000Z</time>
      </trkpt>
      <trkpt lat="43.45188" lon="6.7713">
        <ele>111.2</ele>
        <time>2012-12-09T10:35:17.000Z</time>
      </trkpt>
      <trkpt lat="43.45185" lon="6.77127">
        <ele>111.1</ele>
        <time>2012-12-09T10:35:18.000Z</time>
      </trkpt>
      <trkpt lat="43.45181" lon="6.77125">
        <ele>111.2</ele>
        <time>2012-12-09T10:35:19.000Z</time>
      </trkpt>
      <trkpt lat="43.45177" lon="6.77124">
        <ele>110.8</ele>
        <time>2012-12-09T10:35:20.000Z</time>
      </trkpt>
      <trkpt lat="43.45174" lon="6.77121">
        <ele>110.9</ele>
        <time>2012-12-09T10:35:21.000Z</time>
      </trkpt>
      <trkpt lat="43.4517" lon="6.77119">
        <ele>111.1</ele>
        <time>2012-12-09T10:35:22.000Z</time>
      </trkpt>
      <trkpt lat="43.45167" lon="6.77116">
        <ele>111.4</ele>
        <time>2012-12-09T10:35:23.000Z</time>
      </trkpt>
      <trkpt lat="43.45163" lon="6.77113">
        <ele>111.5</ele>
        <time>2012-12-09T10:35:24.000Z</time>
      </trkpt>
      <trkpt lat="43.45159" lon="6.77109">
        <ele>110.5</ele>
        <time>2012-12-09T10:35:25.000Z</time>
      </trkpt>
      <trkpt lat="43.45155" lon="6.77106">
        <ele>110.3</ele>
        <time>2012-12-09T10:35:26.000Z</time>
      </trkpt>
      <trkpt lat="43.45151" lon="6.77104">
        <ele>110.4</ele>
        <time>2012-12-09T10:35:27.000Z</time>
      </trkpt>
      <trkpt lat="43.45147" lon="6.77101">
        <ele>110.5</ele>
        <time>2012-12-09T10:35:28.000Z</time>
      </trkpt>
      <trkpt lat="43.45143" lon="6.77098">
        <ele>110.4</ele>
        <time>2012-12-09T10:35:29.000Z</time>
      </trkpt>
      <trkpt lat="43.45139" lon="6.77094">
        <ele>109.2</ele>
        <time>2012-12-09T10:35:30.000Z</time>
      </trkpt>
      <trkpt lat="43.45134" lon="6.77091">
        <ele>109.1</ele>
        <time>2012-12-09T10:35:31.000Z</time>
      </trkpt>
      <trkpt lat="43.4513" lon="6.77087">
        <ele>108.8</ele>
        <time>2012-12-09T10:35:32.000Z</time>
      </trkpt>
      <trkpt lat="43.45126" lon="6.77084">
        <ele>108.6</ele>
        <time>2012-12-09T10:35:33.000Z</time>
      </trkpt>
      <trkpt lat="43.45122" lon="6.77081">
        <ele>108.6</ele>
        <time>2012-12-09T10:35:34.000Z</time>
      </trkpt>
      <trkpt lat="43.45117" lon="6.77078">
        <ele>108.3</ele>
        <time>2012-12-09T10:35:35.000Z</time>
      </trkpt>
      <trkpt lat="43.45113" lon="6.77075">
        <ele>108.1</ele>
        <time>2012-12-09T10:35:36.000Z</time>
      </trkpt>
      <trkpt lat="43.45109" lon="6.77073">
        <ele>108</ele>
        <time>2012-12-09T10:35:37.000Z</time>
      </trkpt>
      <trkpt lat="43.45106" lon="6.7707">
        <ele>107.8</ele>
        <time>2012-12-09T10:35:38.000Z</time>
      </trkpt>
      <trkpt lat="43.45103" lon="6.77068">
        <ele>107.6</ele>
        <time>2012-12-09T10:35:39.000Z</time>
      </trkpt>
      <trkpt lat="43.45101" lon="6.77066">
        <ele>107.4</ele>
        <time>2012-12-09T10:35:40.000Z</time>
      </trkpt>
      <trkpt lat="43.45098" lon="6.77063">
        <ele>107.3</ele>
        <time>2012-12-09T10:35:41.000Z</time>
      </trkpt>
      <trkpt lat="43.45095" lon="6.77061">
        <ele>107.2</ele>
        <time>2012-12-09T10:35:42.000Z</time>
      </trkpt>
      <trkpt lat="43.45093" lon="6.77058">
        <ele>107</ele>
        <time>2012-12-09T10:35:43.000Z</time>
      </trkpt>
      <trkpt lat="43.4509" lon="6.77054">
        <ele>106.4</ele>
        <time>2012-12-09T10:35:44.000Z</time>
      </trkpt>
      <trkpt lat="43.45087" lon="6.77051">
        <ele>106</ele>
        <time>2012-12-09T10:35:45.000Z</time>
      </trkpt>
      <trkpt lat="43.45084" lon="6.77047">
        <ele>105.5</ele>
        <time>2012-12-09T10:35:46.000Z</time>
      </trkpt>
      <trkpt lat="43.45075" lon="6.77028">
        <ele>100.9</ele>
        <time>2012-12-09T10:35:51.000Z</time>
      </trkpt>
      <trkpt lat="43.45071" lon="6.77026">
        <ele>104</ele>
        <time>2012-12-09T10:35:52.000Z</time>
      </trkpt>
      <trkpt lat="43.45068" lon="6.77024">
        <ele>106</ele>
        <time>2012-12-09T10:35:53.000Z</time>
      </trkpt>
      <trkpt lat="43.45064" lon="6.77021">
        <ele>107.9</ele>
        <time>2012-12-09T10:35:54.000Z</time>
      </trkpt>
      <trkpt lat="43.4506" lon="6.77017">
        <ele>107.1</ele>
        <time>2012-12-09T10:35:55.000Z</time>
      </trkpt>
      <trkpt lat="43.45057" lon="6.77012">
        <ele>105.6</ele>
        <time>2012-12-09T10:35:56.000Z</time>
      </trkpt>
      <trkpt lat="43.45054" lon="6.77008">
        <ele>103.4</ele>
        <time>2012-12-09T10:35:57.000Z</time>
      </trkpt>
      <trkpt lat="43.45051" lon="6.77004">
        <ele>102.1</ele>
        <time>2012-12-09T10:35:58.000Z</time>
      </trkpt>
      <trkpt lat="43.45049" lon="6.77001">
        <ele>102</ele>
        <time>2012-12-09T10:35:59.000Z</time>
      </trkpt>
      <trkpt lat="43.45047" lon="6.76997">
        <ele>101.5</ele>
        <time>2012-12-09T10:36:00.000Z</time>
      </trkpt>
      <trkpt lat="43.45045" lon="6.76994">
        <ele>102.1</ele>
        <time>2012-12-09T10:36:01.000Z</time>
      </trkpt>
      <trkpt lat="43.45043" lon="6.76991">
        <ele>102.2</ele>
        <time>2012-12-09T10:36:02.000Z</time>
      </trkpt>
      <trkpt lat="43.45041" lon="6.76988">
        <ele>102.5</ele>
        <time>2012-12-09T10:36:03.000Z</time>
      </trkpt>
      <trkpt lat="43.45038" lon="6.76985">
        <ele>103</ele>
        <time>2012-12-09T10:36:04.000Z</time>
      </trkpt>
      <trkpt lat="43.45035" lon="6.76981">
        <ele>102.2</ele>
        <time>2012-12-09T10:36:05.000Z</time>
      </trkpt>
      <trkpt lat="43.45031" lon="6.76977">
        <ele>100.9</ele>
        <time>2012-12-09T10:36:06.000Z</time>
      </trkpt>
      <trkpt lat="43.45028" lon="6.76975">
        <ele>101.7</ele>
        <time>2012-12-09T10:36:07.000Z</time>
      </trkpt>
      <trkpt lat="43.45025" lon="6.76972">
        <ele>102</ele>
        <time>2012-12-09T10:36:08.000Z</time>
      </trkpt>
      <trkpt lat="43.45022" lon="6.76969">
        <ele>101.8</ele>
        <time>2012-12-09T10:36:09.000Z</time>
      </trkpt>
      <trkpt lat="43.45018" lon="6.76967">
        <ele>102.2</ele>
        <time>2012-12-09T10:36:10.000Z</time>
      </trkpt>
      <trkpt lat="43.45016" lon="6.76964">
        <ele>102.5</ele>
        <time>2012-12-09T10:36:11.000Z</time>
      </trkpt>
      <trkpt lat="43.45014" lon="6.76961">
        <ele>102.8</ele>
        <time>2012-12-09T10:36:12.000Z</time>
      </trkpt>
      <trkpt lat="43.45012" lon="6.76957">
        <ele>103.9</ele>
        <time>2012-12-09T10:36:13.000Z</time>
      </trkpt>
      <trkpt lat="43.4501" lon="6.76954">
        <ele>104.5</ele>
        <time>2012-12-09T10:36:14.000Z</time>
      </trkpt>
      <trkpt lat="43.45008" lon="6.7695">
        <ele>104.1</ele>
        <time>2012-12-09T10:36:15.000Z</time>
      </trkpt>
      <trkpt lat="43.45006" lon="6.76946">
        <ele>103.8</ele>
        <time>2012-12-09T10:36:16.000Z</time>
      </trkpt>
      <trkpt lat="43.45004" lon="6.76941">
        <ele>104.7</ele>
        <time>2012-12-09T10:36:17.000Z</time>
      </trkpt>
      <trkpt lat="43.45002" lon="6.76936">
        <ele>104.9</ele>
        <time>2012-12-09T10:36:18.000Z</time>
      </trkpt>
      <trkpt lat="43.44999" lon="6.76931">
        <ele>105.2</ele>
        <time>2012-12-09T10:36:19.000Z</time>
      </trkpt>
      <trkpt lat="43.44997" lon="6.76926">
        <ele>105.5</ele>
        <time>2012-12-09T10:36:20.000Z</time>
      </trkpt>
      <trkpt lat="43.44993" lon="6.76921">
        <ele>105.1</ele>
        <time>2012-12-09T10:36:21.000Z</time>
      </trkpt>
      <trkpt lat="43.4499" lon="6.76916">
        <ele>104.4</ele>
        <time>2012-12-09T10:36:22.000Z</time>
      </trkpt>
      <trkpt lat="43.44987" lon="6.76912">
        <ele>104.3</ele>
        <time>2012-12-09T10:36:23.000Z</time>
      </trkpt>
      <trkpt lat="43.44984" lon="6.76907">
        <ele>103.8</ele>
        <time>2012-12-09T10:36:24.000Z</time>
      </trkpt>
      <trkpt lat="43.44981" lon="6.76902">
        <ele>103.3</ele>
        <time>2012-12-09T10:36:25.000Z</time>
      </trkpt>
      <trkpt lat="43.4498" lon="6.76897">
        <ele>102.9</ele>
        <time>2012-12-09T10:36:26.000Z</time>
      </trkpt>
      <trkpt lat="43.44978" lon="6.76893">
        <ele>102.6</ele>
        <time>2012-12-09T10:36:27.000Z</time>
      </trkpt>
      <trkpt lat="43.44977" lon="6.7689">
        <ele>102.4</ele>
        <time>2012-12-09T10:36:28.000Z</time>
      </trkpt>
      <trkpt lat="43.44974" lon="6.76885">
        <ele>102.1</ele>
        <time>2012-12-09T10:36:30.000Z</time>
      </trkpt>
      <trkpt lat="43.44973" lon="6.76882">
        <ele>102.1</ele>
        <time>2012-12-09T10:36:31.000Z</time>
      </trkpt>
      <trkpt lat="43.44972" lon="6.76878">
        <ele>101.9</ele>
        <time>2012-12-09T10:36:32.000Z</time>
      </trkpt>
      <trkpt lat="43.44971" lon="6.76874">
        <ele>102</ele>
        <time>2012-12-09T10:36:33.000Z</time>
      </trkpt>
      <trkpt lat="43.4497" lon="6.76871">
        <ele>101.9</ele>
        <time>2012-12-09T10:36:34.000Z</time>
      </trkpt>
      <trkpt lat="43.44968" lon="6.76867">
        <ele>101.1</ele>
        <time>2012-12-09T10:36:35.000Z</time>
      </trkpt>
      <trkpt lat="43.44966" lon="6.76863">
        <ele>100.7</ele>
        <time>2012-12-09T10:36:36.000Z</time>
      </trkpt>
      <trkpt lat="43.44965" lon="6.76858">
        <ele>100.2</ele>
        <time>2012-12-09T10:36:37.000Z</time>
      </trkpt>
      <trkpt lat="43.44964" lon="6.76855">
        <ele>99.7</ele>
        <time>2012-12-09T10:36:38.000Z</time>
      </trkpt>
      <trkpt lat="43.44962" lon="6.76851">
        <ele>98</ele>
        <time>2012-12-09T10:36:39.000Z</time>
      </trkpt>
      <trkpt lat="43.4496" lon="6.76848">
        <ele>97.2</ele>
        <time>2012-12-09T10:36:40.000Z</time>
      </trkpt>
      <trkpt lat="43.44959" lon="6.76847">
        <ele>96.6</ele>
        <time>2012-12-09T10:36:41.000Z</time>
      </trkpt>
      <trkpt lat="43.44956" lon="6.76845">
        <ele>96.9</ele>
        <time>2012-12-09T10:36:42.000Z</time>
      </trkpt>
      <trkpt lat="43.44954" lon="6.76845">
        <ele>97.2</ele>
        <time>2012-12-09T10:36:43.000Z</time>
      </trkpt>
      <trkpt lat="43.44951" lon="6.76845">
        <ele>97.3</ele>
        <time>2012-12-09T10:36:44.000Z</time>
      </trkpt>
      <trkpt lat="43.44949" lon="6.76845">
        <ele>97.2</ele>
        <time>2012-12-09T10:36:45.000Z</time>
      </trkpt>
      <trkpt lat="43.44947" lon="6.76846">
        <ele>97</ele>
        <time>2012-12-09T10:36:46.000Z</time>
      </trkpt>
      <trkpt lat="43.4493" lon="6.76854">
        <ele>88.4</ele>
        <time>2012-12-09T10:36:51.000Z</time>
      </trkpt>
      <trkpt lat="43.44929" lon="6.76859">
        <ele>92</ele>
        <time>2012-12-09T10:36:54.000Z</time>
      </trkpt>
      <trkpt lat="43.44928" lon="6.76861">
        <ele>93.6</ele>
        <time>2012-12-09T10:36:55.000Z</time>
      </trkpt>
      <trkpt lat="43.44924" lon="6.76864">
        <ele>94.6</ele>
        <time>2012-12-09T10:36:57.000Z</time>
      </trkpt>
      <trkpt lat="43.44922" lon="6.76866">
        <ele>94.8</ele>
        <time>2012-12-09T10:36:58.000Z</time>
      </trkpt>
      <trkpt lat="43.4492" lon="6.76868">
        <ele>95.2</ele>
        <time>2012-12-09T10:36:59.000Z</time>
      </trkpt>
      <trkpt lat="43.44918" lon="6.7687">
        <ele>95.1</ele>
        <time>2012-12-09T10:37:00.000Z</time>
      </trkpt>
      <trkpt lat="43.44915" lon="6.76875">
        <ele>95.7</ele>
        <time>2012-12-09T10:37:02.000Z</time>
      </trkpt>
      <trkpt lat="43.44914" lon="6.76877">
        <ele>96</ele>
        <time>2012-12-09T10:37:03.000Z</time>
      </trkpt>
      <trkpt lat="43.4491" lon="6.7688">
        <ele>96.5</ele>
        <time>2012-12-09T10:37:05.000Z</time>
      </trkpt>
      <trkpt lat="43.44909" lon="6.76881">
        <ele>96.2</ele>
        <time>2012-12-09T10:37:06.000Z</time>
      </trkpt>
      <trkpt lat="43.44906" lon="6.76885">
        <ele>95.6</ele>
        <time>2012-12-09T10:37:08.000Z</time>
      </trkpt>
      <trkpt lat="43.44905" lon="6.76888">
        <ele>95.2</ele>
        <time>2012-12-09T10:37:09.000Z</time>
      </trkpt>
      <trkpt lat="43.44902" lon="6.76892">
        <ele>95.5</ele>
        <time>2012-12-09T10:37:11.000Z</time>
      </trkpt>
      <trkpt lat="43.449" lon="6.76894">
        <ele>96</ele>
        <time>2012-12-09T10:37:12.000Z</time>
      </trkpt>
      <trkpt lat="43.44898" lon="6.76896">
        <ele>96.2</ele>
        <time>2012-12-09T10:37:13.000Z</time>
      </trkpt>
      <trkpt lat="43.44897" lon="6.76898">
        <ele>96.5</ele>
        <time>2012-12-09T10:37:14.000Z</time>
      </trkpt>
      <trkpt lat="43.44895" lon="6.769">
        <ele>96.5</ele>
        <time>2012-12-09T10:37:15.000Z</time>
      </trkpt>
      <trkpt lat="43.44892" lon="6.76902">
        <ele>96.8</ele>
        <time>2012-12-09T10:37:16.000Z</time>
      </trkpt>
      <trkpt lat="43.4489" lon="6.76904">
        <ele>96.5</ele>
        <time>2012-12-09T10:37:17.000Z</time>
      </trkpt>
      <trkpt lat="43.44889" lon="6.76906">
        <ele>96.1</ele>
        <time>2012-12-09T10:37:18.000Z</time>
      </trkpt>
      <trkpt lat="43.44884" lon="6.76908">
        <ele>95.8</ele>
        <time>2012-12-09T10:37:20.000Z</time>
      </trkpt>
      <trkpt lat="43.44882" lon="6.76909">
        <ele>95.6</ele>
        <time>2012-12-09T10:37:21.000Z</time>
      </trkpt>
      <trkpt lat="43.44879" lon="6.76912">
        <ele>95.6</ele>
        <time>2012-12-09T10:37:23.000Z</time>
      </trkpt>
      <trkpt lat="43.44876" lon="6.76914">
        <ele>95.3</ele>
        <time>2012-12-09T10:37:24.000Z</time>
      </trkpt>
      <trkpt lat="43.44874" lon="6.76917">
        <ele>94.9</ele>
        <time>2012-12-09T10:37:25.000Z</time>
      </trkpt>
      <trkpt lat="43.44872" lon="6.7692">
        <ele>95.1</ele>
        <time>2012-12-09T10:37:26.000Z</time>
      </trkpt>
      <trkpt lat="43.4487" lon="6.76922">
        <ele>95.4</ele>
        <time>2012-12-09T10:37:27.000Z</time>
      </trkpt>
      <trkpt lat="43.44868" lon="6.76924">
        <ele>95.5</ele>
        <time>2012-12-09T10:37:28.000Z</time>
      </trkpt>
      <trkpt lat="43.44864" lon="6.76926">
        <ele>95.7</ele>
        <time>2012-12-09T10:37:30.000Z</time>
      </trkpt>
      <trkpt lat="43.44862" lon="6.76925">
        <ele>95.7</ele>
        <time>2012-12-09T10:37:31.000Z</time>
      </trkpt>
      <trkpt lat="43.4486" lon="6.76923">
        <ele>95.6</ele>
        <time>2012-12-09T10:37:32.000Z</time>
      </trkpt>
      <trkpt lat="43.44857" lon="6.76922">
        <ele>95.5</ele>
        <time>2012-12-09T10:37:33.000Z</time>
      </trkpt>
      <trkpt lat="43.44854" lon="6.7692">
        <ele>95.5</ele>
        <time>2012-12-09T10:37:35.000Z</time>
      </trkpt>
      <trkpt lat="43.44852" lon="6.76918">
        <ele>95.8</ele>
        <time>2012-12-09T10:37:36.000Z</time>
      </trkpt>
      <trkpt lat="43.44849" lon="6.76916">
        <ele>96.2</ele>
        <time>2012-12-09T10:37:38.000Z</time>
      </trkpt>
      <trkpt lat="43.44847" lon="6.76915">
        <ele>96.2</ele>
        <time>2012-12-09T10:37:39.000Z</time>
      </trkpt>
      <trkpt lat="43.44845" lon="6.76914">
        <ele>96</ele>
        <time>2012-12-09T10:37:40.000Z</time>
      </trkpt>
      <trkpt lat="43.44842" lon="6.76912">
        <ele>96</ele>
        <time>2012-12-09T10:37:41.000Z</time>
      </trkpt>
      <trkpt lat="43.44839" lon="6.76911">
        <ele>96.1</ele>
        <time>2012-12-09T10:37:42.000Z</time>
      </trkpt>
      <trkpt lat="43.44836" lon="6.7691">
        <ele>96.1</ele>
        <time>2012-12-09T10:37:43.000Z</time>
      </trkpt>
      <trkpt lat="43.44833" lon="6.76909">
        <ele>96.2</ele>
        <time>2012-12-09T10:37:44.000Z</time>
      </trkpt>
      <trkpt lat="43.4483" lon="6.76909">
        <ele>96.5</ele>
        <time>2012-12-09T10:37:45.000Z</time>
      </trkpt>
      <trkpt lat="43.44827" lon="6.76909">
        <ele>96.7</ele>
        <time>2012-12-09T10:37:46.000Z</time>
      </trkpt>
      <trkpt lat="43.44793" lon="6.76926">
        <ele>83.1</ele>
        <time>2012-12-09T10:37:51.000Z</time>
      </trkpt>
      <trkpt lat="43.4479" lon="6.7693">
        <ele>84.5</ele>
        <time>2012-12-09T10:37:52.000Z</time>
      </trkpt>
      <trkpt lat="43.44785" lon="6.76934">
        <ele>83.1</ele>
        <time>2012-12-09T10:37:53.000Z</time>
      </trkpt>
      <trkpt lat="43.44779" lon="6.76938">
        <ele>82.6</ele>
        <time>2012-12-09T10:37:54.000Z</time>
      </trkpt>
      <trkpt lat="43.44774" lon="6.76943">
        <ele>82.1</ele>
        <time>2012-12-09T10:37:55.000Z</time>
      </trkpt>
      <trkpt lat="43.44768" lon="6.76948">
        <ele>83</ele>
        <time>2012-12-09T10:37:56.000Z</time>
      </trkpt>
      <trkpt lat="43.44763" lon="6.76953">
        <ele>82.7</ele>
        <time>2012-12-09T10:37:57.000Z</time>
      </trkpt>
      <trkpt lat="43.44757" lon="6.76958">
        <ele>82.4</ele>
        <time>2012-12-09T10:37:58.000Z</time>
      </trkpt>
      <trkpt lat="43.44753" lon="6.76963">
        <ele>81.9</ele>
        <time>2012-12-09T10:37:59.000Z</time>
      </trkpt>
      <trkpt lat="43.44749" lon="6.76969">
        <ele>81.8</ele>
        <time>2012-12-09T10:38:00.000Z</time>
      </trkpt>
      <trkpt lat="43.44745" lon="6.76974">
        <ele>81.7</ele>
        <time>2012-12-09T10:38:01.000Z</time>
      </trkpt>
      <trkpt lat="43.44741" lon="6.76979">
        <ele>81.1</ele>
        <time>2012-12-09T10:38:02.000Z</time>
      </trkpt>
      <trkpt lat="43.44737" lon="6.76984">
        <ele>81.5</ele>
        <time>2012-12-09T10:38:03.000Z</time>
      </trkpt>
      <trkpt lat="43.44733" lon="6.76988">
        <ele>82.3</ele>
        <time>2012-12-09T10:38:04.000Z</time>
      </trkpt>
      <trkpt lat="43.44729" lon="6.76991">
        <ele>82.9</ele>
        <time>2012-12-09T10:38:05.000Z</time>
      </trkpt>
      <trkpt lat="43.44724" lon="6.76992">
        <ele>82.9</ele>
        <time>2012-12-09T10:38:06.000Z</time>
      </trkpt>
      <trkpt lat="43.44719" lon="6.76993">
        <ele>82.7</ele>
        <time>2012-12-09T10:38:07.000Z</time>
      </trkpt>
      <trkpt lat="43.44715" lon="6.76996">
        <ele>81.8</ele>
        <time>2012-12-09T10:38:08.000Z</time>
      </trkpt>
      <trkpt lat="43.4471" lon="6.76999">
        <ele>81.9</ele>
        <time>2012-12-09T10:38:09.000Z</time>
      </trkpt>
      <trkpt lat="43.44706" lon="6.77003">
        <ele>81.2</ele>
        <time>2012-12-09T10:38:10.000Z</time>
      </trkpt>
      <trkpt lat="43.44702" lon="6.77007">
        <ele>81.3</ele>
        <time>2012-12-09T10:38:11.000Z</time>
      </trkpt>
      <trkpt lat="43.44698" lon="6.77012">
        <ele>81.5</ele>
        <time>2012-12-09T10:38:12.000Z</time>
      </trkpt>
      <trkpt lat="43.44695" lon="6.77017">
        <ele>81.3</ele>
        <time>2012-12-09T10:38:13.000Z</time>
      </trkpt>
      <trkpt lat="43.44693" lon="6.77025">
        <ele>81.9</ele>
        <time>2012-12-09T10:38:14.000Z</time>
      </trkpt>
      <trkpt lat="43.44692" lon="6.77032">
        <ele>80.8</ele>
        <time>2012-12-09T10:38:15.000Z</time>
      </trkpt>
      <trkpt lat="43.44691" lon="6.77039">
        <ele>80.4</ele>
        <time>2012-12-09T10:38:16.000Z</time>
      </trkpt>
      <trkpt lat="43.44689" lon="6.77046">
        <ele>79.5</ele>
        <time>2012-12-09T10:38:17.000Z</time>
      </trkpt>
      <trkpt lat="43.44688" lon="6.77052">
        <ele>79.3</ele>
        <time>2012-12-09T10:38:18.000Z</time>
      </trkpt>
      <trkpt lat="43.44688" lon="6.77057">
        <ele>79.6</ele>
        <time>2012-12-09T10:38:19.000Z</time>
      </trkpt>
      <trkpt lat="43.44687" lon="6.77061">
        <ele>79.9</ele>
        <time>2012-12-09T10:38:20.000Z</time>
      </trkpt>
      <trkpt lat="43.44687" lon="6.77065">
        <ele>80</ele>
        <time>2012-12-09T10:38:21.000Z</time>
      </trkpt>
      <trkpt lat="43.44686" lon="6.77068">
        <ele>80.2</ele>
        <time>2012-12-09T10:38:22.000Z</time>
      </trkpt>
      <trkpt lat="43.44685" lon="6.77071">
        <ele>79.9</ele>
        <time>2012-12-09T10:38:23.000Z</time>
      </trkpt>
      <trkpt lat="43.44684" lon="6.77075">
        <ele>79.6</ele>
        <time>2012-12-09T10:38:24.000Z</time>
      </trkpt>
      <trkpt lat="43.44684" lon="6.77079">
        <ele>79.3</ele>
        <time>2012-12-09T10:38:25.000Z</time>
      </trkpt>
      <trkpt lat="43.44684" lon="6.77083">
        <ele>79.2</ele>
        <time>2012-12-09T10:38:26.000Z</time>
      </trkpt>
      <trkpt lat="43.44683" lon="6.77087">
        <ele>79.3</ele>
        <time>2012-12-09T10:38:27.000Z</time>
      </trkpt>
      <trkpt lat="43.44683" lon="6.77092">
        <ele>79.3</ele>
        <time>2012-12-09T10:38:28.000Z</time>
      </trkpt>
      <trkpt lat="43.44682" lon="6.77096">
        <ele>79.6</ele>
        <time>2012-12-09T10:38:29.000Z</time>
      </trkpt>
      <trkpt lat="43.44681" lon="6.77101">
        <ele>79.6</ele>
        <time>2012-12-09T10:38:30.000Z</time>
      </trkpt>
      <trkpt lat="43.44681" lon="6.77106">
        <ele>79.6</ele>
        <time>2012-12-09T10:38:31.000Z</time>
      </trkpt>
      <trkpt lat="43.4468" lon="6.77111">
        <ele>79.6</ele>
        <time>2012-12-09T10:38:32.000Z</time>
      </trkpt>
      <trkpt lat="43.44679" lon="6.77116">
        <ele>79.8</ele>
        <time>2012-12-09T10:38:33.000Z</time>
      </trkpt>
      <trkpt lat="43.44678" lon="6.77122">
        <ele>79.6</ele>
        <time>2012-12-09T10:38:34.000Z</time>
      </trkpt>
      <trkpt lat="43.44677" lon="6.77127">
        <ele>79.6</ele>
        <time>2012-12-09T10:38:35.000Z</time>
      </trkpt>
      <trkpt lat="43.44677" lon="6.77132">
        <ele>79.6</ele>
        <time>2012-12-09T10:38:36.000Z</time>
      </trkpt>
      <trkpt lat="43.44676" lon="6.77137">
        <ele>79.8</ele>
        <time>2012-12-09T10:38:37.000Z</time>
      </trkpt>
      <trkpt lat="43.44675" lon="6.77142">
        <ele>79.8</ele>
        <time>2012-12-09T10:38:38.000Z</time>
      </trkpt>
      <trkpt lat="43.44674" lon="6.77147">
        <ele>79.7</ele>
        <time>2012-12-09T10:38:39.000Z</time>
      </trkpt>
      <trkpt lat="43.44673" lon="6.77152">
        <ele>79.6</ele>
        <time>2012-12-09T10:38:40.000Z</time>
      </trkpt>
      <trkpt lat="43.44672" lon="6.77157">
        <ele>79.5</ele>
        <time>2012-12-09T10:38:41.000Z</time>
      </trkpt>
      <trkpt lat="43.4467" lon="6.77161">
        <ele>79.3</ele>
        <time>2012-12-09T10:38:42.000Z</time>
      </trkpt>
      <trkpt lat="43.44669" lon="6.77166">
        <ele>79.2</ele>
        <time>2012-12-09T10:38:43.000Z</time>
      </trkpt>
      <trkpt lat="43.44667" lon="6.7717">
        <ele>79</ele>
        <time>2012-12-09T10:38:44.000Z</time>
      </trkpt>
      <trkpt lat="43.44666" lon="6.77175">
        <ele>78.9</ele>
        <time>2012-12-09T10:38:45.000Z</time>
      </trkpt>
      <trkpt lat="43.44664" lon="6.77179">
        <ele>79</ele>
        <time>2012-12-09T10:38:46.000Z</time>
      </trkpt>
      <trkpt lat="43.44654" lon="6.77199">
        <ele>69.6</ele>
        <time>2012-12-09T10:38:51.000Z</time>
      </trkpt>
      <trkpt lat="43.44651" lon="6.77209">
        <ele>77.8</ele>
        <time>2012-12-09T10:38:52.000Z</time>
      </trkpt>
      <trkpt lat="43.44648" lon="6.77209">
        <ele>81.2</ele>
        <time>2012-12-09T10:38:53.000Z</time>
      </trkpt>
      <trkpt lat="43.44648" lon="6.77214">
        <ele>76.7</ele>
        <time>2012-12-09T10:38:54.000Z</time>
      </trkpt>
      <trkpt lat="43.44646" lon="6.77219">
        <ele>74.5</ele>
        <time>2012-12-09T10:38:55.000Z</time>
      </trkpt>
      <trkpt lat="43.44643" lon="6.77222">
        <ele>75.4</ele>
        <time>2012-12-09T10:38:56.000Z</time>
      </trkpt>
      <trkpt lat="43.44641" lon="6.77226">
        <ele>75.7</ele>
        <time>2012-12-09T10:38:57.000Z</time>
      </trkpt>
      <trkpt lat="43.44639" lon="6.77229">
        <ele>75.6</ele>
        <time>2012-12-09T10:38:58.000Z</time>
      </trkpt>
      <trkpt lat="43.44636" lon="6.77232">
        <ele>76.2</ele>
        <time>2012-12-09T10:38:59.000Z</time>
      </trkpt>
      <trkpt lat="43.44634" lon="6.77235">
        <ele>77.3</ele>
        <time>2012-12-09T10:39:00.000Z</time>
      </trkpt>
      <trkpt lat="43.44632" lon="6.77239">
        <ele>77.9</ele>
        <time>2012-12-09T10:39:01.000Z</time>
      </trkpt>
      <trkpt lat="43.44629" lon="6.77243">
        <ele>78.9</ele>
        <time>2012-12-09T10:39:02.000Z</time>
      </trkpt>
      <trkpt lat="43.44627" lon="6.77247">
        <ele>79.9</ele>
        <time>2012-12-09T10:39:03.000Z</time>
      </trkpt>
      <trkpt lat="43.44625" lon="6.77251">
        <ele>80.2</ele>
        <time>2012-12-09T10:39:04.000Z</time>
      </trkpt>
      <trkpt lat="43.44623" lon="6.77255">
        <ele>80.1</ele>
        <time>2012-12-09T10:39:05.000Z</time>
      </trkpt>
      <trkpt lat="43.44622" lon="6.7726">
        <ele>80.3</ele>
        <time>2012-12-09T10:39:06.000Z</time>
      </trkpt>
      <trkpt lat="43.44621" lon="6.77265">
        <ele>79.9</ele>
        <time>2012-12-09T10:39:07.000Z</time>
      </trkpt>
      <trkpt lat="43.4462" lon="6.7727">
        <ele>79.5</ele>
        <time>2012-12-09T10:39:08.000Z</time>
      </trkpt>
      <trkpt lat="43.44619" lon="6.77274">
        <ele>79.4</ele>
        <time>2012-12-09T10:39:09.000Z</time>
      </trkpt>
      <trkpt lat="43.44618" lon="6.77279">
        <ele>79.2</ele>
        <time>2012-12-09T10:39:10.000Z</time>
      </trkpt>
      <trkpt lat="43.44617" lon="6.77284">
        <ele>79.2</ele>
        <time>2012-12-09T10:39:11.000Z</time>
      </trkpt>
      <trkpt lat="43.44615" lon="6.7729">
        <ele>78.8</ele>
        <time>2012-12-09T10:39:12.000Z</time>
      </trkpt>
      <trkpt lat="43.44614" lon="6.77295">
        <ele>78.8</ele>
        <time>2012-12-09T10:39:13.000Z</time>
      </trkpt>
      <trkpt lat="43.44612" lon="6.773">
        <ele>79</ele>
        <time>2012-12-09T10:39:14.000Z</time>
      </trkpt>
      <trkpt lat="43.4461" lon="6.77305">
        <ele>79</ele>
        <time>2012-12-09T10:39:15.000Z</time>
      </trkpt>
      <trkpt lat="43.44608" lon="6.7731">
        <ele>79.3</ele>
        <time>2012-12-09T10:39:16.000Z</time>
      </trkpt>
      <trkpt lat="43.44605" lon="6.77314">
        <ele>81</ele>
        <time>2012-12-09T10:39:17.000Z</time>
      </trkpt>
      <trkpt lat="43.44602" lon="6.77317">
        <ele>81.9</ele>
        <time>2012-12-09T10:39:18.000Z</time>
      </trkpt>
      <trkpt lat="43.44598" lon="6.77318">
        <ele>83.6</ele>
        <time>2012-12-09T10:39:19.000Z</time>
      </trkpt>
      <trkpt lat="43.44595" lon="6.77319">
        <ele>83.8</ele>
        <time>2012-12-09T10:39:20.000Z</time>
      </trkpt>
      <trkpt lat="43.44591" lon="6.77318">
        <ele>83.5</ele>
        <time>2012-12-09T10:39:21.000Z</time>
      </trkpt>
      <trkpt lat="43.44587" lon="6.77315">
        <ele>83</ele>
        <time>2012-12-09T10:39:22.000Z</time>
      </trkpt>
      <trkpt lat="43.44583" lon="6.77312">
        <ele>83.4</ele>
        <time>2012-12-09T10:39:23.000Z</time>
      </trkpt>
      <trkpt lat="43.4458" lon="6.77306">
        <ele>83.4</ele>
        <time>2012-12-09T10:39:24.000Z</time>
      </trkpt>
      <trkpt lat="43.44576" lon="6.77301">
        <ele>83.4</ele>
        <time>2012-12-09T10:39:25.000Z</time>
      </trkpt>
      <trkpt lat="43.44572" lon="6.77297">
        <ele>83.6</ele>
        <time>2012-12-09T10:39:26.000Z</time>
      </trkpt>
      <trkpt lat="43.44568" lon="6.77292">
        <ele>84.3</ele>
        <time>2012-12-09T10:39:27.000Z</time>
      </trkpt>
      <trkpt lat="43.44564" lon="6.77288">
        <ele>84.5</ele>
        <time>2012-12-09T10:39:28.000Z</time>
      </trkpt>
      <trkpt lat="43.4456" lon="6.77284">
        <ele>85</ele>
        <time>2012-12-09T10:39:29.000Z</time>
      </trkpt>
      <trkpt lat="43.44557" lon="6.77281">
        <ele>85.1</ele>
        <time>2012-12-09T10:39:30.000Z</time>
      </trkpt>
      <trkpt lat="43.44554" lon="6.77279">
        <ele>85.3</ele>
        <time>2012-12-09T10:39:31.000Z</time>
      </trkpt>
      <trkpt lat="43.4455" lon="6.77276">
        <ele>85.3</ele>
        <time>2012-12-09T10:39:32.000Z</time>
      </trkpt>
      <trkpt lat="43.44547" lon="6.77274">
        <ele>85.1</ele>
        <time>2012-12-09T10:39:33.000Z</time>
      </trkpt>
      <trkpt lat="43.44543" lon="6.77273">
        <ele>84.8</ele>
        <time>2012-12-09T10:39:34.000Z</time>
      </trkpt>
      <trkpt lat="43.4454" lon="6.77271">
        <ele>84.6</ele>
        <time>2012-12-09T10:39:35.000Z</time>
      </trkpt>
      <trkpt lat="43.44536" lon="6.7727">
        <ele>84.2</ele>
        <time>2012-12-09T10:39:36.000Z</time>
      </trkpt>
      <trkpt lat="43.44532" lon="6.7727">
        <ele>83.7</ele>
        <time>2012-12-09T10:39:37.000Z</time>
      </trkpt>
      <trkpt lat="43.44528" lon="6.77271">
        <ele>83.2</ele>
        <time>2012-12-09T10:39:38.000Z</time>
      </trkpt>
      <trkpt lat="43.44524" lon="6.77273">
        <ele>83.1</ele>
        <time>2012-12-09T10:39:39.000Z</time>
      </trkpt>
      <trkpt lat="43.44521" lon="6.77275">
        <ele>83</ele>
        <time>2012-12-09T10:39:40.000Z</time>
      </trkpt>
      <trkpt lat="43.44517" lon="6.77277">
        <ele>83</ele>
        <time>2012-12-09T10:39:41.000Z</time>
      </trkpt>
      <trkpt lat="43.44513" lon="6.7728">
        <ele>83</ele>
        <time>2012-12-09T10:39:42.000Z</time>
      </trkpt>
      <trkpt lat="43.4451" lon="6.77283">
        <ele>82.9</ele>
        <time>2012-12-09T10:39:43.000Z</time>
      </trkpt>
      <trkpt lat="43.44506" lon="6.77286">
        <ele>82.6</ele>
        <time>2012-12-09T10:39:44.000Z</time>
      </trkpt>
      <trkpt lat="43.44503" lon="6.7729">
        <ele>82.2</ele>
        <time>2012-12-09T10:39:45.000Z</time>
      </trkpt>
      <trkpt lat="43.445" lon="6.77294">
        <ele>81.9</ele>
        <time>2012-12-09T10:39:46.000Z</time>
      </trkpt>
      <trkpt lat="43.44493" lon="6.77319">
        <ele>86</ele>
        <time>2012-12-09T10:39:51.000Z</time>
      </trkpt>
      <trkpt lat="43.44491" lon="6.77327">
        <ele>79.5</ele>
        <time>2012-12-09T10:39:52.000Z</time>
      </trkpt>
      <trkpt lat="43.44489" lon="6.77333">
        <ele>82</ele>
        <time>2012-12-09T10:39:53.000Z</time>
      </trkpt>
      <trkpt lat="43.44488" lon="6.77339">
        <ele>83</ele>
        <time>2012-12-09T10:39:54.000Z</time>
      </trkpt>
      <trkpt lat="43.44487" lon="6.77345">
        <ele>83.2</ele>
        <time>2012-12-09T10:39:55.000Z</time>
      </trkpt>
      <trkpt lat="43.44487" lon="6.77352">
        <ele>83.1</ele>
        <time>2012-12-09T10:39:56.000Z</time>
      </trkpt>
      <trkpt lat="43.44486" lon="6.77358">
        <ele>82.9</ele>
        <time>2012-12-09T10:39:57.000Z</time>
      </trkpt>
      <trkpt lat="43.44485" lon="6.77364">
        <ele>82.7</ele>
        <time>2012-12-09T10:39:58.000Z</time>
      </trkpt>
      <trkpt lat="43.44485" lon="6.7737">
        <ele>81.7</ele>
        <time>2012-12-09T10:39:59.000Z</time>
      </trkpt>
      <trkpt lat="43.44483" lon="6.77375">
        <ele>80.9</ele>
        <time>2012-12-09T10:40:00.000Z</time>
      </trkpt>
      <trkpt lat="43.44481" lon="6.7738">
        <ele>80.5</ele>
        <time>2012-12-09T10:40:01.000Z</time>
      </trkpt>
      <trkpt lat="43.44479" lon="6.77385">
        <ele>80.7</ele>
        <time>2012-12-09T10:40:02.000Z</time>
      </trkpt>
      <trkpt lat="43.44476" lon="6.77389">
        <ele>80.6</ele>
        <time>2012-12-09T10:40:03.000Z</time>
      </trkpt>
      <trkpt lat="43.44474" lon="6.77394">
        <ele>80.7</ele>
        <time>2012-12-09T10:40:04.000Z</time>
      </trkpt>
      <trkpt lat="43.44471" lon="6.77397">
        <ele>81.9</ele>
        <time>2012-12-09T10:40:05.000Z</time>
      </trkpt>
      <trkpt lat="43.44467" lon="6.77399">
        <ele>82.8</ele>
        <time>2012-12-09T10:40:06.000Z</time>
      </trkpt>
      <trkpt lat="43.44464" lon="6.77401">
        <ele>83.8</ele>
        <time>2012-12-09T10:40:07.000Z</time>
      </trkpt>
      <trkpt lat="43.44461" lon="6.77402">
        <ele>83.9</ele>
        <time>2012-12-09T10:40:08.000Z</time>
      </trkpt>
      <trkpt lat="43.44457" lon="6.77402">
        <ele>83.8</ele>
        <time>2012-12-09T10:40:09.000Z</time>
      </trkpt>
      <trkpt lat="43.44454" lon="6.77401">
        <ele>83.7</ele>
        <time>2012-12-09T10:40:10.000Z</time>
      </trkpt>
      <trkpt lat="43.44451" lon="6.77399">
        <ele>83.9</ele>
        <time>2012-12-09T10:40:11.000Z</time>
      </trkpt>
      <trkpt lat="43.44447" lon="6.77397">
        <ele>86</ele>
        <time>2012-12-09T10:40:12.000Z</time>
      </trkpt>
      <trkpt lat="43.44443" lon="6.77396">
        <ele>87.1</ele>
        <time>2012-12-09T10:40:13.000Z</time>
      </trkpt>
      <trkpt lat="43.44439" lon="6.77394">
        <ele>86.8</ele>
        <time>2012-12-09T10:40:14.000Z</time>
      </trkpt>
      <trkpt lat="43.44436" lon="6.77393">
        <ele>87.5</ele>
        <time>2012-12-09T10:40:15.000Z</time>
      </trkpt>
      <trkpt lat="43.44433" lon="6.77392">
        <ele>87.9</ele>
        <time>2012-12-09T10:40:16.000Z</time>
      </trkpt>
      <trkpt lat="43.44431" lon="6.77392">
        <ele>88.2</ele>
        <time>2012-12-09T10:40:17.000Z</time>
      </trkpt>
      <trkpt lat="43.44427" lon="6.77393">
        <ele>88.5</ele>
        <time>2012-12-09T10:40:18.000Z</time>
      </trkpt>
      <trkpt lat="43.44424" lon="6.77393">
        <ele>88.8</ele>
        <time>2012-12-09T10:40:19.000Z</time>
      </trkpt>
      <trkpt lat="43.44421" lon="6.77394">
        <ele>88.7</ele>
        <time>2012-12-09T10:40:20.000Z</time>
      </trkpt>
      <trkpt lat="43.44418" lon="6.77396">
        <ele>88.6</ele>
        <time>2012-12-09T10:40:21.000Z</time>
      </trkpt>
      <trkpt lat="43.44415" lon="6.77398">
        <ele>88.5</ele>
        <time>2012-12-09T10:40:22.000Z</time>
      </trkpt>
      <trkpt lat="43.44412" lon="6.77401">
        <ele>88.4</ele>
        <time>2012-12-09T10:40:23.000Z</time>
      </trkpt>
      <trkpt lat="43.44409" lon="6.77405">
        <ele>88.3</ele>
        <time>2012-12-09T10:40:24.000Z</time>
      </trkpt>
      <trkpt lat="43.44406" lon="6.77409">
        <ele>87.9</ele>
        <time>2012-12-09T10:40:25.000Z</time>
      </trkpt>
      <trkpt lat="43.44402" lon="6.77413">
        <ele>87.2</ele>
        <time>2012-12-09T10:40:26.000Z</time>
      </trkpt>
      <trkpt lat="43.444" lon="6.77419">
        <ele>86.3</ele>
        <time>2012-12-09T10:40:27.000Z</time>
      </trkpt>
      <trkpt lat="43.44398" lon="6.77424">
        <ele>85.8</ele>
        <time>2012-12-09T10:40:28.000Z</time>
      </trkpt>
      <trkpt lat="43.44396" lon="6.7743">
        <ele>85.5</ele>
        <time>2012-12-09T10:40:29.000Z</time>
      </trkpt>
      <trkpt lat="43.44395" lon="6.77436">
        <ele>85.6</ele>
        <time>2012-12-09T10:40:30.000Z</time>
      </trkpt>
      <trkpt lat="43.44395" lon="6.77442">
        <ele>85.4</ele>
        <time>2012-12-09T10:40:31.000Z</time>
      </trkpt>
      <trkpt lat="43.44394" lon="6.77447">
        <ele>85.3</ele>
        <time>2012-12-09T10:40:32.000Z</time>
      </trkpt>
      <trkpt lat="43.44394" lon="6.77453">
        <ele>85.2</ele>
        <time>2012-12-09T10:40:33.000Z</time>
      </trkpt>
      <trkpt lat="43.44395" lon="6.77458">
        <ele>85.1</ele>
        <time>2012-12-09T10:40:34.000Z</time>
      </trkpt>
      <trkpt lat="43.44396" lon="6.77463">
        <ele>85.1</ele>
        <time>2012-12-09T10:40:35.000Z</time>
      </trkpt>
      <trkpt lat="43.44397" lon="6.77469">
        <ele>85</ele>
        <time>2012-12-09T10:40:36.000Z</time>
      </trkpt>
      <trkpt lat="43.44398" lon="6.77474">
        <ele>84.8</ele>
        <time>2012-12-09T10:40:37.000Z</time>
      </trkpt>
      <trkpt lat="43.444" lon="6.77479">
        <ele>84.7</ele>
        <time>2012-12-09T10:40:38.000Z</time>
      </trkpt>
      <trkpt lat="43.44401" lon="6.77483">
        <ele>84.4</ele>
        <time>2012-12-09T10:40:39.000Z</time>
      </trkpt>
      <trkpt lat="43.44402" lon="6.77488">
        <ele>84.1</ele>
        <time>2012-12-09T10:40:40.000Z</time>
      </trkpt>
      <trkpt lat="43.44404" lon="6.77492">
        <ele>84</ele>
        <time>2012-12-09T10:40:41.000Z</time>
      </trkpt>
      <trkpt lat="43.44405" lon="6.77496">
        <ele>83.9</ele>
        <time>2012-12-09T10:40:42.000Z</time>
      </trkpt>
      <trkpt lat="43.44406" lon="6.77499">
        <ele>83.7</ele>
        <time>2012-12-09T10:40:43.000Z</time>
      </trkpt>
      <trkpt lat="43.44407" lon="6.77503">
        <ele>83.7</ele>
        <time>2012-12-09T10:40:44.000Z</time>
      </trkpt>
      <trkpt lat="43.44409" lon="6.77507">
        <ele>83.6</ele>
        <time>2012-12-09T10:40:45.000Z</time>
      </trkpt>
      <trkpt lat="43.4441" lon="6.77511">
        <ele>83.7</ele>
        <time>2012-12-09T10:40:46.000Z</time>
      </trkpt>
      <trkpt lat="43.44418" lon="6.77544">
        <ele>78.8</ele>
        <time>2012-12-09T10:40:51.000Z</time>
      </trkpt>
      <trkpt lat="43.44414" lon="6.77549">
        <ele>77</ele>
        <time>2012-12-09T10:40:52.000Z</time>
      </trkpt>
      <trkpt lat="43.44412" lon="6.77552">
        <ele>81.9</ele>
        <time>2012-12-09T10:40:53.000Z</time>
      </trkpt>
      <trkpt lat="43.4441" lon="6.77553">
        <ele>83.3</ele>
        <time>2012-12-09T10:40:54.000Z</time>
      </trkpt>
      <trkpt lat="43.44408" lon="6.77558">
        <ele>84.8</ele>
        <time>2012-12-09T10:40:55.000Z</time>
      </trkpt>
      <trkpt lat="43.44406" lon="6.77561">
        <ele>85.2</ele>
        <time>2012-12-09T10:40:56.000Z</time>
      </trkpt>
      <trkpt lat="43.44404" lon="6.77566">
        <ele>84</ele>
        <time>2012-12-09T10:40:57.000Z</time>
      </trkpt>
      <trkpt lat="43.44402" lon="6.77569">
        <ele>83.4</ele>
        <time>2012-12-09T10:40:58.000Z</time>
      </trkpt>
      <trkpt lat="43.444" lon="6.77573">
        <ele>82.9</ele>
        <time>2012-12-09T10:40:59.000Z</time>
      </trkpt>
      <trkpt lat="43.44398" lon="6.77577">
        <ele>82.5</ele>
        <time>2012-12-09T10:41:00.000Z</time>
      </trkpt>
      <trkpt lat="43.44395" lon="6.7758">
        <ele>81.9</ele>
        <time>2012-12-09T10:41:01.000Z</time>
      </trkpt>
      <trkpt lat="43.44393" lon="6.77584">
        <ele>81.1</ele>
        <time>2012-12-09T10:41:02.000Z</time>
      </trkpt>
      <trkpt lat="43.4439" lon="6.77588">
        <ele>80.4</ele>
        <time>2012-12-09T10:41:03.000Z</time>
      </trkpt>
      <trkpt lat="43.44387" lon="6.77591">
        <ele>81.3</ele>
        <time>2012-12-09T10:41:04.000Z</time>
      </trkpt>
      <trkpt lat="43.44384" lon="6.77594">
        <ele>82</ele>
        <time>2012-12-09T10:41:05.000Z</time>
      </trkpt>
      <trkpt lat="43.44381" lon="6.77597">
        <ele>82.6</ele>
        <time>2012-12-09T10:41:06.000Z</time>
      </trkpt>
      <trkpt lat="43.44377" lon="6.77599">
        <ele>83.2</ele>
        <time>2012-12-09T10:41:07.000Z</time>
      </trkpt>
      <trkpt lat="43.44374" lon="6.77601">
        <ele>83.4</ele>
        <time>2012-12-09T10:41:08.000Z</time>
      </trkpt>
      <trkpt lat="43.4437" lon="6.77603">
        <ele>83.9</ele>
        <time>2012-12-09T10:41:09.000Z</time>
      </trkpt>
      <trkpt lat="43.44367" lon="6.77605">
        <ele>84.4</ele>
        <time>2012-12-09T10:41:10.000Z</time>
      </trkpt>
      <trkpt lat="43.44364" lon="6.77608">
        <ele>84</ele>
        <time>2012-12-09T10:41:11.000Z</time>
      </trkpt>
      <trkpt lat="43.4436" lon="6.7761">
        <ele>84.2</ele>
        <time>2012-12-09T10:41:12.000Z</time>
      </trkpt>
      <trkpt lat="43.44357" lon="6.77613">
        <ele>84.3</ele>
        <time>2012-12-09T10:41:13.000Z</time>
      </trkpt>
      <trkpt lat="43.44354" lon="6.77616">
        <ele>83.5</ele>
        <time>2012-12-09T10:41:14.000Z</time>
      </trkpt>
      <trkpt lat="43.44351" lon="6.7762">
        <ele>82.6</ele>
        <time>2012-12-09T10:41:15.000Z</time>
      </trkpt>
      <trkpt lat="43.44348" lon="6.77624">
        <ele>82</ele>
        <time>2012-12-09T10:41:16.000Z</time>
      </trkpt>
      <trkpt lat="43.44345" lon="6.77627">
        <ele>81.6</ele>
        <time>2012-12-09T10:41:17.000Z</time>
      </trkpt>
      <trkpt lat="43.44342" lon="6.77631">
        <ele>81.5</ele>
        <time>2012-12-09T10:41:18.000Z</time>
      </trkpt>
      <trkpt lat="43.44338" lon="6.77635">
        <ele>81.6</ele>
        <time>2012-12-09T10:41:19.000Z</time>
      </trkpt>
      <trkpt lat="43.44335" lon="6.77638">
        <ele>81.9</ele>
        <time>2012-12-09T10:41:20.000Z</time>
      </trkpt>
      <trkpt lat="43.44332" lon="6.77642">
        <ele>81.9</ele>
        <time>2012-12-09T10:41:21.000Z</time>
      </trkpt>
      <trkpt lat="43.44328" lon="6.77645">
        <ele>82</ele>
        <time>2012-12-09T10:41:22.000Z</time>
      </trkpt>
      <trkpt lat="43.44325" lon="6.77649">
        <ele>81.8</ele>
        <time>2012-12-09T10:41:23.000Z</time>
      </trkpt>
      <trkpt lat="43.44322" lon="6.77652">
        <ele>81.5</ele>
        <time>2012-12-09T10:41:24.000Z</time>
      </trkpt>
      <trkpt lat="43.44319" lon="6.77655">
        <ele>81.5</ele>
        <time>2012-12-09T10:41:25.000Z</time>
      </trkpt>
      <trkpt lat="43.44315" lon="6.77659">
        <ele>81.1</ele>
        <time>2012-12-09T10:41:26.000Z</time>
      </trkpt>
      <trkpt lat="43.44312" lon="6.77663">
        <ele>80.9</ele>
        <time>2012-12-09T10:41:27.000Z</time>
      </trkpt>
      <trkpt lat="43.44309" lon="6.77666">
        <ele>80.9</ele>
        <time>2012-12-09T10:41:28.000Z</time>
      </trkpt>
      <trkpt lat="43.44305" lon="6.7767">
        <ele>80.8</ele>
        <time>2012-12-09T10:41:29.000Z</time>
      </trkpt>
      <trkpt lat="43.44302" lon="6.77674">
        <ele>80.5</ele>
        <time>2012-12-09T10:41:30.000Z</time>
      </trkpt>
      <trkpt lat="43.44299" lon="6.77678">
        <ele>80.4</ele>
        <time>2012-12-09T10:41:31.000Z</time>
      </trkpt>
      <trkpt lat="43.44296" lon="6.77681">
        <ele>80.4</ele>
        <time>2012-12-09T10:41:32.000Z</time>
      </trkpt>
      <trkpt lat="43.44293" lon="6.77685">
        <ele>80.6</ele>
        <time>2012-12-09T10:41:33.000Z</time>
      </trkpt>
      <trkpt lat="43.44289" lon="6.77688">
        <ele>80.8</ele>
        <time>2012-12-09T10:41:34.000Z</time>
      </trkpt>
      <trkpt lat="43.44286" lon="6.77691">
        <ele>81</ele>
        <time>2012-12-09T10:41:35.000Z</time>
      </trkpt>
      <trkpt lat="43.44283" lon="6.77694">
        <ele>81</ele>
        <time>2012-12-09T10:41:36.000Z</time>
      </trkpt>
      <trkpt lat="43.4428" lon="6.77698">
        <ele>81.2</ele>
        <time>2012-12-09T10:41:37.000Z</time>
      </trkpt>
      <trkpt lat="43.44278" lon="6.77701">
        <ele>81.1</ele>
        <time>2012-12-09T10:41:38.000Z</time>
      </trkpt>
      <trkpt lat="43.44275" lon="6.77703">
        <ele>81.1</ele>
        <time>2012-12-09T10:41:39.000Z</time>
      </trkpt>
      <trkpt lat="43.44273" lon="6.77706">
        <ele>81.2</ele>
        <time>2012-12-09T10:41:40.000Z</time>
      </trkpt>
      <trkpt lat="43.4427" lon="6.77709">
        <ele>81.3</ele>
        <time>2012-12-09T10:41:41.000Z</time>
      </trkpt>
      <trkpt lat="43.44267" lon="6.77712">
        <ele>81.6</ele>
        <time>2012-12-09T10:41:42.000Z</time>
      </trkpt>
      <trkpt lat="43.44263" lon="6.77716">
        <ele>81.8</ele>
        <time>2012-12-09T10:41:43.000Z</time>
      </trkpt>
      <trkpt lat="43.4426" lon="6.77719">
        <ele>82.5</ele>
        <time>2012-12-09T10:41:44.000Z</time>
      </trkpt>
      <trkpt lat="43.44256" lon="6.77721">
        <ele>82.9</ele>
        <time>2012-12-09T10:41:45.000Z</time>
      </trkpt>
      <trkpt lat="43.44253" lon="6.77724">
        <ele>83.1</ele>
        <time>2012-12-09T10:41:46.000Z</time>
      </trkpt>
      <trkpt lat="43.44249" lon="6.77727">
        <ele>83</ele>
        <time>2012-12-09T10:41:47.000Z</time>
      </trkpt>
      <trkpt lat="43.44246" lon="6.7773">
        <ele>82.8</ele>
        <time>2012-12-09T10:41:48.000Z</time>
      </trkpt>
      <trkpt lat="43.44243" lon="6.77733">
        <ele>82.6</ele>
        <time>2012-12-09T10:41:49.000Z</time>
      </trkpt>
      <trkpt lat="43.44241" lon="6.77736">
        <ele>82.6</ele>
        <time>2012-12-09T10:41:50.000Z</time>
      </trkpt>
      <trkpt lat="43.44238" lon="6.77739">
        <ele>82.6</ele>
        <time>2012-12-09T10:41:51.000Z</time>
      </trkpt>
      <trkpt lat="43.44235" lon="6.77743">
        <ele>82.6</ele>
        <time>2012-12-09T10:41:52.000Z</time>
      </trkpt>
      <trkpt lat="43.44232" lon="6.77745">
        <ele>82.8</ele>
        <time>2012-12-09T10:41:53.000Z</time>
      </trkpt>
      <trkpt lat="43.44229" lon="6.77748">
        <ele>82.8</ele>
        <time>2012-12-09T10:41:54.000Z</time>
      </trkpt>
      <trkpt lat="43.44227" lon="6.77751">
        <ele>83</ele>
        <time>2012-12-09T10:41:55.000Z</time>
      </trkpt>
      <trkpt lat="43.44224" lon="6.77754">
        <ele>83</ele>
        <time>2012-12-09T10:41:56.000Z</time>
      </trkpt>
      <trkpt lat="43.44221" lon="6.77757">
        <ele>83</ele>
        <time>2012-12-09T10:41:57.000Z</time>
      </trkpt>
      <trkpt lat="43.44218" lon="6.7776">
        <ele>83</ele>
        <time>2012-12-09T10:41:58.000Z</time>
      </trkpt>
      <trkpt lat="43.44215" lon="6.77762">
        <ele>83</ele>
        <time>2012-12-09T10:41:59.000Z</time>
      </trkpt>
      <trkpt lat="43.44213" lon="6.77765">
        <ele>83.2</ele>
        <time>2012-12-09T10:42:00.000Z</time>
      </trkpt>
      <trkpt lat="43.4421" lon="6.77767">
        <ele>83.5</ele>
        <time>2012-12-09T10:42:01.000Z</time>
      </trkpt>
      <trkpt lat="43.44207" lon="6.77769">
        <ele>83.6</ele>
        <time>2012-12-09T10:42:02.000Z</time>
      </trkpt>
      <trkpt lat="43.44204" lon="6.77772">
        <ele>83.7</ele>
        <time>2012-12-09T10:42:03.000Z</time>
      </trkpt>
      <trkpt lat="43.44202" lon="6.77774">
        <ele>83.6</ele>
        <time>2012-12-09T10:42:04.000Z</time>
      </trkpt>
      <trkpt lat="43.442" lon="6.77777">
        <ele>83.5</ele>
        <time>2012-12-09T10:42:05.000Z</time>
      </trkpt>
      <trkpt lat="43.44197" lon="6.77779">
        <ele>83.4</ele>
        <time>2012-12-09T10:42:06.000Z</time>
      </trkpt>
      <trkpt lat="43.44194" lon="6.77782">
        <ele>83.4</ele>
        <time>2012-12-09T10:42:07.000Z</time>
      </trkpt>
      <trkpt lat="43.44192" lon="6.77785">
        <ele>83.4</ele>
        <time>2012-12-09T10:42:08.000Z</time>
      </trkpt>
      <trkpt lat="43.4419" lon="6.77787">
        <ele>83.3</ele>
        <time>2012-12-09T10:42:09.000Z</time>
      </trkpt>
      <trkpt lat="43.44188" lon="6.77789">
        <ele>83.3</ele>
        <time>2012-12-09T10:42:10.000Z</time>
      </trkpt>
      <trkpt lat="43.44186" lon="6.77791">
        <ele>83.4</ele>
        <time>2012-12-09T10:42:11.000Z</time>
      </trkpt>
      <trkpt lat="43.44184" lon="6.77792">
        <ele>83.4</ele>
        <time>2012-12-09T10:42:12.000Z</time>
      </trkpt>
      <trkpt lat="43.4418" lon="6.77794">
        <ele>83.6</ele>
        <time>2012-12-09T10:42:14.000Z</time>
      </trkpt>
      <trkpt lat="43.44179" lon="6.77795">
        <ele>83.6</ele>
        <time>2012-12-09T10:42:15.000Z</time>
      </trkpt>
      <trkpt lat="43.44175" lon="6.77798">
        <ele>83.4</ele>
        <time>2012-12-09T10:42:18.000Z</time>
      </trkpt>
      <trkpt lat="43.44174" lon="6.77799">
        <ele>83.4</ele>
        <time>2012-12-09T10:42:19.000Z</time>
      </trkpt>
      <trkpt lat="43.4417" lon="6.77801">
        <ele>83.7</ele>
        <time>2012-12-09T10:42:21.000Z</time>
      </trkpt>
      <trkpt lat="43.44169" lon="6.77803">
        <ele>83.9</ele>
        <time>2012-12-09T10:42:22.000Z</time>
      </trkpt>
      <trkpt lat="43.44172" lon="6.77806">
        <ele>84.5</ele>
        <time>2012-12-09T10:42:26.000Z</time>
      </trkpt>
      <trkpt lat="43.44173" lon="6.77807">
        <ele>84.8</ele>
        <time>2012-12-09T10:42:27.000Z</time>
      </trkpt>
      <trkpt lat="43.44175" lon="6.77808">
        <ele>85.1</ele>
        <time>2012-12-09T10:42:46.000Z</time>
      </trkpt>
      <trkpt lat="43.44177" lon="6.77803">
        <ele>83.9</ele>
        <time>2012-12-09T10:42:50.000Z</time>
      </trkpt>
      <trkpt lat="43.44174" lon="6.77796">
        <ele>83.3</ele>
        <time>2012-12-09T10:42:52.000Z</time>
      </trkpt>
      <trkpt lat="43.44174" lon="6.77796">
        <ele>83.3</ele>
        <time>2012-12-09T10:43:46.000Z</time>
      </trkpt>
      <trkpt lat="43.44179" lon="6.77811">
        <ele>78.3</ele>
        <time>2012-12-09T10:43:51.000Z</time>
      </trkpt>
      <trkpt lat="43.44175" lon="6.77811">
        <ele>85.1</ele>
        <time>2012-12-09T10:44:03.000Z</time>
      </trkpt>
      <trkpt lat="43.44174" lon="6.77811">
        <ele>85.8</ele>
        <time>2012-12-09T10:44:04.000Z</time>
      </trkpt>
      <trkpt lat="43.44173" lon="6.77811">
        <ele>87.7</ele>
        <time>2012-12-09T10:45:16.000Z</time>
      </trkpt>
    </trkseg>
  </trk>
</gpx>